<?xml version="1.0" encoding="UTF-8" standalone="no" ?>
<gpx xmlns="http://www.topografix.com/GPX/1/1" xmlns:xsi="http://www.w3.org/2001/XMLSchema-instance" xsi:schemaLocation="http://www.topografix.com/GPX/1/1 http://www.topografix.com/GPX/1/1/gpx.xsd" version="1.1" creator="VisuGPX - https://www.visugpx.com">
  <metadata>
    <name>rando frejus sentier des douaniers 5.8 km</name>
    <desc><![CDATA[https://rando-pedestre-33.over-blog.com/2023/05/rando-frejus-6-km.html
]]></desc>
  </metadata>
  <trk>
    <name><![CDATA[rando frejus sentier des douaniers 5.8 km]]></name>
    <trkseg>
      <trkpt lat="43.39066" lon="6.73021">
        <ele>10.5</ele>
        <time>2023-05-16T13:38:06Z</time>
      </trkpt>
      <trkpt lat="43.39066" lon="6.7302">
        <ele>10.4</ele>
        <time>2023-05-16T13:38:07Z</time>
      </trkpt>
      <trkpt lat="43.39066" lon="6.7302">
        <ele>10.4</ele>
        <time>2023-05-16T13:38:08Z</time>
      </trkpt>
      <trkpt lat="43.39065" lon="6.73019">
        <ele>10.4</ele>
        <time>2023-05-16T13:38:09Z</time>
      </trkpt>
      <trkpt lat="43.39066" lon="6.73019">
        <ele>10.4</ele>
        <time>2023-05-16T13:38:10Z</time>
      </trkpt>
      <trkpt lat="43.39066" lon="6.73019">
        <ele>10.4</ele>
        <time>2023-05-16T13:38:11Z</time>
      </trkpt>
      <trkpt lat="43.39067" lon="6.73019">
        <ele>10.4</ele>
        <time>2023-05-16T13:38:12Z</time>
      </trkpt>
      <trkpt lat="43.39068" lon="6.73019">
        <ele>10.3</ele>
        <time>2023-05-16T13:38:13Z</time>
      </trkpt>
      <trkpt lat="43.39068" lon="6.73019">
        <ele>10.3</ele>
        <time>2023-05-16T13:38:14Z</time>
      </trkpt>
      <trkpt lat="43.39069" lon="6.7302">
        <ele>10.3</ele>
        <time>2023-05-16T13:38:15Z</time>
      </trkpt>
      <trkpt lat="43.3907" lon="6.7302">
        <ele>10.3</ele>
        <time>2023-05-16T13:38:16Z</time>
      </trkpt>
      <trkpt lat="43.39071" lon="6.73021">
        <ele>10.3</ele>
        <time>2023-05-16T13:38:17Z</time>
      </trkpt>
      <trkpt lat="43.39072" lon="6.73022">
        <ele>10.2</ele>
        <time>2023-05-16T13:38:18Z</time>
      </trkpt>
      <trkpt lat="43.39073" lon="6.73022">
        <ele>10.2</ele>
        <time>2023-05-16T13:38:19Z</time>
      </trkpt>
      <trkpt lat="43.39073" lon="6.73022">
        <ele>10.2</ele>
        <time>2023-05-16T13:38:20Z</time>
      </trkpt>
      <trkpt lat="43.39074" lon="6.73023">
        <ele>10.2</ele>
        <time>2023-05-16T13:38:21Z</time>
      </trkpt>
      <trkpt lat="43.39075" lon="6.73023">
        <ele>10.1</ele>
        <time>2023-05-16T13:38:22Z</time>
      </trkpt>
      <trkpt lat="43.39076" lon="6.73024">
        <ele>10.1</ele>
        <time>2023-05-16T13:38:23Z</time>
      </trkpt>
      <trkpt lat="43.39077" lon="6.73024">
        <ele>10.1</ele>
        <time>2023-05-16T13:38:24Z</time>
      </trkpt>
      <trkpt lat="43.39078" lon="6.73024">
        <ele>10</ele>
        <time>2023-05-16T13:38:25Z</time>
      </trkpt>
      <trkpt lat="43.39079" lon="6.73025">
        <ele>10</ele>
        <time>2023-05-16T13:38:26Z</time>
      </trkpt>
      <trkpt lat="43.3908" lon="6.73025">
        <ele>10</ele>
        <time>2023-05-16T13:38:27Z</time>
      </trkpt>
      <trkpt lat="43.39081" lon="6.73026">
        <ele>10</ele>
        <time>2023-05-16T13:38:28Z</time>
      </trkpt>
      <trkpt lat="43.39083" lon="6.73027">
        <ele>9.9</ele>
        <time>2023-05-16T13:38:29Z</time>
      </trkpt>
      <trkpt lat="43.39083" lon="6.73027">
        <ele>9.9</ele>
        <time>2023-05-16T13:38:30Z</time>
      </trkpt>
      <trkpt lat="43.39084" lon="6.73027">
        <ele>9.9</ele>
        <time>2023-05-16T13:38:31Z</time>
      </trkpt>
      <trkpt lat="43.39085" lon="6.73027">
        <ele>9.9</ele>
        <time>2023-05-16T13:38:32Z</time>
      </trkpt>
      <trkpt lat="43.39086" lon="6.73028">
        <ele>9.9</ele>
        <time>2023-05-16T13:38:33Z</time>
      </trkpt>
      <trkpt lat="43.39087" lon="6.73029">
        <ele>9.9</ele>
        <time>2023-05-16T13:38:34Z</time>
      </trkpt>
      <trkpt lat="43.39087" lon="6.73029">
        <ele>9.9</ele>
        <time>2023-05-16T13:38:35Z</time>
      </trkpt>
      <trkpt lat="43.39088" lon="6.7303">
        <ele>9.9</ele>
        <time>2023-05-16T13:38:36Z</time>
      </trkpt>
      <trkpt lat="43.39089" lon="6.7303">
        <ele>9.8</ele>
        <time>2023-05-16T13:38:37Z</time>
      </trkpt>
      <trkpt lat="43.3909" lon="6.73031">
        <ele>9.8</ele>
        <time>2023-05-16T13:38:38Z</time>
      </trkpt>
      <trkpt lat="43.39091" lon="6.73032">
        <ele>9.8</ele>
        <time>2023-05-16T13:38:39Z</time>
      </trkpt>
      <trkpt lat="43.39092" lon="6.73032">
        <ele>9.8</ele>
        <time>2023-05-16T13:38:40Z</time>
      </trkpt>
      <trkpt lat="43.39093" lon="6.73033">
        <ele>9.8</ele>
        <time>2023-05-16T13:38:41Z</time>
      </trkpt>
      <trkpt lat="43.39094" lon="6.73033">
        <ele>9.7</ele>
        <time>2023-05-16T13:38:42Z</time>
      </trkpt>
      <trkpt lat="43.39096" lon="6.73034">
        <ele>9.7</ele>
        <time>2023-05-16T13:38:43Z</time>
      </trkpt>
      <trkpt lat="43.39097" lon="6.73034">
        <ele>9.7</ele>
        <time>2023-05-16T13:38:44Z</time>
      </trkpt>
      <trkpt lat="43.39098" lon="6.73035">
        <ele>9.7</ele>
        <time>2023-05-16T13:38:45Z</time>
      </trkpt>
      <trkpt lat="43.39099" lon="6.73035">
        <ele>9.7</ele>
        <time>2023-05-16T13:38:46Z</time>
      </trkpt>
      <trkpt lat="43.39099" lon="6.73036">
        <ele>9.6</ele>
        <time>2023-05-16T13:38:47Z</time>
      </trkpt>
      <trkpt lat="43.39101" lon="6.73037">
        <ele>9.6</ele>
        <time>2023-05-16T13:38:48Z</time>
      </trkpt>
      <trkpt lat="43.39101" lon="6.73037">
        <ele>9.6</ele>
        <time>2023-05-16T13:38:49Z</time>
      </trkpt>
      <trkpt lat="43.39102" lon="6.73038">
        <ele>9.6</ele>
        <time>2023-05-16T13:38:50Z</time>
      </trkpt>
      <trkpt lat="43.39103" lon="6.73039">
        <ele>9.5</ele>
        <time>2023-05-16T13:38:51Z</time>
      </trkpt>
      <trkpt lat="43.39104" lon="6.7304">
        <ele>9.5</ele>
        <time>2023-05-16T13:38:52Z</time>
      </trkpt>
      <trkpt lat="43.39105" lon="6.73041">
        <ele>9.5</ele>
        <time>2023-05-16T13:38:53Z</time>
      </trkpt>
      <trkpt lat="43.39106" lon="6.73042">
        <ele>9.4</ele>
        <time>2023-05-16T13:38:54Z</time>
      </trkpt>
      <trkpt lat="43.39107" lon="6.73043">
        <ele>9.4</ele>
        <time>2023-05-16T13:38:55Z</time>
      </trkpt>
      <trkpt lat="43.39108" lon="6.73043">
        <ele>9.4</ele>
        <time>2023-05-16T13:38:56Z</time>
      </trkpt>
      <trkpt lat="43.39112" lon="6.73045">
        <ele>9.3</ele>
        <time>2023-05-16T13:38:57Z</time>
      </trkpt>
      <trkpt lat="43.39113" lon="6.73045">
        <ele>9.2</ele>
        <time>2023-05-16T13:38:58Z</time>
      </trkpt>
      <trkpt lat="43.39114" lon="6.73046">
        <ele>9.2</ele>
        <time>2023-05-16T13:38:59Z</time>
      </trkpt>
      <trkpt lat="43.39115" lon="6.73046">
        <ele>9.1</ele>
        <time>2023-05-16T13:39:00Z</time>
      </trkpt>
      <trkpt lat="43.39117" lon="6.73046">
        <ele>9.1</ele>
        <time>2023-05-16T13:39:01Z</time>
      </trkpt>
      <trkpt lat="43.39118" lon="6.73047">
        <ele>9</ele>
        <time>2023-05-16T13:39:02Z</time>
      </trkpt>
      <trkpt lat="43.3912" lon="6.73049">
        <ele>8.9</ele>
        <time>2023-05-16T13:39:04Z</time>
      </trkpt>
      <trkpt lat="43.3912" lon="6.73049">
        <ele>8.9</ele>
        <time>2023-05-16T13:39:05Z</time>
      </trkpt>
      <trkpt lat="43.39121" lon="6.7305">
        <ele>8.8</ele>
        <time>2023-05-16T13:39:06Z</time>
      </trkpt>
      <trkpt lat="43.39122" lon="6.73051">
        <ele>8.8</ele>
        <time>2023-05-16T13:39:07Z</time>
      </trkpt>
      <trkpt lat="43.39124" lon="6.73052">
        <ele>8.7</ele>
        <time>2023-05-16T13:39:08Z</time>
      </trkpt>
      <trkpt lat="43.39124" lon="6.73053">
        <ele>8.6</ele>
        <time>2023-05-16T13:39:09Z</time>
      </trkpt>
      <trkpt lat="43.39124" lon="6.73054">
        <ele>8.6</ele>
        <time>2023-05-16T13:39:10Z</time>
      </trkpt>
      <trkpt lat="43.39125" lon="6.73055">
        <ele>8.5</ele>
        <time>2023-05-16T13:39:11Z</time>
      </trkpt>
      <trkpt lat="43.39126" lon="6.73056">
        <ele>8.4</ele>
        <time>2023-05-16T13:39:12Z</time>
      </trkpt>
      <trkpt lat="43.39127" lon="6.73057">
        <ele>8.5</ele>
        <time>2023-05-16T13:39:13Z</time>
      </trkpt>
      <trkpt lat="43.39127" lon="6.73058">
        <ele>8.5</ele>
        <time>2023-05-16T13:39:14Z</time>
      </trkpt>
      <trkpt lat="43.39128" lon="6.73059">
        <ele>8.5</ele>
        <time>2023-05-16T13:39:16Z</time>
      </trkpt>
      <trkpt lat="43.39128" lon="6.7306">
        <ele>8.5</ele>
        <time>2023-05-16T13:39:17Z</time>
      </trkpt>
      <trkpt lat="43.39128" lon="6.73061">
        <ele>8.6</ele>
        <time>2023-05-16T13:39:19Z</time>
      </trkpt>
      <trkpt lat="43.39127" lon="6.73061">
        <ele>8.6</ele>
        <time>2023-05-16T13:39:20Z</time>
      </trkpt>
      <trkpt lat="43.39127" lon="6.73061">
        <ele>8.6</ele>
        <time>2023-05-16T13:39:21Z</time>
      </trkpt>
      <trkpt lat="43.39126" lon="6.73061">
        <ele>8.6</ele>
        <time>2023-05-16T13:39:22Z</time>
      </trkpt>
      <trkpt lat="43.39124" lon="6.73061">
        <ele>8.7</ele>
        <time>2023-05-16T13:39:24Z</time>
      </trkpt>
      <trkpt lat="43.39124" lon="6.73062">
        <ele>8.7</ele>
        <time>2023-05-16T13:39:25Z</time>
      </trkpt>
      <trkpt lat="43.39124" lon="6.73064">
        <ele>8.7</ele>
        <time>2023-05-16T13:39:26Z</time>
      </trkpt>
      <trkpt lat="43.39125" lon="6.73065">
        <ele>8.8</ele>
        <time>2023-05-16T13:39:27Z</time>
      </trkpt>
      <trkpt lat="43.39127" lon="6.73064">
        <ele>8.8</ele>
        <time>2023-05-16T13:39:28Z</time>
      </trkpt>
      <trkpt lat="43.3913" lon="6.73064">
        <ele>8.9</ele>
        <time>2023-05-16T13:39:30Z</time>
      </trkpt>
      <trkpt lat="43.39131" lon="6.73064">
        <ele>8.9</ele>
        <time>2023-05-16T13:39:32Z</time>
      </trkpt>
      <trkpt lat="43.39131" lon="6.73065">
        <ele>8.9</ele>
        <time>2023-05-16T13:39:33Z</time>
      </trkpt>
      <trkpt lat="43.39131" lon="6.73065">
        <ele>8.9</ele>
        <time>2023-05-16T13:39:34Z</time>
      </trkpt>
      <trkpt lat="43.39131" lon="6.73065">
        <ele>8.9</ele>
        <time>2023-05-16T13:39:35Z</time>
      </trkpt>
      <trkpt lat="43.3913" lon="6.73065">
        <ele>8.9</ele>
        <time>2023-05-16T13:39:37Z</time>
      </trkpt>
      <trkpt lat="43.3913" lon="6.73065">
        <ele>8.9</ele>
        <time>2023-05-16T13:39:38Z</time>
      </trkpt>
      <trkpt lat="43.3913" lon="6.73065">
        <ele>8.9</ele>
        <time>2023-05-16T13:39:39Z</time>
      </trkpt>
      <trkpt lat="43.3913" lon="6.73065">
        <ele>8.9</ele>
        <time>2023-05-16T13:39:40Z</time>
      </trkpt>
      <trkpt lat="43.39131" lon="6.73065">
        <ele>8.9</ele>
        <time>2023-05-16T13:39:42Z</time>
      </trkpt>
      <trkpt lat="43.39131" lon="6.73065">
        <ele>8.9</ele>
        <time>2023-05-16T13:39:43Z</time>
      </trkpt>
      <trkpt lat="43.39131" lon="6.73065">
        <ele>8.9</ele>
        <time>2023-05-16T13:39:45Z</time>
      </trkpt>
      <trkpt lat="43.39131" lon="6.73065">
        <ele>8.9</ele>
        <time>2023-05-16T13:39:46Z</time>
      </trkpt>
      <trkpt lat="43.39131" lon="6.73065">
        <ele>8.9</ele>
        <time>2023-05-16T13:39:47Z</time>
      </trkpt>
      <trkpt lat="43.39131" lon="6.73065">
        <ele>8.9</ele>
        <time>2023-05-16T13:39:49Z</time>
      </trkpt>
      <trkpt lat="43.39131" lon="6.73065">
        <ele>8.9</ele>
        <time>2023-05-16T13:39:50Z</time>
      </trkpt>
      <trkpt lat="43.39129" lon="6.73064">
        <ele>8.9</ele>
        <time>2023-05-16T13:39:51Z</time>
      </trkpt>
      <trkpt lat="43.39128" lon="6.73064">
        <ele>9</ele>
        <time>2023-05-16T13:39:52Z</time>
      </trkpt>
      <trkpt lat="43.39128" lon="6.73063">
        <ele>9</ele>
        <time>2023-05-16T13:39:53Z</time>
      </trkpt>
      <trkpt lat="43.39128" lon="6.73063">
        <ele>9</ele>
        <time>2023-05-16T13:39:54Z</time>
      </trkpt>
      <trkpt lat="43.39128" lon="6.73063">
        <ele>9</ele>
        <time>2023-05-16T13:39:55Z</time>
      </trkpt>
      <trkpt lat="43.39128" lon="6.73063">
        <ele>9</ele>
        <time>2023-05-16T13:39:56Z</time>
      </trkpt>
      <trkpt lat="43.39128" lon="6.73063">
        <ele>9</ele>
        <time>2023-05-16T13:39:57Z</time>
      </trkpt>
      <trkpt lat="43.39127" lon="6.73063">
        <ele>9</ele>
        <time>2023-05-16T13:39:58Z</time>
      </trkpt>
      <trkpt lat="43.39127" lon="6.73063">
        <ele>9</ele>
        <time>2023-05-16T13:39:59Z</time>
      </trkpt>
      <trkpt lat="43.39131" lon="6.73066">
        <ele>9</ele>
        <time>2023-05-16T13:40:00Z</time>
      </trkpt>
      <trkpt lat="43.39131" lon="6.73066">
        <ele>9</ele>
        <time>2023-05-16T13:40:02Z</time>
      </trkpt>
      <trkpt lat="43.39131" lon="6.73066">
        <ele>9</ele>
        <time>2023-05-16T13:40:03Z</time>
      </trkpt>
      <trkpt lat="43.39131" lon="6.73066">
        <ele>9</ele>
        <time>2023-05-16T13:40:04Z</time>
      </trkpt>
      <trkpt lat="43.3913" lon="6.73066">
        <ele>9</ele>
        <time>2023-05-16T13:40:06Z</time>
      </trkpt>
      <trkpt lat="43.3913" lon="6.73066">
        <ele>9</ele>
        <time>2023-05-16T13:40:07Z</time>
      </trkpt>
      <trkpt lat="43.3913" lon="6.73065">
        <ele>9</ele>
        <time>2023-05-16T13:40:08Z</time>
      </trkpt>
      <trkpt lat="43.39129" lon="6.73065">
        <ele>9.1</ele>
        <time>2023-05-16T13:40:10Z</time>
      </trkpt>
      <trkpt lat="43.39129" lon="6.73065">
        <ele>9.1</ele>
        <time>2023-05-16T13:40:11Z</time>
      </trkpt>
      <trkpt lat="43.39129" lon="6.73065">
        <ele>9.1</ele>
        <time>2023-05-16T13:40:12Z</time>
      </trkpt>
      <trkpt lat="43.39128" lon="6.73065">
        <ele>9.1</ele>
        <time>2023-05-16T13:40:13Z</time>
      </trkpt>
      <trkpt lat="43.39127" lon="6.73065">
        <ele>9.1</ele>
        <time>2023-05-16T13:40:14Z</time>
      </trkpt>
      <trkpt lat="43.39126" lon="6.73066">
        <ele>9.1</ele>
        <time>2023-05-16T13:40:15Z</time>
      </trkpt>
      <trkpt lat="43.39124" lon="6.73069">
        <ele>9.1</ele>
        <time>2023-05-16T13:40:17Z</time>
      </trkpt>
      <trkpt lat="43.39123" lon="6.73069">
        <ele>9.1</ele>
        <time>2023-05-16T13:40:18Z</time>
      </trkpt>
      <trkpt lat="43.39122" lon="6.73071">
        <ele>9.2</ele>
        <time>2023-05-16T13:40:19Z</time>
      </trkpt>
      <trkpt lat="43.39122" lon="6.73073">
        <ele>9.2</ele>
        <time>2023-05-16T13:40:20Z</time>
      </trkpt>
      <trkpt lat="43.39121" lon="6.73076">
        <ele>9.2</ele>
        <time>2023-05-16T13:40:21Z</time>
      </trkpt>
      <trkpt lat="43.3912" lon="6.73078">
        <ele>9.2</ele>
        <time>2023-05-16T13:40:23Z</time>
      </trkpt>
      <trkpt lat="43.39119" lon="6.73079">
        <ele>9.2</ele>
        <time>2023-05-16T13:40:24Z</time>
      </trkpt>
      <trkpt lat="43.39118" lon="6.7308">
        <ele>9.2</ele>
        <time>2023-05-16T13:40:25Z</time>
      </trkpt>
      <trkpt lat="43.39118" lon="6.73082">
        <ele>9.2</ele>
        <time>2023-05-16T13:40:27Z</time>
      </trkpt>
      <trkpt lat="43.39118" lon="6.73083">
        <ele>9.2</ele>
        <time>2023-05-16T13:40:28Z</time>
      </trkpt>
      <trkpt lat="43.39118" lon="6.73086">
        <ele>9.2</ele>
        <time>2023-05-16T13:40:30Z</time>
      </trkpt>
      <trkpt lat="43.39117" lon="6.7309">
        <ele>9.2</ele>
        <time>2023-05-16T13:40:31Z</time>
      </trkpt>
      <trkpt lat="43.39117" lon="6.73091">
        <ele>9.2</ele>
        <time>2023-05-16T13:40:32Z</time>
      </trkpt>
      <trkpt lat="43.39117" lon="6.73092">
        <ele>9.2</ele>
        <time>2023-05-16T13:40:33Z</time>
      </trkpt>
      <trkpt lat="43.39117" lon="6.73093">
        <ele>9.2</ele>
        <time>2023-05-16T13:40:34Z</time>
      </trkpt>
      <trkpt lat="43.39117" lon="6.73095">
        <ele>9.2</ele>
        <time>2023-05-16T13:40:35Z</time>
      </trkpt>
      <trkpt lat="43.39117" lon="6.73098">
        <ele>9.2</ele>
        <time>2023-05-16T13:40:36Z</time>
      </trkpt>
      <trkpt lat="43.39117" lon="6.73099">
        <ele>9.2</ele>
        <time>2023-05-16T13:40:37Z</time>
      </trkpt>
      <trkpt lat="43.39117" lon="6.731">
        <ele>9.2</ele>
        <time>2023-05-16T13:40:38Z</time>
      </trkpt>
      <trkpt lat="43.39116" lon="6.73103">
        <ele>9.1</ele>
        <time>2023-05-16T13:40:40Z</time>
      </trkpt>
      <trkpt lat="43.39116" lon="6.73104">
        <ele>9.1</ele>
        <time>2023-05-16T13:40:41Z</time>
      </trkpt>
      <trkpt lat="43.39116" lon="6.73105">
        <ele>9.1</ele>
        <time>2023-05-16T13:40:42Z</time>
      </trkpt>
      <trkpt lat="43.39116" lon="6.73108">
        <ele>9.1</ele>
        <time>2023-05-16T13:40:44Z</time>
      </trkpt>
      <trkpt lat="43.39116" lon="6.7311">
        <ele>9.1</ele>
        <time>2023-05-16T13:40:45Z</time>
      </trkpt>
      <trkpt lat="43.39117" lon="6.73111">
        <ele>9.1</ele>
        <time>2023-05-16T13:40:46Z</time>
      </trkpt>
      <trkpt lat="43.39117" lon="6.73112">
        <ele>9.1</ele>
        <time>2023-05-16T13:40:47Z</time>
      </trkpt>
      <trkpt lat="43.39117" lon="6.73113">
        <ele>9.1</ele>
        <time>2023-05-16T13:40:49Z</time>
      </trkpt>
      <trkpt lat="43.39117" lon="6.73112">
        <ele>9.1</ele>
        <time>2023-05-16T13:40:50Z</time>
      </trkpt>
      <trkpt lat="43.39117" lon="6.73112">
        <ele>9.1</ele>
        <time>2023-05-16T13:40:51Z</time>
      </trkpt>
      <trkpt lat="43.39117" lon="6.73112">
        <ele>9.1</ele>
        <time>2023-05-16T13:40:52Z</time>
      </trkpt>
      <trkpt lat="43.39116" lon="6.73113">
        <ele>9.1</ele>
        <time>2023-05-16T13:40:53Z</time>
      </trkpt>
      <trkpt lat="43.39116" lon="6.73114">
        <ele>9.1</ele>
        <time>2023-05-16T13:40:54Z</time>
      </trkpt>
      <trkpt lat="43.39117" lon="6.73115">
        <ele>9.1</ele>
        <time>2023-05-16T13:40:55Z</time>
      </trkpt>
      <trkpt lat="43.39117" lon="6.73117">
        <ele>9.1</ele>
        <time>2023-05-16T13:40:56Z</time>
      </trkpt>
      <trkpt lat="43.39117" lon="6.73119">
        <ele>9.1</ele>
        <time>2023-05-16T13:40:58Z</time>
      </trkpt>
      <trkpt lat="43.39117" lon="6.73121">
        <ele>9.1</ele>
        <time>2023-05-16T13:40:59Z</time>
      </trkpt>
      <trkpt lat="43.39117" lon="6.73123">
        <ele>9</ele>
        <time>2023-05-16T13:41:00Z</time>
      </trkpt>
      <trkpt lat="43.39117" lon="6.73124">
        <ele>9</ele>
        <time>2023-05-16T13:41:01Z</time>
      </trkpt>
      <trkpt lat="43.39117" lon="6.73125">
        <ele>9</ele>
        <time>2023-05-16T13:41:02Z</time>
      </trkpt>
      <trkpt lat="43.39117" lon="6.73127">
        <ele>9</ele>
        <time>2023-05-16T13:41:03Z</time>
      </trkpt>
      <trkpt lat="43.39117" lon="6.7313">
        <ele>9</ele>
        <time>2023-05-16T13:41:04Z</time>
      </trkpt>
      <trkpt lat="43.39117" lon="6.73131">
        <ele>9</ele>
        <time>2023-05-16T13:41:06Z</time>
      </trkpt>
      <trkpt lat="43.39117" lon="6.73132">
        <ele>9</ele>
        <time>2023-05-16T13:41:07Z</time>
      </trkpt>
      <trkpt lat="43.39117" lon="6.73134">
        <ele>9</ele>
        <time>2023-05-16T13:41:08Z</time>
      </trkpt>
      <trkpt lat="43.39117" lon="6.73135">
        <ele>9</ele>
        <time>2023-05-16T13:41:09Z</time>
      </trkpt>
      <trkpt lat="43.39117" lon="6.73136">
        <ele>9</ele>
        <time>2023-05-16T13:41:11Z</time>
      </trkpt>
      <trkpt lat="43.39117" lon="6.73138">
        <ele>9</ele>
        <time>2023-05-16T13:41:12Z</time>
      </trkpt>
      <trkpt lat="43.39117" lon="6.73139">
        <ele>9</ele>
        <time>2023-05-16T13:41:13Z</time>
      </trkpt>
      <trkpt lat="43.39117" lon="6.7314">
        <ele>9</ele>
        <time>2023-05-16T13:41:14Z</time>
      </trkpt>
      <trkpt lat="43.39118" lon="6.73142">
        <ele>9</ele>
        <time>2023-05-16T13:41:15Z</time>
      </trkpt>
      <trkpt lat="43.39118" lon="6.73143">
        <ele>9</ele>
        <time>2023-05-16T13:41:16Z</time>
      </trkpt>
      <trkpt lat="43.39118" lon="6.73144">
        <ele>9</ele>
        <time>2023-05-16T13:41:18Z</time>
      </trkpt>
      <trkpt lat="43.39119" lon="6.73145">
        <ele>9</ele>
        <time>2023-05-16T13:41:19Z</time>
      </trkpt>
      <trkpt lat="43.39118" lon="6.73147">
        <ele>9</ele>
        <time>2023-05-16T13:41:20Z</time>
      </trkpt>
      <trkpt lat="43.39118" lon="6.73149">
        <ele>9</ele>
        <time>2023-05-16T13:41:21Z</time>
      </trkpt>
      <trkpt lat="43.39119" lon="6.73152">
        <ele>9</ele>
        <time>2023-05-16T13:41:22Z</time>
      </trkpt>
      <trkpt lat="43.39119" lon="6.73153">
        <ele>9</ele>
        <time>2023-05-16T13:41:24Z</time>
      </trkpt>
      <trkpt lat="43.39119" lon="6.73154">
        <ele>9</ele>
        <time>2023-05-16T13:41:25Z</time>
      </trkpt>
      <trkpt lat="43.39119" lon="6.73155">
        <ele>9</ele>
        <time>2023-05-16T13:41:26Z</time>
      </trkpt>
      <trkpt lat="43.39119" lon="6.73157">
        <ele>9</ele>
        <time>2023-05-16T13:41:27Z</time>
      </trkpt>
      <trkpt lat="43.39118" lon="6.73158">
        <ele>9</ele>
        <time>2023-05-16T13:41:28Z</time>
      </trkpt>
      <trkpt lat="43.39118" lon="6.7316">
        <ele>9</ele>
        <time>2023-05-16T13:41:29Z</time>
      </trkpt>
      <trkpt lat="43.39117" lon="6.73161">
        <ele>9</ele>
        <time>2023-05-16T13:41:30Z</time>
      </trkpt>
      <trkpt lat="43.39116" lon="6.73163">
        <ele>9</ele>
        <time>2023-05-16T13:41:31Z</time>
      </trkpt>
      <trkpt lat="43.39116" lon="6.73164">
        <ele>9</ele>
        <time>2023-05-16T13:41:32Z</time>
      </trkpt>
      <trkpt lat="43.39115" lon="6.73166">
        <ele>9.1</ele>
        <time>2023-05-16T13:41:34Z</time>
      </trkpt>
      <trkpt lat="43.39114" lon="6.73167">
        <ele>9.1</ele>
        <time>2023-05-16T13:41:35Z</time>
      </trkpt>
      <trkpt lat="43.39113" lon="6.73169">
        <ele>9.1</ele>
        <time>2023-05-16T13:41:36Z</time>
      </trkpt>
      <trkpt lat="43.39112" lon="6.7317">
        <ele>9.2</ele>
        <time>2023-05-16T13:41:37Z</time>
      </trkpt>
      <trkpt lat="43.39111" lon="6.73171">
        <ele>9.2</ele>
        <time>2023-05-16T13:41:38Z</time>
      </trkpt>
      <trkpt lat="43.39108" lon="6.73172">
        <ele>9.3</ele>
        <time>2023-05-16T13:41:39Z</time>
      </trkpt>
      <trkpt lat="43.39107" lon="6.73173">
        <ele>9.3</ele>
        <time>2023-05-16T13:41:40Z</time>
      </trkpt>
      <trkpt lat="43.39106" lon="6.73173">
        <ele>9.3</ele>
        <time>2023-05-16T13:41:41Z</time>
      </trkpt>
      <trkpt lat="43.39105" lon="6.73174">
        <ele>9.3</ele>
        <time>2023-05-16T13:41:42Z</time>
      </trkpt>
      <trkpt lat="43.39104" lon="6.73174">
        <ele>9.4</ele>
        <time>2023-05-16T13:41:43Z</time>
      </trkpt>
      <trkpt lat="43.39103" lon="6.73174">
        <ele>9.4</ele>
        <time>2023-05-16T13:41:45Z</time>
      </trkpt>
      <trkpt lat="43.39102" lon="6.73175">
        <ele>9.5</ele>
        <time>2023-05-16T13:41:46Z</time>
      </trkpt>
      <trkpt lat="43.39101" lon="6.73176">
        <ele>9.5</ele>
        <time>2023-05-16T13:41:47Z</time>
      </trkpt>
      <trkpt lat="43.391" lon="6.73176">
        <ele>9.5</ele>
        <time>2023-05-16T13:41:48Z</time>
      </trkpt>
      <trkpt lat="43.39099" lon="6.73177">
        <ele>9.6</ele>
        <time>2023-05-16T13:41:49Z</time>
      </trkpt>
      <trkpt lat="43.39097" lon="6.73179">
        <ele>9.6</ele>
        <time>2023-05-16T13:41:50Z</time>
      </trkpt>
      <trkpt lat="43.39097" lon="6.7318">
        <ele>9.6</ele>
        <time>2023-05-16T13:41:52Z</time>
      </trkpt>
      <trkpt lat="43.39096" lon="6.73181">
        <ele>9.7</ele>
        <time>2023-05-16T13:41:53Z</time>
      </trkpt>
      <trkpt lat="43.39095" lon="6.73182">
        <ele>9.7</ele>
        <time>2023-05-16T13:41:54Z</time>
      </trkpt>
      <trkpt lat="43.39096" lon="6.73184">
        <ele>9.8</ele>
        <time>2023-05-16T13:41:55Z</time>
      </trkpt>
      <trkpt lat="43.39097" lon="6.73186">
        <ele>9.8</ele>
        <time>2023-05-16T13:41:56Z</time>
      </trkpt>
      <trkpt lat="43.39096" lon="6.73186">
        <ele>9.8</ele>
        <time>2023-05-16T13:41:58Z</time>
      </trkpt>
      <trkpt lat="43.39096" lon="6.73187">
        <ele>9.8</ele>
        <time>2023-05-16T13:41:59Z</time>
      </trkpt>
      <trkpt lat="43.39095" lon="6.73187">
        <ele>9.9</ele>
        <time>2023-05-16T13:42:00Z</time>
      </trkpt>
      <trkpt lat="43.39094" lon="6.73188">
        <ele>9.9</ele>
        <time>2023-05-16T13:42:01Z</time>
      </trkpt>
      <trkpt lat="43.39094" lon="6.73189">
        <ele>9.9</ele>
        <time>2023-05-16T13:42:02Z</time>
      </trkpt>
      <trkpt lat="43.39093" lon="6.73189">
        <ele>9.9</ele>
        <time>2023-05-16T13:42:03Z</time>
      </trkpt>
      <trkpt lat="43.39092" lon="6.7319">
        <ele>10</ele>
        <time>2023-05-16T13:42:04Z</time>
      </trkpt>
      <trkpt lat="43.3909" lon="6.73192">
        <ele>10</ele>
        <time>2023-05-16T13:42:06Z</time>
      </trkpt>
      <trkpt lat="43.3909" lon="6.73193">
        <ele>10</ele>
        <time>2023-05-16T13:42:07Z</time>
      </trkpt>
      <trkpt lat="43.39089" lon="6.73194">
        <ele>10.1</ele>
        <time>2023-05-16T13:42:08Z</time>
      </trkpt>
      <trkpt lat="43.39088" lon="6.73195">
        <ele>10.1</ele>
        <time>2023-05-16T13:42:09Z</time>
      </trkpt>
      <trkpt lat="43.39087" lon="6.73195">
        <ele>10.1</ele>
        <time>2023-05-16T13:42:10Z</time>
      </trkpt>
      <trkpt lat="43.39085" lon="6.73195">
        <ele>10.1</ele>
        <time>2023-05-16T13:42:11Z</time>
      </trkpt>
      <trkpt lat="43.39083" lon="6.73195">
        <ele>10.2</ele>
        <time>2023-05-16T13:42:12Z</time>
      </trkpt>
      <trkpt lat="43.39082" lon="6.73194">
        <ele>10.2</ele>
        <time>2023-05-16T13:42:14Z</time>
      </trkpt>
      <trkpt lat="43.39081" lon="6.73194">
        <ele>10.2</ele>
        <time>2023-05-16T13:42:15Z</time>
      </trkpt>
      <trkpt lat="43.3908" lon="6.73193">
        <ele>10.2</ele>
        <time>2023-05-16T13:42:16Z</time>
      </trkpt>
      <trkpt lat="43.3908" lon="6.73192">
        <ele>10.2</ele>
        <time>2023-05-16T13:42:17Z</time>
      </trkpt>
      <trkpt lat="43.39078" lon="6.7319">
        <ele>10.3</ele>
        <time>2023-05-16T13:42:18Z</time>
      </trkpt>
      <trkpt lat="43.39077" lon="6.7319">
        <ele>10.3</ele>
        <time>2023-05-16T13:42:19Z</time>
      </trkpt>
      <trkpt lat="43.39076" lon="6.7319">
        <ele>10.3</ele>
        <time>2023-05-16T13:42:21Z</time>
      </trkpt>
      <trkpt lat="43.39075" lon="6.7319">
        <ele>10.3</ele>
        <time>2023-05-16T13:42:22Z</time>
      </trkpt>
      <trkpt lat="43.39074" lon="6.7319">
        <ele>10.3</ele>
        <time>2023-05-16T13:42:23Z</time>
      </trkpt>
      <trkpt lat="43.39074" lon="6.7319">
        <ele>10.3</ele>
        <time>2023-05-16T13:42:24Z</time>
      </trkpt>
      <trkpt lat="43.39073" lon="6.7319">
        <ele>10.3</ele>
        <time>2023-05-16T13:42:25Z</time>
      </trkpt>
      <trkpt lat="43.39072" lon="6.7319">
        <ele>10.3</ele>
        <time>2023-05-16T13:42:26Z</time>
      </trkpt>
      <trkpt lat="43.39071" lon="6.7319">
        <ele>10.4</ele>
        <time>2023-05-16T13:42:28Z</time>
      </trkpt>
      <trkpt lat="43.3907" lon="6.7319">
        <ele>10.4</ele>
        <time>2023-05-16T13:42:29Z</time>
      </trkpt>
      <trkpt lat="43.39069" lon="6.7319">
        <ele>10.4</ele>
        <time>2023-05-16T13:42:30Z</time>
      </trkpt>
      <trkpt lat="43.39068" lon="6.73189">
        <ele>10.4</ele>
        <time>2023-05-16T13:42:31Z</time>
      </trkpt>
      <trkpt lat="43.39067" lon="6.73188">
        <ele>10.4</ele>
        <time>2023-05-16T13:42:32Z</time>
      </trkpt>
      <trkpt lat="43.39067" lon="6.73188">
        <ele>10.4</ele>
        <time>2023-05-16T13:42:34Z</time>
      </trkpt>
      <trkpt lat="43.39066" lon="6.73187">
        <ele>10.4</ele>
        <time>2023-05-16T13:42:35Z</time>
      </trkpt>
      <trkpt lat="43.39066" lon="6.73186">
        <ele>10.4</ele>
        <time>2023-05-16T13:42:36Z</time>
      </trkpt>
      <trkpt lat="43.39065" lon="6.73185">
        <ele>10.4</ele>
        <time>2023-05-16T13:42:37Z</time>
      </trkpt>
      <trkpt lat="43.39065" lon="6.73184">
        <ele>10.4</ele>
        <time>2023-05-16T13:42:38Z</time>
      </trkpt>
      <trkpt lat="43.39064" lon="6.73183">
        <ele>10.5</ele>
        <time>2023-05-16T13:42:39Z</time>
      </trkpt>
      <trkpt lat="43.39063" lon="6.73182">
        <ele>10.5</ele>
        <time>2023-05-16T13:42:41Z</time>
      </trkpt>
      <trkpt lat="43.39063" lon="6.73181">
        <ele>10.5</ele>
        <time>2023-05-16T13:42:42Z</time>
      </trkpt>
      <trkpt lat="43.39062" lon="6.7318">
        <ele>10.5</ele>
        <time>2023-05-16T13:42:43Z</time>
      </trkpt>
      <trkpt lat="43.39061" lon="6.73179">
        <ele>10.5</ele>
        <time>2023-05-16T13:42:44Z</time>
      </trkpt>
      <trkpt lat="43.39061" lon="6.73178">
        <ele>10.5</ele>
        <time>2023-05-16T13:42:45Z</time>
      </trkpt>
      <trkpt lat="43.3906" lon="6.73177">
        <ele>10.5</ele>
        <time>2023-05-16T13:42:46Z</time>
      </trkpt>
      <trkpt lat="43.39059" lon="6.73176">
        <ele>10.5</ele>
        <time>2023-05-16T13:42:47Z</time>
      </trkpt>
      <trkpt lat="43.39058" lon="6.73176">
        <ele>10.4</ele>
        <time>2023-05-16T13:42:48Z</time>
      </trkpt>
      <trkpt lat="43.39057" lon="6.73176">
        <ele>10.4</ele>
        <time>2023-05-16T13:42:50Z</time>
      </trkpt>
      <trkpt lat="43.39055" lon="6.73176">
        <ele>10.4</ele>
        <time>2023-05-16T13:42:51Z</time>
      </trkpt>
      <trkpt lat="43.39054" lon="6.73177">
        <ele>10.4</ele>
        <time>2023-05-16T13:42:52Z</time>
      </trkpt>
      <trkpt lat="43.39053" lon="6.73177">
        <ele>10.4</ele>
        <time>2023-05-16T13:42:53Z</time>
      </trkpt>
      <trkpt lat="43.39051" lon="6.73178">
        <ele>10.4</ele>
        <time>2023-05-16T13:42:55Z</time>
      </trkpt>
      <trkpt lat="43.3905" lon="6.73178">
        <ele>10.4</ele>
        <time>2023-05-16T13:42:56Z</time>
      </trkpt>
      <trkpt lat="43.3905" lon="6.73178">
        <ele>10.3</ele>
        <time>2023-05-16T13:42:57Z</time>
      </trkpt>
      <trkpt lat="43.39049" lon="6.73179">
        <ele>10.3</ele>
        <time>2023-05-16T13:42:58Z</time>
      </trkpt>
      <trkpt lat="43.39049" lon="6.73179">
        <ele>10.3</ele>
        <time>2023-05-16T13:43:00Z</time>
      </trkpt>
      <trkpt lat="43.39049" lon="6.7318">
        <ele>10.3</ele>
        <time>2023-05-16T13:43:01Z</time>
      </trkpt>
      <trkpt lat="43.39049" lon="6.7318">
        <ele>10.3</ele>
        <time>2023-05-16T13:43:03Z</time>
      </trkpt>
      <trkpt lat="43.39048" lon="6.73179">
        <ele>10.3</ele>
        <time>2023-05-16T13:43:04Z</time>
      </trkpt>
      <trkpt lat="43.39048" lon="6.73179">
        <ele>10.3</ele>
        <time>2023-05-16T13:43:05Z</time>
      </trkpt>
      <trkpt lat="43.39046" lon="6.73177">
        <ele>10.2</ele>
        <time>2023-05-16T13:43:06Z</time>
      </trkpt>
      <trkpt lat="43.39045" lon="6.73176">
        <ele>10.2</ele>
        <time>2023-05-16T13:43:07Z</time>
      </trkpt>
      <trkpt lat="43.39044" lon="6.73175">
        <ele>10.2</ele>
        <time>2023-05-16T13:43:08Z</time>
      </trkpt>
      <trkpt lat="43.39043" lon="6.73176">
        <ele>10.1</ele>
        <time>2023-05-16T13:43:09Z</time>
      </trkpt>
      <trkpt lat="43.39041" lon="6.73177">
        <ele>10.1</ele>
        <time>2023-05-16T13:43:11Z</time>
      </trkpt>
      <trkpt lat="43.39039" lon="6.73179">
        <ele>10</ele>
        <time>2023-05-16T13:43:12Z</time>
      </trkpt>
      <trkpt lat="43.39038" lon="6.7318">
        <ele>10</ele>
        <time>2023-05-16T13:43:13Z</time>
      </trkpt>
      <trkpt lat="43.39037" lon="6.73181">
        <ele>10</ele>
        <time>2023-05-16T13:43:14Z</time>
      </trkpt>
      <trkpt lat="43.39035" lon="6.73184">
        <ele>9.9</ele>
        <time>2023-05-16T13:43:15Z</time>
      </trkpt>
      <trkpt lat="43.39035" lon="6.73186">
        <ele>9.9</ele>
        <time>2023-05-16T13:43:16Z</time>
      </trkpt>
      <trkpt lat="43.39034" lon="6.73189">
        <ele>9.9</ele>
        <time>2023-05-16T13:43:18Z</time>
      </trkpt>
      <trkpt lat="43.39034" lon="6.73191">
        <ele>9.8</ele>
        <time>2023-05-16T13:43:20Z</time>
      </trkpt>
      <trkpt lat="43.39033" lon="6.73193">
        <ele>9.8</ele>
        <time>2023-05-16T13:43:21Z</time>
      </trkpt>
      <trkpt lat="43.39032" lon="6.73194">
        <ele>9.8</ele>
        <time>2023-05-16T13:43:22Z</time>
      </trkpt>
      <trkpt lat="43.39032" lon="6.73195">
        <ele>9.8</ele>
        <time>2023-05-16T13:43:23Z</time>
      </trkpt>
      <trkpt lat="43.3903" lon="6.73196">
        <ele>9.8</ele>
        <time>2023-05-16T13:43:24Z</time>
      </trkpt>
      <trkpt lat="43.39029" lon="6.73197">
        <ele>9.8</ele>
        <time>2023-05-16T13:43:25Z</time>
      </trkpt>
      <trkpt lat="43.39029" lon="6.73198">
        <ele>9.7</ele>
        <time>2023-05-16T13:43:26Z</time>
      </trkpt>
      <trkpt lat="43.39028" lon="6.73199">
        <ele>9.7</ele>
        <time>2023-05-16T13:43:27Z</time>
      </trkpt>
      <trkpt lat="43.39026" lon="6.73201">
        <ele>9.7</ele>
        <time>2023-05-16T13:43:28Z</time>
      </trkpt>
      <trkpt lat="43.39025" lon="6.73202">
        <ele>9.7</ele>
        <time>2023-05-16T13:43:30Z</time>
      </trkpt>
      <trkpt lat="43.39025" lon="6.73202">
        <ele>9.7</ele>
        <time>2023-05-16T13:43:31Z</time>
      </trkpt>
      <trkpt lat="43.39023" lon="6.73203">
        <ele>9.7</ele>
        <time>2023-05-16T13:43:32Z</time>
      </trkpt>
      <trkpt lat="43.39023" lon="6.73202">
        <ele>9.7</ele>
        <time>2023-05-16T13:43:33Z</time>
      </trkpt>
      <trkpt lat="43.39022" lon="6.73202">
        <ele>9.6</ele>
        <time>2023-05-16T13:43:34Z</time>
      </trkpt>
      <trkpt lat="43.39022" lon="6.73202">
        <ele>9.6</ele>
        <time>2023-05-16T13:43:35Z</time>
      </trkpt>
      <trkpt lat="43.39021" lon="6.73202">
        <ele>9.6</ele>
        <time>2023-05-16T13:43:36Z</time>
      </trkpt>
      <trkpt lat="43.39021" lon="6.73202">
        <ele>9.6</ele>
        <time>2023-05-16T13:43:37Z</time>
      </trkpt>
      <trkpt lat="43.3902" lon="6.73202">
        <ele>9.6</ele>
        <time>2023-05-16T13:43:38Z</time>
      </trkpt>
      <trkpt lat="43.39019" lon="6.73201">
        <ele>9.6</ele>
        <time>2023-05-16T13:43:40Z</time>
      </trkpt>
      <trkpt lat="43.39018" lon="6.73201">
        <ele>9.6</ele>
        <time>2023-05-16T13:43:41Z</time>
      </trkpt>
      <trkpt lat="43.39017" lon="6.73201">
        <ele>9.6</ele>
        <time>2023-05-16T13:43:42Z</time>
      </trkpt>
      <trkpt lat="43.39016" lon="6.73202">
        <ele>9.6</ele>
        <time>2023-05-16T13:43:43Z</time>
      </trkpt>
      <trkpt lat="43.39016" lon="6.73202">
        <ele>9.6</ele>
        <time>2023-05-16T13:43:44Z</time>
      </trkpt>
      <trkpt lat="43.39015" lon="6.73202">
        <ele>9.6</ele>
        <time>2023-05-16T13:43:46Z</time>
      </trkpt>
      <trkpt lat="43.39014" lon="6.73202">
        <ele>9.6</ele>
        <time>2023-05-16T13:43:47Z</time>
      </trkpt>
      <trkpt lat="43.39013" lon="6.73202">
        <ele>9.6</ele>
        <time>2023-05-16T13:43:48Z</time>
      </trkpt>
      <trkpt lat="43.39012" lon="6.73202">
        <ele>9.5</ele>
        <time>2023-05-16T13:43:49Z</time>
      </trkpt>
      <trkpt lat="43.39012" lon="6.73202">
        <ele>9.5</ele>
        <time>2023-05-16T13:43:50Z</time>
      </trkpt>
      <trkpt lat="43.39011" lon="6.73202">
        <ele>9.5</ele>
        <time>2023-05-16T13:43:51Z</time>
      </trkpt>
      <trkpt lat="43.3901" lon="6.73201">
        <ele>9.5</ele>
        <time>2023-05-16T13:43:52Z</time>
      </trkpt>
      <trkpt lat="43.39009" lon="6.73201">
        <ele>9.5</ele>
        <time>2023-05-16T13:43:53Z</time>
      </trkpt>
      <trkpt lat="43.39008" lon="6.73199">
        <ele>9.5</ele>
        <time>2023-05-16T13:43:54Z</time>
      </trkpt>
      <trkpt lat="43.39008" lon="6.73198">
        <ele>9.5</ele>
        <time>2023-05-16T13:43:55Z</time>
      </trkpt>
      <trkpt lat="43.39007" lon="6.73197">
        <ele>9.5</ele>
        <time>2023-05-16T13:43:57Z</time>
      </trkpt>
      <trkpt lat="43.39007" lon="6.73196">
        <ele>9.5</ele>
        <time>2023-05-16T13:43:58Z</time>
      </trkpt>
      <trkpt lat="43.39006" lon="6.73195">
        <ele>9.5</ele>
        <time>2023-05-16T13:43:59Z</time>
      </trkpt>
      <trkpt lat="43.39006" lon="6.73194">
        <ele>9.5</ele>
        <time>2023-05-16T13:44:00Z</time>
      </trkpt>
      <trkpt lat="43.39005" lon="6.73193">
        <ele>9.5</ele>
        <time>2023-05-16T13:44:01Z</time>
      </trkpt>
      <trkpt lat="43.39005" lon="6.73192">
        <ele>9.5</ele>
        <time>2023-05-16T13:44:03Z</time>
      </trkpt>
      <trkpt lat="43.39005" lon="6.73192">
        <ele>9.4</ele>
        <time>2023-05-16T13:44:04Z</time>
      </trkpt>
      <trkpt lat="43.39005" lon="6.73193">
        <ele>9.4</ele>
        <time>2023-05-16T13:44:06Z</time>
      </trkpt>
      <trkpt lat="43.39006" lon="6.73192">
        <ele>9.4</ele>
        <time>2023-05-16T13:44:07Z</time>
      </trkpt>
      <trkpt lat="43.39005" lon="6.73192">
        <ele>9.4</ele>
        <time>2023-05-16T13:44:08Z</time>
      </trkpt>
      <trkpt lat="43.39005" lon="6.7319">
        <ele>9.4</ele>
        <time>2023-05-16T13:44:09Z</time>
      </trkpt>
      <trkpt lat="43.39004" lon="6.73188">
        <ele>9.4</ele>
        <time>2023-05-16T13:44:10Z</time>
      </trkpt>
      <trkpt lat="43.39002" lon="6.73185">
        <ele>9.4</ele>
        <time>2023-05-16T13:44:11Z</time>
      </trkpt>
      <trkpt lat="43.39002" lon="6.73184">
        <ele>9.4</ele>
        <time>2023-05-16T13:44:12Z</time>
      </trkpt>
      <trkpt lat="43.39001" lon="6.73182">
        <ele>9.4</ele>
        <time>2023-05-16T13:44:13Z</time>
      </trkpt>
      <trkpt lat="43.39" lon="6.73181">
        <ele>9.4</ele>
        <time>2023-05-16T13:44:15Z</time>
      </trkpt>
      <trkpt lat="43.38998" lon="6.73179">
        <ele>9.4</ele>
        <time>2023-05-16T13:44:16Z</time>
      </trkpt>
      <trkpt lat="43.38998" lon="6.73178">
        <ele>9.4</ele>
        <time>2023-05-16T13:44:17Z</time>
      </trkpt>
      <trkpt lat="43.38996" lon="6.73176">
        <ele>9.4</ele>
        <time>2023-05-16T13:44:18Z</time>
      </trkpt>
      <trkpt lat="43.38996" lon="6.73175">
        <ele>9.4</ele>
        <time>2023-05-16T13:44:19Z</time>
      </trkpt>
      <trkpt lat="43.38995" lon="6.73175">
        <ele>9.4</ele>
        <time>2023-05-16T13:44:20Z</time>
      </trkpt>
      <trkpt lat="43.38993" lon="6.73173">
        <ele>9.4</ele>
        <time>2023-05-16T13:44:21Z</time>
      </trkpt>
      <trkpt lat="43.38992" lon="6.73173">
        <ele>9.4</ele>
        <time>2023-05-16T13:44:22Z</time>
      </trkpt>
      <trkpt lat="43.38992" lon="6.73172">
        <ele>9.4</ele>
        <time>2023-05-16T13:44:23Z</time>
      </trkpt>
      <trkpt lat="43.3899" lon="6.73171">
        <ele>9.4</ele>
        <time>2023-05-16T13:44:24Z</time>
      </trkpt>
      <trkpt lat="43.3899" lon="6.73169">
        <ele>9.4</ele>
        <time>2023-05-16T13:44:25Z</time>
      </trkpt>
      <trkpt lat="43.3899" lon="6.73168">
        <ele>9.4</ele>
        <time>2023-05-16T13:44:27Z</time>
      </trkpt>
      <trkpt lat="43.38989" lon="6.73167">
        <ele>9.4</ele>
        <time>2023-05-16T13:44:28Z</time>
      </trkpt>
      <trkpt lat="43.38989" lon="6.73166">
        <ele>9.4</ele>
        <time>2023-05-16T13:44:29Z</time>
      </trkpt>
      <trkpt lat="43.38989" lon="6.73165">
        <ele>9.4</ele>
        <time>2023-05-16T13:44:30Z</time>
      </trkpt>
      <trkpt lat="43.38988" lon="6.73164">
        <ele>9.4</ele>
        <time>2023-05-16T13:44:31Z</time>
      </trkpt>
      <trkpt lat="43.38988" lon="6.73163">
        <ele>9.4</ele>
        <time>2023-05-16T13:44:32Z</time>
      </trkpt>
      <trkpt lat="43.38987" lon="6.73162">
        <ele>9.4</ele>
        <time>2023-05-16T13:44:33Z</time>
      </trkpt>
      <trkpt lat="43.38986" lon="6.73161">
        <ele>9.4</ele>
        <time>2023-05-16T13:44:34Z</time>
      </trkpt>
      <trkpt lat="43.38985" lon="6.73161">
        <ele>9.4</ele>
        <time>2023-05-16T13:44:35Z</time>
      </trkpt>
      <trkpt lat="43.38983" lon="6.73162">
        <ele>9.4</ele>
        <time>2023-05-16T13:44:36Z</time>
      </trkpt>
      <trkpt lat="43.38982" lon="6.73164">
        <ele>9.4</ele>
        <time>2023-05-16T13:44:38Z</time>
      </trkpt>
      <trkpt lat="43.38982" lon="6.73166">
        <ele>9.3</ele>
        <time>2023-05-16T13:44:39Z</time>
      </trkpt>
      <trkpt lat="43.3898" lon="6.7317">
        <ele>9.3</ele>
        <time>2023-05-16T13:44:40Z</time>
      </trkpt>
      <trkpt lat="43.3898" lon="6.73171">
        <ele>9.3</ele>
        <time>2023-05-16T13:44:41Z</time>
      </trkpt>
      <trkpt lat="43.38979" lon="6.73172">
        <ele>9.3</ele>
        <time>2023-05-16T13:44:42Z</time>
      </trkpt>
      <trkpt lat="43.38979" lon="6.73174">
        <ele>9.2</ele>
        <time>2023-05-16T13:44:43Z</time>
      </trkpt>
      <trkpt lat="43.38979" lon="6.73176">
        <ele>9.2</ele>
        <time>2023-05-16T13:44:45Z</time>
      </trkpt>
      <trkpt lat="43.3898" lon="6.73178">
        <ele>9.2</ele>
        <time>2023-05-16T13:44:47Z</time>
      </trkpt>
      <trkpt lat="43.3898" lon="6.7318">
        <ele>9.1</ele>
        <time>2023-05-16T13:44:48Z</time>
      </trkpt>
      <trkpt lat="43.38978" lon="6.7318">
        <ele>9.1</ele>
        <time>2023-05-16T13:44:49Z</time>
      </trkpt>
      <trkpt lat="43.38977" lon="6.7318">
        <ele>9.1</ele>
        <time>2023-05-16T13:44:50Z</time>
      </trkpt>
      <trkpt lat="43.38977" lon="6.73179">
        <ele>9.1</ele>
        <time>2023-05-16T13:44:51Z</time>
      </trkpt>
      <trkpt lat="43.38976" lon="6.73178">
        <ele>9</ele>
        <time>2023-05-16T13:44:52Z</time>
      </trkpt>
      <trkpt lat="43.38975" lon="6.73177">
        <ele>9</ele>
        <time>2023-05-16T13:44:54Z</time>
      </trkpt>
      <trkpt lat="43.38975" lon="6.73175">
        <ele>9</ele>
        <time>2023-05-16T13:44:55Z</time>
      </trkpt>
      <trkpt lat="43.38975" lon="6.73172">
        <ele>9</ele>
        <time>2023-05-16T13:44:56Z</time>
      </trkpt>
      <trkpt lat="43.38975" lon="6.73171">
        <ele>9</ele>
        <time>2023-05-16T13:44:57Z</time>
      </trkpt>
      <trkpt lat="43.38975" lon="6.7317">
        <ele>8.9</ele>
        <time>2023-05-16T13:44:58Z</time>
      </trkpt>
      <trkpt lat="43.38976" lon="6.73168">
        <ele>8.9</ele>
        <time>2023-05-16T13:44:59Z</time>
      </trkpt>
      <trkpt lat="43.38976" lon="6.73167">
        <ele>8.9</ele>
        <time>2023-05-16T13:45:00Z</time>
      </trkpt>
      <trkpt lat="43.38976" lon="6.73166">
        <ele>8.9</ele>
        <time>2023-05-16T13:45:01Z</time>
      </trkpt>
      <trkpt lat="43.38977" lon="6.73164">
        <ele>8.9</ele>
        <time>2023-05-16T13:45:02Z</time>
      </trkpt>
      <trkpt lat="43.38976" lon="6.73163">
        <ele>8.9</ele>
        <time>2023-05-16T13:45:04Z</time>
      </trkpt>
      <trkpt lat="43.38976" lon="6.73161">
        <ele>8.9</ele>
        <time>2023-05-16T13:45:05Z</time>
      </trkpt>
      <trkpt lat="43.38974" lon="6.73159">
        <ele>8.8</ele>
        <time>2023-05-16T13:45:06Z</time>
      </trkpt>
      <trkpt lat="43.38973" lon="6.73158">
        <ele>8.8</ele>
        <time>2023-05-16T13:45:07Z</time>
      </trkpt>
      <trkpt lat="43.38971" lon="6.73156">
        <ele>8.8</ele>
        <time>2023-05-16T13:45:08Z</time>
      </trkpt>
      <trkpt lat="43.3897" lon="6.73155">
        <ele>8.8</ele>
        <time>2023-05-16T13:45:10Z</time>
      </trkpt>
      <trkpt lat="43.38969" lon="6.73154">
        <ele>8.8</ele>
        <time>2023-05-16T13:45:11Z</time>
      </trkpt>
      <trkpt lat="43.38968" lon="6.73152">
        <ele>8.8</ele>
        <time>2023-05-16T13:45:12Z</time>
      </trkpt>
      <trkpt lat="43.38968" lon="6.73151">
        <ele>8.8</ele>
        <time>2023-05-16T13:45:13Z</time>
      </trkpt>
      <trkpt lat="43.38966" lon="6.73149">
        <ele>8.8</ele>
        <time>2023-05-16T13:45:14Z</time>
      </trkpt>
      <trkpt lat="43.38966" lon="6.73148">
        <ele>8.8</ele>
        <time>2023-05-16T13:45:15Z</time>
      </trkpt>
      <trkpt lat="43.38966" lon="6.73147">
        <ele>8.8</ele>
        <time>2023-05-16T13:45:16Z</time>
      </trkpt>
      <trkpt lat="43.38965" lon="6.73144">
        <ele>8.8</ele>
        <time>2023-05-16T13:45:18Z</time>
      </trkpt>
      <trkpt lat="43.38964" lon="6.73144">
        <ele>8.8</ele>
        <time>2023-05-16T13:45:19Z</time>
      </trkpt>
      <trkpt lat="43.38963" lon="6.73142">
        <ele>8.8</ele>
        <time>2023-05-16T13:45:20Z</time>
      </trkpt>
      <trkpt lat="43.38962" lon="6.73141">
        <ele>8.9</ele>
        <time>2023-05-16T13:45:21Z</time>
      </trkpt>
      <trkpt lat="43.38961" lon="6.7314">
        <ele>8.9</ele>
        <time>2023-05-16T13:45:22Z</time>
      </trkpt>
      <trkpt lat="43.3896" lon="6.73139">
        <ele>8.9</ele>
        <time>2023-05-16T13:45:23Z</time>
      </trkpt>
      <trkpt lat="43.38959" lon="6.73137">
        <ele>8.9</ele>
        <time>2023-05-16T13:45:24Z</time>
      </trkpt>
      <trkpt lat="43.38958" lon="6.73136">
        <ele>8.9</ele>
        <time>2023-05-16T13:45:25Z</time>
      </trkpt>
      <trkpt lat="43.38957" lon="6.73135">
        <ele>8.9</ele>
        <time>2023-05-16T13:45:26Z</time>
      </trkpt>
      <trkpt lat="43.38956" lon="6.73132">
        <ele>8.9</ele>
        <time>2023-05-16T13:45:28Z</time>
      </trkpt>
      <trkpt lat="43.38956" lon="6.73131">
        <ele>8.9</ele>
        <time>2023-05-16T13:45:29Z</time>
      </trkpt>
      <trkpt lat="43.38956" lon="6.73128">
        <ele>9</ele>
        <time>2023-05-16T13:45:30Z</time>
      </trkpt>
      <trkpt lat="43.38955" lon="6.73127">
        <ele>9</ele>
        <time>2023-05-16T13:45:31Z</time>
      </trkpt>
      <trkpt lat="43.38955" lon="6.73126">
        <ele>9</ele>
        <time>2023-05-16T13:45:32Z</time>
      </trkpt>
      <trkpt lat="43.38954" lon="6.73123">
        <ele>9.1</ele>
        <time>2023-05-16T13:45:33Z</time>
      </trkpt>
      <trkpt lat="43.38953" lon="6.73122">
        <ele>9.1</ele>
        <time>2023-05-16T13:45:34Z</time>
      </trkpt>
      <trkpt lat="43.38953" lon="6.73122">
        <ele>9.2</ele>
        <time>2023-05-16T13:45:35Z</time>
      </trkpt>
      <trkpt lat="43.38952" lon="6.73121">
        <ele>9.2</ele>
        <time>2023-05-16T13:45:37Z</time>
      </trkpt>
      <trkpt lat="43.3895" lon="6.73119">
        <ele>9.3</ele>
        <time>2023-05-16T13:45:38Z</time>
      </trkpt>
      <trkpt lat="43.38949" lon="6.73118">
        <ele>9.3</ele>
        <time>2023-05-16T13:45:39Z</time>
      </trkpt>
      <trkpt lat="43.38948" lon="6.73118">
        <ele>9.3</ele>
        <time>2023-05-16T13:45:40Z</time>
      </trkpt>
      <trkpt lat="43.38947" lon="6.73116">
        <ele>9.4</ele>
        <time>2023-05-16T13:45:41Z</time>
      </trkpt>
      <trkpt lat="43.38946" lon="6.73115">
        <ele>9.4</ele>
        <time>2023-05-16T13:45:42Z</time>
      </trkpt>
      <trkpt lat="43.38944" lon="6.73114">
        <ele>9.4</ele>
        <time>2023-05-16T13:45:44Z</time>
      </trkpt>
      <trkpt lat="43.38944" lon="6.73113">
        <ele>9.4</ele>
        <time>2023-05-16T13:45:45Z</time>
      </trkpt>
      <trkpt lat="43.38942" lon="6.73112">
        <ele>9.5</ele>
        <time>2023-05-16T13:45:47Z</time>
      </trkpt>
      <trkpt lat="43.38941" lon="6.73111">
        <ele>9.5</ele>
        <time>2023-05-16T13:45:48Z</time>
      </trkpt>
      <trkpt lat="43.3894" lon="6.73112">
        <ele>9.5</ele>
        <time>2023-05-16T13:45:49Z</time>
      </trkpt>
      <trkpt lat="43.38939" lon="6.73112">
        <ele>9.5</ele>
        <time>2023-05-16T13:45:50Z</time>
      </trkpt>
      <trkpt lat="43.38938" lon="6.73114">
        <ele>9.5</ele>
        <time>2023-05-16T13:45:51Z</time>
      </trkpt>
      <trkpt lat="43.38937" lon="6.73114">
        <ele>9.6</ele>
        <time>2023-05-16T13:45:52Z</time>
      </trkpt>
      <trkpt lat="43.38936" lon="6.73115">
        <ele>9.6</ele>
        <time>2023-05-16T13:45:53Z</time>
      </trkpt>
      <trkpt lat="43.38935" lon="6.73115">
        <ele>9.6</ele>
        <time>2023-05-16T13:45:55Z</time>
      </trkpt>
      <trkpt lat="43.38935" lon="6.73114">
        <ele>9.6</ele>
        <time>2023-05-16T13:45:56Z</time>
      </trkpt>
      <trkpt lat="43.38934" lon="6.73113">
        <ele>9.6</ele>
        <time>2023-05-16T13:45:57Z</time>
      </trkpt>
      <trkpt lat="43.38934" lon="6.7311">
        <ele>9.6</ele>
        <time>2023-05-16T13:45:58Z</time>
      </trkpt>
      <trkpt lat="43.38934" lon="6.73109">
        <ele>9.6</ele>
        <time>2023-05-16T13:45:59Z</time>
      </trkpt>
      <trkpt lat="43.38935" lon="6.73107">
        <ele>9.6</ele>
        <time>2023-05-16T13:46:00Z</time>
      </trkpt>
      <trkpt lat="43.38935" lon="6.73105">
        <ele>9.6</ele>
        <time>2023-05-16T13:46:01Z</time>
      </trkpt>
      <trkpt lat="43.38934" lon="6.73104">
        <ele>9.6</ele>
        <time>2023-05-16T13:46:02Z</time>
      </trkpt>
      <trkpt lat="43.38934" lon="6.73102">
        <ele>9.6</ele>
        <time>2023-05-16T13:46:04Z</time>
      </trkpt>
      <trkpt lat="43.38933" lon="6.73102">
        <ele>9.6</ele>
        <time>2023-05-16T13:46:05Z</time>
      </trkpt>
      <trkpt lat="43.38933" lon="6.73101">
        <ele>9.5</ele>
        <time>2023-05-16T13:46:06Z</time>
      </trkpt>
      <trkpt lat="43.38932" lon="6.731">
        <ele>9.5</ele>
        <time>2023-05-16T13:46:07Z</time>
      </trkpt>
      <trkpt lat="43.38931" lon="6.73098">
        <ele>9.5</ele>
        <time>2023-05-16T13:46:08Z</time>
      </trkpt>
      <trkpt lat="43.38931" lon="6.73097">
        <ele>9.5</ele>
        <time>2023-05-16T13:46:09Z</time>
      </trkpt>
      <trkpt lat="43.38931" lon="6.73096">
        <ele>9.5</ele>
        <time>2023-05-16T13:46:10Z</time>
      </trkpt>
      <trkpt lat="43.3893" lon="6.73094">
        <ele>9.5</ele>
        <time>2023-05-16T13:46:11Z</time>
      </trkpt>
      <trkpt lat="43.3893" lon="6.73093">
        <ele>9.5</ele>
        <time>2023-05-16T13:46:13Z</time>
      </trkpt>
      <trkpt lat="43.38929" lon="6.73091">
        <ele>9.5</ele>
        <time>2023-05-16T13:46:14Z</time>
      </trkpt>
      <trkpt lat="43.38929" lon="6.7309">
        <ele>9.5</ele>
        <time>2023-05-16T13:46:15Z</time>
      </trkpt>
      <trkpt lat="43.38929" lon="6.73089">
        <ele>9.4</ele>
        <time>2023-05-16T13:46:16Z</time>
      </trkpt>
      <trkpt lat="43.3893" lon="6.73088">
        <ele>9.4</ele>
        <time>2023-05-16T13:46:17Z</time>
      </trkpt>
      <trkpt lat="43.3893" lon="6.73086">
        <ele>9.4</ele>
        <time>2023-05-16T13:46:19Z</time>
      </trkpt>
      <trkpt lat="43.38931" lon="6.73085">
        <ele>9.4</ele>
        <time>2023-05-16T13:46:20Z</time>
      </trkpt>
      <trkpt lat="43.38932" lon="6.73085">
        <ele>9.3</ele>
        <time>2023-05-16T13:46:21Z</time>
      </trkpt>
      <trkpt lat="43.38933" lon="6.73084">
        <ele>9.3</ele>
        <time>2023-05-16T13:46:23Z</time>
      </trkpt>
      <trkpt lat="43.38934" lon="6.73083">
        <ele>9.3</ele>
        <time>2023-05-16T13:46:24Z</time>
      </trkpt>
      <trkpt lat="43.38935" lon="6.73082">
        <ele>9.3</ele>
        <time>2023-05-16T13:46:25Z</time>
      </trkpt>
      <trkpt lat="43.38935" lon="6.7308">
        <ele>9.2</ele>
        <time>2023-05-16T13:46:27Z</time>
      </trkpt>
      <trkpt lat="43.38935" lon="6.73079">
        <ele>9.2</ele>
        <time>2023-05-16T13:46:28Z</time>
      </trkpt>
      <trkpt lat="43.38935" lon="6.73078">
        <ele>9.2</ele>
        <time>2023-05-16T13:46:29Z</time>
      </trkpt>
      <trkpt lat="43.38934" lon="6.73075">
        <ele>9.2</ele>
        <time>2023-05-16T13:46:30Z</time>
      </trkpt>
      <trkpt lat="43.38934" lon="6.73074">
        <ele>9.1</ele>
        <time>2023-05-16T13:46:32Z</time>
      </trkpt>
      <trkpt lat="43.38934" lon="6.73073">
        <ele>9.1</ele>
        <time>2023-05-16T13:46:33Z</time>
      </trkpt>
      <trkpt lat="43.38933" lon="6.7307">
        <ele>9.1</ele>
        <time>2023-05-16T13:46:34Z</time>
      </trkpt>
      <trkpt lat="43.38933" lon="6.73069">
        <ele>9.1</ele>
        <time>2023-05-16T13:46:36Z</time>
      </trkpt>
      <trkpt lat="43.38933" lon="6.73067">
        <ele>9</ele>
        <time>2023-05-16T13:46:37Z</time>
      </trkpt>
      <trkpt lat="43.38932" lon="6.73065">
        <ele>9</ele>
        <time>2023-05-16T13:46:38Z</time>
      </trkpt>
      <trkpt lat="43.38932" lon="6.73064">
        <ele>9</ele>
        <time>2023-05-16T13:46:40Z</time>
      </trkpt>
      <trkpt lat="43.38932" lon="6.73063">
        <ele>9</ele>
        <time>2023-05-16T13:46:41Z</time>
      </trkpt>
      <trkpt lat="43.38931" lon="6.73062">
        <ele>9</ele>
        <time>2023-05-16T13:46:42Z</time>
      </trkpt>
      <trkpt lat="43.38931" lon="6.73063">
        <ele>9</ele>
        <time>2023-05-16T13:46:43Z</time>
      </trkpt>
      <trkpt lat="43.3893" lon="6.73063">
        <ele>8.9</ele>
        <time>2023-05-16T13:46:45Z</time>
      </trkpt>
      <trkpt lat="43.3893" lon="6.73062">
        <ele>8.9</ele>
        <time>2023-05-16T13:46:46Z</time>
      </trkpt>
      <trkpt lat="43.3893" lon="6.73061">
        <ele>8.9</ele>
        <time>2023-05-16T13:46:47Z</time>
      </trkpt>
      <trkpt lat="43.3893" lon="6.73059">
        <ele>8.9</ele>
        <time>2023-05-16T13:46:48Z</time>
      </trkpt>
      <trkpt lat="43.3893" lon="6.73057">
        <ele>8.9</ele>
        <time>2023-05-16T13:46:50Z</time>
      </trkpt>
      <trkpt lat="43.3893" lon="6.73056">
        <ele>8.9</ele>
        <time>2023-05-16T13:46:51Z</time>
      </trkpt>
      <trkpt lat="43.3893" lon="6.73054">
        <ele>8.9</ele>
        <time>2023-05-16T13:46:52Z</time>
      </trkpt>
      <trkpt lat="43.3893" lon="6.73053">
        <ele>8.9</ele>
        <time>2023-05-16T13:46:53Z</time>
      </trkpt>
      <trkpt lat="43.3893" lon="6.73052">
        <ele>8.9</ele>
        <time>2023-05-16T13:46:54Z</time>
      </trkpt>
      <trkpt lat="43.38929" lon="6.73051">
        <ele>8.9</ele>
        <time>2023-05-16T13:46:55Z</time>
      </trkpt>
      <trkpt lat="43.38927" lon="6.73051">
        <ele>8.9</ele>
        <time>2023-05-16T13:46:57Z</time>
      </trkpt>
      <trkpt lat="43.38926" lon="6.73052">
        <ele>8.9</ele>
        <time>2023-05-16T13:46:58Z</time>
      </trkpt>
      <trkpt lat="43.38925" lon="6.73052">
        <ele>8.9</ele>
        <time>2023-05-16T13:46:59Z</time>
      </trkpt>
      <trkpt lat="43.38924" lon="6.73052">
        <ele>8.9</ele>
        <time>2023-05-16T13:47:00Z</time>
      </trkpt>
      <trkpt lat="43.38922" lon="6.73053">
        <ele>8.9</ele>
        <time>2023-05-16T13:47:01Z</time>
      </trkpt>
      <trkpt lat="43.38921" lon="6.73054">
        <ele>8.9</ele>
        <time>2023-05-16T13:47:02Z</time>
      </trkpt>
      <trkpt lat="43.3892" lon="6.73055">
        <ele>8.9</ele>
        <time>2023-05-16T13:47:03Z</time>
      </trkpt>
      <trkpt lat="43.3892" lon="6.73056">
        <ele>8.9</ele>
        <time>2023-05-16T13:47:04Z</time>
      </trkpt>
      <trkpt lat="43.3892" lon="6.73057">
        <ele>8.9</ele>
        <time>2023-05-16T13:47:05Z</time>
      </trkpt>
      <trkpt lat="43.3892" lon="6.73059">
        <ele>8.9</ele>
        <time>2023-05-16T13:47:06Z</time>
      </trkpt>
      <trkpt lat="43.38919" lon="6.7306">
        <ele>8.9</ele>
        <time>2023-05-16T13:47:08Z</time>
      </trkpt>
      <trkpt lat="43.38919" lon="6.73062">
        <ele>8.9</ele>
        <time>2023-05-16T13:47:09Z</time>
      </trkpt>
      <trkpt lat="43.38918" lon="6.73063">
        <ele>8.9</ele>
        <time>2023-05-16T13:47:10Z</time>
      </trkpt>
      <trkpt lat="43.38918" lon="6.73065">
        <ele>8.9</ele>
        <time>2023-05-16T13:47:11Z</time>
      </trkpt>
      <trkpt lat="43.38917" lon="6.73066">
        <ele>8.9</ele>
        <time>2023-05-16T13:47:12Z</time>
      </trkpt>
      <trkpt lat="43.38915" lon="6.73067">
        <ele>8.9</ele>
        <time>2023-05-16T13:47:14Z</time>
      </trkpt>
      <trkpt lat="43.38914" lon="6.73067">
        <ele>8.9</ele>
        <time>2023-05-16T13:47:15Z</time>
      </trkpt>
      <trkpt lat="43.38913" lon="6.73068">
        <ele>8.9</ele>
        <time>2023-05-16T13:47:17Z</time>
      </trkpt>
      <trkpt lat="43.38912" lon="6.73068">
        <ele>8.9</ele>
        <time>2023-05-16T13:47:18Z</time>
      </trkpt>
      <trkpt lat="43.38911" lon="6.73068">
        <ele>8.9</ele>
        <time>2023-05-16T13:47:19Z</time>
      </trkpt>
      <trkpt lat="43.38909" lon="6.73067">
        <ele>8.9</ele>
        <time>2023-05-16T13:47:20Z</time>
      </trkpt>
      <trkpt lat="43.38908" lon="6.73068">
        <ele>8.9</ele>
        <time>2023-05-16T13:47:21Z</time>
      </trkpt>
      <trkpt lat="43.38907" lon="6.73068">
        <ele>8.9</ele>
        <time>2023-05-16T13:47:23Z</time>
      </trkpt>
      <trkpt lat="43.38907" lon="6.73069">
        <ele>8.9</ele>
        <time>2023-05-16T13:47:24Z</time>
      </trkpt>
      <trkpt lat="43.38907" lon="6.73069">
        <ele>8.9</ele>
        <time>2023-05-16T13:47:26Z</time>
      </trkpt>
      <trkpt lat="43.38908" lon="6.73069">
        <ele>8.9</ele>
        <time>2023-05-16T13:47:27Z</time>
      </trkpt>
      <trkpt lat="43.38908" lon="6.73069">
        <ele>8.9</ele>
        <time>2023-05-16T13:47:28Z</time>
      </trkpt>
      <trkpt lat="43.38908" lon="6.7307">
        <ele>8.9</ele>
        <time>2023-05-16T13:47:30Z</time>
      </trkpt>
      <trkpt lat="43.38908" lon="6.7307">
        <ele>8.9</ele>
        <time>2023-05-16T13:47:31Z</time>
      </trkpt>
      <trkpt lat="43.38908" lon="6.7307">
        <ele>8.9</ele>
        <time>2023-05-16T13:47:32Z</time>
      </trkpt>
      <trkpt lat="43.38908" lon="6.7307">
        <ele>8.9</ele>
        <time>2023-05-16T13:47:33Z</time>
      </trkpt>
      <trkpt lat="43.38907" lon="6.73069">
        <ele>8.9</ele>
        <time>2023-05-16T13:47:34Z</time>
      </trkpt>
      <trkpt lat="43.38905" lon="6.73065">
        <ele>8.9</ele>
        <time>2023-05-16T13:47:36Z</time>
      </trkpt>
      <trkpt lat="43.38904" lon="6.73063">
        <ele>8.9</ele>
        <time>2023-05-16T13:47:37Z</time>
      </trkpt>
      <trkpt lat="43.38903" lon="6.73061">
        <ele>8.9</ele>
        <time>2023-05-16T13:47:38Z</time>
      </trkpt>
      <trkpt lat="43.38903" lon="6.7306">
        <ele>8.9</ele>
        <time>2023-05-16T13:47:39Z</time>
      </trkpt>
      <trkpt lat="43.38902" lon="6.73059">
        <ele>8.9</ele>
        <time>2023-05-16T13:47:40Z</time>
      </trkpt>
      <trkpt lat="43.389" lon="6.73058">
        <ele>8.9</ele>
        <time>2023-05-16T13:47:41Z</time>
      </trkpt>
      <trkpt lat="43.38899" lon="6.73058">
        <ele>8.8</ele>
        <time>2023-05-16T13:47:42Z</time>
      </trkpt>
      <trkpt lat="43.38896" lon="6.73058">
        <ele>8.8</ele>
        <time>2023-05-16T13:47:43Z</time>
      </trkpt>
      <trkpt lat="43.38895" lon="6.73059">
        <ele>8.8</ele>
        <time>2023-05-16T13:47:44Z</time>
      </trkpt>
      <trkpt lat="43.38894" lon="6.73059">
        <ele>8.8</ele>
        <time>2023-05-16T13:47:46Z</time>
      </trkpt>
      <trkpt lat="43.38894" lon="6.73058">
        <ele>8.8</ele>
        <time>2023-05-16T13:47:47Z</time>
      </trkpt>
      <trkpt lat="43.38893" lon="6.73058">
        <ele>8.9</ele>
        <time>2023-05-16T13:47:48Z</time>
      </trkpt>
      <trkpt lat="43.38891" lon="6.73058">
        <ele>8.9</ele>
        <time>2023-05-16T13:47:49Z</time>
      </trkpt>
      <trkpt lat="43.3889" lon="6.73058">
        <ele>8.9</ele>
        <time>2023-05-16T13:47:50Z</time>
      </trkpt>
      <trkpt lat="43.38889" lon="6.73058">
        <ele>8.9</ele>
        <time>2023-05-16T13:47:51Z</time>
      </trkpt>
      <trkpt lat="43.38888" lon="6.73058">
        <ele>8.9</ele>
        <time>2023-05-16T13:47:52Z</time>
      </trkpt>
      <trkpt lat="43.38886" lon="6.73057">
        <ele>8.9</ele>
        <time>2023-05-16T13:47:53Z</time>
      </trkpt>
      <trkpt lat="43.38885" lon="6.73056">
        <ele>8.9</ele>
        <time>2023-05-16T13:47:54Z</time>
      </trkpt>
      <trkpt lat="43.38884" lon="6.73056">
        <ele>8.9</ele>
        <time>2023-05-16T13:47:55Z</time>
      </trkpt>
      <trkpt lat="43.38883" lon="6.73055">
        <ele>8.9</ele>
        <time>2023-05-16T13:47:57Z</time>
      </trkpt>
      <trkpt lat="43.38882" lon="6.73055">
        <ele>8.9</ele>
        <time>2023-05-16T13:47:58Z</time>
      </trkpt>
      <trkpt lat="43.38881" lon="6.73054">
        <ele>8.9</ele>
        <time>2023-05-16T13:47:59Z</time>
      </trkpt>
      <trkpt lat="43.3888" lon="6.73054">
        <ele>8.9</ele>
        <time>2023-05-16T13:48:00Z</time>
      </trkpt>
      <trkpt lat="43.38878" lon="6.73053">
        <ele>8.9</ele>
        <time>2023-05-16T13:48:01Z</time>
      </trkpt>
      <trkpt lat="43.38877" lon="6.73052">
        <ele>8.9</ele>
        <time>2023-05-16T13:48:02Z</time>
      </trkpt>
      <trkpt lat="43.38876" lon="6.73052">
        <ele>8.9</ele>
        <time>2023-05-16T13:48:03Z</time>
      </trkpt>
      <trkpt lat="43.38875" lon="6.73052">
        <ele>8.9</ele>
        <time>2023-05-16T13:48:04Z</time>
      </trkpt>
      <trkpt lat="43.38874" lon="6.73051">
        <ele>8.9</ele>
        <time>2023-05-16T13:48:05Z</time>
      </trkpt>
      <trkpt lat="43.38873" lon="6.73051">
        <ele>8.9</ele>
        <time>2023-05-16T13:48:06Z</time>
      </trkpt>
      <trkpt lat="43.38872" lon="6.73051">
        <ele>8.9</ele>
        <time>2023-05-16T13:48:07Z</time>
      </trkpt>
      <trkpt lat="43.3887" lon="6.73051">
        <ele>8.9</ele>
        <time>2023-05-16T13:48:08Z</time>
      </trkpt>
      <trkpt lat="43.38869" lon="6.73051">
        <ele>8.9</ele>
        <time>2023-05-16T13:48:10Z</time>
      </trkpt>
      <trkpt lat="43.38868" lon="6.7305">
        <ele>8.9</ele>
        <time>2023-05-16T13:48:11Z</time>
      </trkpt>
      <trkpt lat="43.38867" lon="6.7305">
        <ele>8.9</ele>
        <time>2023-05-16T13:48:12Z</time>
      </trkpt>
      <trkpt lat="43.38866" lon="6.73049">
        <ele>8.9</ele>
        <time>2023-05-16T13:48:13Z</time>
      </trkpt>
      <trkpt lat="43.38865" lon="6.73049">
        <ele>8.9</ele>
        <time>2023-05-16T13:48:14Z</time>
      </trkpt>
      <trkpt lat="43.38863" lon="6.7305">
        <ele>8.9</ele>
        <time>2023-05-16T13:48:16Z</time>
      </trkpt>
      <trkpt lat="43.38862" lon="6.7305">
        <ele>8.9</ele>
        <time>2023-05-16T13:48:17Z</time>
      </trkpt>
      <trkpt lat="43.38862" lon="6.7305">
        <ele>8.9</ele>
        <time>2023-05-16T13:48:18Z</time>
      </trkpt>
      <trkpt lat="43.38862" lon="6.7305">
        <ele>8.9</ele>
        <time>2023-05-16T13:48:20Z</time>
      </trkpt>
      <trkpt lat="43.38862" lon="6.73049">
        <ele>8.9</ele>
        <time>2023-05-16T13:48:21Z</time>
      </trkpt>
      <trkpt lat="43.38862" lon="6.73049">
        <ele>8.9</ele>
        <time>2023-05-16T13:48:23Z</time>
      </trkpt>
      <trkpt lat="43.38861" lon="6.73049">
        <ele>8.9</ele>
        <time>2023-05-16T13:48:24Z</time>
      </trkpt>
      <trkpt lat="43.38861" lon="6.73049">
        <ele>8.9</ele>
        <time>2023-05-16T13:48:25Z</time>
      </trkpt>
      <trkpt lat="43.38861" lon="6.73048">
        <ele>8.9</ele>
        <time>2023-05-16T13:48:27Z</time>
      </trkpt>
      <trkpt lat="43.38861" lon="6.73048">
        <ele>8.9</ele>
        <time>2023-05-16T13:48:28Z</time>
      </trkpt>
      <trkpt lat="43.38861" lon="6.73048">
        <ele>8.9</ele>
        <time>2023-05-16T13:48:29Z</time>
      </trkpt>
      <trkpt lat="43.3886" lon="6.73047">
        <ele>8.9</ele>
        <time>2023-05-16T13:48:31Z</time>
      </trkpt>
      <trkpt lat="43.3886" lon="6.73047">
        <ele>8.9</ele>
        <time>2023-05-16T13:48:32Z</time>
      </trkpt>
      <trkpt lat="43.38859" lon="6.73043">
        <ele>8.9</ele>
        <time>2023-05-16T13:48:33Z</time>
      </trkpt>
      <trkpt lat="43.38858" lon="6.73041">
        <ele>8.9</ele>
        <time>2023-05-16T13:48:34Z</time>
      </trkpt>
      <trkpt lat="43.38857" lon="6.73039">
        <ele>8.9</ele>
        <time>2023-05-16T13:48:36Z</time>
      </trkpt>
      <trkpt lat="43.38857" lon="6.73037">
        <ele>8.9</ele>
        <time>2023-05-16T13:48:37Z</time>
      </trkpt>
      <trkpt lat="43.38856" lon="6.73036">
        <ele>8.9</ele>
        <time>2023-05-16T13:48:38Z</time>
      </trkpt>
      <trkpt lat="43.38855" lon="6.73034">
        <ele>8.9</ele>
        <time>2023-05-16T13:48:40Z</time>
      </trkpt>
      <trkpt lat="43.38855" lon="6.73032">
        <ele>8.9</ele>
        <time>2023-05-16T13:48:41Z</time>
      </trkpt>
      <trkpt lat="43.38854" lon="6.73032">
        <ele>8.9</ele>
        <time>2023-05-16T13:48:42Z</time>
      </trkpt>
      <trkpt lat="43.38854" lon="6.73032">
        <ele>8.9</ele>
        <time>2023-05-16T13:48:43Z</time>
      </trkpt>
      <trkpt lat="43.38854" lon="6.73031">
        <ele>8.9</ele>
        <time>2023-05-16T13:48:44Z</time>
      </trkpt>
      <trkpt lat="43.38853" lon="6.73029">
        <ele>8.9</ele>
        <time>2023-05-16T13:48:46Z</time>
      </trkpt>
      <trkpt lat="43.38853" lon="6.73028">
        <ele>8.9</ele>
        <time>2023-05-16T13:48:47Z</time>
      </trkpt>
      <trkpt lat="43.38852" lon="6.73027">
        <ele>8.9</ele>
        <time>2023-05-16T13:48:48Z</time>
      </trkpt>
      <trkpt lat="43.38851" lon="6.73026">
        <ele>8.9</ele>
        <time>2023-05-16T13:48:49Z</time>
      </trkpt>
      <trkpt lat="43.38849" lon="6.73024">
        <ele>8.8</ele>
        <time>2023-05-16T13:48:51Z</time>
      </trkpt>
      <trkpt lat="43.38848" lon="6.73023">
        <ele>8.8</ele>
        <time>2023-05-16T13:48:52Z</time>
      </trkpt>
      <trkpt lat="43.38847" lon="6.73023">
        <ele>8.8</ele>
        <time>2023-05-16T13:48:53Z</time>
      </trkpt>
      <trkpt lat="43.38846" lon="6.73023">
        <ele>8.8</ele>
        <time>2023-05-16T13:48:54Z</time>
      </trkpt>
      <trkpt lat="43.38845" lon="6.73023">
        <ele>8.8</ele>
        <time>2023-05-16T13:48:55Z</time>
      </trkpt>
      <trkpt lat="43.38844" lon="6.73022">
        <ele>8.8</ele>
        <time>2023-05-16T13:48:56Z</time>
      </trkpt>
      <trkpt lat="43.38844" lon="6.73021">
        <ele>8.8</ele>
        <time>2023-05-16T13:48:57Z</time>
      </trkpt>
      <trkpt lat="43.38843" lon="6.73021">
        <ele>8.8</ele>
        <time>2023-05-16T13:48:58Z</time>
      </trkpt>
      <trkpt lat="43.38842" lon="6.73019">
        <ele>8.7</ele>
        <time>2023-05-16T13:49:00Z</time>
      </trkpt>
      <trkpt lat="43.38842" lon="6.73016">
        <ele>8.7</ele>
        <time>2023-05-16T13:49:01Z</time>
      </trkpt>
      <trkpt lat="43.38842" lon="6.73016">
        <ele>8.7</ele>
        <time>2023-05-16T13:49:02Z</time>
      </trkpt>
      <trkpt lat="43.38841" lon="6.73015">
        <ele>8.7</ele>
        <time>2023-05-16T13:49:03Z</time>
      </trkpt>
      <trkpt lat="43.3884" lon="6.73015">
        <ele>8.6</ele>
        <time>2023-05-16T13:49:04Z</time>
      </trkpt>
      <trkpt lat="43.38839" lon="6.73015">
        <ele>8.6</ele>
        <time>2023-05-16T13:49:05Z</time>
      </trkpt>
      <trkpt lat="43.38838" lon="6.73015">
        <ele>8.6</ele>
        <time>2023-05-16T13:49:06Z</time>
      </trkpt>
      <trkpt lat="43.38836" lon="6.73015">
        <ele>8.5</ele>
        <time>2023-05-16T13:49:08Z</time>
      </trkpt>
      <trkpt lat="43.38835" lon="6.73015">
        <ele>8.5</ele>
        <time>2023-05-16T13:49:09Z</time>
      </trkpt>
      <trkpt lat="43.38834" lon="6.73016">
        <ele>8.5</ele>
        <time>2023-05-16T13:49:10Z</time>
      </trkpt>
      <trkpt lat="43.38833" lon="6.73019">
        <ele>8.4</ele>
        <time>2023-05-16T13:49:11Z</time>
      </trkpt>
      <trkpt lat="43.38832" lon="6.73021">
        <ele>8.3</ele>
        <time>2023-05-16T13:49:12Z</time>
      </trkpt>
      <trkpt lat="43.38833" lon="6.73023">
        <ele>8.3</ele>
        <time>2023-05-16T13:49:13Z</time>
      </trkpt>
      <trkpt lat="43.38833" lon="6.73025">
        <ele>8.2</ele>
        <time>2023-05-16T13:49:14Z</time>
      </trkpt>
      <trkpt lat="43.38834" lon="6.73027">
        <ele>8.2</ele>
        <time>2023-05-16T13:49:15Z</time>
      </trkpt>
      <trkpt lat="43.38834" lon="6.73029">
        <ele>8.1</ele>
        <time>2023-05-16T13:49:16Z</time>
      </trkpt>
      <trkpt lat="43.38834" lon="6.73032">
        <ele>8.1</ele>
        <time>2023-05-16T13:49:17Z</time>
      </trkpt>
      <trkpt lat="43.38835" lon="6.73033">
        <ele>8</ele>
        <time>2023-05-16T13:49:18Z</time>
      </trkpt>
      <trkpt lat="43.38835" lon="6.73036">
        <ele>8</ele>
        <time>2023-05-16T13:49:19Z</time>
      </trkpt>
      <trkpt lat="43.38835" lon="6.73037">
        <ele>8</ele>
        <time>2023-05-16T13:49:20Z</time>
      </trkpt>
      <trkpt lat="43.38835" lon="6.73038">
        <ele>7.9</ele>
        <time>2023-05-16T13:49:21Z</time>
      </trkpt>
      <trkpt lat="43.38835" lon="6.7304">
        <ele>7.9</ele>
        <time>2023-05-16T13:49:23Z</time>
      </trkpt>
      <trkpt lat="43.38836" lon="6.73041">
        <ele>7.9</ele>
        <time>2023-05-16T13:49:24Z</time>
      </trkpt>
      <trkpt lat="43.38837" lon="6.73042">
        <ele>7.9</ele>
        <time>2023-05-16T13:49:25Z</time>
      </trkpt>
      <trkpt lat="43.38837" lon="6.73042">
        <ele>7.9</ele>
        <time>2023-05-16T13:49:26Z</time>
      </trkpt>
      <trkpt lat="43.38838" lon="6.73044">
        <ele>7.8</ele>
        <time>2023-05-16T13:49:28Z</time>
      </trkpt>
      <trkpt lat="43.38838" lon="6.73046">
        <ele>7.8</ele>
        <time>2023-05-16T13:49:29Z</time>
      </trkpt>
      <trkpt lat="43.38837" lon="6.73048">
        <ele>7.8</ele>
        <time>2023-05-16T13:49:30Z</time>
      </trkpt>
      <trkpt lat="43.38837" lon="6.7305">
        <ele>7.7</ele>
        <time>2023-05-16T13:49:31Z</time>
      </trkpt>
      <trkpt lat="43.38836" lon="6.73053">
        <ele>7.7</ele>
        <time>2023-05-16T13:49:33Z</time>
      </trkpt>
      <trkpt lat="43.38835" lon="6.73054">
        <ele>7.7</ele>
        <time>2023-05-16T13:49:34Z</time>
      </trkpt>
      <trkpt lat="43.38833" lon="6.73056">
        <ele>7.7</ele>
        <time>2023-05-16T13:49:35Z</time>
      </trkpt>
      <trkpt lat="43.38833" lon="6.73057">
        <ele>7.6</ele>
        <time>2023-05-16T13:49:36Z</time>
      </trkpt>
      <trkpt lat="43.38832" lon="6.73058">
        <ele>7.6</ele>
        <time>2023-05-16T13:49:37Z</time>
      </trkpt>
      <trkpt lat="43.3883" lon="6.73059">
        <ele>7.6</ele>
        <time>2023-05-16T13:49:38Z</time>
      </trkpt>
      <trkpt lat="43.38829" lon="6.7306">
        <ele>7.6</ele>
        <time>2023-05-16T13:49:39Z</time>
      </trkpt>
      <trkpt lat="43.38828" lon="6.7306">
        <ele>7.6</ele>
        <time>2023-05-16T13:49:40Z</time>
      </trkpt>
      <trkpt lat="43.38827" lon="6.7306">
        <ele>7.6</ele>
        <time>2023-05-16T13:49:42Z</time>
      </trkpt>
      <trkpt lat="43.38825" lon="6.73061">
        <ele>7.6</ele>
        <time>2023-05-16T13:49:43Z</time>
      </trkpt>
      <trkpt lat="43.38824" lon="6.73062">
        <ele>7.6</ele>
        <time>2023-05-16T13:49:44Z</time>
      </trkpt>
      <trkpt lat="43.38823" lon="6.73063">
        <ele>7.6</ele>
        <time>2023-05-16T13:49:45Z</time>
      </trkpt>
      <trkpt lat="43.38822" lon="6.73062">
        <ele>7.6</ele>
        <time>2023-05-16T13:49:46Z</time>
      </trkpt>
      <trkpt lat="43.38821" lon="6.73061">
        <ele>7.6</ele>
        <time>2023-05-16T13:49:47Z</time>
      </trkpt>
      <trkpt lat="43.3882" lon="6.7306">
        <ele>7.6</ele>
        <time>2023-05-16T13:49:48Z</time>
      </trkpt>
      <trkpt lat="43.3882" lon="6.73059">
        <ele>7.7</ele>
        <time>2023-05-16T13:49:49Z</time>
      </trkpt>
      <trkpt lat="43.38819" lon="6.73056">
        <ele>7.7</ele>
        <time>2023-05-16T13:49:50Z</time>
      </trkpt>
      <trkpt lat="43.38818" lon="6.73055">
        <ele>7.7</ele>
        <time>2023-05-16T13:49:51Z</time>
      </trkpt>
      <trkpt lat="43.38818" lon="6.73054">
        <ele>7.7</ele>
        <time>2023-05-16T13:49:52Z</time>
      </trkpt>
      <trkpt lat="43.38818" lon="6.73052">
        <ele>7.8</ele>
        <time>2023-05-16T13:49:53Z</time>
      </trkpt>
      <trkpt lat="43.38817" lon="6.73051">
        <ele>7.8</ele>
        <time>2023-05-16T13:49:54Z</time>
      </trkpt>
      <trkpt lat="43.38816" lon="6.73049">
        <ele>7.8</ele>
        <time>2023-05-16T13:49:56Z</time>
      </trkpt>
      <trkpt lat="43.38815" lon="6.73048">
        <ele>7.9</ele>
        <time>2023-05-16T13:49:57Z</time>
      </trkpt>
      <trkpt lat="43.38815" lon="6.73047">
        <ele>7.9</ele>
        <time>2023-05-16T13:49:58Z</time>
      </trkpt>
      <trkpt lat="43.38814" lon="6.73046">
        <ele>7.9</ele>
        <time>2023-05-16T13:49:59Z</time>
      </trkpt>
      <trkpt lat="43.38813" lon="6.73045">
        <ele>8</ele>
        <time>2023-05-16T13:50:00Z</time>
      </trkpt>
      <trkpt lat="43.38812" lon="6.73043">
        <ele>8</ele>
        <time>2023-05-16T13:50:01Z</time>
      </trkpt>
      <trkpt lat="43.38812" lon="6.73042">
        <ele>8.1</ele>
        <time>2023-05-16T13:50:03Z</time>
      </trkpt>
      <trkpt lat="43.38812" lon="6.73041">
        <ele>8.1</ele>
        <time>2023-05-16T13:50:04Z</time>
      </trkpt>
      <trkpt lat="43.38812" lon="6.73039">
        <ele>8.2</ele>
        <time>2023-05-16T13:50:05Z</time>
      </trkpt>
      <trkpt lat="43.38812" lon="6.73038">
        <ele>8.2</ele>
        <time>2023-05-16T13:50:06Z</time>
      </trkpt>
      <trkpt lat="43.38812" lon="6.73035">
        <ele>8.4</ele>
        <time>2023-05-16T13:50:07Z</time>
      </trkpt>
      <trkpt lat="43.38812" lon="6.73034">
        <ele>8.4</ele>
        <time>2023-05-16T13:50:09Z</time>
      </trkpt>
      <trkpt lat="43.38812" lon="6.73033">
        <ele>8.4</ele>
        <time>2023-05-16T13:50:10Z</time>
      </trkpt>
      <trkpt lat="43.38811" lon="6.7303">
        <ele>8.6</ele>
        <time>2023-05-16T13:50:11Z</time>
      </trkpt>
      <trkpt lat="43.38811" lon="6.73028">
        <ele>8.7</ele>
        <time>2023-05-16T13:50:12Z</time>
      </trkpt>
      <trkpt lat="43.38811" lon="6.73027">
        <ele>8.7</ele>
        <time>2023-05-16T13:50:13Z</time>
      </trkpt>
      <trkpt lat="43.3881" lon="6.73026">
        <ele>8.8</ele>
        <time>2023-05-16T13:50:14Z</time>
      </trkpt>
      <trkpt lat="43.38809" lon="6.73025">
        <ele>8.9</ele>
        <time>2023-05-16T13:50:15Z</time>
      </trkpt>
      <trkpt lat="43.38808" lon="6.73024">
        <ele>9</ele>
        <time>2023-05-16T13:50:17Z</time>
      </trkpt>
      <trkpt lat="43.38806" lon="6.73022">
        <ele>9.1</ele>
        <time>2023-05-16T13:50:18Z</time>
      </trkpt>
      <trkpt lat="43.38804" lon="6.73022">
        <ele>9.3</ele>
        <time>2023-05-16T13:50:20Z</time>
      </trkpt>
      <trkpt lat="43.38804" lon="6.73023">
        <ele>9.3</ele>
        <time>2023-05-16T13:50:21Z</time>
      </trkpt>
      <trkpt lat="43.38804" lon="6.73023">
        <ele>9.3</ele>
        <time>2023-05-16T13:50:22Z</time>
      </trkpt>
      <trkpt lat="43.38804" lon="6.73024">
        <ele>9.4</ele>
        <time>2023-05-16T13:50:24Z</time>
      </trkpt>
      <trkpt lat="43.38804" lon="6.73025">
        <ele>9.4</ele>
        <time>2023-05-16T13:50:25Z</time>
      </trkpt>
      <trkpt lat="43.38804" lon="6.73025">
        <ele>9.4</ele>
        <time>2023-05-16T13:50:26Z</time>
      </trkpt>
      <trkpt lat="43.38804" lon="6.73025">
        <ele>9.4</ele>
        <time>2023-05-16T13:50:27Z</time>
      </trkpt>
      <trkpt lat="43.38804" lon="6.73025">
        <ele>9.5</ele>
        <time>2023-05-16T13:50:29Z</time>
      </trkpt>
      <trkpt lat="43.38804" lon="6.73025">
        <ele>9.5</ele>
        <time>2023-05-16T13:50:30Z</time>
      </trkpt>
      <trkpt lat="43.38804" lon="6.73024">
        <ele>9.5</ele>
        <time>2023-05-16T13:50:31Z</time>
      </trkpt>
      <trkpt lat="43.38802" lon="6.73024">
        <ele>9.6</ele>
        <time>2023-05-16T13:50:32Z</time>
      </trkpt>
      <trkpt lat="43.38802" lon="6.73023">
        <ele>9.7</ele>
        <time>2023-05-16T13:50:33Z</time>
      </trkpt>
      <trkpt lat="43.38801" lon="6.73022">
        <ele>9.8</ele>
        <time>2023-05-16T13:50:34Z</time>
      </trkpt>
      <trkpt lat="43.388" lon="6.7302">
        <ele>10</ele>
        <time>2023-05-16T13:50:36Z</time>
      </trkpt>
      <trkpt lat="43.38799" lon="6.73019">
        <ele>9.9</ele>
        <time>2023-05-16T13:50:37Z</time>
      </trkpt>
      <trkpt lat="43.38797" lon="6.73018">
        <ele>9.8</ele>
        <time>2023-05-16T13:50:38Z</time>
      </trkpt>
      <trkpt lat="43.38796" lon="6.73017">
        <ele>9.7</ele>
        <time>2023-05-16T13:50:39Z</time>
      </trkpt>
      <trkpt lat="43.38794" lon="6.73016">
        <ele>9.6</ele>
        <time>2023-05-16T13:50:40Z</time>
      </trkpt>
      <trkpt lat="43.38793" lon="6.73016">
        <ele>9.6</ele>
        <time>2023-05-16T13:50:41Z</time>
      </trkpt>
      <trkpt lat="43.3879" lon="6.73016">
        <ele>9.4</ele>
        <time>2023-05-16T13:50:42Z</time>
      </trkpt>
      <trkpt lat="43.3879" lon="6.73017">
        <ele>9.4</ele>
        <time>2023-05-16T13:50:43Z</time>
      </trkpt>
      <trkpt lat="43.38789" lon="6.73017">
        <ele>9.3</ele>
        <time>2023-05-16T13:50:44Z</time>
      </trkpt>
      <trkpt lat="43.38788" lon="6.73019">
        <ele>9.3</ele>
        <time>2023-05-16T13:50:45Z</time>
      </trkpt>
      <trkpt lat="43.38787" lon="6.7302">
        <ele>9.2</ele>
        <time>2023-05-16T13:50:46Z</time>
      </trkpt>
      <trkpt lat="43.38785" lon="6.73022">
        <ele>9.1</ele>
        <time>2023-05-16T13:50:47Z</time>
      </trkpt>
      <trkpt lat="43.38784" lon="6.73023">
        <ele>9</ele>
        <time>2023-05-16T13:50:48Z</time>
      </trkpt>
      <trkpt lat="43.38782" lon="6.73024">
        <ele>8.9</ele>
        <time>2023-05-16T13:50:50Z</time>
      </trkpt>
      <trkpt lat="43.38782" lon="6.73025">
        <ele>8.9</ele>
        <time>2023-05-16T13:50:51Z</time>
      </trkpt>
      <trkpt lat="43.38781" lon="6.73025">
        <ele>8.8</ele>
        <time>2023-05-16T13:50:52Z</time>
      </trkpt>
      <trkpt lat="43.3878" lon="6.73025">
        <ele>8.8</ele>
        <time>2023-05-16T13:50:53Z</time>
      </trkpt>
      <trkpt lat="43.38779" lon="6.73025">
        <ele>8.8</ele>
        <time>2023-05-16T13:50:54Z</time>
      </trkpt>
      <trkpt lat="43.38778" lon="6.73026">
        <ele>8.7</ele>
        <time>2023-05-16T13:50:55Z</time>
      </trkpt>
      <trkpt lat="43.38775" lon="6.73026">
        <ele>8.7</ele>
        <time>2023-05-16T13:50:57Z</time>
      </trkpt>
      <trkpt lat="43.38775" lon="6.73026">
        <ele>8.7</ele>
        <time>2023-05-16T13:50:59Z</time>
      </trkpt>
      <trkpt lat="43.38774" lon="6.73026">
        <ele>8.6</ele>
        <time>2023-05-16T13:51:00Z</time>
      </trkpt>
      <trkpt lat="43.38774" lon="6.73027">
        <ele>8.6</ele>
        <time>2023-05-16T13:51:01Z</time>
      </trkpt>
      <trkpt lat="43.38775" lon="6.73027">
        <ele>8.6</ele>
        <time>2023-05-16T13:51:02Z</time>
      </trkpt>
      <trkpt lat="43.38777" lon="6.73028">
        <ele>8.5</ele>
        <time>2023-05-16T13:51:04Z</time>
      </trkpt>
      <trkpt lat="43.38778" lon="6.73028">
        <ele>8.5</ele>
        <time>2023-05-16T13:51:05Z</time>
      </trkpt>
      <trkpt lat="43.38777" lon="6.73027">
        <ele>8.5</ele>
        <time>2023-05-16T13:51:07Z</time>
      </trkpt>
      <trkpt lat="43.38777" lon="6.73027">
        <ele>8.5</ele>
        <time>2023-05-16T13:51:08Z</time>
      </trkpt>
      <trkpt lat="43.38776" lon="6.73027">
        <ele>8.5</ele>
        <time>2023-05-16T13:51:09Z</time>
      </trkpt>
      <trkpt lat="43.38775" lon="6.73026">
        <ele>8.5</ele>
        <time>2023-05-16T13:51:10Z</time>
      </trkpt>
      <trkpt lat="43.38774" lon="6.73026">
        <ele>8.5</ele>
        <time>2023-05-16T13:51:11Z</time>
      </trkpt>
      <trkpt lat="43.38773" lon="6.73026">
        <ele>8.4</ele>
        <time>2023-05-16T13:51:12Z</time>
      </trkpt>
      <trkpt lat="43.38772" lon="6.73023">
        <ele>8.4</ele>
        <time>2023-05-16T13:51:13Z</time>
      </trkpt>
      <trkpt lat="43.38771" lon="6.73022">
        <ele>8.4</ele>
        <time>2023-05-16T13:51:15Z</time>
      </trkpt>
      <trkpt lat="43.38771" lon="6.73021">
        <ele>8.3</ele>
        <time>2023-05-16T13:51:16Z</time>
      </trkpt>
      <trkpt lat="43.3877" lon="6.73019">
        <ele>8.3</ele>
        <time>2023-05-16T13:51:17Z</time>
      </trkpt>
      <trkpt lat="43.3877" lon="6.73018">
        <ele>8.3</ele>
        <time>2023-05-16T13:51:18Z</time>
      </trkpt>
      <trkpt lat="43.38768" lon="6.73017">
        <ele>8.2</ele>
        <time>2023-05-16T13:51:19Z</time>
      </trkpt>
      <trkpt lat="43.38767" lon="6.73016">
        <ele>8.2</ele>
        <time>2023-05-16T13:51:21Z</time>
      </trkpt>
      <trkpt lat="43.38766" lon="6.73015">
        <ele>8.1</ele>
        <time>2023-05-16T13:51:22Z</time>
      </trkpt>
      <trkpt lat="43.38766" lon="6.73014">
        <ele>8.1</ele>
        <time>2023-05-16T13:51:23Z</time>
      </trkpt>
      <trkpt lat="43.38765" lon="6.73013">
        <ele>8</ele>
        <time>2023-05-16T13:51:24Z</time>
      </trkpt>
      <trkpt lat="43.38764" lon="6.73013">
        <ele>8</ele>
        <time>2023-05-16T13:51:26Z</time>
      </trkpt>
      <trkpt lat="43.38763" lon="6.73012">
        <ele>8</ele>
        <time>2023-05-16T13:51:27Z</time>
      </trkpt>
      <trkpt lat="43.38761" lon="6.73012">
        <ele>7.9</ele>
        <time>2023-05-16T13:51:28Z</time>
      </trkpt>
      <trkpt lat="43.38759" lon="6.73011">
        <ele>7.8</ele>
        <time>2023-05-16T13:51:29Z</time>
      </trkpt>
      <trkpt lat="43.38758" lon="6.7301">
        <ele>7.7</ele>
        <time>2023-05-16T13:51:30Z</time>
      </trkpt>
      <trkpt lat="43.38757" lon="6.73009">
        <ele>7.7</ele>
        <time>2023-05-16T13:51:31Z</time>
      </trkpt>
      <trkpt lat="43.38755" lon="6.73009">
        <ele>7.6</ele>
        <time>2023-05-16T13:51:32Z</time>
      </trkpt>
      <trkpt lat="43.38755" lon="6.73008">
        <ele>7.6</ele>
        <time>2023-05-16T13:51:34Z</time>
      </trkpt>
      <trkpt lat="43.38754" lon="6.73008">
        <ele>7.5</ele>
        <time>2023-05-16T13:51:35Z</time>
      </trkpt>
      <trkpt lat="43.38753" lon="6.73006">
        <ele>7.5</ele>
        <time>2023-05-16T13:51:36Z</time>
      </trkpt>
      <trkpt lat="43.38753" lon="6.73006">
        <ele>7.5</ele>
        <time>2023-05-16T13:51:37Z</time>
      </trkpt>
      <trkpt lat="43.38752" lon="6.73004">
        <ele>7.5</ele>
        <time>2023-05-16T13:51:39Z</time>
      </trkpt>
      <trkpt lat="43.38751" lon="6.73001">
        <ele>7.5</ele>
        <time>2023-05-16T13:51:40Z</time>
      </trkpt>
      <trkpt lat="43.3875" lon="6.72999">
        <ele>7.5</ele>
        <time>2023-05-16T13:51:42Z</time>
      </trkpt>
      <trkpt lat="43.3875" lon="6.72997">
        <ele>7.5</ele>
        <time>2023-05-16T13:51:43Z</time>
      </trkpt>
      <trkpt lat="43.38751" lon="6.72995">
        <ele>7.5</ele>
        <time>2023-05-16T13:51:45Z</time>
      </trkpt>
      <trkpt lat="43.38751" lon="6.72994">
        <ele>7.4</ele>
        <time>2023-05-16T13:51:46Z</time>
      </trkpt>
      <trkpt lat="43.38751" lon="6.72993">
        <ele>7.4</ele>
        <time>2023-05-16T13:51:47Z</time>
      </trkpt>
      <trkpt lat="43.38751" lon="6.72991">
        <ele>7.4</ele>
        <time>2023-05-16T13:51:48Z</time>
      </trkpt>
      <trkpt lat="43.38751" lon="6.72989">
        <ele>7.4</ele>
        <time>2023-05-16T13:51:50Z</time>
      </trkpt>
      <trkpt lat="43.38751" lon="6.72987">
        <ele>7.3</ele>
        <time>2023-05-16T13:51:51Z</time>
      </trkpt>
      <trkpt lat="43.38751" lon="6.72986">
        <ele>7.3</ele>
        <time>2023-05-16T13:51:52Z</time>
      </trkpt>
      <trkpt lat="43.38751" lon="6.72983">
        <ele>7.3</ele>
        <time>2023-05-16T13:51:53Z</time>
      </trkpt>
      <trkpt lat="43.38751" lon="6.72982">
        <ele>7.2</ele>
        <time>2023-05-16T13:51:55Z</time>
      </trkpt>
      <trkpt lat="43.38751" lon="6.72982">
        <ele>7.2</ele>
        <time>2023-05-16T13:51:56Z</time>
      </trkpt>
      <trkpt lat="43.38751" lon="6.72982">
        <ele>7.2</ele>
        <time>2023-05-16T13:51:57Z</time>
      </trkpt>
      <trkpt lat="43.38751" lon="6.72984">
        <ele>7.2</ele>
        <time>2023-05-16T13:51:59Z</time>
      </trkpt>
      <trkpt lat="43.38752" lon="6.72985">
        <ele>7.2</ele>
        <time>2023-05-16T13:52:00Z</time>
      </trkpt>
      <trkpt lat="43.38752" lon="6.72986">
        <ele>7.2</ele>
        <time>2023-05-16T13:52:01Z</time>
      </trkpt>
      <trkpt lat="43.38752" lon="6.72987">
        <ele>7.2</ele>
        <time>2023-05-16T13:52:02Z</time>
      </trkpt>
      <trkpt lat="43.38752" lon="6.72987">
        <ele>7.2</ele>
        <time>2023-05-16T13:52:03Z</time>
      </trkpt>
      <trkpt lat="43.38752" lon="6.72987">
        <ele>7.1</ele>
        <time>2023-05-16T13:52:05Z</time>
      </trkpt>
      <trkpt lat="43.38754" lon="6.72985">
        <ele>7.1</ele>
        <time>2023-05-16T13:52:06Z</time>
      </trkpt>
      <trkpt lat="43.38754" lon="6.72983">
        <ele>7.1</ele>
        <time>2023-05-16T13:52:07Z</time>
      </trkpt>
      <trkpt lat="43.38754" lon="6.72981">
        <ele>7.1</ele>
        <time>2023-05-16T13:52:08Z</time>
      </trkpt>
      <trkpt lat="43.38753" lon="6.7298">
        <ele>7</ele>
        <time>2023-05-16T13:52:09Z</time>
      </trkpt>
      <trkpt lat="43.38753" lon="6.72978">
        <ele>7</ele>
        <time>2023-05-16T13:52:10Z</time>
      </trkpt>
      <trkpt lat="43.38752" lon="6.72976">
        <ele>7</ele>
        <time>2023-05-16T13:52:11Z</time>
      </trkpt>
      <trkpt lat="43.3875" lon="6.72974">
        <ele>7</ele>
        <time>2023-05-16T13:52:12Z</time>
      </trkpt>
      <trkpt lat="43.38749" lon="6.72973">
        <ele>7</ele>
        <time>2023-05-16T13:52:14Z</time>
      </trkpt>
      <trkpt lat="43.38748" lon="6.72972">
        <ele>7</ele>
        <time>2023-05-16T13:52:15Z</time>
      </trkpt>
      <trkpt lat="43.38747" lon="6.72971">
        <ele>7</ele>
        <time>2023-05-16T13:52:16Z</time>
      </trkpt>
      <trkpt lat="43.38746" lon="6.7297">
        <ele>7</ele>
        <time>2023-05-16T13:52:17Z</time>
      </trkpt>
      <trkpt lat="43.38745" lon="6.72969">
        <ele>7</ele>
        <time>2023-05-16T13:52:18Z</time>
      </trkpt>
      <trkpt lat="43.38744" lon="6.72968">
        <ele>7.1</ele>
        <time>2023-05-16T13:52:19Z</time>
      </trkpt>
      <trkpt lat="43.38742" lon="6.72967">
        <ele>7.1</ele>
        <time>2023-05-16T13:52:21Z</time>
      </trkpt>
      <trkpt lat="43.3874" lon="6.72965">
        <ele>7.2</ele>
        <time>2023-05-16T13:52:23Z</time>
      </trkpt>
      <trkpt lat="43.38738" lon="6.72964">
        <ele>7.2</ele>
        <time>2023-05-16T13:52:24Z</time>
      </trkpt>
      <trkpt lat="43.38737" lon="6.72963">
        <ele>7.3</ele>
        <time>2023-05-16T13:52:25Z</time>
      </trkpt>
      <trkpt lat="43.38737" lon="6.72961">
        <ele>7.3</ele>
        <time>2023-05-16T13:52:27Z</time>
      </trkpt>
      <trkpt lat="43.38736" lon="6.72961">
        <ele>7.3</ele>
        <time>2023-05-16T13:52:28Z</time>
      </trkpt>
      <trkpt lat="43.38735" lon="6.7296">
        <ele>7.4</ele>
        <time>2023-05-16T13:52:29Z</time>
      </trkpt>
      <trkpt lat="43.38734" lon="6.72958">
        <ele>7.4</ele>
        <time>2023-05-16T13:52:30Z</time>
      </trkpt>
      <trkpt lat="43.38734" lon="6.72957">
        <ele>7.5</ele>
        <time>2023-05-16T13:52:31Z</time>
      </trkpt>
      <trkpt lat="43.38733" lon="6.72956">
        <ele>7.5</ele>
        <time>2023-05-16T13:52:32Z</time>
      </trkpt>
      <trkpt lat="43.38732" lon="6.72954">
        <ele>7.6</ele>
        <time>2023-05-16T13:52:34Z</time>
      </trkpt>
      <trkpt lat="43.3873" lon="6.72952">
        <ele>7.6</ele>
        <time>2023-05-16T13:52:35Z</time>
      </trkpt>
      <trkpt lat="43.3873" lon="6.72951">
        <ele>7.7</ele>
        <time>2023-05-16T13:52:36Z</time>
      </trkpt>
      <trkpt lat="43.38729" lon="6.7295">
        <ele>7.7</ele>
        <time>2023-05-16T13:52:37Z</time>
      </trkpt>
      <trkpt lat="43.38728" lon="6.72949">
        <ele>7.8</ele>
        <time>2023-05-16T13:52:38Z</time>
      </trkpt>
      <trkpt lat="43.38728" lon="6.72948">
        <ele>7.8</ele>
        <time>2023-05-16T13:52:39Z</time>
      </trkpt>
      <trkpt lat="43.38727" lon="6.72947">
        <ele>7.8</ele>
        <time>2023-05-16T13:52:40Z</time>
      </trkpt>
      <trkpt lat="43.38726" lon="6.72946">
        <ele>7.9</ele>
        <time>2023-05-16T13:52:41Z</time>
      </trkpt>
      <trkpt lat="43.38725" lon="6.72945">
        <ele>7.9</ele>
        <time>2023-05-16T13:52:42Z</time>
      </trkpt>
      <trkpt lat="43.38724" lon="6.72944">
        <ele>7.9</ele>
        <time>2023-05-16T13:52:43Z</time>
      </trkpt>
      <trkpt lat="43.38724" lon="6.72943">
        <ele>8</ele>
        <time>2023-05-16T13:52:45Z</time>
      </trkpt>
      <trkpt lat="43.38723" lon="6.72941">
        <ele>8</ele>
        <time>2023-05-16T13:52:46Z</time>
      </trkpt>
      <trkpt lat="43.38723" lon="6.7294">
        <ele>8</ele>
        <time>2023-05-16T13:52:47Z</time>
      </trkpt>
      <trkpt lat="43.38723" lon="6.72938">
        <ele>8</ele>
        <time>2023-05-16T13:52:48Z</time>
      </trkpt>
      <trkpt lat="43.38722" lon="6.72937">
        <ele>8</ele>
        <time>2023-05-16T13:52:49Z</time>
      </trkpt>
      <trkpt lat="43.38722" lon="6.72936">
        <ele>8.1</ele>
        <time>2023-05-16T13:52:50Z</time>
      </trkpt>
      <trkpt lat="43.38721" lon="6.72934">
        <ele>8.1</ele>
        <time>2023-05-16T13:52:51Z</time>
      </trkpt>
      <trkpt lat="43.38721" lon="6.72933">
        <ele>8.1</ele>
        <time>2023-05-16T13:52:52Z</time>
      </trkpt>
      <trkpt lat="43.3872" lon="6.72931">
        <ele>8.1</ele>
        <time>2023-05-16T13:52:53Z</time>
      </trkpt>
      <trkpt lat="43.3872" lon="6.7293">
        <ele>8.1</ele>
        <time>2023-05-16T13:52:55Z</time>
      </trkpt>
      <trkpt lat="43.38719" lon="6.72929">
        <ele>8.1</ele>
        <time>2023-05-16T13:52:56Z</time>
      </trkpt>
      <trkpt lat="43.38719" lon="6.72928">
        <ele>8.1</ele>
        <time>2023-05-16T13:52:57Z</time>
      </trkpt>
      <trkpt lat="43.38718" lon="6.72926">
        <ele>8</ele>
        <time>2023-05-16T13:52:58Z</time>
      </trkpt>
      <trkpt lat="43.38718" lon="6.72925">
        <ele>8</ele>
        <time>2023-05-16T13:52:59Z</time>
      </trkpt>
      <trkpt lat="43.38718" lon="6.72923">
        <ele>8</ele>
        <time>2023-05-16T13:53:00Z</time>
      </trkpt>
      <trkpt lat="43.38718" lon="6.72921">
        <ele>8</ele>
        <time>2023-05-16T13:53:01Z</time>
      </trkpt>
      <trkpt lat="43.38718" lon="6.72919">
        <ele>7.9</ele>
        <time>2023-05-16T13:53:02Z</time>
      </trkpt>
      <trkpt lat="43.38718" lon="6.72917">
        <ele>7.9</ele>
        <time>2023-05-16T13:53:04Z</time>
      </trkpt>
      <trkpt lat="43.38719" lon="6.72915">
        <ele>7.8</ele>
        <time>2023-05-16T13:53:05Z</time>
      </trkpt>
      <trkpt lat="43.38719" lon="6.72914">
        <ele>7.7</ele>
        <time>2023-05-16T13:53:06Z</time>
      </trkpt>
      <trkpt lat="43.3872" lon="6.72913">
        <ele>7.7</ele>
        <time>2023-05-16T13:53:07Z</time>
      </trkpt>
      <trkpt lat="43.3872" lon="6.72911">
        <ele>7.6</ele>
        <time>2023-05-16T13:53:08Z</time>
      </trkpt>
      <trkpt lat="43.38721" lon="6.7291">
        <ele>7.5</ele>
        <time>2023-05-16T13:53:10Z</time>
      </trkpt>
      <trkpt lat="43.3872" lon="6.72908">
        <ele>7.5</ele>
        <time>2023-05-16T13:53:11Z</time>
      </trkpt>
      <trkpt lat="43.3872" lon="6.72907">
        <ele>7.4</ele>
        <time>2023-05-16T13:53:12Z</time>
      </trkpt>
      <trkpt lat="43.38719" lon="6.72905">
        <ele>7.3</ele>
        <time>2023-05-16T13:53:13Z</time>
      </trkpt>
      <trkpt lat="43.38718" lon="6.72905">
        <ele>7.2</ele>
        <time>2023-05-16T13:53:14Z</time>
      </trkpt>
      <trkpt lat="43.38716" lon="6.72904">
        <ele>7</ele>
        <time>2023-05-16T13:53:16Z</time>
      </trkpt>
      <trkpt lat="43.38715" lon="6.72903">
        <ele>7</ele>
        <time>2023-05-16T13:53:17Z</time>
      </trkpt>
      <trkpt lat="43.38714" lon="6.72903">
        <ele>6.9</ele>
        <time>2023-05-16T13:53:18Z</time>
      </trkpt>
      <trkpt lat="43.38713" lon="6.72903">
        <ele>6.8</ele>
        <time>2023-05-16T13:53:19Z</time>
      </trkpt>
      <trkpt lat="43.38713" lon="6.72902">
        <ele>6.8</ele>
        <time>2023-05-16T13:53:20Z</time>
      </trkpt>
      <trkpt lat="43.38712" lon="6.72901">
        <ele>6.7</ele>
        <time>2023-05-16T13:53:22Z</time>
      </trkpt>
      <trkpt lat="43.38712" lon="6.72899">
        <ele>6.6</ele>
        <time>2023-05-16T13:53:23Z</time>
      </trkpt>
      <trkpt lat="43.38713" lon="6.72899">
        <ele>6.6</ele>
        <time>2023-05-16T13:53:24Z</time>
      </trkpt>
      <trkpt lat="43.38712" lon="6.72899">
        <ele>6.5</ele>
        <time>2023-05-16T13:53:25Z</time>
      </trkpt>
      <trkpt lat="43.38712" lon="6.72898">
        <ele>6.5</ele>
        <time>2023-05-16T13:53:26Z</time>
      </trkpt>
      <trkpt lat="43.38712" lon="6.72897">
        <ele>6.4</ele>
        <time>2023-05-16T13:53:27Z</time>
      </trkpt>
      <trkpt lat="43.38712" lon="6.72896">
        <ele>6.4</ele>
        <time>2023-05-16T13:53:28Z</time>
      </trkpt>
      <trkpt lat="43.38712" lon="6.72895">
        <ele>6.4</ele>
        <time>2023-05-16T13:53:29Z</time>
      </trkpt>
      <trkpt lat="43.38712" lon="6.72893">
        <ele>6.2</ele>
        <time>2023-05-16T13:53:31Z</time>
      </trkpt>
      <trkpt lat="43.38712" lon="6.72892">
        <ele>6.2</ele>
        <time>2023-05-16T13:53:32Z</time>
      </trkpt>
      <trkpt lat="43.38712" lon="6.72891">
        <ele>6.1</ele>
        <time>2023-05-16T13:53:33Z</time>
      </trkpt>
      <trkpt lat="43.38712" lon="6.7289">
        <ele>6.1</ele>
        <time>2023-05-16T13:53:34Z</time>
      </trkpt>
      <trkpt lat="43.38712" lon="6.72889">
        <ele>6.1</ele>
        <time>2023-05-16T13:53:35Z</time>
      </trkpt>
      <trkpt lat="43.38712" lon="6.72888">
        <ele>6</ele>
        <time>2023-05-16T13:53:36Z</time>
      </trkpt>
      <trkpt lat="43.38712" lon="6.72886">
        <ele>6</ele>
        <time>2023-05-16T13:53:37Z</time>
      </trkpt>
      <trkpt lat="43.38713" lon="6.72885">
        <ele>5.9</ele>
        <time>2023-05-16T13:53:38Z</time>
      </trkpt>
      <trkpt lat="43.38713" lon="6.72884">
        <ele>5.9</ele>
        <time>2023-05-16T13:53:39Z</time>
      </trkpt>
      <trkpt lat="43.38713" lon="6.72883">
        <ele>5.9</ele>
        <time>2023-05-16T13:53:40Z</time>
      </trkpt>
      <trkpt lat="43.38713" lon="6.72881">
        <ele>5.9</ele>
        <time>2023-05-16T13:53:42Z</time>
      </trkpt>
      <trkpt lat="43.38714" lon="6.7288">
        <ele>5.8</ele>
        <time>2023-05-16T13:53:43Z</time>
      </trkpt>
      <trkpt lat="43.38714" lon="6.72879">
        <ele>5.8</ele>
        <time>2023-05-16T13:53:44Z</time>
      </trkpt>
      <trkpt lat="43.38714" lon="6.72879">
        <ele>5.8</ele>
        <time>2023-05-16T13:53:45Z</time>
      </trkpt>
      <trkpt lat="43.38714" lon="6.72878">
        <ele>5.8</ele>
        <time>2023-05-16T13:53:46Z</time>
      </trkpt>
      <trkpt lat="43.38715" lon="6.72877">
        <ele>5.8</ele>
        <time>2023-05-16T13:53:47Z</time>
      </trkpt>
      <trkpt lat="43.38716" lon="6.72875">
        <ele>5.8</ele>
        <time>2023-05-16T13:53:49Z</time>
      </trkpt>
      <trkpt lat="43.38716" lon="6.72874">
        <ele>5.8</ele>
        <time>2023-05-16T13:53:50Z</time>
      </trkpt>
      <trkpt lat="43.38716" lon="6.72873">
        <ele>5.8</ele>
        <time>2023-05-16T13:53:51Z</time>
      </trkpt>
      <trkpt lat="43.38716" lon="6.72872">
        <ele>5.8</ele>
        <time>2023-05-16T13:53:52Z</time>
      </trkpt>
      <trkpt lat="43.38717" lon="6.7287">
        <ele>5.8</ele>
        <time>2023-05-16T13:53:53Z</time>
      </trkpt>
      <trkpt lat="43.38717" lon="6.7287">
        <ele>5.8</ele>
        <time>2023-05-16T13:53:54Z</time>
      </trkpt>
      <trkpt lat="43.38716" lon="6.72867">
        <ele>5.8</ele>
        <time>2023-05-16T13:53:55Z</time>
      </trkpt>
      <trkpt lat="43.38716" lon="6.72866">
        <ele>5.8</ele>
        <time>2023-05-16T13:53:56Z</time>
      </trkpt>
      <trkpt lat="43.38716" lon="6.72865">
        <ele>5.8</ele>
        <time>2023-05-16T13:53:58Z</time>
      </trkpt>
      <trkpt lat="43.38716" lon="6.72863">
        <ele>5.8</ele>
        <time>2023-05-16T13:53:59Z</time>
      </trkpt>
      <trkpt lat="43.38716" lon="6.72862">
        <ele>5.8</ele>
        <time>2023-05-16T13:54:01Z</time>
      </trkpt>
      <trkpt lat="43.38716" lon="6.7286">
        <ele>5.8</ele>
        <time>2023-05-16T13:54:02Z</time>
      </trkpt>
      <trkpt lat="43.38716" lon="6.72859">
        <ele>5.8</ele>
        <time>2023-05-16T13:54:03Z</time>
      </trkpt>
      <trkpt lat="43.38715" lon="6.72858">
        <ele>5.8</ele>
        <time>2023-05-16T13:54:04Z</time>
      </trkpt>
      <trkpt lat="43.38714" lon="6.72856">
        <ele>5.8</ele>
        <time>2023-05-16T13:54:05Z</time>
      </trkpt>
      <trkpt lat="43.38713" lon="6.72854">
        <ele>5.8</ele>
        <time>2023-05-16T13:54:06Z</time>
      </trkpt>
      <trkpt lat="43.38713" lon="6.72853">
        <ele>5.8</ele>
        <time>2023-05-16T13:54:08Z</time>
      </trkpt>
      <trkpt lat="43.38712" lon="6.72852">
        <ele>5.9</ele>
        <time>2023-05-16T13:54:09Z</time>
      </trkpt>
      <trkpt lat="43.38712" lon="6.72851">
        <ele>5.9</ele>
        <time>2023-05-16T13:54:10Z</time>
      </trkpt>
      <trkpt lat="43.38712" lon="6.7285">
        <ele>5.9</ele>
        <time>2023-05-16T13:54:12Z</time>
      </trkpt>
      <trkpt lat="43.38712" lon="6.72847">
        <ele>5.9</ele>
        <time>2023-05-16T13:54:14Z</time>
      </trkpt>
      <trkpt lat="43.38711" lon="6.72847">
        <ele>5.9</ele>
        <time>2023-05-16T13:54:15Z</time>
      </trkpt>
      <trkpt lat="43.3871" lon="6.72847">
        <ele>5.9</ele>
        <time>2023-05-16T13:54:16Z</time>
      </trkpt>
      <trkpt lat="43.3871" lon="6.72848">
        <ele>5.9</ele>
        <time>2023-05-16T13:54:17Z</time>
      </trkpt>
      <trkpt lat="43.38709" lon="6.72848">
        <ele>5.9</ele>
        <time>2023-05-16T13:54:18Z</time>
      </trkpt>
      <trkpt lat="43.38708" lon="6.72849">
        <ele>5.9</ele>
        <time>2023-05-16T13:54:19Z</time>
      </trkpt>
      <trkpt lat="43.38707" lon="6.72848">
        <ele>5.9</ele>
        <time>2023-05-16T13:54:21Z</time>
      </trkpt>
      <trkpt lat="43.38706" lon="6.72847">
        <ele>5.9</ele>
        <time>2023-05-16T13:54:22Z</time>
      </trkpt>
      <trkpt lat="43.38706" lon="6.72846">
        <ele>5.9</ele>
        <time>2023-05-16T13:54:23Z</time>
      </trkpt>
      <trkpt lat="43.38706" lon="6.72844">
        <ele>5.9</ele>
        <time>2023-05-16T13:54:24Z</time>
      </trkpt>
      <trkpt lat="43.38705" lon="6.72844">
        <ele>5.9</ele>
        <time>2023-05-16T13:54:25Z</time>
      </trkpt>
      <trkpt lat="43.38705" lon="6.72843">
        <ele>5.8</ele>
        <time>2023-05-16T13:54:26Z</time>
      </trkpt>
      <trkpt lat="43.38704" lon="6.72843">
        <ele>5.8</ele>
        <time>2023-05-16T13:54:27Z</time>
      </trkpt>
      <trkpt lat="43.38703" lon="6.72844">
        <ele>5.8</ele>
        <time>2023-05-16T13:54:28Z</time>
      </trkpt>
      <trkpt lat="43.38701" lon="6.72845">
        <ele>5.8</ele>
        <time>2023-05-16T13:54:29Z</time>
      </trkpt>
      <trkpt lat="43.387" lon="6.72846">
        <ele>5.8</ele>
        <time>2023-05-16T13:54:31Z</time>
      </trkpt>
      <trkpt lat="43.387" lon="6.72849">
        <ele>5.8</ele>
        <time>2023-05-16T13:54:32Z</time>
      </trkpt>
      <trkpt lat="43.387" lon="6.72851">
        <ele>5.8</ele>
        <time>2023-05-16T13:54:33Z</time>
      </trkpt>
      <trkpt lat="43.387" lon="6.72853">
        <ele>5.8</ele>
        <time>2023-05-16T13:54:34Z</time>
      </trkpt>
      <trkpt lat="43.387" lon="6.72855">
        <ele>5.8</ele>
        <time>2023-05-16T13:54:35Z</time>
      </trkpt>
      <trkpt lat="43.387" lon="6.72856">
        <ele>5.8</ele>
        <time>2023-05-16T13:54:36Z</time>
      </trkpt>
      <trkpt lat="43.387" lon="6.72858">
        <ele>5.8</ele>
        <time>2023-05-16T13:54:37Z</time>
      </trkpt>
      <trkpt lat="43.387" lon="6.7286">
        <ele>5.8</ele>
        <time>2023-05-16T13:54:39Z</time>
      </trkpt>
      <trkpt lat="43.38699" lon="6.72861">
        <ele>5.8</ele>
        <time>2023-05-16T13:54:40Z</time>
      </trkpt>
      <trkpt lat="43.38699" lon="6.72862">
        <ele>5.8</ele>
        <time>2023-05-16T13:54:41Z</time>
      </trkpt>
      <trkpt lat="43.38699" lon="6.72863">
        <ele>5.8</ele>
        <time>2023-05-16T13:54:42Z</time>
      </trkpt>
      <trkpt lat="43.38698" lon="6.72865">
        <ele>5.8</ele>
        <time>2023-05-16T13:54:43Z</time>
      </trkpt>
      <trkpt lat="43.38698" lon="6.72867">
        <ele>5.8</ele>
        <time>2023-05-16T13:54:44Z</time>
      </trkpt>
      <trkpt lat="43.38697" lon="6.72868">
        <ele>5.8</ele>
        <time>2023-05-16T13:54:45Z</time>
      </trkpt>
      <trkpt lat="43.38697" lon="6.72869">
        <ele>5.7</ele>
        <time>2023-05-16T13:54:46Z</time>
      </trkpt>
      <trkpt lat="43.38696" lon="6.7287">
        <ele>5.7</ele>
        <time>2023-05-16T13:54:48Z</time>
      </trkpt>
      <trkpt lat="43.38696" lon="6.72871">
        <ele>5.7</ele>
        <time>2023-05-16T13:54:49Z</time>
      </trkpt>
      <trkpt lat="43.38696" lon="6.72871">
        <ele>5.7</ele>
        <time>2023-05-16T13:54:50Z</time>
      </trkpt>
      <trkpt lat="43.38696" lon="6.72871">
        <ele>5.7</ele>
        <time>2023-05-16T13:54:51Z</time>
      </trkpt>
      <trkpt lat="43.38696" lon="6.72871">
        <ele>5.7</ele>
        <time>2023-05-16T13:54:52Z</time>
      </trkpt>
      <trkpt lat="43.38695" lon="6.72872">
        <ele>5.7</ele>
        <time>2023-05-16T13:54:54Z</time>
      </trkpt>
      <trkpt lat="43.38694" lon="6.72872">
        <ele>5.7</ele>
        <time>2023-05-16T13:54:55Z</time>
      </trkpt>
      <trkpt lat="43.38693" lon="6.72874">
        <ele>5.7</ele>
        <time>2023-05-16T13:54:56Z</time>
      </trkpt>
      <trkpt lat="43.38692" lon="6.72875">
        <ele>5.7</ele>
        <time>2023-05-16T13:54:57Z</time>
      </trkpt>
      <trkpt lat="43.38691" lon="6.72876">
        <ele>5.8</ele>
        <time>2023-05-16T13:54:58Z</time>
      </trkpt>
      <trkpt lat="43.3869" lon="6.72877">
        <ele>5.8</ele>
        <time>2023-05-16T13:54:59Z</time>
      </trkpt>
      <trkpt lat="43.38689" lon="6.72878">
        <ele>5.8</ele>
        <time>2023-05-16T13:55:00Z</time>
      </trkpt>
      <trkpt lat="43.38687" lon="6.72879">
        <ele>5.8</ele>
        <time>2023-05-16T13:55:01Z</time>
      </trkpt>
      <trkpt lat="43.38686" lon="6.72879">
        <ele>5.8</ele>
        <time>2023-05-16T13:55:03Z</time>
      </trkpt>
      <trkpt lat="43.38685" lon="6.72879">
        <ele>5.8</ele>
        <time>2023-05-16T13:55:04Z</time>
      </trkpt>
      <trkpt lat="43.38684" lon="6.7288">
        <ele>5.8</ele>
        <time>2023-05-16T13:55:05Z</time>
      </trkpt>
      <trkpt lat="43.38684" lon="6.72882">
        <ele>5.8</ele>
        <time>2023-05-16T13:55:06Z</time>
      </trkpt>
      <trkpt lat="43.38684" lon="6.72885">
        <ele>5.9</ele>
        <time>2023-05-16T13:55:08Z</time>
      </trkpt>
      <trkpt lat="43.38685" lon="6.72887">
        <ele>5.9</ele>
        <time>2023-05-16T13:55:10Z</time>
      </trkpt>
      <trkpt lat="43.38686" lon="6.72887">
        <ele>5.9</ele>
        <time>2023-05-16T13:55:11Z</time>
      </trkpt>
      <trkpt lat="43.38686" lon="6.72888">
        <ele>5.9</ele>
        <time>2023-05-16T13:55:12Z</time>
      </trkpt>
      <trkpt lat="43.38687" lon="6.72889">
        <ele>6</ele>
        <time>2023-05-16T13:55:13Z</time>
      </trkpt>
      <trkpt lat="43.38687" lon="6.72891">
        <ele>6</ele>
        <time>2023-05-16T13:55:15Z</time>
      </trkpt>
      <trkpt lat="43.38688" lon="6.72892">
        <ele>6</ele>
        <time>2023-05-16T13:55:16Z</time>
      </trkpt>
      <trkpt lat="43.38688" lon="6.72892">
        <ele>6</ele>
        <time>2023-05-16T13:55:17Z</time>
      </trkpt>
      <trkpt lat="43.38688" lon="6.72892">
        <ele>6</ele>
        <time>2023-05-16T13:55:19Z</time>
      </trkpt>
      <trkpt lat="43.38688" lon="6.72892">
        <ele>6</ele>
        <time>2023-05-16T13:55:20Z</time>
      </trkpt>
      <trkpt lat="43.38688" lon="6.72892">
        <ele>6.1</ele>
        <time>2023-05-16T13:55:21Z</time>
      </trkpt>
      <trkpt lat="43.38687" lon="6.72893">
        <ele>6.1</ele>
        <time>2023-05-16T13:55:23Z</time>
      </trkpt>
      <trkpt lat="43.38686" lon="6.72894">
        <ele>6.1</ele>
        <time>2023-05-16T13:55:24Z</time>
      </trkpt>
      <trkpt lat="43.38685" lon="6.72894">
        <ele>6.1</ele>
        <time>2023-05-16T13:55:25Z</time>
      </trkpt>
      <trkpt lat="43.38684" lon="6.72893">
        <ele>6.2</ele>
        <time>2023-05-16T13:55:26Z</time>
      </trkpt>
      <trkpt lat="43.38683" lon="6.72891">
        <ele>6.2</ele>
        <time>2023-05-16T13:55:27Z</time>
      </trkpt>
      <trkpt lat="43.38683" lon="6.72891">
        <ele>6.2</ele>
        <time>2023-05-16T13:55:29Z</time>
      </trkpt>
      <trkpt lat="43.38682" lon="6.72891">
        <ele>6.2</ele>
        <time>2023-05-16T13:55:30Z</time>
      </trkpt>
      <trkpt lat="43.38682" lon="6.7289">
        <ele>6.2</ele>
        <time>2023-05-16T13:55:32Z</time>
      </trkpt>
      <trkpt lat="43.38682" lon="6.7289">
        <ele>6.2</ele>
        <time>2023-05-16T13:55:33Z</time>
      </trkpt>
      <trkpt lat="43.38682" lon="6.7289">
        <ele>6.2</ele>
        <time>2023-05-16T13:55:34Z</time>
      </trkpt>
      <trkpt lat="43.38683" lon="6.7289">
        <ele>6.2</ele>
        <time>2023-05-16T13:55:35Z</time>
      </trkpt>
      <trkpt lat="43.38682" lon="6.72889">
        <ele>6.3</ele>
        <time>2023-05-16T13:55:37Z</time>
      </trkpt>
      <trkpt lat="43.38683" lon="6.72888">
        <ele>6.3</ele>
        <time>2023-05-16T13:55:38Z</time>
      </trkpt>
      <trkpt lat="43.38682" lon="6.72887">
        <ele>6.3</ele>
        <time>2023-05-16T13:55:39Z</time>
      </trkpt>
      <trkpt lat="43.38682" lon="6.72885">
        <ele>6.3</ele>
        <time>2023-05-16T13:55:40Z</time>
      </trkpt>
      <trkpt lat="43.3868" lon="6.72884">
        <ele>6.4</ele>
        <time>2023-05-16T13:55:41Z</time>
      </trkpt>
      <trkpt lat="43.3868" lon="6.72883">
        <ele>6.4</ele>
        <time>2023-05-16T13:55:42Z</time>
      </trkpt>
      <trkpt lat="43.3868" lon="6.72882">
        <ele>6.4</ele>
        <time>2023-05-16T13:55:43Z</time>
      </trkpt>
      <trkpt lat="43.38678" lon="6.7288">
        <ele>6.5</ele>
        <time>2023-05-16T13:55:44Z</time>
      </trkpt>
      <trkpt lat="43.38677" lon="6.72879">
        <ele>6.5</ele>
        <time>2023-05-16T13:55:45Z</time>
      </trkpt>
      <trkpt lat="43.38676" lon="6.72878">
        <ele>6.5</ele>
        <time>2023-05-16T13:55:47Z</time>
      </trkpt>
      <trkpt lat="43.38674" lon="6.72877">
        <ele>6.6</ele>
        <time>2023-05-16T13:55:48Z</time>
      </trkpt>
      <trkpt lat="43.38672" lon="6.72875">
        <ele>6.6</ele>
        <time>2023-05-16T13:55:49Z</time>
      </trkpt>
      <trkpt lat="43.38671" lon="6.72875">
        <ele>6.6</ele>
        <time>2023-05-16T13:55:50Z</time>
      </trkpt>
      <trkpt lat="43.3867" lon="6.72874">
        <ele>6.6</ele>
        <time>2023-05-16T13:55:51Z</time>
      </trkpt>
      <trkpt lat="43.38669" lon="6.72873">
        <ele>6.7</ele>
        <time>2023-05-16T13:55:52Z</time>
      </trkpt>
      <trkpt lat="43.38668" lon="6.72872">
        <ele>6.7</ele>
        <time>2023-05-16T13:55:53Z</time>
      </trkpt>
      <trkpt lat="43.38667" lon="6.7287">
        <ele>6.7</ele>
        <time>2023-05-16T13:55:54Z</time>
      </trkpt>
      <trkpt lat="43.38666" lon="6.72868">
        <ele>6.7</ele>
        <time>2023-05-16T13:55:55Z</time>
      </trkpt>
      <trkpt lat="43.38665" lon="6.72867">
        <ele>6.7</ele>
        <time>2023-05-16T13:55:57Z</time>
      </trkpt>
      <trkpt lat="43.38664" lon="6.72866">
        <ele>6.8</ele>
        <time>2023-05-16T13:55:58Z</time>
      </trkpt>
      <trkpt lat="43.38663" lon="6.72865">
        <ele>6.8</ele>
        <time>2023-05-16T13:55:59Z</time>
      </trkpt>
      <trkpt lat="43.38662" lon="6.72865">
        <ele>6.8</ele>
        <time>2023-05-16T13:56:00Z</time>
      </trkpt>
      <trkpt lat="43.38661" lon="6.72864">
        <ele>6.8</ele>
        <time>2023-05-16T13:56:01Z</time>
      </trkpt>
      <trkpt lat="43.3866" lon="6.72864">
        <ele>6.8</ele>
        <time>2023-05-16T13:56:02Z</time>
      </trkpt>
      <trkpt lat="43.38658" lon="6.72864">
        <ele>6.9</ele>
        <time>2023-05-16T13:56:03Z</time>
      </trkpt>
      <trkpt lat="43.38657" lon="6.72864">
        <ele>6.9</ele>
        <time>2023-05-16T13:56:04Z</time>
      </trkpt>
      <trkpt lat="43.38656" lon="6.72864">
        <ele>6.9</ele>
        <time>2023-05-16T13:56:05Z</time>
      </trkpt>
      <trkpt lat="43.38654" lon="6.72864">
        <ele>6.9</ele>
        <time>2023-05-16T13:56:06Z</time>
      </trkpt>
      <trkpt lat="43.38654" lon="6.72864">
        <ele>6.9</ele>
        <time>2023-05-16T13:56:07Z</time>
      </trkpt>
      <trkpt lat="43.38653" lon="6.72863">
        <ele>6.9</ele>
        <time>2023-05-16T13:56:09Z</time>
      </trkpt>
      <trkpt lat="43.38652" lon="6.72863">
        <ele>7</ele>
        <time>2023-05-16T13:56:10Z</time>
      </trkpt>
      <trkpt lat="43.38651" lon="6.72863">
        <ele>7</ele>
        <time>2023-05-16T13:56:11Z</time>
      </trkpt>
      <trkpt lat="43.38651" lon="6.72862">
        <ele>7</ele>
        <time>2023-05-16T13:56:12Z</time>
      </trkpt>
      <trkpt lat="43.3865" lon="6.72862">
        <ele>7</ele>
        <time>2023-05-16T13:56:13Z</time>
      </trkpt>
      <trkpt lat="43.3865" lon="6.7286">
        <ele>7</ele>
        <time>2023-05-16T13:56:14Z</time>
      </trkpt>
      <trkpt lat="43.38649" lon="6.72858">
        <ele>7</ele>
        <time>2023-05-16T13:56:15Z</time>
      </trkpt>
      <trkpt lat="43.3865" lon="6.72855">
        <ele>7.1</ele>
        <time>2023-05-16T13:56:16Z</time>
      </trkpt>
      <trkpt lat="43.3865" lon="6.72854">
        <ele>7.1</ele>
        <time>2023-05-16T13:56:18Z</time>
      </trkpt>
      <trkpt lat="43.3865" lon="6.72852">
        <ele>7.1</ele>
        <time>2023-05-16T13:56:19Z</time>
      </trkpt>
      <trkpt lat="43.38651" lon="6.72851">
        <ele>7.1</ele>
        <time>2023-05-16T13:56:20Z</time>
      </trkpt>
      <trkpt lat="43.38652" lon="6.72849">
        <ele>7.1</ele>
        <time>2023-05-16T13:56:21Z</time>
      </trkpt>
      <trkpt lat="43.38653" lon="6.72847">
        <ele>7.1</ele>
        <time>2023-05-16T13:56:22Z</time>
      </trkpt>
      <trkpt lat="43.38654" lon="6.72846">
        <ele>7.1</ele>
        <time>2023-05-16T13:56:23Z</time>
      </trkpt>
      <trkpt lat="43.38654" lon="6.72845">
        <ele>7.1</ele>
        <time>2023-05-16T13:56:24Z</time>
      </trkpt>
      <trkpt lat="43.38655" lon="6.72843">
        <ele>7.1</ele>
        <time>2023-05-16T13:56:25Z</time>
      </trkpt>
      <trkpt lat="43.38656" lon="6.72841">
        <ele>7.1</ele>
        <time>2023-05-16T13:56:26Z</time>
      </trkpt>
      <trkpt lat="43.38655" lon="6.72839">
        <ele>7.1</ele>
        <time>2023-05-16T13:56:27Z</time>
      </trkpt>
      <trkpt lat="43.38654" lon="6.72838">
        <ele>7.1</ele>
        <time>2023-05-16T13:56:28Z</time>
      </trkpt>
      <trkpt lat="43.38653" lon="6.72837">
        <ele>7.1</ele>
        <time>2023-05-16T13:56:30Z</time>
      </trkpt>
      <trkpt lat="43.38651" lon="6.72836">
        <ele>7.1</ele>
        <time>2023-05-16T13:56:31Z</time>
      </trkpt>
      <trkpt lat="43.3865" lon="6.72836">
        <ele>7.1</ele>
        <time>2023-05-16T13:56:32Z</time>
      </trkpt>
      <trkpt lat="43.38649" lon="6.72835">
        <ele>7</ele>
        <time>2023-05-16T13:56:33Z</time>
      </trkpt>
      <trkpt lat="43.38648" lon="6.72834">
        <ele>7</ele>
        <time>2023-05-16T13:56:34Z</time>
      </trkpt>
      <trkpt lat="43.38647" lon="6.72831">
        <ele>7</ele>
        <time>2023-05-16T13:56:35Z</time>
      </trkpt>
      <trkpt lat="43.38646" lon="6.7283">
        <ele>6.9</ele>
        <time>2023-05-16T13:56:37Z</time>
      </trkpt>
      <trkpt lat="43.38646" lon="6.72828">
        <ele>6.9</ele>
        <time>2023-05-16T13:56:39Z</time>
      </trkpt>
      <trkpt lat="43.38645" lon="6.72826">
        <ele>6.8</ele>
        <time>2023-05-16T13:56:40Z</time>
      </trkpt>
      <trkpt lat="43.38645" lon="6.72824">
        <ele>6.8</ele>
        <time>2023-05-16T13:56:41Z</time>
      </trkpt>
      <trkpt lat="43.38644" lon="6.72824">
        <ele>6.8</ele>
        <time>2023-05-16T13:56:42Z</time>
      </trkpt>
      <trkpt lat="43.38643" lon="6.72824">
        <ele>6.7</ele>
        <time>2023-05-16T13:56:44Z</time>
      </trkpt>
      <trkpt lat="43.38644" lon="6.72825">
        <ele>6.7</ele>
        <time>2023-05-16T13:56:45Z</time>
      </trkpt>
      <trkpt lat="43.38644" lon="6.72826">
        <ele>6.7</ele>
        <time>2023-05-16T13:56:46Z</time>
      </trkpt>
      <trkpt lat="43.38644" lon="6.72827">
        <ele>6.6</ele>
        <time>2023-05-16T13:56:47Z</time>
      </trkpt>
      <trkpt lat="43.38644" lon="6.72827">
        <ele>6.6</ele>
        <time>2023-05-16T13:56:48Z</time>
      </trkpt>
      <trkpt lat="43.38644" lon="6.72828">
        <ele>6.6</ele>
        <time>2023-05-16T13:56:49Z</time>
      </trkpt>
      <trkpt lat="43.38643" lon="6.72827">
        <ele>6.6</ele>
        <time>2023-05-16T13:56:50Z</time>
      </trkpt>
      <trkpt lat="43.38642" lon="6.72826">
        <ele>6.5</ele>
        <time>2023-05-16T13:56:51Z</time>
      </trkpt>
      <trkpt lat="43.38641" lon="6.72823">
        <ele>6.4</ele>
        <time>2023-05-16T13:56:53Z</time>
      </trkpt>
      <trkpt lat="43.38641" lon="6.72821">
        <ele>6.4</ele>
        <time>2023-05-16T13:56:54Z</time>
      </trkpt>
      <trkpt lat="43.3864" lon="6.72819">
        <ele>6.3</ele>
        <time>2023-05-16T13:56:55Z</time>
      </trkpt>
      <trkpt lat="43.3864" lon="6.72815">
        <ele>6.2</ele>
        <time>2023-05-16T13:56:56Z</time>
      </trkpt>
      <trkpt lat="43.38639" lon="6.72813">
        <ele>6.1</ele>
        <time>2023-05-16T13:56:57Z</time>
      </trkpt>
      <trkpt lat="43.3864" lon="6.7281">
        <ele>6</ele>
        <time>2023-05-16T13:56:58Z</time>
      </trkpt>
      <trkpt lat="43.3864" lon="6.72809">
        <ele>6</ele>
        <time>2023-05-16T13:57:00Z</time>
      </trkpt>
      <trkpt lat="43.3864" lon="6.72808">
        <ele>5.9</ele>
        <time>2023-05-16T13:57:01Z</time>
      </trkpt>
      <trkpt lat="43.3864" lon="6.72806">
        <ele>5.9</ele>
        <time>2023-05-16T13:57:02Z</time>
      </trkpt>
      <trkpt lat="43.38641" lon="6.72804">
        <ele>5.8</ele>
        <time>2023-05-16T13:57:03Z</time>
      </trkpt>
      <trkpt lat="43.38642" lon="6.72801">
        <ele>5.8</ele>
        <time>2023-05-16T13:57:04Z</time>
      </trkpt>
      <trkpt lat="43.38642" lon="6.728">
        <ele>5.7</ele>
        <time>2023-05-16T13:57:05Z</time>
      </trkpt>
      <trkpt lat="43.38642" lon="6.72799">
        <ele>5.7</ele>
        <time>2023-05-16T13:57:06Z</time>
      </trkpt>
      <trkpt lat="43.38641" lon="6.72796">
        <ele>5.6</ele>
        <time>2023-05-16T13:57:07Z</time>
      </trkpt>
      <trkpt lat="43.3864" lon="6.72796">
        <ele>5.6</ele>
        <time>2023-05-16T13:57:08Z</time>
      </trkpt>
      <trkpt lat="43.38639" lon="6.72795">
        <ele>5.6</ele>
        <time>2023-05-16T13:57:09Z</time>
      </trkpt>
      <trkpt lat="43.38637" lon="6.72796">
        <ele>5.5</ele>
        <time>2023-05-16T13:57:11Z</time>
      </trkpt>
      <trkpt lat="43.38637" lon="6.72798">
        <ele>5.5</ele>
        <time>2023-05-16T13:57:12Z</time>
      </trkpt>
      <trkpt lat="43.38636" lon="6.72801">
        <ele>5.4</ele>
        <time>2023-05-16T13:57:13Z</time>
      </trkpt>
      <trkpt lat="43.38636" lon="6.72802">
        <ele>5.4</ele>
        <time>2023-05-16T13:57:14Z</time>
      </trkpt>
      <trkpt lat="43.38635" lon="6.72803">
        <ele>5.3</ele>
        <time>2023-05-16T13:57:15Z</time>
      </trkpt>
      <trkpt lat="43.38634" lon="6.72804">
        <ele>5.3</ele>
        <time>2023-05-16T13:57:16Z</time>
      </trkpt>
      <trkpt lat="43.38633" lon="6.72804">
        <ele>5.3</ele>
        <time>2023-05-16T13:57:17Z</time>
      </trkpt>
      <trkpt lat="43.38632" lon="6.72803">
        <ele>5.2</ele>
        <time>2023-05-16T13:57:18Z</time>
      </trkpt>
      <trkpt lat="43.38632" lon="6.72801">
        <ele>5.2</ele>
        <time>2023-05-16T13:57:20Z</time>
      </trkpt>
      <trkpt lat="43.38631" lon="6.728">
        <ele>5.1</ele>
        <time>2023-05-16T13:57:21Z</time>
      </trkpt>
      <trkpt lat="43.38631" lon="6.72798">
        <ele>5.1</ele>
        <time>2023-05-16T13:57:22Z</time>
      </trkpt>
      <trkpt lat="43.3863" lon="6.72796">
        <ele>5</ele>
        <time>2023-05-16T13:57:23Z</time>
      </trkpt>
      <trkpt lat="43.38629" lon="6.72793">
        <ele>4.9</ele>
        <time>2023-05-16T13:57:24Z</time>
      </trkpt>
      <trkpt lat="43.38629" lon="6.72792">
        <ele>4.9</ele>
        <time>2023-05-16T13:57:25Z</time>
      </trkpt>
      <trkpt lat="43.38629" lon="6.72791">
        <ele>4.9</ele>
        <time>2023-05-16T13:57:26Z</time>
      </trkpt>
      <trkpt lat="43.38628" lon="6.72788">
        <ele>4.8</ele>
        <time>2023-05-16T13:57:27Z</time>
      </trkpt>
      <trkpt lat="43.38627" lon="6.72787">
        <ele>4.7</ele>
        <time>2023-05-16T13:57:28Z</time>
      </trkpt>
      <trkpt lat="43.38626" lon="6.72786">
        <ele>4.7</ele>
        <time>2023-05-16T13:57:29Z</time>
      </trkpt>
      <trkpt lat="43.38625" lon="6.72785">
        <ele>4.7</ele>
        <time>2023-05-16T13:57:30Z</time>
      </trkpt>
      <trkpt lat="43.38624" lon="6.72784">
        <ele>4.6</ele>
        <time>2023-05-16T13:57:32Z</time>
      </trkpt>
      <trkpt lat="43.38623" lon="6.72783">
        <ele>4.6</ele>
        <time>2023-05-16T13:57:33Z</time>
      </trkpt>
      <trkpt lat="43.38622" lon="6.72783">
        <ele>4.5</ele>
        <time>2023-05-16T13:57:34Z</time>
      </trkpt>
      <trkpt lat="43.38622" lon="6.72784">
        <ele>4.5</ele>
        <time>2023-05-16T13:57:35Z</time>
      </trkpt>
      <trkpt lat="43.38621" lon="6.72785">
        <ele>4.5</ele>
        <time>2023-05-16T13:57:37Z</time>
      </trkpt>
      <trkpt lat="43.38621" lon="6.72786">
        <ele>4.5</ele>
        <time>2023-05-16T13:57:38Z</time>
      </trkpt>
      <trkpt lat="43.38622" lon="6.72786">
        <ele>4.5</ele>
        <time>2023-05-16T13:57:39Z</time>
      </trkpt>
      <trkpt lat="43.38622" lon="6.72786">
        <ele>4.5</ele>
        <time>2023-05-16T13:57:41Z</time>
      </trkpt>
      <trkpt lat="43.38621" lon="6.72786">
        <ele>4.5</ele>
        <time>2023-05-16T13:57:42Z</time>
      </trkpt>
      <trkpt lat="43.38621" lon="6.72786">
        <ele>4.4</ele>
        <time>2023-05-16T13:57:43Z</time>
      </trkpt>
      <trkpt lat="43.3862" lon="6.72786">
        <ele>4.4</ele>
        <time>2023-05-16T13:57:44Z</time>
      </trkpt>
      <trkpt lat="43.38619" lon="6.72786">
        <ele>4.4</ele>
        <time>2023-05-16T13:57:45Z</time>
      </trkpt>
      <trkpt lat="43.38618" lon="6.72786">
        <ele>4.4</ele>
        <time>2023-05-16T13:57:46Z</time>
      </trkpt>
      <trkpt lat="43.38618" lon="6.72785">
        <ele>4.4</ele>
        <time>2023-05-16T13:57:47Z</time>
      </trkpt>
      <trkpt lat="43.38617" lon="6.72785">
        <ele>4.3</ele>
        <time>2023-05-16T13:57:48Z</time>
      </trkpt>
      <trkpt lat="43.38616" lon="6.72785">
        <ele>4.3</ele>
        <time>2023-05-16T13:57:49Z</time>
      </trkpt>
      <trkpt lat="43.38615" lon="6.72785">
        <ele>4.3</ele>
        <time>2023-05-16T13:57:50Z</time>
      </trkpt>
      <trkpt lat="43.38614" lon="6.72784">
        <ele>4.3</ele>
        <time>2023-05-16T13:57:52Z</time>
      </trkpt>
      <trkpt lat="43.38613" lon="6.72784">
        <ele>4.2</ele>
        <time>2023-05-16T13:57:53Z</time>
      </trkpt>
      <trkpt lat="43.38612" lon="6.72784">
        <ele>4.2</ele>
        <time>2023-05-16T13:57:54Z</time>
      </trkpt>
      <trkpt lat="43.3861" lon="6.72784">
        <ele>4.2</ele>
        <time>2023-05-16T13:57:56Z</time>
      </trkpt>
      <trkpt lat="43.3861" lon="6.72784">
        <ele>4.2</ele>
        <time>2023-05-16T13:57:57Z</time>
      </trkpt>
      <trkpt lat="43.38609" lon="6.72784">
        <ele>4.2</ele>
        <time>2023-05-16T13:57:58Z</time>
      </trkpt>
      <trkpt lat="43.38608" lon="6.72784">
        <ele>4.2</ele>
        <time>2023-05-16T13:57:59Z</time>
      </trkpt>
      <trkpt lat="43.38606" lon="6.72784">
        <ele>4.2</ele>
        <time>2023-05-16T13:58:00Z</time>
      </trkpt>
      <trkpt lat="43.38604" lon="6.72784">
        <ele>4.2</ele>
        <time>2023-05-16T13:58:02Z</time>
      </trkpt>
      <trkpt lat="43.38603" lon="6.72784">
        <ele>4.2</ele>
        <time>2023-05-16T13:58:04Z</time>
      </trkpt>
      <trkpt lat="43.38602" lon="6.72783">
        <ele>4.2</ele>
        <time>2023-05-16T13:58:05Z</time>
      </trkpt>
      <trkpt lat="43.38601" lon="6.72783">
        <ele>4.2</ele>
        <time>2023-05-16T13:58:06Z</time>
      </trkpt>
      <trkpt lat="43.386" lon="6.72783">
        <ele>4.2</ele>
        <time>2023-05-16T13:58:07Z</time>
      </trkpt>
      <trkpt lat="43.38599" lon="6.72784">
        <ele>4.2</ele>
        <time>2023-05-16T13:58:08Z</time>
      </trkpt>
      <trkpt lat="43.38598" lon="6.72784">
        <ele>4.2</ele>
        <time>2023-05-16T13:58:10Z</time>
      </trkpt>
      <trkpt lat="43.38597" lon="6.72783">
        <ele>4.2</ele>
        <time>2023-05-16T13:58:11Z</time>
      </trkpt>
      <trkpt lat="43.38596" lon="6.72783">
        <ele>4.2</ele>
        <time>2023-05-16T13:58:12Z</time>
      </trkpt>
      <trkpt lat="43.38595" lon="6.72783">
        <ele>4.2</ele>
        <time>2023-05-16T13:58:13Z</time>
      </trkpt>
      <trkpt lat="43.38595" lon="6.72784">
        <ele>4.2</ele>
        <time>2023-05-16T13:58:14Z</time>
      </trkpt>
      <trkpt lat="43.38594" lon="6.72784">
        <ele>4.2</ele>
        <time>2023-05-16T13:58:15Z</time>
      </trkpt>
      <trkpt lat="43.38593" lon="6.72784">
        <ele>4.2</ele>
        <time>2023-05-16T13:58:16Z</time>
      </trkpt>
      <trkpt lat="43.38592" lon="6.72784">
        <ele>4.3</ele>
        <time>2023-05-16T13:58:17Z</time>
      </trkpt>
      <trkpt lat="43.38591" lon="6.72783">
        <ele>4.3</ele>
        <time>2023-05-16T13:58:19Z</time>
      </trkpt>
      <trkpt lat="43.3859" lon="6.72783">
        <ele>4.3</ele>
        <time>2023-05-16T13:58:20Z</time>
      </trkpt>
      <trkpt lat="43.3859" lon="6.72781">
        <ele>4.3</ele>
        <time>2023-05-16T13:58:21Z</time>
      </trkpt>
      <trkpt lat="43.38589" lon="6.7278">
        <ele>4.3</ele>
        <time>2023-05-16T13:58:22Z</time>
      </trkpt>
      <trkpt lat="43.38588" lon="6.72779">
        <ele>4.4</ele>
        <time>2023-05-16T13:58:23Z</time>
      </trkpt>
      <trkpt lat="43.38588" lon="6.72777">
        <ele>4.4</ele>
        <time>2023-05-16T13:58:24Z</time>
      </trkpt>
      <trkpt lat="43.38588" lon="6.72776">
        <ele>4.4</ele>
        <time>2023-05-16T13:58:25Z</time>
      </trkpt>
      <trkpt lat="43.38588" lon="6.72775">
        <ele>4.5</ele>
        <time>2023-05-16T13:58:26Z</time>
      </trkpt>
      <trkpt lat="43.38589" lon="6.72774">
        <ele>4.5</ele>
        <time>2023-05-16T13:58:27Z</time>
      </trkpt>
      <trkpt lat="43.38588" lon="6.72772">
        <ele>4.5</ele>
        <time>2023-05-16T13:58:29Z</time>
      </trkpt>
      <trkpt lat="43.38588" lon="6.72771">
        <ele>4.6</ele>
        <time>2023-05-16T13:58:30Z</time>
      </trkpt>
      <trkpt lat="43.38587" lon="6.72771">
        <ele>4.6</ele>
        <time>2023-05-16T13:58:31Z</time>
      </trkpt>
      <trkpt lat="43.38586" lon="6.7277">
        <ele>4.6</ele>
        <time>2023-05-16T13:58:32Z</time>
      </trkpt>
      <trkpt lat="43.38585" lon="6.7277">
        <ele>4.7</ele>
        <time>2023-05-16T13:58:33Z</time>
      </trkpt>
      <trkpt lat="43.38585" lon="6.72769">
        <ele>4.7</ele>
        <time>2023-05-16T13:58:34Z</time>
      </trkpt>
      <trkpt lat="43.38584" lon="6.72768">
        <ele>4.7</ele>
        <time>2023-05-16T13:58:36Z</time>
      </trkpt>
      <trkpt lat="43.38584" lon="6.72767">
        <ele>4.8</ele>
        <time>2023-05-16T13:58:37Z</time>
      </trkpt>
      <trkpt lat="43.38582" lon="6.72767">
        <ele>4.8</ele>
        <time>2023-05-16T13:58:38Z</time>
      </trkpt>
      <trkpt lat="43.38582" lon="6.72767">
        <ele>4.9</ele>
        <time>2023-05-16T13:58:39Z</time>
      </trkpt>
      <trkpt lat="43.38581" lon="6.72768">
        <ele>5</ele>
        <time>2023-05-16T13:58:40Z</time>
      </trkpt>
      <trkpt lat="43.3858" lon="6.72769">
        <ele>5</ele>
        <time>2023-05-16T13:58:41Z</time>
      </trkpt>
      <trkpt lat="43.38579" lon="6.7277">
        <ele>5.1</ele>
        <time>2023-05-16T13:58:42Z</time>
      </trkpt>
      <trkpt lat="43.38578" lon="6.7277">
        <ele>5.1</ele>
        <time>2023-05-16T13:58:43Z</time>
      </trkpt>
      <trkpt lat="43.38577" lon="6.72771">
        <ele>5.2</ele>
        <time>2023-05-16T13:58:44Z</time>
      </trkpt>
      <trkpt lat="43.38576" lon="6.72771">
        <ele>5.2</ele>
        <time>2023-05-16T13:58:46Z</time>
      </trkpt>
      <trkpt lat="43.38576" lon="6.72771">
        <ele>5.3</ele>
        <time>2023-05-16T13:58:47Z</time>
      </trkpt>
      <trkpt lat="43.38574" lon="6.72772">
        <ele>5.3</ele>
        <time>2023-05-16T13:58:48Z</time>
      </trkpt>
      <trkpt lat="43.38574" lon="6.72772">
        <ele>5.4</ele>
        <time>2023-05-16T13:58:49Z</time>
      </trkpt>
      <trkpt lat="43.38573" lon="6.72772">
        <ele>5.4</ele>
        <time>2023-05-16T13:58:50Z</time>
      </trkpt>
      <trkpt lat="43.38571" lon="6.72773">
        <ele>5.5</ele>
        <time>2023-05-16T13:58:52Z</time>
      </trkpt>
      <trkpt lat="43.38571" lon="6.72773">
        <ele>5.5</ele>
        <time>2023-05-16T13:58:53Z</time>
      </trkpt>
      <trkpt lat="43.38571" lon="6.72773">
        <ele>5.5</ele>
        <time>2023-05-16T13:58:54Z</time>
      </trkpt>
      <trkpt lat="43.38572" lon="6.72773">
        <ele>5.5</ele>
        <time>2023-05-16T13:58:56Z</time>
      </trkpt>
      <trkpt lat="43.38572" lon="6.72773">
        <ele>5.5</ele>
        <time>2023-05-16T13:58:57Z</time>
      </trkpt>
      <trkpt lat="43.38572" lon="6.72773">
        <ele>5.5</ele>
        <time>2023-05-16T13:58:58Z</time>
      </trkpt>
      <trkpt lat="43.38572" lon="6.72773">
        <ele>5.5</ele>
        <time>2023-05-16T13:59:00Z</time>
      </trkpt>
      <trkpt lat="43.38572" lon="6.72773">
        <ele>5.5</ele>
        <time>2023-05-16T13:59:01Z</time>
      </trkpt>
      <trkpt lat="43.38572" lon="6.72773">
        <ele>5.5</ele>
        <time>2023-05-16T13:59:02Z</time>
      </trkpt>
      <trkpt lat="43.38572" lon="6.72773">
        <ele>5.6</ele>
        <time>2023-05-16T13:59:04Z</time>
      </trkpt>
      <trkpt lat="43.38572" lon="6.72773">
        <ele>5.6</ele>
        <time>2023-05-16T13:59:05Z</time>
      </trkpt>
      <trkpt lat="43.38572" lon="6.72773">
        <ele>5.6</ele>
        <time>2023-05-16T13:59:06Z</time>
      </trkpt>
      <trkpt lat="43.38572" lon="6.72773">
        <ele>5.6</ele>
        <time>2023-05-16T13:59:07Z</time>
      </trkpt>
      <trkpt lat="43.38571" lon="6.72772">
        <ele>5.6</ele>
        <time>2023-05-16T13:59:09Z</time>
      </trkpt>
      <trkpt lat="43.38572" lon="6.72771">
        <ele>5.7</ele>
        <time>2023-05-16T13:59:10Z</time>
      </trkpt>
      <trkpt lat="43.38572" lon="6.7277">
        <ele>5.7</ele>
        <time>2023-05-16T13:59:11Z</time>
      </trkpt>
      <trkpt lat="43.38573" lon="6.7277">
        <ele>5.7</ele>
        <time>2023-05-16T13:59:12Z</time>
      </trkpt>
      <trkpt lat="43.38573" lon="6.72771">
        <ele>5.8</ele>
        <time>2023-05-16T13:59:13Z</time>
      </trkpt>
      <trkpt lat="43.38571" lon="6.72772">
        <ele>5.9</ele>
        <time>2023-05-16T13:59:15Z</time>
      </trkpt>
      <trkpt lat="43.38571" lon="6.72773">
        <ele>5.9</ele>
        <time>2023-05-16T13:59:16Z</time>
      </trkpt>
      <trkpt lat="43.38571" lon="6.72773">
        <ele>5.9</ele>
        <time>2023-05-16T13:59:17Z</time>
      </trkpt>
      <trkpt lat="43.38572" lon="6.72774">
        <ele>5.9</ele>
        <time>2023-05-16T13:59:19Z</time>
      </trkpt>
      <trkpt lat="43.38572" lon="6.72774">
        <ele>5.9</ele>
        <time>2023-05-16T13:59:20Z</time>
      </trkpt>
      <trkpt lat="43.38572" lon="6.72774">
        <ele>5.9</ele>
        <time>2023-05-16T13:59:21Z</time>
      </trkpt>
      <trkpt lat="43.38572" lon="6.72774">
        <ele>5.9</ele>
        <time>2023-05-16T13:59:23Z</time>
      </trkpt>
      <trkpt lat="43.38572" lon="6.72774">
        <ele>5.9</ele>
        <time>2023-05-16T13:59:24Z</time>
      </trkpt>
      <trkpt lat="43.38572" lon="6.72774">
        <ele>6</ele>
        <time>2023-05-16T13:59:25Z</time>
      </trkpt>
      <trkpt lat="43.38572" lon="6.72774">
        <ele>6</ele>
        <time>2023-05-16T13:59:27Z</time>
      </trkpt>
      <trkpt lat="43.38571" lon="6.72774">
        <ele>6</ele>
        <time>2023-05-16T13:59:29Z</time>
      </trkpt>
      <trkpt lat="43.3857" lon="6.72774">
        <ele>6</ele>
        <time>2023-05-16T13:59:31Z</time>
      </trkpt>
      <trkpt lat="43.38569" lon="6.72774">
        <ele>6.1</ele>
        <time>2023-05-16T13:59:32Z</time>
      </trkpt>
      <trkpt lat="43.38568" lon="6.72775">
        <ele>6.2</ele>
        <time>2023-05-16T13:59:33Z</time>
      </trkpt>
      <trkpt lat="43.38567" lon="6.72776">
        <ele>6.2</ele>
        <time>2023-05-16T13:59:34Z</time>
      </trkpt>
      <trkpt lat="43.38566" lon="6.72777">
        <ele>6.3</ele>
        <time>2023-05-16T13:59:36Z</time>
      </trkpt>
      <trkpt lat="43.38566" lon="6.72778">
        <ele>6.3</ele>
        <time>2023-05-16T13:59:37Z</time>
      </trkpt>
      <trkpt lat="43.38566" lon="6.72778">
        <ele>6.3</ele>
        <time>2023-05-16T13:59:38Z</time>
      </trkpt>
      <trkpt lat="43.38566" lon="6.72779">
        <ele>6.3</ele>
        <time>2023-05-16T13:59:40Z</time>
      </trkpt>
      <trkpt lat="43.38566" lon="6.72779">
        <ele>6.3</ele>
        <time>2023-05-16T13:59:41Z</time>
      </trkpt>
      <trkpt lat="43.38566" lon="6.72779">
        <ele>6.3</ele>
        <time>2023-05-16T13:59:42Z</time>
      </trkpt>
      <trkpt lat="43.38566" lon="6.72779">
        <ele>6.3</ele>
        <time>2023-05-16T13:59:44Z</time>
      </trkpt>
      <trkpt lat="43.38566" lon="6.72779">
        <ele>6.3</ele>
        <time>2023-05-16T13:59:45Z</time>
      </trkpt>
      <trkpt lat="43.38566" lon="6.72779">
        <ele>6.3</ele>
        <time>2023-05-16T13:59:46Z</time>
      </trkpt>
      <trkpt lat="43.38566" lon="6.72779">
        <ele>6.3</ele>
        <time>2023-05-16T13:59:48Z</time>
      </trkpt>
      <trkpt lat="43.38566" lon="6.72779">
        <ele>6.3</ele>
        <time>2023-05-16T13:59:49Z</time>
      </trkpt>
      <trkpt lat="43.38566" lon="6.72779">
        <ele>6.3</ele>
        <time>2023-05-16T13:59:50Z</time>
      </trkpt>
      <trkpt lat="43.38566" lon="6.72778">
        <ele>6.3</ele>
        <time>2023-05-16T13:59:51Z</time>
      </trkpt>
      <trkpt lat="43.38566" lon="6.72778">
        <ele>6.3</ele>
        <time>2023-05-16T13:59:53Z</time>
      </trkpt>
      <trkpt lat="43.38565" lon="6.72777">
        <ele>6.3</ele>
        <time>2023-05-16T13:59:54Z</time>
      </trkpt>
      <trkpt lat="43.38564" lon="6.72777">
        <ele>6.3</ele>
        <time>2023-05-16T13:59:55Z</time>
      </trkpt>
      <trkpt lat="43.38564" lon="6.72777">
        <ele>6.3</ele>
        <time>2023-05-16T13:59:56Z</time>
      </trkpt>
      <trkpt lat="43.38562" lon="6.72777">
        <ele>6.3</ele>
        <time>2023-05-16T13:59:57Z</time>
      </trkpt>
      <trkpt lat="43.38562" lon="6.72779">
        <ele>6.3</ele>
        <time>2023-05-16T13:59:58Z</time>
      </trkpt>
      <trkpt lat="43.38561" lon="6.7278">
        <ele>6.3</ele>
        <time>2023-05-16T13:59:59Z</time>
      </trkpt>
      <trkpt lat="43.38561" lon="6.72781">
        <ele>6.3</ele>
        <time>2023-05-16T14:00:00Z</time>
      </trkpt>
      <trkpt lat="43.38559" lon="6.72783">
        <ele>6.3</ele>
        <time>2023-05-16T14:00:01Z</time>
      </trkpt>
      <trkpt lat="43.38557" lon="6.72784">
        <ele>6.3</ele>
        <time>2023-05-16T14:00:02Z</time>
      </trkpt>
      <trkpt lat="43.38556" lon="6.72785">
        <ele>6.3</ele>
        <time>2023-05-16T14:00:04Z</time>
      </trkpt>
      <trkpt lat="43.38555" lon="6.72786">
        <ele>6.3</ele>
        <time>2023-05-16T14:00:05Z</time>
      </trkpt>
      <trkpt lat="43.38554" lon="6.72786">
        <ele>6.3</ele>
        <time>2023-05-16T14:00:06Z</time>
      </trkpt>
      <trkpt lat="43.38552" lon="6.72785">
        <ele>6.3</ele>
        <time>2023-05-16T14:00:07Z</time>
      </trkpt>
      <trkpt lat="43.38551" lon="6.72785">
        <ele>6.2</ele>
        <time>2023-05-16T14:00:08Z</time>
      </trkpt>
      <trkpt lat="43.3855" lon="6.72785">
        <ele>6.2</ele>
        <time>2023-05-16T14:00:09Z</time>
      </trkpt>
      <trkpt lat="43.38548" lon="6.72785">
        <ele>6.2</ele>
        <time>2023-05-16T14:00:11Z</time>
      </trkpt>
      <trkpt lat="43.38546" lon="6.72784">
        <ele>6.2</ele>
        <time>2023-05-16T14:00:13Z</time>
      </trkpt>
      <trkpt lat="43.38545" lon="6.72784">
        <ele>6.2</ele>
        <time>2023-05-16T14:00:14Z</time>
      </trkpt>
      <trkpt lat="43.38545" lon="6.72783">
        <ele>6.1</ele>
        <time>2023-05-16T14:00:15Z</time>
      </trkpt>
      <trkpt lat="43.38544" lon="6.72782">
        <ele>6.1</ele>
        <time>2023-05-16T14:00:16Z</time>
      </trkpt>
      <trkpt lat="43.38542" lon="6.7278">
        <ele>6.1</ele>
        <time>2023-05-16T14:00:18Z</time>
      </trkpt>
      <trkpt lat="43.3854" lon="6.72779">
        <ele>6</ele>
        <time>2023-05-16T14:00:19Z</time>
      </trkpt>
      <trkpt lat="43.38539" lon="6.72778">
        <ele>6</ele>
        <time>2023-05-16T14:00:21Z</time>
      </trkpt>
      <trkpt lat="43.38538" lon="6.72777">
        <ele>6</ele>
        <time>2023-05-16T14:00:22Z</time>
      </trkpt>
      <trkpt lat="43.38538" lon="6.72777">
        <ele>6</ele>
        <time>2023-05-16T14:00:23Z</time>
      </trkpt>
      <trkpt lat="43.38536" lon="6.72778">
        <ele>5.9</ele>
        <time>2023-05-16T14:00:24Z</time>
      </trkpt>
      <trkpt lat="43.38535" lon="6.72778">
        <ele>5.9</ele>
        <time>2023-05-16T14:00:25Z</time>
      </trkpt>
      <trkpt lat="43.38534" lon="6.72778">
        <ele>5.8</ele>
        <time>2023-05-16T14:00:26Z</time>
      </trkpt>
      <trkpt lat="43.38532" lon="6.72779">
        <ele>5.8</ele>
        <time>2023-05-16T14:00:28Z</time>
      </trkpt>
      <trkpt lat="43.38531" lon="6.7278">
        <ele>5.7</ele>
        <time>2023-05-16T14:00:29Z</time>
      </trkpt>
      <trkpt lat="43.3853" lon="6.7278">
        <ele>5.7</ele>
        <time>2023-05-16T14:00:30Z</time>
      </trkpt>
      <trkpt lat="43.38528" lon="6.72781">
        <ele>5.7</ele>
        <time>2023-05-16T14:00:32Z</time>
      </trkpt>
      <trkpt lat="43.38527" lon="6.72781">
        <ele>5.6</ele>
        <time>2023-05-16T14:00:33Z</time>
      </trkpt>
      <trkpt lat="43.38527" lon="6.72782">
        <ele>5.6</ele>
        <time>2023-05-16T14:00:34Z</time>
      </trkpt>
      <trkpt lat="43.38526" lon="6.72783">
        <ele>5.6</ele>
        <time>2023-05-16T14:00:35Z</time>
      </trkpt>
      <trkpt lat="43.38525" lon="6.72783">
        <ele>5.6</ele>
        <time>2023-05-16T14:00:36Z</time>
      </trkpt>
      <trkpt lat="43.38524" lon="6.72784">
        <ele>5.5</ele>
        <time>2023-05-16T14:00:37Z</time>
      </trkpt>
      <trkpt lat="43.38524" lon="6.72783">
        <ele>5.5</ele>
        <time>2023-05-16T14:00:39Z</time>
      </trkpt>
      <trkpt lat="43.38524" lon="6.72783">
        <ele>5.5</ele>
        <time>2023-05-16T14:00:41Z</time>
      </trkpt>
      <trkpt lat="43.38524" lon="6.72782">
        <ele>5.5</ele>
        <time>2023-05-16T14:00:42Z</time>
      </trkpt>
      <trkpt lat="43.38524" lon="6.72781">
        <ele>5.5</ele>
        <time>2023-05-16T14:00:43Z</time>
      </trkpt>
      <trkpt lat="43.38524" lon="6.72781">
        <ele>5.5</ele>
        <time>2023-05-16T14:00:44Z</time>
      </trkpt>
      <trkpt lat="43.38524" lon="6.7278">
        <ele>5.4</ele>
        <time>2023-05-16T14:00:45Z</time>
      </trkpt>
      <trkpt lat="43.38523" lon="6.7278">
        <ele>5.4</ele>
        <time>2023-05-16T14:00:46Z</time>
      </trkpt>
      <trkpt lat="43.38523" lon="6.72779">
        <ele>5.4</ele>
        <time>2023-05-16T14:00:48Z</time>
      </trkpt>
      <trkpt lat="43.38523" lon="6.72778">
        <ele>5.4</ele>
        <time>2023-05-16T14:00:49Z</time>
      </trkpt>
      <trkpt lat="43.38523" lon="6.72778">
        <ele>5.4</ele>
        <time>2023-05-16T14:00:50Z</time>
      </trkpt>
      <trkpt lat="43.38523" lon="6.72777">
        <ele>5.4</ele>
        <time>2023-05-16T14:00:51Z</time>
      </trkpt>
      <trkpt lat="43.38523" lon="6.72777">
        <ele>5.4</ele>
        <time>2023-05-16T14:00:52Z</time>
      </trkpt>
      <trkpt lat="43.38523" lon="6.72776">
        <ele>5.4</ele>
        <time>2023-05-16T14:00:53Z</time>
      </trkpt>
      <trkpt lat="43.38523" lon="6.72775">
        <ele>5.4</ele>
        <time>2023-05-16T14:00:54Z</time>
      </trkpt>
      <trkpt lat="43.38523" lon="6.72775">
        <ele>5.4</ele>
        <time>2023-05-16T14:00:55Z</time>
      </trkpt>
      <trkpt lat="43.38522" lon="6.72772">
        <ele>5.4</ele>
        <time>2023-05-16T14:00:56Z</time>
      </trkpt>
      <trkpt lat="43.3852" lon="6.72769">
        <ele>5.4</ele>
        <time>2023-05-16T14:00:58Z</time>
      </trkpt>
      <trkpt lat="43.3852" lon="6.72767">
        <ele>5.4</ele>
        <time>2023-05-16T14:00:59Z</time>
      </trkpt>
      <trkpt lat="43.38521" lon="6.72766">
        <ele>5.4</ele>
        <time>2023-05-16T14:01:00Z</time>
      </trkpt>
      <trkpt lat="43.38521" lon="6.72766">
        <ele>5.4</ele>
        <time>2023-05-16T14:01:01Z</time>
      </trkpt>
      <trkpt lat="43.3852" lon="6.72765">
        <ele>5.4</ele>
        <time>2023-05-16T14:01:03Z</time>
      </trkpt>
      <trkpt lat="43.38519" lon="6.72764">
        <ele>5.4</ele>
        <time>2023-05-16T14:01:04Z</time>
      </trkpt>
      <trkpt lat="43.38518" lon="6.72764">
        <ele>5.4</ele>
        <time>2023-05-16T14:01:05Z</time>
      </trkpt>
      <trkpt lat="43.38518" lon="6.72764">
        <ele>5.5</ele>
        <time>2023-05-16T14:01:06Z</time>
      </trkpt>
      <trkpt lat="43.38517" lon="6.72764">
        <ele>5.5</ele>
        <time>2023-05-16T14:01:07Z</time>
      </trkpt>
      <trkpt lat="43.38516" lon="6.72764">
        <ele>5.5</ele>
        <time>2023-05-16T14:01:08Z</time>
      </trkpt>
      <trkpt lat="43.38515" lon="6.72763">
        <ele>5.6</ele>
        <time>2023-05-16T14:01:09Z</time>
      </trkpt>
      <trkpt lat="43.38514" lon="6.72763">
        <ele>5.6</ele>
        <time>2023-05-16T14:01:11Z</time>
      </trkpt>
      <trkpt lat="43.38513" lon="6.72762">
        <ele>5.6</ele>
        <time>2023-05-16T14:01:12Z</time>
      </trkpt>
      <trkpt lat="43.38513" lon="6.72761">
        <ele>5.7</ele>
        <time>2023-05-16T14:01:13Z</time>
      </trkpt>
      <trkpt lat="43.38511" lon="6.7276">
        <ele>5.7</ele>
        <time>2023-05-16T14:01:14Z</time>
      </trkpt>
      <trkpt lat="43.38511" lon="6.7276">
        <ele>5.7</ele>
        <time>2023-05-16T14:01:15Z</time>
      </trkpt>
      <trkpt lat="43.3851" lon="6.72759">
        <ele>5.8</ele>
        <time>2023-05-16T14:01:16Z</time>
      </trkpt>
      <trkpt lat="43.38509" lon="6.72759">
        <ele>5.8</ele>
        <time>2023-05-16T14:01:17Z</time>
      </trkpt>
      <trkpt lat="43.38508" lon="6.72758">
        <ele>5.8</ele>
        <time>2023-05-16T14:01:19Z</time>
      </trkpt>
      <trkpt lat="43.38508" lon="6.72758">
        <ele>5.8</ele>
        <time>2023-05-16T14:01:20Z</time>
      </trkpt>
      <trkpt lat="43.38507" lon="6.72758">
        <ele>5.9</ele>
        <time>2023-05-16T14:01:21Z</time>
      </trkpt>
      <trkpt lat="43.38507" lon="6.72758">
        <ele>5.9</ele>
        <time>2023-05-16T14:01:22Z</time>
      </trkpt>
      <trkpt lat="43.38507" lon="6.72758">
        <ele>5.9</ele>
        <time>2023-05-16T14:01:23Z</time>
      </trkpt>
      <trkpt lat="43.38506" lon="6.72759">
        <ele>5.9</ele>
        <time>2023-05-16T14:01:24Z</time>
      </trkpt>
      <trkpt lat="43.38505" lon="6.7276">
        <ele>6</ele>
        <time>2023-05-16T14:01:25Z</time>
      </trkpt>
      <trkpt lat="43.38504" lon="6.7276">
        <ele>6</ele>
        <time>2023-05-16T14:01:27Z</time>
      </trkpt>
      <trkpt lat="43.38503" lon="6.72761">
        <ele>6</ele>
        <time>2023-05-16T14:01:28Z</time>
      </trkpt>
      <trkpt lat="43.38502" lon="6.72759">
        <ele>6.1</ele>
        <time>2023-05-16T14:01:29Z</time>
      </trkpt>
      <trkpt lat="43.38502" lon="6.72757">
        <ele>6.1</ele>
        <time>2023-05-16T14:01:30Z</time>
      </trkpt>
      <trkpt lat="43.38503" lon="6.72755">
        <ele>6.2</ele>
        <time>2023-05-16T14:01:32Z</time>
      </trkpt>
      <trkpt lat="43.38504" lon="6.72751">
        <ele>6.2</ele>
        <time>2023-05-16T14:01:33Z</time>
      </trkpt>
      <trkpt lat="43.38505" lon="6.7275">
        <ele>6.2</ele>
        <time>2023-05-16T14:01:34Z</time>
      </trkpt>
      <trkpt lat="43.38506" lon="6.72749">
        <ele>6.3</ele>
        <time>2023-05-16T14:01:35Z</time>
      </trkpt>
      <trkpt lat="43.38507" lon="6.72747">
        <ele>6.3</ele>
        <time>2023-05-16T14:01:37Z</time>
      </trkpt>
      <trkpt lat="43.38508" lon="6.72745">
        <ele>6.3</ele>
        <time>2023-05-16T14:01:38Z</time>
      </trkpt>
      <trkpt lat="43.38509" lon="6.72743">
        <ele>6.3</ele>
        <time>2023-05-16T14:01:39Z</time>
      </trkpt>
      <trkpt lat="43.38509" lon="6.7274">
        <ele>6.3</ele>
        <time>2023-05-16T14:01:40Z</time>
      </trkpt>
      <trkpt lat="43.38509" lon="6.72739">
        <ele>6.3</ele>
        <time>2023-05-16T14:01:41Z</time>
      </trkpt>
      <trkpt lat="43.38509" lon="6.72738">
        <ele>6.2</ele>
        <time>2023-05-16T14:01:42Z</time>
      </trkpt>
      <trkpt lat="43.38509" lon="6.72734">
        <ele>6.2</ele>
        <time>2023-05-16T14:01:43Z</time>
      </trkpt>
      <trkpt lat="43.38509" lon="6.72733">
        <ele>6.2</ele>
        <time>2023-05-16T14:01:45Z</time>
      </trkpt>
      <trkpt lat="43.38508" lon="6.72732">
        <ele>6.2</ele>
        <time>2023-05-16T14:01:46Z</time>
      </trkpt>
      <trkpt lat="43.38508" lon="6.72731">
        <ele>6.1</ele>
        <time>2023-05-16T14:01:47Z</time>
      </trkpt>
      <trkpt lat="43.38508" lon="6.7273">
        <ele>6.1</ele>
        <time>2023-05-16T14:01:48Z</time>
      </trkpt>
      <trkpt lat="43.38507" lon="6.72726">
        <ele>6</ele>
        <time>2023-05-16T14:01:49Z</time>
      </trkpt>
      <trkpt lat="43.38507" lon="6.72724">
        <ele>5.9</ele>
        <time>2023-05-16T14:01:51Z</time>
      </trkpt>
      <trkpt lat="43.38507" lon="6.72723">
        <ele>5.9</ele>
        <time>2023-05-16T14:01:52Z</time>
      </trkpt>
      <trkpt lat="43.38507" lon="6.72721">
        <ele>5.8</ele>
        <time>2023-05-16T14:01:53Z</time>
      </trkpt>
      <trkpt lat="43.38506" lon="6.7272">
        <ele>5.8</ele>
        <time>2023-05-16T14:01:54Z</time>
      </trkpt>
      <trkpt lat="43.38506" lon="6.72717">
        <ele>5.7</ele>
        <time>2023-05-16T14:01:55Z</time>
      </trkpt>
      <trkpt lat="43.38505" lon="6.72716">
        <ele>5.6</ele>
        <time>2023-05-16T14:01:56Z</time>
      </trkpt>
      <trkpt lat="43.38505" lon="6.72714">
        <ele>5.6</ele>
        <time>2023-05-16T14:01:57Z</time>
      </trkpt>
      <trkpt lat="43.38504" lon="6.72714">
        <ele>5.5</ele>
        <time>2023-05-16T14:01:58Z</time>
      </trkpt>
      <trkpt lat="43.38503" lon="6.72712">
        <ele>5.4</ele>
        <time>2023-05-16T14:02:00Z</time>
      </trkpt>
      <trkpt lat="43.38503" lon="6.72712">
        <ele>5.4</ele>
        <time>2023-05-16T14:02:01Z</time>
      </trkpt>
      <trkpt lat="43.38502" lon="6.72711">
        <ele>5.3</ele>
        <time>2023-05-16T14:02:02Z</time>
      </trkpt>
      <trkpt lat="43.38501" lon="6.72711">
        <ele>5.3</ele>
        <time>2023-05-16T14:02:03Z</time>
      </trkpt>
      <trkpt lat="43.38501" lon="6.7271">
        <ele>5.2</ele>
        <time>2023-05-16T14:02:05Z</time>
      </trkpt>
      <trkpt lat="43.385" lon="6.72709">
        <ele>5.2</ele>
        <time>2023-05-16T14:02:06Z</time>
      </trkpt>
      <trkpt lat="43.385" lon="6.72708">
        <ele>5.1</ele>
        <time>2023-05-16T14:02:07Z</time>
      </trkpt>
      <trkpt lat="43.385" lon="6.72707">
        <ele>5.1</ele>
        <time>2023-05-16T14:02:08Z</time>
      </trkpt>
      <trkpt lat="43.385" lon="6.72705">
        <ele>5</ele>
        <time>2023-05-16T14:02:09Z</time>
      </trkpt>
      <trkpt lat="43.385" lon="6.72705">
        <ele>5</ele>
        <time>2023-05-16T14:02:10Z</time>
      </trkpt>
      <trkpt lat="43.385" lon="6.72704">
        <ele>5</ele>
        <time>2023-05-16T14:02:11Z</time>
      </trkpt>
      <trkpt lat="43.38499" lon="6.72703">
        <ele>4.9</ele>
        <time>2023-05-16T14:02:12Z</time>
      </trkpt>
      <trkpt lat="43.38499" lon="6.72702">
        <ele>4.9</ele>
        <time>2023-05-16T14:02:13Z</time>
      </trkpt>
      <trkpt lat="43.38498" lon="6.72701">
        <ele>4.8</ele>
        <time>2023-05-16T14:02:14Z</time>
      </trkpt>
      <trkpt lat="43.38498" lon="6.72701">
        <ele>4.8</ele>
        <time>2023-05-16T14:02:15Z</time>
      </trkpt>
      <trkpt lat="43.38497" lon="6.727">
        <ele>4.8</ele>
        <time>2023-05-16T14:02:17Z</time>
      </trkpt>
      <trkpt lat="43.38495" lon="6.72699">
        <ele>4.7</ele>
        <time>2023-05-16T14:02:18Z</time>
      </trkpt>
      <trkpt lat="43.38494" lon="6.72699">
        <ele>4.6</ele>
        <time>2023-05-16T14:02:20Z</time>
      </trkpt>
      <trkpt lat="43.38494" lon="6.72698">
        <ele>4.6</ele>
        <time>2023-05-16T14:02:21Z</time>
      </trkpt>
      <trkpt lat="43.38493" lon="6.72698">
        <ele>4.6</ele>
        <time>2023-05-16T14:02:22Z</time>
      </trkpt>
      <trkpt lat="43.38493" lon="6.72697">
        <ele>4.5</ele>
        <time>2023-05-16T14:02:23Z</time>
      </trkpt>
      <trkpt lat="43.38492" lon="6.72697">
        <ele>4.5</ele>
        <time>2023-05-16T14:02:24Z</time>
      </trkpt>
      <trkpt lat="43.38491" lon="6.72697">
        <ele>4.5</ele>
        <time>2023-05-16T14:02:25Z</time>
      </trkpt>
      <trkpt lat="43.3849" lon="6.72697">
        <ele>4.4</ele>
        <time>2023-05-16T14:02:26Z</time>
      </trkpt>
      <trkpt lat="43.38489" lon="6.72696">
        <ele>4.4</ele>
        <time>2023-05-16T14:02:27Z</time>
      </trkpt>
      <trkpt lat="43.38488" lon="6.72695">
        <ele>4.4</ele>
        <time>2023-05-16T14:02:29Z</time>
      </trkpt>
      <trkpt lat="43.38487" lon="6.72695">
        <ele>4.3</ele>
        <time>2023-05-16T14:02:30Z</time>
      </trkpt>
      <trkpt lat="43.38486" lon="6.72694">
        <ele>4.3</ele>
        <time>2023-05-16T14:02:31Z</time>
      </trkpt>
      <trkpt lat="43.38486" lon="6.72695">
        <ele>4.3</ele>
        <time>2023-05-16T14:02:32Z</time>
      </trkpt>
      <trkpt lat="43.38485" lon="6.72695">
        <ele>4.3</ele>
        <time>2023-05-16T14:02:33Z</time>
      </trkpt>
      <trkpt lat="43.38484" lon="6.72694">
        <ele>4.2</ele>
        <time>2023-05-16T14:02:35Z</time>
      </trkpt>
      <trkpt lat="43.38483" lon="6.72694">
        <ele>4.2</ele>
        <time>2023-05-16T14:02:36Z</time>
      </trkpt>
      <trkpt lat="43.38483" lon="6.72694">
        <ele>4.2</ele>
        <time>2023-05-16T14:02:37Z</time>
      </trkpt>
      <trkpt lat="43.38482" lon="6.72694">
        <ele>4.2</ele>
        <time>2023-05-16T14:02:38Z</time>
      </trkpt>
      <trkpt lat="43.38481" lon="6.72694">
        <ele>4.1</ele>
        <time>2023-05-16T14:02:39Z</time>
      </trkpt>
      <trkpt lat="43.3848" lon="6.72694">
        <ele>4.1</ele>
        <time>2023-05-16T14:02:41Z</time>
      </trkpt>
      <trkpt lat="43.38478" lon="6.72694">
        <ele>4.1</ele>
        <time>2023-05-16T14:02:42Z</time>
      </trkpt>
      <trkpt lat="43.38477" lon="6.72693">
        <ele>4</ele>
        <time>2023-05-16T14:02:43Z</time>
      </trkpt>
      <trkpt lat="43.38477" lon="6.72693">
        <ele>4</ele>
        <time>2023-05-16T14:02:44Z</time>
      </trkpt>
      <trkpt lat="43.38475" lon="6.72692">
        <ele>4</ele>
        <time>2023-05-16T14:02:45Z</time>
      </trkpt>
      <trkpt lat="43.38474" lon="6.72691">
        <ele>4</ele>
        <time>2023-05-16T14:02:46Z</time>
      </trkpt>
      <trkpt lat="43.38473" lon="6.72691">
        <ele>4</ele>
        <time>2023-05-16T14:02:47Z</time>
      </trkpt>
      <trkpt lat="43.38472" lon="6.72691">
        <ele>4</ele>
        <time>2023-05-16T14:02:49Z</time>
      </trkpt>
      <trkpt lat="43.38472" lon="6.7269">
        <ele>4</ele>
        <time>2023-05-16T14:02:50Z</time>
      </trkpt>
      <trkpt lat="43.38471" lon="6.7269">
        <ele>4</ele>
        <time>2023-05-16T14:02:51Z</time>
      </trkpt>
      <trkpt lat="43.3847" lon="6.7269">
        <ele>4</ele>
        <time>2023-05-16T14:02:52Z</time>
      </trkpt>
      <trkpt lat="43.3847" lon="6.7269">
        <ele>4</ele>
        <time>2023-05-16T14:02:53Z</time>
      </trkpt>
      <trkpt lat="43.38469" lon="6.72689">
        <ele>4.1</ele>
        <time>2023-05-16T14:02:54Z</time>
      </trkpt>
      <trkpt lat="43.38468" lon="6.72689">
        <ele>4.1</ele>
        <time>2023-05-16T14:02:55Z</time>
      </trkpt>
      <trkpt lat="43.38467" lon="6.72689">
        <ele>4.1</ele>
        <time>2023-05-16T14:02:56Z</time>
      </trkpt>
      <trkpt lat="43.38466" lon="6.72688">
        <ele>4.1</ele>
        <time>2023-05-16T14:02:57Z</time>
      </trkpt>
      <trkpt lat="43.38465" lon="6.72688">
        <ele>4.1</ele>
        <time>2023-05-16T14:02:58Z</time>
      </trkpt>
      <trkpt lat="43.38464" lon="6.72686">
        <ele>4.1</ele>
        <time>2023-05-16T14:03:00Z</time>
      </trkpt>
      <trkpt lat="43.38463" lon="6.72685">
        <ele>4.2</ele>
        <time>2023-05-16T14:03:01Z</time>
      </trkpt>
      <trkpt lat="43.38462" lon="6.72685">
        <ele>4.2</ele>
        <time>2023-05-16T14:03:03Z</time>
      </trkpt>
      <trkpt lat="43.38462" lon="6.72684">
        <ele>4.2</ele>
        <time>2023-05-16T14:03:04Z</time>
      </trkpt>
      <trkpt lat="43.38461" lon="6.72683">
        <ele>4.2</ele>
        <time>2023-05-16T14:03:05Z</time>
      </trkpt>
      <trkpt lat="43.3846" lon="6.72681">
        <ele>4.3</ele>
        <time>2023-05-16T14:03:06Z</time>
      </trkpt>
      <trkpt lat="43.38459" lon="6.7268">
        <ele>4.3</ele>
        <time>2023-05-16T14:03:07Z</time>
      </trkpt>
      <trkpt lat="43.38458" lon="6.72679">
        <ele>4.3</ele>
        <time>2023-05-16T14:03:09Z</time>
      </trkpt>
      <trkpt lat="43.38458" lon="6.72678">
        <ele>4.4</ele>
        <time>2023-05-16T14:03:10Z</time>
      </trkpt>
      <trkpt lat="43.38457" lon="6.72678">
        <ele>4.4</ele>
        <time>2023-05-16T14:03:11Z</time>
      </trkpt>
      <trkpt lat="43.38457" lon="6.72677">
        <ele>4.4</ele>
        <time>2023-05-16T14:03:12Z</time>
      </trkpt>
      <trkpt lat="43.38457" lon="6.72677">
        <ele>4.4</ele>
        <time>2023-05-16T14:03:13Z</time>
      </trkpt>
      <trkpt lat="43.38456" lon="6.72676">
        <ele>4.4</ele>
        <time>2023-05-16T14:03:14Z</time>
      </trkpt>
      <trkpt lat="43.38455" lon="6.72676">
        <ele>4.4</ele>
        <time>2023-05-16T14:03:15Z</time>
      </trkpt>
      <trkpt lat="43.38454" lon="6.72675">
        <ele>4.5</ele>
        <time>2023-05-16T14:03:16Z</time>
      </trkpt>
      <trkpt lat="43.38453" lon="6.72676">
        <ele>4.5</ele>
        <time>2023-05-16T14:03:17Z</time>
      </trkpt>
      <trkpt lat="43.38453" lon="6.72676">
        <ele>4.5</ele>
        <time>2023-05-16T14:03:19Z</time>
      </trkpt>
      <trkpt lat="43.38452" lon="6.72676">
        <ele>4.5</ele>
        <time>2023-05-16T14:03:20Z</time>
      </trkpt>
      <trkpt lat="43.38451" lon="6.72675">
        <ele>4.6</ele>
        <time>2023-05-16T14:03:21Z</time>
      </trkpt>
      <trkpt lat="43.3845" lon="6.72675">
        <ele>4.6</ele>
        <time>2023-05-16T14:03:22Z</time>
      </trkpt>
      <trkpt lat="43.38449" lon="6.72675">
        <ele>4.6</ele>
        <time>2023-05-16T14:03:23Z</time>
      </trkpt>
      <trkpt lat="43.38448" lon="6.72675">
        <ele>4.6</ele>
        <time>2023-05-16T14:03:24Z</time>
      </trkpt>
      <trkpt lat="43.38447" lon="6.72675">
        <ele>4.7</ele>
        <time>2023-05-16T14:03:26Z</time>
      </trkpt>
      <trkpt lat="43.38446" lon="6.72677">
        <ele>4.7</ele>
        <time>2023-05-16T14:03:27Z</time>
      </trkpt>
      <trkpt lat="43.38445" lon="6.72677">
        <ele>4.7</ele>
        <time>2023-05-16T14:03:29Z</time>
      </trkpt>
      <trkpt lat="43.38444" lon="6.72678">
        <ele>4.7</ele>
        <time>2023-05-16T14:03:30Z</time>
      </trkpt>
      <trkpt lat="43.38444" lon="6.72679">
        <ele>4.7</ele>
        <time>2023-05-16T14:03:32Z</time>
      </trkpt>
      <trkpt lat="43.38445" lon="6.7268">
        <ele>4.7</ele>
        <time>2023-05-16T14:03:33Z</time>
      </trkpt>
      <trkpt lat="43.38445" lon="6.7268">
        <ele>4.7</ele>
        <time>2023-05-16T14:03:34Z</time>
      </trkpt>
      <trkpt lat="43.38445" lon="6.7268">
        <ele>4.7</ele>
        <time>2023-05-16T14:03:35Z</time>
      </trkpt>
      <trkpt lat="43.38445" lon="6.7268">
        <ele>4.7</ele>
        <time>2023-05-16T14:03:36Z</time>
      </trkpt>
      <trkpt lat="43.38444" lon="6.7268">
        <ele>4.7</ele>
        <time>2023-05-16T14:03:38Z</time>
      </trkpt>
      <trkpt lat="43.38443" lon="6.72679">
        <ele>4.7</ele>
        <time>2023-05-16T14:03:39Z</time>
      </trkpt>
      <trkpt lat="43.38442" lon="6.72678">
        <ele>4.7</ele>
        <time>2023-05-16T14:03:40Z</time>
      </trkpt>
      <trkpt lat="43.3844" lon="6.72676">
        <ele>4.7</ele>
        <time>2023-05-16T14:03:41Z</time>
      </trkpt>
      <trkpt lat="43.38439" lon="6.72675">
        <ele>4.7</ele>
        <time>2023-05-16T14:03:42Z</time>
      </trkpt>
      <trkpt lat="43.38436" lon="6.7267">
        <ele>4.7</ele>
        <time>2023-05-16T14:03:44Z</time>
      </trkpt>
      <trkpt lat="43.38435" lon="6.72669">
        <ele>4.7</ele>
        <time>2023-05-16T14:03:46Z</time>
      </trkpt>
      <trkpt lat="43.38434" lon="6.72667">
        <ele>4.7</ele>
        <time>2023-05-16T14:03:47Z</time>
      </trkpt>
      <trkpt lat="43.38434" lon="6.72666">
        <ele>4.6</ele>
        <time>2023-05-16T14:03:48Z</time>
      </trkpt>
      <trkpt lat="43.38432" lon="6.72665">
        <ele>4.6</ele>
        <time>2023-05-16T14:03:49Z</time>
      </trkpt>
      <trkpt lat="43.38431" lon="6.72663">
        <ele>4.6</ele>
        <time>2023-05-16T14:03:50Z</time>
      </trkpt>
      <trkpt lat="43.3843" lon="6.72662">
        <ele>4.6</ele>
        <time>2023-05-16T14:03:51Z</time>
      </trkpt>
      <trkpt lat="43.3843" lon="6.72661">
        <ele>4.6</ele>
        <time>2023-05-16T14:03:53Z</time>
      </trkpt>
      <trkpt lat="43.38428" lon="6.7266">
        <ele>4.6</ele>
        <time>2023-05-16T14:03:54Z</time>
      </trkpt>
      <trkpt lat="43.38428" lon="6.72659">
        <ele>4.6</ele>
        <time>2023-05-16T14:03:55Z</time>
      </trkpt>
      <trkpt lat="43.38427" lon="6.72657">
        <ele>4.7</ele>
        <time>2023-05-16T14:03:56Z</time>
      </trkpt>
      <trkpt lat="43.38425" lon="6.72656">
        <ele>4.7</ele>
        <time>2023-05-16T14:03:57Z</time>
      </trkpt>
      <trkpt lat="43.38423" lon="6.72654">
        <ele>4.7</ele>
        <time>2023-05-16T14:03:59Z</time>
      </trkpt>
      <trkpt lat="43.38422" lon="6.72653">
        <ele>4.8</ele>
        <time>2023-05-16T14:04:00Z</time>
      </trkpt>
      <trkpt lat="43.38421" lon="6.72653">
        <ele>4.8</ele>
        <time>2023-05-16T14:04:01Z</time>
      </trkpt>
      <trkpt lat="43.38421" lon="6.72652">
        <ele>4.8</ele>
        <time>2023-05-16T14:04:02Z</time>
      </trkpt>
      <trkpt lat="43.3842" lon="6.72652">
        <ele>4.8</ele>
        <time>2023-05-16T14:04:03Z</time>
      </trkpt>
      <trkpt lat="43.38419" lon="6.72651">
        <ele>4.9</ele>
        <time>2023-05-16T14:04:05Z</time>
      </trkpt>
      <trkpt lat="43.38418" lon="6.7265">
        <ele>4.9</ele>
        <time>2023-05-16T14:04:06Z</time>
      </trkpt>
      <trkpt lat="43.38416" lon="6.7265">
        <ele>5</ele>
        <time>2023-05-16T14:04:07Z</time>
      </trkpt>
      <trkpt lat="43.38415" lon="6.7265">
        <ele>5</ele>
        <time>2023-05-16T14:04:08Z</time>
      </trkpt>
      <trkpt lat="43.38414" lon="6.7265">
        <ele>5</ele>
        <time>2023-05-16T14:04:09Z</time>
      </trkpt>
      <trkpt lat="43.38413" lon="6.72649">
        <ele>5.1</ele>
        <time>2023-05-16T14:04:10Z</time>
      </trkpt>
      <trkpt lat="43.38412" lon="6.7265">
        <ele>5.1</ele>
        <time>2023-05-16T14:04:11Z</time>
      </trkpt>
      <trkpt lat="43.38411" lon="6.72651">
        <ele>5.2</ele>
        <time>2023-05-16T14:04:12Z</time>
      </trkpt>
      <trkpt lat="43.38411" lon="6.72651">
        <ele>5.2</ele>
        <time>2023-05-16T14:04:13Z</time>
      </trkpt>
      <trkpt lat="43.3841" lon="6.72652">
        <ele>5.3</ele>
        <time>2023-05-16T14:04:14Z</time>
      </trkpt>
      <trkpt lat="43.38409" lon="6.72653">
        <ele>5.3</ele>
        <time>2023-05-16T14:04:15Z</time>
      </trkpt>
      <trkpt lat="43.38408" lon="6.72655">
        <ele>5.4</ele>
        <time>2023-05-16T14:04:17Z</time>
      </trkpt>
      <trkpt lat="43.38408" lon="6.72655">
        <ele>5.4</ele>
        <time>2023-05-16T14:04:18Z</time>
      </trkpt>
      <trkpt lat="43.38407" lon="6.72656">
        <ele>5.5</ele>
        <time>2023-05-16T14:04:19Z</time>
      </trkpt>
      <trkpt lat="43.38406" lon="6.72657">
        <ele>5.5</ele>
        <time>2023-05-16T14:04:20Z</time>
      </trkpt>
      <trkpt lat="43.38405" lon="6.72659">
        <ele>5.6</ele>
        <time>2023-05-16T14:04:22Z</time>
      </trkpt>
      <trkpt lat="43.38404" lon="6.7266">
        <ele>5.7</ele>
        <time>2023-05-16T14:04:23Z</time>
      </trkpt>
      <trkpt lat="43.38403" lon="6.72661">
        <ele>5.7</ele>
        <time>2023-05-16T14:04:24Z</time>
      </trkpt>
      <trkpt lat="43.38403" lon="6.72662">
        <ele>5.8</ele>
        <time>2023-05-16T14:04:25Z</time>
      </trkpt>
      <trkpt lat="43.38401" lon="6.72663">
        <ele>5.9</ele>
        <time>2023-05-16T14:04:27Z</time>
      </trkpt>
      <trkpt lat="43.38401" lon="6.72663">
        <ele>5.9</ele>
        <time>2023-05-16T14:04:28Z</time>
      </trkpt>
      <trkpt lat="43.384" lon="6.72663">
        <ele>5.9</ele>
        <time>2023-05-16T14:04:29Z</time>
      </trkpt>
      <trkpt lat="43.384" lon="6.72662">
        <ele>5.9</ele>
        <time>2023-05-16T14:04:31Z</time>
      </trkpt>
      <trkpt lat="43.38399" lon="6.72661">
        <ele>6</ele>
        <time>2023-05-16T14:04:32Z</time>
      </trkpt>
      <trkpt lat="43.38399" lon="6.7266">
        <ele>6</ele>
        <time>2023-05-16T14:04:33Z</time>
      </trkpt>
      <trkpt lat="43.38399" lon="6.72659">
        <ele>6</ele>
        <time>2023-05-16T14:04:34Z</time>
      </trkpt>
      <trkpt lat="43.38398" lon="6.72657">
        <ele>6.1</ele>
        <time>2023-05-16T14:04:35Z</time>
      </trkpt>
      <trkpt lat="43.38399" lon="6.72653">
        <ele>6.2</ele>
        <time>2023-05-16T14:04:37Z</time>
      </trkpt>
      <trkpt lat="43.38398" lon="6.72652">
        <ele>6.2</ele>
        <time>2023-05-16T14:04:39Z</time>
      </trkpt>
      <trkpt lat="43.38398" lon="6.72651">
        <ele>6.2</ele>
        <time>2023-05-16T14:04:40Z</time>
      </trkpt>
      <trkpt lat="43.38398" lon="6.72649">
        <ele>6.2</ele>
        <time>2023-05-16T14:04:41Z</time>
      </trkpt>
      <trkpt lat="43.38398" lon="6.72648">
        <ele>6.2</ele>
        <time>2023-05-16T14:04:42Z</time>
      </trkpt>
      <trkpt lat="43.38398" lon="6.72647">
        <ele>6.2</ele>
        <time>2023-05-16T14:04:43Z</time>
      </trkpt>
      <trkpt lat="43.38398" lon="6.72645">
        <ele>6.2</ele>
        <time>2023-05-16T14:04:45Z</time>
      </trkpt>
      <trkpt lat="43.38398" lon="6.72645">
        <ele>6.2</ele>
        <time>2023-05-16T14:04:46Z</time>
      </trkpt>
      <trkpt lat="43.38397" lon="6.72643">
        <ele>6.2</ele>
        <time>2023-05-16T14:04:47Z</time>
      </trkpt>
      <trkpt lat="43.38396" lon="6.72644">
        <ele>6.2</ele>
        <time>2023-05-16T14:04:48Z</time>
      </trkpt>
      <trkpt lat="43.38395" lon="6.72643">
        <ele>6.2</ele>
        <time>2023-05-16T14:04:49Z</time>
      </trkpt>
      <trkpt lat="43.38395" lon="6.72642">
        <ele>6.2</ele>
        <time>2023-05-16T14:04:50Z</time>
      </trkpt>
      <trkpt lat="43.38394" lon="6.72641">
        <ele>6.2</ele>
        <time>2023-05-16T14:04:51Z</time>
      </trkpt>
      <trkpt lat="43.38393" lon="6.72641">
        <ele>6.1</ele>
        <time>2023-05-16T14:04:52Z</time>
      </trkpt>
      <trkpt lat="43.38392" lon="6.7264">
        <ele>6.1</ele>
        <time>2023-05-16T14:04:53Z</time>
      </trkpt>
      <trkpt lat="43.38391" lon="6.7264">
        <ele>6.1</ele>
        <time>2023-05-16T14:04:55Z</time>
      </trkpt>
      <trkpt lat="43.38391" lon="6.7264">
        <ele>6.1</ele>
        <time>2023-05-16T14:04:56Z</time>
      </trkpt>
      <trkpt lat="43.3839" lon="6.72639">
        <ele>6.1</ele>
        <time>2023-05-16T14:04:57Z</time>
      </trkpt>
      <trkpt lat="43.38389" lon="6.7264">
        <ele>6</ele>
        <time>2023-05-16T14:04:58Z</time>
      </trkpt>
      <trkpt lat="43.38388" lon="6.72639">
        <ele>6</ele>
        <time>2023-05-16T14:04:59Z</time>
      </trkpt>
      <trkpt lat="43.38387" lon="6.72639">
        <ele>6</ele>
        <time>2023-05-16T14:05:00Z</time>
      </trkpt>
      <trkpt lat="43.38386" lon="6.72638">
        <ele>5.9</ele>
        <time>2023-05-16T14:05:01Z</time>
      </trkpt>
      <trkpt lat="43.38385" lon="6.72636">
        <ele>5.9</ele>
        <time>2023-05-16T14:05:02Z</time>
      </trkpt>
      <trkpt lat="43.38385" lon="6.72635">
        <ele>5.8</ele>
        <time>2023-05-16T14:05:03Z</time>
      </trkpt>
      <trkpt lat="43.38384" lon="6.72634">
        <ele>5.8</ele>
        <time>2023-05-16T14:05:05Z</time>
      </trkpt>
      <trkpt lat="43.38384" lon="6.72632">
        <ele>5.7</ele>
        <time>2023-05-16T14:05:06Z</time>
      </trkpt>
      <trkpt lat="43.38384" lon="6.7263">
        <ele>5.7</ele>
        <time>2023-05-16T14:05:07Z</time>
      </trkpt>
      <trkpt lat="43.38383" lon="6.72629">
        <ele>5.6</ele>
        <time>2023-05-16T14:05:09Z</time>
      </trkpt>
      <trkpt lat="43.38382" lon="6.72629">
        <ele>5.6</ele>
        <time>2023-05-16T14:05:10Z</time>
      </trkpt>
      <trkpt lat="43.38382" lon="6.72627">
        <ele>5.6</ele>
        <time>2023-05-16T14:05:11Z</time>
      </trkpt>
      <trkpt lat="43.38382" lon="6.72626">
        <ele>5.5</ele>
        <time>2023-05-16T14:05:13Z</time>
      </trkpt>
      <trkpt lat="43.38381" lon="6.72626">
        <ele>5.5</ele>
        <time>2023-05-16T14:05:14Z</time>
      </trkpt>
      <trkpt lat="43.38381" lon="6.72626">
        <ele>5.5</ele>
        <time>2023-05-16T14:05:15Z</time>
      </trkpt>
      <trkpt lat="43.38381" lon="6.72626">
        <ele>5.5</ele>
        <time>2023-05-16T14:05:16Z</time>
      </trkpt>
      <trkpt lat="43.38381" lon="6.72626">
        <ele>5.5</ele>
        <time>2023-05-16T14:05:17Z</time>
      </trkpt>
      <trkpt lat="43.38382" lon="6.72626">
        <ele>5.4</ele>
        <time>2023-05-16T14:05:19Z</time>
      </trkpt>
      <trkpt lat="43.38382" lon="6.72626">
        <ele>5.4</ele>
        <time>2023-05-16T14:05:20Z</time>
      </trkpt>
      <trkpt lat="43.38382" lon="6.72626">
        <ele>5.4</ele>
        <time>2023-05-16T14:05:21Z</time>
      </trkpt>
      <trkpt lat="43.38382" lon="6.72625">
        <ele>5.4</ele>
        <time>2023-05-16T14:05:23Z</time>
      </trkpt>
      <trkpt lat="43.38382" lon="6.72625">
        <ele>5.4</ele>
        <time>2023-05-16T14:05:24Z</time>
      </trkpt>
      <trkpt lat="43.38382" lon="6.72624">
        <ele>5.4</ele>
        <time>2023-05-16T14:05:25Z</time>
      </trkpt>
      <trkpt lat="43.38381" lon="6.72624">
        <ele>5.3</ele>
        <time>2023-05-16T14:05:26Z</time>
      </trkpt>
      <trkpt lat="43.38381" lon="6.72624">
        <ele>5.3</ele>
        <time>2023-05-16T14:05:27Z</time>
      </trkpt>
      <trkpt lat="43.3838" lon="6.72623">
        <ele>5.3</ele>
        <time>2023-05-16T14:05:28Z</time>
      </trkpt>
      <trkpt lat="43.3838" lon="6.72623">
        <ele>5.3</ele>
        <time>2023-05-16T14:05:29Z</time>
      </trkpt>
      <trkpt lat="43.3838" lon="6.72622">
        <ele>5.3</ele>
        <time>2023-05-16T14:05:30Z</time>
      </trkpt>
      <trkpt lat="43.3838" lon="6.72622">
        <ele>5.3</ele>
        <time>2023-05-16T14:05:31Z</time>
      </trkpt>
      <trkpt lat="43.3838" lon="6.72622">
        <ele>5.3</ele>
        <time>2023-05-16T14:05:32Z</time>
      </trkpt>
      <trkpt lat="43.3838" lon="6.72622">
        <ele>5.3</ele>
        <time>2023-05-16T14:05:33Z</time>
      </trkpt>
      <trkpt lat="43.3838" lon="6.72622">
        <ele>5.3</ele>
        <time>2023-05-16T14:05:34Z</time>
      </trkpt>
      <trkpt lat="43.3838" lon="6.72622">
        <ele>5.3</ele>
        <time>2023-05-16T14:05:35Z</time>
      </trkpt>
      <trkpt lat="43.3838" lon="6.72622">
        <ele>5.2</ele>
        <time>2023-05-16T14:05:36Z</time>
      </trkpt>
      <trkpt lat="43.38379" lon="6.72622">
        <ele>5.2</ele>
        <time>2023-05-16T14:05:37Z</time>
      </trkpt>
      <trkpt lat="43.38379" lon="6.72621">
        <ele>5.2</ele>
        <time>2023-05-16T14:05:38Z</time>
      </trkpt>
      <trkpt lat="43.38379" lon="6.7262">
        <ele>5.2</ele>
        <time>2023-05-16T14:05:39Z</time>
      </trkpt>
      <trkpt lat="43.38379" lon="6.72619">
        <ele>5.2</ele>
        <time>2023-05-16T14:05:40Z</time>
      </trkpt>
      <trkpt lat="43.38378" lon="6.72619">
        <ele>5.1</ele>
        <time>2023-05-16T14:05:41Z</time>
      </trkpt>
      <trkpt lat="43.38378" lon="6.72618">
        <ele>5.1</ele>
        <time>2023-05-16T14:05:42Z</time>
      </trkpt>
      <trkpt lat="43.38376" lon="6.72615">
        <ele>5</ele>
        <time>2023-05-16T14:05:43Z</time>
      </trkpt>
      <trkpt lat="43.38375" lon="6.72614">
        <ele>5</ele>
        <time>2023-05-16T14:05:45Z</time>
      </trkpt>
      <trkpt lat="43.38374" lon="6.72613">
        <ele>5</ele>
        <time>2023-05-16T14:05:46Z</time>
      </trkpt>
      <trkpt lat="43.38372" lon="6.72613">
        <ele>4.9</ele>
        <time>2023-05-16T14:05:47Z</time>
      </trkpt>
      <trkpt lat="43.3837" lon="6.72612">
        <ele>4.9</ele>
        <time>2023-05-16T14:05:49Z</time>
      </trkpt>
      <trkpt lat="43.38369" lon="6.72612">
        <ele>4.8</ele>
        <time>2023-05-16T14:05:50Z</time>
      </trkpt>
      <trkpt lat="43.38368" lon="6.72612">
        <ele>4.8</ele>
        <time>2023-05-16T14:05:51Z</time>
      </trkpt>
      <trkpt lat="43.38368" lon="6.72612">
        <ele>4.8</ele>
        <time>2023-05-16T14:05:52Z</time>
      </trkpt>
      <trkpt lat="43.38366" lon="6.72611">
        <ele>4.8</ele>
        <time>2023-05-16T14:05:53Z</time>
      </trkpt>
      <trkpt lat="43.38365" lon="6.7261">
        <ele>4.8</ele>
        <time>2023-05-16T14:05:55Z</time>
      </trkpt>
      <trkpt lat="43.38365" lon="6.7261">
        <ele>4.8</ele>
        <time>2023-05-16T14:05:56Z</time>
      </trkpt>
      <trkpt lat="43.38363" lon="6.7261">
        <ele>4.7</ele>
        <time>2023-05-16T14:05:57Z</time>
      </trkpt>
      <trkpt lat="43.38362" lon="6.7261">
        <ele>4.7</ele>
        <time>2023-05-16T14:05:58Z</time>
      </trkpt>
      <trkpt lat="43.38361" lon="6.7261">
        <ele>4.7</ele>
        <time>2023-05-16T14:06:00Z</time>
      </trkpt>
      <trkpt lat="43.3836" lon="6.7261">
        <ele>4.7</ele>
        <time>2023-05-16T14:06:01Z</time>
      </trkpt>
      <trkpt lat="43.38359" lon="6.72611">
        <ele>4.7</ele>
        <time>2023-05-16T14:06:02Z</time>
      </trkpt>
      <trkpt lat="43.38358" lon="6.7261">
        <ele>4.7</ele>
        <time>2023-05-16T14:06:03Z</time>
      </trkpt>
      <trkpt lat="43.38357" lon="6.72609">
        <ele>4.7</ele>
        <time>2023-05-16T14:06:04Z</time>
      </trkpt>
      <trkpt lat="43.38356" lon="6.72609">
        <ele>4.7</ele>
        <time>2023-05-16T14:06:05Z</time>
      </trkpt>
      <trkpt lat="43.38355" lon="6.72609">
        <ele>4.7</ele>
        <time>2023-05-16T14:06:06Z</time>
      </trkpt>
      <trkpt lat="43.38354" lon="6.72609">
        <ele>4.7</ele>
        <time>2023-05-16T14:06:07Z</time>
      </trkpt>
      <trkpt lat="43.38353" lon="6.72609">
        <ele>4.7</ele>
        <time>2023-05-16T14:06:08Z</time>
      </trkpt>
      <trkpt lat="43.38352" lon="6.72608">
        <ele>4.7</ele>
        <time>2023-05-16T14:06:09Z</time>
      </trkpt>
      <trkpt lat="43.38351" lon="6.72608">
        <ele>4.7</ele>
        <time>2023-05-16T14:06:11Z</time>
      </trkpt>
      <trkpt lat="43.3835" lon="6.72608">
        <ele>4.7</ele>
        <time>2023-05-16T14:06:12Z</time>
      </trkpt>
      <trkpt lat="43.38349" lon="6.72608">
        <ele>4.7</ele>
        <time>2023-05-16T14:06:13Z</time>
      </trkpt>
      <trkpt lat="43.38347" lon="6.72609">
        <ele>4.7</ele>
        <time>2023-05-16T14:06:15Z</time>
      </trkpt>
      <trkpt lat="43.38346" lon="6.7261">
        <ele>4.7</ele>
        <time>2023-05-16T14:06:16Z</time>
      </trkpt>
      <trkpt lat="43.38346" lon="6.7261">
        <ele>4.7</ele>
        <time>2023-05-16T14:06:17Z</time>
      </trkpt>
      <trkpt lat="43.38345" lon="6.72611">
        <ele>4.7</ele>
        <time>2023-05-16T14:06:18Z</time>
      </trkpt>
      <trkpt lat="43.38344" lon="6.72611">
        <ele>4.7</ele>
        <time>2023-05-16T14:06:19Z</time>
      </trkpt>
      <trkpt lat="43.38343" lon="6.7261">
        <ele>4.7</ele>
        <time>2023-05-16T14:06:20Z</time>
      </trkpt>
      <trkpt lat="43.38342" lon="6.72608">
        <ele>4.7</ele>
        <time>2023-05-16T14:06:22Z</time>
      </trkpt>
      <trkpt lat="43.38342" lon="6.72606">
        <ele>4.7</ele>
        <time>2023-05-16T14:06:23Z</time>
      </trkpt>
      <trkpt lat="43.38342" lon="6.72604">
        <ele>4.6</ele>
        <time>2023-05-16T14:06:24Z</time>
      </trkpt>
      <trkpt lat="43.38342" lon="6.72601">
        <ele>4.6</ele>
        <time>2023-05-16T14:06:25Z</time>
      </trkpt>
      <trkpt lat="43.38342" lon="6.726">
        <ele>4.6</ele>
        <time>2023-05-16T14:06:26Z</time>
      </trkpt>
      <trkpt lat="43.38343" lon="6.72599">
        <ele>4.6</ele>
        <time>2023-05-16T14:06:27Z</time>
      </trkpt>
      <trkpt lat="43.38343" lon="6.72597">
        <ele>4.5</ele>
        <time>2023-05-16T14:06:28Z</time>
      </trkpt>
      <trkpt lat="43.38342" lon="6.72595">
        <ele>4.5</ele>
        <time>2023-05-16T14:06:30Z</time>
      </trkpt>
      <trkpt lat="43.38341" lon="6.72594">
        <ele>4.5</ele>
        <time>2023-05-16T14:06:31Z</time>
      </trkpt>
      <trkpt lat="43.38339" lon="6.72593">
        <ele>4.4</ele>
        <time>2023-05-16T14:06:32Z</time>
      </trkpt>
      <trkpt lat="43.38339" lon="6.72592">
        <ele>4.4</ele>
        <time>2023-05-16T14:06:33Z</time>
      </trkpt>
      <trkpt lat="43.38338" lon="6.72591">
        <ele>4.4</ele>
        <time>2023-05-16T14:06:34Z</time>
      </trkpt>
      <trkpt lat="43.38337" lon="6.72591">
        <ele>4.4</ele>
        <time>2023-05-16T14:06:35Z</time>
      </trkpt>
      <trkpt lat="43.38336" lon="6.7259">
        <ele>4.3</ele>
        <time>2023-05-16T14:06:36Z</time>
      </trkpt>
      <trkpt lat="43.38335" lon="6.72591">
        <ele>4.3</ele>
        <time>2023-05-16T14:06:37Z</time>
      </trkpt>
      <trkpt lat="43.38333" lon="6.72591">
        <ele>4.3</ele>
        <time>2023-05-16T14:06:39Z</time>
      </trkpt>
      <trkpt lat="43.38332" lon="6.72591">
        <ele>4.3</ele>
        <time>2023-05-16T14:06:40Z</time>
      </trkpt>
      <trkpt lat="43.38331" lon="6.7259">
        <ele>4.3</ele>
        <time>2023-05-16T14:06:41Z</time>
      </trkpt>
      <trkpt lat="43.3833" lon="6.72589">
        <ele>4.2</ele>
        <time>2023-05-16T14:06:42Z</time>
      </trkpt>
      <trkpt lat="43.38329" lon="6.72589">
        <ele>4.2</ele>
        <time>2023-05-16T14:06:43Z</time>
      </trkpt>
      <trkpt lat="43.38327" lon="6.72589">
        <ele>4.2</ele>
        <time>2023-05-16T14:06:44Z</time>
      </trkpt>
      <trkpt lat="43.38326" lon="6.72588">
        <ele>4.2</ele>
        <time>2023-05-16T14:06:45Z</time>
      </trkpt>
      <trkpt lat="43.38325" lon="6.72587">
        <ele>4.2</ele>
        <time>2023-05-16T14:06:46Z</time>
      </trkpt>
      <trkpt lat="43.38324" lon="6.72586">
        <ele>4.2</ele>
        <time>2023-05-16T14:06:47Z</time>
      </trkpt>
      <trkpt lat="43.38323" lon="6.72586">
        <ele>4.2</ele>
        <time>2023-05-16T14:06:48Z</time>
      </trkpt>
      <trkpt lat="43.38322" lon="6.72585">
        <ele>4.2</ele>
        <time>2023-05-16T14:06:50Z</time>
      </trkpt>
      <trkpt lat="43.38322" lon="6.72585">
        <ele>4.2</ele>
        <time>2023-05-16T14:06:51Z</time>
      </trkpt>
      <trkpt lat="43.38321" lon="6.72584">
        <ele>4.2</ele>
        <time>2023-05-16T14:06:52Z</time>
      </trkpt>
      <trkpt lat="43.3832" lon="6.72584">
        <ele>4.2</ele>
        <time>2023-05-16T14:06:54Z</time>
      </trkpt>
      <trkpt lat="43.38319" lon="6.72583">
        <ele>4.2</ele>
        <time>2023-05-16T14:06:55Z</time>
      </trkpt>
      <trkpt lat="43.38318" lon="6.72583">
        <ele>4.2</ele>
        <time>2023-05-16T14:06:56Z</time>
      </trkpt>
      <trkpt lat="43.38317" lon="6.72583">
        <ele>4.2</ele>
        <time>2023-05-16T14:06:57Z</time>
      </trkpt>
      <trkpt lat="43.38316" lon="6.72583">
        <ele>4.2</ele>
        <time>2023-05-16T14:06:58Z</time>
      </trkpt>
      <trkpt lat="43.38315" lon="6.72582">
        <ele>4.2</ele>
        <time>2023-05-16T14:06:59Z</time>
      </trkpt>
      <trkpt lat="43.38314" lon="6.7258">
        <ele>4.2</ele>
        <time>2023-05-16T14:07:00Z</time>
      </trkpt>
      <trkpt lat="43.38313" lon="6.7258">
        <ele>4.2</ele>
        <time>2023-05-16T14:07:01Z</time>
      </trkpt>
      <trkpt lat="43.38312" lon="6.72579">
        <ele>4.2</ele>
        <time>2023-05-16T14:07:02Z</time>
      </trkpt>
      <trkpt lat="43.38311" lon="6.72579">
        <ele>4.2</ele>
        <time>2023-05-16T14:07:04Z</time>
      </trkpt>
      <trkpt lat="43.3831" lon="6.72579">
        <ele>4.3</ele>
        <time>2023-05-16T14:07:05Z</time>
      </trkpt>
      <trkpt lat="43.38308" lon="6.72579">
        <ele>4.3</ele>
        <time>2023-05-16T14:07:06Z</time>
      </trkpt>
      <trkpt lat="43.38308" lon="6.72578">
        <ele>4.3</ele>
        <time>2023-05-16T14:07:07Z</time>
      </trkpt>
      <trkpt lat="43.38307" lon="6.72578">
        <ele>4.3</ele>
        <time>2023-05-16T14:07:08Z</time>
      </trkpt>
      <trkpt lat="43.38306" lon="6.72577">
        <ele>4.3</ele>
        <time>2023-05-16T14:07:09Z</time>
      </trkpt>
      <trkpt lat="43.38305" lon="6.72576">
        <ele>4.3</ele>
        <time>2023-05-16T14:07:11Z</time>
      </trkpt>
      <trkpt lat="43.38304" lon="6.72575">
        <ele>4.4</ele>
        <time>2023-05-16T14:07:12Z</time>
      </trkpt>
      <trkpt lat="43.38303" lon="6.72575">
        <ele>4.4</ele>
        <time>2023-05-16T14:07:13Z</time>
      </trkpt>
      <trkpt lat="43.38302" lon="6.72575">
        <ele>4.4</ele>
        <time>2023-05-16T14:07:15Z</time>
      </trkpt>
      <trkpt lat="43.38301" lon="6.72575">
        <ele>4.4</ele>
        <time>2023-05-16T14:07:16Z</time>
      </trkpt>
      <trkpt lat="43.383" lon="6.72576">
        <ele>4.4</ele>
        <time>2023-05-16T14:07:17Z</time>
      </trkpt>
      <trkpt lat="43.38299" lon="6.72577">
        <ele>4.4</ele>
        <time>2023-05-16T14:07:18Z</time>
      </trkpt>
      <trkpt lat="43.38298" lon="6.72577">
        <ele>4.4</ele>
        <time>2023-05-16T14:07:19Z</time>
      </trkpt>
      <trkpt lat="43.38297" lon="6.72578">
        <ele>4.4</ele>
        <time>2023-05-16T14:07:20Z</time>
      </trkpt>
      <trkpt lat="43.38296" lon="6.72579">
        <ele>4.4</ele>
        <time>2023-05-16T14:07:21Z</time>
      </trkpt>
      <trkpt lat="43.38295" lon="6.72579">
        <ele>4.4</ele>
        <time>2023-05-16T14:07:23Z</time>
      </trkpt>
      <trkpt lat="43.38294" lon="6.72579">
        <ele>4.4</ele>
        <time>2023-05-16T14:07:24Z</time>
      </trkpt>
      <trkpt lat="43.38293" lon="6.72578">
        <ele>4.4</ele>
        <time>2023-05-16T14:07:25Z</time>
      </trkpt>
      <trkpt lat="43.38292" lon="6.72578">
        <ele>4.5</ele>
        <time>2023-05-16T14:07:26Z</time>
      </trkpt>
      <trkpt lat="43.38291" lon="6.72577">
        <ele>4.5</ele>
        <time>2023-05-16T14:07:27Z</time>
      </trkpt>
      <trkpt lat="43.3829" lon="6.72577">
        <ele>4.5</ele>
        <time>2023-05-16T14:07:28Z</time>
      </trkpt>
      <trkpt lat="43.38289" lon="6.72577">
        <ele>4.5</ele>
        <time>2023-05-16T14:07:29Z</time>
      </trkpt>
      <trkpt lat="43.38288" lon="6.72577">
        <ele>4.5</ele>
        <time>2023-05-16T14:07:30Z</time>
      </trkpt>
      <trkpt lat="43.38287" lon="6.72575">
        <ele>4.5</ele>
        <time>2023-05-16T14:07:32Z</time>
      </trkpt>
      <trkpt lat="43.38286" lon="6.72574">
        <ele>4.5</ele>
        <time>2023-05-16T14:07:33Z</time>
      </trkpt>
      <trkpt lat="43.38285" lon="6.72572">
        <ele>4.5</ele>
        <time>2023-05-16T14:07:35Z</time>
      </trkpt>
      <trkpt lat="43.38284" lon="6.72572">
        <ele>4.5</ele>
        <time>2023-05-16T14:07:36Z</time>
      </trkpt>
      <trkpt lat="43.38283" lon="6.72571">
        <ele>4.5</ele>
        <time>2023-05-16T14:07:37Z</time>
      </trkpt>
      <trkpt lat="43.38281" lon="6.72571">
        <ele>4.5</ele>
        <time>2023-05-16T14:07:38Z</time>
      </trkpt>
      <trkpt lat="43.38279" lon="6.72572">
        <ele>4.6</ele>
        <time>2023-05-16T14:07:39Z</time>
      </trkpt>
      <trkpt lat="43.38279" lon="6.72571">
        <ele>4.6</ele>
        <time>2023-05-16T14:07:41Z</time>
      </trkpt>
      <trkpt lat="43.38278" lon="6.72571">
        <ele>4.6</ele>
        <time>2023-05-16T14:07:42Z</time>
      </trkpt>
      <trkpt lat="43.38277" lon="6.72571">
        <ele>4.6</ele>
        <time>2023-05-16T14:07:43Z</time>
      </trkpt>
      <trkpt lat="43.38275" lon="6.72572">
        <ele>4.6</ele>
        <time>2023-05-16T14:07:44Z</time>
      </trkpt>
      <trkpt lat="43.38274" lon="6.72572">
        <ele>4.6</ele>
        <time>2023-05-16T14:07:45Z</time>
      </trkpt>
      <trkpt lat="43.38273" lon="6.72573">
        <ele>4.6</ele>
        <time>2023-05-16T14:07:46Z</time>
      </trkpt>
      <trkpt lat="43.38272" lon="6.72573">
        <ele>4.6</ele>
        <time>2023-05-16T14:07:47Z</time>
      </trkpt>
      <trkpt lat="43.38271" lon="6.72574">
        <ele>4.7</ele>
        <time>2023-05-16T14:07:49Z</time>
      </trkpt>
      <trkpt lat="43.3827" lon="6.72575">
        <ele>4.7</ele>
        <time>2023-05-16T14:07:50Z</time>
      </trkpt>
      <trkpt lat="43.38269" lon="6.72576">
        <ele>4.7</ele>
        <time>2023-05-16T14:07:51Z</time>
      </trkpt>
      <trkpt lat="43.38268" lon="6.72577">
        <ele>4.7</ele>
        <time>2023-05-16T14:07:52Z</time>
      </trkpt>
      <trkpt lat="43.38267" lon="6.72577">
        <ele>4.8</ele>
        <time>2023-05-16T14:07:53Z</time>
      </trkpt>
      <trkpt lat="43.38266" lon="6.72578">
        <ele>4.8</ele>
        <time>2023-05-16T14:07:54Z</time>
      </trkpt>
      <trkpt lat="43.38265" lon="6.72579">
        <ele>4.8</ele>
        <time>2023-05-16T14:07:55Z</time>
      </trkpt>
      <trkpt lat="43.38264" lon="6.7258">
        <ele>4.9</ele>
        <time>2023-05-16T14:07:57Z</time>
      </trkpt>
      <trkpt lat="43.38264" lon="6.72581">
        <ele>4.9</ele>
        <time>2023-05-16T14:07:58Z</time>
      </trkpt>
      <trkpt lat="43.38263" lon="6.72582">
        <ele>4.9</ele>
        <time>2023-05-16T14:07:59Z</time>
      </trkpt>
      <trkpt lat="43.38262" lon="6.72583">
        <ele>4.9</ele>
        <time>2023-05-16T14:08:00Z</time>
      </trkpt>
      <trkpt lat="43.38262" lon="6.72584">
        <ele>4.9</ele>
        <time>2023-05-16T14:08:01Z</time>
      </trkpt>
      <trkpt lat="43.38261" lon="6.72585">
        <ele>5</ele>
        <time>2023-05-16T14:08:02Z</time>
      </trkpt>
      <trkpt lat="43.3826" lon="6.72586">
        <ele>5</ele>
        <time>2023-05-16T14:08:03Z</time>
      </trkpt>
      <trkpt lat="43.38259" lon="6.72587">
        <ele>5.1</ele>
        <time>2023-05-16T14:08:05Z</time>
      </trkpt>
      <trkpt lat="43.38259" lon="6.72587">
        <ele>5.1</ele>
        <time>2023-05-16T14:08:06Z</time>
      </trkpt>
      <trkpt lat="43.38258" lon="6.72588">
        <ele>5.1</ele>
        <time>2023-05-16T14:08:07Z</time>
      </trkpt>
      <trkpt lat="43.38258" lon="6.7259">
        <ele>5.2</ele>
        <time>2023-05-16T14:08:08Z</time>
      </trkpt>
      <trkpt lat="43.38258" lon="6.72591">
        <ele>5.2</ele>
        <time>2023-05-16T14:08:09Z</time>
      </trkpt>
      <trkpt lat="43.38258" lon="6.72592">
        <ele>5.2</ele>
        <time>2023-05-16T14:08:10Z</time>
      </trkpt>
      <trkpt lat="43.38259" lon="6.72592">
        <ele>5.3</ele>
        <time>2023-05-16T14:08:12Z</time>
      </trkpt>
      <trkpt lat="43.38259" lon="6.72592">
        <ele>5.3</ele>
        <time>2023-05-16T14:08:13Z</time>
      </trkpt>
      <trkpt lat="43.38259" lon="6.72592">
        <ele>5.3</ele>
        <time>2023-05-16T14:08:14Z</time>
      </trkpt>
      <trkpt lat="43.38259" lon="6.72592">
        <ele>5.3</ele>
        <time>2023-05-16T14:08:15Z</time>
      </trkpt>
      <trkpt lat="43.38259" lon="6.72592">
        <ele>5.3</ele>
        <time>2023-05-16T14:08:16Z</time>
      </trkpt>
      <trkpt lat="43.38258" lon="6.72592">
        <ele>5.3</ele>
        <time>2023-05-16T14:08:18Z</time>
      </trkpt>
      <trkpt lat="43.38258" lon="6.72592">
        <ele>5.3</ele>
        <time>2023-05-16T14:08:19Z</time>
      </trkpt>
      <trkpt lat="43.38258" lon="6.72591">
        <ele>5.3</ele>
        <time>2023-05-16T14:08:20Z</time>
      </trkpt>
      <trkpt lat="43.38258" lon="6.72591">
        <ele>5.3</ele>
        <time>2023-05-16T14:08:22Z</time>
      </trkpt>
      <trkpt lat="43.38258" lon="6.72591">
        <ele>5.3</ele>
        <time>2023-05-16T14:08:23Z</time>
      </trkpt>
      <trkpt lat="43.38258" lon="6.7259">
        <ele>5.4</ele>
        <time>2023-05-16T14:08:24Z</time>
      </trkpt>
      <trkpt lat="43.38258" lon="6.7259">
        <ele>5.4</ele>
        <time>2023-05-16T14:08:26Z</time>
      </trkpt>
      <trkpt lat="43.38259" lon="6.7259">
        <ele>5.4</ele>
        <time>2023-05-16T14:08:27Z</time>
      </trkpt>
      <trkpt lat="43.38259" lon="6.7259">
        <ele>5.4</ele>
        <time>2023-05-16T14:08:28Z</time>
      </trkpt>
      <trkpt lat="43.38259" lon="6.7259">
        <ele>5.4</ele>
        <time>2023-05-16T14:08:29Z</time>
      </trkpt>
      <trkpt lat="43.38259" lon="6.7259">
        <ele>5.4</ele>
        <time>2023-05-16T14:08:31Z</time>
      </trkpt>
      <trkpt lat="43.38258" lon="6.7259">
        <ele>5.4</ele>
        <time>2023-05-16T14:08:32Z</time>
      </trkpt>
      <trkpt lat="43.38258" lon="6.7259">
        <ele>5.4</ele>
        <time>2023-05-16T14:08:33Z</time>
      </trkpt>
      <trkpt lat="43.38257" lon="6.72591">
        <ele>5.5</ele>
        <time>2023-05-16T14:08:35Z</time>
      </trkpt>
      <trkpt lat="43.38256" lon="6.72591">
        <ele>5.5</ele>
        <time>2023-05-16T14:08:36Z</time>
      </trkpt>
      <trkpt lat="43.38255" lon="6.72592">
        <ele>5.5</ele>
        <time>2023-05-16T14:08:37Z</time>
      </trkpt>
      <trkpt lat="43.38253" lon="6.72592">
        <ele>5.6</ele>
        <time>2023-05-16T14:08:38Z</time>
      </trkpt>
      <trkpt lat="43.38251" lon="6.72593">
        <ele>5.7</ele>
        <time>2023-05-16T14:08:39Z</time>
      </trkpt>
      <trkpt lat="43.38249" lon="6.72593">
        <ele>5.7</ele>
        <time>2023-05-16T14:08:40Z</time>
      </trkpt>
      <trkpt lat="43.38248" lon="6.72593">
        <ele>5.8</ele>
        <time>2023-05-16T14:08:41Z</time>
      </trkpt>
      <trkpt lat="43.38247" lon="6.72593">
        <ele>5.8</ele>
        <time>2023-05-16T14:08:42Z</time>
      </trkpt>
      <trkpt lat="43.38246" lon="6.72594">
        <ele>5.8</ele>
        <time>2023-05-16T14:08:44Z</time>
      </trkpt>
      <trkpt lat="43.38245" lon="6.72594">
        <ele>5.9</ele>
        <time>2023-05-16T14:08:45Z</time>
      </trkpt>
      <trkpt lat="43.38244" lon="6.72594">
        <ele>5.9</ele>
        <time>2023-05-16T14:08:46Z</time>
      </trkpt>
      <trkpt lat="43.38243" lon="6.72594">
        <ele>5.9</ele>
        <time>2023-05-16T14:08:47Z</time>
      </trkpt>
      <trkpt lat="43.38243" lon="6.72594">
        <ele>5.9</ele>
        <time>2023-05-16T14:08:48Z</time>
      </trkpt>
      <trkpt lat="43.38242" lon="6.72594">
        <ele>5.9</ele>
        <time>2023-05-16T14:08:49Z</time>
      </trkpt>
      <trkpt lat="43.38241" lon="6.72593">
        <ele>6</ele>
        <time>2023-05-16T14:08:50Z</time>
      </trkpt>
      <trkpt lat="43.38241" lon="6.72592">
        <ele>6</ele>
        <time>2023-05-16T14:08:52Z</time>
      </trkpt>
      <trkpt lat="43.3824" lon="6.72591">
        <ele>6</ele>
        <time>2023-05-16T14:08:53Z</time>
      </trkpt>
      <trkpt lat="43.3824" lon="6.7259">
        <ele>6</ele>
        <time>2023-05-16T14:08:55Z</time>
      </trkpt>
      <trkpt lat="43.3824" lon="6.7259">
        <ele>6</ele>
        <time>2023-05-16T14:08:56Z</time>
      </trkpt>
      <trkpt lat="43.3824" lon="6.72589">
        <ele>6</ele>
        <time>2023-05-16T14:08:57Z</time>
      </trkpt>
      <trkpt lat="43.3824" lon="6.72588">
        <ele>6</ele>
        <time>2023-05-16T14:08:59Z</time>
      </trkpt>
      <trkpt lat="43.3824" lon="6.72587">
        <ele>6.1</ele>
        <time>2023-05-16T14:09:00Z</time>
      </trkpt>
      <trkpt lat="43.38239" lon="6.72586">
        <ele>6.1</ele>
        <time>2023-05-16T14:09:01Z</time>
      </trkpt>
      <trkpt lat="43.38239" lon="6.72585">
        <ele>6.1</ele>
        <time>2023-05-16T14:09:02Z</time>
      </trkpt>
      <trkpt lat="43.38238" lon="6.72585">
        <ele>6.1</ele>
        <time>2023-05-16T14:09:03Z</time>
      </trkpt>
      <trkpt lat="43.38237" lon="6.72585">
        <ele>6.1</ele>
        <time>2023-05-16T14:09:04Z</time>
      </trkpt>
      <trkpt lat="43.38235" lon="6.72583">
        <ele>6.2</ele>
        <time>2023-05-16T14:09:05Z</time>
      </trkpt>
      <trkpt lat="43.38234" lon="6.72583">
        <ele>6.2</ele>
        <time>2023-05-16T14:09:06Z</time>
      </trkpt>
      <trkpt lat="43.38233" lon="6.72583">
        <ele>6.2</ele>
        <time>2023-05-16T14:09:08Z</time>
      </trkpt>
      <trkpt lat="43.38231" lon="6.72583">
        <ele>6.2</ele>
        <time>2023-05-16T14:09:09Z</time>
      </trkpt>
      <trkpt lat="43.38229" lon="6.72586">
        <ele>6.3</ele>
        <time>2023-05-16T14:09:10Z</time>
      </trkpt>
      <trkpt lat="43.38228" lon="6.72587">
        <ele>6.3</ele>
        <time>2023-05-16T14:09:11Z</time>
      </trkpt>
      <trkpt lat="43.38228" lon="6.72589">
        <ele>6.3</ele>
        <time>2023-05-16T14:09:12Z</time>
      </trkpt>
      <trkpt lat="43.38227" lon="6.7259">
        <ele>6.3</ele>
        <time>2023-05-16T14:09:13Z</time>
      </trkpt>
      <trkpt lat="43.38225" lon="6.72593">
        <ele>6.3</ele>
        <time>2023-05-16T14:09:14Z</time>
      </trkpt>
      <trkpt lat="43.38224" lon="6.72594">
        <ele>6.4</ele>
        <time>2023-05-16T14:09:16Z</time>
      </trkpt>
      <trkpt lat="43.38224" lon="6.72594">
        <ele>6.4</ele>
        <time>2023-05-16T14:09:17Z</time>
      </trkpt>
      <trkpt lat="43.38223" lon="6.72595">
        <ele>6.4</ele>
        <time>2023-05-16T14:09:18Z</time>
      </trkpt>
      <trkpt lat="43.38222" lon="6.72595">
        <ele>6.4</ele>
        <time>2023-05-16T14:09:19Z</time>
      </trkpt>
      <trkpt lat="43.38222" lon="6.72596">
        <ele>6.4</ele>
        <time>2023-05-16T14:09:20Z</time>
      </trkpt>
      <trkpt lat="43.3822" lon="6.72595">
        <ele>6.4</ele>
        <time>2023-05-16T14:09:22Z</time>
      </trkpt>
      <trkpt lat="43.38219" lon="6.72594">
        <ele>6.4</ele>
        <time>2023-05-16T14:09:24Z</time>
      </trkpt>
      <trkpt lat="43.38217" lon="6.72593">
        <ele>6.4</ele>
        <time>2023-05-16T14:09:25Z</time>
      </trkpt>
      <trkpt lat="43.38217" lon="6.72593">
        <ele>6.4</ele>
        <time>2023-05-16T14:09:26Z</time>
      </trkpt>
      <trkpt lat="43.38216" lon="6.72591">
        <ele>6.4</ele>
        <time>2023-05-16T14:09:27Z</time>
      </trkpt>
      <trkpt lat="43.38216" lon="6.7259">
        <ele>6.4</ele>
        <time>2023-05-16T14:09:28Z</time>
      </trkpt>
      <trkpt lat="43.38215" lon="6.72588">
        <ele>6.5</ele>
        <time>2023-05-16T14:09:29Z</time>
      </trkpt>
      <trkpt lat="43.38215" lon="6.72586">
        <ele>6.5</ele>
        <time>2023-05-16T14:09:31Z</time>
      </trkpt>
      <trkpt lat="43.38214" lon="6.72586">
        <ele>6.5</ele>
        <time>2023-05-16T14:09:32Z</time>
      </trkpt>
      <trkpt lat="43.38213" lon="6.72587">
        <ele>6.5</ele>
        <time>2023-05-16T14:09:33Z</time>
      </trkpt>
      <trkpt lat="43.38212" lon="6.72587">
        <ele>6.5</ele>
        <time>2023-05-16T14:09:34Z</time>
      </trkpt>
      <trkpt lat="43.38212" lon="6.72587">
        <ele>6.5</ele>
        <time>2023-05-16T14:09:35Z</time>
      </trkpt>
      <trkpt lat="43.38213" lon="6.72587">
        <ele>6.5</ele>
        <time>2023-05-16T14:09:37Z</time>
      </trkpt>
      <trkpt lat="43.38213" lon="6.72587">
        <ele>6.5</ele>
        <time>2023-05-16T14:09:38Z</time>
      </trkpt>
      <trkpt lat="43.38214" lon="6.72588">
        <ele>6.5</ele>
        <time>2023-05-16T14:09:39Z</time>
      </trkpt>
      <trkpt lat="43.38214" lon="6.72588">
        <ele>6.5</ele>
        <time>2023-05-16T14:09:41Z</time>
      </trkpt>
      <trkpt lat="43.38215" lon="6.72588">
        <ele>6.5</ele>
        <time>2023-05-16T14:09:42Z</time>
      </trkpt>
      <trkpt lat="43.38215" lon="6.72588">
        <ele>6.5</ele>
        <time>2023-05-16T14:09:43Z</time>
      </trkpt>
      <trkpt lat="43.38215" lon="6.72588">
        <ele>6.5</ele>
        <time>2023-05-16T14:09:44Z</time>
      </trkpt>
      <trkpt lat="43.38215" lon="6.72588">
        <ele>6.5</ele>
        <time>2023-05-16T14:09:46Z</time>
      </trkpt>
      <trkpt lat="43.38215" lon="6.72588">
        <ele>6.5</ele>
        <time>2023-05-16T14:09:47Z</time>
      </trkpt>
      <trkpt lat="43.38215" lon="6.72588">
        <ele>6.5</ele>
        <time>2023-05-16T14:09:48Z</time>
      </trkpt>
      <trkpt lat="43.38215" lon="6.72589">
        <ele>6.5</ele>
        <time>2023-05-16T14:09:49Z</time>
      </trkpt>
      <trkpt lat="43.38214" lon="6.72589">
        <ele>6.5</ele>
        <time>2023-05-16T14:09:50Z</time>
      </trkpt>
      <trkpt lat="43.38213" lon="6.72589">
        <ele>6.5</ele>
        <time>2023-05-16T14:09:52Z</time>
      </trkpt>
      <trkpt lat="43.38212" lon="6.72589">
        <ele>6.4</ele>
        <time>2023-05-16T14:09:53Z</time>
      </trkpt>
      <trkpt lat="43.38212" lon="6.7259">
        <ele>6.4</ele>
        <time>2023-05-16T14:09:54Z</time>
      </trkpt>
      <trkpt lat="43.38211" lon="6.7259">
        <ele>6.4</ele>
        <time>2023-05-16T14:09:55Z</time>
      </trkpt>
      <trkpt lat="43.38211" lon="6.7259">
        <ele>6.4</ele>
        <time>2023-05-16T14:09:56Z</time>
      </trkpt>
      <trkpt lat="43.3821" lon="6.7259">
        <ele>6.4</ele>
        <time>2023-05-16T14:09:57Z</time>
      </trkpt>
      <trkpt lat="43.3821" lon="6.7259">
        <ele>6.4</ele>
        <time>2023-05-16T14:09:58Z</time>
      </trkpt>
      <trkpt lat="43.38207" lon="6.72592">
        <ele>6.4</ele>
        <time>2023-05-16T14:09:59Z</time>
      </trkpt>
      <trkpt lat="43.38206" lon="6.72593">
        <ele>6.4</ele>
        <time>2023-05-16T14:10:00Z</time>
      </trkpt>
      <trkpt lat="43.38206" lon="6.72593">
        <ele>6.4</ele>
        <time>2023-05-16T14:10:02Z</time>
      </trkpt>
      <trkpt lat="43.38205" lon="6.72591">
        <ele>6.3</ele>
        <time>2023-05-16T14:10:03Z</time>
      </trkpt>
      <trkpt lat="43.38204" lon="6.7259">
        <ele>6.3</ele>
        <time>2023-05-16T14:10:04Z</time>
      </trkpt>
      <trkpt lat="43.38204" lon="6.72585">
        <ele>6.3</ele>
        <time>2023-05-16T14:10:05Z</time>
      </trkpt>
      <trkpt lat="43.38205" lon="6.72582">
        <ele>6.2</ele>
        <time>2023-05-16T14:10:07Z</time>
      </trkpt>
      <trkpt lat="43.38205" lon="6.72581">
        <ele>6.2</ele>
        <time>2023-05-16T14:10:08Z</time>
      </trkpt>
      <trkpt lat="43.38205" lon="6.72581">
        <ele>6.2</ele>
        <time>2023-05-16T14:10:09Z</time>
      </trkpt>
      <trkpt lat="43.38206" lon="6.72582">
        <ele>6.2</ele>
        <time>2023-05-16T14:10:10Z</time>
      </trkpt>
      <trkpt lat="43.38206" lon="6.72583">
        <ele>6.2</ele>
        <time>2023-05-16T14:10:11Z</time>
      </trkpt>
      <trkpt lat="43.38206" lon="6.72583">
        <ele>6.2</ele>
        <time>2023-05-16T14:10:13Z</time>
      </trkpt>
      <trkpt lat="43.38207" lon="6.72583">
        <ele>6.2</ele>
        <time>2023-05-16T14:10:14Z</time>
      </trkpt>
      <trkpt lat="43.38207" lon="6.72582">
        <ele>6.1</ele>
        <time>2023-05-16T14:10:15Z</time>
      </trkpt>
      <trkpt lat="43.38206" lon="6.7258">
        <ele>6.1</ele>
        <time>2023-05-16T14:10:16Z</time>
      </trkpt>
      <trkpt lat="43.38206" lon="6.72577">
        <ele>6.1</ele>
        <time>2023-05-16T14:10:18Z</time>
      </trkpt>
      <trkpt lat="43.38206" lon="6.72576">
        <ele>6.1</ele>
        <time>2023-05-16T14:10:19Z</time>
      </trkpt>
      <trkpt lat="43.38206" lon="6.72575">
        <ele>6.1</ele>
        <time>2023-05-16T14:10:20Z</time>
      </trkpt>
      <trkpt lat="43.38206" lon="6.72574">
        <ele>6</ele>
        <time>2023-05-16T14:10:21Z</time>
      </trkpt>
      <trkpt lat="43.38206" lon="6.72573">
        <ele>6</ele>
        <time>2023-05-16T14:10:22Z</time>
      </trkpt>
      <trkpt lat="43.38205" lon="6.72572">
        <ele>6</ele>
        <time>2023-05-16T14:10:24Z</time>
      </trkpt>
      <trkpt lat="43.38204" lon="6.7257">
        <ele>6</ele>
        <time>2023-05-16T14:10:25Z</time>
      </trkpt>
      <trkpt lat="43.38203" lon="6.7257">
        <ele>5.9</ele>
        <time>2023-05-16T14:10:27Z</time>
      </trkpt>
      <trkpt lat="43.38202" lon="6.7257">
        <ele>5.9</ele>
        <time>2023-05-16T14:10:28Z</time>
      </trkpt>
      <trkpt lat="43.38202" lon="6.72571">
        <ele>5.9</ele>
        <time>2023-05-16T14:10:29Z</time>
      </trkpt>
      <trkpt lat="43.38202" lon="6.72571">
        <ele>5.9</ele>
        <time>2023-05-16T14:10:31Z</time>
      </trkpt>
      <trkpt lat="43.38202" lon="6.72571">
        <ele>5.9</ele>
        <time>2023-05-16T14:10:32Z</time>
      </trkpt>
      <trkpt lat="43.38202" lon="6.72571">
        <ele>5.9</ele>
        <time>2023-05-16T14:10:33Z</time>
      </trkpt>
      <trkpt lat="43.38202" lon="6.72572">
        <ele>5.9</ele>
        <time>2023-05-16T14:10:35Z</time>
      </trkpt>
      <trkpt lat="43.38202" lon="6.72572">
        <ele>5.9</ele>
        <time>2023-05-16T14:10:36Z</time>
      </trkpt>
      <trkpt lat="43.38202" lon="6.72572">
        <ele>5.9</ele>
        <time>2023-05-16T14:10:37Z</time>
      </trkpt>
      <trkpt lat="43.38201" lon="6.72572">
        <ele>5.9</ele>
        <time>2023-05-16T14:10:39Z</time>
      </trkpt>
      <trkpt lat="43.38201" lon="6.72572">
        <ele>5.9</ele>
        <time>2023-05-16T14:10:40Z</time>
      </trkpt>
      <trkpt lat="43.38201" lon="6.72572">
        <ele>5.9</ele>
        <time>2023-05-16T14:10:41Z</time>
      </trkpt>
      <trkpt lat="43.38201" lon="6.72572">
        <ele>5.9</ele>
        <time>2023-05-16T14:10:42Z</time>
      </trkpt>
      <trkpt lat="43.38201" lon="6.72571">
        <ele>5.9</ele>
        <time>2023-05-16T14:10:43Z</time>
      </trkpt>
      <trkpt lat="43.38201" lon="6.7257">
        <ele>5.9</ele>
        <time>2023-05-16T14:10:44Z</time>
      </trkpt>
      <trkpt lat="43.38202" lon="6.72568">
        <ele>5.8</ele>
        <time>2023-05-16T14:10:46Z</time>
      </trkpt>
      <trkpt lat="43.38202" lon="6.72566">
        <ele>5.8</ele>
        <time>2023-05-16T14:10:48Z</time>
      </trkpt>
      <trkpt lat="43.38203" lon="6.72566">
        <ele>5.8</ele>
        <time>2023-05-16T14:10:49Z</time>
      </trkpt>
      <trkpt lat="43.38205" lon="6.72566">
        <ele>5.8</ele>
        <time>2023-05-16T14:10:50Z</time>
      </trkpt>
      <trkpt lat="43.38206" lon="6.72564">
        <ele>5.8</ele>
        <time>2023-05-16T14:10:51Z</time>
      </trkpt>
      <trkpt lat="43.38206" lon="6.72563">
        <ele>5.8</ele>
        <time>2023-05-16T14:10:53Z</time>
      </trkpt>
      <trkpt lat="43.38207" lon="6.72562">
        <ele>5.8</ele>
        <time>2023-05-16T14:10:54Z</time>
      </trkpt>
      <trkpt lat="43.38207" lon="6.7256">
        <ele>5.8</ele>
        <time>2023-05-16T14:10:56Z</time>
      </trkpt>
      <trkpt lat="43.38207" lon="6.7256">
        <ele>5.8</ele>
        <time>2023-05-16T14:10:57Z</time>
      </trkpt>
      <trkpt lat="43.38207" lon="6.7256">
        <ele>5.8</ele>
        <time>2023-05-16T14:10:58Z</time>
      </trkpt>
      <trkpt lat="43.38206" lon="6.72559">
        <ele>5.8</ele>
        <time>2023-05-16T14:10:59Z</time>
      </trkpt>
      <trkpt lat="43.38206" lon="6.72558">
        <ele>5.8</ele>
        <time>2023-05-16T14:11:01Z</time>
      </trkpt>
      <trkpt lat="43.38206" lon="6.72558">
        <ele>5.8</ele>
        <time>2023-05-16T14:11:02Z</time>
      </trkpt>
      <trkpt lat="43.38205" lon="6.72557">
        <ele>5.8</ele>
        <time>2023-05-16T14:11:03Z</time>
      </trkpt>
      <trkpt lat="43.38205" lon="6.72555">
        <ele>5.8</ele>
        <time>2023-05-16T14:11:05Z</time>
      </trkpt>
      <trkpt lat="43.38204" lon="6.72555">
        <ele>5.9</ele>
        <time>2023-05-16T14:11:06Z</time>
      </trkpt>
      <trkpt lat="43.38203" lon="6.72554">
        <ele>5.9</ele>
        <time>2023-05-16T14:11:07Z</time>
      </trkpt>
      <trkpt lat="43.38202" lon="6.72554">
        <ele>5.9</ele>
        <time>2023-05-16T14:11:09Z</time>
      </trkpt>
      <trkpt lat="43.38202" lon="6.72555">
        <ele>5.9</ele>
        <time>2023-05-16T14:11:10Z</time>
      </trkpt>
      <trkpt lat="43.38202" lon="6.72555">
        <ele>5.9</ele>
        <time>2023-05-16T14:11:11Z</time>
      </trkpt>
      <trkpt lat="43.38202" lon="6.72556">
        <ele>5.9</ele>
        <time>2023-05-16T14:11:13Z</time>
      </trkpt>
      <trkpt lat="43.38202" lon="6.72556">
        <ele>5.9</ele>
        <time>2023-05-16T14:11:14Z</time>
      </trkpt>
      <trkpt lat="43.38201" lon="6.72557">
        <ele>5.9</ele>
        <time>2023-05-16T14:11:15Z</time>
      </trkpt>
      <trkpt lat="43.382" lon="6.72557">
        <ele>5.9</ele>
        <time>2023-05-16T14:11:16Z</time>
      </trkpt>
      <trkpt lat="43.38199" lon="6.72558">
        <ele>6</ele>
        <time>2023-05-16T14:11:17Z</time>
      </trkpt>
      <trkpt lat="43.38198" lon="6.72557">
        <ele>6</ele>
        <time>2023-05-16T14:11:18Z</time>
      </trkpt>
      <trkpt lat="43.38196" lon="6.72559">
        <ele>6.1</ele>
        <time>2023-05-16T14:11:19Z</time>
      </trkpt>
      <trkpt lat="43.38195" lon="6.72559">
        <ele>6.1</ele>
        <time>2023-05-16T14:11:21Z</time>
      </trkpt>
      <trkpt lat="43.38195" lon="6.7256">
        <ele>6.1</ele>
        <time>2023-05-16T14:11:22Z</time>
      </trkpt>
      <trkpt lat="43.38194" lon="6.72561">
        <ele>6.1</ele>
        <time>2023-05-16T14:11:23Z</time>
      </trkpt>
      <trkpt lat="43.38193" lon="6.72563">
        <ele>6.2</ele>
        <time>2023-05-16T14:11:24Z</time>
      </trkpt>
      <trkpt lat="43.38192" lon="6.72564">
        <ele>6.2</ele>
        <time>2023-05-16T14:11:25Z</time>
      </trkpt>
      <trkpt lat="43.38191" lon="6.72564">
        <ele>6.2</ele>
        <time>2023-05-16T14:11:26Z</time>
      </trkpt>
      <trkpt lat="43.38191" lon="6.72564">
        <ele>6.2</ele>
        <time>2023-05-16T14:11:28Z</time>
      </trkpt>
      <trkpt lat="43.38191" lon="6.72563">
        <ele>6.2</ele>
        <time>2023-05-16T14:11:29Z</time>
      </trkpt>
      <trkpt lat="43.38191" lon="6.72563">
        <ele>6.3</ele>
        <time>2023-05-16T14:11:30Z</time>
      </trkpt>
      <trkpt lat="43.38191" lon="6.72563">
        <ele>6.3</ele>
        <time>2023-05-16T14:11:31Z</time>
      </trkpt>
      <trkpt lat="43.38191" lon="6.72563">
        <ele>6.3</ele>
        <time>2023-05-16T14:11:33Z</time>
      </trkpt>
      <trkpt lat="43.3819" lon="6.72564">
        <ele>6.3</ele>
        <time>2023-05-16T14:11:34Z</time>
      </trkpt>
      <trkpt lat="43.38189" lon="6.72566">
        <ele>6.3</ele>
        <time>2023-05-16T14:11:35Z</time>
      </trkpt>
      <trkpt lat="43.38188" lon="6.72567">
        <ele>6.3</ele>
        <time>2023-05-16T14:11:36Z</time>
      </trkpt>
      <trkpt lat="43.38188" lon="6.72569">
        <ele>6.4</ele>
        <time>2023-05-16T14:11:37Z</time>
      </trkpt>
      <trkpt lat="43.38188" lon="6.7257">
        <ele>6.4</ele>
        <time>2023-05-16T14:11:39Z</time>
      </trkpt>
      <trkpt lat="43.38188" lon="6.72572">
        <ele>6.4</ele>
        <time>2023-05-16T14:11:40Z</time>
      </trkpt>
      <trkpt lat="43.38187" lon="6.72572">
        <ele>6.4</ele>
        <time>2023-05-16T14:11:41Z</time>
      </trkpt>
      <trkpt lat="43.38187" lon="6.72573">
        <ele>6.4</ele>
        <time>2023-05-16T14:11:42Z</time>
      </trkpt>
      <trkpt lat="43.38187" lon="6.72574">
        <ele>6.4</ele>
        <time>2023-05-16T14:11:43Z</time>
      </trkpt>
      <trkpt lat="43.38188" lon="6.72575">
        <ele>6.5</ele>
        <time>2023-05-16T14:11:45Z</time>
      </trkpt>
      <trkpt lat="43.38188" lon="6.72576">
        <ele>6.5</ele>
        <time>2023-05-16T14:11:46Z</time>
      </trkpt>
      <trkpt lat="43.38188" lon="6.72578">
        <ele>6.5</ele>
        <time>2023-05-16T14:11:47Z</time>
      </trkpt>
      <trkpt lat="43.38188" lon="6.72579">
        <ele>6.5</ele>
        <time>2023-05-16T14:11:48Z</time>
      </trkpt>
      <trkpt lat="43.38186" lon="6.72581">
        <ele>6.5</ele>
        <time>2023-05-16T14:11:50Z</time>
      </trkpt>
      <trkpt lat="43.38186" lon="6.72581">
        <ele>6.5</ele>
        <time>2023-05-16T14:11:51Z</time>
      </trkpt>
      <trkpt lat="43.38185" lon="6.72582">
        <ele>6.5</ele>
        <time>2023-05-16T14:11:52Z</time>
      </trkpt>
      <trkpt lat="43.38184" lon="6.72583">
        <ele>6.6</ele>
        <time>2023-05-16T14:11:53Z</time>
      </trkpt>
      <trkpt lat="43.38183" lon="6.72584">
        <ele>6.6</ele>
        <time>2023-05-16T14:11:54Z</time>
      </trkpt>
      <trkpt lat="43.38182" lon="6.72585">
        <ele>6.6</ele>
        <time>2023-05-16T14:11:55Z</time>
      </trkpt>
      <trkpt lat="43.38181" lon="6.72584">
        <ele>6.6</ele>
        <time>2023-05-16T14:11:56Z</time>
      </trkpt>
      <trkpt lat="43.3818" lon="6.72584">
        <ele>6.6</ele>
        <time>2023-05-16T14:11:57Z</time>
      </trkpt>
      <trkpt lat="43.38179" lon="6.72583">
        <ele>6.6</ele>
        <time>2023-05-16T14:11:58Z</time>
      </trkpt>
      <trkpt lat="43.38177" lon="6.72583">
        <ele>6.6</ele>
        <time>2023-05-16T14:11:59Z</time>
      </trkpt>
      <trkpt lat="43.38175" lon="6.72584">
        <ele>6.7</ele>
        <time>2023-05-16T14:12:01Z</time>
      </trkpt>
      <trkpt lat="43.38174" lon="6.72584">
        <ele>6.7</ele>
        <time>2023-05-16T14:12:03Z</time>
      </trkpt>
      <trkpt lat="43.38173" lon="6.72583">
        <ele>6.7</ele>
        <time>2023-05-16T14:12:04Z</time>
      </trkpt>
      <trkpt lat="43.38172" lon="6.72583">
        <ele>6.7</ele>
        <time>2023-05-16T14:12:06Z</time>
      </trkpt>
      <trkpt lat="43.38171" lon="6.72584">
        <ele>6.7</ele>
        <time>2023-05-16T14:12:07Z</time>
      </trkpt>
      <trkpt lat="43.38171" lon="6.72583">
        <ele>6.7</ele>
        <time>2023-05-16T14:12:08Z</time>
      </trkpt>
      <trkpt lat="43.38171" lon="6.72583">
        <ele>6.7</ele>
        <time>2023-05-16T14:12:10Z</time>
      </trkpt>
      <trkpt lat="43.38171" lon="6.72582">
        <ele>6.7</ele>
        <time>2023-05-16T14:12:11Z</time>
      </trkpt>
      <trkpt lat="43.38171" lon="6.72582">
        <ele>6.7</ele>
        <time>2023-05-16T14:12:12Z</time>
      </trkpt>
      <trkpt lat="43.3817" lon="6.72582">
        <ele>6.7</ele>
        <time>2023-05-16T14:12:13Z</time>
      </trkpt>
      <trkpt lat="43.3817" lon="6.72582">
        <ele>6.7</ele>
        <time>2023-05-16T14:12:14Z</time>
      </trkpt>
      <trkpt lat="43.3817" lon="6.72582">
        <ele>6.7</ele>
        <time>2023-05-16T14:12:16Z</time>
      </trkpt>
      <trkpt lat="43.38169" lon="6.72581">
        <ele>6.7</ele>
        <time>2023-05-16T14:12:17Z</time>
      </trkpt>
      <trkpt lat="43.38169" lon="6.72581">
        <ele>6.7</ele>
        <time>2023-05-16T14:12:18Z</time>
      </trkpt>
      <trkpt lat="43.38169" lon="6.72581">
        <ele>6.7</ele>
        <time>2023-05-16T14:12:19Z</time>
      </trkpt>
      <trkpt lat="43.38169" lon="6.72581">
        <ele>6.7</ele>
        <time>2023-05-16T14:12:20Z</time>
      </trkpt>
      <trkpt lat="43.38168" lon="6.72581">
        <ele>6.7</ele>
        <time>2023-05-16T14:12:22Z</time>
      </trkpt>
      <trkpt lat="43.38168" lon="6.7258">
        <ele>6.7</ele>
        <time>2023-05-16T14:12:23Z</time>
      </trkpt>
      <trkpt lat="43.38168" lon="6.7258">
        <ele>6.7</ele>
        <time>2023-05-16T14:12:24Z</time>
      </trkpt>
      <trkpt lat="43.38168" lon="6.72581">
        <ele>6.7</ele>
        <time>2023-05-16T14:12:25Z</time>
      </trkpt>
      <trkpt lat="43.38167" lon="6.72581">
        <ele>6.7</ele>
        <time>2023-05-16T14:12:27Z</time>
      </trkpt>
      <trkpt lat="43.38167" lon="6.72581">
        <ele>6.7</ele>
        <time>2023-05-16T14:12:28Z</time>
      </trkpt>
      <trkpt lat="43.38167" lon="6.72582">
        <ele>6.8</ele>
        <time>2023-05-16T14:12:29Z</time>
      </trkpt>
      <trkpt lat="43.38167" lon="6.72582">
        <ele>6.8</ele>
        <time>2023-05-16T14:12:30Z</time>
      </trkpt>
      <trkpt lat="43.38166" lon="6.72583">
        <ele>6.8</ele>
        <time>2023-05-16T14:12:32Z</time>
      </trkpt>
      <trkpt lat="43.38166" lon="6.72583">
        <ele>6.8</ele>
        <time>2023-05-16T14:12:33Z</time>
      </trkpt>
      <trkpt lat="43.38166" lon="6.72583">
        <ele>6.8</ele>
        <time>2023-05-16T14:12:34Z</time>
      </trkpt>
      <trkpt lat="43.38166" lon="6.72582">
        <ele>6.8</ele>
        <time>2023-05-16T14:12:35Z</time>
      </trkpt>
      <trkpt lat="43.38166" lon="6.72582">
        <ele>6.8</ele>
        <time>2023-05-16T14:12:36Z</time>
      </trkpt>
      <trkpt lat="43.38166" lon="6.72581">
        <ele>6.8</ele>
        <time>2023-05-16T14:12:38Z</time>
      </trkpt>
      <trkpt lat="43.38166" lon="6.7258">
        <ele>6.8</ele>
        <time>2023-05-16T14:12:39Z</time>
      </trkpt>
      <trkpt lat="43.38166" lon="6.72579">
        <ele>6.8</ele>
        <time>2023-05-16T14:12:40Z</time>
      </trkpt>
      <trkpt lat="43.38166" lon="6.72578">
        <ele>6.8</ele>
        <time>2023-05-16T14:12:41Z</time>
      </trkpt>
      <trkpt lat="43.38166" lon="6.72577">
        <ele>6.8</ele>
        <time>2023-05-16T14:12:43Z</time>
      </trkpt>
      <trkpt lat="43.38165" lon="6.72575">
        <ele>6.8</ele>
        <time>2023-05-16T14:12:44Z</time>
      </trkpt>
      <trkpt lat="43.38164" lon="6.72573">
        <ele>6.8</ele>
        <time>2023-05-16T14:12:45Z</time>
      </trkpt>
      <trkpt lat="43.38162" lon="6.7257">
        <ele>6.9</ele>
        <time>2023-05-16T14:12:46Z</time>
      </trkpt>
      <trkpt lat="43.38161" lon="6.7257">
        <ele>6.9</ele>
        <time>2023-05-16T14:12:47Z</time>
      </trkpt>
      <trkpt lat="43.38159" lon="6.7257">
        <ele>6.9</ele>
        <time>2023-05-16T14:12:49Z</time>
      </trkpt>
      <trkpt lat="43.38158" lon="6.72572">
        <ele>6.9</ele>
        <time>2023-05-16T14:12:50Z</time>
      </trkpt>
      <trkpt lat="43.38155" lon="6.72575">
        <ele>6.9</ele>
        <time>2023-05-16T14:12:51Z</time>
      </trkpt>
      <trkpt lat="43.38155" lon="6.72577">
        <ele>6.9</ele>
        <time>2023-05-16T14:12:52Z</time>
      </trkpt>
      <trkpt lat="43.38154" lon="6.72577">
        <ele>6.9</ele>
        <time>2023-05-16T14:12:53Z</time>
      </trkpt>
      <trkpt lat="43.38153" lon="6.72577">
        <ele>6.9</ele>
        <time>2023-05-16T14:12:54Z</time>
      </trkpt>
      <trkpt lat="43.38151" lon="6.72576">
        <ele>6.9</ele>
        <time>2023-05-16T14:12:56Z</time>
      </trkpt>
      <trkpt lat="43.3815" lon="6.72574">
        <ele>6.9</ele>
        <time>2023-05-16T14:12:57Z</time>
      </trkpt>
      <trkpt lat="43.3815" lon="6.72572">
        <ele>6.9</ele>
        <time>2023-05-16T14:12:58Z</time>
      </trkpt>
      <trkpt lat="43.3815" lon="6.7257">
        <ele>7</ele>
        <time>2023-05-16T14:12:59Z</time>
      </trkpt>
      <trkpt lat="43.38151" lon="6.72567">
        <ele>7</ele>
        <time>2023-05-16T14:13:01Z</time>
      </trkpt>
      <trkpt lat="43.38151" lon="6.72566">
        <ele>7</ele>
        <time>2023-05-16T14:13:02Z</time>
      </trkpt>
      <trkpt lat="43.3815" lon="6.72564">
        <ele>7</ele>
        <time>2023-05-16T14:13:03Z</time>
      </trkpt>
      <trkpt lat="43.3815" lon="6.72563">
        <ele>7</ele>
        <time>2023-05-16T14:13:04Z</time>
      </trkpt>
      <trkpt lat="43.3815" lon="6.72562">
        <ele>7</ele>
        <time>2023-05-16T14:13:06Z</time>
      </trkpt>
      <trkpt lat="43.38151" lon="6.72561">
        <ele>7</ele>
        <time>2023-05-16T14:13:07Z</time>
      </trkpt>
      <trkpt lat="43.38152" lon="6.7256">
        <ele>7</ele>
        <time>2023-05-16T14:13:08Z</time>
      </trkpt>
      <trkpt lat="43.38152" lon="6.72559">
        <ele>7</ele>
        <time>2023-05-16T14:13:09Z</time>
      </trkpt>
      <trkpt lat="43.38152" lon="6.72557">
        <ele>7</ele>
        <time>2023-05-16T14:13:10Z</time>
      </trkpt>
      <trkpt lat="43.38153" lon="6.72555">
        <ele>7</ele>
        <time>2023-05-16T14:13:11Z</time>
      </trkpt>
      <trkpt lat="43.38153" lon="6.72554">
        <ele>7</ele>
        <time>2023-05-16T14:13:13Z</time>
      </trkpt>
      <trkpt lat="43.38154" lon="6.72553">
        <ele>7</ele>
        <time>2023-05-16T14:13:14Z</time>
      </trkpt>
      <trkpt lat="43.38154" lon="6.72552">
        <ele>7</ele>
        <time>2023-05-16T14:13:15Z</time>
      </trkpt>
      <trkpt lat="43.38154" lon="6.72552">
        <ele>7</ele>
        <time>2023-05-16T14:13:16Z</time>
      </trkpt>
      <trkpt lat="43.38154" lon="6.72552">
        <ele>7</ele>
        <time>2023-05-16T14:13:17Z</time>
      </trkpt>
      <trkpt lat="43.38155" lon="6.72553">
        <ele>7</ele>
        <time>2023-05-16T14:13:19Z</time>
      </trkpt>
      <trkpt lat="43.38155" lon="6.72553">
        <ele>7</ele>
        <time>2023-05-16T14:13:21Z</time>
      </trkpt>
      <trkpt lat="43.38155" lon="6.72553">
        <ele>7</ele>
        <time>2023-05-16T14:13:22Z</time>
      </trkpt>
      <trkpt lat="43.38155" lon="6.72553">
        <ele>7</ele>
        <time>2023-05-16T14:13:23Z</time>
      </trkpt>
      <trkpt lat="43.38155" lon="6.72552">
        <ele>7</ele>
        <time>2023-05-16T14:13:24Z</time>
      </trkpt>
      <trkpt lat="43.38155" lon="6.72551">
        <ele>6.9</ele>
        <time>2023-05-16T14:13:26Z</time>
      </trkpt>
      <trkpt lat="43.38156" lon="6.7255">
        <ele>6.9</ele>
        <time>2023-05-16T14:13:27Z</time>
      </trkpt>
      <trkpt lat="43.38156" lon="6.7255">
        <ele>6.9</ele>
        <time>2023-05-16T14:13:28Z</time>
      </trkpt>
      <trkpt lat="43.38156" lon="6.72549">
        <ele>6.9</ele>
        <time>2023-05-16T14:13:30Z</time>
      </trkpt>
      <trkpt lat="43.38156" lon="6.72549">
        <ele>6.9</ele>
        <time>2023-05-16T14:13:31Z</time>
      </trkpt>
      <trkpt lat="43.38157" lon="6.72549">
        <ele>6.9</ele>
        <time>2023-05-16T14:13:32Z</time>
      </trkpt>
      <trkpt lat="43.38157" lon="6.72548">
        <ele>6.9</ele>
        <time>2023-05-16T14:13:34Z</time>
      </trkpt>
      <trkpt lat="43.38157" lon="6.72548">
        <ele>6.9</ele>
        <time>2023-05-16T14:13:35Z</time>
      </trkpt>
      <trkpt lat="43.38158" lon="6.72547">
        <ele>6.9</ele>
        <time>2023-05-16T14:13:36Z</time>
      </trkpt>
      <trkpt lat="43.38159" lon="6.72545">
        <ele>6.9</ele>
        <time>2023-05-16T14:13:37Z</time>
      </trkpt>
      <trkpt lat="43.38159" lon="6.72544">
        <ele>6.9</ele>
        <time>2023-05-16T14:13:38Z</time>
      </trkpt>
      <trkpt lat="43.3816" lon="6.72543">
        <ele>6.8</ele>
        <time>2023-05-16T14:13:39Z</time>
      </trkpt>
      <trkpt lat="43.38161" lon="6.72543">
        <ele>6.8</ele>
        <time>2023-05-16T14:13:40Z</time>
      </trkpt>
      <trkpt lat="43.38162" lon="6.72541">
        <ele>6.8</ele>
        <time>2023-05-16T14:13:42Z</time>
      </trkpt>
      <trkpt lat="43.38162" lon="6.72541">
        <ele>6.8</ele>
        <time>2023-05-16T14:13:43Z</time>
      </trkpt>
      <trkpt lat="43.38163" lon="6.72539">
        <ele>6.7</ele>
        <time>2023-05-16T14:13:44Z</time>
      </trkpt>
      <trkpt lat="43.38163" lon="6.72538">
        <ele>6.7</ele>
        <time>2023-05-16T14:13:45Z</time>
      </trkpt>
      <trkpt lat="43.38163" lon="6.72537">
        <ele>6.7</ele>
        <time>2023-05-16T14:13:46Z</time>
      </trkpt>
      <trkpt lat="43.38163" lon="6.72534">
        <ele>6.6</ele>
        <time>2023-05-16T14:13:48Z</time>
      </trkpt>
      <trkpt lat="43.38163" lon="6.72533">
        <ele>6.6</ele>
        <time>2023-05-16T14:13:49Z</time>
      </trkpt>
      <trkpt lat="43.38163" lon="6.72532">
        <ele>6.5</ele>
        <time>2023-05-16T14:13:50Z</time>
      </trkpt>
      <trkpt lat="43.38163" lon="6.72531">
        <ele>6.5</ele>
        <time>2023-05-16T14:13:51Z</time>
      </trkpt>
      <trkpt lat="43.38163" lon="6.7253">
        <ele>6.5</ele>
        <time>2023-05-16T14:13:52Z</time>
      </trkpt>
      <trkpt lat="43.38164" lon="6.72529">
        <ele>6.4</ele>
        <time>2023-05-16T14:13:53Z</time>
      </trkpt>
      <trkpt lat="43.38165" lon="6.72528">
        <ele>6.4</ele>
        <time>2023-05-16T14:13:54Z</time>
      </trkpt>
      <trkpt lat="43.38166" lon="6.72527">
        <ele>6.3</ele>
        <time>2023-05-16T14:13:55Z</time>
      </trkpt>
      <trkpt lat="43.38167" lon="6.72525">
        <ele>6.2</ele>
        <time>2023-05-16T14:13:57Z</time>
      </trkpt>
      <trkpt lat="43.38167" lon="6.72525">
        <ele>6.2</ele>
        <time>2023-05-16T14:13:58Z</time>
      </trkpt>
      <trkpt lat="43.38167" lon="6.72524">
        <ele>6.2</ele>
        <time>2023-05-16T14:13:59Z</time>
      </trkpt>
      <trkpt lat="43.38167" lon="6.72522">
        <ele>6.1</ele>
        <time>2023-05-16T14:14:00Z</time>
      </trkpt>
      <trkpt lat="43.38167" lon="6.72521">
        <ele>6.1</ele>
        <time>2023-05-16T14:14:01Z</time>
      </trkpt>
      <trkpt lat="43.38166" lon="6.7252">
        <ele>6</ele>
        <time>2023-05-16T14:14:03Z</time>
      </trkpt>
      <trkpt lat="43.38166" lon="6.72521">
        <ele>6</ele>
        <time>2023-05-16T14:14:04Z</time>
      </trkpt>
      <trkpt lat="43.38166" lon="6.72522">
        <ele>5.9</ele>
        <time>2023-05-16T14:14:06Z</time>
      </trkpt>
      <trkpt lat="43.38166" lon="6.72523">
        <ele>5.9</ele>
        <time>2023-05-16T14:14:07Z</time>
      </trkpt>
      <trkpt lat="43.38166" lon="6.72523">
        <ele>5.9</ele>
        <time>2023-05-16T14:14:08Z</time>
      </trkpt>
      <trkpt lat="43.38166" lon="6.72524">
        <ele>5.9</ele>
        <time>2023-05-16T14:14:09Z</time>
      </trkpt>
      <trkpt lat="43.38166" lon="6.72523">
        <ele>5.8</ele>
        <time>2023-05-16T14:14:11Z</time>
      </trkpt>
      <trkpt lat="43.38166" lon="6.72522">
        <ele>5.8</ele>
        <time>2023-05-16T14:14:12Z</time>
      </trkpt>
      <trkpt lat="43.38167" lon="6.72521">
        <ele>5.8</ele>
        <time>2023-05-16T14:14:13Z</time>
      </trkpt>
      <trkpt lat="43.38167" lon="6.72519">
        <ele>5.7</ele>
        <time>2023-05-16T14:14:14Z</time>
      </trkpt>
      <trkpt lat="43.38167" lon="6.72515">
        <ele>5.5</ele>
        <time>2023-05-16T14:14:16Z</time>
      </trkpt>
      <trkpt lat="43.38167" lon="6.72514">
        <ele>5.5</ele>
        <time>2023-05-16T14:14:17Z</time>
      </trkpt>
      <trkpt lat="43.38166" lon="6.72512">
        <ele>5.4</ele>
        <time>2023-05-16T14:14:18Z</time>
      </trkpt>
      <trkpt lat="43.38166" lon="6.72511">
        <ele>5.4</ele>
        <time>2023-05-16T14:14:20Z</time>
      </trkpt>
      <trkpt lat="43.38166" lon="6.7251">
        <ele>5.3</ele>
        <time>2023-05-16T14:14:21Z</time>
      </trkpt>
      <trkpt lat="43.38165" lon="6.72509">
        <ele>5.3</ele>
        <time>2023-05-16T14:14:22Z</time>
      </trkpt>
      <trkpt lat="43.38166" lon="6.72507">
        <ele>5.2</ele>
        <time>2023-05-16T14:14:23Z</time>
      </trkpt>
      <trkpt lat="43.38166" lon="6.72506">
        <ele>5.2</ele>
        <time>2023-05-16T14:14:24Z</time>
      </trkpt>
      <trkpt lat="43.38165" lon="6.72505">
        <ele>5.2</ele>
        <time>2023-05-16T14:14:26Z</time>
      </trkpt>
      <trkpt lat="43.38166" lon="6.72508">
        <ele>5.1</ele>
        <time>2023-05-16T14:14:27Z</time>
      </trkpt>
      <trkpt lat="43.38166" lon="6.72509">
        <ele>5.1</ele>
        <time>2023-05-16T14:14:28Z</time>
      </trkpt>
      <trkpt lat="43.38166" lon="6.72509">
        <ele>5</ele>
        <time>2023-05-16T14:14:29Z</time>
      </trkpt>
      <trkpt lat="43.38166" lon="6.7251">
        <ele>5</ele>
        <time>2023-05-16T14:14:30Z</time>
      </trkpt>
      <trkpt lat="43.38167" lon="6.7251">
        <ele>5</ele>
        <time>2023-05-16T14:14:31Z</time>
      </trkpt>
      <trkpt lat="43.38167" lon="6.72511">
        <ele>5</ele>
        <time>2023-05-16T14:14:32Z</time>
      </trkpt>
      <trkpt lat="43.38167" lon="6.72511">
        <ele>5</ele>
        <time>2023-05-16T14:14:33Z</time>
      </trkpt>
      <trkpt lat="43.38167" lon="6.72511">
        <ele>5</ele>
        <time>2023-05-16T14:14:34Z</time>
      </trkpt>
      <trkpt lat="43.38167" lon="6.72511">
        <ele>5</ele>
        <time>2023-05-16T14:14:35Z</time>
      </trkpt>
      <trkpt lat="43.38167" lon="6.72511">
        <ele>5</ele>
        <time>2023-05-16T14:14:36Z</time>
      </trkpt>
      <trkpt lat="43.38167" lon="6.72511">
        <ele>5</ele>
        <time>2023-05-16T14:14:37Z</time>
      </trkpt>
      <trkpt lat="43.38167" lon="6.72511">
        <ele>5</ele>
        <time>2023-05-16T14:14:38Z</time>
      </trkpt>
      <trkpt lat="43.38167" lon="6.72511">
        <ele>5</ele>
        <time>2023-05-16T14:14:39Z</time>
      </trkpt>
      <trkpt lat="43.38167" lon="6.72511">
        <ele>5</ele>
        <time>2023-05-16T14:14:40Z</time>
      </trkpt>
      <trkpt lat="43.38167" lon="6.72511">
        <ele>5</ele>
        <time>2023-05-16T14:14:41Z</time>
      </trkpt>
      <trkpt lat="43.38167" lon="6.72511">
        <ele>5</ele>
        <time>2023-05-16T14:14:42Z</time>
      </trkpt>
      <trkpt lat="43.38167" lon="6.72511">
        <ele>5</ele>
        <time>2023-05-16T14:14:43Z</time>
      </trkpt>
      <trkpt lat="43.38167" lon="6.72511">
        <ele>5</ele>
        <time>2023-05-16T14:14:44Z</time>
      </trkpt>
      <trkpt lat="43.38167" lon="6.72511">
        <ele>5</ele>
        <time>2023-05-16T14:14:45Z</time>
      </trkpt>
      <trkpt lat="43.38167" lon="6.72511">
        <ele>4.9</ele>
        <time>2023-05-16T14:14:46Z</time>
      </trkpt>
      <trkpt lat="43.38167" lon="6.7251">
        <ele>4.9</ele>
        <time>2023-05-16T14:14:47Z</time>
      </trkpt>
      <trkpt lat="43.38167" lon="6.72508">
        <ele>4.9</ele>
        <time>2023-05-16T14:14:48Z</time>
      </trkpt>
      <trkpt lat="43.38167" lon="6.72508">
        <ele>4.9</ele>
        <time>2023-05-16T14:14:49Z</time>
      </trkpt>
      <trkpt lat="43.38167" lon="6.72507">
        <ele>4.9</ele>
        <time>2023-05-16T14:14:50Z</time>
      </trkpt>
      <trkpt lat="43.38168" lon="6.72506">
        <ele>4.8</ele>
        <time>2023-05-16T14:14:51Z</time>
      </trkpt>
      <trkpt lat="43.38168" lon="6.72504">
        <ele>4.8</ele>
        <time>2023-05-16T14:14:52Z</time>
      </trkpt>
      <trkpt lat="43.38167" lon="6.72503">
        <ele>4.8</ele>
        <time>2023-05-16T14:14:53Z</time>
      </trkpt>
      <trkpt lat="43.38166" lon="6.72502">
        <ele>4.7</ele>
        <time>2023-05-16T14:14:54Z</time>
      </trkpt>
      <trkpt lat="43.38165" lon="6.725">
        <ele>4.7</ele>
        <time>2023-05-16T14:14:55Z</time>
      </trkpt>
      <trkpt lat="43.38164" lon="6.72499">
        <ele>4.7</ele>
        <time>2023-05-16T14:14:56Z</time>
      </trkpt>
      <trkpt lat="43.38163" lon="6.72498">
        <ele>4.7</ele>
        <time>2023-05-16T14:14:57Z</time>
      </trkpt>
      <trkpt lat="43.38163" lon="6.72497">
        <ele>4.6</ele>
        <time>2023-05-16T14:14:58Z</time>
      </trkpt>
      <trkpt lat="43.38163" lon="6.72496">
        <ele>4.6</ele>
        <time>2023-05-16T14:14:59Z</time>
      </trkpt>
      <trkpt lat="43.38163" lon="6.72494">
        <ele>4.6</ele>
        <time>2023-05-16T14:15:00Z</time>
      </trkpt>
      <trkpt lat="43.38162" lon="6.72491">
        <ele>4.6</ele>
        <time>2023-05-16T14:15:01Z</time>
      </trkpt>
      <trkpt lat="43.38162" lon="6.7249">
        <ele>4.6</ele>
        <time>2023-05-16T14:15:02Z</time>
      </trkpt>
      <trkpt lat="43.38162" lon="6.72489">
        <ele>4.6</ele>
        <time>2023-05-16T14:15:03Z</time>
      </trkpt>
      <trkpt lat="43.38162" lon="6.72488">
        <ele>4.6</ele>
        <time>2023-05-16T14:15:04Z</time>
      </trkpt>
      <trkpt lat="43.38163" lon="6.72485">
        <ele>4.5</ele>
        <time>2023-05-16T14:15:05Z</time>
      </trkpt>
      <trkpt lat="43.38165" lon="6.72483">
        <ele>4.5</ele>
        <time>2023-05-16T14:15:07Z</time>
      </trkpt>
      <trkpt lat="43.38167" lon="6.72481">
        <ele>4.5</ele>
        <time>2023-05-16T14:15:09Z</time>
      </trkpt>
      <trkpt lat="43.38167" lon="6.7248">
        <ele>4.5</ele>
        <time>2023-05-16T14:15:10Z</time>
      </trkpt>
      <trkpt lat="43.38168" lon="6.72479">
        <ele>4.5</ele>
        <time>2023-05-16T14:15:11Z</time>
      </trkpt>
      <trkpt lat="43.38168" lon="6.72478">
        <ele>4.5</ele>
        <time>2023-05-16T14:15:12Z</time>
      </trkpt>
      <trkpt lat="43.38168" lon="6.72476">
        <ele>4.5</ele>
        <time>2023-05-16T14:15:14Z</time>
      </trkpt>
      <trkpt lat="43.38167" lon="6.72474">
        <ele>4.5</ele>
        <time>2023-05-16T14:15:16Z</time>
      </trkpt>
      <trkpt lat="43.38167" lon="6.72472">
        <ele>4.5</ele>
        <time>2023-05-16T14:15:17Z</time>
      </trkpt>
      <trkpt lat="43.38167" lon="6.72471">
        <ele>4.5</ele>
        <time>2023-05-16T14:15:18Z</time>
      </trkpt>
      <trkpt lat="43.38166" lon="6.7247">
        <ele>4.5</ele>
        <time>2023-05-16T14:15:19Z</time>
      </trkpt>
      <trkpt lat="43.38166" lon="6.72467">
        <ele>4.5</ele>
        <time>2023-05-16T14:15:20Z</time>
      </trkpt>
      <trkpt lat="43.38166" lon="6.72466">
        <ele>4.5</ele>
        <time>2023-05-16T14:15:22Z</time>
      </trkpt>
      <trkpt lat="43.38165" lon="6.72465">
        <ele>4.5</ele>
        <time>2023-05-16T14:15:23Z</time>
      </trkpt>
      <trkpt lat="43.38166" lon="6.72464">
        <ele>4.5</ele>
        <time>2023-05-16T14:15:25Z</time>
      </trkpt>
      <trkpt lat="43.38167" lon="6.72464">
        <ele>4.5</ele>
        <time>2023-05-16T14:15:26Z</time>
      </trkpt>
      <trkpt lat="43.38168" lon="6.72464">
        <ele>4.5</ele>
        <time>2023-05-16T14:15:27Z</time>
      </trkpt>
      <trkpt lat="43.38168" lon="6.72464">
        <ele>4.5</ele>
        <time>2023-05-16T14:15:28Z</time>
      </trkpt>
      <trkpt lat="43.38169" lon="6.72463">
        <ele>4.5</ele>
        <time>2023-05-16T14:15:30Z</time>
      </trkpt>
      <trkpt lat="43.3817" lon="6.72463">
        <ele>4.5</ele>
        <time>2023-05-16T14:15:31Z</time>
      </trkpt>
      <trkpt lat="43.38171" lon="6.72463">
        <ele>4.5</ele>
        <time>2023-05-16T14:15:32Z</time>
      </trkpt>
      <trkpt lat="43.38172" lon="6.72463">
        <ele>4.5</ele>
        <time>2023-05-16T14:15:33Z</time>
      </trkpt>
      <trkpt lat="43.38172" lon="6.72462">
        <ele>4.5</ele>
        <time>2023-05-16T14:15:34Z</time>
      </trkpt>
      <trkpt lat="43.38173" lon="6.72461">
        <ele>4.5</ele>
        <time>2023-05-16T14:15:35Z</time>
      </trkpt>
      <trkpt lat="43.38174" lon="6.7246">
        <ele>4.5</ele>
        <time>2023-05-16T14:15:37Z</time>
      </trkpt>
      <trkpt lat="43.38175" lon="6.72457">
        <ele>4.5</ele>
        <time>2023-05-16T14:15:39Z</time>
      </trkpt>
      <trkpt lat="43.38175" lon="6.72456">
        <ele>4.5</ele>
        <time>2023-05-16T14:15:40Z</time>
      </trkpt>
      <trkpt lat="43.38175" lon="6.72453">
        <ele>4.5</ele>
        <time>2023-05-16T14:15:41Z</time>
      </trkpt>
      <trkpt lat="43.38175" lon="6.72452">
        <ele>4.5</ele>
        <time>2023-05-16T14:15:42Z</time>
      </trkpt>
      <trkpt lat="43.38176" lon="6.7245">
        <ele>4.5</ele>
        <time>2023-05-16T14:15:43Z</time>
      </trkpt>
      <trkpt lat="43.38175" lon="6.72447">
        <ele>4.5</ele>
        <time>2023-05-16T14:15:44Z</time>
      </trkpt>
      <trkpt lat="43.38175" lon="6.72446">
        <ele>4.5</ele>
        <time>2023-05-16T14:15:45Z</time>
      </trkpt>
      <trkpt lat="43.38175" lon="6.72445">
        <ele>4.5</ele>
        <time>2023-05-16T14:15:46Z</time>
      </trkpt>
      <trkpt lat="43.38175" lon="6.72443">
        <ele>4.5</ele>
        <time>2023-05-16T14:15:47Z</time>
      </trkpt>
      <trkpt lat="43.38175" lon="6.72442">
        <ele>4.5</ele>
        <time>2023-05-16T14:15:48Z</time>
      </trkpt>
      <trkpt lat="43.38174" lon="6.72441">
        <ele>4.5</ele>
        <time>2023-05-16T14:15:50Z</time>
      </trkpt>
      <trkpt lat="43.38174" lon="6.72439">
        <ele>4.5</ele>
        <time>2023-05-16T14:15:51Z</time>
      </trkpt>
      <trkpt lat="43.38175" lon="6.72438">
        <ele>4.5</ele>
        <time>2023-05-16T14:15:52Z</time>
      </trkpt>
      <trkpt lat="43.38176" lon="6.72437">
        <ele>4.5</ele>
        <time>2023-05-16T14:15:53Z</time>
      </trkpt>
      <trkpt lat="43.38176" lon="6.72436">
        <ele>4.5</ele>
        <time>2023-05-16T14:15:54Z</time>
      </trkpt>
      <trkpt lat="43.38176" lon="6.72435">
        <ele>4.5</ele>
        <time>2023-05-16T14:15:55Z</time>
      </trkpt>
      <trkpt lat="43.38177" lon="6.72434">
        <ele>4.5</ele>
        <time>2023-05-16T14:15:56Z</time>
      </trkpt>
      <trkpt lat="43.38177" lon="6.72432">
        <ele>4.5</ele>
        <time>2023-05-16T14:15:57Z</time>
      </trkpt>
      <trkpt lat="43.38178" lon="6.72431">
        <ele>4.5</ele>
        <time>2023-05-16T14:15:58Z</time>
      </trkpt>
      <trkpt lat="43.38178" lon="6.7243">
        <ele>4.5</ele>
        <time>2023-05-16T14:16:00Z</time>
      </trkpt>
      <trkpt lat="43.38179" lon="6.72429">
        <ele>4.5</ele>
        <time>2023-05-16T14:16:01Z</time>
      </trkpt>
      <trkpt lat="43.38179" lon="6.72428">
        <ele>4.5</ele>
        <time>2023-05-16T14:16:02Z</time>
      </trkpt>
      <trkpt lat="43.38179" lon="6.72427">
        <ele>4.5</ele>
        <time>2023-05-16T14:16:03Z</time>
      </trkpt>
      <trkpt lat="43.38179" lon="6.72426">
        <ele>4.5</ele>
        <time>2023-05-16T14:16:04Z</time>
      </trkpt>
      <trkpt lat="43.38179" lon="6.72424">
        <ele>4.5</ele>
        <time>2023-05-16T14:16:05Z</time>
      </trkpt>
      <trkpt lat="43.38179" lon="6.72423">
        <ele>4.5</ele>
        <time>2023-05-16T14:16:06Z</time>
      </trkpt>
      <trkpt lat="43.38179" lon="6.72422">
        <ele>4.5</ele>
        <time>2023-05-16T14:16:07Z</time>
      </trkpt>
      <trkpt lat="43.38179" lon="6.72421">
        <ele>4.4</ele>
        <time>2023-05-16T14:16:08Z</time>
      </trkpt>
      <trkpt lat="43.38178" lon="6.7242">
        <ele>4.4</ele>
        <time>2023-05-16T14:16:10Z</time>
      </trkpt>
      <trkpt lat="43.38178" lon="6.72418">
        <ele>4.4</ele>
        <time>2023-05-16T14:16:11Z</time>
      </trkpt>
      <trkpt lat="43.38178" lon="6.72416">
        <ele>4.4</ele>
        <time>2023-05-16T14:16:12Z</time>
      </trkpt>
      <trkpt lat="43.38178" lon="6.72415">
        <ele>4.4</ele>
        <time>2023-05-16T14:16:13Z</time>
      </trkpt>
      <trkpt lat="43.38177" lon="6.72414">
        <ele>4.4</ele>
        <time>2023-05-16T14:16:14Z</time>
      </trkpt>
      <trkpt lat="43.38176" lon="6.72412">
        <ele>4.4</ele>
        <time>2023-05-16T14:16:16Z</time>
      </trkpt>
      <trkpt lat="43.38176" lon="6.72411">
        <ele>4.4</ele>
        <time>2023-05-16T14:16:17Z</time>
      </trkpt>
      <trkpt lat="43.38175" lon="6.72409">
        <ele>4.4</ele>
        <time>2023-05-16T14:16:18Z</time>
      </trkpt>
      <trkpt lat="43.38174" lon="6.72408">
        <ele>4.4</ele>
        <time>2023-05-16T14:16:19Z</time>
      </trkpt>
      <trkpt lat="43.38173" lon="6.72407">
        <ele>4.4</ele>
        <time>2023-05-16T14:16:20Z</time>
      </trkpt>
      <trkpt lat="43.38173" lon="6.72406">
        <ele>4.4</ele>
        <time>2023-05-16T14:16:21Z</time>
      </trkpt>
      <trkpt lat="43.38172" lon="6.72406">
        <ele>4.4</ele>
        <time>2023-05-16T14:16:23Z</time>
      </trkpt>
      <trkpt lat="43.38171" lon="6.72406">
        <ele>4.4</ele>
        <time>2023-05-16T14:16:24Z</time>
      </trkpt>
      <trkpt lat="43.38171" lon="6.72406">
        <ele>4.4</ele>
        <time>2023-05-16T14:16:25Z</time>
      </trkpt>
      <trkpt lat="43.3817" lon="6.72405">
        <ele>4.3</ele>
        <time>2023-05-16T14:16:27Z</time>
      </trkpt>
      <trkpt lat="43.38169" lon="6.72404">
        <ele>4.3</ele>
        <time>2023-05-16T14:16:28Z</time>
      </trkpt>
      <trkpt lat="43.38168" lon="6.72403">
        <ele>4.3</ele>
        <time>2023-05-16T14:16:29Z</time>
      </trkpt>
      <trkpt lat="43.38168" lon="6.72404">
        <ele>4.3</ele>
        <time>2023-05-16T14:16:31Z</time>
      </trkpt>
      <trkpt lat="43.38168" lon="6.72404">
        <ele>4.3</ele>
        <time>2023-05-16T14:16:32Z</time>
      </trkpt>
      <trkpt lat="43.38168" lon="6.72404">
        <ele>4.3</ele>
        <time>2023-05-16T14:16:33Z</time>
      </trkpt>
      <trkpt lat="43.38169" lon="6.72405">
        <ele>4.3</ele>
        <time>2023-05-16T14:16:34Z</time>
      </trkpt>
      <trkpt lat="43.38169" lon="6.72405">
        <ele>4.3</ele>
        <time>2023-05-16T14:16:36Z</time>
      </trkpt>
      <trkpt lat="43.38169" lon="6.72405">
        <ele>4.3</ele>
        <time>2023-05-16T14:16:37Z</time>
      </trkpt>
      <trkpt lat="43.38169" lon="6.72405">
        <ele>4.3</ele>
        <time>2023-05-16T14:16:38Z</time>
      </trkpt>
      <trkpt lat="43.38169" lon="6.72405">
        <ele>4.3</ele>
        <time>2023-05-16T14:16:40Z</time>
      </trkpt>
      <trkpt lat="43.38169" lon="6.72405">
        <ele>4.3</ele>
        <time>2023-05-16T14:16:41Z</time>
      </trkpt>
      <trkpt lat="43.38169" lon="6.72405">
        <ele>4.3</ele>
        <time>2023-05-16T14:16:42Z</time>
      </trkpt>
      <trkpt lat="43.3817" lon="6.72405">
        <ele>4.3</ele>
        <time>2023-05-16T14:16:43Z</time>
      </trkpt>
      <trkpt lat="43.38171" lon="6.72404">
        <ele>4.3</ele>
        <time>2023-05-16T14:16:44Z</time>
      </trkpt>
      <trkpt lat="43.38171" lon="6.72404">
        <ele>4.3</ele>
        <time>2023-05-16T14:16:45Z</time>
      </trkpt>
      <trkpt lat="43.38171" lon="6.72404">
        <ele>4.3</ele>
        <time>2023-05-16T14:16:46Z</time>
      </trkpt>
      <trkpt lat="43.38171" lon="6.72404">
        <ele>4.3</ele>
        <time>2023-05-16T14:16:47Z</time>
      </trkpt>
      <trkpt lat="43.38171" lon="6.72404">
        <ele>4.3</ele>
        <time>2023-05-16T14:16:48Z</time>
      </trkpt>
      <trkpt lat="43.38171" lon="6.72404">
        <ele>4.3</ele>
        <time>2023-05-16T14:16:49Z</time>
      </trkpt>
      <trkpt lat="43.38171" lon="6.72404">
        <ele>4.3</ele>
        <time>2023-05-16T14:16:50Z</time>
      </trkpt>
      <trkpt lat="43.38171" lon="6.72404">
        <ele>4.3</ele>
        <time>2023-05-16T14:16:51Z</time>
      </trkpt>
      <trkpt lat="43.38171" lon="6.72403">
        <ele>4.3</ele>
        <time>2023-05-16T14:16:52Z</time>
      </trkpt>
      <trkpt lat="43.38171" lon="6.72403">
        <ele>4.3</ele>
        <time>2023-05-16T14:16:53Z</time>
      </trkpt>
      <trkpt lat="43.38171" lon="6.72403">
        <ele>4.3</ele>
        <time>2023-05-16T14:16:54Z</time>
      </trkpt>
      <trkpt lat="43.38171" lon="6.72403">
        <ele>4.3</ele>
        <time>2023-05-16T14:16:55Z</time>
      </trkpt>
      <trkpt lat="43.38171" lon="6.72403">
        <ele>4.3</ele>
        <time>2023-05-16T14:16:56Z</time>
      </trkpt>
      <trkpt lat="43.38171" lon="6.72403">
        <ele>4.3</ele>
        <time>2023-05-16T14:16:57Z</time>
      </trkpt>
      <trkpt lat="43.38171" lon="6.72403">
        <ele>4.3</ele>
        <time>2023-05-16T14:16:58Z</time>
      </trkpt>
      <trkpt lat="43.38172" lon="6.72403">
        <ele>4.3</ele>
        <time>2023-05-16T14:16:59Z</time>
      </trkpt>
      <trkpt lat="43.38172" lon="6.72404">
        <ele>4.3</ele>
        <time>2023-05-16T14:17:00Z</time>
      </trkpt>
      <trkpt lat="43.38172" lon="6.72404">
        <ele>4.3</ele>
        <time>2023-05-16T14:17:01Z</time>
      </trkpt>
      <trkpt lat="43.38172" lon="6.72404">
        <ele>4.3</ele>
        <time>2023-05-16T14:17:02Z</time>
      </trkpt>
      <trkpt lat="43.38172" lon="6.72404">
        <ele>4.3</ele>
        <time>2023-05-16T14:17:03Z</time>
      </trkpt>
      <trkpt lat="43.38173" lon="6.72404">
        <ele>4.3</ele>
        <time>2023-05-16T14:17:04Z</time>
      </trkpt>
      <trkpt lat="43.38173" lon="6.72404">
        <ele>4.3</ele>
        <time>2023-05-16T14:17:05Z</time>
      </trkpt>
      <trkpt lat="43.38173" lon="6.72404">
        <ele>4.3</ele>
        <time>2023-05-16T14:17:06Z</time>
      </trkpt>
      <trkpt lat="43.38173" lon="6.72404">
        <ele>4.3</ele>
        <time>2023-05-16T14:17:07Z</time>
      </trkpt>
      <trkpt lat="43.38173" lon="6.72405">
        <ele>4.3</ele>
        <time>2023-05-16T14:17:08Z</time>
      </trkpt>
      <trkpt lat="43.38174" lon="6.72405">
        <ele>4.3</ele>
        <time>2023-05-16T14:17:09Z</time>
      </trkpt>
      <trkpt lat="43.38174" lon="6.72405">
        <ele>4.3</ele>
        <time>2023-05-16T14:17:10Z</time>
      </trkpt>
      <trkpt lat="43.38174" lon="6.72405">
        <ele>4.3</ele>
        <time>2023-05-16T14:17:11Z</time>
      </trkpt>
      <trkpt lat="43.38174" lon="6.72405">
        <ele>4.3</ele>
        <time>2023-05-16T14:17:12Z</time>
      </trkpt>
      <trkpt lat="43.38174" lon="6.72405">
        <ele>4.3</ele>
        <time>2023-05-16T14:17:13Z</time>
      </trkpt>
      <trkpt lat="43.38174" lon="6.72405">
        <ele>4.3</ele>
        <time>2023-05-16T14:17:14Z</time>
      </trkpt>
      <trkpt lat="43.38175" lon="6.72405">
        <ele>4.3</ele>
        <time>2023-05-16T14:17:15Z</time>
      </trkpt>
      <trkpt lat="43.38175" lon="6.72405">
        <ele>4.3</ele>
        <time>2023-05-16T14:17:16Z</time>
      </trkpt>
      <trkpt lat="43.38175" lon="6.72406">
        <ele>4.3</ele>
        <time>2023-05-16T14:17:17Z</time>
      </trkpt>
      <trkpt lat="43.38175" lon="6.72406">
        <ele>4.3</ele>
        <time>2023-05-16T14:17:18Z</time>
      </trkpt>
      <trkpt lat="43.38175" lon="6.72406">
        <ele>4.3</ele>
        <time>2023-05-16T14:17:19Z</time>
      </trkpt>
      <trkpt lat="43.38176" lon="6.72406">
        <ele>4.3</ele>
        <time>2023-05-16T14:17:20Z</time>
      </trkpt>
      <trkpt lat="43.38177" lon="6.72406">
        <ele>4.3</ele>
        <time>2023-05-16T14:17:21Z</time>
      </trkpt>
      <trkpt lat="43.38178" lon="6.72406">
        <ele>4.3</ele>
        <time>2023-05-16T14:17:22Z</time>
      </trkpt>
      <trkpt lat="43.38178" lon="6.72406">
        <ele>4.3</ele>
        <time>2023-05-16T14:17:23Z</time>
      </trkpt>
      <trkpt lat="43.38178" lon="6.72406">
        <ele>4.3</ele>
        <time>2023-05-16T14:17:24Z</time>
      </trkpt>
      <trkpt lat="43.38178" lon="6.72406">
        <ele>4.3</ele>
        <time>2023-05-16T14:17:25Z</time>
      </trkpt>
      <trkpt lat="43.38178" lon="6.72406">
        <ele>4.3</ele>
        <time>2023-05-16T14:17:26Z</time>
      </trkpt>
      <trkpt lat="43.38178" lon="6.72406">
        <ele>4.3</ele>
        <time>2023-05-16T14:17:27Z</time>
      </trkpt>
      <trkpt lat="43.38178" lon="6.72406">
        <ele>4.3</ele>
        <time>2023-05-16T14:17:28Z</time>
      </trkpt>
      <trkpt lat="43.38178" lon="6.72406">
        <ele>4.3</ele>
        <time>2023-05-16T14:17:29Z</time>
      </trkpt>
      <trkpt lat="43.38178" lon="6.72406">
        <ele>4.3</ele>
        <time>2023-05-16T14:17:30Z</time>
      </trkpt>
      <trkpt lat="43.38178" lon="6.72406">
        <ele>4.3</ele>
        <time>2023-05-16T14:17:31Z</time>
      </trkpt>
      <trkpt lat="43.38178" lon="6.72406">
        <ele>4.3</ele>
        <time>2023-05-16T14:17:32Z</time>
      </trkpt>
      <trkpt lat="43.38178" lon="6.72406">
        <ele>4.3</ele>
        <time>2023-05-16T14:17:33Z</time>
      </trkpt>
      <trkpt lat="43.38178" lon="6.72406">
        <ele>4.3</ele>
        <time>2023-05-16T14:17:34Z</time>
      </trkpt>
      <trkpt lat="43.38178" lon="6.72406">
        <ele>4.3</ele>
        <time>2023-05-16T14:17:35Z</time>
      </trkpt>
      <trkpt lat="43.38177" lon="6.72406">
        <ele>4.3</ele>
        <time>2023-05-16T14:17:36Z</time>
      </trkpt>
      <trkpt lat="43.38177" lon="6.72406">
        <ele>4.3</ele>
        <time>2023-05-16T14:17:37Z</time>
      </trkpt>
      <trkpt lat="43.38177" lon="6.72406">
        <ele>4.3</ele>
        <time>2023-05-16T14:17:38Z</time>
      </trkpt>
      <trkpt lat="43.38177" lon="6.72406">
        <ele>4.3</ele>
        <time>2023-05-16T14:17:39Z</time>
      </trkpt>
      <trkpt lat="43.38178" lon="6.72406">
        <ele>4.3</ele>
        <time>2023-05-16T14:17:40Z</time>
      </trkpt>
      <trkpt lat="43.38178" lon="6.72406">
        <ele>4.3</ele>
        <time>2023-05-16T14:17:41Z</time>
      </trkpt>
      <trkpt lat="43.38178" lon="6.72406">
        <ele>4.3</ele>
        <time>2023-05-16T14:17:42Z</time>
      </trkpt>
      <trkpt lat="43.38178" lon="6.72406">
        <ele>4.3</ele>
        <time>2023-05-16T14:17:43Z</time>
      </trkpt>
      <trkpt lat="43.38178" lon="6.72406">
        <ele>4.3</ele>
        <time>2023-05-16T14:17:44Z</time>
      </trkpt>
      <trkpt lat="43.38178" lon="6.72406">
        <ele>4.3</ele>
        <time>2023-05-16T14:17:45Z</time>
      </trkpt>
      <trkpt lat="43.38178" lon="6.72406">
        <ele>4.3</ele>
        <time>2023-05-16T14:17:46Z</time>
      </trkpt>
      <trkpt lat="43.38178" lon="6.72406">
        <ele>4.3</ele>
        <time>2023-05-16T14:17:47Z</time>
      </trkpt>
      <trkpt lat="43.38178" lon="6.72406">
        <ele>4.3</ele>
        <time>2023-05-16T14:17:48Z</time>
      </trkpt>
      <trkpt lat="43.38178" lon="6.72406">
        <ele>4.3</ele>
        <time>2023-05-16T14:17:49Z</time>
      </trkpt>
      <trkpt lat="43.38178" lon="6.72406">
        <ele>4.3</ele>
        <time>2023-05-16T14:17:50Z</time>
      </trkpt>
      <trkpt lat="43.38177" lon="6.72405">
        <ele>4.3</ele>
        <time>2023-05-16T14:17:51Z</time>
      </trkpt>
      <trkpt lat="43.38177" lon="6.72405">
        <ele>4.3</ele>
        <time>2023-05-16T14:17:52Z</time>
      </trkpt>
      <trkpt lat="43.38179" lon="6.72405">
        <ele>4.3</ele>
        <time>2023-05-16T14:17:53Z</time>
      </trkpt>
      <trkpt lat="43.38181" lon="6.72404">
        <ele>4.3</ele>
        <time>2023-05-16T14:17:54Z</time>
      </trkpt>
      <trkpt lat="43.3818" lon="6.72404">
        <ele>4.3</ele>
        <time>2023-05-16T14:17:55Z</time>
      </trkpt>
      <trkpt lat="43.3818" lon="6.72404">
        <ele>4.3</ele>
        <time>2023-05-16T14:17:56Z</time>
      </trkpt>
      <trkpt lat="43.38179" lon="6.72404">
        <ele>4.3</ele>
        <time>2023-05-16T14:17:57Z</time>
      </trkpt>
      <trkpt lat="43.38179" lon="6.72404">
        <ele>4.3</ele>
        <time>2023-05-16T14:17:58Z</time>
      </trkpt>
      <trkpt lat="43.38179" lon="6.72404">
        <ele>4.3</ele>
        <time>2023-05-16T14:17:59Z</time>
      </trkpt>
      <trkpt lat="43.38179" lon="6.72404">
        <ele>4.3</ele>
        <time>2023-05-16T14:18:00Z</time>
      </trkpt>
      <trkpt lat="43.38179" lon="6.72404">
        <ele>4.3</ele>
        <time>2023-05-16T14:18:01Z</time>
      </trkpt>
      <trkpt lat="43.38179" lon="6.72404">
        <ele>4.3</ele>
        <time>2023-05-16T14:18:02Z</time>
      </trkpt>
      <trkpt lat="43.38178" lon="6.72404">
        <ele>4.3</ele>
        <time>2023-05-16T14:18:03Z</time>
      </trkpt>
      <trkpt lat="43.38178" lon="6.72404">
        <ele>4.3</ele>
        <time>2023-05-16T14:18:04Z</time>
      </trkpt>
      <trkpt lat="43.38178" lon="6.72404">
        <ele>4.3</ele>
        <time>2023-05-16T14:18:05Z</time>
      </trkpt>
      <trkpt lat="43.38178" lon="6.72404">
        <ele>4.3</ele>
        <time>2023-05-16T14:18:06Z</time>
      </trkpt>
      <trkpt lat="43.38178" lon="6.72404">
        <ele>4.3</ele>
        <time>2023-05-16T14:18:07Z</time>
      </trkpt>
      <trkpt lat="43.38178" lon="6.72404">
        <ele>4.3</ele>
        <time>2023-05-16T14:18:08Z</time>
      </trkpt>
      <trkpt lat="43.38178" lon="6.72404">
        <ele>4.3</ele>
        <time>2023-05-16T14:18:09Z</time>
      </trkpt>
      <trkpt lat="43.38178" lon="6.72404">
        <ele>4.3</ele>
        <time>2023-05-16T14:18:10Z</time>
      </trkpt>
      <trkpt lat="43.38178" lon="6.72404">
        <ele>4.3</ele>
        <time>2023-05-16T14:18:11Z</time>
      </trkpt>
      <trkpt lat="43.38178" lon="6.72404">
        <ele>4.3</ele>
        <time>2023-05-16T14:18:12Z</time>
      </trkpt>
      <trkpt lat="43.38178" lon="6.72404">
        <ele>4.3</ele>
        <time>2023-05-16T14:18:13Z</time>
      </trkpt>
      <trkpt lat="43.38178" lon="6.72404">
        <ele>4.3</ele>
        <time>2023-05-16T14:18:14Z</time>
      </trkpt>
      <trkpt lat="43.38178" lon="6.72404">
        <ele>4.3</ele>
        <time>2023-05-16T14:18:15Z</time>
      </trkpt>
      <trkpt lat="43.38178" lon="6.72404">
        <ele>4.3</ele>
        <time>2023-05-16T14:18:16Z</time>
      </trkpt>
      <trkpt lat="43.38178" lon="6.72404">
        <ele>4.3</ele>
        <time>2023-05-16T14:18:17Z</time>
      </trkpt>
      <trkpt lat="43.38178" lon="6.72404">
        <ele>4.3</ele>
        <time>2023-05-16T14:18:18Z</time>
      </trkpt>
      <trkpt lat="43.38178" lon="6.72404">
        <ele>4.3</ele>
        <time>2023-05-16T14:18:19Z</time>
      </trkpt>
      <trkpt lat="43.38178" lon="6.72404">
        <ele>4.3</ele>
        <time>2023-05-16T14:18:20Z</time>
      </trkpt>
      <trkpt lat="43.38178" lon="6.72404">
        <ele>4.3</ele>
        <time>2023-05-16T14:18:21Z</time>
      </trkpt>
      <trkpt lat="43.38178" lon="6.72404">
        <ele>4.3</ele>
        <time>2023-05-16T14:18:22Z</time>
      </trkpt>
      <trkpt lat="43.38178" lon="6.72404">
        <ele>4.3</ele>
        <time>2023-05-16T14:18:23Z</time>
      </trkpt>
      <trkpt lat="43.38178" lon="6.72404">
        <ele>4.3</ele>
        <time>2023-05-16T14:18:24Z</time>
      </trkpt>
      <trkpt lat="43.38178" lon="6.72404">
        <ele>4.3</ele>
        <time>2023-05-16T14:18:25Z</time>
      </trkpt>
      <trkpt lat="43.38178" lon="6.72404">
        <ele>4.3</ele>
        <time>2023-05-16T14:18:26Z</time>
      </trkpt>
      <trkpt lat="43.38178" lon="6.72404">
        <ele>4.3</ele>
        <time>2023-05-16T14:18:27Z</time>
      </trkpt>
      <trkpt lat="43.38178" lon="6.72404">
        <ele>4.3</ele>
        <time>2023-05-16T14:18:28Z</time>
      </trkpt>
      <trkpt lat="43.38178" lon="6.72404">
        <ele>4.3</ele>
        <time>2023-05-16T14:18:29Z</time>
      </trkpt>
      <trkpt lat="43.38178" lon="6.72404">
        <ele>4.3</ele>
        <time>2023-05-16T14:18:30Z</time>
      </trkpt>
      <trkpt lat="43.38178" lon="6.72404">
        <ele>4.3</ele>
        <time>2023-05-16T14:18:31Z</time>
      </trkpt>
      <trkpt lat="43.38178" lon="6.72404">
        <ele>4.3</ele>
        <time>2023-05-16T14:18:32Z</time>
      </trkpt>
      <trkpt lat="43.38178" lon="6.72404">
        <ele>4.3</ele>
        <time>2023-05-16T14:18:33Z</time>
      </trkpt>
      <trkpt lat="43.38178" lon="6.72404">
        <ele>4.3</ele>
        <time>2023-05-16T14:18:34Z</time>
      </trkpt>
      <trkpt lat="43.38178" lon="6.72404">
        <ele>4.3</ele>
        <time>2023-05-16T14:18:35Z</time>
      </trkpt>
      <trkpt lat="43.38178" lon="6.72404">
        <ele>4.3</ele>
        <time>2023-05-16T14:18:36Z</time>
      </trkpt>
      <trkpt lat="43.38178" lon="6.72404">
        <ele>4.3</ele>
        <time>2023-05-16T14:18:37Z</time>
      </trkpt>
      <trkpt lat="43.38178" lon="6.72404">
        <ele>4.3</ele>
        <time>2023-05-16T14:18:38Z</time>
      </trkpt>
      <trkpt lat="43.38178" lon="6.72404">
        <ele>4.3</ele>
        <time>2023-05-16T14:18:39Z</time>
      </trkpt>
      <trkpt lat="43.38178" lon="6.72404">
        <ele>4.3</ele>
        <time>2023-05-16T14:18:40Z</time>
      </trkpt>
      <trkpt lat="43.38178" lon="6.72405">
        <ele>4.3</ele>
        <time>2023-05-16T14:18:41Z</time>
      </trkpt>
      <trkpt lat="43.38178" lon="6.72405">
        <ele>4.3</ele>
        <time>2023-05-16T14:18:42Z</time>
      </trkpt>
      <trkpt lat="43.38178" lon="6.72405">
        <ele>4.3</ele>
        <time>2023-05-16T14:18:43Z</time>
      </trkpt>
      <trkpt lat="43.38178" lon="6.72405">
        <ele>4.3</ele>
        <time>2023-05-16T14:18:44Z</time>
      </trkpt>
      <trkpt lat="43.38178" lon="6.72405">
        <ele>4.3</ele>
        <time>2023-05-16T14:18:45Z</time>
      </trkpt>
      <trkpt lat="43.38178" lon="6.72405">
        <ele>4.3</ele>
        <time>2023-05-16T14:18:46Z</time>
      </trkpt>
      <trkpt lat="43.38178" lon="6.72405">
        <ele>4.3</ele>
        <time>2023-05-16T14:18:47Z</time>
      </trkpt>
      <trkpt lat="43.38178" lon="6.72405">
        <ele>4.3</ele>
        <time>2023-05-16T14:18:48Z</time>
      </trkpt>
      <trkpt lat="43.38178" lon="6.72405">
        <ele>4.3</ele>
        <time>2023-05-16T14:18:49Z</time>
      </trkpt>
      <trkpt lat="43.38178" lon="6.72405">
        <ele>4.3</ele>
        <time>2023-05-16T14:18:50Z</time>
      </trkpt>
      <trkpt lat="43.38178" lon="6.72405">
        <ele>4.3</ele>
        <time>2023-05-16T14:18:51Z</time>
      </trkpt>
      <trkpt lat="43.38178" lon="6.72405">
        <ele>4.3</ele>
        <time>2023-05-16T14:18:52Z</time>
      </trkpt>
      <trkpt lat="43.38178" lon="6.72405">
        <ele>4.3</ele>
        <time>2023-05-16T14:18:53Z</time>
      </trkpt>
      <trkpt lat="43.38178" lon="6.72405">
        <ele>4.3</ele>
        <time>2023-05-16T14:18:54Z</time>
      </trkpt>
      <trkpt lat="43.38178" lon="6.72405">
        <ele>4.3</ele>
        <time>2023-05-16T14:18:55Z</time>
      </trkpt>
      <trkpt lat="43.38178" lon="6.72405">
        <ele>4.3</ele>
        <time>2023-05-16T14:18:56Z</time>
      </trkpt>
      <trkpt lat="43.38178" lon="6.72405">
        <ele>4.3</ele>
        <time>2023-05-16T14:18:57Z</time>
      </trkpt>
      <trkpt lat="43.38178" lon="6.72405">
        <ele>4.3</ele>
        <time>2023-05-16T14:18:58Z</time>
      </trkpt>
      <trkpt lat="43.38178" lon="6.72405">
        <ele>4.3</ele>
        <time>2023-05-16T14:18:59Z</time>
      </trkpt>
      <trkpt lat="43.38178" lon="6.72405">
        <ele>4.3</ele>
        <time>2023-05-16T14:19:00Z</time>
      </trkpt>
      <trkpt lat="43.38178" lon="6.72405">
        <ele>4.3</ele>
        <time>2023-05-16T14:19:01Z</time>
      </trkpt>
      <trkpt lat="43.38178" lon="6.72405">
        <ele>4.3</ele>
        <time>2023-05-16T14:19:02Z</time>
      </trkpt>
      <trkpt lat="43.38178" lon="6.72405">
        <ele>4.3</ele>
        <time>2023-05-16T14:19:03Z</time>
      </trkpt>
      <trkpt lat="43.38178" lon="6.72405">
        <ele>4.3</ele>
        <time>2023-05-16T14:19:04Z</time>
      </trkpt>
      <trkpt lat="43.38178" lon="6.72405">
        <ele>4.3</ele>
        <time>2023-05-16T14:19:05Z</time>
      </trkpt>
      <trkpt lat="43.38178" lon="6.72405">
        <ele>4.3</ele>
        <time>2023-05-16T14:19:06Z</time>
      </trkpt>
      <trkpt lat="43.38178" lon="6.72405">
        <ele>4.3</ele>
        <time>2023-05-16T14:19:07Z</time>
      </trkpt>
      <trkpt lat="43.38178" lon="6.72405">
        <ele>4.3</ele>
        <time>2023-05-16T14:19:08Z</time>
      </trkpt>
      <trkpt lat="43.38178" lon="6.72405">
        <ele>4.3</ele>
        <time>2023-05-16T14:19:09Z</time>
      </trkpt>
      <trkpt lat="43.38178" lon="6.72405">
        <ele>4.3</ele>
        <time>2023-05-16T14:19:10Z</time>
      </trkpt>
      <trkpt lat="43.38178" lon="6.72405">
        <ele>4.3</ele>
        <time>2023-05-16T14:19:11Z</time>
      </trkpt>
      <trkpt lat="43.38178" lon="6.72405">
        <ele>4.3</ele>
        <time>2023-05-16T14:19:12Z</time>
      </trkpt>
      <trkpt lat="43.38178" lon="6.72405">
        <ele>4.3</ele>
        <time>2023-05-16T14:19:13Z</time>
      </trkpt>
      <trkpt lat="43.38178" lon="6.72405">
        <ele>4.3</ele>
        <time>2023-05-16T14:19:14Z</time>
      </trkpt>
      <trkpt lat="43.38178" lon="6.72405">
        <ele>4.3</ele>
        <time>2023-05-16T14:19:15Z</time>
      </trkpt>
      <trkpt lat="43.38178" lon="6.72405">
        <ele>4.3</ele>
        <time>2023-05-16T14:19:16Z</time>
      </trkpt>
      <trkpt lat="43.38178" lon="6.72405">
        <ele>4.3</ele>
        <time>2023-05-16T14:19:17Z</time>
      </trkpt>
      <trkpt lat="43.38178" lon="6.72405">
        <ele>4.3</ele>
        <time>2023-05-16T14:19:18Z</time>
      </trkpt>
      <trkpt lat="43.38178" lon="6.72405">
        <ele>4.3</ele>
        <time>2023-05-16T14:19:19Z</time>
      </trkpt>
      <trkpt lat="43.38178" lon="6.72405">
        <ele>4.3</ele>
        <time>2023-05-16T14:19:20Z</time>
      </trkpt>
      <trkpt lat="43.38178" lon="6.72405">
        <ele>4.3</ele>
        <time>2023-05-16T14:19:21Z</time>
      </trkpt>
      <trkpt lat="43.38178" lon="6.72405">
        <ele>4.3</ele>
        <time>2023-05-16T14:19:22Z</time>
      </trkpt>
      <trkpt lat="43.38178" lon="6.72405">
        <ele>4.3</ele>
        <time>2023-05-16T14:19:23Z</time>
      </trkpt>
      <trkpt lat="43.38178" lon="6.72405">
        <ele>4.3</ele>
        <time>2023-05-16T14:19:24Z</time>
      </trkpt>
      <trkpt lat="43.38178" lon="6.72405">
        <ele>4.3</ele>
        <time>2023-05-16T14:19:25Z</time>
      </trkpt>
      <trkpt lat="43.38178" lon="6.72405">
        <ele>4.3</ele>
        <time>2023-05-16T14:19:26Z</time>
      </trkpt>
      <trkpt lat="43.38178" lon="6.72405">
        <ele>4.3</ele>
        <time>2023-05-16T14:19:27Z</time>
      </trkpt>
      <trkpt lat="43.38178" lon="6.72405">
        <ele>4.3</ele>
        <time>2023-05-16T14:19:28Z</time>
      </trkpt>
      <trkpt lat="43.38178" lon="6.72405">
        <ele>4.3</ele>
        <time>2023-05-16T14:19:29Z</time>
      </trkpt>
      <trkpt lat="43.38178" lon="6.72405">
        <ele>4.3</ele>
        <time>2023-05-16T14:19:30Z</time>
      </trkpt>
      <trkpt lat="43.38178" lon="6.72405">
        <ele>4.3</ele>
        <time>2023-05-16T14:19:31Z</time>
      </trkpt>
      <trkpt lat="43.38178" lon="6.72405">
        <ele>4.3</ele>
        <time>2023-05-16T14:19:32Z</time>
      </trkpt>
      <trkpt lat="43.38178" lon="6.72405">
        <ele>4.3</ele>
        <time>2023-05-16T14:19:33Z</time>
      </trkpt>
      <trkpt lat="43.38178" lon="6.72405">
        <ele>4.3</ele>
        <time>2023-05-16T14:19:34Z</time>
      </trkpt>
      <trkpt lat="43.38178" lon="6.72405">
        <ele>4.3</ele>
        <time>2023-05-16T14:19:35Z</time>
      </trkpt>
      <trkpt lat="43.38178" lon="6.72405">
        <ele>4.3</ele>
        <time>2023-05-16T14:19:36Z</time>
      </trkpt>
      <trkpt lat="43.38178" lon="6.72405">
        <ele>4.3</ele>
        <time>2023-05-16T14:19:37Z</time>
      </trkpt>
      <trkpt lat="43.38178" lon="6.72405">
        <ele>4.3</ele>
        <time>2023-05-16T14:19:38Z</time>
      </trkpt>
      <trkpt lat="43.38178" lon="6.72405">
        <ele>4.3</ele>
        <time>2023-05-16T14:19:39Z</time>
      </trkpt>
      <trkpt lat="43.38178" lon="6.72405">
        <ele>4.3</ele>
        <time>2023-05-16T14:19:40Z</time>
      </trkpt>
      <trkpt lat="43.38178" lon="6.72405">
        <ele>4.3</ele>
        <time>2023-05-16T14:19:41Z</time>
      </trkpt>
      <trkpt lat="43.38178" lon="6.72405">
        <ele>4.3</ele>
        <time>2023-05-16T14:19:42Z</time>
      </trkpt>
      <trkpt lat="43.38178" lon="6.72405">
        <ele>4.3</ele>
        <time>2023-05-16T14:19:43Z</time>
      </trkpt>
      <trkpt lat="43.38178" lon="6.72405">
        <ele>4.3</ele>
        <time>2023-05-16T14:19:44Z</time>
      </trkpt>
      <trkpt lat="43.38178" lon="6.72405">
        <ele>4.3</ele>
        <time>2023-05-16T14:19:45Z</time>
      </trkpt>
      <trkpt lat="43.38178" lon="6.72405">
        <ele>4.3</ele>
        <time>2023-05-16T14:19:46Z</time>
      </trkpt>
      <trkpt lat="43.38178" lon="6.72405">
        <ele>4.3</ele>
        <time>2023-05-16T14:19:47Z</time>
      </trkpt>
      <trkpt lat="43.38178" lon="6.72405">
        <ele>4.3</ele>
        <time>2023-05-16T14:19:48Z</time>
      </trkpt>
      <trkpt lat="43.38178" lon="6.72405">
        <ele>4.3</ele>
        <time>2023-05-16T14:19:49Z</time>
      </trkpt>
      <trkpt lat="43.38178" lon="6.72405">
        <ele>4.3</ele>
        <time>2023-05-16T14:19:50Z</time>
      </trkpt>
      <trkpt lat="43.38178" lon="6.72405">
        <ele>4.3</ele>
        <time>2023-05-16T14:19:51Z</time>
      </trkpt>
      <trkpt lat="43.38178" lon="6.72405">
        <ele>4.3</ele>
        <time>2023-05-16T14:19:52Z</time>
      </trkpt>
      <trkpt lat="43.38178" lon="6.72405">
        <ele>4.3</ele>
        <time>2023-05-16T14:19:53Z</time>
      </trkpt>
      <trkpt lat="43.38178" lon="6.72405">
        <ele>4.3</ele>
        <time>2023-05-16T14:19:54Z</time>
      </trkpt>
      <trkpt lat="43.38178" lon="6.72405">
        <ele>4.3</ele>
        <time>2023-05-16T14:19:55Z</time>
      </trkpt>
      <trkpt lat="43.38178" lon="6.72405">
        <ele>4.3</ele>
        <time>2023-05-16T14:19:56Z</time>
      </trkpt>
      <trkpt lat="43.38178" lon="6.72405">
        <ele>4.3</ele>
        <time>2023-05-16T14:19:57Z</time>
      </trkpt>
      <trkpt lat="43.38178" lon="6.72405">
        <ele>4.3</ele>
        <time>2023-05-16T14:19:58Z</time>
      </trkpt>
      <trkpt lat="43.38178" lon="6.72405">
        <ele>4.3</ele>
        <time>2023-05-16T14:19:59Z</time>
      </trkpt>
      <trkpt lat="43.38178" lon="6.72405">
        <ele>4.3</ele>
        <time>2023-05-16T14:20:00Z</time>
      </trkpt>
      <trkpt lat="43.38178" lon="6.72405">
        <ele>4.3</ele>
        <time>2023-05-16T14:20:01Z</time>
      </trkpt>
      <trkpt lat="43.38178" lon="6.72405">
        <ele>4.3</ele>
        <time>2023-05-16T14:20:02Z</time>
      </trkpt>
      <trkpt lat="43.38178" lon="6.72405">
        <ele>4.3</ele>
        <time>2023-05-16T14:20:03Z</time>
      </trkpt>
      <trkpt lat="43.38178" lon="6.72405">
        <ele>4.3</ele>
        <time>2023-05-16T14:20:04Z</time>
      </trkpt>
      <trkpt lat="43.38178" lon="6.72405">
        <ele>4.3</ele>
        <time>2023-05-16T14:20:05Z</time>
      </trkpt>
      <trkpt lat="43.38178" lon="6.72405">
        <ele>4.3</ele>
        <time>2023-05-16T14:20:06Z</time>
      </trkpt>
      <trkpt lat="43.38178" lon="6.72405">
        <ele>4.3</ele>
        <time>2023-05-16T14:20:07Z</time>
      </trkpt>
      <trkpt lat="43.38178" lon="6.72405">
        <ele>4.3</ele>
        <time>2023-05-16T14:20:08Z</time>
      </trkpt>
      <trkpt lat="43.38178" lon="6.72405">
        <ele>4.3</ele>
        <time>2023-05-16T14:20:09Z</time>
      </trkpt>
      <trkpt lat="43.38178" lon="6.72405">
        <ele>4.3</ele>
        <time>2023-05-16T14:20:10Z</time>
      </trkpt>
      <trkpt lat="43.38178" lon="6.72405">
        <ele>4.3</ele>
        <time>2023-05-16T14:20:11Z</time>
      </trkpt>
      <trkpt lat="43.38178" lon="6.72405">
        <ele>4.3</ele>
        <time>2023-05-16T14:20:12Z</time>
      </trkpt>
      <trkpt lat="43.38178" lon="6.72405">
        <ele>4.3</ele>
        <time>2023-05-16T14:20:13Z</time>
      </trkpt>
      <trkpt lat="43.38178" lon="6.72405">
        <ele>4.3</ele>
        <time>2023-05-16T14:20:14Z</time>
      </trkpt>
      <trkpt lat="43.38178" lon="6.72405">
        <ele>4.3</ele>
        <time>2023-05-16T14:20:15Z</time>
      </trkpt>
      <trkpt lat="43.38178" lon="6.72405">
        <ele>4.3</ele>
        <time>2023-05-16T14:20:16Z</time>
      </trkpt>
      <trkpt lat="43.38178" lon="6.72405">
        <ele>4.3</ele>
        <time>2023-05-16T14:20:17Z</time>
      </trkpt>
      <trkpt lat="43.38178" lon="6.72405">
        <ele>4.3</ele>
        <time>2023-05-16T14:20:18Z</time>
      </trkpt>
      <trkpt lat="43.38178" lon="6.72405">
        <ele>4.3</ele>
        <time>2023-05-16T14:20:19Z</time>
      </trkpt>
      <trkpt lat="43.38178" lon="6.72405">
        <ele>4.3</ele>
        <time>2023-05-16T14:20:20Z</time>
      </trkpt>
      <trkpt lat="43.38178" lon="6.72405">
        <ele>4.3</ele>
        <time>2023-05-16T14:20:21Z</time>
      </trkpt>
      <trkpt lat="43.38178" lon="6.72405">
        <ele>4.3</ele>
        <time>2023-05-16T14:20:22Z</time>
      </trkpt>
      <trkpt lat="43.38178" lon="6.72405">
        <ele>4.3</ele>
        <time>2023-05-16T14:20:23Z</time>
      </trkpt>
      <trkpt lat="43.38178" lon="6.72405">
        <ele>4.3</ele>
        <time>2023-05-16T14:20:24Z</time>
      </trkpt>
      <trkpt lat="43.38178" lon="6.72405">
        <ele>4.3</ele>
        <time>2023-05-16T14:20:25Z</time>
      </trkpt>
      <trkpt lat="43.38178" lon="6.72405">
        <ele>4.3</ele>
        <time>2023-05-16T14:20:26Z</time>
      </trkpt>
      <trkpt lat="43.38178" lon="6.72405">
        <ele>4.3</ele>
        <time>2023-05-16T14:20:27Z</time>
      </trkpt>
      <trkpt lat="43.38178" lon="6.72405">
        <ele>4.3</ele>
        <time>2023-05-16T14:20:28Z</time>
      </trkpt>
      <trkpt lat="43.38178" lon="6.72405">
        <ele>4.3</ele>
        <time>2023-05-16T14:20:29Z</time>
      </trkpt>
      <trkpt lat="43.38178" lon="6.72405">
        <ele>4.3</ele>
        <time>2023-05-16T14:20:30Z</time>
      </trkpt>
      <trkpt lat="43.38178" lon="6.72405">
        <ele>4.3</ele>
        <time>2023-05-16T14:20:31Z</time>
      </trkpt>
      <trkpt lat="43.38178" lon="6.72405">
        <ele>4.3</ele>
        <time>2023-05-16T14:20:32Z</time>
      </trkpt>
      <trkpt lat="43.38178" lon="6.72405">
        <ele>4.3</ele>
        <time>2023-05-16T14:20:33Z</time>
      </trkpt>
      <trkpt lat="43.38178" lon="6.72405">
        <ele>4.3</ele>
        <time>2023-05-16T14:20:34Z</time>
      </trkpt>
      <trkpt lat="43.38178" lon="6.72405">
        <ele>4.3</ele>
        <time>2023-05-16T14:20:35Z</time>
      </trkpt>
      <trkpt lat="43.38178" lon="6.72405">
        <ele>4.3</ele>
        <time>2023-05-16T14:20:36Z</time>
      </trkpt>
      <trkpt lat="43.38178" lon="6.72405">
        <ele>4.3</ele>
        <time>2023-05-16T14:20:37Z</time>
      </trkpt>
      <trkpt lat="43.38178" lon="6.72405">
        <ele>4.3</ele>
        <time>2023-05-16T14:20:38Z</time>
      </trkpt>
      <trkpt lat="43.38178" lon="6.72405">
        <ele>4.3</ele>
        <time>2023-05-16T14:20:39Z</time>
      </trkpt>
      <trkpt lat="43.38178" lon="6.72405">
        <ele>4.3</ele>
        <time>2023-05-16T14:20:40Z</time>
      </trkpt>
      <trkpt lat="43.38178" lon="6.72405">
        <ele>4.3</ele>
        <time>2023-05-16T14:20:41Z</time>
      </trkpt>
      <trkpt lat="43.38178" lon="6.72405">
        <ele>4.3</ele>
        <time>2023-05-16T14:20:42Z</time>
      </trkpt>
      <trkpt lat="43.38178" lon="6.72405">
        <ele>4.3</ele>
        <time>2023-05-16T14:20:43Z</time>
      </trkpt>
      <trkpt lat="43.38178" lon="6.72405">
        <ele>4.3</ele>
        <time>2023-05-16T14:20:44Z</time>
      </trkpt>
      <trkpt lat="43.38178" lon="6.72405">
        <ele>4.3</ele>
        <time>2023-05-16T14:20:45Z</time>
      </trkpt>
      <trkpt lat="43.38178" lon="6.72405">
        <ele>4.3</ele>
        <time>2023-05-16T14:20:46Z</time>
      </trkpt>
      <trkpt lat="43.38178" lon="6.72405">
        <ele>4.3</ele>
        <time>2023-05-16T14:20:47Z</time>
      </trkpt>
      <trkpt lat="43.38178" lon="6.72405">
        <ele>4.3</ele>
        <time>2023-05-16T14:20:48Z</time>
      </trkpt>
      <trkpt lat="43.38178" lon="6.72405">
        <ele>4.3</ele>
        <time>2023-05-16T14:20:49Z</time>
      </trkpt>
      <trkpt lat="43.38178" lon="6.72405">
        <ele>4.3</ele>
        <time>2023-05-16T14:20:50Z</time>
      </trkpt>
      <trkpt lat="43.38178" lon="6.72405">
        <ele>4.3</ele>
        <time>2023-05-16T14:20:51Z</time>
      </trkpt>
      <trkpt lat="43.38178" lon="6.72405">
        <ele>4.3</ele>
        <time>2023-05-16T14:20:52Z</time>
      </trkpt>
      <trkpt lat="43.38178" lon="6.72405">
        <ele>4.3</ele>
        <time>2023-05-16T14:20:53Z</time>
      </trkpt>
      <trkpt lat="43.38178" lon="6.72405">
        <ele>4.3</ele>
        <time>2023-05-16T14:20:54Z</time>
      </trkpt>
      <trkpt lat="43.38178" lon="6.72405">
        <ele>4.3</ele>
        <time>2023-05-16T14:20:55Z</time>
      </trkpt>
      <trkpt lat="43.38178" lon="6.72405">
        <ele>4.3</ele>
        <time>2023-05-16T14:20:56Z</time>
      </trkpt>
      <trkpt lat="43.38178" lon="6.72405">
        <ele>4.3</ele>
        <time>2023-05-16T14:20:57Z</time>
      </trkpt>
      <trkpt lat="43.38178" lon="6.72405">
        <ele>4.3</ele>
        <time>2023-05-16T14:20:58Z</time>
      </trkpt>
      <trkpt lat="43.38178" lon="6.72405">
        <ele>4.3</ele>
        <time>2023-05-16T14:20:59Z</time>
      </trkpt>
      <trkpt lat="43.38178" lon="6.72405">
        <ele>4.3</ele>
        <time>2023-05-16T14:21:00Z</time>
      </trkpt>
      <trkpt lat="43.38178" lon="6.72405">
        <ele>4.3</ele>
        <time>2023-05-16T14:21:01Z</time>
      </trkpt>
      <trkpt lat="43.38178" lon="6.72405">
        <ele>4.3</ele>
        <time>2023-05-16T14:21:02Z</time>
      </trkpt>
      <trkpt lat="43.38178" lon="6.72405">
        <ele>4.3</ele>
        <time>2023-05-16T14:21:03Z</time>
      </trkpt>
      <trkpt lat="43.38178" lon="6.72405">
        <ele>4.3</ele>
        <time>2023-05-16T14:21:04Z</time>
      </trkpt>
      <trkpt lat="43.38178" lon="6.72405">
        <ele>4.3</ele>
        <time>2023-05-16T14:21:05Z</time>
      </trkpt>
      <trkpt lat="43.38178" lon="6.72405">
        <ele>4.3</ele>
        <time>2023-05-16T14:21:06Z</time>
      </trkpt>
      <trkpt lat="43.38178" lon="6.72405">
        <ele>4.3</ele>
        <time>2023-05-16T14:21:07Z</time>
      </trkpt>
      <trkpt lat="43.38178" lon="6.72405">
        <ele>4.3</ele>
        <time>2023-05-16T14:21:08Z</time>
      </trkpt>
      <trkpt lat="43.38178" lon="6.72405">
        <ele>4.3</ele>
        <time>2023-05-16T14:21:09Z</time>
      </trkpt>
      <trkpt lat="43.38178" lon="6.72405">
        <ele>4.3</ele>
        <time>2023-05-16T14:21:10Z</time>
      </trkpt>
      <trkpt lat="43.38178" lon="6.72405">
        <ele>4.3</ele>
        <time>2023-05-16T14:21:11Z</time>
      </trkpt>
      <trkpt lat="43.38178" lon="6.72405">
        <ele>4.3</ele>
        <time>2023-05-16T14:21:12Z</time>
      </trkpt>
      <trkpt lat="43.38178" lon="6.72405">
        <ele>4.3</ele>
        <time>2023-05-16T14:21:13Z</time>
      </trkpt>
      <trkpt lat="43.38178" lon="6.72405">
        <ele>4.3</ele>
        <time>2023-05-16T14:21:14Z</time>
      </trkpt>
      <trkpt lat="43.38178" lon="6.72405">
        <ele>4.3</ele>
        <time>2023-05-16T14:21:15Z</time>
      </trkpt>
      <trkpt lat="43.38178" lon="6.72405">
        <ele>4.3</ele>
        <time>2023-05-16T14:21:16Z</time>
      </trkpt>
      <trkpt lat="43.38178" lon="6.72405">
        <ele>4.3</ele>
        <time>2023-05-16T14:21:17Z</time>
      </trkpt>
      <trkpt lat="43.38178" lon="6.72405">
        <ele>4.3</ele>
        <time>2023-05-16T14:21:18Z</time>
      </trkpt>
      <trkpt lat="43.38178" lon="6.72405">
        <ele>4.3</ele>
        <time>2023-05-16T14:21:19Z</time>
      </trkpt>
      <trkpt lat="43.38178" lon="6.72405">
        <ele>4.3</ele>
        <time>2023-05-16T14:21:20Z</time>
      </trkpt>
      <trkpt lat="43.38178" lon="6.72405">
        <ele>4.3</ele>
        <time>2023-05-16T14:21:21Z</time>
      </trkpt>
      <trkpt lat="43.38178" lon="6.72405">
        <ele>4.3</ele>
        <time>2023-05-16T14:21:22Z</time>
      </trkpt>
      <trkpt lat="43.38178" lon="6.72405">
        <ele>4.3</ele>
        <time>2023-05-16T14:21:23Z</time>
      </trkpt>
      <trkpt lat="43.38178" lon="6.72405">
        <ele>4.3</ele>
        <time>2023-05-16T14:21:24Z</time>
      </trkpt>
      <trkpt lat="43.38178" lon="6.72405">
        <ele>4.3</ele>
        <time>2023-05-16T14:21:25Z</time>
      </trkpt>
      <trkpt lat="43.38178" lon="6.72405">
        <ele>4.3</ele>
        <time>2023-05-16T14:21:26Z</time>
      </trkpt>
      <trkpt lat="43.38178" lon="6.72405">
        <ele>4.3</ele>
        <time>2023-05-16T14:21:27Z</time>
      </trkpt>
      <trkpt lat="43.38178" lon="6.72405">
        <ele>4.3</ele>
        <time>2023-05-16T14:21:28Z</time>
      </trkpt>
      <trkpt lat="43.38178" lon="6.72405">
        <ele>4.3</ele>
        <time>2023-05-16T14:21:29Z</time>
      </trkpt>
      <trkpt lat="43.38178" lon="6.72405">
        <ele>4.3</ele>
        <time>2023-05-16T14:21:30Z</time>
      </trkpt>
      <trkpt lat="43.38178" lon="6.72405">
        <ele>4.3</ele>
        <time>2023-05-16T14:21:31Z</time>
      </trkpt>
      <trkpt lat="43.38178" lon="6.72405">
        <ele>4.3</ele>
        <time>2023-05-16T14:21:32Z</time>
      </trkpt>
      <trkpt lat="43.38178" lon="6.72405">
        <ele>4.3</ele>
        <time>2023-05-16T14:21:33Z</time>
      </trkpt>
      <trkpt lat="43.38178" lon="6.72405">
        <ele>4.3</ele>
        <time>2023-05-16T14:21:34Z</time>
      </trkpt>
      <trkpt lat="43.38178" lon="6.72405">
        <ele>4.3</ele>
        <time>2023-05-16T14:21:35Z</time>
      </trkpt>
      <trkpt lat="43.38178" lon="6.72405">
        <ele>4.3</ele>
        <time>2023-05-16T14:21:36Z</time>
      </trkpt>
      <trkpt lat="43.38178" lon="6.72405">
        <ele>4.3</ele>
        <time>2023-05-16T14:21:37Z</time>
      </trkpt>
      <trkpt lat="43.38178" lon="6.72405">
        <ele>4.3</ele>
        <time>2023-05-16T14:21:38Z</time>
      </trkpt>
      <trkpt lat="43.38178" lon="6.72405">
        <ele>4.3</ele>
        <time>2023-05-16T14:21:39Z</time>
      </trkpt>
      <trkpt lat="43.38178" lon="6.72405">
        <ele>4.3</ele>
        <time>2023-05-16T14:21:40Z</time>
      </trkpt>
      <trkpt lat="43.38178" lon="6.72405">
        <ele>4.3</ele>
        <time>2023-05-16T14:21:41Z</time>
      </trkpt>
      <trkpt lat="43.38178" lon="6.72405">
        <ele>4.3</ele>
        <time>2023-05-16T14:21:42Z</time>
      </trkpt>
      <trkpt lat="43.38178" lon="6.72405">
        <ele>4.3</ele>
        <time>2023-05-16T14:21:43Z</time>
      </trkpt>
      <trkpt lat="43.38178" lon="6.72405">
        <ele>4.3</ele>
        <time>2023-05-16T14:21:44Z</time>
      </trkpt>
      <trkpt lat="43.38178" lon="6.72405">
        <ele>4.3</ele>
        <time>2023-05-16T14:21:45Z</time>
      </trkpt>
      <trkpt lat="43.38178" lon="6.72405">
        <ele>4.3</ele>
        <time>2023-05-16T14:21:46Z</time>
      </trkpt>
      <trkpt lat="43.38178" lon="6.72405">
        <ele>4.3</ele>
        <time>2023-05-16T14:21:47Z</time>
      </trkpt>
      <trkpt lat="43.38178" lon="6.72405">
        <ele>4.3</ele>
        <time>2023-05-16T14:21:48Z</time>
      </trkpt>
      <trkpt lat="43.38178" lon="6.72405">
        <ele>4.3</ele>
        <time>2023-05-16T14:21:49Z</time>
      </trkpt>
      <trkpt lat="43.38178" lon="6.72405">
        <ele>4.3</ele>
        <time>2023-05-16T14:21:50Z</time>
      </trkpt>
      <trkpt lat="43.38178" lon="6.72405">
        <ele>4.3</ele>
        <time>2023-05-16T14:21:51Z</time>
      </trkpt>
      <trkpt lat="43.38178" lon="6.72405">
        <ele>4.3</ele>
        <time>2023-05-16T14:21:52Z</time>
      </trkpt>
      <trkpt lat="43.38178" lon="6.72405">
        <ele>4.3</ele>
        <time>2023-05-16T14:21:53Z</time>
      </trkpt>
      <trkpt lat="43.38178" lon="6.72405">
        <ele>4.3</ele>
        <time>2023-05-16T14:21:54Z</time>
      </trkpt>
      <trkpt lat="43.38178" lon="6.72405">
        <ele>4.3</ele>
        <time>2023-05-16T14:21:55Z</time>
      </trkpt>
      <trkpt lat="43.38178" lon="6.72405">
        <ele>4.3</ele>
        <time>2023-05-16T14:21:56Z</time>
      </trkpt>
      <trkpt lat="43.38178" lon="6.72405">
        <ele>4.3</ele>
        <time>2023-05-16T14:21:57Z</time>
      </trkpt>
      <trkpt lat="43.38178" lon="6.72405">
        <ele>4.3</ele>
        <time>2023-05-16T14:21:58Z</time>
      </trkpt>
      <trkpt lat="43.38178" lon="6.72405">
        <ele>4.3</ele>
        <time>2023-05-16T14:21:59Z</time>
      </trkpt>
      <trkpt lat="43.38178" lon="6.72405">
        <ele>4.3</ele>
        <time>2023-05-16T14:22:00Z</time>
      </trkpt>
      <trkpt lat="43.38178" lon="6.72405">
        <ele>4.3</ele>
        <time>2023-05-16T14:22:01Z</time>
      </trkpt>
      <trkpt lat="43.38178" lon="6.72405">
        <ele>4.3</ele>
        <time>2023-05-16T14:22:02Z</time>
      </trkpt>
      <trkpt lat="43.38178" lon="6.72405">
        <ele>4.3</ele>
        <time>2023-05-16T14:22:03Z</time>
      </trkpt>
      <trkpt lat="43.38178" lon="6.72405">
        <ele>4.3</ele>
        <time>2023-05-16T14:22:04Z</time>
      </trkpt>
      <trkpt lat="43.38178" lon="6.72405">
        <ele>4.3</ele>
        <time>2023-05-16T14:22:05Z</time>
      </trkpt>
      <trkpt lat="43.38178" lon="6.72405">
        <ele>4.3</ele>
        <time>2023-05-16T14:22:06Z</time>
      </trkpt>
      <trkpt lat="43.38178" lon="6.72405">
        <ele>4.3</ele>
        <time>2023-05-16T14:22:07Z</time>
      </trkpt>
      <trkpt lat="43.38178" lon="6.72405">
        <ele>4.3</ele>
        <time>2023-05-16T14:22:08Z</time>
      </trkpt>
      <trkpt lat="43.38178" lon="6.72405">
        <ele>4.3</ele>
        <time>2023-05-16T14:22:09Z</time>
      </trkpt>
      <trkpt lat="43.38178" lon="6.72405">
        <ele>4.3</ele>
        <time>2023-05-16T14:22:10Z</time>
      </trkpt>
      <trkpt lat="43.38178" lon="6.72405">
        <ele>4.3</ele>
        <time>2023-05-16T14:22:11Z</time>
      </trkpt>
      <trkpt lat="43.38178" lon="6.72405">
        <ele>4.3</ele>
        <time>2023-05-16T14:22:12Z</time>
      </trkpt>
      <trkpt lat="43.38178" lon="6.72405">
        <ele>4.3</ele>
        <time>2023-05-16T14:22:13Z</time>
      </trkpt>
      <trkpt lat="43.38178" lon="6.72405">
        <ele>4.3</ele>
        <time>2023-05-16T14:22:14Z</time>
      </trkpt>
      <trkpt lat="43.38178" lon="6.72405">
        <ele>4.3</ele>
        <time>2023-05-16T14:22:15Z</time>
      </trkpt>
      <trkpt lat="43.38178" lon="6.72405">
        <ele>4.3</ele>
        <time>2023-05-16T14:22:16Z</time>
      </trkpt>
      <trkpt lat="43.38178" lon="6.72405">
        <ele>4.3</ele>
        <time>2023-05-16T14:22:17Z</time>
      </trkpt>
      <trkpt lat="43.38178" lon="6.72405">
        <ele>4.3</ele>
        <time>2023-05-16T14:22:18Z</time>
      </trkpt>
      <trkpt lat="43.38178" lon="6.72405">
        <ele>4.3</ele>
        <time>2023-05-16T14:22:19Z</time>
      </trkpt>
      <trkpt lat="43.38178" lon="6.72405">
        <ele>4.3</ele>
        <time>2023-05-16T14:22:20Z</time>
      </trkpt>
      <trkpt lat="43.38178" lon="6.72405">
        <ele>4.3</ele>
        <time>2023-05-16T14:22:21Z</time>
      </trkpt>
      <trkpt lat="43.38178" lon="6.72405">
        <ele>4.3</ele>
        <time>2023-05-16T14:22:22Z</time>
      </trkpt>
      <trkpt lat="43.38178" lon="6.72405">
        <ele>4.3</ele>
        <time>2023-05-16T14:22:23Z</time>
      </trkpt>
      <trkpt lat="43.38178" lon="6.72405">
        <ele>4.3</ele>
        <time>2023-05-16T14:22:24Z</time>
      </trkpt>
      <trkpt lat="43.38178" lon="6.72405">
        <ele>4.3</ele>
        <time>2023-05-16T14:22:25Z</time>
      </trkpt>
      <trkpt lat="43.38178" lon="6.72405">
        <ele>4.3</ele>
        <time>2023-05-16T14:22:26Z</time>
      </trkpt>
      <trkpt lat="43.38178" lon="6.72405">
        <ele>4.3</ele>
        <time>2023-05-16T14:22:27Z</time>
      </trkpt>
      <trkpt lat="43.38178" lon="6.72405">
        <ele>4.3</ele>
        <time>2023-05-16T14:22:28Z</time>
      </trkpt>
      <trkpt lat="43.38178" lon="6.72405">
        <ele>4.3</ele>
        <time>2023-05-16T14:22:29Z</time>
      </trkpt>
      <trkpt lat="43.38178" lon="6.72405">
        <ele>4.3</ele>
        <time>2023-05-16T14:22:30Z</time>
      </trkpt>
      <trkpt lat="43.38178" lon="6.72405">
        <ele>4.3</ele>
        <time>2023-05-16T14:22:31Z</time>
      </trkpt>
      <trkpt lat="43.38178" lon="6.72405">
        <ele>4.3</ele>
        <time>2023-05-16T14:22:32Z</time>
      </trkpt>
      <trkpt lat="43.38178" lon="6.72405">
        <ele>4.3</ele>
        <time>2023-05-16T14:22:33Z</time>
      </trkpt>
      <trkpt lat="43.38178" lon="6.72405">
        <ele>4.3</ele>
        <time>2023-05-16T14:22:34Z</time>
      </trkpt>
      <trkpt lat="43.38178" lon="6.72405">
        <ele>4.3</ele>
        <time>2023-05-16T14:22:35Z</time>
      </trkpt>
      <trkpt lat="43.38178" lon="6.72405">
        <ele>4.3</ele>
        <time>2023-05-16T14:22:36Z</time>
      </trkpt>
      <trkpt lat="43.38178" lon="6.72405">
        <ele>4.3</ele>
        <time>2023-05-16T14:22:37Z</time>
      </trkpt>
      <trkpt lat="43.38178" lon="6.72405">
        <ele>4.3</ele>
        <time>2023-05-16T14:22:38Z</time>
      </trkpt>
      <trkpt lat="43.38178" lon="6.72405">
        <ele>4.3</ele>
        <time>2023-05-16T14:22:39Z</time>
      </trkpt>
      <trkpt lat="43.38178" lon="6.72405">
        <ele>4.3</ele>
        <time>2023-05-16T14:22:40Z</time>
      </trkpt>
      <trkpt lat="43.38178" lon="6.72405">
        <ele>4.3</ele>
        <time>2023-05-16T14:22:41Z</time>
      </trkpt>
      <trkpt lat="43.38178" lon="6.72405">
        <ele>4.3</ele>
        <time>2023-05-16T14:22:42Z</time>
      </trkpt>
      <trkpt lat="43.38178" lon="6.72405">
        <ele>4.3</ele>
        <time>2023-05-16T14:22:43Z</time>
      </trkpt>
      <trkpt lat="43.38178" lon="6.72405">
        <ele>4.3</ele>
        <time>2023-05-16T14:22:44Z</time>
      </trkpt>
      <trkpt lat="43.38178" lon="6.72405">
        <ele>4.3</ele>
        <time>2023-05-16T14:22:45Z</time>
      </trkpt>
      <trkpt lat="43.38178" lon="6.72405">
        <ele>4.3</ele>
        <time>2023-05-16T14:22:46Z</time>
      </trkpt>
      <trkpt lat="43.38178" lon="6.72405">
        <ele>4.3</ele>
        <time>2023-05-16T14:22:47Z</time>
      </trkpt>
      <trkpt lat="43.38178" lon="6.72405">
        <ele>4.3</ele>
        <time>2023-05-16T14:22:48Z</time>
      </trkpt>
      <trkpt lat="43.38178" lon="6.72405">
        <ele>4.3</ele>
        <time>2023-05-16T14:22:49Z</time>
      </trkpt>
      <trkpt lat="43.38178" lon="6.72405">
        <ele>4.3</ele>
        <time>2023-05-16T14:22:50Z</time>
      </trkpt>
      <trkpt lat="43.38178" lon="6.72405">
        <ele>4.3</ele>
        <time>2023-05-16T14:22:51Z</time>
      </trkpt>
      <trkpt lat="43.38178" lon="6.72405">
        <ele>4.3</ele>
        <time>2023-05-16T14:22:52Z</time>
      </trkpt>
      <trkpt lat="43.38178" lon="6.72405">
        <ele>4.3</ele>
        <time>2023-05-16T14:22:53Z</time>
      </trkpt>
      <trkpt lat="43.38178" lon="6.72405">
        <ele>4.3</ele>
        <time>2023-05-16T14:22:54Z</time>
      </trkpt>
      <trkpt lat="43.38178" lon="6.72405">
        <ele>4.3</ele>
        <time>2023-05-16T14:22:55Z</time>
      </trkpt>
      <trkpt lat="43.38178" lon="6.72405">
        <ele>4.3</ele>
        <time>2023-05-16T14:22:56Z</time>
      </trkpt>
      <trkpt lat="43.38178" lon="6.72405">
        <ele>4.3</ele>
        <time>2023-05-16T14:22:57Z</time>
      </trkpt>
      <trkpt lat="43.38178" lon="6.72405">
        <ele>4.3</ele>
        <time>2023-05-16T14:22:58Z</time>
      </trkpt>
      <trkpt lat="43.38178" lon="6.72405">
        <ele>4.3</ele>
        <time>2023-05-16T14:22:59Z</time>
      </trkpt>
      <trkpt lat="43.38178" lon="6.72405">
        <ele>4.3</ele>
        <time>2023-05-16T14:23:00Z</time>
      </trkpt>
      <trkpt lat="43.38178" lon="6.72405">
        <ele>4.3</ele>
        <time>2023-05-16T14:23:01Z</time>
      </trkpt>
      <trkpt lat="43.38178" lon="6.72405">
        <ele>4.3</ele>
        <time>2023-05-16T14:23:02Z</time>
      </trkpt>
      <trkpt lat="43.38178" lon="6.72405">
        <ele>4.3</ele>
        <time>2023-05-16T14:23:03Z</time>
      </trkpt>
      <trkpt lat="43.38178" lon="6.72405">
        <ele>4.3</ele>
        <time>2023-05-16T14:23:04Z</time>
      </trkpt>
      <trkpt lat="43.38178" lon="6.72405">
        <ele>4.3</ele>
        <time>2023-05-16T14:23:05Z</time>
      </trkpt>
      <trkpt lat="43.38178" lon="6.72405">
        <ele>4.3</ele>
        <time>2023-05-16T14:23:06Z</time>
      </trkpt>
      <trkpt lat="43.38178" lon="6.72405">
        <ele>4.3</ele>
        <time>2023-05-16T14:23:07Z</time>
      </trkpt>
      <trkpt lat="43.38178" lon="6.72405">
        <ele>4.3</ele>
        <time>2023-05-16T14:23:08Z</time>
      </trkpt>
      <trkpt lat="43.38178" lon="6.72405">
        <ele>4.3</ele>
        <time>2023-05-16T14:23:09Z</time>
      </trkpt>
      <trkpt lat="43.38178" lon="6.72405">
        <ele>4.3</ele>
        <time>2023-05-16T14:23:10Z</time>
      </trkpt>
      <trkpt lat="43.38178" lon="6.72405">
        <ele>4.3</ele>
        <time>2023-05-16T14:23:11Z</time>
      </trkpt>
      <trkpt lat="43.38178" lon="6.72405">
        <ele>4.3</ele>
        <time>2023-05-16T14:23:12Z</time>
      </trkpt>
      <trkpt lat="43.38178" lon="6.72405">
        <ele>4.3</ele>
        <time>2023-05-16T14:23:13Z</time>
      </trkpt>
      <trkpt lat="43.38178" lon="6.72405">
        <ele>4.3</ele>
        <time>2023-05-16T14:23:14Z</time>
      </trkpt>
      <trkpt lat="43.38178" lon="6.72405">
        <ele>4.3</ele>
        <time>2023-05-16T14:23:15Z</time>
      </trkpt>
      <trkpt lat="43.38178" lon="6.72405">
        <ele>4.3</ele>
        <time>2023-05-16T14:23:16Z</time>
      </trkpt>
      <trkpt lat="43.38178" lon="6.72405">
        <ele>4.3</ele>
        <time>2023-05-16T14:23:17Z</time>
      </trkpt>
      <trkpt lat="43.38178" lon="6.72405">
        <ele>4.3</ele>
        <time>2023-05-16T14:23:18Z</time>
      </trkpt>
      <trkpt lat="43.38178" lon="6.72405">
        <ele>4.3</ele>
        <time>2023-05-16T14:23:19Z</time>
      </trkpt>
      <trkpt lat="43.38178" lon="6.72405">
        <ele>4.3</ele>
        <time>2023-05-16T14:23:20Z</time>
      </trkpt>
      <trkpt lat="43.38178" lon="6.72405">
        <ele>4.3</ele>
        <time>2023-05-16T14:23:21Z</time>
      </trkpt>
      <trkpt lat="43.38178" lon="6.72405">
        <ele>4.3</ele>
        <time>2023-05-16T14:23:22Z</time>
      </trkpt>
      <trkpt lat="43.38178" lon="6.72405">
        <ele>4.3</ele>
        <time>2023-05-16T14:23:23Z</time>
      </trkpt>
      <trkpt lat="43.38178" lon="6.72405">
        <ele>4.3</ele>
        <time>2023-05-16T14:23:24Z</time>
      </trkpt>
      <trkpt lat="43.38178" lon="6.72405">
        <ele>4.3</ele>
        <time>2023-05-16T14:23:25Z</time>
      </trkpt>
      <trkpt lat="43.38178" lon="6.72405">
        <ele>4.3</ele>
        <time>2023-05-16T14:23:26Z</time>
      </trkpt>
      <trkpt lat="43.38178" lon="6.72405">
        <ele>4.3</ele>
        <time>2023-05-16T14:23:27Z</time>
      </trkpt>
      <trkpt lat="43.38178" lon="6.72405">
        <ele>4.3</ele>
        <time>2023-05-16T14:23:28Z</time>
      </trkpt>
      <trkpt lat="43.38178" lon="6.72405">
        <ele>4.3</ele>
        <time>2023-05-16T14:23:29Z</time>
      </trkpt>
      <trkpt lat="43.38178" lon="6.72405">
        <ele>4.3</ele>
        <time>2023-05-16T14:23:30Z</time>
      </trkpt>
      <trkpt lat="43.38178" lon="6.72405">
        <ele>4.3</ele>
        <time>2023-05-16T14:23:31Z</time>
      </trkpt>
      <trkpt lat="43.38178" lon="6.72405">
        <ele>4.3</ele>
        <time>2023-05-16T14:23:32Z</time>
      </trkpt>
      <trkpt lat="43.38178" lon="6.72405">
        <ele>4.3</ele>
        <time>2023-05-16T14:23:33Z</time>
      </trkpt>
      <trkpt lat="43.38178" lon="6.72405">
        <ele>4.3</ele>
        <time>2023-05-16T14:23:34Z</time>
      </trkpt>
      <trkpt lat="43.38178" lon="6.72405">
        <ele>4.3</ele>
        <time>2023-05-16T14:23:35Z</time>
      </trkpt>
      <trkpt lat="43.38178" lon="6.72405">
        <ele>4.3</ele>
        <time>2023-05-16T14:23:36Z</time>
      </trkpt>
      <trkpt lat="43.38178" lon="6.72405">
        <ele>4.3</ele>
        <time>2023-05-16T14:23:37Z</time>
      </trkpt>
      <trkpt lat="43.38178" lon="6.72405">
        <ele>4.3</ele>
        <time>2023-05-16T14:23:38Z</time>
      </trkpt>
      <trkpt lat="43.38178" lon="6.72405">
        <ele>4.3</ele>
        <time>2023-05-16T14:23:39Z</time>
      </trkpt>
      <trkpt lat="43.38178" lon="6.72405">
        <ele>4.3</ele>
        <time>2023-05-16T14:23:40Z</time>
      </trkpt>
      <trkpt lat="43.38178" lon="6.72405">
        <ele>4.3</ele>
        <time>2023-05-16T14:23:41Z</time>
      </trkpt>
      <trkpt lat="43.38178" lon="6.72405">
        <ele>4.3</ele>
        <time>2023-05-16T14:23:42Z</time>
      </trkpt>
      <trkpt lat="43.38178" lon="6.72405">
        <ele>4.3</ele>
        <time>2023-05-16T14:23:43Z</time>
      </trkpt>
      <trkpt lat="43.38178" lon="6.72405">
        <ele>4.3</ele>
        <time>2023-05-16T14:23:44Z</time>
      </trkpt>
      <trkpt lat="43.38178" lon="6.72405">
        <ele>4.3</ele>
        <time>2023-05-16T14:23:45Z</time>
      </trkpt>
      <trkpt lat="43.38178" lon="6.72405">
        <ele>4.3</ele>
        <time>2023-05-16T14:23:46Z</time>
      </trkpt>
      <trkpt lat="43.38178" lon="6.72405">
        <ele>4.3</ele>
        <time>2023-05-16T14:23:47Z</time>
      </trkpt>
      <trkpt lat="43.38178" lon="6.72405">
        <ele>4.3</ele>
        <time>2023-05-16T14:23:48Z</time>
      </trkpt>
      <trkpt lat="43.38178" lon="6.72405">
        <ele>4.3</ele>
        <time>2023-05-16T14:23:49Z</time>
      </trkpt>
      <trkpt lat="43.38178" lon="6.72405">
        <ele>4.3</ele>
        <time>2023-05-16T14:23:50Z</time>
      </trkpt>
      <trkpt lat="43.38178" lon="6.72405">
        <ele>4.3</ele>
        <time>2023-05-16T14:23:51Z</time>
      </trkpt>
      <trkpt lat="43.38178" lon="6.72405">
        <ele>4.3</ele>
        <time>2023-05-16T14:23:52Z</time>
      </trkpt>
      <trkpt lat="43.38178" lon="6.72405">
        <ele>4.3</ele>
        <time>2023-05-16T14:23:53Z</time>
      </trkpt>
      <trkpt lat="43.38178" lon="6.72405">
        <ele>4.3</ele>
        <time>2023-05-16T14:23:54Z</time>
      </trkpt>
      <trkpt lat="43.38178" lon="6.72405">
        <ele>4.3</ele>
        <time>2023-05-16T14:23:55Z</time>
      </trkpt>
      <trkpt lat="43.38178" lon="6.72405">
        <ele>4.3</ele>
        <time>2023-05-16T14:23:56Z</time>
      </trkpt>
      <trkpt lat="43.38178" lon="6.72405">
        <ele>4.3</ele>
        <time>2023-05-16T14:23:57Z</time>
      </trkpt>
      <trkpt lat="43.38178" lon="6.72405">
        <ele>4.3</ele>
        <time>2023-05-16T14:23:58Z</time>
      </trkpt>
      <trkpt lat="43.38178" lon="6.72405">
        <ele>4.3</ele>
        <time>2023-05-16T14:23:59Z</time>
      </trkpt>
      <trkpt lat="43.38178" lon="6.72405">
        <ele>4.3</ele>
        <time>2023-05-16T14:24:00Z</time>
      </trkpt>
      <trkpt lat="43.38178" lon="6.72405">
        <ele>4.3</ele>
        <time>2023-05-16T14:24:01Z</time>
      </trkpt>
      <trkpt lat="43.38178" lon="6.72405">
        <ele>4.3</ele>
        <time>2023-05-16T14:24:02Z</time>
      </trkpt>
      <trkpt lat="43.38178" lon="6.72405">
        <ele>4.3</ele>
        <time>2023-05-16T14:24:03Z</time>
      </trkpt>
      <trkpt lat="43.38178" lon="6.72405">
        <ele>4.3</ele>
        <time>2023-05-16T14:24:04Z</time>
      </trkpt>
      <trkpt lat="43.38178" lon="6.72405">
        <ele>4.3</ele>
        <time>2023-05-16T14:24:05Z</time>
      </trkpt>
      <trkpt lat="43.38178" lon="6.72405">
        <ele>4.3</ele>
        <time>2023-05-16T14:24:06Z</time>
      </trkpt>
      <trkpt lat="43.38178" lon="6.72405">
        <ele>4.3</ele>
        <time>2023-05-16T14:24:07Z</time>
      </trkpt>
      <trkpt lat="43.38178" lon="6.72405">
        <ele>4.3</ele>
        <time>2023-05-16T14:24:08Z</time>
      </trkpt>
      <trkpt lat="43.38178" lon="6.72405">
        <ele>4.3</ele>
        <time>2023-05-16T14:24:09Z</time>
      </trkpt>
      <trkpt lat="43.38178" lon="6.72405">
        <ele>4.3</ele>
        <time>2023-05-16T14:24:10Z</time>
      </trkpt>
      <trkpt lat="43.38178" lon="6.72405">
        <ele>4.3</ele>
        <time>2023-05-16T14:24:11Z</time>
      </trkpt>
      <trkpt lat="43.38178" lon="6.72405">
        <ele>4.3</ele>
        <time>2023-05-16T14:24:12Z</time>
      </trkpt>
      <trkpt lat="43.38178" lon="6.72405">
        <ele>4.3</ele>
        <time>2023-05-16T14:24:13Z</time>
      </trkpt>
      <trkpt lat="43.38178" lon="6.72405">
        <ele>4.3</ele>
        <time>2023-05-16T14:24:14Z</time>
      </trkpt>
      <trkpt lat="43.38178" lon="6.72405">
        <ele>4.3</ele>
        <time>2023-05-16T14:24:15Z</time>
      </trkpt>
      <trkpt lat="43.38178" lon="6.72405">
        <ele>4.3</ele>
        <time>2023-05-16T14:24:16Z</time>
      </trkpt>
      <trkpt lat="43.38178" lon="6.72405">
        <ele>4.3</ele>
        <time>2023-05-16T14:24:17Z</time>
      </trkpt>
      <trkpt lat="43.38178" lon="6.72405">
        <ele>4.3</ele>
        <time>2023-05-16T14:24:18Z</time>
      </trkpt>
      <trkpt lat="43.38178" lon="6.72405">
        <ele>4.3</ele>
        <time>2023-05-16T14:24:19Z</time>
      </trkpt>
      <trkpt lat="43.38178" lon="6.72405">
        <ele>4.3</ele>
        <time>2023-05-16T14:24:20Z</time>
      </trkpt>
      <trkpt lat="43.38178" lon="6.72405">
        <ele>4.3</ele>
        <time>2023-05-16T14:24:21Z</time>
      </trkpt>
      <trkpt lat="43.38178" lon="6.72405">
        <ele>4.3</ele>
        <time>2023-05-16T14:24:22Z</time>
      </trkpt>
      <trkpt lat="43.38178" lon="6.72405">
        <ele>4.3</ele>
        <time>2023-05-16T14:24:23Z</time>
      </trkpt>
      <trkpt lat="43.38178" lon="6.72405">
        <ele>4.3</ele>
        <time>2023-05-16T14:24:24Z</time>
      </trkpt>
      <trkpt lat="43.38178" lon="6.72405">
        <ele>4.3</ele>
        <time>2023-05-16T14:24:25Z</time>
      </trkpt>
      <trkpt lat="43.38178" lon="6.72405">
        <ele>4.3</ele>
        <time>2023-05-16T14:24:26Z</time>
      </trkpt>
      <trkpt lat="43.38178" lon="6.72405">
        <ele>4.3</ele>
        <time>2023-05-16T14:24:27Z</time>
      </trkpt>
      <trkpt lat="43.38178" lon="6.72405">
        <ele>4.3</ele>
        <time>2023-05-16T14:24:28Z</time>
      </trkpt>
      <trkpt lat="43.38178" lon="6.72405">
        <ele>4.3</ele>
        <time>2023-05-16T14:24:29Z</time>
      </trkpt>
      <trkpt lat="43.38178" lon="6.72405">
        <ele>4.3</ele>
        <time>2023-05-16T14:24:30Z</time>
      </trkpt>
      <trkpt lat="43.38178" lon="6.72405">
        <ele>4.3</ele>
        <time>2023-05-16T14:24:31Z</time>
      </trkpt>
      <trkpt lat="43.38178" lon="6.72405">
        <ele>4.3</ele>
        <time>2023-05-16T14:24:32Z</time>
      </trkpt>
      <trkpt lat="43.38178" lon="6.72405">
        <ele>4.3</ele>
        <time>2023-05-16T14:24:33Z</time>
      </trkpt>
      <trkpt lat="43.38178" lon="6.72405">
        <ele>4.3</ele>
        <time>2023-05-16T14:24:34Z</time>
      </trkpt>
      <trkpt lat="43.38178" lon="6.72405">
        <ele>4.3</ele>
        <time>2023-05-16T14:24:35Z</time>
      </trkpt>
      <trkpt lat="43.38178" lon="6.72405">
        <ele>4.3</ele>
        <time>2023-05-16T14:24:36Z</time>
      </trkpt>
      <trkpt lat="43.38178" lon="6.72405">
        <ele>4.3</ele>
        <time>2023-05-16T14:24:37Z</time>
      </trkpt>
      <trkpt lat="43.38178" lon="6.72405">
        <ele>4.3</ele>
        <time>2023-05-16T14:24:38Z</time>
      </trkpt>
      <trkpt lat="43.38178" lon="6.72405">
        <ele>4.3</ele>
        <time>2023-05-16T14:24:39Z</time>
      </trkpt>
      <trkpt lat="43.38178" lon="6.72405">
        <ele>4.3</ele>
        <time>2023-05-16T14:24:40Z</time>
      </trkpt>
      <trkpt lat="43.38178" lon="6.72405">
        <ele>4.3</ele>
        <time>2023-05-16T14:24:41Z</time>
      </trkpt>
      <trkpt lat="43.38178" lon="6.72405">
        <ele>4.3</ele>
        <time>2023-05-16T14:24:42Z</time>
      </trkpt>
      <trkpt lat="43.38178" lon="6.72405">
        <ele>4.3</ele>
        <time>2023-05-16T14:24:43Z</time>
      </trkpt>
      <trkpt lat="43.38178" lon="6.72405">
        <ele>4.3</ele>
        <time>2023-05-16T14:24:44Z</time>
      </trkpt>
      <trkpt lat="43.38178" lon="6.72405">
        <ele>4.3</ele>
        <time>2023-05-16T14:24:45Z</time>
      </trkpt>
      <trkpt lat="43.38178" lon="6.72405">
        <ele>4.3</ele>
        <time>2023-05-16T14:24:46Z</time>
      </trkpt>
      <trkpt lat="43.38178" lon="6.72405">
        <ele>4.3</ele>
        <time>2023-05-16T14:24:47Z</time>
      </trkpt>
      <trkpt lat="43.38178" lon="6.72405">
        <ele>4.3</ele>
        <time>2023-05-16T14:24:48Z</time>
      </trkpt>
      <trkpt lat="43.38178" lon="6.72405">
        <ele>4.3</ele>
        <time>2023-05-16T14:24:49Z</time>
      </trkpt>
      <trkpt lat="43.38178" lon="6.72405">
        <ele>4.3</ele>
        <time>2023-05-16T14:24:50Z</time>
      </trkpt>
      <trkpt lat="43.38178" lon="6.72405">
        <ele>4.3</ele>
        <time>2023-05-16T14:24:51Z</time>
      </trkpt>
      <trkpt lat="43.38178" lon="6.72405">
        <ele>4.3</ele>
        <time>2023-05-16T14:24:52Z</time>
      </trkpt>
      <trkpt lat="43.38178" lon="6.72405">
        <ele>4.3</ele>
        <time>2023-05-16T14:24:53Z</time>
      </trkpt>
      <trkpt lat="43.38178" lon="6.72405">
        <ele>4.3</ele>
        <time>2023-05-16T14:24:54Z</time>
      </trkpt>
      <trkpt lat="43.38178" lon="6.72405">
        <ele>4.3</ele>
        <time>2023-05-16T14:24:55Z</time>
      </trkpt>
      <trkpt lat="43.38178" lon="6.72405">
        <ele>4.3</ele>
        <time>2023-05-16T14:24:56Z</time>
      </trkpt>
      <trkpt lat="43.38178" lon="6.72405">
        <ele>4.3</ele>
        <time>2023-05-16T14:24:57Z</time>
      </trkpt>
      <trkpt lat="43.38178" lon="6.72405">
        <ele>4.3</ele>
        <time>2023-05-16T14:24:58Z</time>
      </trkpt>
      <trkpt lat="43.38178" lon="6.72405">
        <ele>4.3</ele>
        <time>2023-05-16T14:24:59Z</time>
      </trkpt>
      <trkpt lat="43.38178" lon="6.72405">
        <ele>4.3</ele>
        <time>2023-05-16T14:25:00Z</time>
      </trkpt>
      <trkpt lat="43.38178" lon="6.72405">
        <ele>4.3</ele>
        <time>2023-05-16T14:25:01Z</time>
      </trkpt>
      <trkpt lat="43.38178" lon="6.72405">
        <ele>4.3</ele>
        <time>2023-05-16T14:25:02Z</time>
      </trkpt>
      <trkpt lat="43.38178" lon="6.72405">
        <ele>4.3</ele>
        <time>2023-05-16T14:25:03Z</time>
      </trkpt>
      <trkpt lat="43.38178" lon="6.72405">
        <ele>4.3</ele>
        <time>2023-05-16T14:25:04Z</time>
      </trkpt>
      <trkpt lat="43.38178" lon="6.72405">
        <ele>4.3</ele>
        <time>2023-05-16T14:25:05Z</time>
      </trkpt>
      <trkpt lat="43.38178" lon="6.72405">
        <ele>4.3</ele>
        <time>2023-05-16T14:25:06Z</time>
      </trkpt>
      <trkpt lat="43.38178" lon="6.72405">
        <ele>4.3</ele>
        <time>2023-05-16T14:25:07Z</time>
      </trkpt>
      <trkpt lat="43.38178" lon="6.72405">
        <ele>4.3</ele>
        <time>2023-05-16T14:25:08Z</time>
      </trkpt>
      <trkpt lat="43.38178" lon="6.72405">
        <ele>4.3</ele>
        <time>2023-05-16T14:25:09Z</time>
      </trkpt>
      <trkpt lat="43.38178" lon="6.72405">
        <ele>4.3</ele>
        <time>2023-05-16T14:25:10Z</time>
      </trkpt>
      <trkpt lat="43.38178" lon="6.72405">
        <ele>4.3</ele>
        <time>2023-05-16T14:25:11Z</time>
      </trkpt>
      <trkpt lat="43.38178" lon="6.72405">
        <ele>4.3</ele>
        <time>2023-05-16T14:25:12Z</time>
      </trkpt>
      <trkpt lat="43.38178" lon="6.72405">
        <ele>4.3</ele>
        <time>2023-05-16T14:25:13Z</time>
      </trkpt>
      <trkpt lat="43.38178" lon="6.72405">
        <ele>4.3</ele>
        <time>2023-05-16T14:25:14Z</time>
      </trkpt>
      <trkpt lat="43.38178" lon="6.72405">
        <ele>4.3</ele>
        <time>2023-05-16T14:25:15Z</time>
      </trkpt>
      <trkpt lat="43.38178" lon="6.72405">
        <ele>4.3</ele>
        <time>2023-05-16T14:25:16Z</time>
      </trkpt>
      <trkpt lat="43.38178" lon="6.72405">
        <ele>4.3</ele>
        <time>2023-05-16T14:25:17Z</time>
      </trkpt>
      <trkpt lat="43.38178" lon="6.72405">
        <ele>4.3</ele>
        <time>2023-05-16T14:25:18Z</time>
      </trkpt>
      <trkpt lat="43.38178" lon="6.72405">
        <ele>4.3</ele>
        <time>2023-05-16T14:25:19Z</time>
      </trkpt>
      <trkpt lat="43.38178" lon="6.72405">
        <ele>4.3</ele>
        <time>2023-05-16T14:25:20Z</time>
      </trkpt>
      <trkpt lat="43.38178" lon="6.72405">
        <ele>4.3</ele>
        <time>2023-05-16T14:25:21Z</time>
      </trkpt>
      <trkpt lat="43.38178" lon="6.72405">
        <ele>4.3</ele>
        <time>2023-05-16T14:25:22Z</time>
      </trkpt>
      <trkpt lat="43.38178" lon="6.72405">
        <ele>4.3</ele>
        <time>2023-05-16T14:25:23Z</time>
      </trkpt>
      <trkpt lat="43.38178" lon="6.72405">
        <ele>4.3</ele>
        <time>2023-05-16T14:25:24Z</time>
      </trkpt>
      <trkpt lat="43.38178" lon="6.72405">
        <ele>4.3</ele>
        <time>2023-05-16T14:25:25Z</time>
      </trkpt>
      <trkpt lat="43.38178" lon="6.72405">
        <ele>4.3</ele>
        <time>2023-05-16T14:25:26Z</time>
      </trkpt>
      <trkpt lat="43.38178" lon="6.72405">
        <ele>4.3</ele>
        <time>2023-05-16T14:25:27Z</time>
      </trkpt>
      <trkpt lat="43.38178" lon="6.72405">
        <ele>4.3</ele>
        <time>2023-05-16T14:25:28Z</time>
      </trkpt>
      <trkpt lat="43.38178" lon="6.72405">
        <ele>4.3</ele>
        <time>2023-05-16T14:25:29Z</time>
      </trkpt>
      <trkpt lat="43.38178" lon="6.72405">
        <ele>4.3</ele>
        <time>2023-05-16T14:25:30Z</time>
      </trkpt>
      <trkpt lat="43.38178" lon="6.72405">
        <ele>4.3</ele>
        <time>2023-05-16T14:25:31Z</time>
      </trkpt>
      <trkpt lat="43.38178" lon="6.72405">
        <ele>4.3</ele>
        <time>2023-05-16T14:25:32Z</time>
      </trkpt>
      <trkpt lat="43.38178" lon="6.72405">
        <ele>4.3</ele>
        <time>2023-05-16T14:25:33Z</time>
      </trkpt>
      <trkpt lat="43.38178" lon="6.72405">
        <ele>4.3</ele>
        <time>2023-05-16T14:25:34Z</time>
      </trkpt>
      <trkpt lat="43.38178" lon="6.72405">
        <ele>4.3</ele>
        <time>2023-05-16T14:25:35Z</time>
      </trkpt>
      <trkpt lat="43.38178" lon="6.72405">
        <ele>4.3</ele>
        <time>2023-05-16T14:25:36Z</time>
      </trkpt>
      <trkpt lat="43.38178" lon="6.72405">
        <ele>4.3</ele>
        <time>2023-05-16T14:25:37Z</time>
      </trkpt>
      <trkpt lat="43.38178" lon="6.72405">
        <ele>4.3</ele>
        <time>2023-05-16T14:25:38Z</time>
      </trkpt>
      <trkpt lat="43.38178" lon="6.72405">
        <ele>4.3</ele>
        <time>2023-05-16T14:25:39Z</time>
      </trkpt>
      <trkpt lat="43.38178" lon="6.72405">
        <ele>4.3</ele>
        <time>2023-05-16T14:25:40Z</time>
      </trkpt>
      <trkpt lat="43.38178" lon="6.72405">
        <ele>4.3</ele>
        <time>2023-05-16T14:25:41Z</time>
      </trkpt>
      <trkpt lat="43.38178" lon="6.72405">
        <ele>4.3</ele>
        <time>2023-05-16T14:25:42Z</time>
      </trkpt>
      <trkpt lat="43.38178" lon="6.72405">
        <ele>4.3</ele>
        <time>2023-05-16T14:25:43Z</time>
      </trkpt>
      <trkpt lat="43.38178" lon="6.72405">
        <ele>4.3</ele>
        <time>2023-05-16T14:25:44Z</time>
      </trkpt>
      <trkpt lat="43.38178" lon="6.72405">
        <ele>4.3</ele>
        <time>2023-05-16T14:25:45Z</time>
      </trkpt>
      <trkpt lat="43.38178" lon="6.72405">
        <ele>4.3</ele>
        <time>2023-05-16T14:25:46Z</time>
      </trkpt>
      <trkpt lat="43.38178" lon="6.72405">
        <ele>4.3</ele>
        <time>2023-05-16T14:25:47Z</time>
      </trkpt>
      <trkpt lat="43.38178" lon="6.72405">
        <ele>4.3</ele>
        <time>2023-05-16T14:25:48Z</time>
      </trkpt>
      <trkpt lat="43.38178" lon="6.72405">
        <ele>4.3</ele>
        <time>2023-05-16T14:25:49Z</time>
      </trkpt>
      <trkpt lat="43.38178" lon="6.72405">
        <ele>4.3</ele>
        <time>2023-05-16T14:25:50Z</time>
      </trkpt>
      <trkpt lat="43.38178" lon="6.72405">
        <ele>4.3</ele>
        <time>2023-05-16T14:25:51Z</time>
      </trkpt>
      <trkpt lat="43.38178" lon="6.72405">
        <ele>4.3</ele>
        <time>2023-05-16T14:25:52Z</time>
      </trkpt>
      <trkpt lat="43.38178" lon="6.72405">
        <ele>4.3</ele>
        <time>2023-05-16T14:25:53Z</time>
      </trkpt>
      <trkpt lat="43.38178" lon="6.72405">
        <ele>4.3</ele>
        <time>2023-05-16T14:25:54Z</time>
      </trkpt>
      <trkpt lat="43.38178" lon="6.72405">
        <ele>4.3</ele>
        <time>2023-05-16T14:25:55Z</time>
      </trkpt>
      <trkpt lat="43.38178" lon="6.72405">
        <ele>4.3</ele>
        <time>2023-05-16T14:25:56Z</time>
      </trkpt>
      <trkpt lat="43.38178" lon="6.72405">
        <ele>4.3</ele>
        <time>2023-05-16T14:25:57Z</time>
      </trkpt>
      <trkpt lat="43.38178" lon="6.72405">
        <ele>4.3</ele>
        <time>2023-05-16T14:25:58Z</time>
      </trkpt>
      <trkpt lat="43.38178" lon="6.72405">
        <ele>4.3</ele>
        <time>2023-05-16T14:25:59Z</time>
      </trkpt>
      <trkpt lat="43.38178" lon="6.72405">
        <ele>4.3</ele>
        <time>2023-05-16T14:26:00Z</time>
      </trkpt>
      <trkpt lat="43.38178" lon="6.72405">
        <ele>4.3</ele>
        <time>2023-05-16T14:26:01Z</time>
      </trkpt>
      <trkpt lat="43.38178" lon="6.72405">
        <ele>4.3</ele>
        <time>2023-05-16T14:26:02Z</time>
      </trkpt>
      <trkpt lat="43.38178" lon="6.72405">
        <ele>4.3</ele>
        <time>2023-05-16T14:26:03Z</time>
      </trkpt>
      <trkpt lat="43.38178" lon="6.72405">
        <ele>4.3</ele>
        <time>2023-05-16T14:26:04Z</time>
      </trkpt>
      <trkpt lat="43.38178" lon="6.72405">
        <ele>4.3</ele>
        <time>2023-05-16T14:26:05Z</time>
      </trkpt>
      <trkpt lat="43.38178" lon="6.72405">
        <ele>4.3</ele>
        <time>2023-05-16T14:26:06Z</time>
      </trkpt>
      <trkpt lat="43.38178" lon="6.72405">
        <ele>4.3</ele>
        <time>2023-05-16T14:26:07Z</time>
      </trkpt>
      <trkpt lat="43.38178" lon="6.72405">
        <ele>4.3</ele>
        <time>2023-05-16T14:26:08Z</time>
      </trkpt>
      <trkpt lat="43.38178" lon="6.72405">
        <ele>4.3</ele>
        <time>2023-05-16T14:26:09Z</time>
      </trkpt>
      <trkpt lat="43.38178" lon="6.72405">
        <ele>4.3</ele>
        <time>2023-05-16T14:26:10Z</time>
      </trkpt>
      <trkpt lat="43.38178" lon="6.72405">
        <ele>4.3</ele>
        <time>2023-05-16T14:26:11Z</time>
      </trkpt>
      <trkpt lat="43.38178" lon="6.72405">
        <ele>4.3</ele>
        <time>2023-05-16T14:26:12Z</time>
      </trkpt>
      <trkpt lat="43.38178" lon="6.72405">
        <ele>4.3</ele>
        <time>2023-05-16T14:26:13Z</time>
      </trkpt>
      <trkpt lat="43.38178" lon="6.72405">
        <ele>4.3</ele>
        <time>2023-05-16T14:26:14Z</time>
      </trkpt>
      <trkpt lat="43.38178" lon="6.72405">
        <ele>4.3</ele>
        <time>2023-05-16T14:26:15Z</time>
      </trkpt>
      <trkpt lat="43.38178" lon="6.72405">
        <ele>4.3</ele>
        <time>2023-05-16T14:26:16Z</time>
      </trkpt>
      <trkpt lat="43.38178" lon="6.72405">
        <ele>4.3</ele>
        <time>2023-05-16T14:26:17Z</time>
      </trkpt>
      <trkpt lat="43.38178" lon="6.72405">
        <ele>4.3</ele>
        <time>2023-05-16T14:26:18Z</time>
      </trkpt>
      <trkpt lat="43.38178" lon="6.72405">
        <ele>4.3</ele>
        <time>2023-05-16T14:26:19Z</time>
      </trkpt>
      <trkpt lat="43.38178" lon="6.72405">
        <ele>4.3</ele>
        <time>2023-05-16T14:26:20Z</time>
      </trkpt>
      <trkpt lat="43.38178" lon="6.72405">
        <ele>4.3</ele>
        <time>2023-05-16T14:26:21Z</time>
      </trkpt>
      <trkpt lat="43.38178" lon="6.72405">
        <ele>4.3</ele>
        <time>2023-05-16T14:26:22Z</time>
      </trkpt>
      <trkpt lat="43.38178" lon="6.72405">
        <ele>4.3</ele>
        <time>2023-05-16T14:26:23Z</time>
      </trkpt>
      <trkpt lat="43.38178" lon="6.72405">
        <ele>4.3</ele>
        <time>2023-05-16T14:26:24Z</time>
      </trkpt>
      <trkpt lat="43.38178" lon="6.72405">
        <ele>4.3</ele>
        <time>2023-05-16T14:26:25Z</time>
      </trkpt>
      <trkpt lat="43.38178" lon="6.72405">
        <ele>4.3</ele>
        <time>2023-05-16T14:26:26Z</time>
      </trkpt>
      <trkpt lat="43.38178" lon="6.72405">
        <ele>4.3</ele>
        <time>2023-05-16T14:26:27Z</time>
      </trkpt>
      <trkpt lat="43.38178" lon="6.72405">
        <ele>4.3</ele>
        <time>2023-05-16T14:26:28Z</time>
      </trkpt>
      <trkpt lat="43.38178" lon="6.72405">
        <ele>4.3</ele>
        <time>2023-05-16T14:26:29Z</time>
      </trkpt>
      <trkpt lat="43.38178" lon="6.72405">
        <ele>4.3</ele>
        <time>2023-05-16T14:26:30Z</time>
      </trkpt>
      <trkpt lat="43.38178" lon="6.72405">
        <ele>4.3</ele>
        <time>2023-05-16T14:26:31Z</time>
      </trkpt>
      <trkpt lat="43.38178" lon="6.72405">
        <ele>4.3</ele>
        <time>2023-05-16T14:26:32Z</time>
      </trkpt>
      <trkpt lat="43.38178" lon="6.72405">
        <ele>4.3</ele>
        <time>2023-05-16T14:26:33Z</time>
      </trkpt>
      <trkpt lat="43.38178" lon="6.72405">
        <ele>4.3</ele>
        <time>2023-05-16T14:26:34Z</time>
      </trkpt>
      <trkpt lat="43.38178" lon="6.72405">
        <ele>4.3</ele>
        <time>2023-05-16T14:26:35Z</time>
      </trkpt>
      <trkpt lat="43.38178" lon="6.72405">
        <ele>4.3</ele>
        <time>2023-05-16T14:26:36Z</time>
      </trkpt>
      <trkpt lat="43.38178" lon="6.72405">
        <ele>4.3</ele>
        <time>2023-05-16T14:26:37Z</time>
      </trkpt>
      <trkpt lat="43.38178" lon="6.72405">
        <ele>4.3</ele>
        <time>2023-05-16T14:26:38Z</time>
      </trkpt>
      <trkpt lat="43.38178" lon="6.72405">
        <ele>4.3</ele>
        <time>2023-05-16T14:26:39Z</time>
      </trkpt>
      <trkpt lat="43.38178" lon="6.72405">
        <ele>4.3</ele>
        <time>2023-05-16T14:26:40Z</time>
      </trkpt>
      <trkpt lat="43.38178" lon="6.72405">
        <ele>4.3</ele>
        <time>2023-05-16T14:26:41Z</time>
      </trkpt>
      <trkpt lat="43.38178" lon="6.72405">
        <ele>4.3</ele>
        <time>2023-05-16T14:26:42Z</time>
      </trkpt>
      <trkpt lat="43.38178" lon="6.72405">
        <ele>4.3</ele>
        <time>2023-05-16T14:26:43Z</time>
      </trkpt>
      <trkpt lat="43.38178" lon="6.72405">
        <ele>4.3</ele>
        <time>2023-05-16T14:26:44Z</time>
      </trkpt>
      <trkpt lat="43.38178" lon="6.72405">
        <ele>4.3</ele>
        <time>2023-05-16T14:26:45Z</time>
      </trkpt>
      <trkpt lat="43.38178" lon="6.72405">
        <ele>4.3</ele>
        <time>2023-05-16T14:26:46Z</time>
      </trkpt>
      <trkpt lat="43.38178" lon="6.72405">
        <ele>4.3</ele>
        <time>2023-05-16T14:26:47Z</time>
      </trkpt>
      <trkpt lat="43.38178" lon="6.72405">
        <ele>4.3</ele>
        <time>2023-05-16T14:26:48Z</time>
      </trkpt>
      <trkpt lat="43.38178" lon="6.72405">
        <ele>4.3</ele>
        <time>2023-05-16T14:26:49Z</time>
      </trkpt>
      <trkpt lat="43.38178" lon="6.72405">
        <ele>4.3</ele>
        <time>2023-05-16T14:26:50Z</time>
      </trkpt>
      <trkpt lat="43.38178" lon="6.72405">
        <ele>4.3</ele>
        <time>2023-05-16T14:26:51Z</time>
      </trkpt>
      <trkpt lat="43.38178" lon="6.72405">
        <ele>4.3</ele>
        <time>2023-05-16T14:26:52Z</time>
      </trkpt>
      <trkpt lat="43.38178" lon="6.72405">
        <ele>4.3</ele>
        <time>2023-05-16T14:26:53Z</time>
      </trkpt>
      <trkpt lat="43.38178" lon="6.72405">
        <ele>4.3</ele>
        <time>2023-05-16T14:26:54Z</time>
      </trkpt>
      <trkpt lat="43.38178" lon="6.72405">
        <ele>4.3</ele>
        <time>2023-05-16T14:26:55Z</time>
      </trkpt>
      <trkpt lat="43.38178" lon="6.72405">
        <ele>4.3</ele>
        <time>2023-05-16T14:26:56Z</time>
      </trkpt>
      <trkpt lat="43.38178" lon="6.72405">
        <ele>4.3</ele>
        <time>2023-05-16T14:26:57Z</time>
      </trkpt>
      <trkpt lat="43.38178" lon="6.72405">
        <ele>4.3</ele>
        <time>2023-05-16T14:26:58Z</time>
      </trkpt>
      <trkpt lat="43.38178" lon="6.72405">
        <ele>4.3</ele>
        <time>2023-05-16T14:26:59Z</time>
      </trkpt>
      <trkpt lat="43.38178" lon="6.72405">
        <ele>4.3</ele>
        <time>2023-05-16T14:27:00Z</time>
      </trkpt>
      <trkpt lat="43.38178" lon="6.72405">
        <ele>4.3</ele>
        <time>2023-05-16T14:27:01Z</time>
      </trkpt>
      <trkpt lat="43.38178" lon="6.72405">
        <ele>4.3</ele>
        <time>2023-05-16T14:27:02Z</time>
      </trkpt>
      <trkpt lat="43.38178" lon="6.72405">
        <ele>4.3</ele>
        <time>2023-05-16T14:27:03Z</time>
      </trkpt>
      <trkpt lat="43.38178" lon="6.72405">
        <ele>4.3</ele>
        <time>2023-05-16T14:27:04Z</time>
      </trkpt>
      <trkpt lat="43.38178" lon="6.72405">
        <ele>4.3</ele>
        <time>2023-05-16T14:27:05Z</time>
      </trkpt>
      <trkpt lat="43.38178" lon="6.72405">
        <ele>4.3</ele>
        <time>2023-05-16T14:27:06Z</time>
      </trkpt>
      <trkpt lat="43.38178" lon="6.72405">
        <ele>4.3</ele>
        <time>2023-05-16T14:27:07Z</time>
      </trkpt>
      <trkpt lat="43.38178" lon="6.72405">
        <ele>4.3</ele>
        <time>2023-05-16T14:27:08Z</time>
      </trkpt>
      <trkpt lat="43.38178" lon="6.72405">
        <ele>4.3</ele>
        <time>2023-05-16T14:27:09Z</time>
      </trkpt>
      <trkpt lat="43.38178" lon="6.72405">
        <ele>4.3</ele>
        <time>2023-05-16T14:27:10Z</time>
      </trkpt>
      <trkpt lat="43.38178" lon="6.72405">
        <ele>4.3</ele>
        <time>2023-05-16T14:27:11Z</time>
      </trkpt>
      <trkpt lat="43.38178" lon="6.72405">
        <ele>4.3</ele>
        <time>2023-05-16T14:27:12Z</time>
      </trkpt>
      <trkpt lat="43.38178" lon="6.72405">
        <ele>4.3</ele>
        <time>2023-05-16T14:27:13Z</time>
      </trkpt>
      <trkpt lat="43.38178" lon="6.72405">
        <ele>4.3</ele>
        <time>2023-05-16T14:27:14Z</time>
      </trkpt>
      <trkpt lat="43.38178" lon="6.72405">
        <ele>4.3</ele>
        <time>2023-05-16T14:27:15Z</time>
      </trkpt>
      <trkpt lat="43.38178" lon="6.72405">
        <ele>4.3</ele>
        <time>2023-05-16T14:27:16Z</time>
      </trkpt>
      <trkpt lat="43.38178" lon="6.72405">
        <ele>4.3</ele>
        <time>2023-05-16T14:27:17Z</time>
      </trkpt>
      <trkpt lat="43.38178" lon="6.72405">
        <ele>4.3</ele>
        <time>2023-05-16T14:27:18Z</time>
      </trkpt>
      <trkpt lat="43.38178" lon="6.72405">
        <ele>4.3</ele>
        <time>2023-05-16T14:27:19Z</time>
      </trkpt>
      <trkpt lat="43.38178" lon="6.72405">
        <ele>4.3</ele>
        <time>2023-05-16T14:27:20Z</time>
      </trkpt>
      <trkpt lat="43.38178" lon="6.72405">
        <ele>4.3</ele>
        <time>2023-05-16T14:27:21Z</time>
      </trkpt>
      <trkpt lat="43.38178" lon="6.72405">
        <ele>4.3</ele>
        <time>2023-05-16T14:27:22Z</time>
      </trkpt>
      <trkpt lat="43.38178" lon="6.72405">
        <ele>4.3</ele>
        <time>2023-05-16T14:27:23Z</time>
      </trkpt>
      <trkpt lat="43.38178" lon="6.72405">
        <ele>4.3</ele>
        <time>2023-05-16T14:27:24Z</time>
      </trkpt>
      <trkpt lat="43.38178" lon="6.72405">
        <ele>4.3</ele>
        <time>2023-05-16T14:27:25Z</time>
      </trkpt>
      <trkpt lat="43.38178" lon="6.72405">
        <ele>4.3</ele>
        <time>2023-05-16T14:27:26Z</time>
      </trkpt>
      <trkpt lat="43.38178" lon="6.72405">
        <ele>4.3</ele>
        <time>2023-05-16T14:27:27Z</time>
      </trkpt>
      <trkpt lat="43.38178" lon="6.72405">
        <ele>4.3</ele>
        <time>2023-05-16T14:27:28Z</time>
      </trkpt>
      <trkpt lat="43.38178" lon="6.72405">
        <ele>4.3</ele>
        <time>2023-05-16T14:27:29Z</time>
      </trkpt>
      <trkpt lat="43.38178" lon="6.72405">
        <ele>4.3</ele>
        <time>2023-05-16T14:27:30Z</time>
      </trkpt>
      <trkpt lat="43.38178" lon="6.72405">
        <ele>4.3</ele>
        <time>2023-05-16T14:27:31Z</time>
      </trkpt>
      <trkpt lat="43.38178" lon="6.72405">
        <ele>4.3</ele>
        <time>2023-05-16T14:27:32Z</time>
      </trkpt>
      <trkpt lat="43.38178" lon="6.72405">
        <ele>4.3</ele>
        <time>2023-05-16T14:27:33Z</time>
      </trkpt>
      <trkpt lat="43.38178" lon="6.72405">
        <ele>4.3</ele>
        <time>2023-05-16T14:27:34Z</time>
      </trkpt>
      <trkpt lat="43.38178" lon="6.72405">
        <ele>4.3</ele>
        <time>2023-05-16T14:27:35Z</time>
      </trkpt>
      <trkpt lat="43.38178" lon="6.72405">
        <ele>4.3</ele>
        <time>2023-05-16T14:27:36Z</time>
      </trkpt>
      <trkpt lat="43.38178" lon="6.72405">
        <ele>4.3</ele>
        <time>2023-05-16T14:27:37Z</time>
      </trkpt>
      <trkpt lat="43.38178" lon="6.72405">
        <ele>4.3</ele>
        <time>2023-05-16T14:27:38Z</time>
      </trkpt>
      <trkpt lat="43.38178" lon="6.72405">
        <ele>4.3</ele>
        <time>2023-05-16T14:27:39Z</time>
      </trkpt>
      <trkpt lat="43.38178" lon="6.72405">
        <ele>4.3</ele>
        <time>2023-05-16T14:27:40Z</time>
      </trkpt>
      <trkpt lat="43.38178" lon="6.72405">
        <ele>4.3</ele>
        <time>2023-05-16T14:27:41Z</time>
      </trkpt>
      <trkpt lat="43.38178" lon="6.72405">
        <ele>4.3</ele>
        <time>2023-05-16T14:27:42Z</time>
      </trkpt>
      <trkpt lat="43.38178" lon="6.72405">
        <ele>4.3</ele>
        <time>2023-05-16T14:27:43Z</time>
      </trkpt>
      <trkpt lat="43.38178" lon="6.72405">
        <ele>4.3</ele>
        <time>2023-05-16T14:27:44Z</time>
      </trkpt>
      <trkpt lat="43.38178" lon="6.72405">
        <ele>4.3</ele>
        <time>2023-05-16T14:27:45Z</time>
      </trkpt>
      <trkpt lat="43.38178" lon="6.72405">
        <ele>4.3</ele>
        <time>2023-05-16T14:27:46Z</time>
      </trkpt>
      <trkpt lat="43.38178" lon="6.72405">
        <ele>4.3</ele>
        <time>2023-05-16T14:27:47Z</time>
      </trkpt>
      <trkpt lat="43.38178" lon="6.72405">
        <ele>4.3</ele>
        <time>2023-05-16T14:27:48Z</time>
      </trkpt>
      <trkpt lat="43.38178" lon="6.72405">
        <ele>4.3</ele>
        <time>2023-05-16T14:27:49Z</time>
      </trkpt>
      <trkpt lat="43.38178" lon="6.72405">
        <ele>4.3</ele>
        <time>2023-05-16T14:27:50Z</time>
      </trkpt>
      <trkpt lat="43.38178" lon="6.72405">
        <ele>4.3</ele>
        <time>2023-05-16T14:27:51Z</time>
      </trkpt>
      <trkpt lat="43.38178" lon="6.72405">
        <ele>4.3</ele>
        <time>2023-05-16T14:27:52Z</time>
      </trkpt>
      <trkpt lat="43.38178" lon="6.72405">
        <ele>4.3</ele>
        <time>2023-05-16T14:27:53Z</time>
      </trkpt>
      <trkpt lat="43.38178" lon="6.72405">
        <ele>4.3</ele>
        <time>2023-05-16T14:27:54Z</time>
      </trkpt>
      <trkpt lat="43.38178" lon="6.72405">
        <ele>4.3</ele>
        <time>2023-05-16T14:27:55Z</time>
      </trkpt>
      <trkpt lat="43.38178" lon="6.72405">
        <ele>4.3</ele>
        <time>2023-05-16T14:27:56Z</time>
      </trkpt>
      <trkpt lat="43.38178" lon="6.72405">
        <ele>4.3</ele>
        <time>2023-05-16T14:27:57Z</time>
      </trkpt>
      <trkpt lat="43.38178" lon="6.72405">
        <ele>4.3</ele>
        <time>2023-05-16T14:27:58Z</time>
      </trkpt>
      <trkpt lat="43.38178" lon="6.72405">
        <ele>4.3</ele>
        <time>2023-05-16T14:27:59Z</time>
      </trkpt>
      <trkpt lat="43.38178" lon="6.72405">
        <ele>4.3</ele>
        <time>2023-05-16T14:28:00Z</time>
      </trkpt>
      <trkpt lat="43.38178" lon="6.72405">
        <ele>4.3</ele>
        <time>2023-05-16T14:28:01Z</time>
      </trkpt>
      <trkpt lat="43.38178" lon="6.72405">
        <ele>4.3</ele>
        <time>2023-05-16T14:28:02Z</time>
      </trkpt>
      <trkpt lat="43.38178" lon="6.72405">
        <ele>4.3</ele>
        <time>2023-05-16T14:28:03Z</time>
      </trkpt>
      <trkpt lat="43.38178" lon="6.72405">
        <ele>4.3</ele>
        <time>2023-05-16T14:28:04Z</time>
      </trkpt>
      <trkpt lat="43.38178" lon="6.72405">
        <ele>4.3</ele>
        <time>2023-05-16T14:28:05Z</time>
      </trkpt>
      <trkpt lat="43.38178" lon="6.72405">
        <ele>4.3</ele>
        <time>2023-05-16T14:28:06Z</time>
      </trkpt>
      <trkpt lat="43.38178" lon="6.72405">
        <ele>4.3</ele>
        <time>2023-05-16T14:28:07Z</time>
      </trkpt>
      <trkpt lat="43.38178" lon="6.72405">
        <ele>4.3</ele>
        <time>2023-05-16T14:28:08Z</time>
      </trkpt>
      <trkpt lat="43.38178" lon="6.72405">
        <ele>4.3</ele>
        <time>2023-05-16T14:28:09Z</time>
      </trkpt>
      <trkpt lat="43.38178" lon="6.72405">
        <ele>4.3</ele>
        <time>2023-05-16T14:28:10Z</time>
      </trkpt>
      <trkpt lat="43.38178" lon="6.72405">
        <ele>4.3</ele>
        <time>2023-05-16T14:28:11Z</time>
      </trkpt>
      <trkpt lat="43.38178" lon="6.72405">
        <ele>4.3</ele>
        <time>2023-05-16T14:28:12Z</time>
      </trkpt>
      <trkpt lat="43.38178" lon="6.72405">
        <ele>4.3</ele>
        <time>2023-05-16T14:28:13Z</time>
      </trkpt>
      <trkpt lat="43.38178" lon="6.72405">
        <ele>4.3</ele>
        <time>2023-05-16T14:28:14Z</time>
      </trkpt>
      <trkpt lat="43.38178" lon="6.72405">
        <ele>4.3</ele>
        <time>2023-05-16T14:28:15Z</time>
      </trkpt>
      <trkpt lat="43.38178" lon="6.72405">
        <ele>4.3</ele>
        <time>2023-05-16T14:28:16Z</time>
      </trkpt>
      <trkpt lat="43.38178" lon="6.72405">
        <ele>4.3</ele>
        <time>2023-05-16T14:28:17Z</time>
      </trkpt>
      <trkpt lat="43.38178" lon="6.72405">
        <ele>4.3</ele>
        <time>2023-05-16T14:28:18Z</time>
      </trkpt>
      <trkpt lat="43.38178" lon="6.72405">
        <ele>4.3</ele>
        <time>2023-05-16T14:28:19Z</time>
      </trkpt>
      <trkpt lat="43.38178" lon="6.72405">
        <ele>4.3</ele>
        <time>2023-05-16T14:28:20Z</time>
      </trkpt>
      <trkpt lat="43.38178" lon="6.72405">
        <ele>4.3</ele>
        <time>2023-05-16T14:28:21Z</time>
      </trkpt>
      <trkpt lat="43.38178" lon="6.72405">
        <ele>4.3</ele>
        <time>2023-05-16T14:28:22Z</time>
      </trkpt>
      <trkpt lat="43.38178" lon="6.72405">
        <ele>4.3</ele>
        <time>2023-05-16T14:28:23Z</time>
      </trkpt>
      <trkpt lat="43.38177" lon="6.72405">
        <ele>4.3</ele>
        <time>2023-05-16T14:28:24Z</time>
      </trkpt>
      <trkpt lat="43.38177" lon="6.72405">
        <ele>4.3</ele>
        <time>2023-05-16T14:28:25Z</time>
      </trkpt>
      <trkpt lat="43.38177" lon="6.72405">
        <ele>4.3</ele>
        <time>2023-05-16T14:28:26Z</time>
      </trkpt>
      <trkpt lat="43.38177" lon="6.72405">
        <ele>4.3</ele>
        <time>2023-05-16T14:28:27Z</time>
      </trkpt>
      <trkpt lat="43.38177" lon="6.72405">
        <ele>4.3</ele>
        <time>2023-05-16T14:28:28Z</time>
      </trkpt>
      <trkpt lat="43.38177" lon="6.72405">
        <ele>4.3</ele>
        <time>2023-05-16T14:28:29Z</time>
      </trkpt>
      <trkpt lat="43.38177" lon="6.72405">
        <ele>4.3</ele>
        <time>2023-05-16T14:28:30Z</time>
      </trkpt>
      <trkpt lat="43.38177" lon="6.72405">
        <ele>4.3</ele>
        <time>2023-05-16T14:28:31Z</time>
      </trkpt>
      <trkpt lat="43.38177" lon="6.72405">
        <ele>4.3</ele>
        <time>2023-05-16T14:28:32Z</time>
      </trkpt>
      <trkpt lat="43.38177" lon="6.72405">
        <ele>4.3</ele>
        <time>2023-05-16T14:28:33Z</time>
      </trkpt>
      <trkpt lat="43.38177" lon="6.72405">
        <ele>4.3</ele>
        <time>2023-05-16T14:28:34Z</time>
      </trkpt>
      <trkpt lat="43.38177" lon="6.72405">
        <ele>4.3</ele>
        <time>2023-05-16T14:28:35Z</time>
      </trkpt>
      <trkpt lat="43.38177" lon="6.72405">
        <ele>4.3</ele>
        <time>2023-05-16T14:28:36Z</time>
      </trkpt>
      <trkpt lat="43.38177" lon="6.72405">
        <ele>4.3</ele>
        <time>2023-05-16T14:28:37Z</time>
      </trkpt>
      <trkpt lat="43.38177" lon="6.72405">
        <ele>4.3</ele>
        <time>2023-05-16T14:28:38Z</time>
      </trkpt>
      <trkpt lat="43.38177" lon="6.72405">
        <ele>4.3</ele>
        <time>2023-05-16T14:28:39Z</time>
      </trkpt>
      <trkpt lat="43.38177" lon="6.72405">
        <ele>4.3</ele>
        <time>2023-05-16T14:28:40Z</time>
      </trkpt>
      <trkpt lat="43.38177" lon="6.72405">
        <ele>4.3</ele>
        <time>2023-05-16T14:28:41Z</time>
      </trkpt>
      <trkpt lat="43.38177" lon="6.72405">
        <ele>4.3</ele>
        <time>2023-05-16T14:28:42Z</time>
      </trkpt>
      <trkpt lat="43.38177" lon="6.72405">
        <ele>4.3</ele>
        <time>2023-05-16T14:28:43Z</time>
      </trkpt>
      <trkpt lat="43.38177" lon="6.72405">
        <ele>4.3</ele>
        <time>2023-05-16T14:28:44Z</time>
      </trkpt>
      <trkpt lat="43.38177" lon="6.72405">
        <ele>4.3</ele>
        <time>2023-05-16T14:28:45Z</time>
      </trkpt>
      <trkpt lat="43.38177" lon="6.72405">
        <ele>4.3</ele>
        <time>2023-05-16T14:28:46Z</time>
      </trkpt>
      <trkpt lat="43.38177" lon="6.72405">
        <ele>4.3</ele>
        <time>2023-05-16T14:28:47Z</time>
      </trkpt>
      <trkpt lat="43.38177" lon="6.72405">
        <ele>4.3</ele>
        <time>2023-05-16T14:28:48Z</time>
      </trkpt>
      <trkpt lat="43.38177" lon="6.72405">
        <ele>4.3</ele>
        <time>2023-05-16T14:28:49Z</time>
      </trkpt>
      <trkpt lat="43.38177" lon="6.72405">
        <ele>4.3</ele>
        <time>2023-05-16T14:28:50Z</time>
      </trkpt>
      <trkpt lat="43.38177" lon="6.72405">
        <ele>4.3</ele>
        <time>2023-05-16T14:28:51Z</time>
      </trkpt>
      <trkpt lat="43.38177" lon="6.72405">
        <ele>4.3</ele>
        <time>2023-05-16T14:28:52Z</time>
      </trkpt>
      <trkpt lat="43.38177" lon="6.72404">
        <ele>4.3</ele>
        <time>2023-05-16T14:28:53Z</time>
      </trkpt>
      <trkpt lat="43.38177" lon="6.72404">
        <ele>4.3</ele>
        <time>2023-05-16T14:28:54Z</time>
      </trkpt>
      <trkpt lat="43.38177" lon="6.72404">
        <ele>4.3</ele>
        <time>2023-05-16T14:28:55Z</time>
      </trkpt>
      <trkpt lat="43.38177" lon="6.72405">
        <ele>4.3</ele>
        <time>2023-05-16T14:28:56Z</time>
      </trkpt>
      <trkpt lat="43.38177" lon="6.72405">
        <ele>4.3</ele>
        <time>2023-05-16T14:28:57Z</time>
      </trkpt>
      <trkpt lat="43.38177" lon="6.72405">
        <ele>4.3</ele>
        <time>2023-05-16T14:28:58Z</time>
      </trkpt>
      <trkpt lat="43.38177" lon="6.72405">
        <ele>4.3</ele>
        <time>2023-05-16T14:28:59Z</time>
      </trkpt>
      <trkpt lat="43.38176" lon="6.72404">
        <ele>4.3</ele>
        <time>2023-05-16T14:29:00Z</time>
      </trkpt>
      <trkpt lat="43.38176" lon="6.72404">
        <ele>4.3</ele>
        <time>2023-05-16T14:29:01Z</time>
      </trkpt>
      <trkpt lat="43.38176" lon="6.72404">
        <ele>4.3</ele>
        <time>2023-05-16T14:29:02Z</time>
      </trkpt>
      <trkpt lat="43.38176" lon="6.72405">
        <ele>4.3</ele>
        <time>2023-05-16T14:29:03Z</time>
      </trkpt>
      <trkpt lat="43.38176" lon="6.72405">
        <ele>4.3</ele>
        <time>2023-05-16T14:29:04Z</time>
      </trkpt>
      <trkpt lat="43.38176" lon="6.72405">
        <ele>4.3</ele>
        <time>2023-05-16T14:29:05Z</time>
      </trkpt>
      <trkpt lat="43.38176" lon="6.72405">
        <ele>4.3</ele>
        <time>2023-05-16T14:29:06Z</time>
      </trkpt>
      <trkpt lat="43.38176" lon="6.72405">
        <ele>4.3</ele>
        <time>2023-05-16T14:29:07Z</time>
      </trkpt>
      <trkpt lat="43.38176" lon="6.72405">
        <ele>4.3</ele>
        <time>2023-05-16T14:29:08Z</time>
      </trkpt>
      <trkpt lat="43.38176" lon="6.72405">
        <ele>4.3</ele>
        <time>2023-05-16T14:29:09Z</time>
      </trkpt>
      <trkpt lat="43.38176" lon="6.72405">
        <ele>4.3</ele>
        <time>2023-05-16T14:29:10Z</time>
      </trkpt>
      <trkpt lat="43.38176" lon="6.72405">
        <ele>4.3</ele>
        <time>2023-05-16T14:29:11Z</time>
      </trkpt>
      <trkpt lat="43.38176" lon="6.72405">
        <ele>4.3</ele>
        <time>2023-05-16T14:29:12Z</time>
      </trkpt>
      <trkpt lat="43.38176" lon="6.72405">
        <ele>4.3</ele>
        <time>2023-05-16T14:29:13Z</time>
      </trkpt>
      <trkpt lat="43.38176" lon="6.72405">
        <ele>4.3</ele>
        <time>2023-05-16T14:29:14Z</time>
      </trkpt>
      <trkpt lat="43.38176" lon="6.72404">
        <ele>4.3</ele>
        <time>2023-05-16T14:29:15Z</time>
      </trkpt>
      <trkpt lat="43.38176" lon="6.72404">
        <ele>4.3</ele>
        <time>2023-05-16T14:29:16Z</time>
      </trkpt>
      <trkpt lat="43.38176" lon="6.72404">
        <ele>4.3</ele>
        <time>2023-05-16T14:29:17Z</time>
      </trkpt>
      <trkpt lat="43.38176" lon="6.72404">
        <ele>4.3</ele>
        <time>2023-05-16T14:29:18Z</time>
      </trkpt>
      <trkpt lat="43.38176" lon="6.72404">
        <ele>4.3</ele>
        <time>2023-05-16T14:29:19Z</time>
      </trkpt>
      <trkpt lat="43.38176" lon="6.72404">
        <ele>4.3</ele>
        <time>2023-05-16T14:29:20Z</time>
      </trkpt>
      <trkpt lat="43.38176" lon="6.72404">
        <ele>4.3</ele>
        <time>2023-05-16T14:29:21Z</time>
      </trkpt>
      <trkpt lat="43.38176" lon="6.72404">
        <ele>4.3</ele>
        <time>2023-05-16T14:29:22Z</time>
      </trkpt>
      <trkpt lat="43.38176" lon="6.72404">
        <ele>4.3</ele>
        <time>2023-05-16T14:29:23Z</time>
      </trkpt>
      <trkpt lat="43.38176" lon="6.72404">
        <ele>4.3</ele>
        <time>2023-05-16T14:29:24Z</time>
      </trkpt>
      <trkpt lat="43.38176" lon="6.72404">
        <ele>4.3</ele>
        <time>2023-05-16T14:29:25Z</time>
      </trkpt>
      <trkpt lat="43.38176" lon="6.72404">
        <ele>4.3</ele>
        <time>2023-05-16T14:29:26Z</time>
      </trkpt>
      <trkpt lat="43.38176" lon="6.72404">
        <ele>4.3</ele>
        <time>2023-05-16T14:29:27Z</time>
      </trkpt>
      <trkpt lat="43.38176" lon="6.72404">
        <ele>4.3</ele>
        <time>2023-05-16T14:29:28Z</time>
      </trkpt>
      <trkpt lat="43.38176" lon="6.72404">
        <ele>4.3</ele>
        <time>2023-05-16T14:29:29Z</time>
      </trkpt>
      <trkpt lat="43.38176" lon="6.72404">
        <ele>4.3</ele>
        <time>2023-05-16T14:29:30Z</time>
      </trkpt>
      <trkpt lat="43.38176" lon="6.72404">
        <ele>4.3</ele>
        <time>2023-05-16T14:29:31Z</time>
      </trkpt>
      <trkpt lat="43.38176" lon="6.72404">
        <ele>4.3</ele>
        <time>2023-05-16T14:29:32Z</time>
      </trkpt>
      <trkpt lat="43.38176" lon="6.72404">
        <ele>4.3</ele>
        <time>2023-05-16T14:29:33Z</time>
      </trkpt>
      <trkpt lat="43.38176" lon="6.72404">
        <ele>4.3</ele>
        <time>2023-05-16T14:29:34Z</time>
      </trkpt>
      <trkpt lat="43.38176" lon="6.72404">
        <ele>4.3</ele>
        <time>2023-05-16T14:29:35Z</time>
      </trkpt>
      <trkpt lat="43.38176" lon="6.72404">
        <ele>4.3</ele>
        <time>2023-05-16T14:29:36Z</time>
      </trkpt>
      <trkpt lat="43.38176" lon="6.72404">
        <ele>4.3</ele>
        <time>2023-05-16T14:29:37Z</time>
      </trkpt>
      <trkpt lat="43.38176" lon="6.72404">
        <ele>4.3</ele>
        <time>2023-05-16T14:29:38Z</time>
      </trkpt>
      <trkpt lat="43.38176" lon="6.72404">
        <ele>4.3</ele>
        <time>2023-05-16T14:29:39Z</time>
      </trkpt>
      <trkpt lat="43.38176" lon="6.72404">
        <ele>4.3</ele>
        <time>2023-05-16T14:29:40Z</time>
      </trkpt>
      <trkpt lat="43.38176" lon="6.72404">
        <ele>4.3</ele>
        <time>2023-05-16T14:29:41Z</time>
      </trkpt>
      <trkpt lat="43.38176" lon="6.72404">
        <ele>4.3</ele>
        <time>2023-05-16T14:29:42Z</time>
      </trkpt>
      <trkpt lat="43.38176" lon="6.72404">
        <ele>4.3</ele>
        <time>2023-05-16T14:29:43Z</time>
      </trkpt>
      <trkpt lat="43.38176" lon="6.72404">
        <ele>4.3</ele>
        <time>2023-05-16T14:29:44Z</time>
      </trkpt>
      <trkpt lat="43.38176" lon="6.72404">
        <ele>4.3</ele>
        <time>2023-05-16T14:29:45Z</time>
      </trkpt>
      <trkpt lat="43.38176" lon="6.72404">
        <ele>4.3</ele>
        <time>2023-05-16T14:29:46Z</time>
      </trkpt>
      <trkpt lat="43.38176" lon="6.72404">
        <ele>4.3</ele>
        <time>2023-05-16T14:29:47Z</time>
      </trkpt>
      <trkpt lat="43.38176" lon="6.72404">
        <ele>4.3</ele>
        <time>2023-05-16T14:29:48Z</time>
      </trkpt>
      <trkpt lat="43.38176" lon="6.72404">
        <ele>4.3</ele>
        <time>2023-05-16T14:29:49Z</time>
      </trkpt>
      <trkpt lat="43.38176" lon="6.72404">
        <ele>4.3</ele>
        <time>2023-05-16T14:29:50Z</time>
      </trkpt>
      <trkpt lat="43.38176" lon="6.72404">
        <ele>4.3</ele>
        <time>2023-05-16T14:29:51Z</time>
      </trkpt>
      <trkpt lat="43.38176" lon="6.72404">
        <ele>4.3</ele>
        <time>2023-05-16T14:29:52Z</time>
      </trkpt>
      <trkpt lat="43.38176" lon="6.72404">
        <ele>4.3</ele>
        <time>2023-05-16T14:29:53Z</time>
      </trkpt>
      <trkpt lat="43.38176" lon="6.72404">
        <ele>4.3</ele>
        <time>2023-05-16T14:29:54Z</time>
      </trkpt>
      <trkpt lat="43.38176" lon="6.72404">
        <ele>4.3</ele>
        <time>2023-05-16T14:29:55Z</time>
      </trkpt>
      <trkpt lat="43.38176" lon="6.72404">
        <ele>4.3</ele>
        <time>2023-05-16T14:29:56Z</time>
      </trkpt>
      <trkpt lat="43.38176" lon="6.72404">
        <ele>4.3</ele>
        <time>2023-05-16T14:29:57Z</time>
      </trkpt>
      <trkpt lat="43.38176" lon="6.72404">
        <ele>4.3</ele>
        <time>2023-05-16T14:29:58Z</time>
      </trkpt>
      <trkpt lat="43.38176" lon="6.72404">
        <ele>4.3</ele>
        <time>2023-05-16T14:29:59Z</time>
      </trkpt>
      <trkpt lat="43.38176" lon="6.72404">
        <ele>4.3</ele>
        <time>2023-05-16T14:30:00Z</time>
      </trkpt>
      <trkpt lat="43.38176" lon="6.72404">
        <ele>4.3</ele>
        <time>2023-05-16T14:30:01Z</time>
      </trkpt>
      <trkpt lat="43.38176" lon="6.72404">
        <ele>4.3</ele>
        <time>2023-05-16T14:30:02Z</time>
      </trkpt>
      <trkpt lat="43.38176" lon="6.72405">
        <ele>4.3</ele>
        <time>2023-05-16T14:30:03Z</time>
      </trkpt>
      <trkpt lat="43.38176" lon="6.72405">
        <ele>4.3</ele>
        <time>2023-05-16T14:30:04Z</time>
      </trkpt>
      <trkpt lat="43.38176" lon="6.72405">
        <ele>4.3</ele>
        <time>2023-05-16T14:30:05Z</time>
      </trkpt>
      <trkpt lat="43.38176" lon="6.72405">
        <ele>4.3</ele>
        <time>2023-05-16T14:30:06Z</time>
      </trkpt>
      <trkpt lat="43.38176" lon="6.72405">
        <ele>4.3</ele>
        <time>2023-05-16T14:30:07Z</time>
      </trkpt>
      <trkpt lat="43.38176" lon="6.72405">
        <ele>4.3</ele>
        <time>2023-05-16T14:30:08Z</time>
      </trkpt>
      <trkpt lat="43.38176" lon="6.72405">
        <ele>4.3</ele>
        <time>2023-05-16T14:30:09Z</time>
      </trkpt>
      <trkpt lat="43.38176" lon="6.72405">
        <ele>4.3</ele>
        <time>2023-05-16T14:30:10Z</time>
      </trkpt>
      <trkpt lat="43.38176" lon="6.72405">
        <ele>4.3</ele>
        <time>2023-05-16T14:30:11Z</time>
      </trkpt>
      <trkpt lat="43.38176" lon="6.72405">
        <ele>4.3</ele>
        <time>2023-05-16T14:30:12Z</time>
      </trkpt>
      <trkpt lat="43.38176" lon="6.72405">
        <ele>4.3</ele>
        <time>2023-05-16T14:30:13Z</time>
      </trkpt>
      <trkpt lat="43.38176" lon="6.72405">
        <ele>4.3</ele>
        <time>2023-05-16T14:30:14Z</time>
      </trkpt>
      <trkpt lat="43.38176" lon="6.72405">
        <ele>4.3</ele>
        <time>2023-05-16T14:30:15Z</time>
      </trkpt>
      <trkpt lat="43.38176" lon="6.72405">
        <ele>4.3</ele>
        <time>2023-05-16T14:30:16Z</time>
      </trkpt>
      <trkpt lat="43.38176" lon="6.72404">
        <ele>4.3</ele>
        <time>2023-05-16T14:30:17Z</time>
      </trkpt>
      <trkpt lat="43.38177" lon="6.72405">
        <ele>4.3</ele>
        <time>2023-05-16T14:30:18Z</time>
      </trkpt>
      <trkpt lat="43.38176" lon="6.72405">
        <ele>4.3</ele>
        <time>2023-05-16T14:30:19Z</time>
      </trkpt>
      <trkpt lat="43.38176" lon="6.72405">
        <ele>4.3</ele>
        <time>2023-05-16T14:30:20Z</time>
      </trkpt>
      <trkpt lat="43.38176" lon="6.72405">
        <ele>4.3</ele>
        <time>2023-05-16T14:30:21Z</time>
      </trkpt>
      <trkpt lat="43.38176" lon="6.72405">
        <ele>4.3</ele>
        <time>2023-05-16T14:30:22Z</time>
      </trkpt>
      <trkpt lat="43.38176" lon="6.72405">
        <ele>4.3</ele>
        <time>2023-05-16T14:30:23Z</time>
      </trkpt>
      <trkpt lat="43.38176" lon="6.72405">
        <ele>4.3</ele>
        <time>2023-05-16T14:30:24Z</time>
      </trkpt>
      <trkpt lat="43.38176" lon="6.72405">
        <ele>4.3</ele>
        <time>2023-05-16T14:30:25Z</time>
      </trkpt>
      <trkpt lat="43.38176" lon="6.72405">
        <ele>4.3</ele>
        <time>2023-05-16T14:30:26Z</time>
      </trkpt>
      <trkpt lat="43.38176" lon="6.72405">
        <ele>4.3</ele>
        <time>2023-05-16T14:30:27Z</time>
      </trkpt>
      <trkpt lat="43.38176" lon="6.72405">
        <ele>4.3</ele>
        <time>2023-05-16T14:30:28Z</time>
      </trkpt>
      <trkpt lat="43.38176" lon="6.72405">
        <ele>4.3</ele>
        <time>2023-05-16T14:30:29Z</time>
      </trkpt>
      <trkpt lat="43.38176" lon="6.72405">
        <ele>4.3</ele>
        <time>2023-05-16T14:30:30Z</time>
      </trkpt>
      <trkpt lat="43.38176" lon="6.72405">
        <ele>4.3</ele>
        <time>2023-05-16T14:30:31Z</time>
      </trkpt>
      <trkpt lat="43.38176" lon="6.72405">
        <ele>4.3</ele>
        <time>2023-05-16T14:30:32Z</time>
      </trkpt>
      <trkpt lat="43.38176" lon="6.72405">
        <ele>4.3</ele>
        <time>2023-05-16T14:30:33Z</time>
      </trkpt>
      <trkpt lat="43.38176" lon="6.72405">
        <ele>4.3</ele>
        <time>2023-05-16T14:30:34Z</time>
      </trkpt>
      <trkpt lat="43.38176" lon="6.72405">
        <ele>4.3</ele>
        <time>2023-05-16T14:30:35Z</time>
      </trkpt>
      <trkpt lat="43.38176" lon="6.72405">
        <ele>4.3</ele>
        <time>2023-05-16T14:30:36Z</time>
      </trkpt>
      <trkpt lat="43.38176" lon="6.72405">
        <ele>4.3</ele>
        <time>2023-05-16T14:30:37Z</time>
      </trkpt>
      <trkpt lat="43.38176" lon="6.72405">
        <ele>4.3</ele>
        <time>2023-05-16T14:30:38Z</time>
      </trkpt>
      <trkpt lat="43.38176" lon="6.72405">
        <ele>4.3</ele>
        <time>2023-05-16T14:30:39Z</time>
      </trkpt>
      <trkpt lat="43.38176" lon="6.72405">
        <ele>4.3</ele>
        <time>2023-05-16T14:30:40Z</time>
      </trkpt>
      <trkpt lat="43.38176" lon="6.72405">
        <ele>4.3</ele>
        <time>2023-05-16T14:30:41Z</time>
      </trkpt>
      <trkpt lat="43.38176" lon="6.72405">
        <ele>4.3</ele>
        <time>2023-05-16T14:30:42Z</time>
      </trkpt>
      <trkpt lat="43.38176" lon="6.72405">
        <ele>4.3</ele>
        <time>2023-05-16T14:30:43Z</time>
      </trkpt>
      <trkpt lat="43.38176" lon="6.72405">
        <ele>4.3</ele>
        <time>2023-05-16T14:30:44Z</time>
      </trkpt>
      <trkpt lat="43.38176" lon="6.72405">
        <ele>4.3</ele>
        <time>2023-05-16T14:30:45Z</time>
      </trkpt>
      <trkpt lat="43.38176" lon="6.72405">
        <ele>4.3</ele>
        <time>2023-05-16T14:30:46Z</time>
      </trkpt>
      <trkpt lat="43.38176" lon="6.72405">
        <ele>4.3</ele>
        <time>2023-05-16T14:30:47Z</time>
      </trkpt>
      <trkpt lat="43.38176" lon="6.72405">
        <ele>4.3</ele>
        <time>2023-05-16T14:30:48Z</time>
      </trkpt>
      <trkpt lat="43.38176" lon="6.72405">
        <ele>4.3</ele>
        <time>2023-05-16T14:30:49Z</time>
      </trkpt>
      <trkpt lat="43.38176" lon="6.72405">
        <ele>4.3</ele>
        <time>2023-05-16T14:30:50Z</time>
      </trkpt>
      <trkpt lat="43.38176" lon="6.72405">
        <ele>4.3</ele>
        <time>2023-05-16T14:30:51Z</time>
      </trkpt>
      <trkpt lat="43.38176" lon="6.72405">
        <ele>4.3</ele>
        <time>2023-05-16T14:30:52Z</time>
      </trkpt>
      <trkpt lat="43.38176" lon="6.72405">
        <ele>4.3</ele>
        <time>2023-05-16T14:30:53Z</time>
      </trkpt>
      <trkpt lat="43.38176" lon="6.72405">
        <ele>4.3</ele>
        <time>2023-05-16T14:30:54Z</time>
      </trkpt>
      <trkpt lat="43.38176" lon="6.72405">
        <ele>4.3</ele>
        <time>2023-05-16T14:30:55Z</time>
      </trkpt>
      <trkpt lat="43.38176" lon="6.72405">
        <ele>4.3</ele>
        <time>2023-05-16T14:30:56Z</time>
      </trkpt>
      <trkpt lat="43.38176" lon="6.72405">
        <ele>4.3</ele>
        <time>2023-05-16T14:30:57Z</time>
      </trkpt>
      <trkpt lat="43.38176" lon="6.72405">
        <ele>4.3</ele>
        <time>2023-05-16T14:30:58Z</time>
      </trkpt>
      <trkpt lat="43.38176" lon="6.72405">
        <ele>4.3</ele>
        <time>2023-05-16T14:30:59Z</time>
      </trkpt>
      <trkpt lat="43.38176" lon="6.72405">
        <ele>4.3</ele>
        <time>2023-05-16T14:31:00Z</time>
      </trkpt>
      <trkpt lat="43.38176" lon="6.72405">
        <ele>4.3</ele>
        <time>2023-05-16T14:31:01Z</time>
      </trkpt>
      <trkpt lat="43.38176" lon="6.72405">
        <ele>4.3</ele>
        <time>2023-05-16T14:31:02Z</time>
      </trkpt>
      <trkpt lat="43.38176" lon="6.72405">
        <ele>4.3</ele>
        <time>2023-05-16T14:31:03Z</time>
      </trkpt>
      <trkpt lat="43.38176" lon="6.72405">
        <ele>4.3</ele>
        <time>2023-05-16T14:31:04Z</time>
      </trkpt>
      <trkpt lat="43.38176" lon="6.72405">
        <ele>4.3</ele>
        <time>2023-05-16T14:31:05Z</time>
      </trkpt>
      <trkpt lat="43.38176" lon="6.72405">
        <ele>4.3</ele>
        <time>2023-05-16T14:31:06Z</time>
      </trkpt>
      <trkpt lat="43.38176" lon="6.72405">
        <ele>4.3</ele>
        <time>2023-05-16T14:31:07Z</time>
      </trkpt>
      <trkpt lat="43.38176" lon="6.72405">
        <ele>4.3</ele>
        <time>2023-05-16T14:31:08Z</time>
      </trkpt>
      <trkpt lat="43.38176" lon="6.72405">
        <ele>4.3</ele>
        <time>2023-05-16T14:31:09Z</time>
      </trkpt>
      <trkpt lat="43.38176" lon="6.72405">
        <ele>4.3</ele>
        <time>2023-05-16T14:31:10Z</time>
      </trkpt>
      <trkpt lat="43.38176" lon="6.72405">
        <ele>4.3</ele>
        <time>2023-05-16T14:31:11Z</time>
      </trkpt>
      <trkpt lat="43.38176" lon="6.72405">
        <ele>4.3</ele>
        <time>2023-05-16T14:31:12Z</time>
      </trkpt>
      <trkpt lat="43.38176" lon="6.72405">
        <ele>4.3</ele>
        <time>2023-05-16T14:31:13Z</time>
      </trkpt>
      <trkpt lat="43.38176" lon="6.72405">
        <ele>4.3</ele>
        <time>2023-05-16T14:31:14Z</time>
      </trkpt>
      <trkpt lat="43.38176" lon="6.72405">
        <ele>4.3</ele>
        <time>2023-05-16T14:31:15Z</time>
      </trkpt>
      <trkpt lat="43.38176" lon="6.72405">
        <ele>4.3</ele>
        <time>2023-05-16T14:31:16Z</time>
      </trkpt>
      <trkpt lat="43.38176" lon="6.72405">
        <ele>4.3</ele>
        <time>2023-05-16T14:31:17Z</time>
      </trkpt>
      <trkpt lat="43.38176" lon="6.72405">
        <ele>4.3</ele>
        <time>2023-05-16T14:31:18Z</time>
      </trkpt>
      <trkpt lat="43.38176" lon="6.72405">
        <ele>4.3</ele>
        <time>2023-05-16T14:31:19Z</time>
      </trkpt>
      <trkpt lat="43.38176" lon="6.72405">
        <ele>4.3</ele>
        <time>2023-05-16T14:31:20Z</time>
      </trkpt>
      <trkpt lat="43.38176" lon="6.72405">
        <ele>4.3</ele>
        <time>2023-05-16T14:31:21Z</time>
      </trkpt>
      <trkpt lat="43.38176" lon="6.72405">
        <ele>4.3</ele>
        <time>2023-05-16T14:31:22Z</time>
      </trkpt>
      <trkpt lat="43.38176" lon="6.72405">
        <ele>4.3</ele>
        <time>2023-05-16T14:31:23Z</time>
      </trkpt>
      <trkpt lat="43.38176" lon="6.72405">
        <ele>4.3</ele>
        <time>2023-05-16T14:31:24Z</time>
      </trkpt>
      <trkpt lat="43.38176" lon="6.72405">
        <ele>4.3</ele>
        <time>2023-05-16T14:31:25Z</time>
      </trkpt>
      <trkpt lat="43.38176" lon="6.72405">
        <ele>4.3</ele>
        <time>2023-05-16T14:31:26Z</time>
      </trkpt>
      <trkpt lat="43.38176" lon="6.72405">
        <ele>4.3</ele>
        <time>2023-05-16T14:31:27Z</time>
      </trkpt>
      <trkpt lat="43.38176" lon="6.72405">
        <ele>4.3</ele>
        <time>2023-05-16T14:31:28Z</time>
      </trkpt>
      <trkpt lat="43.38176" lon="6.72405">
        <ele>4.3</ele>
        <time>2023-05-16T14:31:29Z</time>
      </trkpt>
      <trkpt lat="43.38176" lon="6.72405">
        <ele>4.3</ele>
        <time>2023-05-16T14:31:30Z</time>
      </trkpt>
      <trkpt lat="43.38176" lon="6.72405">
        <ele>4.3</ele>
        <time>2023-05-16T14:31:31Z</time>
      </trkpt>
      <trkpt lat="43.38176" lon="6.72405">
        <ele>4.3</ele>
        <time>2023-05-16T14:31:32Z</time>
      </trkpt>
      <trkpt lat="43.38176" lon="6.72405">
        <ele>4.3</ele>
        <time>2023-05-16T14:31:33Z</time>
      </trkpt>
      <trkpt lat="43.38176" lon="6.72405">
        <ele>4.3</ele>
        <time>2023-05-16T14:31:34Z</time>
      </trkpt>
      <trkpt lat="43.38176" lon="6.72405">
        <ele>4.3</ele>
        <time>2023-05-16T14:31:35Z</time>
      </trkpt>
      <trkpt lat="43.38176" lon="6.72405">
        <ele>4.3</ele>
        <time>2023-05-16T14:31:36Z</time>
      </trkpt>
      <trkpt lat="43.38176" lon="6.72405">
        <ele>4.3</ele>
        <time>2023-05-16T14:31:37Z</time>
      </trkpt>
      <trkpt lat="43.38176" lon="6.72405">
        <ele>4.3</ele>
        <time>2023-05-16T14:31:38Z</time>
      </trkpt>
      <trkpt lat="43.38176" lon="6.72405">
        <ele>4.3</ele>
        <time>2023-05-16T14:31:39Z</time>
      </trkpt>
      <trkpt lat="43.38176" lon="6.72405">
        <ele>4.3</ele>
        <time>2023-05-16T14:31:40Z</time>
      </trkpt>
      <trkpt lat="43.38176" lon="6.72405">
        <ele>4.3</ele>
        <time>2023-05-16T14:31:41Z</time>
      </trkpt>
      <trkpt lat="43.38176" lon="6.72405">
        <ele>4.3</ele>
        <time>2023-05-16T14:31:42Z</time>
      </trkpt>
      <trkpt lat="43.38176" lon="6.72405">
        <ele>4.3</ele>
        <time>2023-05-16T14:31:43Z</time>
      </trkpt>
      <trkpt lat="43.38176" lon="6.72405">
        <ele>4.3</ele>
        <time>2023-05-16T14:31:44Z</time>
      </trkpt>
      <trkpt lat="43.38176" lon="6.72405">
        <ele>4.3</ele>
        <time>2023-05-16T14:31:45Z</time>
      </trkpt>
      <trkpt lat="43.38176" lon="6.72405">
        <ele>4.3</ele>
        <time>2023-05-16T14:31:46Z</time>
      </trkpt>
      <trkpt lat="43.38176" lon="6.72405">
        <ele>4.3</ele>
        <time>2023-05-16T14:31:47Z</time>
      </trkpt>
      <trkpt lat="43.38176" lon="6.72405">
        <ele>4.3</ele>
        <time>2023-05-16T14:31:48Z</time>
      </trkpt>
      <trkpt lat="43.38176" lon="6.72405">
        <ele>4.3</ele>
        <time>2023-05-16T14:31:49Z</time>
      </trkpt>
      <trkpt lat="43.38176" lon="6.72405">
        <ele>4.3</ele>
        <time>2023-05-16T14:31:50Z</time>
      </trkpt>
      <trkpt lat="43.38176" lon="6.72405">
        <ele>4.3</ele>
        <time>2023-05-16T14:31:51Z</time>
      </trkpt>
      <trkpt lat="43.38176" lon="6.72405">
        <ele>4.3</ele>
        <time>2023-05-16T14:31:52Z</time>
      </trkpt>
      <trkpt lat="43.38176" lon="6.72405">
        <ele>4.3</ele>
        <time>2023-05-16T14:31:53Z</time>
      </trkpt>
      <trkpt lat="43.38176" lon="6.72405">
        <ele>4.3</ele>
        <time>2023-05-16T14:31:54Z</time>
      </trkpt>
      <trkpt lat="43.38176" lon="6.72405">
        <ele>4.3</ele>
        <time>2023-05-16T14:31:55Z</time>
      </trkpt>
      <trkpt lat="43.38176" lon="6.72405">
        <ele>4.3</ele>
        <time>2023-05-16T14:31:56Z</time>
      </trkpt>
      <trkpt lat="43.38176" lon="6.72405">
        <ele>4.3</ele>
        <time>2023-05-16T14:31:57Z</time>
      </trkpt>
      <trkpt lat="43.38176" lon="6.72405">
        <ele>4.3</ele>
        <time>2023-05-16T14:31:58Z</time>
      </trkpt>
      <trkpt lat="43.38176" lon="6.72405">
        <ele>4.3</ele>
        <time>2023-05-16T14:31:59Z</time>
      </trkpt>
      <trkpt lat="43.38176" lon="6.72405">
        <ele>4.3</ele>
        <time>2023-05-16T14:32:00Z</time>
      </trkpt>
      <trkpt lat="43.38176" lon="6.72405">
        <ele>4.3</ele>
        <time>2023-05-16T14:32:01Z</time>
      </trkpt>
      <trkpt lat="43.38176" lon="6.72405">
        <ele>4.3</ele>
        <time>2023-05-16T14:32:02Z</time>
      </trkpt>
      <trkpt lat="43.38176" lon="6.72405">
        <ele>4.3</ele>
        <time>2023-05-16T14:32:03Z</time>
      </trkpt>
      <trkpt lat="43.38176" lon="6.72405">
        <ele>4.3</ele>
        <time>2023-05-16T14:32:04Z</time>
      </trkpt>
      <trkpt lat="43.38176" lon="6.72405">
        <ele>4.3</ele>
        <time>2023-05-16T14:32:05Z</time>
      </trkpt>
      <trkpt lat="43.38176" lon="6.72405">
        <ele>4.3</ele>
        <time>2023-05-16T14:32:06Z</time>
      </trkpt>
      <trkpt lat="43.38176" lon="6.72405">
        <ele>4.3</ele>
        <time>2023-05-16T14:32:07Z</time>
      </trkpt>
      <trkpt lat="43.38176" lon="6.72405">
        <ele>4.3</ele>
        <time>2023-05-16T14:32:08Z</time>
      </trkpt>
      <trkpt lat="43.38176" lon="6.72405">
        <ele>4.3</ele>
        <time>2023-05-16T14:32:09Z</time>
      </trkpt>
      <trkpt lat="43.38176" lon="6.72405">
        <ele>4.3</ele>
        <time>2023-05-16T14:32:10Z</time>
      </trkpt>
      <trkpt lat="43.38176" lon="6.72405">
        <ele>4.3</ele>
        <time>2023-05-16T14:32:11Z</time>
      </trkpt>
      <trkpt lat="43.38176" lon="6.72405">
        <ele>4.3</ele>
        <time>2023-05-16T14:32:12Z</time>
      </trkpt>
      <trkpt lat="43.38176" lon="6.72405">
        <ele>4.3</ele>
        <time>2023-05-16T14:32:13Z</time>
      </trkpt>
      <trkpt lat="43.38176" lon="6.72405">
        <ele>4.3</ele>
        <time>2023-05-16T14:32:14Z</time>
      </trkpt>
      <trkpt lat="43.38176" lon="6.72405">
        <ele>4.3</ele>
        <time>2023-05-16T14:32:15Z</time>
      </trkpt>
      <trkpt lat="43.38176" lon="6.72405">
        <ele>4.3</ele>
        <time>2023-05-16T14:32:16Z</time>
      </trkpt>
      <trkpt lat="43.38176" lon="6.72405">
        <ele>4.3</ele>
        <time>2023-05-16T14:32:17Z</time>
      </trkpt>
      <trkpt lat="43.38176" lon="6.72405">
        <ele>4.3</ele>
        <time>2023-05-16T14:32:18Z</time>
      </trkpt>
      <trkpt lat="43.38176" lon="6.72405">
        <ele>4.3</ele>
        <time>2023-05-16T14:32:19Z</time>
      </trkpt>
      <trkpt lat="43.38176" lon="6.72405">
        <ele>4.3</ele>
        <time>2023-05-16T14:32:20Z</time>
      </trkpt>
      <trkpt lat="43.38176" lon="6.72405">
        <ele>4.3</ele>
        <time>2023-05-16T14:32:21Z</time>
      </trkpt>
      <trkpt lat="43.38176" lon="6.72405">
        <ele>4.3</ele>
        <time>2023-05-16T14:32:22Z</time>
      </trkpt>
      <trkpt lat="43.38176" lon="6.72405">
        <ele>4.3</ele>
        <time>2023-05-16T14:32:23Z</time>
      </trkpt>
      <trkpt lat="43.38176" lon="6.72405">
        <ele>4.3</ele>
        <time>2023-05-16T14:32:24Z</time>
      </trkpt>
      <trkpt lat="43.38176" lon="6.72405">
        <ele>4.3</ele>
        <time>2023-05-16T14:32:25Z</time>
      </trkpt>
      <trkpt lat="43.38176" lon="6.72405">
        <ele>4.3</ele>
        <time>2023-05-16T14:32:26Z</time>
      </trkpt>
      <trkpt lat="43.38176" lon="6.72405">
        <ele>4.3</ele>
        <time>2023-05-16T14:32:27Z</time>
      </trkpt>
      <trkpt lat="43.38176" lon="6.72405">
        <ele>4.3</ele>
        <time>2023-05-16T14:32:28Z</time>
      </trkpt>
      <trkpt lat="43.38176" lon="6.72405">
        <ele>4.3</ele>
        <time>2023-05-16T14:32:29Z</time>
      </trkpt>
      <trkpt lat="43.38176" lon="6.72405">
        <ele>4.3</ele>
        <time>2023-05-16T14:32:30Z</time>
      </trkpt>
      <trkpt lat="43.38176" lon="6.72405">
        <ele>4.3</ele>
        <time>2023-05-16T14:32:31Z</time>
      </trkpt>
      <trkpt lat="43.38176" lon="6.72405">
        <ele>4.3</ele>
        <time>2023-05-16T14:32:32Z</time>
      </trkpt>
      <trkpt lat="43.38176" lon="6.72405">
        <ele>4.3</ele>
        <time>2023-05-16T14:32:33Z</time>
      </trkpt>
      <trkpt lat="43.38176" lon="6.72405">
        <ele>4.3</ele>
        <time>2023-05-16T14:32:34Z</time>
      </trkpt>
      <trkpt lat="43.38176" lon="6.72405">
        <ele>4.3</ele>
        <time>2023-05-16T14:32:35Z</time>
      </trkpt>
      <trkpt lat="43.38176" lon="6.72405">
        <ele>4.3</ele>
        <time>2023-05-16T14:32:36Z</time>
      </trkpt>
      <trkpt lat="43.38176" lon="6.72405">
        <ele>4.3</ele>
        <time>2023-05-16T14:32:37Z</time>
      </trkpt>
      <trkpt lat="43.38176" lon="6.72405">
        <ele>4.3</ele>
        <time>2023-05-16T14:32:38Z</time>
      </trkpt>
      <trkpt lat="43.38176" lon="6.72405">
        <ele>4.3</ele>
        <time>2023-05-16T14:32:39Z</time>
      </trkpt>
      <trkpt lat="43.38176" lon="6.72405">
        <ele>4.3</ele>
        <time>2023-05-16T14:32:40Z</time>
      </trkpt>
      <trkpt lat="43.38176" lon="6.72405">
        <ele>4.3</ele>
        <time>2023-05-16T14:32:41Z</time>
      </trkpt>
      <trkpt lat="43.38176" lon="6.72405">
        <ele>4.3</ele>
        <time>2023-05-16T14:32:42Z</time>
      </trkpt>
      <trkpt lat="43.38176" lon="6.72405">
        <ele>4.3</ele>
        <time>2023-05-16T14:32:43Z</time>
      </trkpt>
      <trkpt lat="43.38176" lon="6.72405">
        <ele>4.3</ele>
        <time>2023-05-16T14:32:44Z</time>
      </trkpt>
      <trkpt lat="43.38176" lon="6.72405">
        <ele>4.3</ele>
        <time>2023-05-16T14:32:45Z</time>
      </trkpt>
      <trkpt lat="43.38176" lon="6.72405">
        <ele>4.3</ele>
        <time>2023-05-16T14:32:46Z</time>
      </trkpt>
      <trkpt lat="43.38176" lon="6.72405">
        <ele>4.3</ele>
        <time>2023-05-16T14:32:47Z</time>
      </trkpt>
      <trkpt lat="43.38176" lon="6.72405">
        <ele>4.3</ele>
        <time>2023-05-16T14:32:48Z</time>
      </trkpt>
      <trkpt lat="43.38176" lon="6.72405">
        <ele>4.3</ele>
        <time>2023-05-16T14:32:49Z</time>
      </trkpt>
      <trkpt lat="43.38176" lon="6.72405">
        <ele>4.3</ele>
        <time>2023-05-16T14:32:50Z</time>
      </trkpt>
      <trkpt lat="43.38176" lon="6.72405">
        <ele>4.3</ele>
        <time>2023-05-16T14:32:51Z</time>
      </trkpt>
      <trkpt lat="43.38176" lon="6.72405">
        <ele>4.3</ele>
        <time>2023-05-16T14:32:52Z</time>
      </trkpt>
      <trkpt lat="43.38176" lon="6.72405">
        <ele>4.3</ele>
        <time>2023-05-16T14:32:53Z</time>
      </trkpt>
      <trkpt lat="43.38176" lon="6.72405">
        <ele>4.3</ele>
        <time>2023-05-16T14:32:54Z</time>
      </trkpt>
      <trkpt lat="43.38176" lon="6.72405">
        <ele>4.3</ele>
        <time>2023-05-16T14:32:55Z</time>
      </trkpt>
      <trkpt lat="43.38176" lon="6.72405">
        <ele>4.3</ele>
        <time>2023-05-16T14:32:56Z</time>
      </trkpt>
      <trkpt lat="43.38176" lon="6.72405">
        <ele>4.3</ele>
        <time>2023-05-16T14:32:57Z</time>
      </trkpt>
      <trkpt lat="43.38176" lon="6.72405">
        <ele>4.3</ele>
        <time>2023-05-16T14:32:58Z</time>
      </trkpt>
      <trkpt lat="43.38176" lon="6.72405">
        <ele>4.3</ele>
        <time>2023-05-16T14:32:59Z</time>
      </trkpt>
      <trkpt lat="43.38176" lon="6.72405">
        <ele>4.3</ele>
        <time>2023-05-16T14:33:00Z</time>
      </trkpt>
      <trkpt lat="43.38176" lon="6.72405">
        <ele>4.3</ele>
        <time>2023-05-16T14:33:01Z</time>
      </trkpt>
      <trkpt lat="43.38176" lon="6.72405">
        <ele>4.3</ele>
        <time>2023-05-16T14:33:02Z</time>
      </trkpt>
      <trkpt lat="43.38176" lon="6.72405">
        <ele>4.3</ele>
        <time>2023-05-16T14:33:03Z</time>
      </trkpt>
      <trkpt lat="43.38176" lon="6.72405">
        <ele>4.3</ele>
        <time>2023-05-16T14:33:04Z</time>
      </trkpt>
      <trkpt lat="43.38176" lon="6.72405">
        <ele>4.3</ele>
        <time>2023-05-16T14:33:05Z</time>
      </trkpt>
      <trkpt lat="43.38176" lon="6.72405">
        <ele>4.3</ele>
        <time>2023-05-16T14:33:06Z</time>
      </trkpt>
      <trkpt lat="43.38176" lon="6.72405">
        <ele>4.3</ele>
        <time>2023-05-16T14:33:07Z</time>
      </trkpt>
      <trkpt lat="43.38176" lon="6.72405">
        <ele>4.3</ele>
        <time>2023-05-16T14:33:08Z</time>
      </trkpt>
      <trkpt lat="43.38176" lon="6.72405">
        <ele>4.3</ele>
        <time>2023-05-16T14:33:09Z</time>
      </trkpt>
      <trkpt lat="43.38176" lon="6.72405">
        <ele>4.3</ele>
        <time>2023-05-16T14:33:10Z</time>
      </trkpt>
      <trkpt lat="43.38176" lon="6.72405">
        <ele>4.3</ele>
        <time>2023-05-16T14:33:11Z</time>
      </trkpt>
      <trkpt lat="43.38176" lon="6.72405">
        <ele>4.3</ele>
        <time>2023-05-16T14:33:12Z</time>
      </trkpt>
      <trkpt lat="43.38176" lon="6.72405">
        <ele>4.3</ele>
        <time>2023-05-16T14:33:13Z</time>
      </trkpt>
      <trkpt lat="43.38176" lon="6.72405">
        <ele>4.3</ele>
        <time>2023-05-16T14:33:14Z</time>
      </trkpt>
      <trkpt lat="43.38176" lon="6.72405">
        <ele>4.3</ele>
        <time>2023-05-16T14:33:15Z</time>
      </trkpt>
      <trkpt lat="43.38176" lon="6.72405">
        <ele>4.3</ele>
        <time>2023-05-16T14:33:16Z</time>
      </trkpt>
      <trkpt lat="43.38176" lon="6.72405">
        <ele>4.3</ele>
        <time>2023-05-16T14:33:17Z</time>
      </trkpt>
      <trkpt lat="43.38176" lon="6.72405">
        <ele>4.3</ele>
        <time>2023-05-16T14:33:18Z</time>
      </trkpt>
      <trkpt lat="43.38176" lon="6.72405">
        <ele>4.3</ele>
        <time>2023-05-16T14:33:19Z</time>
      </trkpt>
      <trkpt lat="43.38176" lon="6.72405">
        <ele>4.3</ele>
        <time>2023-05-16T14:33:20Z</time>
      </trkpt>
      <trkpt lat="43.38176" lon="6.72405">
        <ele>4.3</ele>
        <time>2023-05-16T14:33:21Z</time>
      </trkpt>
      <trkpt lat="43.38176" lon="6.72405">
        <ele>4.3</ele>
        <time>2023-05-16T14:33:22Z</time>
      </trkpt>
      <trkpt lat="43.38176" lon="6.72405">
        <ele>4.3</ele>
        <time>2023-05-16T14:33:23Z</time>
      </trkpt>
      <trkpt lat="43.38176" lon="6.72405">
        <ele>4.3</ele>
        <time>2023-05-16T14:33:24Z</time>
      </trkpt>
      <trkpt lat="43.38176" lon="6.72405">
        <ele>4.3</ele>
        <time>2023-05-16T14:33:25Z</time>
      </trkpt>
      <trkpt lat="43.38176" lon="6.72405">
        <ele>4.3</ele>
        <time>2023-05-16T14:33:26Z</time>
      </trkpt>
      <trkpt lat="43.38176" lon="6.72405">
        <ele>4.3</ele>
        <time>2023-05-16T14:33:27Z</time>
      </trkpt>
      <trkpt lat="43.38176" lon="6.72405">
        <ele>4.3</ele>
        <time>2023-05-16T14:33:28Z</time>
      </trkpt>
      <trkpt lat="43.38176" lon="6.72405">
        <ele>4.3</ele>
        <time>2023-05-16T14:33:29Z</time>
      </trkpt>
      <trkpt lat="43.38176" lon="6.72405">
        <ele>4.3</ele>
        <time>2023-05-16T14:33:30Z</time>
      </trkpt>
      <trkpt lat="43.38176" lon="6.72405">
        <ele>4.3</ele>
        <time>2023-05-16T14:33:31Z</time>
      </trkpt>
      <trkpt lat="43.38176" lon="6.72405">
        <ele>4.3</ele>
        <time>2023-05-16T14:33:32Z</time>
      </trkpt>
      <trkpt lat="43.38176" lon="6.72405">
        <ele>4.3</ele>
        <time>2023-05-16T14:33:33Z</time>
      </trkpt>
      <trkpt lat="43.38176" lon="6.72405">
        <ele>4.3</ele>
        <time>2023-05-16T14:33:34Z</time>
      </trkpt>
      <trkpt lat="43.38176" lon="6.72405">
        <ele>4.3</ele>
        <time>2023-05-16T14:33:35Z</time>
      </trkpt>
      <trkpt lat="43.38176" lon="6.72405">
        <ele>4.3</ele>
        <time>2023-05-16T14:33:36Z</time>
      </trkpt>
      <trkpt lat="43.38176" lon="6.72405">
        <ele>4.3</ele>
        <time>2023-05-16T14:33:37Z</time>
      </trkpt>
      <trkpt lat="43.38176" lon="6.72405">
        <ele>4.3</ele>
        <time>2023-05-16T14:33:38Z</time>
      </trkpt>
      <trkpt lat="43.38176" lon="6.72405">
        <ele>4.3</ele>
        <time>2023-05-16T14:33:39Z</time>
      </trkpt>
      <trkpt lat="43.38176" lon="6.72405">
        <ele>4.3</ele>
        <time>2023-05-16T14:33:40Z</time>
      </trkpt>
      <trkpt lat="43.38176" lon="6.72405">
        <ele>4.3</ele>
        <time>2023-05-16T14:33:41Z</time>
      </trkpt>
      <trkpt lat="43.38176" lon="6.72405">
        <ele>4.3</ele>
        <time>2023-05-16T14:33:42Z</time>
      </trkpt>
      <trkpt lat="43.38176" lon="6.72405">
        <ele>4.3</ele>
        <time>2023-05-16T14:33:43Z</time>
      </trkpt>
      <trkpt lat="43.38176" lon="6.72405">
        <ele>4.3</ele>
        <time>2023-05-16T14:33:44Z</time>
      </trkpt>
      <trkpt lat="43.38176" lon="6.72405">
        <ele>4.3</ele>
        <time>2023-05-16T14:33:45Z</time>
      </trkpt>
      <trkpt lat="43.38176" lon="6.72405">
        <ele>4.3</ele>
        <time>2023-05-16T14:33:46Z</time>
      </trkpt>
      <trkpt lat="43.38176" lon="6.72405">
        <ele>4.3</ele>
        <time>2023-05-16T14:33:47Z</time>
      </trkpt>
      <trkpt lat="43.38176" lon="6.72405">
        <ele>4.3</ele>
        <time>2023-05-16T14:33:48Z</time>
      </trkpt>
      <trkpt lat="43.38176" lon="6.72405">
        <ele>4.3</ele>
        <time>2023-05-16T14:33:49Z</time>
      </trkpt>
      <trkpt lat="43.38176" lon="6.72405">
        <ele>4.3</ele>
        <time>2023-05-16T14:33:50Z</time>
      </trkpt>
      <trkpt lat="43.38176" lon="6.72405">
        <ele>4.3</ele>
        <time>2023-05-16T14:33:51Z</time>
      </trkpt>
      <trkpt lat="43.38176" lon="6.72405">
        <ele>4.3</ele>
        <time>2023-05-16T14:33:52Z</time>
      </trkpt>
      <trkpt lat="43.38176" lon="6.72405">
        <ele>4.3</ele>
        <time>2023-05-16T14:33:53Z</time>
      </trkpt>
      <trkpt lat="43.38176" lon="6.72405">
        <ele>4.3</ele>
        <time>2023-05-16T14:33:54Z</time>
      </trkpt>
      <trkpt lat="43.38176" lon="6.72405">
        <ele>4.3</ele>
        <time>2023-05-16T14:33:55Z</time>
      </trkpt>
      <trkpt lat="43.38176" lon="6.72405">
        <ele>4.3</ele>
        <time>2023-05-16T14:33:56Z</time>
      </trkpt>
      <trkpt lat="43.38176" lon="6.72405">
        <ele>4.3</ele>
        <time>2023-05-16T14:33:57Z</time>
      </trkpt>
      <trkpt lat="43.38176" lon="6.72405">
        <ele>4.3</ele>
        <time>2023-05-16T14:33:58Z</time>
      </trkpt>
      <trkpt lat="43.38176" lon="6.72405">
        <ele>4.3</ele>
        <time>2023-05-16T14:33:59Z</time>
      </trkpt>
      <trkpt lat="43.38176" lon="6.72405">
        <ele>4.3</ele>
        <time>2023-05-16T14:34:00Z</time>
      </trkpt>
      <trkpt lat="43.38176" lon="6.72405">
        <ele>4.3</ele>
        <time>2023-05-16T14:34:01Z</time>
      </trkpt>
      <trkpt lat="43.38176" lon="6.72405">
        <ele>4.3</ele>
        <time>2023-05-16T14:34:02Z</time>
      </trkpt>
      <trkpt lat="43.38176" lon="6.72405">
        <ele>4.3</ele>
        <time>2023-05-16T14:34:03Z</time>
      </trkpt>
      <trkpt lat="43.38176" lon="6.72405">
        <ele>4.3</ele>
        <time>2023-05-16T14:34:04Z</time>
      </trkpt>
      <trkpt lat="43.38176" lon="6.72405">
        <ele>4.3</ele>
        <time>2023-05-16T14:34:05Z</time>
      </trkpt>
      <trkpt lat="43.38176" lon="6.72405">
        <ele>4.3</ele>
        <time>2023-05-16T14:34:06Z</time>
      </trkpt>
      <trkpt lat="43.38176" lon="6.72405">
        <ele>4.3</ele>
        <time>2023-05-16T14:34:07Z</time>
      </trkpt>
      <trkpt lat="43.38176" lon="6.72405">
        <ele>4.3</ele>
        <time>2023-05-16T14:34:08Z</time>
      </trkpt>
      <trkpt lat="43.38176" lon="6.72405">
        <ele>4.3</ele>
        <time>2023-05-16T14:34:09Z</time>
      </trkpt>
      <trkpt lat="43.38176" lon="6.72405">
        <ele>4.3</ele>
        <time>2023-05-16T14:34:10Z</time>
      </trkpt>
      <trkpt lat="43.38176" lon="6.72405">
        <ele>4.3</ele>
        <time>2023-05-16T14:34:11Z</time>
      </trkpt>
      <trkpt lat="43.38176" lon="6.72405">
        <ele>4.3</ele>
        <time>2023-05-16T14:34:12Z</time>
      </trkpt>
      <trkpt lat="43.38176" lon="6.72405">
        <ele>4.3</ele>
        <time>2023-05-16T14:34:13Z</time>
      </trkpt>
      <trkpt lat="43.38176" lon="6.72405">
        <ele>4.3</ele>
        <time>2023-05-16T14:34:14Z</time>
      </trkpt>
      <trkpt lat="43.38176" lon="6.72405">
        <ele>4.3</ele>
        <time>2023-05-16T14:34:15Z</time>
      </trkpt>
      <trkpt lat="43.38176" lon="6.72405">
        <ele>4.3</ele>
        <time>2023-05-16T14:34:16Z</time>
      </trkpt>
      <trkpt lat="43.38176" lon="6.72405">
        <ele>4.3</ele>
        <time>2023-05-16T14:34:17Z</time>
      </trkpt>
      <trkpt lat="43.38176" lon="6.72405">
        <ele>4.3</ele>
        <time>2023-05-16T14:34:18Z</time>
      </trkpt>
      <trkpt lat="43.38176" lon="6.72405">
        <ele>4.3</ele>
        <time>2023-05-16T14:34:19Z</time>
      </trkpt>
      <trkpt lat="43.38176" lon="6.72405">
        <ele>4.3</ele>
        <time>2023-05-16T14:34:20Z</time>
      </trkpt>
      <trkpt lat="43.38176" lon="6.72405">
        <ele>4.3</ele>
        <time>2023-05-16T14:34:21Z</time>
      </trkpt>
      <trkpt lat="43.38176" lon="6.72405">
        <ele>4.3</ele>
        <time>2023-05-16T14:34:22Z</time>
      </trkpt>
      <trkpt lat="43.38176" lon="6.72405">
        <ele>4.3</ele>
        <time>2023-05-16T14:34:23Z</time>
      </trkpt>
      <trkpt lat="43.38176" lon="6.72405">
        <ele>4.3</ele>
        <time>2023-05-16T14:34:24Z</time>
      </trkpt>
      <trkpt lat="43.38176" lon="6.72405">
        <ele>4.3</ele>
        <time>2023-05-16T14:34:25Z</time>
      </trkpt>
      <trkpt lat="43.38176" lon="6.72405">
        <ele>4.3</ele>
        <time>2023-05-16T14:34:26Z</time>
      </trkpt>
      <trkpt lat="43.38176" lon="6.72405">
        <ele>4.3</ele>
        <time>2023-05-16T14:34:27Z</time>
      </trkpt>
      <trkpt lat="43.38176" lon="6.72405">
        <ele>4.3</ele>
        <time>2023-05-16T14:34:28Z</time>
      </trkpt>
      <trkpt lat="43.38176" lon="6.72405">
        <ele>4.3</ele>
        <time>2023-05-16T14:34:29Z</time>
      </trkpt>
      <trkpt lat="43.38176" lon="6.72405">
        <ele>4.3</ele>
        <time>2023-05-16T14:34:30Z</time>
      </trkpt>
      <trkpt lat="43.38176" lon="6.72405">
        <ele>4.3</ele>
        <time>2023-05-16T14:34:31Z</time>
      </trkpt>
      <trkpt lat="43.38176" lon="6.72405">
        <ele>4.3</ele>
        <time>2023-05-16T14:34:32Z</time>
      </trkpt>
      <trkpt lat="43.38176" lon="6.72405">
        <ele>4.3</ele>
        <time>2023-05-16T14:34:33Z</time>
      </trkpt>
      <trkpt lat="43.38176" lon="6.72405">
        <ele>4.3</ele>
        <time>2023-05-16T14:34:34Z</time>
      </trkpt>
      <trkpt lat="43.38176" lon="6.72405">
        <ele>4.3</ele>
        <time>2023-05-16T14:34:35Z</time>
      </trkpt>
      <trkpt lat="43.38176" lon="6.72405">
        <ele>4.3</ele>
        <time>2023-05-16T14:34:36Z</time>
      </trkpt>
      <trkpt lat="43.38176" lon="6.72405">
        <ele>4.3</ele>
        <time>2023-05-16T14:34:37Z</time>
      </trkpt>
      <trkpt lat="43.38176" lon="6.72405">
        <ele>4.3</ele>
        <time>2023-05-16T14:34:38Z</time>
      </trkpt>
      <trkpt lat="43.38176" lon="6.72405">
        <ele>4.3</ele>
        <time>2023-05-16T14:34:39Z</time>
      </trkpt>
      <trkpt lat="43.38176" lon="6.72405">
        <ele>4.3</ele>
        <time>2023-05-16T14:34:40Z</time>
      </trkpt>
      <trkpt lat="43.38176" lon="6.72405">
        <ele>4.3</ele>
        <time>2023-05-16T14:34:41Z</time>
      </trkpt>
      <trkpt lat="43.38176" lon="6.72405">
        <ele>4.3</ele>
        <time>2023-05-16T14:34:42Z</time>
      </trkpt>
      <trkpt lat="43.38176" lon="6.72405">
        <ele>4.3</ele>
        <time>2023-05-16T14:34:43Z</time>
      </trkpt>
      <trkpt lat="43.38176" lon="6.72405">
        <ele>4.3</ele>
        <time>2023-05-16T14:34:44Z</time>
      </trkpt>
      <trkpt lat="43.38176" lon="6.72405">
        <ele>4.3</ele>
        <time>2023-05-16T14:34:45Z</time>
      </trkpt>
      <trkpt lat="43.38176" lon="6.72405">
        <ele>4.3</ele>
        <time>2023-05-16T14:34:46Z</time>
      </trkpt>
      <trkpt lat="43.38176" lon="6.72405">
        <ele>4.3</ele>
        <time>2023-05-16T14:34:47Z</time>
      </trkpt>
      <trkpt lat="43.38176" lon="6.72405">
        <ele>4.3</ele>
        <time>2023-05-16T14:34:48Z</time>
      </trkpt>
      <trkpt lat="43.38176" lon="6.72405">
        <ele>4.3</ele>
        <time>2023-05-16T14:34:49Z</time>
      </trkpt>
      <trkpt lat="43.38176" lon="6.72405">
        <ele>4.3</ele>
        <time>2023-05-16T14:34:50Z</time>
      </trkpt>
      <trkpt lat="43.38176" lon="6.72405">
        <ele>4.3</ele>
        <time>2023-05-16T14:34:51Z</time>
      </trkpt>
      <trkpt lat="43.38176" lon="6.72405">
        <ele>4.3</ele>
        <time>2023-05-16T14:34:52Z</time>
      </trkpt>
      <trkpt lat="43.38176" lon="6.72405">
        <ele>4.3</ele>
        <time>2023-05-16T14:34:53Z</time>
      </trkpt>
      <trkpt lat="43.38176" lon="6.72405">
        <ele>4.3</ele>
        <time>2023-05-16T14:34:54Z</time>
      </trkpt>
      <trkpt lat="43.38176" lon="6.72405">
        <ele>4.3</ele>
        <time>2023-05-16T14:34:55Z</time>
      </trkpt>
      <trkpt lat="43.38176" lon="6.72405">
        <ele>4.3</ele>
        <time>2023-05-16T14:34:56Z</time>
      </trkpt>
      <trkpt lat="43.38176" lon="6.72405">
        <ele>4.3</ele>
        <time>2023-05-16T14:34:57Z</time>
      </trkpt>
      <trkpt lat="43.38176" lon="6.72405">
        <ele>4.3</ele>
        <time>2023-05-16T14:34:58Z</time>
      </trkpt>
      <trkpt lat="43.38176" lon="6.72405">
        <ele>4.3</ele>
        <time>2023-05-16T14:34:59Z</time>
      </trkpt>
      <trkpt lat="43.38176" lon="6.72405">
        <ele>4.3</ele>
        <time>2023-05-16T14:35:00Z</time>
      </trkpt>
      <trkpt lat="43.38176" lon="6.72405">
        <ele>4.3</ele>
        <time>2023-05-16T14:35:01Z</time>
      </trkpt>
      <trkpt lat="43.38176" lon="6.72405">
        <ele>4.3</ele>
        <time>2023-05-16T14:35:02Z</time>
      </trkpt>
      <trkpt lat="43.38176" lon="6.72405">
        <ele>4.3</ele>
        <time>2023-05-16T14:35:03Z</time>
      </trkpt>
      <trkpt lat="43.38176" lon="6.72405">
        <ele>4.3</ele>
        <time>2023-05-16T14:35:04Z</time>
      </trkpt>
      <trkpt lat="43.38176" lon="6.72405">
        <ele>4.3</ele>
        <time>2023-05-16T14:35:05Z</time>
      </trkpt>
      <trkpt lat="43.38176" lon="6.72405">
        <ele>4.3</ele>
        <time>2023-05-16T14:35:06Z</time>
      </trkpt>
      <trkpt lat="43.38176" lon="6.72405">
        <ele>4.3</ele>
        <time>2023-05-16T14:35:07Z</time>
      </trkpt>
      <trkpt lat="43.38176" lon="6.72405">
        <ele>4.3</ele>
        <time>2023-05-16T14:35:08Z</time>
      </trkpt>
      <trkpt lat="43.38176" lon="6.72405">
        <ele>4.3</ele>
        <time>2023-05-16T14:35:09Z</time>
      </trkpt>
      <trkpt lat="43.38176" lon="6.72405">
        <ele>4.3</ele>
        <time>2023-05-16T14:35:10Z</time>
      </trkpt>
      <trkpt lat="43.38176" lon="6.72405">
        <ele>4.3</ele>
        <time>2023-05-16T14:35:11Z</time>
      </trkpt>
      <trkpt lat="43.38176" lon="6.72405">
        <ele>4.3</ele>
        <time>2023-05-16T14:35:12Z</time>
      </trkpt>
      <trkpt lat="43.38176" lon="6.72405">
        <ele>4.3</ele>
        <time>2023-05-16T14:35:13Z</time>
      </trkpt>
      <trkpt lat="43.38176" lon="6.72405">
        <ele>4.3</ele>
        <time>2023-05-16T14:35:14Z</time>
      </trkpt>
      <trkpt lat="43.38176" lon="6.72405">
        <ele>4.3</ele>
        <time>2023-05-16T14:35:15Z</time>
      </trkpt>
      <trkpt lat="43.38176" lon="6.72405">
        <ele>4.3</ele>
        <time>2023-05-16T14:35:16Z</time>
      </trkpt>
      <trkpt lat="43.38176" lon="6.72405">
        <ele>4.3</ele>
        <time>2023-05-16T14:35:17Z</time>
      </trkpt>
      <trkpt lat="43.38176" lon="6.72405">
        <ele>4.3</ele>
        <time>2023-05-16T14:35:18Z</time>
      </trkpt>
      <trkpt lat="43.38176" lon="6.72405">
        <ele>4.3</ele>
        <time>2023-05-16T14:35:19Z</time>
      </trkpt>
      <trkpt lat="43.38176" lon="6.72405">
        <ele>4.3</ele>
        <time>2023-05-16T14:35:20Z</time>
      </trkpt>
      <trkpt lat="43.38176" lon="6.72405">
        <ele>4.3</ele>
        <time>2023-05-16T14:35:21Z</time>
      </trkpt>
      <trkpt lat="43.38176" lon="6.72405">
        <ele>4.3</ele>
        <time>2023-05-16T14:35:22Z</time>
      </trkpt>
      <trkpt lat="43.38176" lon="6.72405">
        <ele>4.3</ele>
        <time>2023-05-16T14:35:23Z</time>
      </trkpt>
      <trkpt lat="43.38176" lon="6.72405">
        <ele>4.3</ele>
        <time>2023-05-16T14:35:24Z</time>
      </trkpt>
      <trkpt lat="43.38176" lon="6.72405">
        <ele>4.3</ele>
        <time>2023-05-16T14:35:25Z</time>
      </trkpt>
      <trkpt lat="43.38176" lon="6.72405">
        <ele>4.3</ele>
        <time>2023-05-16T14:35:26Z</time>
      </trkpt>
      <trkpt lat="43.38176" lon="6.72405">
        <ele>4.3</ele>
        <time>2023-05-16T14:35:27Z</time>
      </trkpt>
      <trkpt lat="43.38176" lon="6.72405">
        <ele>4.3</ele>
        <time>2023-05-16T14:35:28Z</time>
      </trkpt>
      <trkpt lat="43.38176" lon="6.72405">
        <ele>4.3</ele>
        <time>2023-05-16T14:35:29Z</time>
      </trkpt>
      <trkpt lat="43.38176" lon="6.72405">
        <ele>4.3</ele>
        <time>2023-05-16T14:35:30Z</time>
      </trkpt>
      <trkpt lat="43.38176" lon="6.72405">
        <ele>4.3</ele>
        <time>2023-05-16T14:35:31Z</time>
      </trkpt>
      <trkpt lat="43.38176" lon="6.72405">
        <ele>4.3</ele>
        <time>2023-05-16T14:35:32Z</time>
      </trkpt>
      <trkpt lat="43.38176" lon="6.72405">
        <ele>4.3</ele>
        <time>2023-05-16T14:35:33Z</time>
      </trkpt>
      <trkpt lat="43.38176" lon="6.72405">
        <ele>4.3</ele>
        <time>2023-05-16T14:35:34Z</time>
      </trkpt>
      <trkpt lat="43.38176" lon="6.72405">
        <ele>4.3</ele>
        <time>2023-05-16T14:35:35Z</time>
      </trkpt>
      <trkpt lat="43.38176" lon="6.72405">
        <ele>4.3</ele>
        <time>2023-05-16T14:35:36Z</time>
      </trkpt>
      <trkpt lat="43.38176" lon="6.72405">
        <ele>4.3</ele>
        <time>2023-05-16T14:35:37Z</time>
      </trkpt>
      <trkpt lat="43.38176" lon="6.72405">
        <ele>4.3</ele>
        <time>2023-05-16T14:35:38Z</time>
      </trkpt>
      <trkpt lat="43.38176" lon="6.72405">
        <ele>4.3</ele>
        <time>2023-05-16T14:35:39Z</time>
      </trkpt>
      <trkpt lat="43.38176" lon="6.72405">
        <ele>4.3</ele>
        <time>2023-05-16T14:35:40Z</time>
      </trkpt>
      <trkpt lat="43.38176" lon="6.72405">
        <ele>4.3</ele>
        <time>2023-05-16T14:35:41Z</time>
      </trkpt>
      <trkpt lat="43.38176" lon="6.72405">
        <ele>4.3</ele>
        <time>2023-05-16T14:35:42Z</time>
      </trkpt>
      <trkpt lat="43.38176" lon="6.72405">
        <ele>4.3</ele>
        <time>2023-05-16T14:35:43Z</time>
      </trkpt>
      <trkpt lat="43.38176" lon="6.72405">
        <ele>4.3</ele>
        <time>2023-05-16T14:35:44Z</time>
      </trkpt>
      <trkpt lat="43.38176" lon="6.72405">
        <ele>4.3</ele>
        <time>2023-05-16T14:35:45Z</time>
      </trkpt>
      <trkpt lat="43.38176" lon="6.72405">
        <ele>4.3</ele>
        <time>2023-05-16T14:35:46Z</time>
      </trkpt>
      <trkpt lat="43.38176" lon="6.72405">
        <ele>4.3</ele>
        <time>2023-05-16T14:35:47Z</time>
      </trkpt>
      <trkpt lat="43.38176" lon="6.72405">
        <ele>4.3</ele>
        <time>2023-05-16T14:35:48Z</time>
      </trkpt>
      <trkpt lat="43.38176" lon="6.72405">
        <ele>4.3</ele>
        <time>2023-05-16T14:35:49Z</time>
      </trkpt>
      <trkpt lat="43.38176" lon="6.72405">
        <ele>4.3</ele>
        <time>2023-05-16T14:35:50Z</time>
      </trkpt>
      <trkpt lat="43.38176" lon="6.72405">
        <ele>4.3</ele>
        <time>2023-05-16T14:35:51Z</time>
      </trkpt>
      <trkpt lat="43.38176" lon="6.72405">
        <ele>4.3</ele>
        <time>2023-05-16T14:35:52Z</time>
      </trkpt>
      <trkpt lat="43.38176" lon="6.72405">
        <ele>4.3</ele>
        <time>2023-05-16T14:35:53Z</time>
      </trkpt>
      <trkpt lat="43.38176" lon="6.72405">
        <ele>4.3</ele>
        <time>2023-05-16T14:35:54Z</time>
      </trkpt>
      <trkpt lat="43.38177" lon="6.72405">
        <ele>4.3</ele>
        <time>2023-05-16T14:35:55Z</time>
      </trkpt>
      <trkpt lat="43.38177" lon="6.72405">
        <ele>4.3</ele>
        <time>2023-05-16T14:35:56Z</time>
      </trkpt>
      <trkpt lat="43.38177" lon="6.72405">
        <ele>4.3</ele>
        <time>2023-05-16T14:35:57Z</time>
      </trkpt>
      <trkpt lat="43.38176" lon="6.72405">
        <ele>4.3</ele>
        <time>2023-05-16T14:35:58Z</time>
      </trkpt>
      <trkpt lat="43.38176" lon="6.72406">
        <ele>4.3</ele>
        <time>2023-05-16T14:35:59Z</time>
      </trkpt>
      <trkpt lat="43.38177" lon="6.72405">
        <ele>4.3</ele>
        <time>2023-05-16T14:36:00Z</time>
      </trkpt>
      <trkpt lat="43.38177" lon="6.72405">
        <ele>4.3</ele>
        <time>2023-05-16T14:36:01Z</time>
      </trkpt>
      <trkpt lat="43.38176" lon="6.72405">
        <ele>4.3</ele>
        <time>2023-05-16T14:36:02Z</time>
      </trkpt>
      <trkpt lat="43.38176" lon="6.72405">
        <ele>4.3</ele>
        <time>2023-05-16T14:36:03Z</time>
      </trkpt>
      <trkpt lat="43.38176" lon="6.72405">
        <ele>4.3</ele>
        <time>2023-05-16T14:36:04Z</time>
      </trkpt>
      <trkpt lat="43.38176" lon="6.72405">
        <ele>4.3</ele>
        <time>2023-05-16T14:36:05Z</time>
      </trkpt>
      <trkpt lat="43.38176" lon="6.72405">
        <ele>4.3</ele>
        <time>2023-05-16T14:36:06Z</time>
      </trkpt>
      <trkpt lat="43.38177" lon="6.72405">
        <ele>4.3</ele>
        <time>2023-05-16T14:36:07Z</time>
      </trkpt>
      <trkpt lat="43.38177" lon="6.72405">
        <ele>4.3</ele>
        <time>2023-05-16T14:36:08Z</time>
      </trkpt>
      <trkpt lat="43.38177" lon="6.72405">
        <ele>4.3</ele>
        <time>2023-05-16T14:36:09Z</time>
      </trkpt>
      <trkpt lat="43.38177" lon="6.72405">
        <ele>4.3</ele>
        <time>2023-05-16T14:36:10Z</time>
      </trkpt>
      <trkpt lat="43.38177" lon="6.72405">
        <ele>4.3</ele>
        <time>2023-05-16T14:36:11Z</time>
      </trkpt>
      <trkpt lat="43.38177" lon="6.72405">
        <ele>4.3</ele>
        <time>2023-05-16T14:36:12Z</time>
      </trkpt>
      <trkpt lat="43.38177" lon="6.72405">
        <ele>4.3</ele>
        <time>2023-05-16T14:36:13Z</time>
      </trkpt>
      <trkpt lat="43.38177" lon="6.72405">
        <ele>4.3</ele>
        <time>2023-05-16T14:36:14Z</time>
      </trkpt>
      <trkpt lat="43.38177" lon="6.72405">
        <ele>4.3</ele>
        <time>2023-05-16T14:36:15Z</time>
      </trkpt>
      <trkpt lat="43.38177" lon="6.72405">
        <ele>4.3</ele>
        <time>2023-05-16T14:36:16Z</time>
      </trkpt>
      <trkpt lat="43.38177" lon="6.72405">
        <ele>4.3</ele>
        <time>2023-05-16T14:36:17Z</time>
      </trkpt>
      <trkpt lat="43.38177" lon="6.72405">
        <ele>4.3</ele>
        <time>2023-05-16T14:36:18Z</time>
      </trkpt>
      <trkpt lat="43.38177" lon="6.72405">
        <ele>4.3</ele>
        <time>2023-05-16T14:36:19Z</time>
      </trkpt>
      <trkpt lat="43.38177" lon="6.72405">
        <ele>4.3</ele>
        <time>2023-05-16T14:36:20Z</time>
      </trkpt>
      <trkpt lat="43.38177" lon="6.72405">
        <ele>4.3</ele>
        <time>2023-05-16T14:36:21Z</time>
      </trkpt>
      <trkpt lat="43.38177" lon="6.72405">
        <ele>4.3</ele>
        <time>2023-05-16T14:36:22Z</time>
      </trkpt>
      <trkpt lat="43.38177" lon="6.72405">
        <ele>4.3</ele>
        <time>2023-05-16T14:36:23Z</time>
      </trkpt>
      <trkpt lat="43.38177" lon="6.72405">
        <ele>4.3</ele>
        <time>2023-05-16T14:36:24Z</time>
      </trkpt>
      <trkpt lat="43.38177" lon="6.72405">
        <ele>4.3</ele>
        <time>2023-05-16T14:36:25Z</time>
      </trkpt>
      <trkpt lat="43.38177" lon="6.72405">
        <ele>4.3</ele>
        <time>2023-05-16T14:36:26Z</time>
      </trkpt>
      <trkpt lat="43.38177" lon="6.72405">
        <ele>4.3</ele>
        <time>2023-05-16T14:36:27Z</time>
      </trkpt>
      <trkpt lat="43.38177" lon="6.72405">
        <ele>4.3</ele>
        <time>2023-05-16T14:36:28Z</time>
      </trkpt>
      <trkpt lat="43.38177" lon="6.72405">
        <ele>4.3</ele>
        <time>2023-05-16T14:36:29Z</time>
      </trkpt>
      <trkpt lat="43.38177" lon="6.72405">
        <ele>4.3</ele>
        <time>2023-05-16T14:36:30Z</time>
      </trkpt>
      <trkpt lat="43.38177" lon="6.72405">
        <ele>4.3</ele>
        <time>2023-05-16T14:36:31Z</time>
      </trkpt>
      <trkpt lat="43.38177" lon="6.72405">
        <ele>4.3</ele>
        <time>2023-05-16T14:36:32Z</time>
      </trkpt>
      <trkpt lat="43.38177" lon="6.72405">
        <ele>4.3</ele>
        <time>2023-05-16T14:36:33Z</time>
      </trkpt>
      <trkpt lat="43.38177" lon="6.72405">
        <ele>4.3</ele>
        <time>2023-05-16T14:36:34Z</time>
      </trkpt>
      <trkpt lat="43.38177" lon="6.72405">
        <ele>4.3</ele>
        <time>2023-05-16T14:36:35Z</time>
      </trkpt>
      <trkpt lat="43.38177" lon="6.72405">
        <ele>4.3</ele>
        <time>2023-05-16T14:36:36Z</time>
      </trkpt>
      <trkpt lat="43.38177" lon="6.72405">
        <ele>4.3</ele>
        <time>2023-05-16T14:36:37Z</time>
      </trkpt>
      <trkpt lat="43.38177" lon="6.72405">
        <ele>4.3</ele>
        <time>2023-05-16T14:36:38Z</time>
      </trkpt>
      <trkpt lat="43.38177" lon="6.72405">
        <ele>4.3</ele>
        <time>2023-05-16T14:36:39Z</time>
      </trkpt>
      <trkpt lat="43.38177" lon="6.72405">
        <ele>4.3</ele>
        <time>2023-05-16T14:36:40Z</time>
      </trkpt>
      <trkpt lat="43.38177" lon="6.72405">
        <ele>4.3</ele>
        <time>2023-05-16T14:36:41Z</time>
      </trkpt>
      <trkpt lat="43.38177" lon="6.72405">
        <ele>4.3</ele>
        <time>2023-05-16T14:36:42Z</time>
      </trkpt>
      <trkpt lat="43.38177" lon="6.72405">
        <ele>4.3</ele>
        <time>2023-05-16T14:36:43Z</time>
      </trkpt>
      <trkpt lat="43.38177" lon="6.72405">
        <ele>4.3</ele>
        <time>2023-05-16T14:36:44Z</time>
      </trkpt>
      <trkpt lat="43.38177" lon="6.72405">
        <ele>4.3</ele>
        <time>2023-05-16T14:36:45Z</time>
      </trkpt>
      <trkpt lat="43.38177" lon="6.72405">
        <ele>4.3</ele>
        <time>2023-05-16T14:36:46Z</time>
      </trkpt>
      <trkpt lat="43.38177" lon="6.72405">
        <ele>4.3</ele>
        <time>2023-05-16T14:36:47Z</time>
      </trkpt>
      <trkpt lat="43.38177" lon="6.72405">
        <ele>4.3</ele>
        <time>2023-05-16T14:36:48Z</time>
      </trkpt>
      <trkpt lat="43.38177" lon="6.72405">
        <ele>4.3</ele>
        <time>2023-05-16T14:36:49Z</time>
      </trkpt>
      <trkpt lat="43.38177" lon="6.72405">
        <ele>4.3</ele>
        <time>2023-05-16T14:36:50Z</time>
      </trkpt>
      <trkpt lat="43.38177" lon="6.72405">
        <ele>4.3</ele>
        <time>2023-05-16T14:36:51Z</time>
      </trkpt>
      <trkpt lat="43.38177" lon="6.72405">
        <ele>4.3</ele>
        <time>2023-05-16T14:36:52Z</time>
      </trkpt>
      <trkpt lat="43.38177" lon="6.72405">
        <ele>4.3</ele>
        <time>2023-05-16T14:36:53Z</time>
      </trkpt>
      <trkpt lat="43.38177" lon="6.72405">
        <ele>4.3</ele>
        <time>2023-05-16T14:36:54Z</time>
      </trkpt>
      <trkpt lat="43.38177" lon="6.72405">
        <ele>4.3</ele>
        <time>2023-05-16T14:36:55Z</time>
      </trkpt>
      <trkpt lat="43.38176" lon="6.72405">
        <ele>4.3</ele>
        <time>2023-05-16T14:36:56Z</time>
      </trkpt>
      <trkpt lat="43.38176" lon="6.72405">
        <ele>4.3</ele>
        <time>2023-05-16T14:36:57Z</time>
      </trkpt>
      <trkpt lat="43.38176" lon="6.72405">
        <ele>4.3</ele>
        <time>2023-05-16T14:36:58Z</time>
      </trkpt>
      <trkpt lat="43.38176" lon="6.72405">
        <ele>4.3</ele>
        <time>2023-05-16T14:36:59Z</time>
      </trkpt>
      <trkpt lat="43.38176" lon="6.72405">
        <ele>4.3</ele>
        <time>2023-05-16T14:37:00Z</time>
      </trkpt>
      <trkpt lat="43.38176" lon="6.72405">
        <ele>4.3</ele>
        <time>2023-05-16T14:37:01Z</time>
      </trkpt>
      <trkpt lat="43.38176" lon="6.72405">
        <ele>4.3</ele>
        <time>2023-05-16T14:37:02Z</time>
      </trkpt>
      <trkpt lat="43.38176" lon="6.72405">
        <ele>4.3</ele>
        <time>2023-05-16T14:37:03Z</time>
      </trkpt>
      <trkpt lat="43.38176" lon="6.72405">
        <ele>4.3</ele>
        <time>2023-05-16T14:37:04Z</time>
      </trkpt>
      <trkpt lat="43.38176" lon="6.72405">
        <ele>4.3</ele>
        <time>2023-05-16T14:37:05Z</time>
      </trkpt>
      <trkpt lat="43.38176" lon="6.72405">
        <ele>4.3</ele>
        <time>2023-05-16T14:37:06Z</time>
      </trkpt>
      <trkpt lat="43.38176" lon="6.72405">
        <ele>4.3</ele>
        <time>2023-05-16T14:37:07Z</time>
      </trkpt>
      <trkpt lat="43.38176" lon="6.72405">
        <ele>4.3</ele>
        <time>2023-05-16T14:37:08Z</time>
      </trkpt>
      <trkpt lat="43.38176" lon="6.72405">
        <ele>4.3</ele>
        <time>2023-05-16T14:37:09Z</time>
      </trkpt>
      <trkpt lat="43.38176" lon="6.72405">
        <ele>4.3</ele>
        <time>2023-05-16T14:37:10Z</time>
      </trkpt>
      <trkpt lat="43.38176" lon="6.72405">
        <ele>4.3</ele>
        <time>2023-05-16T14:37:11Z</time>
      </trkpt>
      <trkpt lat="43.38176" lon="6.72405">
        <ele>4.3</ele>
        <time>2023-05-16T14:37:12Z</time>
      </trkpt>
      <trkpt lat="43.38176" lon="6.72405">
        <ele>4.3</ele>
        <time>2023-05-16T14:37:13Z</time>
      </trkpt>
      <trkpt lat="43.38176" lon="6.72405">
        <ele>4.3</ele>
        <time>2023-05-16T14:37:14Z</time>
      </trkpt>
      <trkpt lat="43.38176" lon="6.72405">
        <ele>4.3</ele>
        <time>2023-05-16T14:37:15Z</time>
      </trkpt>
      <trkpt lat="43.38176" lon="6.72405">
        <ele>4.3</ele>
        <time>2023-05-16T14:37:16Z</time>
      </trkpt>
      <trkpt lat="43.38176" lon="6.72405">
        <ele>4.3</ele>
        <time>2023-05-16T14:37:17Z</time>
      </trkpt>
      <trkpt lat="43.38176" lon="6.72405">
        <ele>4.3</ele>
        <time>2023-05-16T14:37:18Z</time>
      </trkpt>
      <trkpt lat="43.38176" lon="6.72405">
        <ele>4.3</ele>
        <time>2023-05-16T14:37:19Z</time>
      </trkpt>
      <trkpt lat="43.38176" lon="6.72405">
        <ele>4.3</ele>
        <time>2023-05-16T14:37:20Z</time>
      </trkpt>
      <trkpt lat="43.38176" lon="6.72405">
        <ele>4.3</ele>
        <time>2023-05-16T14:37:21Z</time>
      </trkpt>
      <trkpt lat="43.38176" lon="6.72405">
        <ele>4.3</ele>
        <time>2023-05-16T14:37:22Z</time>
      </trkpt>
      <trkpt lat="43.38176" lon="6.72405">
        <ele>4.3</ele>
        <time>2023-05-16T14:37:23Z</time>
      </trkpt>
      <trkpt lat="43.38176" lon="6.72405">
        <ele>4.3</ele>
        <time>2023-05-16T14:37:24Z</time>
      </trkpt>
      <trkpt lat="43.38176" lon="6.72405">
        <ele>4.3</ele>
        <time>2023-05-16T14:37:25Z</time>
      </trkpt>
      <trkpt lat="43.38176" lon="6.72405">
        <ele>4.3</ele>
        <time>2023-05-16T14:37:26Z</time>
      </trkpt>
      <trkpt lat="43.38176" lon="6.72405">
        <ele>4.3</ele>
        <time>2023-05-16T14:37:27Z</time>
      </trkpt>
      <trkpt lat="43.38176" lon="6.72405">
        <ele>4.3</ele>
        <time>2023-05-16T14:37:28Z</time>
      </trkpt>
      <trkpt lat="43.38176" lon="6.72405">
        <ele>4.3</ele>
        <time>2023-05-16T14:37:29Z</time>
      </trkpt>
      <trkpt lat="43.38176" lon="6.72405">
        <ele>4.3</ele>
        <time>2023-05-16T14:37:30Z</time>
      </trkpt>
      <trkpt lat="43.38176" lon="6.72405">
        <ele>4.3</ele>
        <time>2023-05-16T14:37:31Z</time>
      </trkpt>
      <trkpt lat="43.38176" lon="6.72405">
        <ele>4.3</ele>
        <time>2023-05-16T14:37:32Z</time>
      </trkpt>
      <trkpt lat="43.38177" lon="6.72405">
        <ele>4.3</ele>
        <time>2023-05-16T14:37:33Z</time>
      </trkpt>
      <trkpt lat="43.38177" lon="6.72405">
        <ele>4.3</ele>
        <time>2023-05-16T14:37:34Z</time>
      </trkpt>
      <trkpt lat="43.38177" lon="6.72405">
        <ele>4.3</ele>
        <time>2023-05-16T14:37:35Z</time>
      </trkpt>
      <trkpt lat="43.38177" lon="6.72405">
        <ele>4.3</ele>
        <time>2023-05-16T14:37:36Z</time>
      </trkpt>
      <trkpt lat="43.38177" lon="6.72405">
        <ele>4.3</ele>
        <time>2023-05-16T14:37:37Z</time>
      </trkpt>
      <trkpt lat="43.38177" lon="6.72405">
        <ele>4.3</ele>
        <time>2023-05-16T14:37:38Z</time>
      </trkpt>
      <trkpt lat="43.38177" lon="6.72405">
        <ele>4.3</ele>
        <time>2023-05-16T14:37:39Z</time>
      </trkpt>
      <trkpt lat="43.38177" lon="6.72405">
        <ele>4.3</ele>
        <time>2023-05-16T14:37:40Z</time>
      </trkpt>
      <trkpt lat="43.38177" lon="6.72405">
        <ele>4.3</ele>
        <time>2023-05-16T14:37:41Z</time>
      </trkpt>
      <trkpt lat="43.38177" lon="6.72405">
        <ele>4.3</ele>
        <time>2023-05-16T14:37:42Z</time>
      </trkpt>
      <trkpt lat="43.38177" lon="6.72405">
        <ele>4.3</ele>
        <time>2023-05-16T14:37:43Z</time>
      </trkpt>
      <trkpt lat="43.38177" lon="6.72405">
        <ele>4.3</ele>
        <time>2023-05-16T14:37:44Z</time>
      </trkpt>
      <trkpt lat="43.38177" lon="6.72405">
        <ele>4.3</ele>
        <time>2023-05-16T14:37:45Z</time>
      </trkpt>
      <trkpt lat="43.38177" lon="6.72405">
        <ele>4.3</ele>
        <time>2023-05-16T14:37:46Z</time>
      </trkpt>
      <trkpt lat="43.38177" lon="6.72405">
        <ele>4.3</ele>
        <time>2023-05-16T14:37:47Z</time>
      </trkpt>
      <trkpt lat="43.38177" lon="6.72405">
        <ele>4.3</ele>
        <time>2023-05-16T14:37:48Z</time>
      </trkpt>
      <trkpt lat="43.38177" lon="6.72405">
        <ele>4.3</ele>
        <time>2023-05-16T14:37:49Z</time>
      </trkpt>
      <trkpt lat="43.38177" lon="6.72405">
        <ele>4.3</ele>
        <time>2023-05-16T14:37:50Z</time>
      </trkpt>
      <trkpt lat="43.38177" lon="6.72405">
        <ele>4.3</ele>
        <time>2023-05-16T14:37:51Z</time>
      </trkpt>
      <trkpt lat="43.38177" lon="6.72405">
        <ele>4.3</ele>
        <time>2023-05-16T14:37:52Z</time>
      </trkpt>
      <trkpt lat="43.38177" lon="6.72405">
        <ele>4.3</ele>
        <time>2023-05-16T14:37:53Z</time>
      </trkpt>
      <trkpt lat="43.38177" lon="6.72405">
        <ele>4.3</ele>
        <time>2023-05-16T14:37:54Z</time>
      </trkpt>
      <trkpt lat="43.38177" lon="6.72405">
        <ele>4.3</ele>
        <time>2023-05-16T14:37:55Z</time>
      </trkpt>
      <trkpt lat="43.38177" lon="6.72405">
        <ele>4.3</ele>
        <time>2023-05-16T14:37:56Z</time>
      </trkpt>
      <trkpt lat="43.38177" lon="6.72405">
        <ele>4.3</ele>
        <time>2023-05-16T14:37:57Z</time>
      </trkpt>
      <trkpt lat="43.38177" lon="6.72405">
        <ele>4.3</ele>
        <time>2023-05-16T14:37:58Z</time>
      </trkpt>
      <trkpt lat="43.38177" lon="6.72405">
        <ele>4.3</ele>
        <time>2023-05-16T14:37:59Z</time>
      </trkpt>
      <trkpt lat="43.38177" lon="6.72405">
        <ele>4.3</ele>
        <time>2023-05-16T14:38:00Z</time>
      </trkpt>
      <trkpt lat="43.38177" lon="6.72405">
        <ele>4.3</ele>
        <time>2023-05-16T14:38:01Z</time>
      </trkpt>
      <trkpt lat="43.38177" lon="6.72405">
        <ele>4.3</ele>
        <time>2023-05-16T14:38:02Z</time>
      </trkpt>
      <trkpt lat="43.38177" lon="6.72405">
        <ele>4.3</ele>
        <time>2023-05-16T14:38:03Z</time>
      </trkpt>
      <trkpt lat="43.38177" lon="6.72406">
        <ele>4.3</ele>
        <time>2023-05-16T14:38:04Z</time>
      </trkpt>
      <trkpt lat="43.38177" lon="6.72406">
        <ele>4.3</ele>
        <time>2023-05-16T14:38:05Z</time>
      </trkpt>
      <trkpt lat="43.38177" lon="6.72406">
        <ele>4.3</ele>
        <time>2023-05-16T14:38:06Z</time>
      </trkpt>
      <trkpt lat="43.38177" lon="6.72406">
        <ele>4.3</ele>
        <time>2023-05-16T14:38:07Z</time>
      </trkpt>
      <trkpt lat="43.38177" lon="6.72406">
        <ele>4.3</ele>
        <time>2023-05-16T14:38:08Z</time>
      </trkpt>
      <trkpt lat="43.38177" lon="6.72406">
        <ele>4.3</ele>
        <time>2023-05-16T14:38:09Z</time>
      </trkpt>
      <trkpt lat="43.38177" lon="6.72406">
        <ele>4.3</ele>
        <time>2023-05-16T14:38:10Z</time>
      </trkpt>
      <trkpt lat="43.38177" lon="6.72406">
        <ele>4.3</ele>
        <time>2023-05-16T14:38:11Z</time>
      </trkpt>
      <trkpt lat="43.38177" lon="6.72406">
        <ele>4.3</ele>
        <time>2023-05-16T14:38:12Z</time>
      </trkpt>
      <trkpt lat="43.38177" lon="6.72406">
        <ele>4.3</ele>
        <time>2023-05-16T14:38:13Z</time>
      </trkpt>
      <trkpt lat="43.38177" lon="6.72406">
        <ele>4.3</ele>
        <time>2023-05-16T14:38:14Z</time>
      </trkpt>
      <trkpt lat="43.38177" lon="6.72406">
        <ele>4.3</ele>
        <time>2023-05-16T14:38:15Z</time>
      </trkpt>
      <trkpt lat="43.38177" lon="6.72406">
        <ele>4.3</ele>
        <time>2023-05-16T14:38:16Z</time>
      </trkpt>
      <trkpt lat="43.38177" lon="6.72406">
        <ele>4.3</ele>
        <time>2023-05-16T14:38:17Z</time>
      </trkpt>
      <trkpt lat="43.38178" lon="6.72406">
        <ele>4.3</ele>
        <time>2023-05-16T14:38:18Z</time>
      </trkpt>
      <trkpt lat="43.38177" lon="6.72406">
        <ele>4.3</ele>
        <time>2023-05-16T14:38:19Z</time>
      </trkpt>
      <trkpt lat="43.38177" lon="6.72406">
        <ele>4.3</ele>
        <time>2023-05-16T14:38:20Z</time>
      </trkpt>
      <trkpt lat="43.38177" lon="6.72406">
        <ele>4.3</ele>
        <time>2023-05-16T14:38:21Z</time>
      </trkpt>
      <trkpt lat="43.38177" lon="6.72406">
        <ele>4.3</ele>
        <time>2023-05-16T14:38:22Z</time>
      </trkpt>
      <trkpt lat="43.38177" lon="6.72406">
        <ele>4.3</ele>
        <time>2023-05-16T14:38:23Z</time>
      </trkpt>
      <trkpt lat="43.38177" lon="6.72406">
        <ele>4.3</ele>
        <time>2023-05-16T14:38:24Z</time>
      </trkpt>
      <trkpt lat="43.38177" lon="6.72406">
        <ele>4.3</ele>
        <time>2023-05-16T14:38:25Z</time>
      </trkpt>
      <trkpt lat="43.38177" lon="6.72406">
        <ele>4.3</ele>
        <time>2023-05-16T14:38:26Z</time>
      </trkpt>
      <trkpt lat="43.38177" lon="6.72406">
        <ele>4.3</ele>
        <time>2023-05-16T14:38:27Z</time>
      </trkpt>
      <trkpt lat="43.38177" lon="6.72406">
        <ele>4.3</ele>
        <time>2023-05-16T14:38:28Z</time>
      </trkpt>
      <trkpt lat="43.38177" lon="6.72406">
        <ele>4.3</ele>
        <time>2023-05-16T14:38:29Z</time>
      </trkpt>
      <trkpt lat="43.38177" lon="6.72406">
        <ele>4.3</ele>
        <time>2023-05-16T14:38:30Z</time>
      </trkpt>
      <trkpt lat="43.38177" lon="6.72406">
        <ele>4.3</ele>
        <time>2023-05-16T14:38:31Z</time>
      </trkpt>
      <trkpt lat="43.38177" lon="6.72406">
        <ele>4.3</ele>
        <time>2023-05-16T14:38:32Z</time>
      </trkpt>
      <trkpt lat="43.38177" lon="6.72406">
        <ele>4.3</ele>
        <time>2023-05-16T14:38:33Z</time>
      </trkpt>
      <trkpt lat="43.38177" lon="6.72406">
        <ele>4.3</ele>
        <time>2023-05-16T14:38:34Z</time>
      </trkpt>
      <trkpt lat="43.38177" lon="6.72406">
        <ele>4.3</ele>
        <time>2023-05-16T14:38:35Z</time>
      </trkpt>
      <trkpt lat="43.38177" lon="6.72405">
        <ele>4.3</ele>
        <time>2023-05-16T14:38:36Z</time>
      </trkpt>
      <trkpt lat="43.38177" lon="6.72406">
        <ele>4.3</ele>
        <time>2023-05-16T14:38:37Z</time>
      </trkpt>
      <trkpt lat="43.38177" lon="6.72406">
        <ele>4.3</ele>
        <time>2023-05-16T14:38:38Z</time>
      </trkpt>
      <trkpt lat="43.38177" lon="6.72406">
        <ele>4.3</ele>
        <time>2023-05-16T14:38:39Z</time>
      </trkpt>
      <trkpt lat="43.38177" lon="6.72405">
        <ele>4.3</ele>
        <time>2023-05-16T14:38:40Z</time>
      </trkpt>
      <trkpt lat="43.38177" lon="6.72405">
        <ele>4.3</ele>
        <time>2023-05-16T14:38:41Z</time>
      </trkpt>
      <trkpt lat="43.38177" lon="6.72405">
        <ele>4.3</ele>
        <time>2023-05-16T14:38:42Z</time>
      </trkpt>
      <trkpt lat="43.38177" lon="6.72405">
        <ele>4.3</ele>
        <time>2023-05-16T14:38:43Z</time>
      </trkpt>
      <trkpt lat="43.38178" lon="6.72405">
        <ele>4.3</ele>
        <time>2023-05-16T14:38:44Z</time>
      </trkpt>
      <trkpt lat="43.38177" lon="6.72405">
        <ele>4.3</ele>
        <time>2023-05-16T14:38:45Z</time>
      </trkpt>
      <trkpt lat="43.38177" lon="6.72405">
        <ele>4.3</ele>
        <time>2023-05-16T14:38:46Z</time>
      </trkpt>
      <trkpt lat="43.38177" lon="6.72405">
        <ele>4.3</ele>
        <time>2023-05-16T14:38:47Z</time>
      </trkpt>
      <trkpt lat="43.38177" lon="6.72405">
        <ele>4.3</ele>
        <time>2023-05-16T14:38:48Z</time>
      </trkpt>
      <trkpt lat="43.38178" lon="6.72405">
        <ele>4.3</ele>
        <time>2023-05-16T14:38:49Z</time>
      </trkpt>
      <trkpt lat="43.38178" lon="6.72406">
        <ele>4.3</ele>
        <time>2023-05-16T14:38:50Z</time>
      </trkpt>
      <trkpt lat="43.38178" lon="6.72406">
        <ele>4.3</ele>
        <time>2023-05-16T14:38:51Z</time>
      </trkpt>
      <trkpt lat="43.38178" lon="6.72406">
        <ele>4.3</ele>
        <time>2023-05-16T14:38:52Z</time>
      </trkpt>
      <trkpt lat="43.38178" lon="6.72406">
        <ele>4.3</ele>
        <time>2023-05-16T14:38:53Z</time>
      </trkpt>
      <trkpt lat="43.38178" lon="6.72406">
        <ele>4.3</ele>
        <time>2023-05-16T14:38:54Z</time>
      </trkpt>
      <trkpt lat="43.38178" lon="6.72406">
        <ele>4.3</ele>
        <time>2023-05-16T14:38:55Z</time>
      </trkpt>
      <trkpt lat="43.38178" lon="6.72406">
        <ele>4.3</ele>
        <time>2023-05-16T14:38:56Z</time>
      </trkpt>
      <trkpt lat="43.38178" lon="6.72406">
        <ele>4.3</ele>
        <time>2023-05-16T14:38:57Z</time>
      </trkpt>
      <trkpt lat="43.38178" lon="6.72406">
        <ele>4.3</ele>
        <time>2023-05-16T14:38:58Z</time>
      </trkpt>
      <trkpt lat="43.38178" lon="6.72406">
        <ele>4.3</ele>
        <time>2023-05-16T14:38:59Z</time>
      </trkpt>
      <trkpt lat="43.38178" lon="6.72406">
        <ele>4.3</ele>
        <time>2023-05-16T14:39:00Z</time>
      </trkpt>
      <trkpt lat="43.38178" lon="6.72406">
        <ele>4.3</ele>
        <time>2023-05-16T14:39:01Z</time>
      </trkpt>
      <trkpt lat="43.38178" lon="6.72406">
        <ele>4.3</ele>
        <time>2023-05-16T14:39:02Z</time>
      </trkpt>
      <trkpt lat="43.38178" lon="6.72406">
        <ele>4.3</ele>
        <time>2023-05-16T14:39:03Z</time>
      </trkpt>
      <trkpt lat="43.38178" lon="6.72406">
        <ele>4.3</ele>
        <time>2023-05-16T14:39:04Z</time>
      </trkpt>
      <trkpt lat="43.38178" lon="6.72406">
        <ele>4.3</ele>
        <time>2023-05-16T14:39:05Z</time>
      </trkpt>
      <trkpt lat="43.38178" lon="6.72406">
        <ele>4.3</ele>
        <time>2023-05-16T14:39:06Z</time>
      </trkpt>
      <trkpt lat="43.38178" lon="6.72406">
        <ele>4.3</ele>
        <time>2023-05-16T14:39:07Z</time>
      </trkpt>
      <trkpt lat="43.38178" lon="6.72406">
        <ele>4.3</ele>
        <time>2023-05-16T14:39:08Z</time>
      </trkpt>
      <trkpt lat="43.38178" lon="6.72406">
        <ele>4.3</ele>
        <time>2023-05-16T14:39:09Z</time>
      </trkpt>
      <trkpt lat="43.38178" lon="6.72406">
        <ele>4.3</ele>
        <time>2023-05-16T14:39:10Z</time>
      </trkpt>
      <trkpt lat="43.38178" lon="6.72405">
        <ele>4.3</ele>
        <time>2023-05-16T14:39:11Z</time>
      </trkpt>
      <trkpt lat="43.38178" lon="6.72405">
        <ele>4.3</ele>
        <time>2023-05-16T14:39:12Z</time>
      </trkpt>
      <trkpt lat="43.38178" lon="6.72405">
        <ele>4.3</ele>
        <time>2023-05-16T14:39:13Z</time>
      </trkpt>
      <trkpt lat="43.38178" lon="6.72405">
        <ele>4.3</ele>
        <time>2023-05-16T14:39:14Z</time>
      </trkpt>
      <trkpt lat="43.38178" lon="6.72405">
        <ele>4.3</ele>
        <time>2023-05-16T14:39:15Z</time>
      </trkpt>
      <trkpt lat="43.38178" lon="6.72405">
        <ele>4.3</ele>
        <time>2023-05-16T14:39:16Z</time>
      </trkpt>
      <trkpt lat="43.38178" lon="6.72405">
        <ele>4.3</ele>
        <time>2023-05-16T14:39:17Z</time>
      </trkpt>
      <trkpt lat="43.38178" lon="6.72405">
        <ele>4.3</ele>
        <time>2023-05-16T14:39:18Z</time>
      </trkpt>
      <trkpt lat="43.38178" lon="6.72405">
        <ele>4.3</ele>
        <time>2023-05-16T14:39:19Z</time>
      </trkpt>
      <trkpt lat="43.38177" lon="6.72404">
        <ele>4.3</ele>
        <time>2023-05-16T14:39:20Z</time>
      </trkpt>
      <trkpt lat="43.38177" lon="6.72404">
        <ele>4.3</ele>
        <time>2023-05-16T14:39:21Z</time>
      </trkpt>
      <trkpt lat="43.38177" lon="6.72404">
        <ele>4.3</ele>
        <time>2023-05-16T14:39:22Z</time>
      </trkpt>
      <trkpt lat="43.38177" lon="6.72404">
        <ele>4.3</ele>
        <time>2023-05-16T14:39:23Z</time>
      </trkpt>
      <trkpt lat="43.38177" lon="6.72404">
        <ele>4.3</ele>
        <time>2023-05-16T14:39:24Z</time>
      </trkpt>
      <trkpt lat="43.38177" lon="6.72404">
        <ele>4.3</ele>
        <time>2023-05-16T14:39:25Z</time>
      </trkpt>
      <trkpt lat="43.38177" lon="6.72404">
        <ele>4.3</ele>
        <time>2023-05-16T14:39:26Z</time>
      </trkpt>
      <trkpt lat="43.38177" lon="6.72404">
        <ele>4.3</ele>
        <time>2023-05-16T14:39:27Z</time>
      </trkpt>
      <trkpt lat="43.38177" lon="6.72404">
        <ele>4.3</ele>
        <time>2023-05-16T14:39:28Z</time>
      </trkpt>
      <trkpt lat="43.38177" lon="6.72404">
        <ele>4.3</ele>
        <time>2023-05-16T14:39:29Z</time>
      </trkpt>
      <trkpt lat="43.38177" lon="6.72404">
        <ele>4.3</ele>
        <time>2023-05-16T14:39:30Z</time>
      </trkpt>
      <trkpt lat="43.38176" lon="6.72404">
        <ele>4.3</ele>
        <time>2023-05-16T14:39:31Z</time>
      </trkpt>
      <trkpt lat="43.38176" lon="6.72404">
        <ele>4.3</ele>
        <time>2023-05-16T14:39:32Z</time>
      </trkpt>
      <trkpt lat="43.38175" lon="6.72404">
        <ele>4.3</ele>
        <time>2023-05-16T14:39:33Z</time>
      </trkpt>
      <trkpt lat="43.38175" lon="6.72404">
        <ele>4.3</ele>
        <time>2023-05-16T14:39:34Z</time>
      </trkpt>
      <trkpt lat="43.38175" lon="6.72404">
        <ele>4.3</ele>
        <time>2023-05-16T14:39:35Z</time>
      </trkpt>
      <trkpt lat="43.38175" lon="6.72403">
        <ele>4.3</ele>
        <time>2023-05-16T14:39:36Z</time>
      </trkpt>
      <trkpt lat="43.38175" lon="6.72403">
        <ele>4.3</ele>
        <time>2023-05-16T14:39:37Z</time>
      </trkpt>
      <trkpt lat="43.38175" lon="6.72403">
        <ele>4.3</ele>
        <time>2023-05-16T14:39:38Z</time>
      </trkpt>
      <trkpt lat="43.38175" lon="6.72403">
        <ele>4.3</ele>
        <time>2023-05-16T14:39:39Z</time>
      </trkpt>
      <trkpt lat="43.38175" lon="6.72403">
        <ele>4.3</ele>
        <time>2023-05-16T14:39:40Z</time>
      </trkpt>
      <trkpt lat="43.38175" lon="6.72403">
        <ele>4.3</ele>
        <time>2023-05-16T14:39:41Z</time>
      </trkpt>
      <trkpt lat="43.38175" lon="6.72402">
        <ele>4.3</ele>
        <time>2023-05-16T14:39:42Z</time>
      </trkpt>
      <trkpt lat="43.38175" lon="6.72402">
        <ele>4.3</ele>
        <time>2023-05-16T14:39:43Z</time>
      </trkpt>
      <trkpt lat="43.38174" lon="6.72402">
        <ele>4.3</ele>
        <time>2023-05-16T14:39:44Z</time>
      </trkpt>
      <trkpt lat="43.38174" lon="6.72402">
        <ele>4.3</ele>
        <time>2023-05-16T14:39:45Z</time>
      </trkpt>
      <trkpt lat="43.38174" lon="6.72402">
        <ele>4.3</ele>
        <time>2023-05-16T14:39:46Z</time>
      </trkpt>
      <trkpt lat="43.38174" lon="6.72401">
        <ele>4.3</ele>
        <time>2023-05-16T14:39:47Z</time>
      </trkpt>
      <trkpt lat="43.38174" lon="6.72401">
        <ele>4.3</ele>
        <time>2023-05-16T14:39:48Z</time>
      </trkpt>
      <trkpt lat="43.38174" lon="6.72401">
        <ele>4.3</ele>
        <time>2023-05-16T14:39:49Z</time>
      </trkpt>
      <trkpt lat="43.38174" lon="6.72401">
        <ele>4.3</ele>
        <time>2023-05-16T14:39:50Z</time>
      </trkpt>
      <trkpt lat="43.38174" lon="6.72401">
        <ele>4.3</ele>
        <time>2023-05-16T14:39:51Z</time>
      </trkpt>
      <trkpt lat="43.38174" lon="6.724">
        <ele>4.3</ele>
        <time>2023-05-16T14:39:52Z</time>
      </trkpt>
      <trkpt lat="43.38174" lon="6.724">
        <ele>4.3</ele>
        <time>2023-05-16T14:39:53Z</time>
      </trkpt>
      <trkpt lat="43.38174" lon="6.724">
        <ele>4.3</ele>
        <time>2023-05-16T14:39:54Z</time>
      </trkpt>
      <trkpt lat="43.38173" lon="6.724">
        <ele>4.3</ele>
        <time>2023-05-16T14:39:55Z</time>
      </trkpt>
      <trkpt lat="43.38172" lon="6.72398">
        <ele>4.3</ele>
        <time>2023-05-16T14:39:56Z</time>
      </trkpt>
      <trkpt lat="43.38172" lon="6.72398">
        <ele>4.3</ele>
        <time>2023-05-16T14:39:57Z</time>
      </trkpt>
      <trkpt lat="43.38172" lon="6.72397">
        <ele>4.3</ele>
        <time>2023-05-16T14:39:58Z</time>
      </trkpt>
      <trkpt lat="43.38172" lon="6.72396">
        <ele>4.4</ele>
        <time>2023-05-16T14:39:59Z</time>
      </trkpt>
      <trkpt lat="43.38171" lon="6.72395">
        <ele>4.4</ele>
        <time>2023-05-16T14:40:00Z</time>
      </trkpt>
      <trkpt lat="43.3817" lon="6.72393">
        <ele>4.4</ele>
        <time>2023-05-16T14:40:01Z</time>
      </trkpt>
      <trkpt lat="43.38169" lon="6.72391">
        <ele>4.4</ele>
        <time>2023-05-16T14:40:02Z</time>
      </trkpt>
      <trkpt lat="43.38169" lon="6.7239">
        <ele>4.4</ele>
        <time>2023-05-16T14:40:03Z</time>
      </trkpt>
      <trkpt lat="43.38169" lon="6.72389">
        <ele>4.4</ele>
        <time>2023-05-16T14:40:04Z</time>
      </trkpt>
      <trkpt lat="43.38168" lon="6.72389">
        <ele>4.4</ele>
        <time>2023-05-16T14:40:05Z</time>
      </trkpt>
      <trkpt lat="43.38168" lon="6.72387">
        <ele>4.4</ele>
        <time>2023-05-16T14:40:06Z</time>
      </trkpt>
      <trkpt lat="43.38167" lon="6.72386">
        <ele>4.4</ele>
        <time>2023-05-16T14:40:07Z</time>
      </trkpt>
      <trkpt lat="43.38166" lon="6.72385">
        <ele>4.4</ele>
        <time>2023-05-16T14:40:08Z</time>
      </trkpt>
      <trkpt lat="43.38166" lon="6.72384">
        <ele>4.4</ele>
        <time>2023-05-16T14:40:09Z</time>
      </trkpt>
      <trkpt lat="43.38166" lon="6.72383">
        <ele>4.4</ele>
        <time>2023-05-16T14:40:10Z</time>
      </trkpt>
      <trkpt lat="43.38165" lon="6.72382">
        <ele>4.4</ele>
        <time>2023-05-16T14:40:11Z</time>
      </trkpt>
      <trkpt lat="43.38164" lon="6.7238">
        <ele>4.4</ele>
        <time>2023-05-16T14:40:12Z</time>
      </trkpt>
      <trkpt lat="43.38164" lon="6.7238">
        <ele>4.4</ele>
        <time>2023-05-16T14:40:13Z</time>
      </trkpt>
      <trkpt lat="43.38163" lon="6.72379">
        <ele>4.4</ele>
        <time>2023-05-16T14:40:14Z</time>
      </trkpt>
      <trkpt lat="43.38163" lon="6.72378">
        <ele>4.4</ele>
        <time>2023-05-16T14:40:15Z</time>
      </trkpt>
      <trkpt lat="43.38163" lon="6.72377">
        <ele>4.4</ele>
        <time>2023-05-16T14:40:16Z</time>
      </trkpt>
      <trkpt lat="43.38162" lon="6.72377">
        <ele>4.5</ele>
        <time>2023-05-16T14:40:17Z</time>
      </trkpt>
      <trkpt lat="43.38162" lon="6.72376">
        <ele>4.5</ele>
        <time>2023-05-16T14:40:18Z</time>
      </trkpt>
      <trkpt lat="43.38162" lon="6.72375">
        <ele>4.5</ele>
        <time>2023-05-16T14:40:19Z</time>
      </trkpt>
      <trkpt lat="43.38162" lon="6.72373">
        <ele>4.5</ele>
        <time>2023-05-16T14:40:20Z</time>
      </trkpt>
      <trkpt lat="43.38161" lon="6.72372">
        <ele>4.5</ele>
        <time>2023-05-16T14:40:21Z</time>
      </trkpt>
      <trkpt lat="43.3816" lon="6.72371">
        <ele>4.4</ele>
        <time>2023-05-16T14:40:22Z</time>
      </trkpt>
      <trkpt lat="43.38159" lon="6.7237">
        <ele>4.5</ele>
        <time>2023-05-16T14:40:23Z</time>
      </trkpt>
      <trkpt lat="43.38159" lon="6.72369">
        <ele>4.5</ele>
        <time>2023-05-16T14:40:24Z</time>
      </trkpt>
      <trkpt lat="43.38159" lon="6.72369">
        <ele>4.5</ele>
        <time>2023-05-16T14:40:25Z</time>
      </trkpt>
      <trkpt lat="43.38158" lon="6.72368">
        <ele>4.5</ele>
        <time>2023-05-16T14:40:26Z</time>
      </trkpt>
      <trkpt lat="43.38157" lon="6.72366">
        <ele>4.5</ele>
        <time>2023-05-16T14:40:27Z</time>
      </trkpt>
      <trkpt lat="43.38157" lon="6.72364">
        <ele>4.5</ele>
        <time>2023-05-16T14:40:28Z</time>
      </trkpt>
      <trkpt lat="43.38156" lon="6.72363">
        <ele>4.5</ele>
        <time>2023-05-16T14:40:30Z</time>
      </trkpt>
      <trkpt lat="43.38155" lon="6.72363">
        <ele>4.5</ele>
        <time>2023-05-16T14:40:31Z</time>
      </trkpt>
      <trkpt lat="43.38154" lon="6.72361">
        <ele>4.6</ele>
        <time>2023-05-16T14:40:32Z</time>
      </trkpt>
      <trkpt lat="43.38153" lon="6.7236">
        <ele>4.6</ele>
        <time>2023-05-16T14:40:33Z</time>
      </trkpt>
      <trkpt lat="43.38152" lon="6.72359">
        <ele>4.6</ele>
        <time>2023-05-16T14:40:34Z</time>
      </trkpt>
      <trkpt lat="43.38151" lon="6.72358">
        <ele>4.6</ele>
        <time>2023-05-16T14:40:35Z</time>
      </trkpt>
      <trkpt lat="43.38151" lon="6.72357">
        <ele>4.6</ele>
        <time>2023-05-16T14:40:36Z</time>
      </trkpt>
      <trkpt lat="43.3815" lon="6.72355">
        <ele>4.7</ele>
        <time>2023-05-16T14:40:37Z</time>
      </trkpt>
      <trkpt lat="43.3815" lon="6.72354">
        <ele>4.7</ele>
        <time>2023-05-16T14:40:38Z</time>
      </trkpt>
      <trkpt lat="43.3815" lon="6.72353">
        <ele>4.7</ele>
        <time>2023-05-16T14:40:40Z</time>
      </trkpt>
      <trkpt lat="43.38149" lon="6.72352">
        <ele>4.7</ele>
        <time>2023-05-16T14:40:41Z</time>
      </trkpt>
      <trkpt lat="43.38149" lon="6.72352">
        <ele>4.7</ele>
        <time>2023-05-16T14:40:42Z</time>
      </trkpt>
      <trkpt lat="43.38148" lon="6.72351">
        <ele>4.8</ele>
        <time>2023-05-16T14:40:43Z</time>
      </trkpt>
      <trkpt lat="43.38147" lon="6.7235">
        <ele>4.8</ele>
        <time>2023-05-16T14:40:44Z</time>
      </trkpt>
      <trkpt lat="43.38146" lon="6.72348">
        <ele>4.8</ele>
        <time>2023-05-16T14:40:45Z</time>
      </trkpt>
      <trkpt lat="43.38146" lon="6.72348">
        <ele>4.8</ele>
        <time>2023-05-16T14:40:46Z</time>
      </trkpt>
      <trkpt lat="43.38145" lon="6.72347">
        <ele>4.9</ele>
        <time>2023-05-16T14:40:47Z</time>
      </trkpt>
      <trkpt lat="43.38144" lon="6.72346">
        <ele>4.9</ele>
        <time>2023-05-16T14:40:49Z</time>
      </trkpt>
      <trkpt lat="43.38143" lon="6.72345">
        <ele>4.9</ele>
        <time>2023-05-16T14:40:50Z</time>
      </trkpt>
      <trkpt lat="43.38142" lon="6.72345">
        <ele>4.9</ele>
        <time>2023-05-16T14:40:51Z</time>
      </trkpt>
      <trkpt lat="43.38142" lon="6.72344">
        <ele>5</ele>
        <time>2023-05-16T14:40:52Z</time>
      </trkpt>
      <trkpt lat="43.38141" lon="6.72343">
        <ele>5</ele>
        <time>2023-05-16T14:40:53Z</time>
      </trkpt>
      <trkpt lat="43.3814" lon="6.72342">
        <ele>5.1</ele>
        <time>2023-05-16T14:40:54Z</time>
      </trkpt>
      <trkpt lat="43.3814" lon="6.72341">
        <ele>5.1</ele>
        <time>2023-05-16T14:40:56Z</time>
      </trkpt>
      <trkpt lat="43.38139" lon="6.7234">
        <ele>5.1</ele>
        <time>2023-05-16T14:40:57Z</time>
      </trkpt>
      <trkpt lat="43.38139" lon="6.72339">
        <ele>5.1</ele>
        <time>2023-05-16T14:40:58Z</time>
      </trkpt>
      <trkpt lat="43.38138" lon="6.72337">
        <ele>5.1</ele>
        <time>2023-05-16T14:40:59Z</time>
      </trkpt>
      <trkpt lat="43.38138" lon="6.72336">
        <ele>5.1</ele>
        <time>2023-05-16T14:41:00Z</time>
      </trkpt>
      <trkpt lat="43.38137" lon="6.72334">
        <ele>5.1</ele>
        <time>2023-05-16T14:41:01Z</time>
      </trkpt>
      <trkpt lat="43.38137" lon="6.72333">
        <ele>5.1</ele>
        <time>2023-05-16T14:41:02Z</time>
      </trkpt>
      <trkpt lat="43.38137" lon="6.72332">
        <ele>5.1</ele>
        <time>2023-05-16T14:41:03Z</time>
      </trkpt>
      <trkpt lat="43.38136" lon="6.7233">
        <ele>5.1</ele>
        <time>2023-05-16T14:41:04Z</time>
      </trkpt>
      <trkpt lat="43.38135" lon="6.72329">
        <ele>5.1</ele>
        <time>2023-05-16T14:41:05Z</time>
      </trkpt>
      <trkpt lat="43.38135" lon="6.72329">
        <ele>5.1</ele>
        <time>2023-05-16T14:41:07Z</time>
      </trkpt>
      <trkpt lat="43.38134" lon="6.72328">
        <ele>5.1</ele>
        <time>2023-05-16T14:41:08Z</time>
      </trkpt>
      <trkpt lat="43.38133" lon="6.72328">
        <ele>5.1</ele>
        <time>2023-05-16T14:41:09Z</time>
      </trkpt>
      <trkpt lat="43.38132" lon="6.72327">
        <ele>5.1</ele>
        <time>2023-05-16T14:41:10Z</time>
      </trkpt>
      <trkpt lat="43.38131" lon="6.72327">
        <ele>5.1</ele>
        <time>2023-05-16T14:41:11Z</time>
      </trkpt>
      <trkpt lat="43.3813" lon="6.72326">
        <ele>5.1</ele>
        <time>2023-05-16T14:41:13Z</time>
      </trkpt>
      <trkpt lat="43.38129" lon="6.72326">
        <ele>5.1</ele>
        <time>2023-05-16T14:41:14Z</time>
      </trkpt>
      <trkpt lat="43.38128" lon="6.72324">
        <ele>5.1</ele>
        <time>2023-05-16T14:41:15Z</time>
      </trkpt>
      <trkpt lat="43.38128" lon="6.72324">
        <ele>5.1</ele>
        <time>2023-05-16T14:41:16Z</time>
      </trkpt>
      <trkpt lat="43.38127" lon="6.72324">
        <ele>5.1</ele>
        <time>2023-05-16T14:41:17Z</time>
      </trkpt>
      <trkpt lat="43.38126" lon="6.72324">
        <ele>5.1</ele>
        <time>2023-05-16T14:41:18Z</time>
      </trkpt>
      <trkpt lat="43.38125" lon="6.72323">
        <ele>5.1</ele>
        <time>2023-05-16T14:41:19Z</time>
      </trkpt>
      <trkpt lat="43.38123" lon="6.72322">
        <ele>5.1</ele>
        <time>2023-05-16T14:41:21Z</time>
      </trkpt>
      <trkpt lat="43.38123" lon="6.72321">
        <ele>5.1</ele>
        <time>2023-05-16T14:41:22Z</time>
      </trkpt>
      <trkpt lat="43.38122" lon="6.72321">
        <ele>5.1</ele>
        <time>2023-05-16T14:41:23Z</time>
      </trkpt>
      <trkpt lat="43.38122" lon="6.72321">
        <ele>5.1</ele>
        <time>2023-05-16T14:41:24Z</time>
      </trkpt>
      <trkpt lat="43.38121" lon="6.72319">
        <ele>5.1</ele>
        <time>2023-05-16T14:41:25Z</time>
      </trkpt>
      <trkpt lat="43.3812" lon="6.72319">
        <ele>5.1</ele>
        <time>2023-05-16T14:41:26Z</time>
      </trkpt>
      <trkpt lat="43.38119" lon="6.72318">
        <ele>5.1</ele>
        <time>2023-05-16T14:41:27Z</time>
      </trkpt>
      <trkpt lat="43.38119" lon="6.72317">
        <ele>5.1</ele>
        <time>2023-05-16T14:41:29Z</time>
      </trkpt>
      <trkpt lat="43.38118" lon="6.72316">
        <ele>5.1</ele>
        <time>2023-05-16T14:41:30Z</time>
      </trkpt>
      <trkpt lat="43.38117" lon="6.72315">
        <ele>5.1</ele>
        <time>2023-05-16T14:41:31Z</time>
      </trkpt>
      <trkpt lat="43.38117" lon="6.72314">
        <ele>5.1</ele>
        <time>2023-05-16T14:41:32Z</time>
      </trkpt>
      <trkpt lat="43.38115" lon="6.72313">
        <ele>5.1</ele>
        <time>2023-05-16T14:41:33Z</time>
      </trkpt>
      <trkpt lat="43.38115" lon="6.72313">
        <ele>5.1</ele>
        <time>2023-05-16T14:41:34Z</time>
      </trkpt>
      <trkpt lat="43.38114" lon="6.72311">
        <ele>5.1</ele>
        <time>2023-05-16T14:41:36Z</time>
      </trkpt>
      <trkpt lat="43.38113" lon="6.72311">
        <ele>5.1</ele>
        <time>2023-05-16T14:41:37Z</time>
      </trkpt>
      <trkpt lat="43.38112" lon="6.72311">
        <ele>5.1</ele>
        <time>2023-05-16T14:41:38Z</time>
      </trkpt>
      <trkpt lat="43.38111" lon="6.72312">
        <ele>5.1</ele>
        <time>2023-05-16T14:41:39Z</time>
      </trkpt>
      <trkpt lat="43.38109" lon="6.72312">
        <ele>5.1</ele>
        <time>2023-05-16T14:41:40Z</time>
      </trkpt>
      <trkpt lat="43.38108" lon="6.72312">
        <ele>5.1</ele>
        <time>2023-05-16T14:41:41Z</time>
      </trkpt>
      <trkpt lat="43.38108" lon="6.72312">
        <ele>5.1</ele>
        <time>2023-05-16T14:41:43Z</time>
      </trkpt>
      <trkpt lat="43.38107" lon="6.72312">
        <ele>5.1</ele>
        <time>2023-05-16T14:41:44Z</time>
      </trkpt>
      <trkpt lat="43.38106" lon="6.72312">
        <ele>5.1</ele>
        <time>2023-05-16T14:41:45Z</time>
      </trkpt>
      <trkpt lat="43.38105" lon="6.72314">
        <ele>5.1</ele>
        <time>2023-05-16T14:41:46Z</time>
      </trkpt>
      <trkpt lat="43.38104" lon="6.72316">
        <ele>5.1</ele>
        <time>2023-05-16T14:41:47Z</time>
      </trkpt>
      <trkpt lat="43.38104" lon="6.72317">
        <ele>5.1</ele>
        <time>2023-05-16T14:41:49Z</time>
      </trkpt>
      <trkpt lat="43.38103" lon="6.72319">
        <ele>5.1</ele>
        <time>2023-05-16T14:41:50Z</time>
      </trkpt>
      <trkpt lat="43.38103" lon="6.72321">
        <ele>5.1</ele>
        <time>2023-05-16T14:41:51Z</time>
      </trkpt>
      <trkpt lat="43.38102" lon="6.72321">
        <ele>5.1</ele>
        <time>2023-05-16T14:41:52Z</time>
      </trkpt>
      <trkpt lat="43.38101" lon="6.72321">
        <ele>5</ele>
        <time>2023-05-16T14:41:53Z</time>
      </trkpt>
      <trkpt lat="43.38099" lon="6.72321">
        <ele>5</ele>
        <time>2023-05-16T14:41:55Z</time>
      </trkpt>
      <trkpt lat="43.38098" lon="6.7232">
        <ele>5</ele>
        <time>2023-05-16T14:41:56Z</time>
      </trkpt>
      <trkpt lat="43.38098" lon="6.72319">
        <ele>5</ele>
        <time>2023-05-16T14:41:57Z</time>
      </trkpt>
      <trkpt lat="43.38097" lon="6.72318">
        <ele>5</ele>
        <time>2023-05-16T14:41:58Z</time>
      </trkpt>
      <trkpt lat="43.38097" lon="6.72317">
        <ele>5</ele>
        <time>2023-05-16T14:41:59Z</time>
      </trkpt>
      <trkpt lat="43.38096" lon="6.72315">
        <ele>5</ele>
        <time>2023-05-16T14:42:00Z</time>
      </trkpt>
      <trkpt lat="43.38096" lon="6.72315">
        <ele>5</ele>
        <time>2023-05-16T14:42:01Z</time>
      </trkpt>
      <trkpt lat="43.38094" lon="6.72315">
        <ele>5</ele>
        <time>2023-05-16T14:42:03Z</time>
      </trkpt>
      <trkpt lat="43.38094" lon="6.72314">
        <ele>5</ele>
        <time>2023-05-16T14:42:04Z</time>
      </trkpt>
      <trkpt lat="43.38093" lon="6.72314">
        <ele>5</ele>
        <time>2023-05-16T14:42:06Z</time>
      </trkpt>
      <trkpt lat="43.38093" lon="6.72314">
        <ele>5</ele>
        <time>2023-05-16T14:42:07Z</time>
      </trkpt>
      <trkpt lat="43.38093" lon="6.72313">
        <ele>5</ele>
        <time>2023-05-16T14:42:08Z</time>
      </trkpt>
      <trkpt lat="43.38092" lon="6.72313">
        <ele>5</ele>
        <time>2023-05-16T14:42:09Z</time>
      </trkpt>
      <trkpt lat="43.38092" lon="6.72313">
        <ele>5</ele>
        <time>2023-05-16T14:42:10Z</time>
      </trkpt>
      <trkpt lat="43.38092" lon="6.72312">
        <ele>5</ele>
        <time>2023-05-16T14:42:11Z</time>
      </trkpt>
      <trkpt lat="43.38091" lon="6.72311">
        <ele>5</ele>
        <time>2023-05-16T14:42:13Z</time>
      </trkpt>
      <trkpt lat="43.3809" lon="6.7231">
        <ele>5</ele>
        <time>2023-05-16T14:42:14Z</time>
      </trkpt>
      <trkpt lat="43.38089" lon="6.7231">
        <ele>5</ele>
        <time>2023-05-16T14:42:15Z</time>
      </trkpt>
      <trkpt lat="43.38088" lon="6.7231">
        <ele>5</ele>
        <time>2023-05-16T14:42:16Z</time>
      </trkpt>
      <trkpt lat="43.38088" lon="6.7231">
        <ele>5</ele>
        <time>2023-05-16T14:42:17Z</time>
      </trkpt>
      <trkpt lat="43.38087" lon="6.7231">
        <ele>5</ele>
        <time>2023-05-16T14:42:19Z</time>
      </trkpt>
      <trkpt lat="43.38087" lon="6.7231">
        <ele>5</ele>
        <time>2023-05-16T14:42:20Z</time>
      </trkpt>
      <trkpt lat="43.38087" lon="6.72311">
        <ele>5</ele>
        <time>2023-05-16T14:42:21Z</time>
      </trkpt>
      <trkpt lat="43.38086" lon="6.72311">
        <ele>5</ele>
        <time>2023-05-16T14:42:22Z</time>
      </trkpt>
      <trkpt lat="43.38085" lon="6.7231">
        <ele>5</ele>
        <time>2023-05-16T14:42:23Z</time>
      </trkpt>
      <trkpt lat="43.38084" lon="6.72309">
        <ele>5</ele>
        <time>2023-05-16T14:42:24Z</time>
      </trkpt>
      <trkpt lat="43.38084" lon="6.72307">
        <ele>5</ele>
        <time>2023-05-16T14:42:26Z</time>
      </trkpt>
      <trkpt lat="43.38084" lon="6.72306">
        <ele>5</ele>
        <time>2023-05-16T14:42:27Z</time>
      </trkpt>
      <trkpt lat="43.38084" lon="6.72304">
        <ele>5</ele>
        <time>2023-05-16T14:42:28Z</time>
      </trkpt>
      <trkpt lat="43.38083" lon="6.72303">
        <ele>5</ele>
        <time>2023-05-16T14:42:29Z</time>
      </trkpt>
      <trkpt lat="43.38083" lon="6.72301">
        <ele>5</ele>
        <time>2023-05-16T14:42:30Z</time>
      </trkpt>
      <trkpt lat="43.38083" lon="6.72299">
        <ele>5</ele>
        <time>2023-05-16T14:42:31Z</time>
      </trkpt>
      <trkpt lat="43.38083" lon="6.72298">
        <ele>5</ele>
        <time>2023-05-16T14:42:33Z</time>
      </trkpt>
      <trkpt lat="43.38083" lon="6.72296">
        <ele>5</ele>
        <time>2023-05-16T14:42:34Z</time>
      </trkpt>
      <trkpt lat="43.38083" lon="6.72295">
        <ele>5</ele>
        <time>2023-05-16T14:42:35Z</time>
      </trkpt>
      <trkpt lat="43.38082" lon="6.72293">
        <ele>5</ele>
        <time>2023-05-16T14:42:36Z</time>
      </trkpt>
      <trkpt lat="43.38081" lon="6.72292">
        <ele>5</ele>
        <time>2023-05-16T14:42:38Z</time>
      </trkpt>
      <trkpt lat="43.3808" lon="6.72291">
        <ele>5</ele>
        <time>2023-05-16T14:42:40Z</time>
      </trkpt>
      <trkpt lat="43.38079" lon="6.7229">
        <ele>5</ele>
        <time>2023-05-16T14:42:41Z</time>
      </trkpt>
      <trkpt lat="43.38078" lon="6.7229">
        <ele>5</ele>
        <time>2023-05-16T14:42:42Z</time>
      </trkpt>
      <trkpt lat="43.38077" lon="6.7229">
        <ele>5</ele>
        <time>2023-05-16T14:42:43Z</time>
      </trkpt>
      <trkpt lat="43.38076" lon="6.72289">
        <ele>5</ele>
        <time>2023-05-16T14:42:45Z</time>
      </trkpt>
      <trkpt lat="43.38076" lon="6.72289">
        <ele>5</ele>
        <time>2023-05-16T14:42:46Z</time>
      </trkpt>
      <trkpt lat="43.38075" lon="6.72288">
        <ele>5</ele>
        <time>2023-05-16T14:42:47Z</time>
      </trkpt>
      <trkpt lat="43.38074" lon="6.72288">
        <ele>5</ele>
        <time>2023-05-16T14:42:48Z</time>
      </trkpt>
      <trkpt lat="43.38073" lon="6.72288">
        <ele>5</ele>
        <time>2023-05-16T14:42:50Z</time>
      </trkpt>
      <trkpt lat="43.38073" lon="6.72288">
        <ele>5</ele>
        <time>2023-05-16T14:42:51Z</time>
      </trkpt>
      <trkpt lat="43.38073" lon="6.72289">
        <ele>5</ele>
        <time>2023-05-16T14:42:52Z</time>
      </trkpt>
      <trkpt lat="43.38073" lon="6.72289">
        <ele>5</ele>
        <time>2023-05-16T14:42:53Z</time>
      </trkpt>
      <trkpt lat="43.38073" lon="6.7229">
        <ele>5</ele>
        <time>2023-05-16T14:42:54Z</time>
      </trkpt>
      <trkpt lat="43.38072" lon="6.7229">
        <ele>5</ele>
        <time>2023-05-16T14:42:56Z</time>
      </trkpt>
      <trkpt lat="43.38072" lon="6.7229">
        <ele>5</ele>
        <time>2023-05-16T14:42:57Z</time>
      </trkpt>
      <trkpt lat="43.38071" lon="6.7229">
        <ele>5</ele>
        <time>2023-05-16T14:42:58Z</time>
      </trkpt>
      <trkpt lat="43.38071" lon="6.7229">
        <ele>5.1</ele>
        <time>2023-05-16T14:42:59Z</time>
      </trkpt>
      <trkpt lat="43.3807" lon="6.72289">
        <ele>5.1</ele>
        <time>2023-05-16T14:43:00Z</time>
      </trkpt>
      <trkpt lat="43.38069" lon="6.72288">
        <ele>5.1</ele>
        <time>2023-05-16T14:43:01Z</time>
      </trkpt>
      <trkpt lat="43.38068" lon="6.72288">
        <ele>5.1</ele>
        <time>2023-05-16T14:43:02Z</time>
      </trkpt>
      <trkpt lat="43.38066" lon="6.72287">
        <ele>5.1</ele>
        <time>2023-05-16T14:43:04Z</time>
      </trkpt>
      <trkpt lat="43.38066" lon="6.72286">
        <ele>5.1</ele>
        <time>2023-05-16T14:43:05Z</time>
      </trkpt>
      <trkpt lat="43.38065" lon="6.72286">
        <ele>5.1</ele>
        <time>2023-05-16T14:43:06Z</time>
      </trkpt>
      <trkpt lat="43.38064" lon="6.72285">
        <ele>5.1</ele>
        <time>2023-05-16T14:43:07Z</time>
      </trkpt>
      <trkpt lat="43.38063" lon="6.72285">
        <ele>5.1</ele>
        <time>2023-05-16T14:43:09Z</time>
      </trkpt>
      <trkpt lat="43.38062" lon="6.72285">
        <ele>5.1</ele>
        <time>2023-05-16T14:43:10Z</time>
      </trkpt>
      <trkpt lat="43.38062" lon="6.72286">
        <ele>5.1</ele>
        <time>2023-05-16T14:43:12Z</time>
      </trkpt>
      <trkpt lat="43.38062" lon="6.72286">
        <ele>5.1</ele>
        <time>2023-05-16T14:43:13Z</time>
      </trkpt>
      <trkpt lat="43.38061" lon="6.72287">
        <ele>5.1</ele>
        <time>2023-05-16T14:43:14Z</time>
      </trkpt>
      <trkpt lat="43.38062" lon="6.72288">
        <ele>5.1</ele>
        <time>2023-05-16T14:43:15Z</time>
      </trkpt>
      <trkpt lat="43.38062" lon="6.72288">
        <ele>5.1</ele>
        <time>2023-05-16T14:43:17Z</time>
      </trkpt>
      <trkpt lat="43.38062" lon="6.72288">
        <ele>5.1</ele>
        <time>2023-05-16T14:43:18Z</time>
      </trkpt>
      <trkpt lat="43.38062" lon="6.72289">
        <ele>5.1</ele>
        <time>2023-05-16T14:43:20Z</time>
      </trkpt>
      <trkpt lat="43.38062" lon="6.72289">
        <ele>5.1</ele>
        <time>2023-05-16T14:43:21Z</time>
      </trkpt>
      <trkpt lat="43.38062" lon="6.72289">
        <ele>5.1</ele>
        <time>2023-05-16T14:43:22Z</time>
      </trkpt>
      <trkpt lat="43.38062" lon="6.72289">
        <ele>5.1</ele>
        <time>2023-05-16T14:43:24Z</time>
      </trkpt>
      <trkpt lat="43.38062" lon="6.72289">
        <ele>5.1</ele>
        <time>2023-05-16T14:43:25Z</time>
      </trkpt>
      <trkpt lat="43.38062" lon="6.7229">
        <ele>5.1</ele>
        <time>2023-05-16T14:43:26Z</time>
      </trkpt>
      <trkpt lat="43.38062" lon="6.72289">
        <ele>5.1</ele>
        <time>2023-05-16T14:43:27Z</time>
      </trkpt>
      <trkpt lat="43.38062" lon="6.72289">
        <ele>5.1</ele>
        <time>2023-05-16T14:43:28Z</time>
      </trkpt>
      <trkpt lat="43.38062" lon="6.72289">
        <ele>5.1</ele>
        <time>2023-05-16T14:43:29Z</time>
      </trkpt>
      <trkpt lat="43.38062" lon="6.72289">
        <ele>5.1</ele>
        <time>2023-05-16T14:43:30Z</time>
      </trkpt>
      <trkpt lat="43.38062" lon="6.72289">
        <ele>5.1</ele>
        <time>2023-05-16T14:43:31Z</time>
      </trkpt>
      <trkpt lat="43.38062" lon="6.72289">
        <ele>5.1</ele>
        <time>2023-05-16T14:43:32Z</time>
      </trkpt>
      <trkpt lat="43.38062" lon="6.72289">
        <ele>5.1</ele>
        <time>2023-05-16T14:43:33Z</time>
      </trkpt>
      <trkpt lat="43.38062" lon="6.7229">
        <ele>5.1</ele>
        <time>2023-05-16T14:43:34Z</time>
      </trkpt>
      <trkpt lat="43.38062" lon="6.7229">
        <ele>5.1</ele>
        <time>2023-05-16T14:43:35Z</time>
      </trkpt>
      <trkpt lat="43.38062" lon="6.7229">
        <ele>5.1</ele>
        <time>2023-05-16T14:43:36Z</time>
      </trkpt>
      <trkpt lat="43.38062" lon="6.7229">
        <ele>5.1</ele>
        <time>2023-05-16T14:43:37Z</time>
      </trkpt>
      <trkpt lat="43.38062" lon="6.7229">
        <ele>5.1</ele>
        <time>2023-05-16T14:43:38Z</time>
      </trkpt>
      <trkpt lat="43.38062" lon="6.7229">
        <ele>5.1</ele>
        <time>2023-05-16T14:43:39Z</time>
      </trkpt>
      <trkpt lat="43.38062" lon="6.72289">
        <ele>5.1</ele>
        <time>2023-05-16T14:43:40Z</time>
      </trkpt>
      <trkpt lat="43.38062" lon="6.72289">
        <ele>5.1</ele>
        <time>2023-05-16T14:43:41Z</time>
      </trkpt>
      <trkpt lat="43.38061" lon="6.72289">
        <ele>5.1</ele>
        <time>2023-05-16T14:43:42Z</time>
      </trkpt>
      <trkpt lat="43.38061" lon="6.72289">
        <ele>5.1</ele>
        <time>2023-05-16T14:43:43Z</time>
      </trkpt>
      <trkpt lat="43.3806" lon="6.72289">
        <ele>5.1</ele>
        <time>2023-05-16T14:43:44Z</time>
      </trkpt>
      <trkpt lat="43.38059" lon="6.72288">
        <ele>5.1</ele>
        <time>2023-05-16T14:43:45Z</time>
      </trkpt>
      <trkpt lat="43.38059" lon="6.72287">
        <ele>5.1</ele>
        <time>2023-05-16T14:43:46Z</time>
      </trkpt>
      <trkpt lat="43.38058" lon="6.72287">
        <ele>5.1</ele>
        <time>2023-05-16T14:43:47Z</time>
      </trkpt>
      <trkpt lat="43.38056" lon="6.72282">
        <ele>5.1</ele>
        <time>2023-05-16T14:43:49Z</time>
      </trkpt>
      <trkpt lat="43.38055" lon="6.7228">
        <ele>5.1</ele>
        <time>2023-05-16T14:43:51Z</time>
      </trkpt>
      <trkpt lat="43.38054" lon="6.72279">
        <ele>5.1</ele>
        <time>2023-05-16T14:43:52Z</time>
      </trkpt>
      <trkpt lat="43.38054" lon="6.72279">
        <ele>5.1</ele>
        <time>2023-05-16T14:43:53Z</time>
      </trkpt>
      <trkpt lat="43.38054" lon="6.72279">
        <ele>5.1</ele>
        <time>2023-05-16T14:43:54Z</time>
      </trkpt>
      <trkpt lat="43.38053" lon="6.72279">
        <ele>5.1</ele>
        <time>2023-05-16T14:43:55Z</time>
      </trkpt>
      <trkpt lat="43.38052" lon="6.72279">
        <ele>5.1</ele>
        <time>2023-05-16T14:43:56Z</time>
      </trkpt>
      <trkpt lat="43.38051" lon="6.72279">
        <ele>5.1</ele>
        <time>2023-05-16T14:43:57Z</time>
      </trkpt>
      <trkpt lat="43.3805" lon="6.72279">
        <ele>5.1</ele>
        <time>2023-05-16T14:43:58Z</time>
      </trkpt>
      <trkpt lat="43.38049" lon="6.7228">
        <ele>5.1</ele>
        <time>2023-05-16T14:44:00Z</time>
      </trkpt>
      <trkpt lat="43.38048" lon="6.7228">
        <ele>5.1</ele>
        <time>2023-05-16T14:44:01Z</time>
      </trkpt>
      <trkpt lat="43.38048" lon="6.7228">
        <ele>5.1</ele>
        <time>2023-05-16T14:44:02Z</time>
      </trkpt>
      <trkpt lat="43.38047" lon="6.72281">
        <ele>5</ele>
        <time>2023-05-16T14:44:03Z</time>
      </trkpt>
      <trkpt lat="43.38046" lon="6.72281">
        <ele>5</ele>
        <time>2023-05-16T14:44:04Z</time>
      </trkpt>
      <trkpt lat="43.38045" lon="6.72281">
        <ele>5</ele>
        <time>2023-05-16T14:44:05Z</time>
      </trkpt>
      <trkpt lat="43.38043" lon="6.72282">
        <ele>5</ele>
        <time>2023-05-16T14:44:06Z</time>
      </trkpt>
      <trkpt lat="43.38042" lon="6.72282">
        <ele>5</ele>
        <time>2023-05-16T14:44:08Z</time>
      </trkpt>
      <trkpt lat="43.38041" lon="6.72281">
        <ele>5</ele>
        <time>2023-05-16T14:44:09Z</time>
      </trkpt>
      <trkpt lat="43.3804" lon="6.7228">
        <ele>5</ele>
        <time>2023-05-16T14:44:11Z</time>
      </trkpt>
      <trkpt lat="43.38039" lon="6.72279">
        <ele>5</ele>
        <time>2023-05-16T14:44:12Z</time>
      </trkpt>
      <trkpt lat="43.38039" lon="6.72279">
        <ele>5</ele>
        <time>2023-05-16T14:44:13Z</time>
      </trkpt>
      <trkpt lat="43.38038" lon="6.72278">
        <ele>5</ele>
        <time>2023-05-16T14:44:14Z</time>
      </trkpt>
      <trkpt lat="43.38037" lon="6.72278">
        <ele>5</ele>
        <time>2023-05-16T14:44:15Z</time>
      </trkpt>
      <trkpt lat="43.38036" lon="6.72277">
        <ele>5</ele>
        <time>2023-05-16T14:44:17Z</time>
      </trkpt>
      <trkpt lat="43.38035" lon="6.72278">
        <ele>5</ele>
        <time>2023-05-16T14:44:18Z</time>
      </trkpt>
      <trkpt lat="43.38035" lon="6.72278">
        <ele>5</ele>
        <time>2023-05-16T14:44:19Z</time>
      </trkpt>
      <trkpt lat="43.38034" lon="6.72278">
        <ele>5</ele>
        <time>2023-05-16T14:44:20Z</time>
      </trkpt>
      <trkpt lat="43.38033" lon="6.72278">
        <ele>5</ele>
        <time>2023-05-16T14:44:21Z</time>
      </trkpt>
      <trkpt lat="43.38032" lon="6.72277">
        <ele>5</ele>
        <time>2023-05-16T14:44:23Z</time>
      </trkpt>
      <trkpt lat="43.38031" lon="6.72277">
        <ele>5</ele>
        <time>2023-05-16T14:44:24Z</time>
      </trkpt>
      <trkpt lat="43.3803" lon="6.72276">
        <ele>5</ele>
        <time>2023-05-16T14:44:25Z</time>
      </trkpt>
      <trkpt lat="43.3803" lon="6.72276">
        <ele>5</ele>
        <time>2023-05-16T14:44:26Z</time>
      </trkpt>
      <trkpt lat="43.38029" lon="6.72275">
        <ele>5</ele>
        <time>2023-05-16T14:44:28Z</time>
      </trkpt>
      <trkpt lat="43.38028" lon="6.72274">
        <ele>5</ele>
        <time>2023-05-16T14:44:29Z</time>
      </trkpt>
      <trkpt lat="43.38028" lon="6.72272">
        <ele>5</ele>
        <time>2023-05-16T14:44:30Z</time>
      </trkpt>
      <trkpt lat="43.38028" lon="6.7227">
        <ele>5</ele>
        <time>2023-05-16T14:44:32Z</time>
      </trkpt>
      <trkpt lat="43.38028" lon="6.72268">
        <ele>5.1</ele>
        <time>2023-05-16T14:44:33Z</time>
      </trkpt>
      <trkpt lat="43.38029" lon="6.72268">
        <ele>5.1</ele>
        <time>2023-05-16T14:44:34Z</time>
      </trkpt>
      <trkpt lat="43.38029" lon="6.72267">
        <ele>5.1</ele>
        <time>2023-05-16T14:44:35Z</time>
      </trkpt>
      <trkpt lat="43.38029" lon="6.72266">
        <ele>5.1</ele>
        <time>2023-05-16T14:44:36Z</time>
      </trkpt>
      <trkpt lat="43.3803" lon="6.72264">
        <ele>5.1</ele>
        <time>2023-05-16T14:44:37Z</time>
      </trkpt>
      <trkpt lat="43.3803" lon="6.72262">
        <ele>5.1</ele>
        <time>2023-05-16T14:44:39Z</time>
      </trkpt>
      <trkpt lat="43.3803" lon="6.72261">
        <ele>5.2</ele>
        <time>2023-05-16T14:44:40Z</time>
      </trkpt>
      <trkpt lat="43.3803" lon="6.72259">
        <ele>5.2</ele>
        <time>2023-05-16T14:44:42Z</time>
      </trkpt>
      <trkpt lat="43.38029" lon="6.72259">
        <ele>5.2</ele>
        <time>2023-05-16T14:44:43Z</time>
      </trkpt>
      <trkpt lat="43.38028" lon="6.72258">
        <ele>5.2</ele>
        <time>2023-05-16T14:44:44Z</time>
      </trkpt>
      <trkpt lat="43.38028" lon="6.72259">
        <ele>5.2</ele>
        <time>2023-05-16T14:44:45Z</time>
      </trkpt>
      <trkpt lat="43.38027" lon="6.72259">
        <ele>5.3</ele>
        <time>2023-05-16T14:44:47Z</time>
      </trkpt>
      <trkpt lat="43.38027" lon="6.72259">
        <ele>5.3</ele>
        <time>2023-05-16T14:44:48Z</time>
      </trkpt>
      <trkpt lat="43.38027" lon="6.72259">
        <ele>5.3</ele>
        <time>2023-05-16T14:44:49Z</time>
      </trkpt>
      <trkpt lat="43.38027" lon="6.72259">
        <ele>5.3</ele>
        <time>2023-05-16T14:44:50Z</time>
      </trkpt>
      <trkpt lat="43.38025" lon="6.72258">
        <ele>5.3</ele>
        <time>2023-05-16T14:44:51Z</time>
      </trkpt>
      <trkpt lat="43.38024" lon="6.72258">
        <ele>5.4</ele>
        <time>2023-05-16T14:44:52Z</time>
      </trkpt>
      <trkpt lat="43.38023" lon="6.72259">
        <ele>5.4</ele>
        <time>2023-05-16T14:44:53Z</time>
      </trkpt>
      <trkpt lat="43.38022" lon="6.72257">
        <ele>5.4</ele>
        <time>2023-05-16T14:44:55Z</time>
      </trkpt>
      <trkpt lat="43.38022" lon="6.72256">
        <ele>5.5</ele>
        <time>2023-05-16T14:44:57Z</time>
      </trkpt>
      <trkpt lat="43.38022" lon="6.72255">
        <ele>5.5</ele>
        <time>2023-05-16T14:44:58Z</time>
      </trkpt>
      <trkpt lat="43.38023" lon="6.72255">
        <ele>5.5</ele>
        <time>2023-05-16T14:44:59Z</time>
      </trkpt>
      <trkpt lat="43.38024" lon="6.72256">
        <ele>5.5</ele>
        <time>2023-05-16T14:45:01Z</time>
      </trkpt>
      <trkpt lat="43.38025" lon="6.72256">
        <ele>5.6</ele>
        <time>2023-05-16T14:45:02Z</time>
      </trkpt>
      <trkpt lat="43.38025" lon="6.72257">
        <ele>5.6</ele>
        <time>2023-05-16T14:45:03Z</time>
      </trkpt>
      <trkpt lat="43.38025" lon="6.72258">
        <ele>5.6</ele>
        <time>2023-05-16T14:45:05Z</time>
      </trkpt>
      <trkpt lat="43.38026" lon="6.72258">
        <ele>5.6</ele>
        <time>2023-05-16T14:45:06Z</time>
      </trkpt>
      <trkpt lat="43.38026" lon="6.72258">
        <ele>5.6</ele>
        <time>2023-05-16T14:45:07Z</time>
      </trkpt>
      <trkpt lat="43.38026" lon="6.72258">
        <ele>5.6</ele>
        <time>2023-05-16T14:45:09Z</time>
      </trkpt>
      <trkpt lat="43.38026" lon="6.72258">
        <ele>5.6</ele>
        <time>2023-05-16T14:45:10Z</time>
      </trkpt>
      <trkpt lat="43.38026" lon="6.72258">
        <ele>5.6</ele>
        <time>2023-05-16T14:45:11Z</time>
      </trkpt>
      <trkpt lat="43.38027" lon="6.72258">
        <ele>5.6</ele>
        <time>2023-05-16T14:45:12Z</time>
      </trkpt>
      <trkpt lat="43.38027" lon="6.72259">
        <ele>5.6</ele>
        <time>2023-05-16T14:45:14Z</time>
      </trkpt>
      <trkpt lat="43.38027" lon="6.72258">
        <ele>5.7</ele>
        <time>2023-05-16T14:45:15Z</time>
      </trkpt>
      <trkpt lat="43.38027" lon="6.72258">
        <ele>5.7</ele>
        <time>2023-05-16T14:45:16Z</time>
      </trkpt>
      <trkpt lat="43.38028" lon="6.72257">
        <ele>5.7</ele>
        <time>2023-05-16T14:45:18Z</time>
      </trkpt>
      <trkpt lat="43.38028" lon="6.72257">
        <ele>5.7</ele>
        <time>2023-05-16T14:45:19Z</time>
      </trkpt>
      <trkpt lat="43.38029" lon="6.72257">
        <ele>5.7</ele>
        <time>2023-05-16T14:45:20Z</time>
      </trkpt>
      <trkpt lat="43.3803" lon="6.72258">
        <ele>5.7</ele>
        <time>2023-05-16T14:45:21Z</time>
      </trkpt>
      <trkpt lat="43.38031" lon="6.72258">
        <ele>5.8</ele>
        <time>2023-05-16T14:45:22Z</time>
      </trkpt>
      <trkpt lat="43.38031" lon="6.72258">
        <ele>5.8</ele>
        <time>2023-05-16T14:45:23Z</time>
      </trkpt>
      <trkpt lat="43.38032" lon="6.72258">
        <ele>5.8</ele>
        <time>2023-05-16T14:45:24Z</time>
      </trkpt>
      <trkpt lat="43.38033" lon="6.72259">
        <ele>5.8</ele>
        <time>2023-05-16T14:45:25Z</time>
      </trkpt>
      <trkpt lat="43.38033" lon="6.72259">
        <ele>5.8</ele>
        <time>2023-05-16T14:45:26Z</time>
      </trkpt>
      <trkpt lat="43.38034" lon="6.72259">
        <ele>5.8</ele>
        <time>2023-05-16T14:45:27Z</time>
      </trkpt>
      <trkpt lat="43.38034" lon="6.72259">
        <ele>5.8</ele>
        <time>2023-05-16T14:45:28Z</time>
      </trkpt>
      <trkpt lat="43.38034" lon="6.72259">
        <ele>5.8</ele>
        <time>2023-05-16T14:45:29Z</time>
      </trkpt>
      <trkpt lat="43.38033" lon="6.72259">
        <ele>5.8</ele>
        <time>2023-05-16T14:45:30Z</time>
      </trkpt>
      <trkpt lat="43.38033" lon="6.72259">
        <ele>5.8</ele>
        <time>2023-05-16T14:45:31Z</time>
      </trkpt>
      <trkpt lat="43.38033" lon="6.72258">
        <ele>5.8</ele>
        <time>2023-05-16T14:45:32Z</time>
      </trkpt>
      <trkpt lat="43.38033" lon="6.72258">
        <ele>5.9</ele>
        <time>2023-05-16T14:45:33Z</time>
      </trkpt>
      <trkpt lat="43.38033" lon="6.72258">
        <ele>5.9</ele>
        <time>2023-05-16T14:45:34Z</time>
      </trkpt>
      <trkpt lat="43.38033" lon="6.72258">
        <ele>5.9</ele>
        <time>2023-05-16T14:45:35Z</time>
      </trkpt>
      <trkpt lat="43.38033" lon="6.72258">
        <ele>5.9</ele>
        <time>2023-05-16T14:45:36Z</time>
      </trkpt>
      <trkpt lat="43.38033" lon="6.72258">
        <ele>5.9</ele>
        <time>2023-05-16T14:45:37Z</time>
      </trkpt>
      <trkpt lat="43.38033" lon="6.72258">
        <ele>5.9</ele>
        <time>2023-05-16T14:45:38Z</time>
      </trkpt>
      <trkpt lat="43.38033" lon="6.72258">
        <ele>5.9</ele>
        <time>2023-05-16T14:45:39Z</time>
      </trkpt>
      <trkpt lat="43.38033" lon="6.72258">
        <ele>5.9</ele>
        <time>2023-05-16T14:45:40Z</time>
      </trkpt>
      <trkpt lat="43.38033" lon="6.72257">
        <ele>5.9</ele>
        <time>2023-05-16T14:45:41Z</time>
      </trkpt>
      <trkpt lat="43.38032" lon="6.72256">
        <ele>5.9</ele>
        <time>2023-05-16T14:45:42Z</time>
      </trkpt>
      <trkpt lat="43.38033" lon="6.72255">
        <ele>5.9</ele>
        <time>2023-05-16T14:45:43Z</time>
      </trkpt>
      <trkpt lat="43.38037" lon="6.72249">
        <ele>6</ele>
        <time>2023-05-16T14:45:45Z</time>
      </trkpt>
      <trkpt lat="43.3804" lon="6.72243">
        <ele>5.9</ele>
        <time>2023-05-16T14:45:47Z</time>
      </trkpt>
      <trkpt lat="43.38039" lon="6.72244">
        <ele>5.9</ele>
        <time>2023-05-16T14:45:48Z</time>
      </trkpt>
      <trkpt lat="43.38037" lon="6.72245">
        <ele>5.9</ele>
        <time>2023-05-16T14:45:49Z</time>
      </trkpt>
      <trkpt lat="43.38035" lon="6.72246">
        <ele>5.9</ele>
        <time>2023-05-16T14:45:50Z</time>
      </trkpt>
      <trkpt lat="43.38035" lon="6.72246">
        <ele>5.8</ele>
        <time>2023-05-16T14:45:52Z</time>
      </trkpt>
      <trkpt lat="43.38034" lon="6.72246">
        <ele>5.8</ele>
        <time>2023-05-16T14:45:53Z</time>
      </trkpt>
      <trkpt lat="43.38034" lon="6.72246">
        <ele>5.8</ele>
        <time>2023-05-16T14:45:54Z</time>
      </trkpt>
      <trkpt lat="43.38033" lon="6.72246">
        <ele>5.8</ele>
        <time>2023-05-16T14:45:55Z</time>
      </trkpt>
      <trkpt lat="43.38033" lon="6.72246">
        <ele>5.8</ele>
        <time>2023-05-16T14:45:57Z</time>
      </trkpt>
      <trkpt lat="43.38033" lon="6.72246">
        <ele>5.8</ele>
        <time>2023-05-16T14:45:58Z</time>
      </trkpt>
      <trkpt lat="43.38032" lon="6.72246">
        <ele>5.8</ele>
        <time>2023-05-16T14:46:00Z</time>
      </trkpt>
      <trkpt lat="43.38032" lon="6.72246">
        <ele>5.8</ele>
        <time>2023-05-16T14:46:01Z</time>
      </trkpt>
      <trkpt lat="43.38032" lon="6.72246">
        <ele>5.8</ele>
        <time>2023-05-16T14:46:02Z</time>
      </trkpt>
      <trkpt lat="43.38031" lon="6.72247">
        <ele>5.8</ele>
        <time>2023-05-16T14:46:03Z</time>
      </trkpt>
      <trkpt lat="43.38031" lon="6.72247">
        <ele>5.8</ele>
        <time>2023-05-16T14:46:05Z</time>
      </trkpt>
      <trkpt lat="43.38031" lon="6.72247">
        <ele>5.7</ele>
        <time>2023-05-16T14:46:06Z</time>
      </trkpt>
      <trkpt lat="43.3803" lon="6.72247">
        <ele>5.7</ele>
        <time>2023-05-16T14:46:07Z</time>
      </trkpt>
      <trkpt lat="43.3803" lon="6.72247">
        <ele>5.7</ele>
        <time>2023-05-16T14:46:08Z</time>
      </trkpt>
      <trkpt lat="43.38029" lon="6.72247">
        <ele>5.7</ele>
        <time>2023-05-16T14:46:09Z</time>
      </trkpt>
      <trkpt lat="43.38028" lon="6.72247">
        <ele>5.7</ele>
        <time>2023-05-16T14:46:10Z</time>
      </trkpt>
      <trkpt lat="43.38028" lon="6.72248">
        <ele>5.7</ele>
        <time>2023-05-16T14:46:11Z</time>
      </trkpt>
      <trkpt lat="43.38028" lon="6.72248">
        <ele>5.6</ele>
        <time>2023-05-16T14:46:12Z</time>
      </trkpt>
      <trkpt lat="43.38028" lon="6.72249">
        <ele>5.6</ele>
        <time>2023-05-16T14:46:13Z</time>
      </trkpt>
      <trkpt lat="43.38028" lon="6.72249">
        <ele>5.6</ele>
        <time>2023-05-16T14:46:14Z</time>
      </trkpt>
      <trkpt lat="43.38028" lon="6.72249">
        <ele>5.6</ele>
        <time>2023-05-16T14:46:15Z</time>
      </trkpt>
      <trkpt lat="43.38028" lon="6.72249">
        <ele>5.6</ele>
        <time>2023-05-16T14:46:16Z</time>
      </trkpt>
      <trkpt lat="43.38028" lon="6.72249">
        <ele>5.6</ele>
        <time>2023-05-16T14:46:17Z</time>
      </trkpt>
      <trkpt lat="43.38028" lon="6.72249">
        <ele>5.6</ele>
        <time>2023-05-16T14:46:18Z</time>
      </trkpt>
      <trkpt lat="43.38028" lon="6.72249">
        <ele>5.6</ele>
        <time>2023-05-16T14:46:19Z</time>
      </trkpt>
      <trkpt lat="43.38028" lon="6.72249">
        <ele>5.6</ele>
        <time>2023-05-16T14:46:20Z</time>
      </trkpt>
      <trkpt lat="43.38028" lon="6.72249">
        <ele>5.6</ele>
        <time>2023-05-16T14:46:21Z</time>
      </trkpt>
      <trkpt lat="43.38028" lon="6.72249">
        <ele>5.6</ele>
        <time>2023-05-16T14:46:22Z</time>
      </trkpt>
      <trkpt lat="43.38028" lon="6.72249">
        <ele>5.6</ele>
        <time>2023-05-16T14:46:23Z</time>
      </trkpt>
      <trkpt lat="43.38028" lon="6.72249">
        <ele>5.6</ele>
        <time>2023-05-16T14:46:24Z</time>
      </trkpt>
      <trkpt lat="43.38028" lon="6.72249">
        <ele>5.6</ele>
        <time>2023-05-16T14:46:25Z</time>
      </trkpt>
      <trkpt lat="43.38028" lon="6.72249">
        <ele>5.6</ele>
        <time>2023-05-16T14:46:26Z</time>
      </trkpt>
      <trkpt lat="43.38028" lon="6.72249">
        <ele>5.6</ele>
        <time>2023-05-16T14:46:27Z</time>
      </trkpt>
      <trkpt lat="43.38028" lon="6.72249">
        <ele>5.6</ele>
        <time>2023-05-16T14:46:28Z</time>
      </trkpt>
      <trkpt lat="43.38028" lon="6.72249">
        <ele>5.6</ele>
        <time>2023-05-16T14:46:29Z</time>
      </trkpt>
      <trkpt lat="43.38028" lon="6.72249">
        <ele>5.6</ele>
        <time>2023-05-16T14:46:30Z</time>
      </trkpt>
      <trkpt lat="43.38028" lon="6.72249">
        <ele>5.6</ele>
        <time>2023-05-16T14:46:31Z</time>
      </trkpt>
      <trkpt lat="43.38028" lon="6.72249">
        <ele>5.6</ele>
        <time>2023-05-16T14:46:32Z</time>
      </trkpt>
      <trkpt lat="43.38028" lon="6.72249">
        <ele>5.6</ele>
        <time>2023-05-16T14:46:33Z</time>
      </trkpt>
      <trkpt lat="43.38028" lon="6.72248">
        <ele>5.6</ele>
        <time>2023-05-16T14:46:34Z</time>
      </trkpt>
      <trkpt lat="43.38028" lon="6.72248">
        <ele>5.6</ele>
        <time>2023-05-16T14:46:35Z</time>
      </trkpt>
      <trkpt lat="43.38028" lon="6.72247">
        <ele>5.6</ele>
        <time>2023-05-16T14:46:36Z</time>
      </trkpt>
      <trkpt lat="43.38029" lon="6.72248">
        <ele>5.5</ele>
        <time>2023-05-16T14:46:38Z</time>
      </trkpt>
      <trkpt lat="43.38028" lon="6.72247">
        <ele>5.5</ele>
        <time>2023-05-16T14:46:40Z</time>
      </trkpt>
      <trkpt lat="43.38027" lon="6.72246">
        <ele>5.4</ele>
        <time>2023-05-16T14:46:41Z</time>
      </trkpt>
      <trkpt lat="43.38025" lon="6.72243">
        <ele>5.4</ele>
        <time>2023-05-16T14:46:42Z</time>
      </trkpt>
      <trkpt lat="43.38024" lon="6.72242">
        <ele>5.3</ele>
        <time>2023-05-16T14:46:44Z</time>
      </trkpt>
      <trkpt lat="43.38023" lon="6.7224">
        <ele>5.3</ele>
        <time>2023-05-16T14:46:45Z</time>
      </trkpt>
      <trkpt lat="43.38022" lon="6.72239">
        <ele>5.2</ele>
        <time>2023-05-16T14:46:46Z</time>
      </trkpt>
      <trkpt lat="43.38021" lon="6.72239">
        <ele>5.2</ele>
        <time>2023-05-16T14:46:47Z</time>
      </trkpt>
      <trkpt lat="43.38021" lon="6.72238">
        <ele>5.2</ele>
        <time>2023-05-16T14:46:49Z</time>
      </trkpt>
      <trkpt lat="43.38021" lon="6.72238">
        <ele>5.2</ele>
        <time>2023-05-16T14:46:50Z</time>
      </trkpt>
      <trkpt lat="43.38022" lon="6.72238">
        <ele>5.2</ele>
        <time>2023-05-16T14:46:51Z</time>
      </trkpt>
      <trkpt lat="43.38022" lon="6.72238">
        <ele>5.2</ele>
        <time>2023-05-16T14:46:52Z</time>
      </trkpt>
      <trkpt lat="43.38022" lon="6.72236">
        <ele>5.2</ele>
        <time>2023-05-16T14:46:54Z</time>
      </trkpt>
      <trkpt lat="43.38021" lon="6.72235">
        <ele>5.1</ele>
        <time>2023-05-16T14:46:55Z</time>
      </trkpt>
      <trkpt lat="43.38021" lon="6.72233">
        <ele>5.1</ele>
        <time>2023-05-16T14:46:56Z</time>
      </trkpt>
      <trkpt lat="43.38021" lon="6.72233">
        <ele>5.1</ele>
        <time>2023-05-16T14:46:57Z</time>
      </trkpt>
      <trkpt lat="43.3802" lon="6.72231">
        <ele>5.1</ele>
        <time>2023-05-16T14:46:59Z</time>
      </trkpt>
      <trkpt lat="43.38019" lon="6.72231">
        <ele>5</ele>
        <time>2023-05-16T14:47:00Z</time>
      </trkpt>
      <trkpt lat="43.38017" lon="6.7223">
        <ele>5</ele>
        <time>2023-05-16T14:47:01Z</time>
      </trkpt>
      <trkpt lat="43.38016" lon="6.72228">
        <ele>5</ele>
        <time>2023-05-16T14:47:03Z</time>
      </trkpt>
      <trkpt lat="43.38015" lon="6.72228">
        <ele>4.9</ele>
        <time>2023-05-16T14:47:05Z</time>
      </trkpt>
      <trkpt lat="43.38014" lon="6.72227">
        <ele>4.9</ele>
        <time>2023-05-16T14:47:06Z</time>
      </trkpt>
      <trkpt lat="43.38014" lon="6.72228">
        <ele>4.9</ele>
        <time>2023-05-16T14:47:07Z</time>
      </trkpt>
      <trkpt lat="43.38014" lon="6.72229">
        <ele>4.9</ele>
        <time>2023-05-16T14:47:08Z</time>
      </trkpt>
      <trkpt lat="43.38014" lon="6.7223">
        <ele>4.8</ele>
        <time>2023-05-16T14:47:10Z</time>
      </trkpt>
      <trkpt lat="43.38014" lon="6.72231">
        <ele>4.8</ele>
        <time>2023-05-16T14:47:11Z</time>
      </trkpt>
      <trkpt lat="43.38014" lon="6.72232">
        <ele>4.8</ele>
        <time>2023-05-16T14:47:12Z</time>
      </trkpt>
      <trkpt lat="43.38012" lon="6.72234">
        <ele>4.8</ele>
        <time>2023-05-16T14:47:14Z</time>
      </trkpt>
      <trkpt lat="43.38011" lon="6.72235">
        <ele>4.7</ele>
        <time>2023-05-16T14:47:15Z</time>
      </trkpt>
      <trkpt lat="43.3801" lon="6.72235">
        <ele>4.7</ele>
        <time>2023-05-16T14:47:16Z</time>
      </trkpt>
      <trkpt lat="43.38009" lon="6.72232">
        <ele>4.6</ele>
        <time>2023-05-16T14:47:18Z</time>
      </trkpt>
      <trkpt lat="43.38008" lon="6.72232">
        <ele>4.6</ele>
        <time>2023-05-16T14:47:19Z</time>
      </trkpt>
      <trkpt lat="43.38007" lon="6.72232">
        <ele>4.6</ele>
        <time>2023-05-16T14:47:20Z</time>
      </trkpt>
      <trkpt lat="43.38005" lon="6.72232">
        <ele>4.6</ele>
        <time>2023-05-16T14:47:21Z</time>
      </trkpt>
      <trkpt lat="43.38004" lon="6.72232">
        <ele>4.5</ele>
        <time>2023-05-16T14:47:22Z</time>
      </trkpt>
      <trkpt lat="43.38004" lon="6.72231">
        <ele>4.5</ele>
        <time>2023-05-16T14:47:23Z</time>
      </trkpt>
      <trkpt lat="43.38003" lon="6.72229">
        <ele>4.5</ele>
        <time>2023-05-16T14:47:25Z</time>
      </trkpt>
      <trkpt lat="43.38002" lon="6.72229">
        <ele>4.5</ele>
        <time>2023-05-16T14:47:27Z</time>
      </trkpt>
      <trkpt lat="43.38002" lon="6.72228">
        <ele>4.5</ele>
        <time>2023-05-16T14:47:28Z</time>
      </trkpt>
      <trkpt lat="43.38002" lon="6.72229">
        <ele>4.5</ele>
        <time>2023-05-16T14:47:29Z</time>
      </trkpt>
      <trkpt lat="43.38001" lon="6.7223">
        <ele>4.4</ele>
        <time>2023-05-16T14:47:31Z</time>
      </trkpt>
      <trkpt lat="43.38001" lon="6.72231">
        <ele>4.4</ele>
        <time>2023-05-16T14:47:32Z</time>
      </trkpt>
      <trkpt lat="43.38001" lon="6.72234">
        <ele>4.4</ele>
        <time>2023-05-16T14:47:33Z</time>
      </trkpt>
      <trkpt lat="43.38001" lon="6.72235">
        <ele>4.4</ele>
        <time>2023-05-16T14:47:35Z</time>
      </trkpt>
      <trkpt lat="43.38001" lon="6.72235">
        <ele>4.3</ele>
        <time>2023-05-16T14:47:36Z</time>
      </trkpt>
      <trkpt lat="43.38001" lon="6.72235">
        <ele>4.3</ele>
        <time>2023-05-16T14:47:37Z</time>
      </trkpt>
      <trkpt lat="43.38001" lon="6.72235">
        <ele>4.3</ele>
        <time>2023-05-16T14:47:39Z</time>
      </trkpt>
      <trkpt lat="43.38001" lon="6.72235">
        <ele>4.3</ele>
        <time>2023-05-16T14:47:40Z</time>
      </trkpt>
      <trkpt lat="43.38001" lon="6.72235">
        <ele>4.3</ele>
        <time>2023-05-16T14:47:41Z</time>
      </trkpt>
      <trkpt lat="43.38002" lon="6.72235">
        <ele>4.3</ele>
        <time>2023-05-16T14:47:42Z</time>
      </trkpt>
      <trkpt lat="43.38002" lon="6.72235">
        <ele>4.3</ele>
        <time>2023-05-16T14:47:44Z</time>
      </trkpt>
      <trkpt lat="43.38002" lon="6.72235">
        <ele>4.3</ele>
        <time>2023-05-16T14:47:45Z</time>
      </trkpt>
      <trkpt lat="43.38002" lon="6.72235">
        <ele>4.3</ele>
        <time>2023-05-16T14:47:47Z</time>
      </trkpt>
      <trkpt lat="43.38002" lon="6.72236">
        <ele>4.3</ele>
        <time>2023-05-16T14:47:48Z</time>
      </trkpt>
      <trkpt lat="43.38002" lon="6.72236">
        <ele>4.3</ele>
        <time>2023-05-16T14:47:49Z</time>
      </trkpt>
      <trkpt lat="43.38002" lon="6.72236">
        <ele>4.3</ele>
        <time>2023-05-16T14:47:51Z</time>
      </trkpt>
      <trkpt lat="43.38002" lon="6.72236">
        <ele>4.3</ele>
        <time>2023-05-16T14:47:52Z</time>
      </trkpt>
      <trkpt lat="43.38002" lon="6.72237">
        <ele>4.3</ele>
        <time>2023-05-16T14:47:53Z</time>
      </trkpt>
      <trkpt lat="43.38003" lon="6.72237">
        <ele>4.3</ele>
        <time>2023-05-16T14:47:54Z</time>
      </trkpt>
      <trkpt lat="43.38003" lon="6.72237">
        <ele>4.3</ele>
        <time>2023-05-16T14:47:55Z</time>
      </trkpt>
      <trkpt lat="43.38003" lon="6.72237">
        <ele>4.3</ele>
        <time>2023-05-16T14:47:56Z</time>
      </trkpt>
      <trkpt lat="43.38003" lon="6.72237">
        <ele>4.3</ele>
        <time>2023-05-16T14:47:57Z</time>
      </trkpt>
      <trkpt lat="43.38003" lon="6.72237">
        <ele>4.3</ele>
        <time>2023-05-16T14:47:58Z</time>
      </trkpt>
      <trkpt lat="43.38003" lon="6.72236">
        <ele>4.3</ele>
        <time>2023-05-16T14:47:59Z</time>
      </trkpt>
      <trkpt lat="43.38003" lon="6.72236">
        <ele>4.3</ele>
        <time>2023-05-16T14:48:00Z</time>
      </trkpt>
      <trkpt lat="43.38003" lon="6.72236">
        <ele>4.3</ele>
        <time>2023-05-16T14:48:01Z</time>
      </trkpt>
      <trkpt lat="43.38002" lon="6.72236">
        <ele>4.3</ele>
        <time>2023-05-16T14:48:02Z</time>
      </trkpt>
      <trkpt lat="43.38002" lon="6.72235">
        <ele>4.3</ele>
        <time>2023-05-16T14:48:03Z</time>
      </trkpt>
      <trkpt lat="43.38002" lon="6.72235">
        <ele>4.3</ele>
        <time>2023-05-16T14:48:04Z</time>
      </trkpt>
      <trkpt lat="43.38002" lon="6.72234">
        <ele>4.3</ele>
        <time>2023-05-16T14:48:05Z</time>
      </trkpt>
      <trkpt lat="43.38002" lon="6.72234">
        <ele>4.2</ele>
        <time>2023-05-16T14:48:06Z</time>
      </trkpt>
      <trkpt lat="43.38002" lon="6.72233">
        <ele>4.2</ele>
        <time>2023-05-16T14:48:07Z</time>
      </trkpt>
      <trkpt lat="43.38002" lon="6.72232">
        <ele>4.2</ele>
        <time>2023-05-16T14:48:08Z</time>
      </trkpt>
      <trkpt lat="43.38003" lon="6.72232">
        <ele>4.2</ele>
        <time>2023-05-16T14:48:09Z</time>
      </trkpt>
      <trkpt lat="43.38003" lon="6.72231">
        <ele>4.2</ele>
        <time>2023-05-16T14:48:10Z</time>
      </trkpt>
      <trkpt lat="43.38003" lon="6.72231">
        <ele>4.2</ele>
        <time>2023-05-16T14:48:11Z</time>
      </trkpt>
      <trkpt lat="43.38003" lon="6.72231">
        <ele>4.2</ele>
        <time>2023-05-16T14:48:12Z</time>
      </trkpt>
      <trkpt lat="43.38003" lon="6.72229">
        <ele>4.2</ele>
        <time>2023-05-16T14:48:14Z</time>
      </trkpt>
      <trkpt lat="43.38003" lon="6.72229">
        <ele>4.2</ele>
        <time>2023-05-16T14:48:15Z</time>
      </trkpt>
      <trkpt lat="43.38005" lon="6.72227">
        <ele>4.2</ele>
        <time>2023-05-16T14:48:17Z</time>
      </trkpt>
      <trkpt lat="43.38005" lon="6.72227">
        <ele>4.2</ele>
        <time>2023-05-16T14:48:19Z</time>
      </trkpt>
      <trkpt lat="43.38005" lon="6.72226">
        <ele>4.2</ele>
        <time>2023-05-16T14:48:21Z</time>
      </trkpt>
      <trkpt lat="43.38005" lon="6.72226">
        <ele>4.2</ele>
        <time>2023-05-16T14:48:22Z</time>
      </trkpt>
      <trkpt lat="43.38005" lon="6.72225">
        <ele>4.2</ele>
        <time>2023-05-16T14:48:23Z</time>
      </trkpt>
      <trkpt lat="43.38005" lon="6.72224">
        <ele>4.2</ele>
        <time>2023-05-16T14:48:25Z</time>
      </trkpt>
      <trkpt lat="43.38005" lon="6.72223">
        <ele>4.1</ele>
        <time>2023-05-16T14:48:26Z</time>
      </trkpt>
      <trkpt lat="43.38006" lon="6.72222">
        <ele>4.1</ele>
        <time>2023-05-16T14:48:27Z</time>
      </trkpt>
      <trkpt lat="43.38006" lon="6.72221">
        <ele>4.1</ele>
        <time>2023-05-16T14:48:28Z</time>
      </trkpt>
      <trkpt lat="43.38006" lon="6.7222">
        <ele>4.1</ele>
        <time>2023-05-16T14:48:29Z</time>
      </trkpt>
      <trkpt lat="43.38006" lon="6.72218">
        <ele>4.1</ele>
        <time>2023-05-16T14:48:31Z</time>
      </trkpt>
      <trkpt lat="43.38006" lon="6.72217">
        <ele>4.1</ele>
        <time>2023-05-16T14:48:32Z</time>
      </trkpt>
      <trkpt lat="43.38007" lon="6.72216">
        <ele>4.1</ele>
        <time>2023-05-16T14:48:33Z</time>
      </trkpt>
      <trkpt lat="43.38007" lon="6.72215">
        <ele>4.1</ele>
        <time>2023-05-16T14:48:34Z</time>
      </trkpt>
      <trkpt lat="43.38008" lon="6.72213">
        <ele>4.1</ele>
        <time>2023-05-16T14:48:35Z</time>
      </trkpt>
      <trkpt lat="43.38008" lon="6.72212">
        <ele>4.1</ele>
        <time>2023-05-16T14:48:36Z</time>
      </trkpt>
      <trkpt lat="43.38009" lon="6.7221">
        <ele>4.1</ele>
        <time>2023-05-16T14:48:38Z</time>
      </trkpt>
      <trkpt lat="43.38009" lon="6.72209">
        <ele>4.1</ele>
        <time>2023-05-16T14:48:39Z</time>
      </trkpt>
      <trkpt lat="43.3801" lon="6.72207">
        <ele>4.1</ele>
        <time>2023-05-16T14:48:40Z</time>
      </trkpt>
      <trkpt lat="43.3801" lon="6.72206">
        <ele>4.1</ele>
        <time>2023-05-16T14:48:41Z</time>
      </trkpt>
      <trkpt lat="43.3801" lon="6.72204">
        <ele>4.1</ele>
        <time>2023-05-16T14:48:42Z</time>
      </trkpt>
      <trkpt lat="43.38009" lon="6.72202">
        <ele>4.1</ele>
        <time>2023-05-16T14:48:43Z</time>
      </trkpt>
      <trkpt lat="43.38008" lon="6.72199">
        <ele>4.1</ele>
        <time>2023-05-16T14:48:44Z</time>
      </trkpt>
      <trkpt lat="43.38008" lon="6.72198">
        <ele>4.1</ele>
        <time>2023-05-16T14:48:46Z</time>
      </trkpt>
      <trkpt lat="43.38008" lon="6.72197">
        <ele>4.1</ele>
        <time>2023-05-16T14:48:47Z</time>
      </trkpt>
      <trkpt lat="43.38007" lon="6.72195">
        <ele>4.1</ele>
        <time>2023-05-16T14:48:48Z</time>
      </trkpt>
      <trkpt lat="43.38007" lon="6.72194">
        <ele>4.1</ele>
        <time>2023-05-16T14:48:49Z</time>
      </trkpt>
      <trkpt lat="43.38007" lon="6.72193">
        <ele>4.1</ele>
        <time>2023-05-16T14:48:50Z</time>
      </trkpt>
      <trkpt lat="43.38006" lon="6.7219">
        <ele>4.1</ele>
        <time>2023-05-16T14:48:51Z</time>
      </trkpt>
      <trkpt lat="43.38006" lon="6.72188">
        <ele>4.1</ele>
        <time>2023-05-16T14:48:52Z</time>
      </trkpt>
      <trkpt lat="43.38005" lon="6.72187">
        <ele>4.1</ele>
        <time>2023-05-16T14:48:53Z</time>
      </trkpt>
      <trkpt lat="43.38005" lon="6.72186">
        <ele>4.1</ele>
        <time>2023-05-16T14:48:55Z</time>
      </trkpt>
      <trkpt lat="43.38004" lon="6.72184">
        <ele>4</ele>
        <time>2023-05-16T14:48:56Z</time>
      </trkpt>
      <trkpt lat="43.38004" lon="6.72183">
        <ele>4</ele>
        <time>2023-05-16T14:48:57Z</time>
      </trkpt>
      <trkpt lat="43.38003" lon="6.72181">
        <ele>4</ele>
        <time>2023-05-16T14:48:58Z</time>
      </trkpt>
      <trkpt lat="43.38002" lon="6.7218">
        <ele>4</ele>
        <time>2023-05-16T14:48:59Z</time>
      </trkpt>
      <trkpt lat="43.38002" lon="6.72179">
        <ele>4</ele>
        <time>2023-05-16T14:49:00Z</time>
      </trkpt>
      <trkpt lat="43.38002" lon="6.72177">
        <ele>4</ele>
        <time>2023-05-16T14:49:01Z</time>
      </trkpt>
      <trkpt lat="43.38002" lon="6.72175">
        <ele>4</ele>
        <time>2023-05-16T14:49:03Z</time>
      </trkpt>
      <trkpt lat="43.38001" lon="6.72174">
        <ele>4</ele>
        <time>2023-05-16T14:49:04Z</time>
      </trkpt>
      <trkpt lat="43.38001" lon="6.72172">
        <ele>4</ele>
        <time>2023-05-16T14:49:05Z</time>
      </trkpt>
      <trkpt lat="43.38" lon="6.72172">
        <ele>4</ele>
        <time>2023-05-16T14:49:06Z</time>
      </trkpt>
      <trkpt lat="43.38" lon="6.72171">
        <ele>4</ele>
        <time>2023-05-16T14:49:07Z</time>
      </trkpt>
      <trkpt lat="43.37999" lon="6.7217">
        <ele>4</ele>
        <time>2023-05-16T14:49:08Z</time>
      </trkpt>
      <trkpt lat="43.37998" lon="6.72169">
        <ele>4</ele>
        <time>2023-05-16T14:49:10Z</time>
      </trkpt>
      <trkpt lat="43.37998" lon="6.72168">
        <ele>4</ele>
        <time>2023-05-16T14:49:11Z</time>
      </trkpt>
      <trkpt lat="43.37997" lon="6.72167">
        <ele>4</ele>
        <time>2023-05-16T14:49:12Z</time>
      </trkpt>
      <trkpt lat="43.37997" lon="6.72166">
        <ele>4</ele>
        <time>2023-05-16T14:49:13Z</time>
      </trkpt>
      <trkpt lat="43.37996" lon="6.72166">
        <ele>4</ele>
        <time>2023-05-16T14:49:14Z</time>
      </trkpt>
      <trkpt lat="43.37995" lon="6.72165">
        <ele>4</ele>
        <time>2023-05-16T14:49:15Z</time>
      </trkpt>
      <trkpt lat="43.37995" lon="6.72164">
        <ele>4</ele>
        <time>2023-05-16T14:49:16Z</time>
      </trkpt>
      <trkpt lat="43.37994" lon="6.72163">
        <ele>4</ele>
        <time>2023-05-16T14:49:17Z</time>
      </trkpt>
      <trkpt lat="43.37993" lon="6.72162">
        <ele>4</ele>
        <time>2023-05-16T14:49:19Z</time>
      </trkpt>
      <trkpt lat="43.37992" lon="6.72161">
        <ele>4</ele>
        <time>2023-05-16T14:49:20Z</time>
      </trkpt>
      <trkpt lat="43.37992" lon="6.72161">
        <ele>4</ele>
        <time>2023-05-16T14:49:21Z</time>
      </trkpt>
      <trkpt lat="43.37992" lon="6.72161">
        <ele>4</ele>
        <time>2023-05-16T14:49:22Z</time>
      </trkpt>
      <trkpt lat="43.37992" lon="6.72162">
        <ele>4</ele>
        <time>2023-05-16T14:49:23Z</time>
      </trkpt>
      <trkpt lat="43.37992" lon="6.72163">
        <ele>4</ele>
        <time>2023-05-16T14:49:25Z</time>
      </trkpt>
      <trkpt lat="43.37992" lon="6.72163">
        <ele>4</ele>
        <time>2023-05-16T14:49:26Z</time>
      </trkpt>
      <trkpt lat="43.37992" lon="6.72163">
        <ele>4</ele>
        <time>2023-05-16T14:49:27Z</time>
      </trkpt>
      <trkpt lat="43.37992" lon="6.72163">
        <ele>4</ele>
        <time>2023-05-16T14:49:28Z</time>
      </trkpt>
      <trkpt lat="43.37992" lon="6.72162">
        <ele>4</ele>
        <time>2023-05-16T14:49:29Z</time>
      </trkpt>
      <trkpt lat="43.37991" lon="6.72161">
        <ele>4</ele>
        <time>2023-05-16T14:49:30Z</time>
      </trkpt>
      <trkpt lat="43.3799" lon="6.7216">
        <ele>4</ele>
        <time>2023-05-16T14:49:31Z</time>
      </trkpt>
      <trkpt lat="43.3799" lon="6.72159">
        <ele>4</ele>
        <time>2023-05-16T14:49:32Z</time>
      </trkpt>
      <trkpt lat="43.37988" lon="6.72157">
        <ele>4</ele>
        <time>2023-05-16T14:49:34Z</time>
      </trkpt>
      <trkpt lat="43.37987" lon="6.72156">
        <ele>4</ele>
        <time>2023-05-16T14:49:35Z</time>
      </trkpt>
      <trkpt lat="43.37986" lon="6.72154">
        <ele>4</ele>
        <time>2023-05-16T14:49:36Z</time>
      </trkpt>
      <trkpt lat="43.37985" lon="6.72154">
        <ele>4</ele>
        <time>2023-05-16T14:49:37Z</time>
      </trkpt>
      <trkpt lat="43.37984" lon="6.72153">
        <ele>4</ele>
        <time>2023-05-16T14:49:38Z</time>
      </trkpt>
      <trkpt lat="43.37983" lon="6.72153">
        <ele>4</ele>
        <time>2023-05-16T14:49:40Z</time>
      </trkpt>
      <trkpt lat="43.37982" lon="6.72152">
        <ele>4</ele>
        <time>2023-05-16T14:49:41Z</time>
      </trkpt>
      <trkpt lat="43.37982" lon="6.72151">
        <ele>4</ele>
        <time>2023-05-16T14:49:42Z</time>
      </trkpt>
      <trkpt lat="43.3798" lon="6.72151">
        <ele>4.1</ele>
        <time>2023-05-16T14:49:43Z</time>
      </trkpt>
      <trkpt lat="43.37979" lon="6.7215">
        <ele>4.1</ele>
        <time>2023-05-16T14:49:44Z</time>
      </trkpt>
      <trkpt lat="43.37978" lon="6.7215">
        <ele>4.1</ele>
        <time>2023-05-16T14:49:45Z</time>
      </trkpt>
      <trkpt lat="43.37978" lon="6.7215">
        <ele>4.1</ele>
        <time>2023-05-16T14:49:46Z</time>
      </trkpt>
      <trkpt lat="43.37977" lon="6.7215">
        <ele>4.1</ele>
        <time>2023-05-16T14:49:47Z</time>
      </trkpt>
      <trkpt lat="43.37975" lon="6.7215">
        <ele>4.1</ele>
        <time>2023-05-16T14:49:48Z</time>
      </trkpt>
      <trkpt lat="43.37974" lon="6.7215">
        <ele>4.1</ele>
        <time>2023-05-16T14:49:50Z</time>
      </trkpt>
      <trkpt lat="43.37973" lon="6.7215">
        <ele>4.1</ele>
        <time>2023-05-16T14:49:51Z</time>
      </trkpt>
      <trkpt lat="43.37972" lon="6.7215">
        <ele>4.1</ele>
        <time>2023-05-16T14:49:52Z</time>
      </trkpt>
      <trkpt lat="43.37972" lon="6.7215">
        <ele>4.3</ele>
        <time>2023-05-16T14:49:53Z</time>
      </trkpt>
      <trkpt lat="43.37971" lon="6.7215">
        <ele>4.3</ele>
        <time>2023-05-16T14:49:55Z</time>
      </trkpt>
      <trkpt lat="43.3797" lon="6.7215">
        <ele>4.4</ele>
        <time>2023-05-16T14:49:56Z</time>
      </trkpt>
      <trkpt lat="43.37969" lon="6.72151">
        <ele>4.4</ele>
        <time>2023-05-16T14:49:57Z</time>
      </trkpt>
      <trkpt lat="43.37969" lon="6.72151">
        <ele>4.4</ele>
        <time>2023-05-16T14:49:58Z</time>
      </trkpt>
      <trkpt lat="43.37969" lon="6.72151">
        <ele>4.4</ele>
        <time>2023-05-16T14:50:00Z</time>
      </trkpt>
      <trkpt lat="43.37969" lon="6.72151">
        <ele>4.4</ele>
        <time>2023-05-16T14:50:01Z</time>
      </trkpt>
      <trkpt lat="43.37969" lon="6.72151">
        <ele>4.4</ele>
        <time>2023-05-16T14:50:02Z</time>
      </trkpt>
      <trkpt lat="43.37969" lon="6.7215">
        <ele>4.4</ele>
        <time>2023-05-16T14:50:04Z</time>
      </trkpt>
      <trkpt lat="43.37969" lon="6.7215">
        <ele>4.4</ele>
        <time>2023-05-16T14:50:05Z</time>
      </trkpt>
      <trkpt lat="43.37969" lon="6.7215">
        <ele>4.4</ele>
        <time>2023-05-16T14:50:06Z</time>
      </trkpt>
      <trkpt lat="43.37968" lon="6.7215">
        <ele>4.5</ele>
        <time>2023-05-16T14:50:07Z</time>
      </trkpt>
      <trkpt lat="43.37967" lon="6.72149">
        <ele>4.5</ele>
        <time>2023-05-16T14:50:09Z</time>
      </trkpt>
      <trkpt lat="43.37966" lon="6.72149">
        <ele>4.5</ele>
        <time>2023-05-16T14:50:10Z</time>
      </trkpt>
      <trkpt lat="43.37966" lon="6.72149">
        <ele>4.5</ele>
        <time>2023-05-16T14:50:11Z</time>
      </trkpt>
      <trkpt lat="43.37966" lon="6.7215">
        <ele>4.6</ele>
        <time>2023-05-16T14:50:13Z</time>
      </trkpt>
      <trkpt lat="43.37966" lon="6.7215">
        <ele>4.6</ele>
        <time>2023-05-16T14:50:14Z</time>
      </trkpt>
      <trkpt lat="43.37966" lon="6.7215">
        <ele>4.6</ele>
        <time>2023-05-16T14:50:15Z</time>
      </trkpt>
      <trkpt lat="43.37966" lon="6.7215">
        <ele>4.6</ele>
        <time>2023-05-16T14:50:16Z</time>
      </trkpt>
      <trkpt lat="43.37966" lon="6.7215">
        <ele>4.6</ele>
        <time>2023-05-16T14:50:18Z</time>
      </trkpt>
      <trkpt lat="43.37966" lon="6.72151">
        <ele>4.6</ele>
        <time>2023-05-16T14:50:19Z</time>
      </trkpt>
      <trkpt lat="43.37966" lon="6.72151">
        <ele>4.6</ele>
        <time>2023-05-16T14:50:20Z</time>
      </trkpt>
      <trkpt lat="43.37966" lon="6.72152">
        <ele>4.6</ele>
        <time>2023-05-16T14:50:21Z</time>
      </trkpt>
      <trkpt lat="43.37966" lon="6.72152">
        <ele>4.6</ele>
        <time>2023-05-16T14:50:22Z</time>
      </trkpt>
      <trkpt lat="43.37966" lon="6.72153">
        <ele>4.7</ele>
        <time>2023-05-16T14:50:24Z</time>
      </trkpt>
      <trkpt lat="43.37966" lon="6.72154">
        <ele>4.7</ele>
        <time>2023-05-16T14:50:25Z</time>
      </trkpt>
      <trkpt lat="43.37965" lon="6.72154">
        <ele>4.7</ele>
        <time>2023-05-16T14:50:27Z</time>
      </trkpt>
      <trkpt lat="43.37965" lon="6.72154">
        <ele>4.7</ele>
        <time>2023-05-16T14:50:28Z</time>
      </trkpt>
      <trkpt lat="43.37965" lon="6.72154">
        <ele>4.7</ele>
        <time>2023-05-16T14:50:29Z</time>
      </trkpt>
      <trkpt lat="43.37965" lon="6.72154">
        <ele>4.7</ele>
        <time>2023-05-16T14:50:30Z</time>
      </trkpt>
      <trkpt lat="43.37964" lon="6.72154">
        <ele>4.7</ele>
        <time>2023-05-16T14:50:31Z</time>
      </trkpt>
      <trkpt lat="43.37964" lon="6.72153">
        <ele>4.7</ele>
        <time>2023-05-16T14:50:33Z</time>
      </trkpt>
      <trkpt lat="43.37963" lon="6.72153">
        <ele>4.7</ele>
        <time>2023-05-16T14:50:34Z</time>
      </trkpt>
      <trkpt lat="43.37963" lon="6.72153">
        <ele>4.8</ele>
        <time>2023-05-16T14:50:36Z</time>
      </trkpt>
      <trkpt lat="43.37963" lon="6.72153">
        <ele>4.8</ele>
        <time>2023-05-16T14:50:37Z</time>
      </trkpt>
      <trkpt lat="43.37963" lon="6.72153">
        <ele>4.8</ele>
        <time>2023-05-16T14:50:38Z</time>
      </trkpt>
      <trkpt lat="43.37963" lon="6.72152">
        <ele>4.8</ele>
        <time>2023-05-16T14:50:39Z</time>
      </trkpt>
      <trkpt lat="43.37962" lon="6.72152">
        <ele>4.8</ele>
        <time>2023-05-16T14:50:40Z</time>
      </trkpt>
      <trkpt lat="43.37961" lon="6.72151">
        <ele>4.8</ele>
        <time>2023-05-16T14:50:42Z</time>
      </trkpt>
      <trkpt lat="43.3796" lon="6.7215">
        <ele>4.8</ele>
        <time>2023-05-16T14:50:43Z</time>
      </trkpt>
      <trkpt lat="43.37958" lon="6.7215">
        <ele>4.8</ele>
        <time>2023-05-16T14:50:44Z</time>
      </trkpt>
      <trkpt lat="43.37957" lon="6.7215">
        <ele>4.9</ele>
        <time>2023-05-16T14:50:46Z</time>
      </trkpt>
      <trkpt lat="43.37956" lon="6.72151">
        <ele>4.9</ele>
        <time>2023-05-16T14:50:47Z</time>
      </trkpt>
      <trkpt lat="43.37956" lon="6.7215">
        <ele>4.9</ele>
        <time>2023-05-16T14:50:48Z</time>
      </trkpt>
      <trkpt lat="43.37957" lon="6.7215">
        <ele>4.9</ele>
        <time>2023-05-16T14:50:50Z</time>
      </trkpt>
      <trkpt lat="43.37957" lon="6.7215">
        <ele>4.9</ele>
        <time>2023-05-16T14:50:51Z</time>
      </trkpt>
      <trkpt lat="43.37957" lon="6.7215">
        <ele>4.9</ele>
        <time>2023-05-16T14:50:52Z</time>
      </trkpt>
      <trkpt lat="43.37957" lon="6.7215">
        <ele>4.9</ele>
        <time>2023-05-16T14:50:54Z</time>
      </trkpt>
      <trkpt lat="43.37958" lon="6.7215">
        <ele>4.9</ele>
        <time>2023-05-16T14:50:55Z</time>
      </trkpt>
      <trkpt lat="43.37958" lon="6.7215">
        <ele>4.9</ele>
        <time>2023-05-16T14:50:56Z</time>
      </trkpt>
      <trkpt lat="43.37958" lon="6.7215">
        <ele>4.9</ele>
        <time>2023-05-16T14:50:58Z</time>
      </trkpt>
      <trkpt lat="43.37958" lon="6.72149">
        <ele>4.9</ele>
        <time>2023-05-16T14:50:59Z</time>
      </trkpt>
      <trkpt lat="43.37957" lon="6.72149">
        <ele>4.9</ele>
        <time>2023-05-16T14:51:00Z</time>
      </trkpt>
      <trkpt lat="43.37957" lon="6.72149">
        <ele>4.9</ele>
        <time>2023-05-16T14:51:01Z</time>
      </trkpt>
      <trkpt lat="43.37957" lon="6.72148">
        <ele>4.9</ele>
        <time>2023-05-16T14:51:03Z</time>
      </trkpt>
      <trkpt lat="43.37957" lon="6.72146">
        <ele>4.9</ele>
        <time>2023-05-16T14:51:04Z</time>
      </trkpt>
      <trkpt lat="43.37955" lon="6.72145">
        <ele>4.9</ele>
        <time>2023-05-16T14:51:05Z</time>
      </trkpt>
      <trkpt lat="43.37954" lon="6.72146">
        <ele>4.9</ele>
        <time>2023-05-16T14:51:06Z</time>
      </trkpt>
      <trkpt lat="43.37953" lon="6.72146">
        <ele>4.9</ele>
        <time>2023-05-16T14:51:07Z</time>
      </trkpt>
      <trkpt lat="43.37952" lon="6.72147">
        <ele>4.9</ele>
        <time>2023-05-16T14:51:08Z</time>
      </trkpt>
      <trkpt lat="43.37952" lon="6.72148">
        <ele>4.9</ele>
        <time>2023-05-16T14:51:09Z</time>
      </trkpt>
      <trkpt lat="43.37953" lon="6.72148">
        <ele>4.9</ele>
        <time>2023-05-16T14:51:10Z</time>
      </trkpt>
      <trkpt lat="43.37953" lon="6.72148">
        <ele>4.8</ele>
        <time>2023-05-16T14:51:11Z</time>
      </trkpt>
      <trkpt lat="43.37953" lon="6.72148">
        <ele>4.8</ele>
        <time>2023-05-16T14:51:12Z</time>
      </trkpt>
      <trkpt lat="43.37953" lon="6.72148">
        <ele>4.8</ele>
        <time>2023-05-16T14:51:13Z</time>
      </trkpt>
      <trkpt lat="43.37953" lon="6.72148">
        <ele>4.8</ele>
        <time>2023-05-16T14:51:14Z</time>
      </trkpt>
      <trkpt lat="43.37953" lon="6.72149">
        <ele>4.8</ele>
        <time>2023-05-16T14:51:15Z</time>
      </trkpt>
      <trkpt lat="43.37954" lon="6.72149">
        <ele>4.8</ele>
        <time>2023-05-16T14:51:16Z</time>
      </trkpt>
      <trkpt lat="43.37954" lon="6.72149">
        <ele>4.8</ele>
        <time>2023-05-16T14:51:17Z</time>
      </trkpt>
      <trkpt lat="43.37954" lon="6.72149">
        <ele>4.8</ele>
        <time>2023-05-16T14:51:18Z</time>
      </trkpt>
      <trkpt lat="43.37954" lon="6.72149">
        <ele>4.8</ele>
        <time>2023-05-16T14:51:19Z</time>
      </trkpt>
      <trkpt lat="43.37954" lon="6.72149">
        <ele>4.8</ele>
        <time>2023-05-16T14:51:20Z</time>
      </trkpt>
      <trkpt lat="43.37954" lon="6.72149">
        <ele>4.8</ele>
        <time>2023-05-16T14:51:21Z</time>
      </trkpt>
      <trkpt lat="43.37954" lon="6.72149">
        <ele>4.8</ele>
        <time>2023-05-16T14:51:22Z</time>
      </trkpt>
      <trkpt lat="43.37954" lon="6.72149">
        <ele>4.8</ele>
        <time>2023-05-16T14:51:23Z</time>
      </trkpt>
      <trkpt lat="43.37954" lon="6.72149">
        <ele>4.8</ele>
        <time>2023-05-16T14:51:24Z</time>
      </trkpt>
      <trkpt lat="43.37954" lon="6.72149">
        <ele>4.8</ele>
        <time>2023-05-16T14:51:25Z</time>
      </trkpt>
      <trkpt lat="43.37954" lon="6.72149">
        <ele>4.8</ele>
        <time>2023-05-16T14:51:26Z</time>
      </trkpt>
      <trkpt lat="43.37954" lon="6.72149">
        <ele>4.8</ele>
        <time>2023-05-16T14:51:27Z</time>
      </trkpt>
      <trkpt lat="43.37954" lon="6.72149">
        <ele>4.8</ele>
        <time>2023-05-16T14:51:28Z</time>
      </trkpt>
      <trkpt lat="43.37954" lon="6.72149">
        <ele>4.8</ele>
        <time>2023-05-16T14:51:29Z</time>
      </trkpt>
      <trkpt lat="43.37954" lon="6.72149">
        <ele>4.8</ele>
        <time>2023-05-16T14:51:30Z</time>
      </trkpt>
      <trkpt lat="43.37954" lon="6.72149">
        <ele>4.8</ele>
        <time>2023-05-16T14:51:31Z</time>
      </trkpt>
      <trkpt lat="43.37954" lon="6.72149">
        <ele>4.8</ele>
        <time>2023-05-16T14:51:32Z</time>
      </trkpt>
      <trkpt lat="43.37954" lon="6.72149">
        <ele>4.8</ele>
        <time>2023-05-16T14:51:33Z</time>
      </trkpt>
      <trkpt lat="43.37954" lon="6.72149">
        <ele>4.8</ele>
        <time>2023-05-16T14:51:34Z</time>
      </trkpt>
      <trkpt lat="43.37954" lon="6.72149">
        <ele>4.8</ele>
        <time>2023-05-16T14:51:35Z</time>
      </trkpt>
      <trkpt lat="43.37954" lon="6.72149">
        <ele>4.8</ele>
        <time>2023-05-16T14:51:36Z</time>
      </trkpt>
      <trkpt lat="43.37954" lon="6.72149">
        <ele>4.8</ele>
        <time>2023-05-16T14:51:37Z</time>
      </trkpt>
      <trkpt lat="43.37954" lon="6.72149">
        <ele>4.8</ele>
        <time>2023-05-16T14:51:38Z</time>
      </trkpt>
      <trkpt lat="43.37954" lon="6.72149">
        <ele>4.8</ele>
        <time>2023-05-16T14:51:39Z</time>
      </trkpt>
      <trkpt lat="43.37954" lon="6.72149">
        <ele>4.8</ele>
        <time>2023-05-16T14:51:40Z</time>
      </trkpt>
      <trkpt lat="43.37955" lon="6.72149">
        <ele>4.8</ele>
        <time>2023-05-16T14:51:41Z</time>
      </trkpt>
      <trkpt lat="43.37955" lon="6.72149">
        <ele>4.8</ele>
        <time>2023-05-16T14:51:42Z</time>
      </trkpt>
      <trkpt lat="43.37955" lon="6.72149">
        <ele>4.8</ele>
        <time>2023-05-16T14:51:43Z</time>
      </trkpt>
      <trkpt lat="43.37955" lon="6.72149">
        <ele>4.8</ele>
        <time>2023-05-16T14:51:44Z</time>
      </trkpt>
      <trkpt lat="43.37955" lon="6.72149">
        <ele>4.8</ele>
        <time>2023-05-16T14:51:45Z</time>
      </trkpt>
      <trkpt lat="43.37955" lon="6.7215">
        <ele>4.8</ele>
        <time>2023-05-16T14:51:46Z</time>
      </trkpt>
      <trkpt lat="43.37954" lon="6.7215">
        <ele>4.8</ele>
        <time>2023-05-16T14:51:47Z</time>
      </trkpt>
      <trkpt lat="43.37955" lon="6.72149">
        <ele>4.8</ele>
        <time>2023-05-16T14:51:48Z</time>
      </trkpt>
      <trkpt lat="43.37955" lon="6.72148">
        <ele>4.8</ele>
        <time>2023-05-16T14:51:49Z</time>
      </trkpt>
      <trkpt lat="43.37956" lon="6.72147">
        <ele>4.8</ele>
        <time>2023-05-16T14:51:50Z</time>
      </trkpt>
      <trkpt lat="43.37956" lon="6.72147">
        <ele>4.8</ele>
        <time>2023-05-16T14:51:51Z</time>
      </trkpt>
      <trkpt lat="43.37955" lon="6.72148">
        <ele>4.8</ele>
        <time>2023-05-16T14:51:52Z</time>
      </trkpt>
      <trkpt lat="43.37955" lon="6.72149">
        <ele>4.8</ele>
        <time>2023-05-16T14:51:54Z</time>
      </trkpt>
      <trkpt lat="43.37955" lon="6.72149">
        <ele>4.8</ele>
        <time>2023-05-16T14:51:55Z</time>
      </trkpt>
      <trkpt lat="43.37955" lon="6.72149">
        <ele>4.7</ele>
        <time>2023-05-16T14:51:56Z</time>
      </trkpt>
      <trkpt lat="43.37955" lon="6.72149">
        <ele>4.7</ele>
        <time>2023-05-16T14:51:57Z</time>
      </trkpt>
      <trkpt lat="43.37955" lon="6.72149">
        <ele>4.7</ele>
        <time>2023-05-16T14:51:59Z</time>
      </trkpt>
      <trkpt lat="43.37955" lon="6.72149">
        <ele>4.7</ele>
        <time>2023-05-16T14:52:00Z</time>
      </trkpt>
      <trkpt lat="43.37955" lon="6.7215">
        <ele>4.7</ele>
        <time>2023-05-16T14:52:01Z</time>
      </trkpt>
      <trkpt lat="43.37956" lon="6.7215">
        <ele>4.7</ele>
        <time>2023-05-16T14:52:02Z</time>
      </trkpt>
      <trkpt lat="43.37956" lon="6.7215">
        <ele>4.7</ele>
        <time>2023-05-16T14:52:03Z</time>
      </trkpt>
      <trkpt lat="43.37956" lon="6.72151">
        <ele>4.7</ele>
        <time>2023-05-16T14:52:05Z</time>
      </trkpt>
      <trkpt lat="43.37955" lon="6.72151">
        <ele>4.7</ele>
        <time>2023-05-16T14:52:06Z</time>
      </trkpt>
      <trkpt lat="43.37955" lon="6.72151">
        <ele>4.7</ele>
        <time>2023-05-16T14:52:07Z</time>
      </trkpt>
      <trkpt lat="43.37954" lon="6.72151">
        <ele>4.7</ele>
        <time>2023-05-16T14:52:08Z</time>
      </trkpt>
      <trkpt lat="43.37953" lon="6.72152">
        <ele>4.7</ele>
        <time>2023-05-16T14:52:09Z</time>
      </trkpt>
      <trkpt lat="43.37952" lon="6.72152">
        <ele>4.7</ele>
        <time>2023-05-16T14:52:10Z</time>
      </trkpt>
      <trkpt lat="43.37952" lon="6.72153">
        <ele>4.6</ele>
        <time>2023-05-16T14:52:11Z</time>
      </trkpt>
      <trkpt lat="43.37951" lon="6.72152">
        <ele>4.6</ele>
        <time>2023-05-16T14:52:12Z</time>
      </trkpt>
      <trkpt lat="43.3795" lon="6.72152">
        <ele>4.6</ele>
        <time>2023-05-16T14:52:13Z</time>
      </trkpt>
      <trkpt lat="43.37949" lon="6.72151">
        <ele>4.6</ele>
        <time>2023-05-16T14:52:15Z</time>
      </trkpt>
      <trkpt lat="43.37949" lon="6.7215">
        <ele>4.6</ele>
        <time>2023-05-16T14:52:16Z</time>
      </trkpt>
      <trkpt lat="43.37948" lon="6.72149">
        <ele>4.6</ele>
        <time>2023-05-16T14:52:18Z</time>
      </trkpt>
      <trkpt lat="43.37948" lon="6.72148">
        <ele>4.6</ele>
        <time>2023-05-16T14:52:19Z</time>
      </trkpt>
      <trkpt lat="43.37947" lon="6.72148">
        <ele>4.6</ele>
        <time>2023-05-16T14:52:20Z</time>
      </trkpt>
      <trkpt lat="43.37947" lon="6.72149">
        <ele>4.6</ele>
        <time>2023-05-16T14:52:21Z</time>
      </trkpt>
      <trkpt lat="43.37947" lon="6.72149">
        <ele>4.6</ele>
        <time>2023-05-16T14:52:23Z</time>
      </trkpt>
      <trkpt lat="43.37946" lon="6.7215">
        <ele>4.5</ele>
        <time>2023-05-16T14:52:24Z</time>
      </trkpt>
      <trkpt lat="43.37945" lon="6.7215">
        <ele>4.5</ele>
        <time>2023-05-16T14:52:25Z</time>
      </trkpt>
      <trkpt lat="43.37945" lon="6.7215">
        <ele>4.5</ele>
        <time>2023-05-16T14:52:26Z</time>
      </trkpt>
      <trkpt lat="43.37944" lon="6.7215">
        <ele>4.5</ele>
        <time>2023-05-16T14:52:28Z</time>
      </trkpt>
      <trkpt lat="43.37943" lon="6.7215">
        <ele>4.5</ele>
        <time>2023-05-16T14:52:29Z</time>
      </trkpt>
      <trkpt lat="43.37942" lon="6.7215">
        <ele>4.5</ele>
        <time>2023-05-16T14:52:30Z</time>
      </trkpt>
      <trkpt lat="43.37942" lon="6.72149">
        <ele>4.5</ele>
        <time>2023-05-16T14:52:31Z</time>
      </trkpt>
      <trkpt lat="43.37943" lon="6.7215">
        <ele>4.5</ele>
        <time>2023-05-16T14:52:33Z</time>
      </trkpt>
      <trkpt lat="43.37942" lon="6.7215">
        <ele>4.5</ele>
        <time>2023-05-16T14:52:34Z</time>
      </trkpt>
      <trkpt lat="43.37942" lon="6.72149">
        <ele>4.5</ele>
        <time>2023-05-16T14:52:35Z</time>
      </trkpt>
      <trkpt lat="43.37942" lon="6.72149">
        <ele>4.5</ele>
        <time>2023-05-16T14:52:36Z</time>
      </trkpt>
      <trkpt lat="43.37941" lon="6.72148">
        <ele>4.5</ele>
        <time>2023-05-16T14:52:38Z</time>
      </trkpt>
      <trkpt lat="43.37941" lon="6.72148">
        <ele>4.5</ele>
        <time>2023-05-16T14:52:39Z</time>
      </trkpt>
      <trkpt lat="43.37941" lon="6.72148">
        <ele>4.5</ele>
        <time>2023-05-16T14:52:41Z</time>
      </trkpt>
      <trkpt lat="43.37941" lon="6.72147">
        <ele>4.5</ele>
        <time>2023-05-16T14:52:42Z</time>
      </trkpt>
      <trkpt lat="43.37941" lon="6.72147">
        <ele>4.5</ele>
        <time>2023-05-16T14:52:43Z</time>
      </trkpt>
      <trkpt lat="43.37941" lon="6.72146">
        <ele>4.5</ele>
        <time>2023-05-16T14:52:45Z</time>
      </trkpt>
      <trkpt lat="43.37941" lon="6.72146">
        <ele>4.5</ele>
        <time>2023-05-16T14:52:46Z</time>
      </trkpt>
      <trkpt lat="43.37941" lon="6.72146">
        <ele>4.5</ele>
        <time>2023-05-16T14:52:47Z</time>
      </trkpt>
      <trkpt lat="43.37941" lon="6.72145">
        <ele>4.5</ele>
        <time>2023-05-16T14:52:48Z</time>
      </trkpt>
      <trkpt lat="43.37941" lon="6.72145">
        <ele>4.5</ele>
        <time>2023-05-16T14:52:50Z</time>
      </trkpt>
      <trkpt lat="43.37941" lon="6.72144">
        <ele>4.5</ele>
        <time>2023-05-16T14:52:51Z</time>
      </trkpt>
      <trkpt lat="43.37942" lon="6.72143">
        <ele>4.5</ele>
        <time>2023-05-16T14:52:52Z</time>
      </trkpt>
      <trkpt lat="43.37942" lon="6.72142">
        <ele>4.5</ele>
        <time>2023-05-16T14:52:53Z</time>
      </trkpt>
      <trkpt lat="43.37942" lon="6.72141">
        <ele>4.5</ele>
        <time>2023-05-16T14:52:55Z</time>
      </trkpt>
      <trkpt lat="43.37942" lon="6.72141">
        <ele>4.5</ele>
        <time>2023-05-16T14:52:56Z</time>
      </trkpt>
      <trkpt lat="43.37942" lon="6.72141">
        <ele>4.5</ele>
        <time>2023-05-16T14:52:58Z</time>
      </trkpt>
      <trkpt lat="43.37942" lon="6.72141">
        <ele>4.5</ele>
        <time>2023-05-16T14:52:59Z</time>
      </trkpt>
      <trkpt lat="43.37942" lon="6.72141">
        <ele>4.5</ele>
        <time>2023-05-16T14:53:00Z</time>
      </trkpt>
      <trkpt lat="43.37942" lon="6.72142">
        <ele>4.5</ele>
        <time>2023-05-16T14:53:02Z</time>
      </trkpt>
      <trkpt lat="43.37942" lon="6.72142">
        <ele>4.5</ele>
        <time>2023-05-16T14:53:03Z</time>
      </trkpt>
      <trkpt lat="43.37942" lon="6.72142">
        <ele>4.5</ele>
        <time>2023-05-16T14:53:04Z</time>
      </trkpt>
      <trkpt lat="43.37942" lon="6.72142">
        <ele>4.5</ele>
        <time>2023-05-16T14:53:06Z</time>
      </trkpt>
      <trkpt lat="43.37942" lon="6.72142">
        <ele>4.5</ele>
        <time>2023-05-16T14:53:07Z</time>
      </trkpt>
      <trkpt lat="43.37942" lon="6.72142">
        <ele>4.5</ele>
        <time>2023-05-16T14:53:08Z</time>
      </trkpt>
      <trkpt lat="43.37942" lon="6.72142">
        <ele>4.5</ele>
        <time>2023-05-16T14:53:09Z</time>
      </trkpt>
      <trkpt lat="43.37942" lon="6.72142">
        <ele>4.5</ele>
        <time>2023-05-16T14:53:10Z</time>
      </trkpt>
      <trkpt lat="43.37941" lon="6.72142">
        <ele>4.5</ele>
        <time>2023-05-16T14:53:12Z</time>
      </trkpt>
      <trkpt lat="43.37941" lon="6.72142">
        <ele>4.5</ele>
        <time>2023-05-16T14:53:13Z</time>
      </trkpt>
      <trkpt lat="43.37941" lon="6.72142">
        <ele>4.5</ele>
        <time>2023-05-16T14:53:15Z</time>
      </trkpt>
      <trkpt lat="43.37941" lon="6.72142">
        <ele>4.5</ele>
        <time>2023-05-16T14:53:16Z</time>
      </trkpt>
      <trkpt lat="43.37941" lon="6.72142">
        <ele>4.5</ele>
        <time>2023-05-16T14:53:17Z</time>
      </trkpt>
      <trkpt lat="43.37941" lon="6.72143">
        <ele>4.5</ele>
        <time>2023-05-16T14:53:18Z</time>
      </trkpt>
      <trkpt lat="43.37941" lon="6.72143">
        <ele>4.5</ele>
        <time>2023-05-16T14:53:19Z</time>
      </trkpt>
      <trkpt lat="43.3794" lon="6.72143">
        <ele>4.5</ele>
        <time>2023-05-16T14:53:20Z</time>
      </trkpt>
      <trkpt lat="43.3794" lon="6.72143">
        <ele>4.5</ele>
        <time>2023-05-16T14:53:21Z</time>
      </trkpt>
      <trkpt lat="43.3794" lon="6.72143">
        <ele>4.5</ele>
        <time>2023-05-16T14:53:22Z</time>
      </trkpt>
      <trkpt lat="43.3794" lon="6.72141">
        <ele>4.5</ele>
        <time>2023-05-16T14:53:23Z</time>
      </trkpt>
      <trkpt lat="43.3794" lon="6.72141">
        <ele>4.5</ele>
        <time>2023-05-16T14:53:24Z</time>
      </trkpt>
      <trkpt lat="43.37939" lon="6.72141">
        <ele>4.5</ele>
        <time>2023-05-16T14:53:26Z</time>
      </trkpt>
      <trkpt lat="43.37938" lon="6.72141">
        <ele>4.5</ele>
        <time>2023-05-16T14:53:28Z</time>
      </trkpt>
      <trkpt lat="43.37937" lon="6.72141">
        <ele>4.5</ele>
        <time>2023-05-16T14:53:29Z</time>
      </trkpt>
      <trkpt lat="43.37936" lon="6.72141">
        <ele>4.5</ele>
        <time>2023-05-16T14:53:30Z</time>
      </trkpt>
      <trkpt lat="43.37935" lon="6.72141">
        <ele>4.5</ele>
        <time>2023-05-16T14:53:31Z</time>
      </trkpt>
      <trkpt lat="43.37935" lon="6.72141">
        <ele>4.5</ele>
        <time>2023-05-16T14:53:33Z</time>
      </trkpt>
      <trkpt lat="43.37935" lon="6.72141">
        <ele>4.5</ele>
        <time>2023-05-16T14:53:34Z</time>
      </trkpt>
      <trkpt lat="43.37935" lon="6.72141">
        <ele>4.5</ele>
        <time>2023-05-16T14:53:36Z</time>
      </trkpt>
      <trkpt lat="43.37934" lon="6.72141">
        <ele>4.5</ele>
        <time>2023-05-16T14:53:37Z</time>
      </trkpt>
      <trkpt lat="43.37934" lon="6.72142">
        <ele>4.5</ele>
        <time>2023-05-16T14:53:38Z</time>
      </trkpt>
      <trkpt lat="43.37934" lon="6.72142">
        <ele>4.5</ele>
        <time>2023-05-16T14:53:39Z</time>
      </trkpt>
      <trkpt lat="43.37934" lon="6.72142">
        <ele>4.5</ele>
        <time>2023-05-16T14:53:40Z</time>
      </trkpt>
      <trkpt lat="43.37934" lon="6.72142">
        <ele>4.5</ele>
        <time>2023-05-16T14:53:41Z</time>
      </trkpt>
      <trkpt lat="43.37933" lon="6.72142">
        <ele>4.5</ele>
        <time>2023-05-16T14:53:43Z</time>
      </trkpt>
      <trkpt lat="43.37933" lon="6.72142">
        <ele>4.5</ele>
        <time>2023-05-16T14:53:45Z</time>
      </trkpt>
      <trkpt lat="43.37933" lon="6.72142">
        <ele>4.5</ele>
        <time>2023-05-16T14:53:46Z</time>
      </trkpt>
      <trkpt lat="43.37933" lon="6.72142">
        <ele>4.5</ele>
        <time>2023-05-16T14:53:47Z</time>
      </trkpt>
      <trkpt lat="43.37932" lon="6.72142">
        <ele>4.5</ele>
        <time>2023-05-16T14:53:49Z</time>
      </trkpt>
      <trkpt lat="43.37932" lon="6.72142">
        <ele>4.5</ele>
        <time>2023-05-16T14:53:50Z</time>
      </trkpt>
      <trkpt lat="43.37932" lon="6.72142">
        <ele>4.5</ele>
        <time>2023-05-16T14:53:51Z</time>
      </trkpt>
      <trkpt lat="43.37932" lon="6.72142">
        <ele>4.5</ele>
        <time>2023-05-16T14:53:53Z</time>
      </trkpt>
      <trkpt lat="43.37932" lon="6.72142">
        <ele>4.5</ele>
        <time>2023-05-16T14:53:54Z</time>
      </trkpt>
      <trkpt lat="43.37931" lon="6.72142">
        <ele>4.5</ele>
        <time>2023-05-16T14:53:55Z</time>
      </trkpt>
      <trkpt lat="43.37931" lon="6.72142">
        <ele>4.5</ele>
        <time>2023-05-16T14:53:57Z</time>
      </trkpt>
      <trkpt lat="43.37931" lon="6.72142">
        <ele>4.5</ele>
        <time>2023-05-16T14:53:58Z</time>
      </trkpt>
      <trkpt lat="43.37931" lon="6.72142">
        <ele>4.5</ele>
        <time>2023-05-16T14:53:59Z</time>
      </trkpt>
      <trkpt lat="43.37931" lon="6.72142">
        <ele>4.5</ele>
        <time>2023-05-16T14:54:00Z</time>
      </trkpt>
      <trkpt lat="43.3793" lon="6.72142">
        <ele>4.6</ele>
        <time>2023-05-16T14:54:02Z</time>
      </trkpt>
      <trkpt lat="43.3793" lon="6.72142">
        <ele>4.6</ele>
        <time>2023-05-16T14:54:03Z</time>
      </trkpt>
      <trkpt lat="43.3793" lon="6.72142">
        <ele>4.6</ele>
        <time>2023-05-16T14:54:04Z</time>
      </trkpt>
      <trkpt lat="43.3793" lon="6.72142">
        <ele>4.6</ele>
        <time>2023-05-16T14:54:05Z</time>
      </trkpt>
      <trkpt lat="43.37929" lon="6.72142">
        <ele>4.6</ele>
        <time>2023-05-16T14:54:06Z</time>
      </trkpt>
      <trkpt lat="43.37929" lon="6.72142">
        <ele>4.6</ele>
        <time>2023-05-16T14:54:07Z</time>
      </trkpt>
      <trkpt lat="43.37929" lon="6.72142">
        <ele>4.6</ele>
        <time>2023-05-16T14:54:09Z</time>
      </trkpt>
      <trkpt lat="43.37929" lon="6.72142">
        <ele>4.6</ele>
        <time>2023-05-16T14:54:10Z</time>
      </trkpt>
      <trkpt lat="43.37926" lon="6.72143">
        <ele>4.6</ele>
        <time>2023-05-16T14:54:11Z</time>
      </trkpt>
      <trkpt lat="43.37925" lon="6.72144">
        <ele>4.6</ele>
        <time>2023-05-16T14:54:12Z</time>
      </trkpt>
      <trkpt lat="43.37924" lon="6.72144">
        <ele>4.6</ele>
        <time>2023-05-16T14:54:13Z</time>
      </trkpt>
      <trkpt lat="43.37925" lon="6.72143">
        <ele>4.6</ele>
        <time>2023-05-16T14:54:14Z</time>
      </trkpt>
      <trkpt lat="43.37925" lon="6.72143">
        <ele>4.6</ele>
        <time>2023-05-16T14:54:15Z</time>
      </trkpt>
      <trkpt lat="43.37925" lon="6.72142">
        <ele>4.6</ele>
        <time>2023-05-16T14:54:16Z</time>
      </trkpt>
      <trkpt lat="43.37926" lon="6.72142">
        <ele>4.6</ele>
        <time>2023-05-16T14:54:17Z</time>
      </trkpt>
      <trkpt lat="43.37925" lon="6.72142">
        <ele>4.6</ele>
        <time>2023-05-16T14:54:18Z</time>
      </trkpt>
      <trkpt lat="43.37924" lon="6.72141">
        <ele>4.6</ele>
        <time>2023-05-16T14:54:19Z</time>
      </trkpt>
      <trkpt lat="43.37923" lon="6.72141">
        <ele>4.6</ele>
        <time>2023-05-16T14:54:20Z</time>
      </trkpt>
      <trkpt lat="43.37923" lon="6.7214">
        <ele>4.6</ele>
        <time>2023-05-16T14:54:21Z</time>
      </trkpt>
      <trkpt lat="43.37922" lon="6.72139">
        <ele>4.7</ele>
        <time>2023-05-16T14:54:22Z</time>
      </trkpt>
      <trkpt lat="43.37921" lon="6.72138">
        <ele>4.7</ele>
        <time>2023-05-16T14:54:23Z</time>
      </trkpt>
      <trkpt lat="43.37921" lon="6.72138">
        <ele>4.7</ele>
        <time>2023-05-16T14:54:24Z</time>
      </trkpt>
      <trkpt lat="43.37922" lon="6.72139">
        <ele>4.7</ele>
        <time>2023-05-16T14:54:25Z</time>
      </trkpt>
      <trkpt lat="43.37921" lon="6.72138">
        <ele>4.7</ele>
        <time>2023-05-16T14:54:27Z</time>
      </trkpt>
      <trkpt lat="43.37921" lon="6.72138">
        <ele>4.7</ele>
        <time>2023-05-16T14:54:28Z</time>
      </trkpt>
      <trkpt lat="43.37921" lon="6.72138">
        <ele>4.7</ele>
        <time>2023-05-16T14:54:29Z</time>
      </trkpt>
      <trkpt lat="43.37921" lon="6.72138">
        <ele>4.7</ele>
        <time>2023-05-16T14:54:30Z</time>
      </trkpt>
      <trkpt lat="43.3792" lon="6.72139">
        <ele>4.7</ele>
        <time>2023-05-16T14:54:32Z</time>
      </trkpt>
      <trkpt lat="43.37919" lon="6.72139">
        <ele>4.7</ele>
        <time>2023-05-16T14:54:33Z</time>
      </trkpt>
      <trkpt lat="43.37919" lon="6.72139">
        <ele>4.7</ele>
        <time>2023-05-16T14:54:34Z</time>
      </trkpt>
      <trkpt lat="43.3792" lon="6.7214">
        <ele>4.7</ele>
        <time>2023-05-16T14:54:35Z</time>
      </trkpt>
      <trkpt lat="43.3792" lon="6.7214">
        <ele>4.7</ele>
        <time>2023-05-16T14:54:36Z</time>
      </trkpt>
      <trkpt lat="43.3792" lon="6.7214">
        <ele>4.7</ele>
        <time>2023-05-16T14:54:38Z</time>
      </trkpt>
      <trkpt lat="43.37919" lon="6.72138">
        <ele>4.7</ele>
        <time>2023-05-16T14:54:40Z</time>
      </trkpt>
      <trkpt lat="43.37919" lon="6.72138">
        <ele>4.7</ele>
        <time>2023-05-16T14:54:41Z</time>
      </trkpt>
      <trkpt lat="43.37919" lon="6.72138">
        <ele>4.7</ele>
        <time>2023-05-16T14:54:42Z</time>
      </trkpt>
      <trkpt lat="43.37919" lon="6.72138">
        <ele>4.7</ele>
        <time>2023-05-16T14:54:44Z</time>
      </trkpt>
      <trkpt lat="43.37918" lon="6.72136">
        <ele>4.8</ele>
        <time>2023-05-16T14:54:45Z</time>
      </trkpt>
      <trkpt lat="43.37918" lon="6.72136">
        <ele>4.8</ele>
        <time>2023-05-16T14:54:46Z</time>
      </trkpt>
      <trkpt lat="43.37918" lon="6.72135">
        <ele>4.8</ele>
        <time>2023-05-16T14:54:47Z</time>
      </trkpt>
      <trkpt lat="43.37918" lon="6.72135">
        <ele>4.8</ele>
        <time>2023-05-16T14:54:49Z</time>
      </trkpt>
      <trkpt lat="43.37918" lon="6.72134">
        <ele>4.8</ele>
        <time>2023-05-16T14:54:50Z</time>
      </trkpt>
      <trkpt lat="43.37918" lon="6.72134">
        <ele>4.8</ele>
        <time>2023-05-16T14:54:51Z</time>
      </trkpt>
      <trkpt lat="43.37918" lon="6.72132">
        <ele>4.8</ele>
        <time>2023-05-16T14:54:53Z</time>
      </trkpt>
      <trkpt lat="43.37917" lon="6.72132">
        <ele>4.8</ele>
        <time>2023-05-16T14:54:54Z</time>
      </trkpt>
      <trkpt lat="43.37917" lon="6.72131">
        <ele>4.9</ele>
        <time>2023-05-16T14:54:55Z</time>
      </trkpt>
      <trkpt lat="43.37918" lon="6.72131">
        <ele>4.9</ele>
        <time>2023-05-16T14:54:57Z</time>
      </trkpt>
      <trkpt lat="43.37918" lon="6.72131">
        <ele>4.9</ele>
        <time>2023-05-16T14:54:58Z</time>
      </trkpt>
      <trkpt lat="43.37918" lon="6.72131">
        <ele>4.9</ele>
        <time>2023-05-16T14:54:59Z</time>
      </trkpt>
      <trkpt lat="43.37918" lon="6.72132">
        <ele>4.9</ele>
        <time>2023-05-16T14:55:00Z</time>
      </trkpt>
      <trkpt lat="43.37917" lon="6.72132">
        <ele>4.9</ele>
        <time>2023-05-16T14:55:02Z</time>
      </trkpt>
      <trkpt lat="43.37917" lon="6.72132">
        <ele>4.9</ele>
        <time>2023-05-16T14:55:03Z</time>
      </trkpt>
      <trkpt lat="43.37917" lon="6.72131">
        <ele>4.9</ele>
        <time>2023-05-16T14:55:04Z</time>
      </trkpt>
      <trkpt lat="43.37917" lon="6.72131">
        <ele>5</ele>
        <time>2023-05-16T14:55:05Z</time>
      </trkpt>
      <trkpt lat="43.37917" lon="6.7213">
        <ele>5</ele>
        <time>2023-05-16T14:55:06Z</time>
      </trkpt>
      <trkpt lat="43.37916" lon="6.72129">
        <ele>5</ele>
        <time>2023-05-16T14:55:08Z</time>
      </trkpt>
      <trkpt lat="43.37917" lon="6.72127">
        <ele>5</ele>
        <time>2023-05-16T14:55:10Z</time>
      </trkpt>
      <trkpt lat="43.37918" lon="6.72126">
        <ele>5.1</ele>
        <time>2023-05-16T14:55:11Z</time>
      </trkpt>
      <trkpt lat="43.37919" lon="6.72124">
        <ele>5.1</ele>
        <time>2023-05-16T14:55:12Z</time>
      </trkpt>
      <trkpt lat="43.3792" lon="6.72124">
        <ele>5.2</ele>
        <time>2023-05-16T14:55:13Z</time>
      </trkpt>
      <trkpt lat="43.37921" lon="6.72123">
        <ele>5.2</ele>
        <time>2023-05-16T14:55:15Z</time>
      </trkpt>
      <trkpt lat="43.37923" lon="6.72122">
        <ele>5.3</ele>
        <time>2023-05-16T14:55:16Z</time>
      </trkpt>
      <trkpt lat="43.37923" lon="6.72122">
        <ele>5.3</ele>
        <time>2023-05-16T14:55:17Z</time>
      </trkpt>
      <trkpt lat="43.37923" lon="6.72122">
        <ele>5.3</ele>
        <time>2023-05-16T14:55:18Z</time>
      </trkpt>
      <trkpt lat="43.37922" lon="6.72119">
        <ele>5.4</ele>
        <time>2023-05-16T14:55:19Z</time>
      </trkpt>
      <trkpt lat="43.3792" lon="6.72117">
        <ele>5.5</ele>
        <time>2023-05-16T14:55:21Z</time>
      </trkpt>
      <trkpt lat="43.37919" lon="6.72117">
        <ele>5.6</ele>
        <time>2023-05-16T14:55:22Z</time>
      </trkpt>
      <trkpt lat="43.37917" lon="6.72117">
        <ele>5.7</ele>
        <time>2023-05-16T14:55:23Z</time>
      </trkpt>
      <trkpt lat="43.37915" lon="6.72117">
        <ele>5.8</ele>
        <time>2023-05-16T14:55:25Z</time>
      </trkpt>
      <trkpt lat="43.37914" lon="6.72117">
        <ele>5.8</ele>
        <time>2023-05-16T14:55:26Z</time>
      </trkpt>
      <trkpt lat="43.37913" lon="6.72119">
        <ele>5.9</ele>
        <time>2023-05-16T14:55:28Z</time>
      </trkpt>
      <trkpt lat="43.37913" lon="6.72119">
        <ele>5.9</ele>
        <time>2023-05-16T14:55:29Z</time>
      </trkpt>
      <trkpt lat="43.37912" lon="6.7212">
        <ele>5.9</ele>
        <time>2023-05-16T14:55:30Z</time>
      </trkpt>
      <trkpt lat="43.37912" lon="6.72121">
        <ele>6</ele>
        <time>2023-05-16T14:55:31Z</time>
      </trkpt>
      <trkpt lat="43.37912" lon="6.72122">
        <ele>6</ele>
        <time>2023-05-16T14:55:33Z</time>
      </trkpt>
      <trkpt lat="43.37911" lon="6.72122">
        <ele>6.1</ele>
        <time>2023-05-16T14:55:34Z</time>
      </trkpt>
      <trkpt lat="43.37911" lon="6.72123">
        <ele>6.1</ele>
        <time>2023-05-16T14:55:35Z</time>
      </trkpt>
      <trkpt lat="43.37911" lon="6.72123">
        <ele>6.1</ele>
        <time>2023-05-16T14:55:37Z</time>
      </trkpt>
      <trkpt lat="43.37911" lon="6.72123">
        <ele>6.1</ele>
        <time>2023-05-16T14:55:38Z</time>
      </trkpt>
      <trkpt lat="43.37911" lon="6.72123">
        <ele>6.1</ele>
        <time>2023-05-16T14:55:39Z</time>
      </trkpt>
      <trkpt lat="43.37911" lon="6.72123">
        <ele>6.1</ele>
        <time>2023-05-16T14:55:40Z</time>
      </trkpt>
      <trkpt lat="43.37912" lon="6.72123">
        <ele>6.1</ele>
        <time>2023-05-16T14:55:42Z</time>
      </trkpt>
      <trkpt lat="43.37912" lon="6.72124">
        <ele>6.1</ele>
        <time>2023-05-16T14:55:43Z</time>
      </trkpt>
      <trkpt lat="43.37912" lon="6.72124">
        <ele>6.1</ele>
        <time>2023-05-16T14:55:45Z</time>
      </trkpt>
      <trkpt lat="43.37912" lon="6.72124">
        <ele>6.1</ele>
        <time>2023-05-16T14:55:46Z</time>
      </trkpt>
      <trkpt lat="43.37912" lon="6.72124">
        <ele>6.1</ele>
        <time>2023-05-16T14:55:47Z</time>
      </trkpt>
      <trkpt lat="43.37912" lon="6.72124">
        <ele>6.1</ele>
        <time>2023-05-16T14:55:48Z</time>
      </trkpt>
      <trkpt lat="43.37912" lon="6.72124">
        <ele>6.1</ele>
        <time>2023-05-16T14:55:50Z</time>
      </trkpt>
      <trkpt lat="43.37912" lon="6.72125">
        <ele>6.2</ele>
        <time>2023-05-16T14:55:51Z</time>
      </trkpt>
      <trkpt lat="43.37912" lon="6.72125">
        <ele>6.2</ele>
        <time>2023-05-16T14:55:52Z</time>
      </trkpt>
      <trkpt lat="43.37912" lon="6.72124">
        <ele>6.2</ele>
        <time>2023-05-16T14:55:53Z</time>
      </trkpt>
      <trkpt lat="43.37912" lon="6.72123">
        <ele>6.2</ele>
        <time>2023-05-16T14:55:54Z</time>
      </trkpt>
      <trkpt lat="43.37912" lon="6.72121">
        <ele>6.3</ele>
        <time>2023-05-16T14:55:55Z</time>
      </trkpt>
      <trkpt lat="43.37912" lon="6.7212">
        <ele>6.3</ele>
        <time>2023-05-16T14:55:56Z</time>
      </trkpt>
      <trkpt lat="43.37912" lon="6.7212">
        <ele>6.4</ele>
        <time>2023-05-16T14:55:58Z</time>
      </trkpt>
      <trkpt lat="43.37912" lon="6.72121">
        <ele>6.4</ele>
        <time>2023-05-16T14:55:59Z</time>
      </trkpt>
      <trkpt lat="43.37912" lon="6.72121">
        <ele>6.4</ele>
        <time>2023-05-16T14:56:00Z</time>
      </trkpt>
      <trkpt lat="43.37913" lon="6.72121">
        <ele>6.4</ele>
        <time>2023-05-16T14:56:02Z</time>
      </trkpt>
      <trkpt lat="43.37913" lon="6.72121">
        <ele>6.4</ele>
        <time>2023-05-16T14:56:03Z</time>
      </trkpt>
      <trkpt lat="43.37913" lon="6.72121">
        <ele>6.4</ele>
        <time>2023-05-16T14:56:04Z</time>
      </trkpt>
      <trkpt lat="43.37913" lon="6.72121">
        <ele>6.4</ele>
        <time>2023-05-16T14:56:05Z</time>
      </trkpt>
      <trkpt lat="43.37913" lon="6.72121">
        <ele>6.4</ele>
        <time>2023-05-16T14:56:07Z</time>
      </trkpt>
      <trkpt lat="43.37913" lon="6.72121">
        <ele>6.4</ele>
        <time>2023-05-16T14:56:08Z</time>
      </trkpt>
      <trkpt lat="43.37913" lon="6.72121">
        <ele>6.4</ele>
        <time>2023-05-16T14:56:09Z</time>
      </trkpt>
      <trkpt lat="43.37913" lon="6.72121">
        <ele>6.4</ele>
        <time>2023-05-16T14:56:10Z</time>
      </trkpt>
      <trkpt lat="43.37913" lon="6.72121">
        <ele>6.4</ele>
        <time>2023-05-16T14:56:12Z</time>
      </trkpt>
      <trkpt lat="43.37913" lon="6.72121">
        <ele>6.4</ele>
        <time>2023-05-16T14:56:13Z</time>
      </trkpt>
      <trkpt lat="43.37914" lon="6.7212">
        <ele>6.5</ele>
        <time>2023-05-16T14:56:14Z</time>
      </trkpt>
      <trkpt lat="43.37914" lon="6.7212">
        <ele>6.5</ele>
        <time>2023-05-16T14:56:15Z</time>
      </trkpt>
      <trkpt lat="43.37915" lon="6.7212">
        <ele>6.5</ele>
        <time>2023-05-16T14:56:16Z</time>
      </trkpt>
      <trkpt lat="43.37915" lon="6.7212">
        <ele>6.5</ele>
        <time>2023-05-16T14:56:17Z</time>
      </trkpt>
      <trkpt lat="43.37915" lon="6.7212">
        <ele>6.5</ele>
        <time>2023-05-16T14:56:18Z</time>
      </trkpt>
      <trkpt lat="43.37915" lon="6.7212">
        <ele>6.5</ele>
        <time>2023-05-16T14:56:19Z</time>
      </trkpt>
      <trkpt lat="43.37915" lon="6.7212">
        <ele>6.5</ele>
        <time>2023-05-16T14:56:20Z</time>
      </trkpt>
      <trkpt lat="43.37915" lon="6.7212">
        <ele>6.5</ele>
        <time>2023-05-16T14:56:21Z</time>
      </trkpt>
      <trkpt lat="43.37915" lon="6.7212">
        <ele>6.5</ele>
        <time>2023-05-16T14:56:22Z</time>
      </trkpt>
      <trkpt lat="43.37915" lon="6.72119">
        <ele>6.5</ele>
        <time>2023-05-16T14:56:23Z</time>
      </trkpt>
      <trkpt lat="43.37915" lon="6.72118">
        <ele>6.6</ele>
        <time>2023-05-16T14:56:24Z</time>
      </trkpt>
      <trkpt lat="43.37915" lon="6.72117">
        <ele>6.6</ele>
        <time>2023-05-16T14:56:25Z</time>
      </trkpt>
      <trkpt lat="43.37914" lon="6.72118">
        <ele>6.6</ele>
        <time>2023-05-16T14:56:26Z</time>
      </trkpt>
      <trkpt lat="43.37915" lon="6.72117">
        <ele>6.6</ele>
        <time>2023-05-16T14:56:27Z</time>
      </trkpt>
      <trkpt lat="43.37915" lon="6.72115">
        <ele>6.7</ele>
        <time>2023-05-16T14:56:29Z</time>
      </trkpt>
      <trkpt lat="43.37915" lon="6.72111">
        <ele>6.8</ele>
        <time>2023-05-16T14:56:30Z</time>
      </trkpt>
      <trkpt lat="43.37915" lon="6.72109">
        <ele>6.8</ele>
        <time>2023-05-16T14:56:31Z</time>
      </trkpt>
      <trkpt lat="43.37915" lon="6.72109">
        <ele>6.8</ele>
        <time>2023-05-16T14:56:32Z</time>
      </trkpt>
      <trkpt lat="43.37915" lon="6.72107">
        <ele>6.9</ele>
        <time>2023-05-16T14:56:33Z</time>
      </trkpt>
      <trkpt lat="43.37914" lon="6.72106">
        <ele>6.9</ele>
        <time>2023-05-16T14:56:34Z</time>
      </trkpt>
      <trkpt lat="43.37914" lon="6.72104">
        <ele>6.9</ele>
        <time>2023-05-16T14:56:36Z</time>
      </trkpt>
      <trkpt lat="43.37914" lon="6.72104">
        <ele>6.9</ele>
        <time>2023-05-16T14:56:37Z</time>
      </trkpt>
      <trkpt lat="43.37914" lon="6.72103">
        <ele>6.9</ele>
        <time>2023-05-16T14:56:38Z</time>
      </trkpt>
      <trkpt lat="43.37914" lon="6.72103">
        <ele>7</ele>
        <time>2023-05-16T14:56:40Z</time>
      </trkpt>
      <trkpt lat="43.37914" lon="6.72103">
        <ele>7</ele>
        <time>2023-05-16T14:56:41Z</time>
      </trkpt>
      <trkpt lat="43.37915" lon="6.72103">
        <ele>7</ele>
        <time>2023-05-16T14:56:42Z</time>
      </trkpt>
      <trkpt lat="43.37915" lon="6.72103">
        <ele>7</ele>
        <time>2023-05-16T14:56:44Z</time>
      </trkpt>
      <trkpt lat="43.37914" lon="6.72103">
        <ele>7</ele>
        <time>2023-05-16T14:56:45Z</time>
      </trkpt>
      <trkpt lat="43.37914" lon="6.72102">
        <ele>7</ele>
        <time>2023-05-16T14:56:46Z</time>
      </trkpt>
      <trkpt lat="43.37913" lon="6.72102">
        <ele>7</ele>
        <time>2023-05-16T14:56:47Z</time>
      </trkpt>
      <trkpt lat="43.37911" lon="6.72101">
        <ele>7.1</ele>
        <time>2023-05-16T14:56:49Z</time>
      </trkpt>
      <trkpt lat="43.37909" lon="6.72102">
        <ele>7.1</ele>
        <time>2023-05-16T14:56:50Z</time>
      </trkpt>
      <trkpt lat="43.37908" lon="6.72102">
        <ele>7.1</ele>
        <time>2023-05-16T14:56:51Z</time>
      </trkpt>
      <trkpt lat="43.37907" lon="6.72103">
        <ele>7.1</ele>
        <time>2023-05-16T14:56:52Z</time>
      </trkpt>
      <trkpt lat="43.37906" lon="6.72103">
        <ele>7.2</ele>
        <time>2023-05-16T14:56:53Z</time>
      </trkpt>
      <trkpt lat="43.37904" lon="6.72103">
        <ele>7.2</ele>
        <time>2023-05-16T14:56:55Z</time>
      </trkpt>
      <trkpt lat="43.37903" lon="6.72103">
        <ele>7.2</ele>
        <time>2023-05-16T14:56:57Z</time>
      </trkpt>
      <trkpt lat="43.37902" lon="6.72102">
        <ele>7.2</ele>
        <time>2023-05-16T14:56:58Z</time>
      </trkpt>
      <trkpt lat="43.37902" lon="6.72099">
        <ele>7.2</ele>
        <time>2023-05-16T14:56:59Z</time>
      </trkpt>
      <trkpt lat="43.37902" lon="6.72098">
        <ele>7.2</ele>
        <time>2023-05-16T14:57:00Z</time>
      </trkpt>
      <trkpt lat="43.37901" lon="6.72097">
        <ele>7.3</ele>
        <time>2023-05-16T14:57:01Z</time>
      </trkpt>
      <trkpt lat="43.37902" lon="6.72096">
        <ele>7.3</ele>
        <time>2023-05-16T14:57:02Z</time>
      </trkpt>
      <trkpt lat="43.37902" lon="6.72094">
        <ele>7.3</ele>
        <time>2023-05-16T14:57:03Z</time>
      </trkpt>
      <trkpt lat="43.37902" lon="6.72092">
        <ele>7.3</ele>
        <time>2023-05-16T14:57:05Z</time>
      </trkpt>
      <trkpt lat="43.37902" lon="6.7209">
        <ele>7.3</ele>
        <time>2023-05-16T14:57:06Z</time>
      </trkpt>
      <trkpt lat="43.37903" lon="6.72089">
        <ele>7.3</ele>
        <time>2023-05-16T14:57:07Z</time>
      </trkpt>
      <trkpt lat="43.37903" lon="6.72088">
        <ele>7.3</ele>
        <time>2023-05-16T14:57:08Z</time>
      </trkpt>
      <trkpt lat="43.37904" lon="6.72087">
        <ele>7.3</ele>
        <time>2023-05-16T14:57:09Z</time>
      </trkpt>
      <trkpt lat="43.37905" lon="6.72086">
        <ele>7.3</ele>
        <time>2023-05-16T14:57:10Z</time>
      </trkpt>
      <trkpt lat="43.37905" lon="6.72084">
        <ele>7.3</ele>
        <time>2023-05-16T14:57:12Z</time>
      </trkpt>
      <trkpt lat="43.37906" lon="6.72084">
        <ele>7.3</ele>
        <time>2023-05-16T14:57:13Z</time>
      </trkpt>
      <trkpt lat="43.37906" lon="6.72082">
        <ele>7.3</ele>
        <time>2023-05-16T14:57:14Z</time>
      </trkpt>
      <trkpt lat="43.37906" lon="6.72081">
        <ele>7.3</ele>
        <time>2023-05-16T14:57:15Z</time>
      </trkpt>
      <trkpt lat="43.37905" lon="6.7208">
        <ele>7.3</ele>
        <time>2023-05-16T14:57:16Z</time>
      </trkpt>
      <trkpt lat="43.37904" lon="6.72079">
        <ele>7.3</ele>
        <time>2023-05-16T14:57:17Z</time>
      </trkpt>
      <trkpt lat="43.37903" lon="6.72078">
        <ele>7.3</ele>
        <time>2023-05-16T14:57:18Z</time>
      </trkpt>
      <trkpt lat="43.379" lon="6.72078">
        <ele>7.3</ele>
        <time>2023-05-16T14:57:20Z</time>
      </trkpt>
      <trkpt lat="43.37899" lon="6.72078">
        <ele>7.3</ele>
        <time>2023-05-16T14:57:22Z</time>
      </trkpt>
      <trkpt lat="43.37898" lon="6.72078">
        <ele>7.3</ele>
        <time>2023-05-16T14:57:23Z</time>
      </trkpt>
      <trkpt lat="43.37897" lon="6.72077">
        <ele>7.3</ele>
        <time>2023-05-16T14:57:24Z</time>
      </trkpt>
      <trkpt lat="43.37896" lon="6.72076">
        <ele>7.3</ele>
        <time>2023-05-16T14:57:25Z</time>
      </trkpt>
      <trkpt lat="43.37896" lon="6.72074">
        <ele>7.3</ele>
        <time>2023-05-16T14:57:26Z</time>
      </trkpt>
      <trkpt lat="43.37895" lon="6.72073">
        <ele>7.3</ele>
        <time>2023-05-16T14:57:28Z</time>
      </trkpt>
      <trkpt lat="43.37895" lon="6.72072">
        <ele>7.3</ele>
        <time>2023-05-16T14:57:29Z</time>
      </trkpt>
      <trkpt lat="43.37895" lon="6.72071">
        <ele>7.3</ele>
        <time>2023-05-16T14:57:30Z</time>
      </trkpt>
      <trkpt lat="43.37894" lon="6.7207">
        <ele>7.3</ele>
        <time>2023-05-16T14:57:31Z</time>
      </trkpt>
      <trkpt lat="43.37893" lon="6.7207">
        <ele>7.3</ele>
        <time>2023-05-16T14:57:32Z</time>
      </trkpt>
      <trkpt lat="43.37893" lon="6.72071">
        <ele>7.3</ele>
        <time>2023-05-16T14:57:33Z</time>
      </trkpt>
      <trkpt lat="43.37893" lon="6.72072">
        <ele>7.3</ele>
        <time>2023-05-16T14:57:35Z</time>
      </trkpt>
      <trkpt lat="43.37894" lon="6.72072">
        <ele>7.3</ele>
        <time>2023-05-16T14:57:36Z</time>
      </trkpt>
      <trkpt lat="43.37894" lon="6.72073">
        <ele>7.3</ele>
        <time>2023-05-16T14:57:38Z</time>
      </trkpt>
      <trkpt lat="43.37895" lon="6.72073">
        <ele>7.3</ele>
        <time>2023-05-16T14:57:39Z</time>
      </trkpt>
      <trkpt lat="43.37895" lon="6.72074">
        <ele>7.3</ele>
        <time>2023-05-16T14:57:40Z</time>
      </trkpt>
      <trkpt lat="43.37895" lon="6.72074">
        <ele>7.3</ele>
        <time>2023-05-16T14:57:42Z</time>
      </trkpt>
      <trkpt lat="43.37895" lon="6.72074">
        <ele>7.3</ele>
        <time>2023-05-16T14:57:43Z</time>
      </trkpt>
      <trkpt lat="43.37895" lon="6.72074">
        <ele>7.3</ele>
        <time>2023-05-16T14:57:44Z</time>
      </trkpt>
      <trkpt lat="43.37895" lon="6.72075">
        <ele>7.3</ele>
        <time>2023-05-16T14:57:46Z</time>
      </trkpt>
      <trkpt lat="43.37895" lon="6.72075">
        <ele>7.3</ele>
        <time>2023-05-16T14:57:47Z</time>
      </trkpt>
      <trkpt lat="43.37895" lon="6.72075">
        <ele>7.3</ele>
        <time>2023-05-16T14:57:48Z</time>
      </trkpt>
      <trkpt lat="43.37896" lon="6.72075">
        <ele>7.3</ele>
        <time>2023-05-16T14:57:49Z</time>
      </trkpt>
      <trkpt lat="43.37896" lon="6.72075">
        <ele>7.3</ele>
        <time>2023-05-16T14:57:51Z</time>
      </trkpt>
      <trkpt lat="43.37896" lon="6.72074">
        <ele>7.3</ele>
        <time>2023-05-16T14:57:52Z</time>
      </trkpt>
      <trkpt lat="43.37896" lon="6.72074">
        <ele>7.3</ele>
        <time>2023-05-16T14:57:53Z</time>
      </trkpt>
      <trkpt lat="43.37896" lon="6.72073">
        <ele>7.3</ele>
        <time>2023-05-16T14:57:54Z</time>
      </trkpt>
      <trkpt lat="43.37897" lon="6.72073">
        <ele>7.3</ele>
        <time>2023-05-16T14:57:55Z</time>
      </trkpt>
      <trkpt lat="43.37897" lon="6.72072">
        <ele>7.3</ele>
        <time>2023-05-16T14:57:56Z</time>
      </trkpt>
      <trkpt lat="43.37899" lon="6.72071">
        <ele>7.3</ele>
        <time>2023-05-16T14:57:57Z</time>
      </trkpt>
      <trkpt lat="43.37899" lon="6.7207">
        <ele>7.3</ele>
        <time>2023-05-16T14:57:58Z</time>
      </trkpt>
      <trkpt lat="43.37899" lon="6.72068">
        <ele>7.3</ele>
        <time>2023-05-16T14:58:00Z</time>
      </trkpt>
      <trkpt lat="43.379" lon="6.72067">
        <ele>7.2</ele>
        <time>2023-05-16T14:58:01Z</time>
      </trkpt>
      <trkpt lat="43.37901" lon="6.72065">
        <ele>7.2</ele>
        <time>2023-05-16T14:58:03Z</time>
      </trkpt>
      <trkpt lat="43.37901" lon="6.72064">
        <ele>7.2</ele>
        <time>2023-05-16T14:58:04Z</time>
      </trkpt>
      <trkpt lat="43.37901" lon="6.72064">
        <ele>7.2</ele>
        <time>2023-05-16T14:58:05Z</time>
      </trkpt>
      <trkpt lat="43.37901" lon="6.72063">
        <ele>7.2</ele>
        <time>2023-05-16T14:58:06Z</time>
      </trkpt>
      <trkpt lat="43.37901" lon="6.72062">
        <ele>7.2</ele>
        <time>2023-05-16T14:58:07Z</time>
      </trkpt>
      <trkpt lat="43.37901" lon="6.7206">
        <ele>7.2</ele>
        <time>2023-05-16T14:58:09Z</time>
      </trkpt>
      <trkpt lat="43.37901" lon="6.72059">
        <ele>7.2</ele>
        <time>2023-05-16T14:58:10Z</time>
      </trkpt>
      <trkpt lat="43.379" lon="6.72057">
        <ele>7.2</ele>
        <time>2023-05-16T14:58:11Z</time>
      </trkpt>
      <trkpt lat="43.379" lon="6.72056">
        <ele>7.2</ele>
        <time>2023-05-16T14:58:12Z</time>
      </trkpt>
      <trkpt lat="43.37899" lon="6.72055">
        <ele>7.2</ele>
        <time>2023-05-16T14:58:14Z</time>
      </trkpt>
      <trkpt lat="43.37899" lon="6.72055">
        <ele>7.2</ele>
        <time>2023-05-16T14:58:15Z</time>
      </trkpt>
      <trkpt lat="43.37898" lon="6.72055">
        <ele>7.2</ele>
        <time>2023-05-16T14:58:16Z</time>
      </trkpt>
      <trkpt lat="43.37898" lon="6.72056">
        <ele>7.2</ele>
        <time>2023-05-16T14:58:17Z</time>
      </trkpt>
      <trkpt lat="43.37898" lon="6.72055">
        <ele>7.2</ele>
        <time>2023-05-16T14:58:19Z</time>
      </trkpt>
      <trkpt lat="43.37898" lon="6.72055">
        <ele>7.2</ele>
        <time>2023-05-16T14:58:20Z</time>
      </trkpt>
      <trkpt lat="43.37898" lon="6.72056">
        <ele>7.2</ele>
        <time>2023-05-16T14:58:22Z</time>
      </trkpt>
      <trkpt lat="43.37898" lon="6.72056">
        <ele>7.2</ele>
        <time>2023-05-16T14:58:23Z</time>
      </trkpt>
      <trkpt lat="43.37898" lon="6.72056">
        <ele>7.2</ele>
        <time>2023-05-16T14:58:24Z</time>
      </trkpt>
      <trkpt lat="43.37898" lon="6.72056">
        <ele>7.1</ele>
        <time>2023-05-16T14:58:26Z</time>
      </trkpt>
      <trkpt lat="43.37898" lon="6.72057">
        <ele>7.1</ele>
        <time>2023-05-16T14:58:27Z</time>
      </trkpt>
      <trkpt lat="43.37898" lon="6.72057">
        <ele>7.1</ele>
        <time>2023-05-16T14:58:28Z</time>
      </trkpt>
      <trkpt lat="43.37898" lon="6.72057">
        <ele>7.1</ele>
        <time>2023-05-16T14:58:30Z</time>
      </trkpt>
      <trkpt lat="43.37898" lon="6.72057">
        <ele>7.1</ele>
        <time>2023-05-16T14:58:31Z</time>
      </trkpt>
      <trkpt lat="43.37898" lon="6.72057">
        <ele>7.1</ele>
        <time>2023-05-16T14:58:32Z</time>
      </trkpt>
      <trkpt lat="43.37898" lon="6.72057">
        <ele>7.1</ele>
        <time>2023-05-16T14:58:33Z</time>
      </trkpt>
      <trkpt lat="43.37899" lon="6.72057">
        <ele>7.1</ele>
        <time>2023-05-16T14:58:35Z</time>
      </trkpt>
      <trkpt lat="43.37899" lon="6.72057">
        <ele>7.1</ele>
        <time>2023-05-16T14:58:36Z</time>
      </trkpt>
      <trkpt lat="43.37899" lon="6.72058">
        <ele>7.1</ele>
        <time>2023-05-16T14:58:37Z</time>
      </trkpt>
      <trkpt lat="43.37899" lon="6.72058">
        <ele>7.1</ele>
        <time>2023-05-16T14:58:38Z</time>
      </trkpt>
      <trkpt lat="43.37899" lon="6.72058">
        <ele>7.1</ele>
        <time>2023-05-16T14:58:39Z</time>
      </trkpt>
      <trkpt lat="43.37899" lon="6.72058">
        <ele>7.1</ele>
        <time>2023-05-16T14:58:40Z</time>
      </trkpt>
      <trkpt lat="43.37899" lon="6.72058">
        <ele>7.1</ele>
        <time>2023-05-16T14:58:41Z</time>
      </trkpt>
      <trkpt lat="43.37899" lon="6.72058">
        <ele>7.1</ele>
        <time>2023-05-16T14:58:42Z</time>
      </trkpt>
      <trkpt lat="43.37899" lon="6.72058">
        <ele>7.1</ele>
        <time>2023-05-16T14:58:43Z</time>
      </trkpt>
      <trkpt lat="43.37899" lon="6.72058">
        <ele>7.1</ele>
        <time>2023-05-16T14:58:44Z</time>
      </trkpt>
      <trkpt lat="43.37899" lon="6.72058">
        <ele>7.1</ele>
        <time>2023-05-16T14:58:45Z</time>
      </trkpt>
      <trkpt lat="43.37899" lon="6.72058">
        <ele>7.1</ele>
        <time>2023-05-16T14:58:46Z</time>
      </trkpt>
      <trkpt lat="43.37899" lon="6.72058">
        <ele>7.1</ele>
        <time>2023-05-16T14:58:47Z</time>
      </trkpt>
      <trkpt lat="43.37899" lon="6.72058">
        <ele>7.1</ele>
        <time>2023-05-16T14:58:48Z</time>
      </trkpt>
      <trkpt lat="43.37899" lon="6.72058">
        <ele>7.1</ele>
        <time>2023-05-16T14:58:49Z</time>
      </trkpt>
      <trkpt lat="43.37899" lon="6.72058">
        <ele>7.1</ele>
        <time>2023-05-16T14:58:50Z</time>
      </trkpt>
      <trkpt lat="43.37899" lon="6.72058">
        <ele>7.1</ele>
        <time>2023-05-16T14:58:51Z</time>
      </trkpt>
      <trkpt lat="43.37899" lon="6.72058">
        <ele>7.1</ele>
        <time>2023-05-16T14:58:52Z</time>
      </trkpt>
      <trkpt lat="43.37899" lon="6.72058">
        <ele>7.1</ele>
        <time>2023-05-16T14:58:53Z</time>
      </trkpt>
      <trkpt lat="43.37899" lon="6.72058">
        <ele>7.1</ele>
        <time>2023-05-16T14:58:54Z</time>
      </trkpt>
      <trkpt lat="43.37898" lon="6.72057">
        <ele>7.1</ele>
        <time>2023-05-16T14:58:55Z</time>
      </trkpt>
      <trkpt lat="43.37898" lon="6.72057">
        <ele>7.1</ele>
        <time>2023-05-16T14:58:56Z</time>
      </trkpt>
      <trkpt lat="43.37897" lon="6.72057">
        <ele>7.1</ele>
        <time>2023-05-16T14:58:57Z</time>
      </trkpt>
      <trkpt lat="43.37897" lon="6.72057">
        <ele>7.1</ele>
        <time>2023-05-16T14:58:58Z</time>
      </trkpt>
      <trkpt lat="43.37897" lon="6.72058">
        <ele>7.1</ele>
        <time>2023-05-16T14:58:59Z</time>
      </trkpt>
      <trkpt lat="43.37896" lon="6.72058">
        <ele>7.1</ele>
        <time>2023-05-16T14:59:00Z</time>
      </trkpt>
      <trkpt lat="43.37896" lon="6.72058">
        <ele>7.1</ele>
        <time>2023-05-16T14:59:01Z</time>
      </trkpt>
      <trkpt lat="43.37896" lon="6.72058">
        <ele>7.1</ele>
        <time>2023-05-16T14:59:02Z</time>
      </trkpt>
      <trkpt lat="43.37896" lon="6.72058">
        <ele>7.1</ele>
        <time>2023-05-16T14:59:03Z</time>
      </trkpt>
      <trkpt lat="43.37896" lon="6.72058">
        <ele>7.1</ele>
        <time>2023-05-16T14:59:04Z</time>
      </trkpt>
      <trkpt lat="43.37896" lon="6.72058">
        <ele>7.1</ele>
        <time>2023-05-16T14:59:05Z</time>
      </trkpt>
      <trkpt lat="43.37896" lon="6.72058">
        <ele>7.1</ele>
        <time>2023-05-16T14:59:06Z</time>
      </trkpt>
      <trkpt lat="43.37896" lon="6.72058">
        <ele>7.1</ele>
        <time>2023-05-16T14:59:07Z</time>
      </trkpt>
      <trkpt lat="43.37896" lon="6.72058">
        <ele>7.1</ele>
        <time>2023-05-16T14:59:08Z</time>
      </trkpt>
      <trkpt lat="43.37896" lon="6.72058">
        <ele>7.1</ele>
        <time>2023-05-16T14:59:09Z</time>
      </trkpt>
      <trkpt lat="43.37896" lon="6.72058">
        <ele>7.1</ele>
        <time>2023-05-16T14:59:10Z</time>
      </trkpt>
      <trkpt lat="43.37896" lon="6.72058">
        <ele>7.1</ele>
        <time>2023-05-16T14:59:11Z</time>
      </trkpt>
      <trkpt lat="43.37896" lon="6.72058">
        <ele>7.1</ele>
        <time>2023-05-16T14:59:12Z</time>
      </trkpt>
      <trkpt lat="43.37896" lon="6.72058">
        <ele>7.1</ele>
        <time>2023-05-16T14:59:13Z</time>
      </trkpt>
      <trkpt lat="43.37896" lon="6.72058">
        <ele>7.1</ele>
        <time>2023-05-16T14:59:14Z</time>
      </trkpt>
      <trkpt lat="43.37896" lon="6.72058">
        <ele>7.1</ele>
        <time>2023-05-16T14:59:15Z</time>
      </trkpt>
      <trkpt lat="43.37896" lon="6.72058">
        <ele>7.1</ele>
        <time>2023-05-16T14:59:16Z</time>
      </trkpt>
      <trkpt lat="43.37896" lon="6.72058">
        <ele>7.1</ele>
        <time>2023-05-16T14:59:17Z</time>
      </trkpt>
      <trkpt lat="43.37896" lon="6.72058">
        <ele>7.1</ele>
        <time>2023-05-16T14:59:18Z</time>
      </trkpt>
      <trkpt lat="43.37896" lon="6.72058">
        <ele>7.1</ele>
        <time>2023-05-16T14:59:19Z</time>
      </trkpt>
      <trkpt lat="43.37896" lon="6.72058">
        <ele>7.1</ele>
        <time>2023-05-16T14:59:20Z</time>
      </trkpt>
      <trkpt lat="43.37896" lon="6.72058">
        <ele>7.1</ele>
        <time>2023-05-16T14:59:21Z</time>
      </trkpt>
      <trkpt lat="43.37896" lon="6.72058">
        <ele>7.1</ele>
        <time>2023-05-16T14:59:22Z</time>
      </trkpt>
      <trkpt lat="43.37897" lon="6.72057">
        <ele>7.1</ele>
        <time>2023-05-16T14:59:23Z</time>
      </trkpt>
      <trkpt lat="43.37897" lon="6.72057">
        <ele>7.1</ele>
        <time>2023-05-16T14:59:24Z</time>
      </trkpt>
      <trkpt lat="43.37897" lon="6.72057">
        <ele>7.1</ele>
        <time>2023-05-16T14:59:25Z</time>
      </trkpt>
      <trkpt lat="43.37897" lon="6.72057">
        <ele>7.1</ele>
        <time>2023-05-16T14:59:26Z</time>
      </trkpt>
      <trkpt lat="43.37897" lon="6.72057">
        <ele>7.1</ele>
        <time>2023-05-16T14:59:27Z</time>
      </trkpt>
      <trkpt lat="43.37897" lon="6.72057">
        <ele>7.1</ele>
        <time>2023-05-16T14:59:28Z</time>
      </trkpt>
      <trkpt lat="43.37897" lon="6.72057">
        <ele>7.1</ele>
        <time>2023-05-16T14:59:29Z</time>
      </trkpt>
      <trkpt lat="43.37897" lon="6.72057">
        <ele>7.1</ele>
        <time>2023-05-16T14:59:30Z</time>
      </trkpt>
      <trkpt lat="43.37897" lon="6.72058">
        <ele>7.1</ele>
        <time>2023-05-16T14:59:31Z</time>
      </trkpt>
      <trkpt lat="43.37898" lon="6.72058">
        <ele>7.1</ele>
        <time>2023-05-16T14:59:33Z</time>
      </trkpt>
      <trkpt lat="43.37899" lon="6.72058">
        <ele>7.1</ele>
        <time>2023-05-16T14:59:34Z</time>
      </trkpt>
      <trkpt lat="43.379" lon="6.72058">
        <ele>7.1</ele>
        <time>2023-05-16T14:59:35Z</time>
      </trkpt>
      <trkpt lat="43.37901" lon="6.72057">
        <ele>7.1</ele>
        <time>2023-05-16T14:59:36Z</time>
      </trkpt>
      <trkpt lat="43.37902" lon="6.72056">
        <ele>7</ele>
        <time>2023-05-16T14:59:37Z</time>
      </trkpt>
      <trkpt lat="43.37903" lon="6.72055">
        <ele>7</ele>
        <time>2023-05-16T14:59:38Z</time>
      </trkpt>
      <trkpt lat="43.37905" lon="6.72055">
        <ele>7</ele>
        <time>2023-05-16T14:59:40Z</time>
      </trkpt>
      <trkpt lat="43.37905" lon="6.72053">
        <ele>7</ele>
        <time>2023-05-16T14:59:42Z</time>
      </trkpt>
      <trkpt lat="43.37906" lon="6.72052">
        <ele>7</ele>
        <time>2023-05-16T14:59:43Z</time>
      </trkpt>
      <trkpt lat="43.37906" lon="6.72051">
        <ele>8.3</ele>
        <time>2023-05-16T14:59:44Z</time>
      </trkpt>
      <trkpt lat="43.37905" lon="6.7205">
        <ele>8.4</ele>
        <time>2023-05-16T14:59:45Z</time>
      </trkpt>
      <trkpt lat="43.37904" lon="6.7205">
        <ele>8.4</ele>
        <time>2023-05-16T14:59:46Z</time>
      </trkpt>
      <trkpt lat="43.37903" lon="6.7205">
        <ele>8.5</ele>
        <time>2023-05-16T14:59:48Z</time>
      </trkpt>
      <trkpt lat="43.37903" lon="6.7205">
        <ele>8.5</ele>
        <time>2023-05-16T14:59:49Z</time>
      </trkpt>
      <trkpt lat="43.37903" lon="6.72051">
        <ele>8.5</ele>
        <time>2023-05-16T14:59:51Z</time>
      </trkpt>
      <trkpt lat="43.37903" lon="6.72051">
        <ele>8.5</ele>
        <time>2023-05-16T14:59:52Z</time>
      </trkpt>
      <trkpt lat="43.37903" lon="6.72051">
        <ele>8.5</ele>
        <time>2023-05-16T14:59:53Z</time>
      </trkpt>
      <trkpt lat="43.37903" lon="6.72051">
        <ele>8.5</ele>
        <time>2023-05-16T14:59:55Z</time>
      </trkpt>
      <trkpt lat="43.37903" lon="6.72051">
        <ele>8.5</ele>
        <time>2023-05-16T14:59:56Z</time>
      </trkpt>
      <trkpt lat="43.37903" lon="6.72051">
        <ele>8.5</ele>
        <time>2023-05-16T14:59:57Z</time>
      </trkpt>
      <trkpt lat="43.37903" lon="6.72051">
        <ele>8.6</ele>
        <time>2023-05-16T14:59:58Z</time>
      </trkpt>
      <trkpt lat="43.37903" lon="6.72051">
        <ele>8.6</ele>
        <time>2023-05-16T15:00:00Z</time>
      </trkpt>
      <trkpt lat="43.37903" lon="6.72051">
        <ele>8.6</ele>
        <time>2023-05-16T15:00:01Z</time>
      </trkpt>
      <trkpt lat="43.37903" lon="6.72052">
        <ele>8.6</ele>
        <time>2023-05-16T15:00:02Z</time>
      </trkpt>
      <trkpt lat="43.37903" lon="6.72052">
        <ele>8.6</ele>
        <time>2023-05-16T15:00:03Z</time>
      </trkpt>
      <trkpt lat="43.37903" lon="6.72052">
        <ele>8.6</ele>
        <time>2023-05-16T15:00:04Z</time>
      </trkpt>
      <trkpt lat="43.37903" lon="6.72053">
        <ele>8.6</ele>
        <time>2023-05-16T15:00:05Z</time>
      </trkpt>
      <trkpt lat="43.37903" lon="6.72053">
        <ele>8.6</ele>
        <time>2023-05-16T15:00:06Z</time>
      </trkpt>
      <trkpt lat="43.37902" lon="6.72053">
        <ele>8.7</ele>
        <time>2023-05-16T15:00:07Z</time>
      </trkpt>
      <trkpt lat="43.37902" lon="6.72053">
        <ele>8.7</ele>
        <time>2023-05-16T15:00:08Z</time>
      </trkpt>
      <trkpt lat="43.37902" lon="6.72053">
        <ele>8.7</ele>
        <time>2023-05-16T15:00:09Z</time>
      </trkpt>
      <trkpt lat="43.37902" lon="6.72053">
        <ele>8.7</ele>
        <time>2023-05-16T15:00:10Z</time>
      </trkpt>
      <trkpt lat="43.37902" lon="6.72052">
        <ele>8.7</ele>
        <time>2023-05-16T15:00:11Z</time>
      </trkpt>
      <trkpt lat="43.37902" lon="6.72052">
        <ele>8.7</ele>
        <time>2023-05-16T15:00:12Z</time>
      </trkpt>
      <trkpt lat="43.37902" lon="6.72052">
        <ele>8.7</ele>
        <time>2023-05-16T15:00:13Z</time>
      </trkpt>
      <trkpt lat="43.37902" lon="6.72052">
        <ele>8.7</ele>
        <time>2023-05-16T15:00:14Z</time>
      </trkpt>
      <trkpt lat="43.37902" lon="6.72051">
        <ele>8.7</ele>
        <time>2023-05-16T15:00:15Z</time>
      </trkpt>
      <trkpt lat="43.37903" lon="6.7205">
        <ele>8.8</ele>
        <time>2023-05-16T15:00:16Z</time>
      </trkpt>
      <trkpt lat="43.37904" lon="6.72048">
        <ele>8.9</ele>
        <time>2023-05-16T15:00:17Z</time>
      </trkpt>
      <trkpt lat="43.37905" lon="6.72048">
        <ele>8.9</ele>
        <time>2023-05-16T15:00:19Z</time>
      </trkpt>
      <trkpt lat="43.37905" lon="6.72047">
        <ele>8.9</ele>
        <time>2023-05-16T15:00:20Z</time>
      </trkpt>
      <trkpt lat="43.37905" lon="6.72048">
        <ele>8.9</ele>
        <time>2023-05-16T15:00:21Z</time>
      </trkpt>
      <trkpt lat="43.37905" lon="6.72048">
        <ele>9</ele>
        <time>2023-05-16T15:00:23Z</time>
      </trkpt>
      <trkpt lat="43.37904" lon="6.72047">
        <ele>9</ele>
        <time>2023-05-16T15:00:24Z</time>
      </trkpt>
      <trkpt lat="43.37904" lon="6.72046">
        <ele>9</ele>
        <time>2023-05-16T15:00:25Z</time>
      </trkpt>
      <trkpt lat="43.37903" lon="6.72045">
        <ele>9.1</ele>
        <time>2023-05-16T15:00:26Z</time>
      </trkpt>
      <trkpt lat="43.37902" lon="6.72043">
        <ele>9.2</ele>
        <time>2023-05-16T15:00:27Z</time>
      </trkpt>
      <trkpt lat="43.37902" lon="6.72041">
        <ele>9.3</ele>
        <time>2023-05-16T15:00:28Z</time>
      </trkpt>
      <trkpt lat="43.37901" lon="6.72041">
        <ele>9.3</ele>
        <time>2023-05-16T15:00:29Z</time>
      </trkpt>
      <trkpt lat="43.37901" lon="6.72037">
        <ele>9.4</ele>
        <time>2023-05-16T15:00:31Z</time>
      </trkpt>
      <trkpt lat="43.37901" lon="6.72036">
        <ele>9.5</ele>
        <time>2023-05-16T15:00:33Z</time>
      </trkpt>
      <trkpt lat="43.37901" lon="6.72036">
        <ele>9.5</ele>
        <time>2023-05-16T15:00:34Z</time>
      </trkpt>
      <trkpt lat="43.37901" lon="6.72037">
        <ele>9.5</ele>
        <time>2023-05-16T15:00:35Z</time>
      </trkpt>
      <trkpt lat="43.37901" lon="6.72038">
        <ele>9.5</ele>
        <time>2023-05-16T15:00:36Z</time>
      </trkpt>
      <trkpt lat="43.37901" lon="6.72039">
        <ele>9.6</ele>
        <time>2023-05-16T15:00:38Z</time>
      </trkpt>
      <trkpt lat="43.37901" lon="6.72039">
        <ele>9.6</ele>
        <time>2023-05-16T15:00:39Z</time>
      </trkpt>
      <trkpt lat="43.37901" lon="6.72039">
        <ele>9.6</ele>
        <time>2023-05-16T15:00:41Z</time>
      </trkpt>
      <trkpt lat="43.37901" lon="6.72039">
        <ele>9.6</ele>
        <time>2023-05-16T15:00:42Z</time>
      </trkpt>
      <trkpt lat="43.37901" lon="6.72039">
        <ele>9.6</ele>
        <time>2023-05-16T15:00:43Z</time>
      </trkpt>
      <trkpt lat="43.37902" lon="6.72039">
        <ele>9.6</ele>
        <time>2023-05-16T15:00:44Z</time>
      </trkpt>
      <trkpt lat="43.37903" lon="6.7204">
        <ele>9.7</ele>
        <time>2023-05-16T15:00:45Z</time>
      </trkpt>
      <trkpt lat="43.37904" lon="6.7204">
        <ele>9.7</ele>
        <time>2023-05-16T15:00:46Z</time>
      </trkpt>
      <trkpt lat="43.37907" lon="6.72039">
        <ele>9.9</ele>
        <time>2023-05-16T15:00:47Z</time>
      </trkpt>
      <trkpt lat="43.37907" lon="6.72039">
        <ele>10</ele>
        <time>2023-05-16T15:00:48Z</time>
      </trkpt>
      <trkpt lat="43.37909" lon="6.72038">
        <ele>10</ele>
        <time>2023-05-16T15:00:49Z</time>
      </trkpt>
      <trkpt lat="43.3791" lon="6.72039">
        <ele>11.1</ele>
        <time>2023-05-16T15:00:50Z</time>
      </trkpt>
      <trkpt lat="43.37912" lon="6.7204">
        <ele>11.1</ele>
        <time>2023-05-16T15:00:52Z</time>
      </trkpt>
      <trkpt lat="43.37913" lon="6.7204">
        <ele>11.1</ele>
        <time>2023-05-16T15:00:53Z</time>
      </trkpt>
      <trkpt lat="43.37914" lon="6.72041">
        <ele>11.1</ele>
        <time>2023-05-16T15:00:54Z</time>
      </trkpt>
      <trkpt lat="43.37915" lon="6.72042">
        <ele>11.1</ele>
        <time>2023-05-16T15:00:55Z</time>
      </trkpt>
      <trkpt lat="43.37916" lon="6.72042">
        <ele>11.1</ele>
        <time>2023-05-16T15:00:56Z</time>
      </trkpt>
      <trkpt lat="43.37918" lon="6.72043">
        <ele>11.1</ele>
        <time>2023-05-16T15:00:57Z</time>
      </trkpt>
      <trkpt lat="43.37919" lon="6.72044">
        <ele>11.1</ele>
        <time>2023-05-16T15:00:58Z</time>
      </trkpt>
      <trkpt lat="43.37919" lon="6.72045">
        <ele>11.2</ele>
        <time>2023-05-16T15:00:59Z</time>
      </trkpt>
      <trkpt lat="43.3792" lon="6.72045">
        <ele>11.2</ele>
        <time>2023-05-16T15:01:00Z</time>
      </trkpt>
      <trkpt lat="43.37922" lon="6.72047">
        <ele>11.2</ele>
        <time>2023-05-16T15:01:02Z</time>
      </trkpt>
      <trkpt lat="43.37923" lon="6.72047">
        <ele>11.2</ele>
        <time>2023-05-16T15:01:03Z</time>
      </trkpt>
      <trkpt lat="43.37924" lon="6.72047">
        <ele>11.2</ele>
        <time>2023-05-16T15:01:04Z</time>
      </trkpt>
      <trkpt lat="43.37925" lon="6.72047">
        <ele>11.2</ele>
        <time>2023-05-16T15:01:05Z</time>
      </trkpt>
      <trkpt lat="43.37926" lon="6.72048">
        <ele>11.2</ele>
        <time>2023-05-16T15:01:06Z</time>
      </trkpt>
      <trkpt lat="43.37928" lon="6.72049">
        <ele>11.2</ele>
        <time>2023-05-16T15:01:07Z</time>
      </trkpt>
      <trkpt lat="43.37929" lon="6.7205">
        <ele>11.2</ele>
        <time>2023-05-16T15:01:09Z</time>
      </trkpt>
      <trkpt lat="43.37929" lon="6.72051">
        <ele>11.2</ele>
        <time>2023-05-16T15:01:10Z</time>
      </trkpt>
      <trkpt lat="43.37931" lon="6.72051">
        <ele>11.2</ele>
        <time>2023-05-16T15:01:11Z</time>
      </trkpt>
      <trkpt lat="43.37932" lon="6.72053">
        <ele>11.2</ele>
        <time>2023-05-16T15:01:12Z</time>
      </trkpt>
      <trkpt lat="43.37933" lon="6.72054">
        <ele>11.2</ele>
        <time>2023-05-16T15:01:13Z</time>
      </trkpt>
      <trkpt lat="43.37934" lon="6.72054">
        <ele>11.2</ele>
        <time>2023-05-16T15:01:14Z</time>
      </trkpt>
      <trkpt lat="43.37935" lon="6.72055">
        <ele>11.2</ele>
        <time>2023-05-16T15:01:15Z</time>
      </trkpt>
      <trkpt lat="43.37936" lon="6.72056">
        <ele>11.2</ele>
        <time>2023-05-16T15:01:16Z</time>
      </trkpt>
      <trkpt lat="43.37938" lon="6.72057">
        <ele>11.2</ele>
        <time>2023-05-16T15:01:17Z</time>
      </trkpt>
      <trkpt lat="43.37939" lon="6.72058">
        <ele>11.3</ele>
        <time>2023-05-16T15:01:18Z</time>
      </trkpt>
      <trkpt lat="43.37941" lon="6.72059">
        <ele>11.3</ele>
        <time>2023-05-16T15:01:20Z</time>
      </trkpt>
      <trkpt lat="43.37942" lon="6.7206">
        <ele>11.3</ele>
        <time>2023-05-16T15:01:21Z</time>
      </trkpt>
      <trkpt lat="43.37943" lon="6.72061">
        <ele>11.3</ele>
        <time>2023-05-16T15:01:22Z</time>
      </trkpt>
      <trkpt lat="43.37944" lon="6.72061">
        <ele>11.3</ele>
        <time>2023-05-16T15:01:23Z</time>
      </trkpt>
      <trkpt lat="43.37945" lon="6.72062">
        <ele>11.3</ele>
        <time>2023-05-16T15:01:24Z</time>
      </trkpt>
      <trkpt lat="43.37948" lon="6.72064">
        <ele>11.3</ele>
        <time>2023-05-16T15:01:26Z</time>
      </trkpt>
      <trkpt lat="43.3795" lon="6.72066">
        <ele>11.3</ele>
        <time>2023-05-16T15:01:28Z</time>
      </trkpt>
      <trkpt lat="43.37952" lon="6.72067">
        <ele>11.3</ele>
        <time>2023-05-16T15:01:29Z</time>
      </trkpt>
      <trkpt lat="43.37952" lon="6.72068">
        <ele>11.3</ele>
        <time>2023-05-16T15:01:30Z</time>
      </trkpt>
      <trkpt lat="43.37953" lon="6.72068">
        <ele>11.3</ele>
        <time>2023-05-16T15:01:31Z</time>
      </trkpt>
      <trkpt lat="43.37955" lon="6.72069">
        <ele>11.3</ele>
        <time>2023-05-16T15:01:32Z</time>
      </trkpt>
      <trkpt lat="43.37955" lon="6.7207">
        <ele>11.3</ele>
        <time>2023-05-16T15:01:33Z</time>
      </trkpt>
      <trkpt lat="43.37956" lon="6.72071">
        <ele>11.3</ele>
        <time>2023-05-16T15:01:34Z</time>
      </trkpt>
      <trkpt lat="43.37957" lon="6.72071">
        <ele>11.3</ele>
        <time>2023-05-16T15:01:35Z</time>
      </trkpt>
      <trkpt lat="43.37958" lon="6.72072">
        <ele>11.3</ele>
        <time>2023-05-16T15:01:36Z</time>
      </trkpt>
      <trkpt lat="43.3796" lon="6.72074">
        <ele>11.4</ele>
        <time>2023-05-16T15:01:38Z</time>
      </trkpt>
      <trkpt lat="43.37961" lon="6.72075">
        <ele>11.4</ele>
        <time>2023-05-16T15:01:39Z</time>
      </trkpt>
      <trkpt lat="43.37962" lon="6.72076">
        <ele>11.4</ele>
        <time>2023-05-16T15:01:40Z</time>
      </trkpt>
      <trkpt lat="43.37963" lon="6.72077">
        <ele>11.4</ele>
        <time>2023-05-16T15:01:41Z</time>
      </trkpt>
      <trkpt lat="43.37964" lon="6.72078">
        <ele>11.4</ele>
        <time>2023-05-16T15:01:42Z</time>
      </trkpt>
      <trkpt lat="43.37965" lon="6.72079">
        <ele>11.4</ele>
        <time>2023-05-16T15:01:43Z</time>
      </trkpt>
      <trkpt lat="43.37966" lon="6.7208">
        <ele>11.4</ele>
        <time>2023-05-16T15:01:44Z</time>
      </trkpt>
      <trkpt lat="43.37967" lon="6.72081">
        <ele>11.4</ele>
        <time>2023-05-16T15:01:45Z</time>
      </trkpt>
      <trkpt lat="43.37968" lon="6.72082">
        <ele>11.4</ele>
        <time>2023-05-16T15:01:47Z</time>
      </trkpt>
      <trkpt lat="43.37969" lon="6.72084">
        <ele>11.4</ele>
        <time>2023-05-16T15:01:48Z</time>
      </trkpt>
      <trkpt lat="43.3797" lon="6.72084">
        <ele>11.4</ele>
        <time>2023-05-16T15:01:49Z</time>
      </trkpt>
      <trkpt lat="43.37972" lon="6.72086">
        <ele>11.4</ele>
        <time>2023-05-16T15:01:50Z</time>
      </trkpt>
      <trkpt lat="43.37972" lon="6.72086">
        <ele>11.4</ele>
        <time>2023-05-16T15:01:51Z</time>
      </trkpt>
      <trkpt lat="43.37973" lon="6.72087">
        <ele>11.4</ele>
        <time>2023-05-16T15:01:52Z</time>
      </trkpt>
      <trkpt lat="43.37975" lon="6.72088">
        <ele>11.4</ele>
        <time>2023-05-16T15:01:53Z</time>
      </trkpt>
      <trkpt lat="43.37976" lon="6.72088">
        <ele>11.4</ele>
        <time>2023-05-16T15:01:54Z</time>
      </trkpt>
      <trkpt lat="43.37977" lon="6.72089">
        <ele>11.4</ele>
        <time>2023-05-16T15:01:55Z</time>
      </trkpt>
      <trkpt lat="43.37978" lon="6.7209">
        <ele>11.4</ele>
        <time>2023-05-16T15:01:57Z</time>
      </trkpt>
      <trkpt lat="43.3798" lon="6.72091">
        <ele>11.5</ele>
        <time>2023-05-16T15:01:58Z</time>
      </trkpt>
      <trkpt lat="43.37981" lon="6.72091">
        <ele>11.5</ele>
        <time>2023-05-16T15:01:59Z</time>
      </trkpt>
      <trkpt lat="43.37983" lon="6.72093">
        <ele>11.5</ele>
        <time>2023-05-16T15:02:00Z</time>
      </trkpt>
      <trkpt lat="43.37984" lon="6.72094">
        <ele>11.5</ele>
        <time>2023-05-16T15:02:01Z</time>
      </trkpt>
      <trkpt lat="43.37986" lon="6.72095">
        <ele>11.5</ele>
        <time>2023-05-16T15:02:02Z</time>
      </trkpt>
      <trkpt lat="43.37987" lon="6.72096">
        <ele>11.5</ele>
        <time>2023-05-16T15:02:03Z</time>
      </trkpt>
      <trkpt lat="43.37988" lon="6.72097">
        <ele>11.5</ele>
        <time>2023-05-16T15:02:05Z</time>
      </trkpt>
      <trkpt lat="43.37988" lon="6.72098">
        <ele>11.5</ele>
        <time>2023-05-16T15:02:06Z</time>
      </trkpt>
      <trkpt lat="43.37989" lon="6.72099">
        <ele>11.5</ele>
        <time>2023-05-16T15:02:07Z</time>
      </trkpt>
      <trkpt lat="43.3799" lon="6.721">
        <ele>11.5</ele>
        <time>2023-05-16T15:02:09Z</time>
      </trkpt>
      <trkpt lat="43.37989" lon="6.72099">
        <ele>11.5</ele>
        <time>2023-05-16T15:02:10Z</time>
      </trkpt>
      <trkpt lat="43.37989" lon="6.72099">
        <ele>11.5</ele>
        <time>2023-05-16T15:02:11Z</time>
      </trkpt>
      <trkpt lat="43.37988" lon="6.72099">
        <ele>11.5</ele>
        <time>2023-05-16T15:02:13Z</time>
      </trkpt>
      <trkpt lat="43.37988" lon="6.72099">
        <ele>11.5</ele>
        <time>2023-05-16T15:02:14Z</time>
      </trkpt>
      <trkpt lat="43.37988" lon="6.72099">
        <ele>11.5</ele>
        <time>2023-05-16T15:02:15Z</time>
      </trkpt>
      <trkpt lat="43.37988" lon="6.72098">
        <ele>11.5</ele>
        <time>2023-05-16T15:02:17Z</time>
      </trkpt>
      <trkpt lat="43.37988" lon="6.72099">
        <ele>11.5</ele>
        <time>2023-05-16T15:02:18Z</time>
      </trkpt>
      <trkpt lat="43.37988" lon="6.72099">
        <ele>11.5</ele>
        <time>2023-05-16T15:02:19Z</time>
      </trkpt>
      <trkpt lat="43.37988" lon="6.72099">
        <ele>11.5</ele>
        <time>2023-05-16T15:02:20Z</time>
      </trkpt>
      <trkpt lat="43.37989" lon="6.721">
        <ele>11.5</ele>
        <time>2023-05-16T15:02:21Z</time>
      </trkpt>
      <trkpt lat="43.3799" lon="6.721">
        <ele>11.5</ele>
        <time>2023-05-16T15:02:22Z</time>
      </trkpt>
      <trkpt lat="43.37991" lon="6.72101">
        <ele>11.5</ele>
        <time>2023-05-16T15:02:23Z</time>
      </trkpt>
      <trkpt lat="43.37993" lon="6.72102">
        <ele>11.5</ele>
        <time>2023-05-16T15:02:24Z</time>
      </trkpt>
      <trkpt lat="43.37994" lon="6.72102">
        <ele>11.5</ele>
        <time>2023-05-16T15:02:25Z</time>
      </trkpt>
      <trkpt lat="43.37994" lon="6.72103">
        <ele>11.6</ele>
        <time>2023-05-16T15:02:26Z</time>
      </trkpt>
      <trkpt lat="43.37998" lon="6.72103">
        <ele>11.6</ele>
        <time>2023-05-16T15:02:28Z</time>
      </trkpt>
      <trkpt lat="43.37999" lon="6.72103">
        <ele>11.6</ele>
        <time>2023-05-16T15:02:29Z</time>
      </trkpt>
      <trkpt lat="43.38" lon="6.72104">
        <ele>11.6</ele>
        <time>2023-05-16T15:02:30Z</time>
      </trkpt>
      <trkpt lat="43.38001" lon="6.72104">
        <ele>11.6</ele>
        <time>2023-05-16T15:02:31Z</time>
      </trkpt>
      <trkpt lat="43.38002" lon="6.72106">
        <ele>11.6</ele>
        <time>2023-05-16T15:02:32Z</time>
      </trkpt>
      <trkpt lat="43.38003" lon="6.72107">
        <ele>11.6</ele>
        <time>2023-05-16T15:02:33Z</time>
      </trkpt>
      <trkpt lat="43.38005" lon="6.72108">
        <ele>11.6</ele>
        <time>2023-05-16T15:02:35Z</time>
      </trkpt>
      <trkpt lat="43.38006" lon="6.72109">
        <ele>11.6</ele>
        <time>2023-05-16T15:02:36Z</time>
      </trkpt>
      <trkpt lat="43.38006" lon="6.7211">
        <ele>11.6</ele>
        <time>2023-05-16T15:02:37Z</time>
      </trkpt>
      <trkpt lat="43.38008" lon="6.72111">
        <ele>11.6</ele>
        <time>2023-05-16T15:02:38Z</time>
      </trkpt>
      <trkpt lat="43.38008" lon="6.72113">
        <ele>11.6</ele>
        <time>2023-05-16T15:02:39Z</time>
      </trkpt>
      <trkpt lat="43.38009" lon="6.72114">
        <ele>11.7</ele>
        <time>2023-05-16T15:02:40Z</time>
      </trkpt>
      <trkpt lat="43.3801" lon="6.72116">
        <ele>11.7</ele>
        <time>2023-05-16T15:02:41Z</time>
      </trkpt>
      <trkpt lat="43.38013" lon="6.72116">
        <ele>11.7</ele>
        <time>2023-05-16T15:02:42Z</time>
      </trkpt>
      <trkpt lat="43.38014" lon="6.72115">
        <ele>11.7</ele>
        <time>2023-05-16T15:02:43Z</time>
      </trkpt>
      <trkpt lat="43.38015" lon="6.72115">
        <ele>11.7</ele>
        <time>2023-05-16T15:02:44Z</time>
      </trkpt>
      <trkpt lat="43.38017" lon="6.72116">
        <ele>11.7</ele>
        <time>2023-05-16T15:02:45Z</time>
      </trkpt>
      <trkpt lat="43.38018" lon="6.72117">
        <ele>11.7</ele>
        <time>2023-05-16T15:02:47Z</time>
      </trkpt>
      <trkpt lat="43.3802" lon="6.72117">
        <ele>11.7</ele>
        <time>2023-05-16T15:02:48Z</time>
      </trkpt>
      <trkpt lat="43.38021" lon="6.72118">
        <ele>11.7</ele>
        <time>2023-05-16T15:02:49Z</time>
      </trkpt>
      <trkpt lat="43.38022" lon="6.72119">
        <ele>11.7</ele>
        <time>2023-05-16T15:02:50Z</time>
      </trkpt>
      <trkpt lat="43.38023" lon="6.7212">
        <ele>11.7</ele>
        <time>2023-05-16T15:02:51Z</time>
      </trkpt>
      <trkpt lat="43.38026" lon="6.72121">
        <ele>11.8</ele>
        <time>2023-05-16T15:02:52Z</time>
      </trkpt>
      <trkpt lat="43.38027" lon="6.72122">
        <ele>11.8</ele>
        <time>2023-05-16T15:02:54Z</time>
      </trkpt>
      <trkpt lat="43.38027" lon="6.72123">
        <ele>11.8</ele>
        <time>2023-05-16T15:02:55Z</time>
      </trkpt>
      <trkpt lat="43.38028" lon="6.72123">
        <ele>11.8</ele>
        <time>2023-05-16T15:02:56Z</time>
      </trkpt>
      <trkpt lat="43.38029" lon="6.72124">
        <ele>11.8</ele>
        <time>2023-05-16T15:02:57Z</time>
      </trkpt>
      <trkpt lat="43.38031" lon="6.72125">
        <ele>11.8</ele>
        <time>2023-05-16T15:02:58Z</time>
      </trkpt>
      <trkpt lat="43.38032" lon="6.72126">
        <ele>11.8</ele>
        <time>2023-05-16T15:02:59Z</time>
      </trkpt>
      <trkpt lat="43.38034" lon="6.72128">
        <ele>11.8</ele>
        <time>2023-05-16T15:03:00Z</time>
      </trkpt>
      <trkpt lat="43.38035" lon="6.72128">
        <ele>11.8</ele>
        <time>2023-05-16T15:03:01Z</time>
      </trkpt>
      <trkpt lat="43.38036" lon="6.72129">
        <ele>11.8</ele>
        <time>2023-05-16T15:03:02Z</time>
      </trkpt>
      <trkpt lat="43.38037" lon="6.72128">
        <ele>11.8</ele>
        <time>2023-05-16T15:03:03Z</time>
      </trkpt>
      <trkpt lat="43.38038" lon="6.72129">
        <ele>11.8</ele>
        <time>2023-05-16T15:03:05Z</time>
      </trkpt>
      <trkpt lat="43.38039" lon="6.72129">
        <ele>11.9</ele>
        <time>2023-05-16T15:03:06Z</time>
      </trkpt>
      <trkpt lat="43.3804" lon="6.7213">
        <ele>11.9</ele>
        <time>2023-05-16T15:03:07Z</time>
      </trkpt>
      <trkpt lat="43.38041" lon="6.72131">
        <ele>11.9</ele>
        <time>2023-05-16T15:03:08Z</time>
      </trkpt>
      <trkpt lat="43.38042" lon="6.72131">
        <ele>11.9</ele>
        <time>2023-05-16T15:03:09Z</time>
      </trkpt>
      <trkpt lat="43.38043" lon="6.72132">
        <ele>11.9</ele>
        <time>2023-05-16T15:03:10Z</time>
      </trkpt>
      <trkpt lat="43.38044" lon="6.72134">
        <ele>11.9</ele>
        <time>2023-05-16T15:03:11Z</time>
      </trkpt>
      <trkpt lat="43.38047" lon="6.72135">
        <ele>11.9</ele>
        <time>2023-05-16T15:03:12Z</time>
      </trkpt>
      <trkpt lat="43.38047" lon="6.72134">
        <ele>11.9</ele>
        <time>2023-05-16T15:03:14Z</time>
      </trkpt>
      <trkpt lat="43.38048" lon="6.72135">
        <ele>11.9</ele>
        <time>2023-05-16T15:03:15Z</time>
      </trkpt>
      <trkpt lat="43.38049" lon="6.72136">
        <ele>11.9</ele>
        <time>2023-05-16T15:03:16Z</time>
      </trkpt>
      <trkpt lat="43.3805" lon="6.72137">
        <ele>11.9</ele>
        <time>2023-05-16T15:03:17Z</time>
      </trkpt>
      <trkpt lat="43.38052" lon="6.72139">
        <ele>11.9</ele>
        <time>2023-05-16T15:03:18Z</time>
      </trkpt>
      <trkpt lat="43.38053" lon="6.7214">
        <ele>12</ele>
        <time>2023-05-16T15:03:20Z</time>
      </trkpt>
      <trkpt lat="43.38054" lon="6.72141">
        <ele>12</ele>
        <time>2023-05-16T15:03:21Z</time>
      </trkpt>
      <trkpt lat="43.38055" lon="6.72141">
        <ele>12</ele>
        <time>2023-05-16T15:03:22Z</time>
      </trkpt>
      <trkpt lat="43.38056" lon="6.72142">
        <ele>12</ele>
        <time>2023-05-16T15:03:23Z</time>
      </trkpt>
      <trkpt lat="43.38056" lon="6.72142">
        <ele>12</ele>
        <time>2023-05-16T15:03:24Z</time>
      </trkpt>
      <trkpt lat="43.38057" lon="6.72143">
        <ele>12</ele>
        <time>2023-05-16T15:03:25Z</time>
      </trkpt>
      <trkpt lat="43.38057" lon="6.72144">
        <ele>12</ele>
        <time>2023-05-16T15:03:26Z</time>
      </trkpt>
      <trkpt lat="43.38059" lon="6.72145">
        <ele>12</ele>
        <time>2023-05-16T15:03:27Z</time>
      </trkpt>
      <trkpt lat="43.3806" lon="6.72145">
        <ele>12</ele>
        <time>2023-05-16T15:03:28Z</time>
      </trkpt>
      <trkpt lat="43.38062" lon="6.72146">
        <ele>12.1</ele>
        <time>2023-05-16T15:03:29Z</time>
      </trkpt>
      <trkpt lat="43.38064" lon="6.72148">
        <ele>12.1</ele>
        <time>2023-05-16T15:03:30Z</time>
      </trkpt>
      <trkpt lat="43.38065" lon="6.72149">
        <ele>12.1</ele>
        <time>2023-05-16T15:03:31Z</time>
      </trkpt>
      <trkpt lat="43.38066" lon="6.7215">
        <ele>12.1</ele>
        <time>2023-05-16T15:03:32Z</time>
      </trkpt>
      <trkpt lat="43.38067" lon="6.7215">
        <ele>12.1</ele>
        <time>2023-05-16T15:03:33Z</time>
      </trkpt>
      <trkpt lat="43.38068" lon="6.72151">
        <ele>12.1</ele>
        <time>2023-05-16T15:03:34Z</time>
      </trkpt>
      <trkpt lat="43.38069" lon="6.72152">
        <ele>12.1</ele>
        <time>2023-05-16T15:03:36Z</time>
      </trkpt>
      <trkpt lat="43.38071" lon="6.72152">
        <ele>12.2</ele>
        <time>2023-05-16T15:03:37Z</time>
      </trkpt>
      <trkpt lat="43.38073" lon="6.72153">
        <ele>12.2</ele>
        <time>2023-05-16T15:03:38Z</time>
      </trkpt>
      <trkpt lat="43.38074" lon="6.72154">
        <ele>12.2</ele>
        <time>2023-05-16T15:03:39Z</time>
      </trkpt>
      <trkpt lat="43.38075" lon="6.72155">
        <ele>12.2</ele>
        <time>2023-05-16T15:03:40Z</time>
      </trkpt>
      <trkpt lat="43.38078" lon="6.72156">
        <ele>12.2</ele>
        <time>2023-05-16T15:03:41Z</time>
      </trkpt>
      <trkpt lat="43.38079" lon="6.72156">
        <ele>12.2</ele>
        <time>2023-05-16T15:03:42Z</time>
      </trkpt>
      <trkpt lat="43.3808" lon="6.72156">
        <ele>12.3</ele>
        <time>2023-05-16T15:03:43Z</time>
      </trkpt>
      <trkpt lat="43.38081" lon="6.72157">
        <ele>12.3</ele>
        <time>2023-05-16T15:03:44Z</time>
      </trkpt>
      <trkpt lat="43.38083" lon="6.72157">
        <ele>12.3</ele>
        <time>2023-05-16T15:03:46Z</time>
      </trkpt>
      <trkpt lat="43.38083" lon="6.72157">
        <ele>12.3</ele>
        <time>2023-05-16T15:03:47Z</time>
      </trkpt>
      <trkpt lat="43.38085" lon="6.72156">
        <ele>12.3</ele>
        <time>2023-05-16T15:03:48Z</time>
      </trkpt>
      <trkpt lat="43.38086" lon="6.72156">
        <ele>12.3</ele>
        <time>2023-05-16T15:03:49Z</time>
      </trkpt>
      <trkpt lat="43.38087" lon="6.72156">
        <ele>12.3</ele>
        <time>2023-05-16T15:03:50Z</time>
      </trkpt>
      <trkpt lat="43.38088" lon="6.72157">
        <ele>12.3</ele>
        <time>2023-05-16T15:03:51Z</time>
      </trkpt>
      <trkpt lat="43.3809" lon="6.72159">
        <ele>12.4</ele>
        <time>2023-05-16T15:03:52Z</time>
      </trkpt>
      <trkpt lat="43.38091" lon="6.7216">
        <ele>12.4</ele>
        <time>2023-05-16T15:03:54Z</time>
      </trkpt>
      <trkpt lat="43.38092" lon="6.72161">
        <ele>12.4</ele>
        <time>2023-05-16T15:03:55Z</time>
      </trkpt>
      <trkpt lat="43.38093" lon="6.72161">
        <ele>12.4</ele>
        <time>2023-05-16T15:03:56Z</time>
      </trkpt>
      <trkpt lat="43.38095" lon="6.72162">
        <ele>12.4</ele>
        <time>2023-05-16T15:03:57Z</time>
      </trkpt>
      <trkpt lat="43.38097" lon="6.72163">
        <ele>12.4</ele>
        <time>2023-05-16T15:03:58Z</time>
      </trkpt>
      <trkpt lat="43.38097" lon="6.72163">
        <ele>12.4</ele>
        <time>2023-05-16T15:03:59Z</time>
      </trkpt>
      <trkpt lat="43.38098" lon="6.72168">
        <ele>12.4</ele>
        <time>2023-05-16T15:04:00Z</time>
      </trkpt>
      <trkpt lat="43.38099" lon="6.7217">
        <ele>12.4</ele>
        <time>2023-05-16T15:04:01Z</time>
      </trkpt>
      <trkpt lat="43.38101" lon="6.72173">
        <ele>12.5</ele>
        <time>2023-05-16T15:04:02Z</time>
      </trkpt>
      <trkpt lat="43.38102" lon="6.72174">
        <ele>12.5</ele>
        <time>2023-05-16T15:04:03Z</time>
      </trkpt>
      <trkpt lat="43.38103" lon="6.72175">
        <ele>12.5</ele>
        <time>2023-05-16T15:04:04Z</time>
      </trkpt>
      <trkpt lat="43.38105" lon="6.72176">
        <ele>12.5</ele>
        <time>2023-05-16T15:04:06Z</time>
      </trkpt>
      <trkpt lat="43.38105" lon="6.72176">
        <ele>12.5</ele>
        <time>2023-05-16T15:04:07Z</time>
      </trkpt>
      <trkpt lat="43.38106" lon="6.72177">
        <ele>12.5</ele>
        <time>2023-05-16T15:04:08Z</time>
      </trkpt>
      <trkpt lat="43.38107" lon="6.72178">
        <ele>12.5</ele>
        <time>2023-05-16T15:04:09Z</time>
      </trkpt>
      <trkpt lat="43.38109" lon="6.7218">
        <ele>12.5</ele>
        <time>2023-05-16T15:04:10Z</time>
      </trkpt>
      <trkpt lat="43.38109" lon="6.72181">
        <ele>12.5</ele>
        <time>2023-05-16T15:04:11Z</time>
      </trkpt>
      <trkpt lat="43.3811" lon="6.72182">
        <ele>12.5</ele>
        <time>2023-05-16T15:04:12Z</time>
      </trkpt>
      <trkpt lat="43.38113" lon="6.72183">
        <ele>12.5</ele>
        <time>2023-05-16T15:04:13Z</time>
      </trkpt>
      <trkpt lat="43.38113" lon="6.72183">
        <ele>12.5</ele>
        <time>2023-05-16T15:04:14Z</time>
      </trkpt>
      <trkpt lat="43.38114" lon="6.72184">
        <ele>12.5</ele>
        <time>2023-05-16T15:04:15Z</time>
      </trkpt>
      <trkpt lat="43.38116" lon="6.72185">
        <ele>12.5</ele>
        <time>2023-05-16T15:04:16Z</time>
      </trkpt>
      <trkpt lat="43.38117" lon="6.72185">
        <ele>12.6</ele>
        <time>2023-05-16T15:04:17Z</time>
      </trkpt>
      <trkpt lat="43.38119" lon="6.72186">
        <ele>12.6</ele>
        <time>2023-05-16T15:04:18Z</time>
      </trkpt>
      <trkpt lat="43.38121" lon="6.72187">
        <ele>12.6</ele>
        <time>2023-05-16T15:04:20Z</time>
      </trkpt>
      <trkpt lat="43.38122" lon="6.72187">
        <ele>12.6</ele>
        <time>2023-05-16T15:04:21Z</time>
      </trkpt>
      <trkpt lat="43.38123" lon="6.72188">
        <ele>12.6</ele>
        <time>2023-05-16T15:04:22Z</time>
      </trkpt>
      <trkpt lat="43.38124" lon="6.72189">
        <ele>12.6</ele>
        <time>2023-05-16T15:04:23Z</time>
      </trkpt>
      <trkpt lat="43.38127" lon="6.7219">
        <ele>12.6</ele>
        <time>2023-05-16T15:04:24Z</time>
      </trkpt>
      <trkpt lat="43.38128" lon="6.72191">
        <ele>12.6</ele>
        <time>2023-05-16T15:04:25Z</time>
      </trkpt>
      <trkpt lat="43.38129" lon="6.72192">
        <ele>12.6</ele>
        <time>2023-05-16T15:04:26Z</time>
      </trkpt>
      <trkpt lat="43.3813" lon="6.72193">
        <ele>12.6</ele>
        <time>2023-05-16T15:04:27Z</time>
      </trkpt>
      <trkpt lat="43.38131" lon="6.72194">
        <ele>12.6</ele>
        <time>2023-05-16T15:04:28Z</time>
      </trkpt>
      <trkpt lat="43.38132" lon="6.72194">
        <ele>12.6</ele>
        <time>2023-05-16T15:04:29Z</time>
      </trkpt>
      <trkpt lat="43.38134" lon="6.72196">
        <ele>12.6</ele>
        <time>2023-05-16T15:04:31Z</time>
      </trkpt>
      <trkpt lat="43.38135" lon="6.72196">
        <ele>12.6</ele>
        <time>2023-05-16T15:04:32Z</time>
      </trkpt>
      <trkpt lat="43.38135" lon="6.72197">
        <ele>12.6</ele>
        <time>2023-05-16T15:04:33Z</time>
      </trkpt>
      <trkpt lat="43.38137" lon="6.72198">
        <ele>12.6</ele>
        <time>2023-05-16T15:04:34Z</time>
      </trkpt>
      <trkpt lat="43.38138" lon="6.72199">
        <ele>12.6</ele>
        <time>2023-05-16T15:04:35Z</time>
      </trkpt>
      <trkpt lat="43.38139" lon="6.722">
        <ele>12.6</ele>
        <time>2023-05-16T15:04:36Z</time>
      </trkpt>
      <trkpt lat="43.3814" lon="6.72201">
        <ele>12.6</ele>
        <time>2023-05-16T15:04:37Z</time>
      </trkpt>
      <trkpt lat="43.38143" lon="6.72202">
        <ele>12.6</ele>
        <time>2023-05-16T15:04:39Z</time>
      </trkpt>
      <trkpt lat="43.38145" lon="6.72203">
        <ele>12.6</ele>
        <time>2023-05-16T15:04:41Z</time>
      </trkpt>
      <trkpt lat="43.38146" lon="6.72203">
        <ele>12.6</ele>
        <time>2023-05-16T15:04:42Z</time>
      </trkpt>
      <trkpt lat="43.38147" lon="6.72204">
        <ele>12.6</ele>
        <time>2023-05-16T15:04:43Z</time>
      </trkpt>
      <trkpt lat="43.38149" lon="6.72203">
        <ele>12.6</ele>
        <time>2023-05-16T15:04:44Z</time>
      </trkpt>
      <trkpt lat="43.3815" lon="6.72203">
        <ele>12.6</ele>
        <time>2023-05-16T15:04:45Z</time>
      </trkpt>
      <trkpt lat="43.3815" lon="6.72203">
        <ele>12.6</ele>
        <time>2023-05-16T15:04:46Z</time>
      </trkpt>
      <trkpt lat="43.38151" lon="6.72203">
        <ele>12.6</ele>
        <time>2023-05-16T15:04:47Z</time>
      </trkpt>
      <trkpt lat="43.38153" lon="6.72204">
        <ele>12.6</ele>
        <time>2023-05-16T15:04:48Z</time>
      </trkpt>
      <trkpt lat="43.38154" lon="6.72204">
        <ele>12.6</ele>
        <time>2023-05-16T15:04:49Z</time>
      </trkpt>
      <trkpt lat="43.38155" lon="6.72204">
        <ele>12.6</ele>
        <time>2023-05-16T15:04:50Z</time>
      </trkpt>
      <trkpt lat="43.38158" lon="6.72205">
        <ele>12.6</ele>
        <time>2023-05-16T15:04:51Z</time>
      </trkpt>
      <trkpt lat="43.38159" lon="6.72205">
        <ele>12.6</ele>
        <time>2023-05-16T15:04:53Z</time>
      </trkpt>
      <trkpt lat="43.38159" lon="6.72205">
        <ele>12.6</ele>
        <time>2023-05-16T15:04:54Z</time>
      </trkpt>
      <trkpt lat="43.38162" lon="6.72206">
        <ele>12.6</ele>
        <time>2023-05-16T15:04:55Z</time>
      </trkpt>
      <trkpt lat="43.38163" lon="6.72206">
        <ele>12.6</ele>
        <time>2023-05-16T15:04:56Z</time>
      </trkpt>
      <trkpt lat="43.38164" lon="6.72206">
        <ele>12.6</ele>
        <time>2023-05-16T15:04:57Z</time>
      </trkpt>
      <trkpt lat="43.38166" lon="6.72206">
        <ele>12.6</ele>
        <time>2023-05-16T15:04:58Z</time>
      </trkpt>
      <trkpt lat="43.38167" lon="6.72207">
        <ele>12.6</ele>
        <time>2023-05-16T15:04:59Z</time>
      </trkpt>
      <trkpt lat="43.38168" lon="6.72207">
        <ele>12.6</ele>
        <time>2023-05-16T15:05:00Z</time>
      </trkpt>
      <trkpt lat="43.38169" lon="6.72207">
        <ele>12.6</ele>
        <time>2023-05-16T15:05:02Z</time>
      </trkpt>
      <trkpt lat="43.38172" lon="6.72208">
        <ele>12.7</ele>
        <time>2023-05-16T15:05:03Z</time>
      </trkpt>
      <trkpt lat="43.38172" lon="6.72208">
        <ele>12.7</ele>
        <time>2023-05-16T15:05:04Z</time>
      </trkpt>
      <trkpt lat="43.38174" lon="6.72208">
        <ele>12.7</ele>
        <time>2023-05-16T15:05:05Z</time>
      </trkpt>
      <trkpt lat="43.38175" lon="6.72208">
        <ele>12.7</ele>
        <time>2023-05-16T15:05:06Z</time>
      </trkpt>
      <trkpt lat="43.38177" lon="6.72209">
        <ele>12.7</ele>
        <time>2023-05-16T15:05:08Z</time>
      </trkpt>
      <trkpt lat="43.38178" lon="6.72209">
        <ele>12.7</ele>
        <time>2023-05-16T15:05:09Z</time>
      </trkpt>
      <trkpt lat="43.38179" lon="6.72209">
        <ele>12.7</ele>
        <time>2023-05-16T15:05:10Z</time>
      </trkpt>
      <trkpt lat="43.38182" lon="6.7221">
        <ele>12.7</ele>
        <time>2023-05-16T15:05:11Z</time>
      </trkpt>
      <trkpt lat="43.38183" lon="6.72211">
        <ele>12.7</ele>
        <time>2023-05-16T15:05:12Z</time>
      </trkpt>
      <trkpt lat="43.38185" lon="6.72211">
        <ele>12.7</ele>
        <time>2023-05-16T15:05:13Z</time>
      </trkpt>
      <trkpt lat="43.38186" lon="6.72212">
        <ele>12.7</ele>
        <time>2023-05-16T15:05:14Z</time>
      </trkpt>
      <trkpt lat="43.38188" lon="6.72213">
        <ele>12.7</ele>
        <time>2023-05-16T15:05:15Z</time>
      </trkpt>
      <trkpt lat="43.38189" lon="6.72213">
        <ele>12.7</ele>
        <time>2023-05-16T15:05:16Z</time>
      </trkpt>
      <trkpt lat="43.3819" lon="6.72214">
        <ele>12.7</ele>
        <time>2023-05-16T15:05:17Z</time>
      </trkpt>
      <trkpt lat="43.38191" lon="6.72215">
        <ele>12.7</ele>
        <time>2023-05-16T15:05:18Z</time>
      </trkpt>
      <trkpt lat="43.38193" lon="6.72217">
        <ele>12.7</ele>
        <time>2023-05-16T15:05:20Z</time>
      </trkpt>
      <trkpt lat="43.38194" lon="6.72218">
        <ele>12.8</ele>
        <time>2023-05-16T15:05:22Z</time>
      </trkpt>
      <trkpt lat="43.38195" lon="6.72219">
        <ele>12.8</ele>
        <time>2023-05-16T15:05:23Z</time>
      </trkpt>
      <trkpt lat="43.38196" lon="6.7222">
        <ele>12.8</ele>
        <time>2023-05-16T15:05:24Z</time>
      </trkpt>
      <trkpt lat="43.38198" lon="6.72221">
        <ele>12.8</ele>
        <time>2023-05-16T15:05:25Z</time>
      </trkpt>
      <trkpt lat="43.38198" lon="6.72222">
        <ele>12.8</ele>
        <time>2023-05-16T15:05:26Z</time>
      </trkpt>
      <trkpt lat="43.382" lon="6.72223">
        <ele>12.8</ele>
        <time>2023-05-16T15:05:27Z</time>
      </trkpt>
      <trkpt lat="43.38201" lon="6.72224">
        <ele>12.8</ele>
        <time>2023-05-16T15:05:28Z</time>
      </trkpt>
      <trkpt lat="43.38202" lon="6.72224">
        <ele>12.8</ele>
        <time>2023-05-16T15:05:30Z</time>
      </trkpt>
      <trkpt lat="43.38203" lon="6.72226">
        <ele>12.5</ele>
        <time>2023-05-16T15:05:31Z</time>
      </trkpt>
      <trkpt lat="43.38203" lon="6.72228">
        <ele>12.4</ele>
        <time>2023-05-16T15:05:32Z</time>
      </trkpt>
      <trkpt lat="43.38203" lon="6.72229">
        <ele>12.4</ele>
        <time>2023-05-16T15:05:33Z</time>
      </trkpt>
      <trkpt lat="43.38203" lon="6.72231">
        <ele>12.3</ele>
        <time>2023-05-16T15:05:34Z</time>
      </trkpt>
      <trkpt lat="43.38201" lon="6.72234">
        <ele>12.2</ele>
        <time>2023-05-16T15:05:35Z</time>
      </trkpt>
      <trkpt lat="43.382" lon="6.72235">
        <ele>12.1</ele>
        <time>2023-05-16T15:05:37Z</time>
      </trkpt>
      <trkpt lat="43.38199" lon="6.72236">
        <ele>12</ele>
        <time>2023-05-16T15:05:38Z</time>
      </trkpt>
      <trkpt lat="43.38198" lon="6.72238">
        <ele>11.9</ele>
        <time>2023-05-16T15:05:39Z</time>
      </trkpt>
      <trkpt lat="43.38197" lon="6.72241">
        <ele>11.8</ele>
        <time>2023-05-16T15:05:40Z</time>
      </trkpt>
      <trkpt lat="43.38196" lon="6.72242">
        <ele>11.7</ele>
        <time>2023-05-16T15:05:41Z</time>
      </trkpt>
      <trkpt lat="43.38195" lon="6.72244">
        <ele>11.6</ele>
        <time>2023-05-16T15:05:42Z</time>
      </trkpt>
      <trkpt lat="43.38194" lon="6.72245">
        <ele>11.6</ele>
        <time>2023-05-16T15:05:43Z</time>
      </trkpt>
      <trkpt lat="43.38192" lon="6.72248">
        <ele>11.4</ele>
        <time>2023-05-16T15:05:44Z</time>
      </trkpt>
      <trkpt lat="43.38191" lon="6.7225">
        <ele>11.3</ele>
        <time>2023-05-16T15:05:45Z</time>
      </trkpt>
      <trkpt lat="43.38191" lon="6.72252">
        <ele>11.2</ele>
        <time>2023-05-16T15:05:47Z</time>
      </trkpt>
      <trkpt lat="43.3819" lon="6.72253">
        <ele>11.2</ele>
        <time>2023-05-16T15:05:48Z</time>
      </trkpt>
      <trkpt lat="43.3819" lon="6.72254">
        <ele>11.1</ele>
        <time>2023-05-16T15:05:49Z</time>
      </trkpt>
      <trkpt lat="43.38189" lon="6.72257">
        <ele>11</ele>
        <time>2023-05-16T15:05:50Z</time>
      </trkpt>
      <trkpt lat="43.38189" lon="6.72258">
        <ele>11</ele>
        <time>2023-05-16T15:05:51Z</time>
      </trkpt>
      <trkpt lat="43.38188" lon="6.72261">
        <ele>10.9</ele>
        <time>2023-05-16T15:05:52Z</time>
      </trkpt>
      <trkpt lat="43.38187" lon="6.72262">
        <ele>10.8</ele>
        <time>2023-05-16T15:05:53Z</time>
      </trkpt>
      <trkpt lat="43.38187" lon="6.72263">
        <ele>10.8</ele>
        <time>2023-05-16T15:05:54Z</time>
      </trkpt>
      <trkpt lat="43.38185" lon="6.72266">
        <ele>10.7</ele>
        <time>2023-05-16T15:05:55Z</time>
      </trkpt>
      <trkpt lat="43.38185" lon="6.72267">
        <ele>10.6</ele>
        <time>2023-05-16T15:05:56Z</time>
      </trkpt>
      <trkpt lat="43.38185" lon="6.72268">
        <ele>10.6</ele>
        <time>2023-05-16T15:05:57Z</time>
      </trkpt>
      <trkpt lat="43.38184" lon="6.72269">
        <ele>10.5</ele>
        <time>2023-05-16T15:05:59Z</time>
      </trkpt>
      <trkpt lat="43.38183" lon="6.7227">
        <ele>10.4</ele>
        <time>2023-05-16T15:06:00Z</time>
      </trkpt>
      <trkpt lat="43.38181" lon="6.72272">
        <ele>10.3</ele>
        <time>2023-05-16T15:06:02Z</time>
      </trkpt>
      <trkpt lat="43.3818" lon="6.72273">
        <ele>10.3</ele>
        <time>2023-05-16T15:06:03Z</time>
      </trkpt>
      <trkpt lat="43.38179" lon="6.72274">
        <ele>10.3</ele>
        <time>2023-05-16T15:06:04Z</time>
      </trkpt>
      <trkpt lat="43.38179" lon="6.72275">
        <ele>10.2</ele>
        <time>2023-05-16T15:06:05Z</time>
      </trkpt>
      <trkpt lat="43.38178" lon="6.72276">
        <ele>10.1</ele>
        <time>2023-05-16T15:06:06Z</time>
      </trkpt>
      <trkpt lat="43.38177" lon="6.72279">
        <ele>10.1</ele>
        <time>2023-05-16T15:06:07Z</time>
      </trkpt>
      <trkpt lat="43.38176" lon="6.7228">
        <ele>10</ele>
        <time>2023-05-16T15:06:08Z</time>
      </trkpt>
      <trkpt lat="43.38176" lon="6.72281">
        <ele>10</ele>
        <time>2023-05-16T15:06:09Z</time>
      </trkpt>
      <trkpt lat="43.38175" lon="6.72284">
        <ele>9.9</ele>
        <time>2023-05-16T15:06:10Z</time>
      </trkpt>
      <trkpt lat="43.38175" lon="6.72284">
        <ele>9.9</ele>
        <time>2023-05-16T15:06:12Z</time>
      </trkpt>
      <trkpt lat="43.38174" lon="6.72286">
        <ele>9.9</ele>
        <time>2023-05-16T15:06:13Z</time>
      </trkpt>
      <trkpt lat="43.38173" lon="6.72287">
        <ele>9.9</ele>
        <time>2023-05-16T15:06:14Z</time>
      </trkpt>
      <trkpt lat="43.38173" lon="6.72288">
        <ele>9.9</ele>
        <time>2023-05-16T15:06:15Z</time>
      </trkpt>
      <trkpt lat="43.38172" lon="6.7229">
        <ele>9.8</ele>
        <time>2023-05-16T15:06:16Z</time>
      </trkpt>
      <trkpt lat="43.38172" lon="6.7229">
        <ele>9.7</ele>
        <time>2023-05-16T15:06:17Z</time>
      </trkpt>
      <trkpt lat="43.38171" lon="6.72292">
        <ele>9.6</ele>
        <time>2023-05-16T15:06:18Z</time>
      </trkpt>
      <trkpt lat="43.3817" lon="6.72293">
        <ele>9.5</ele>
        <time>2023-05-16T15:06:19Z</time>
      </trkpt>
      <trkpt lat="43.38169" lon="6.72295">
        <ele>9.3</ele>
        <time>2023-05-16T15:06:21Z</time>
      </trkpt>
      <trkpt lat="43.38169" lon="6.72296">
        <ele>9.2</ele>
        <time>2023-05-16T15:06:22Z</time>
      </trkpt>
      <trkpt lat="43.38168" lon="6.72298">
        <ele>9.1</ele>
        <time>2023-05-16T15:06:23Z</time>
      </trkpt>
      <trkpt lat="43.38168" lon="6.72299">
        <ele>9</ele>
        <time>2023-05-16T15:06:24Z</time>
      </trkpt>
      <trkpt lat="43.38167" lon="6.72301">
        <ele>8.8</ele>
        <time>2023-05-16T15:06:25Z</time>
      </trkpt>
      <trkpt lat="43.38167" lon="6.72303">
        <ele>8.6</ele>
        <time>2023-05-16T15:06:26Z</time>
      </trkpt>
      <trkpt lat="43.38167" lon="6.72304">
        <ele>8.6</ele>
        <time>2023-05-16T15:06:27Z</time>
      </trkpt>
      <trkpt lat="43.38166" lon="6.72306">
        <ele>8.5</ele>
        <time>2023-05-16T15:06:28Z</time>
      </trkpt>
      <trkpt lat="43.38166" lon="6.72308">
        <ele>8.3</ele>
        <time>2023-05-16T15:06:29Z</time>
      </trkpt>
      <trkpt lat="43.38163" lon="6.72311">
        <ele>7.9</ele>
        <time>2023-05-16T15:06:31Z</time>
      </trkpt>
      <trkpt lat="43.38162" lon="6.72312">
        <ele>7.8</ele>
        <time>2023-05-16T15:06:33Z</time>
      </trkpt>
      <trkpt lat="43.38161" lon="6.72313">
        <ele>7.7</ele>
        <time>2023-05-16T15:06:34Z</time>
      </trkpt>
      <trkpt lat="43.38161" lon="6.72313">
        <ele>7.6</ele>
        <time>2023-05-16T15:06:35Z</time>
      </trkpt>
      <trkpt lat="43.38159" lon="6.72315">
        <ele>7.4</ele>
        <time>2023-05-16T15:06:36Z</time>
      </trkpt>
      <trkpt lat="43.38159" lon="6.72317">
        <ele>7.3</ele>
        <time>2023-05-16T15:06:37Z</time>
      </trkpt>
      <trkpt lat="43.38158" lon="6.7232">
        <ele>7</ele>
        <time>2023-05-16T15:06:38Z</time>
      </trkpt>
      <trkpt lat="43.38157" lon="6.72321">
        <ele>6.9</ele>
        <time>2023-05-16T15:06:39Z</time>
      </trkpt>
      <trkpt lat="43.38157" lon="6.72322">
        <ele>6.8</ele>
        <time>2023-05-16T15:06:40Z</time>
      </trkpt>
      <trkpt lat="43.38156" lon="6.72323">
        <ele>6.7</ele>
        <time>2023-05-16T15:06:41Z</time>
      </trkpt>
      <trkpt lat="43.38155" lon="6.72324">
        <ele>6.6</ele>
        <time>2023-05-16T15:06:43Z</time>
      </trkpt>
      <trkpt lat="43.38155" lon="6.72325">
        <ele>6.5</ele>
        <time>2023-05-16T15:06:44Z</time>
      </trkpt>
      <trkpt lat="43.38154" lon="6.72326">
        <ele>6.3</ele>
        <time>2023-05-16T15:06:45Z</time>
      </trkpt>
      <trkpt lat="43.38153" lon="6.72328">
        <ele>6.1</ele>
        <time>2023-05-16T15:06:46Z</time>
      </trkpt>
      <trkpt lat="43.38153" lon="6.7233">
        <ele>6</ele>
        <time>2023-05-16T15:06:47Z</time>
      </trkpt>
      <trkpt lat="43.38152" lon="6.72332">
        <ele>5.8</ele>
        <time>2023-05-16T15:06:49Z</time>
      </trkpt>
      <trkpt lat="43.38152" lon="6.72334">
        <ele>5.7</ele>
        <time>2023-05-16T15:06:50Z</time>
      </trkpt>
      <trkpt lat="43.38151" lon="6.72336">
        <ele>5.5</ele>
        <time>2023-05-16T15:06:51Z</time>
      </trkpt>
      <trkpt lat="43.38151" lon="6.72337">
        <ele>5.4</ele>
        <time>2023-05-16T15:06:52Z</time>
      </trkpt>
      <trkpt lat="43.3815" lon="6.72338">
        <ele>5.3</ele>
        <time>2023-05-16T15:06:53Z</time>
      </trkpt>
      <trkpt lat="43.3815" lon="6.7234">
        <ele>5</ele>
        <time>2023-05-16T15:06:54Z</time>
      </trkpt>
      <trkpt lat="43.38149" lon="6.72341">
        <ele>5</ele>
        <time>2023-05-16T15:06:55Z</time>
      </trkpt>
      <trkpt lat="43.38148" lon="6.72344">
        <ele>5</ele>
        <time>2023-05-16T15:06:57Z</time>
      </trkpt>
      <trkpt lat="43.38147" lon="6.72344">
        <ele>4.9</ele>
        <time>2023-05-16T15:06:58Z</time>
      </trkpt>
      <trkpt lat="43.38147" lon="6.72345">
        <ele>4.9</ele>
        <time>2023-05-16T15:06:59Z</time>
      </trkpt>
      <trkpt lat="43.38147" lon="6.72346">
        <ele>4.9</ele>
        <time>2023-05-16T15:07:00Z</time>
      </trkpt>
      <trkpt lat="43.38147" lon="6.72347">
        <ele>4.9</ele>
        <time>2023-05-16T15:07:01Z</time>
      </trkpt>
      <trkpt lat="43.38148" lon="6.72349">
        <ele>4.8</ele>
        <time>2023-05-16T15:07:02Z</time>
      </trkpt>
      <trkpt lat="43.38149" lon="6.7235">
        <ele>4.8</ele>
        <time>2023-05-16T15:07:03Z</time>
      </trkpt>
      <trkpt lat="43.38149" lon="6.72351">
        <ele>4.8</ele>
        <time>2023-05-16T15:07:04Z</time>
      </trkpt>
      <trkpt lat="43.38151" lon="6.72353">
        <ele>4.8</ele>
        <time>2023-05-16T15:07:06Z</time>
      </trkpt>
      <trkpt lat="43.38152" lon="6.72354">
        <ele>4.7</ele>
        <time>2023-05-16T15:07:07Z</time>
      </trkpt>
      <trkpt lat="43.38152" lon="6.72354">
        <ele>4.7</ele>
        <time>2023-05-16T15:07:08Z</time>
      </trkpt>
      <trkpt lat="43.38154" lon="6.72355">
        <ele>4.7</ele>
        <time>2023-05-16T15:07:09Z</time>
      </trkpt>
      <trkpt lat="43.38155" lon="6.72355">
        <ele>4.7</ele>
        <time>2023-05-16T15:07:10Z</time>
      </trkpt>
      <trkpt lat="43.38156" lon="6.72356">
        <ele>4.7</ele>
        <time>2023-05-16T15:07:11Z</time>
      </trkpt>
      <trkpt lat="43.38157" lon="6.72356">
        <ele>4.6</ele>
        <time>2023-05-16T15:07:12Z</time>
      </trkpt>
      <trkpt lat="43.38158" lon="6.72358">
        <ele>4.6</ele>
        <time>2023-05-16T15:07:13Z</time>
      </trkpt>
      <trkpt lat="43.38158" lon="6.7236">
        <ele>4.6</ele>
        <time>2023-05-16T15:07:15Z</time>
      </trkpt>
      <trkpt lat="43.38159" lon="6.72364">
        <ele>4.6</ele>
        <time>2023-05-16T15:07:16Z</time>
      </trkpt>
      <trkpt lat="43.38158" lon="6.72367">
        <ele>4.5</ele>
        <time>2023-05-16T15:07:17Z</time>
      </trkpt>
      <trkpt lat="43.38158" lon="6.72368">
        <ele>4.5</ele>
        <time>2023-05-16T15:07:18Z</time>
      </trkpt>
      <trkpt lat="43.38158" lon="6.72369">
        <ele>4.5</ele>
        <time>2023-05-16T15:07:19Z</time>
      </trkpt>
      <trkpt lat="43.38157" lon="6.72371">
        <ele>4.5</ele>
        <time>2023-05-16T15:07:20Z</time>
      </trkpt>
      <trkpt lat="43.38157" lon="6.72372">
        <ele>4.5</ele>
        <time>2023-05-16T15:07:21Z</time>
      </trkpt>
      <trkpt lat="43.38157" lon="6.72373">
        <ele>4.5</ele>
        <time>2023-05-16T15:07:22Z</time>
      </trkpt>
      <trkpt lat="43.38157" lon="6.72374">
        <ele>4.5</ele>
        <time>2023-05-16T15:07:23Z</time>
      </trkpt>
      <trkpt lat="43.38157" lon="6.72375">
        <ele>4.5</ele>
        <time>2023-05-16T15:07:24Z</time>
      </trkpt>
      <trkpt lat="43.38157" lon="6.72376">
        <ele>4.5</ele>
        <time>2023-05-16T15:07:25Z</time>
      </trkpt>
      <trkpt lat="43.38158" lon="6.72378">
        <ele>4.4</ele>
        <time>2023-05-16T15:07:26Z</time>
      </trkpt>
      <trkpt lat="43.38158" lon="6.72379">
        <ele>4.4</ele>
        <time>2023-05-16T15:07:28Z</time>
      </trkpt>
      <trkpt lat="43.38159" lon="6.7238">
        <ele>4.4</ele>
        <time>2023-05-16T15:07:29Z</time>
      </trkpt>
      <trkpt lat="43.3816" lon="6.72381">
        <ele>4.4</ele>
        <time>2023-05-16T15:07:30Z</time>
      </trkpt>
      <trkpt lat="43.38161" lon="6.72381">
        <ele>4.4</ele>
        <time>2023-05-16T15:07:31Z</time>
      </trkpt>
      <trkpt lat="43.38161" lon="6.72382">
        <ele>4.4</ele>
        <time>2023-05-16T15:07:32Z</time>
      </trkpt>
      <trkpt lat="43.38162" lon="6.72383">
        <ele>4.4</ele>
        <time>2023-05-16T15:07:33Z</time>
      </trkpt>
      <trkpt lat="43.38163" lon="6.72383">
        <ele>4.4</ele>
        <time>2023-05-16T15:07:34Z</time>
      </trkpt>
      <trkpt lat="43.38164" lon="6.72384">
        <ele>4.4</ele>
        <time>2023-05-16T15:07:35Z</time>
      </trkpt>
      <trkpt lat="43.38164" lon="6.72385">
        <ele>4.4</ele>
        <time>2023-05-16T15:07:37Z</time>
      </trkpt>
      <trkpt lat="43.38165" lon="6.72386">
        <ele>4.4</ele>
        <time>2023-05-16T15:07:38Z</time>
      </trkpt>
      <trkpt lat="43.38165" lon="6.72387">
        <ele>4.4</ele>
        <time>2023-05-16T15:07:39Z</time>
      </trkpt>
      <trkpt lat="43.38166" lon="6.72389">
        <ele>4.4</ele>
        <time>2023-05-16T15:07:40Z</time>
      </trkpt>
      <trkpt lat="43.38166" lon="6.7239">
        <ele>4.4</ele>
        <time>2023-05-16T15:07:41Z</time>
      </trkpt>
      <trkpt lat="43.38166" lon="6.72391">
        <ele>4.4</ele>
        <time>2023-05-16T15:07:42Z</time>
      </trkpt>
      <trkpt lat="43.38166" lon="6.72392">
        <ele>4.4</ele>
        <time>2023-05-16T15:07:43Z</time>
      </trkpt>
      <trkpt lat="43.38167" lon="6.72393">
        <ele>4.4</ele>
        <time>2023-05-16T15:07:44Z</time>
      </trkpt>
      <trkpt lat="43.38168" lon="6.72394">
        <ele>4.4</ele>
        <time>2023-05-16T15:07:46Z</time>
      </trkpt>
      <trkpt lat="43.38168" lon="6.72395">
        <ele>4.3</ele>
        <time>2023-05-16T15:07:47Z</time>
      </trkpt>
      <trkpt lat="43.38169" lon="6.72395">
        <ele>4.3</ele>
        <time>2023-05-16T15:07:48Z</time>
      </trkpt>
      <trkpt lat="43.3817" lon="6.72396">
        <ele>4.3</ele>
        <time>2023-05-16T15:07:49Z</time>
      </trkpt>
      <trkpt lat="43.38171" lon="6.72396">
        <ele>4.3</ele>
        <time>2023-05-16T15:07:50Z</time>
      </trkpt>
      <trkpt lat="43.38172" lon="6.72397">
        <ele>4.3</ele>
        <time>2023-05-16T15:07:51Z</time>
      </trkpt>
      <trkpt lat="43.38172" lon="6.72399">
        <ele>4.3</ele>
        <time>2023-05-16T15:07:52Z</time>
      </trkpt>
      <trkpt lat="43.38173" lon="6.724">
        <ele>4.3</ele>
        <time>2023-05-16T15:07:53Z</time>
      </trkpt>
      <trkpt lat="43.38173" lon="6.72401">
        <ele>4.3</ele>
        <time>2023-05-16T15:07:54Z</time>
      </trkpt>
      <trkpt lat="43.38173" lon="6.72403">
        <ele>4.3</ele>
        <time>2023-05-16T15:07:56Z</time>
      </trkpt>
      <trkpt lat="43.38173" lon="6.72404">
        <ele>4.3</ele>
        <time>2023-05-16T15:07:57Z</time>
      </trkpt>
      <trkpt lat="43.38174" lon="6.72406">
        <ele>4.3</ele>
        <time>2023-05-16T15:07:58Z</time>
      </trkpt>
      <trkpt lat="43.38174" lon="6.72407">
        <ele>4.3</ele>
        <time>2023-05-16T15:07:59Z</time>
      </trkpt>
      <trkpt lat="43.38174" lon="6.72409">
        <ele>4.3</ele>
        <time>2023-05-16T15:08:00Z</time>
      </trkpt>
      <trkpt lat="43.38174" lon="6.7241">
        <ele>4.3</ele>
        <time>2023-05-16T15:08:01Z</time>
      </trkpt>
      <trkpt lat="43.38175" lon="6.72411">
        <ele>4.3</ele>
        <time>2023-05-16T15:08:03Z</time>
      </trkpt>
      <trkpt lat="43.38175" lon="6.72413">
        <ele>4.3</ele>
        <time>2023-05-16T15:08:04Z</time>
      </trkpt>
      <trkpt lat="43.38176" lon="6.72414">
        <ele>4.3</ele>
        <time>2023-05-16T15:08:05Z</time>
      </trkpt>
      <trkpt lat="43.38176" lon="6.72415">
        <ele>4.3</ele>
        <time>2023-05-16T15:08:06Z</time>
      </trkpt>
      <trkpt lat="43.38177" lon="6.72416">
        <ele>4.3</ele>
        <time>2023-05-16T15:08:07Z</time>
      </trkpt>
      <trkpt lat="43.38178" lon="6.72418">
        <ele>4.3</ele>
        <time>2023-05-16T15:08:08Z</time>
      </trkpt>
      <trkpt lat="43.38178" lon="6.72419">
        <ele>4.3</ele>
        <time>2023-05-16T15:08:09Z</time>
      </trkpt>
      <trkpt lat="43.38178" lon="6.72421">
        <ele>4.3</ele>
        <time>2023-05-16T15:08:11Z</time>
      </trkpt>
      <trkpt lat="43.38178" lon="6.72422">
        <ele>4.3</ele>
        <time>2023-05-16T15:08:12Z</time>
      </trkpt>
      <trkpt lat="43.38178" lon="6.72423">
        <ele>4.3</ele>
        <time>2023-05-16T15:08:13Z</time>
      </trkpt>
      <trkpt lat="43.38178" lon="6.72425">
        <ele>4.3</ele>
        <time>2023-05-16T15:08:14Z</time>
      </trkpt>
      <trkpt lat="43.38178" lon="6.72427">
        <ele>4.3</ele>
        <time>2023-05-16T15:08:15Z</time>
      </trkpt>
      <trkpt lat="43.38178" lon="6.72428">
        <ele>4.3</ele>
        <time>2023-05-16T15:08:16Z</time>
      </trkpt>
      <trkpt lat="43.38178" lon="6.72429">
        <ele>4.3</ele>
        <time>2023-05-16T15:08:17Z</time>
      </trkpt>
      <trkpt lat="43.38178" lon="6.72431">
        <ele>4.3</ele>
        <time>2023-05-16T15:08:18Z</time>
      </trkpt>
      <trkpt lat="43.38178" lon="6.72432">
        <ele>4.3</ele>
        <time>2023-05-16T15:08:19Z</time>
      </trkpt>
      <trkpt lat="43.38178" lon="6.72434">
        <ele>4.3</ele>
        <time>2023-05-16T15:08:20Z</time>
      </trkpt>
      <trkpt lat="43.38177" lon="6.72435">
        <ele>4.3</ele>
        <time>2023-05-16T15:08:21Z</time>
      </trkpt>
      <trkpt lat="43.38177" lon="6.72438">
        <ele>4.3</ele>
        <time>2023-05-16T15:08:23Z</time>
      </trkpt>
      <trkpt lat="43.38177" lon="6.72439">
        <ele>4.3</ele>
        <time>2023-05-16T15:08:24Z</time>
      </trkpt>
      <trkpt lat="43.38176" lon="6.7244">
        <ele>4.3</ele>
        <time>2023-05-16T15:08:25Z</time>
      </trkpt>
      <trkpt lat="43.38176" lon="6.72441">
        <ele>4.3</ele>
        <time>2023-05-16T15:08:26Z</time>
      </trkpt>
      <trkpt lat="43.38175" lon="6.72442">
        <ele>4.3</ele>
        <time>2023-05-16T15:08:27Z</time>
      </trkpt>
      <trkpt lat="43.38175" lon="6.72444">
        <ele>4.3</ele>
        <time>2023-05-16T15:08:28Z</time>
      </trkpt>
      <trkpt lat="43.38175" lon="6.72445">
        <ele>4.3</ele>
        <time>2023-05-16T15:08:30Z</time>
      </trkpt>
      <trkpt lat="43.38174" lon="6.72447">
        <ele>4.3</ele>
        <time>2023-05-16T15:08:31Z</time>
      </trkpt>
      <trkpt lat="43.38174" lon="6.72449">
        <ele>4.3</ele>
        <time>2023-05-16T15:08:32Z</time>
      </trkpt>
      <trkpt lat="43.38172" lon="6.72451">
        <ele>4.3</ele>
        <time>2023-05-16T15:08:33Z</time>
      </trkpt>
      <trkpt lat="43.38172" lon="6.72452">
        <ele>4.3</ele>
        <time>2023-05-16T15:08:34Z</time>
      </trkpt>
      <trkpt lat="43.38172" lon="6.72453">
        <ele>4.3</ele>
        <time>2023-05-16T15:08:35Z</time>
      </trkpt>
      <trkpt lat="43.38171" lon="6.72455">
        <ele>4.3</ele>
        <time>2023-05-16T15:08:36Z</time>
      </trkpt>
      <trkpt lat="43.38171" lon="6.72456">
        <ele>4.3</ele>
        <time>2023-05-16T15:08:37Z</time>
      </trkpt>
      <trkpt lat="43.38171" lon="6.72457">
        <ele>4.3</ele>
        <time>2023-05-16T15:08:39Z</time>
      </trkpt>
      <trkpt lat="43.38171" lon="6.72458">
        <ele>4.3</ele>
        <time>2023-05-16T15:08:40Z</time>
      </trkpt>
      <trkpt lat="43.3817" lon="6.72459">
        <ele>4.3</ele>
        <time>2023-05-16T15:08:41Z</time>
      </trkpt>
      <trkpt lat="43.38169" lon="6.7246">
        <ele>4.3</ele>
        <time>2023-05-16T15:08:42Z</time>
      </trkpt>
      <trkpt lat="43.38169" lon="6.72462">
        <ele>4.3</ele>
        <time>2023-05-16T15:08:43Z</time>
      </trkpt>
      <trkpt lat="43.38169" lon="6.72464">
        <ele>4.4</ele>
        <time>2023-05-16T15:08:44Z</time>
      </trkpt>
      <trkpt lat="43.38168" lon="6.72465">
        <ele>4.4</ele>
        <time>2023-05-16T15:08:46Z</time>
      </trkpt>
      <trkpt lat="43.38168" lon="6.72467">
        <ele>4.4</ele>
        <time>2023-05-16T15:08:48Z</time>
      </trkpt>
      <trkpt lat="43.38168" lon="6.72468">
        <ele>4.4</ele>
        <time>2023-05-16T15:08:49Z</time>
      </trkpt>
      <trkpt lat="43.38168" lon="6.72469">
        <ele>4.4</ele>
        <time>2023-05-16T15:08:50Z</time>
      </trkpt>
      <trkpt lat="43.38167" lon="6.7247">
        <ele>4.4</ele>
        <time>2023-05-16T15:08:51Z</time>
      </trkpt>
      <trkpt lat="43.38166" lon="6.72472">
        <ele>4.4</ele>
        <time>2023-05-16T15:08:53Z</time>
      </trkpt>
      <trkpt lat="43.38165" lon="6.72473">
        <ele>4.4</ele>
        <time>2023-05-16T15:08:54Z</time>
      </trkpt>
      <trkpt lat="43.38164" lon="6.72474">
        <ele>4.4</ele>
        <time>2023-05-16T15:08:56Z</time>
      </trkpt>
      <trkpt lat="43.38163" lon="6.72474">
        <ele>4.4</ele>
        <time>2023-05-16T15:08:57Z</time>
      </trkpt>
      <trkpt lat="43.38163" lon="6.72475">
        <ele>4.4</ele>
        <time>2023-05-16T15:08:58Z</time>
      </trkpt>
      <trkpt lat="43.38162" lon="6.72475">
        <ele>4.4</ele>
        <time>2023-05-16T15:08:59Z</time>
      </trkpt>
      <trkpt lat="43.38162" lon="6.72475">
        <ele>4.4</ele>
        <time>2023-05-16T15:09:00Z</time>
      </trkpt>
      <trkpt lat="43.38162" lon="6.72476">
        <ele>4.4</ele>
        <time>2023-05-16T15:09:02Z</time>
      </trkpt>
      <trkpt lat="43.38161" lon="6.72477">
        <ele>4.4</ele>
        <time>2023-05-16T15:09:03Z</time>
      </trkpt>
      <trkpt lat="43.38162" lon="6.72478">
        <ele>4.4</ele>
        <time>2023-05-16T15:09:04Z</time>
      </trkpt>
      <trkpt lat="43.38162" lon="6.7248">
        <ele>4.5</ele>
        <time>2023-05-16T15:09:06Z</time>
      </trkpt>
      <trkpt lat="43.38164" lon="6.72481">
        <ele>4.5</ele>
        <time>2023-05-16T15:09:07Z</time>
      </trkpt>
      <trkpt lat="43.38165" lon="6.72482">
        <ele>4.5</ele>
        <time>2023-05-16T15:09:08Z</time>
      </trkpt>
      <trkpt lat="43.38165" lon="6.72483">
        <ele>4.5</ele>
        <time>2023-05-16T15:09:09Z</time>
      </trkpt>
      <trkpt lat="43.38165" lon="6.72485">
        <ele>4.5</ele>
        <time>2023-05-16T15:09:10Z</time>
      </trkpt>
      <trkpt lat="43.38165" lon="6.72485">
        <ele>4.5</ele>
        <time>2023-05-16T15:09:12Z</time>
      </trkpt>
      <trkpt lat="43.38165" lon="6.72485">
        <ele>4.5</ele>
        <time>2023-05-16T15:09:14Z</time>
      </trkpt>
      <trkpt lat="43.38164" lon="6.72486">
        <ele>4.5</ele>
        <time>2023-05-16T15:09:15Z</time>
      </trkpt>
      <trkpt lat="43.38164" lon="6.72487">
        <ele>4.5</ele>
        <time>2023-05-16T15:09:16Z</time>
      </trkpt>
      <trkpt lat="43.38163" lon="6.72487">
        <ele>4.5</ele>
        <time>2023-05-16T15:09:17Z</time>
      </trkpt>
      <trkpt lat="43.38163" lon="6.72487">
        <ele>4.5</ele>
        <time>2023-05-16T15:09:18Z</time>
      </trkpt>
      <trkpt lat="43.38162" lon="6.72489">
        <ele>4.5</ele>
        <time>2023-05-16T15:09:19Z</time>
      </trkpt>
      <trkpt lat="43.38161" lon="6.72492">
        <ele>4.5</ele>
        <time>2023-05-16T15:09:21Z</time>
      </trkpt>
      <trkpt lat="43.3816" lon="6.72494">
        <ele>4.5</ele>
        <time>2023-05-16T15:09:22Z</time>
      </trkpt>
      <trkpt lat="43.38159" lon="6.72495">
        <ele>4.5</ele>
        <time>2023-05-16T15:09:24Z</time>
      </trkpt>
      <trkpt lat="43.38158" lon="6.72495">
        <ele>4.5</ele>
        <time>2023-05-16T15:09:25Z</time>
      </trkpt>
      <trkpt lat="43.38156" lon="6.72495">
        <ele>4.5</ele>
        <time>2023-05-16T15:09:26Z</time>
      </trkpt>
      <trkpt lat="43.38156" lon="6.72492">
        <ele>4.5</ele>
        <time>2023-05-16T15:09:28Z</time>
      </trkpt>
      <trkpt lat="43.38156" lon="6.72492">
        <ele>4.5</ele>
        <time>2023-05-16T15:09:29Z</time>
      </trkpt>
      <trkpt lat="43.38156" lon="6.72492">
        <ele>4.5</ele>
        <time>2023-05-16T15:09:30Z</time>
      </trkpt>
      <trkpt lat="43.38156" lon="6.72493">
        <ele>4.5</ele>
        <time>2023-05-16T15:09:32Z</time>
      </trkpt>
      <trkpt lat="43.38157" lon="6.72493">
        <ele>4.5</ele>
        <time>2023-05-16T15:09:33Z</time>
      </trkpt>
      <trkpt lat="43.38158" lon="6.72492">
        <ele>4.5</ele>
        <time>2023-05-16T15:09:34Z</time>
      </trkpt>
      <trkpt lat="43.38158" lon="6.72492">
        <ele>4.5</ele>
        <time>2023-05-16T15:09:35Z</time>
      </trkpt>
      <trkpt lat="43.38159" lon="6.72491">
        <ele>4.5</ele>
        <time>2023-05-16T15:09:37Z</time>
      </trkpt>
      <trkpt lat="43.38159" lon="6.72491">
        <ele>4.5</ele>
        <time>2023-05-16T15:09:38Z</time>
      </trkpt>
      <trkpt lat="43.3816" lon="6.72491">
        <ele>4.5</ele>
        <time>2023-05-16T15:09:39Z</time>
      </trkpt>
      <trkpt lat="43.3816" lon="6.7249">
        <ele>4.5</ele>
        <time>2023-05-16T15:09:41Z</time>
      </trkpt>
      <trkpt lat="43.3816" lon="6.7249">
        <ele>4.5</ele>
        <time>2023-05-16T15:09:42Z</time>
      </trkpt>
      <trkpt lat="43.3816" lon="6.7249">
        <ele>4.5</ele>
        <time>2023-05-16T15:09:43Z</time>
      </trkpt>
      <trkpt lat="43.38161" lon="6.7249">
        <ele>4.5</ele>
        <time>2023-05-16T15:09:45Z</time>
      </trkpt>
      <trkpt lat="43.38162" lon="6.72489">
        <ele>4.5</ele>
        <time>2023-05-16T15:09:46Z</time>
      </trkpt>
      <trkpt lat="43.38162" lon="6.72489">
        <ele>4.5</ele>
        <time>2023-05-16T15:09:47Z</time>
      </trkpt>
      <trkpt lat="43.38162" lon="6.72489">
        <ele>4.5</ele>
        <time>2023-05-16T15:09:48Z</time>
      </trkpt>
      <trkpt lat="43.38162" lon="6.72489">
        <ele>4.5</ele>
        <time>2023-05-16T15:09:49Z</time>
      </trkpt>
      <trkpt lat="43.38162" lon="6.72489">
        <ele>4.5</ele>
        <time>2023-05-16T15:09:50Z</time>
      </trkpt>
      <trkpt lat="43.38162" lon="6.7249">
        <ele>4.5</ele>
        <time>2023-05-16T15:09:51Z</time>
      </trkpt>
      <trkpt lat="43.38162" lon="6.7249">
        <ele>4.5</ele>
        <time>2023-05-16T15:09:52Z</time>
      </trkpt>
      <trkpt lat="43.38162" lon="6.7249">
        <ele>4.5</ele>
        <time>2023-05-16T15:09:53Z</time>
      </trkpt>
      <trkpt lat="43.38162" lon="6.7249">
        <ele>4.5</ele>
        <time>2023-05-16T15:09:54Z</time>
      </trkpt>
      <trkpt lat="43.38162" lon="6.7249">
        <ele>4.5</ele>
        <time>2023-05-16T15:09:55Z</time>
      </trkpt>
      <trkpt lat="43.38162" lon="6.7249">
        <ele>4.5</ele>
        <time>2023-05-16T15:09:56Z</time>
      </trkpt>
      <trkpt lat="43.38162" lon="6.7249">
        <ele>4.5</ele>
        <time>2023-05-16T15:09:57Z</time>
      </trkpt>
      <trkpt lat="43.38162" lon="6.7249">
        <ele>4.5</ele>
        <time>2023-05-16T15:09:58Z</time>
      </trkpt>
      <trkpt lat="43.38162" lon="6.7249">
        <ele>4.5</ele>
        <time>2023-05-16T15:09:59Z</time>
      </trkpt>
      <trkpt lat="43.38162" lon="6.7249">
        <ele>4.5</ele>
        <time>2023-05-16T15:10:00Z</time>
      </trkpt>
      <trkpt lat="43.38162" lon="6.7249">
        <ele>4.5</ele>
        <time>2023-05-16T15:10:01Z</time>
      </trkpt>
      <trkpt lat="43.38162" lon="6.7249">
        <ele>4.5</ele>
        <time>2023-05-16T15:10:02Z</time>
      </trkpt>
      <trkpt lat="43.38162" lon="6.7249">
        <ele>4.5</ele>
        <time>2023-05-16T15:10:03Z</time>
      </trkpt>
      <trkpt lat="43.38162" lon="6.7249">
        <ele>4.5</ele>
        <time>2023-05-16T15:10:04Z</time>
      </trkpt>
      <trkpt lat="43.38162" lon="6.7249">
        <ele>4.5</ele>
        <time>2023-05-16T15:10:05Z</time>
      </trkpt>
      <trkpt lat="43.38162" lon="6.7249">
        <ele>4.5</ele>
        <time>2023-05-16T15:10:06Z</time>
      </trkpt>
      <trkpt lat="43.38162" lon="6.7249">
        <ele>4.5</ele>
        <time>2023-05-16T15:10:07Z</time>
      </trkpt>
      <trkpt lat="43.38161" lon="6.72489">
        <ele>4.5</ele>
        <time>2023-05-16T15:10:08Z</time>
      </trkpt>
      <trkpt lat="43.38161" lon="6.72489">
        <ele>4.5</ele>
        <time>2023-05-16T15:10:09Z</time>
      </trkpt>
      <trkpt lat="43.38161" lon="6.72489">
        <ele>4.5</ele>
        <time>2023-05-16T15:10:10Z</time>
      </trkpt>
      <trkpt lat="43.38161" lon="6.72489">
        <ele>4.5</ele>
        <time>2023-05-16T15:10:11Z</time>
      </trkpt>
      <trkpt lat="43.38161" lon="6.72489">
        <ele>4.5</ele>
        <time>2023-05-16T15:10:12Z</time>
      </trkpt>
      <trkpt lat="43.38161" lon="6.72489">
        <ele>4.5</ele>
        <time>2023-05-16T15:10:13Z</time>
      </trkpt>
      <trkpt lat="43.38161" lon="6.72489">
        <ele>4.5</ele>
        <time>2023-05-16T15:10:14Z</time>
      </trkpt>
      <trkpt lat="43.38161" lon="6.72489">
        <ele>4.5</ele>
        <time>2023-05-16T15:10:15Z</time>
      </trkpt>
      <trkpt lat="43.38161" lon="6.72489">
        <ele>4.5</ele>
        <time>2023-05-16T15:10:16Z</time>
      </trkpt>
      <trkpt lat="43.38161" lon="6.72489">
        <ele>4.5</ele>
        <time>2023-05-16T15:10:17Z</time>
      </trkpt>
      <trkpt lat="43.38161" lon="6.72489">
        <ele>4.5</ele>
        <time>2023-05-16T15:10:18Z</time>
      </trkpt>
      <trkpt lat="43.38161" lon="6.72489">
        <ele>4.5</ele>
        <time>2023-05-16T15:10:19Z</time>
      </trkpt>
      <trkpt lat="43.38161" lon="6.72489">
        <ele>4.5</ele>
        <time>2023-05-16T15:10:20Z</time>
      </trkpt>
      <trkpt lat="43.38161" lon="6.72489">
        <ele>4.5</ele>
        <time>2023-05-16T15:10:21Z</time>
      </trkpt>
      <trkpt lat="43.38161" lon="6.72489">
        <ele>4.5</ele>
        <time>2023-05-16T15:10:22Z</time>
      </trkpt>
      <trkpt lat="43.38161" lon="6.72489">
        <ele>4.5</ele>
        <time>2023-05-16T15:10:23Z</time>
      </trkpt>
      <trkpt lat="43.38161" lon="6.72489">
        <ele>4.5</ele>
        <time>2023-05-16T15:10:24Z</time>
      </trkpt>
      <trkpt lat="43.38161" lon="6.72489">
        <ele>4.5</ele>
        <time>2023-05-16T15:10:25Z</time>
      </trkpt>
      <trkpt lat="43.38161" lon="6.72488">
        <ele>4.5</ele>
        <time>2023-05-16T15:10:26Z</time>
      </trkpt>
      <trkpt lat="43.38161" lon="6.72488">
        <ele>4.5</ele>
        <time>2023-05-16T15:10:27Z</time>
      </trkpt>
      <trkpt lat="43.38161" lon="6.72488">
        <ele>4.5</ele>
        <time>2023-05-16T15:10:28Z</time>
      </trkpt>
      <trkpt lat="43.38162" lon="6.72488">
        <ele>4.5</ele>
        <time>2023-05-16T15:10:29Z</time>
      </trkpt>
      <trkpt lat="43.38162" lon="6.72487">
        <ele>4.5</ele>
        <time>2023-05-16T15:10:30Z</time>
      </trkpt>
      <trkpt lat="43.38163" lon="6.72486">
        <ele>4.5</ele>
        <time>2023-05-16T15:10:31Z</time>
      </trkpt>
      <trkpt lat="43.38162" lon="6.72477">
        <ele>4.5</ele>
        <time>2023-05-16T15:10:32Z</time>
      </trkpt>
      <trkpt lat="43.38162" lon="6.72472">
        <ele>4.5</ele>
        <time>2023-05-16T15:10:33Z</time>
      </trkpt>
      <trkpt lat="43.38162" lon="6.72468">
        <ele>4.5</ele>
        <time>2023-05-16T15:10:34Z</time>
      </trkpt>
      <trkpt lat="43.38162" lon="6.72466">
        <ele>4.5</ele>
        <time>2023-05-16T15:10:35Z</time>
      </trkpt>
      <trkpt lat="43.38163" lon="6.72468">
        <ele>4.5</ele>
        <time>2023-05-16T15:10:37Z</time>
      </trkpt>
      <trkpt lat="43.38164" lon="6.72469">
        <ele>4.5</ele>
        <time>2023-05-16T15:10:38Z</time>
      </trkpt>
      <trkpt lat="43.38165" lon="6.72471">
        <ele>4.5</ele>
        <time>2023-05-16T15:10:39Z</time>
      </trkpt>
      <trkpt lat="43.38165" lon="6.72475">
        <ele>4.6</ele>
        <time>2023-05-16T15:10:41Z</time>
      </trkpt>
      <trkpt lat="43.38166" lon="6.72476">
        <ele>4.6</ele>
        <time>2023-05-16T15:10:42Z</time>
      </trkpt>
      <trkpt lat="43.38166" lon="6.72477">
        <ele>4.6</ele>
        <time>2023-05-16T15:10:43Z</time>
      </trkpt>
      <trkpt lat="43.38166" lon="6.72477">
        <ele>4.6</ele>
        <time>2023-05-16T15:10:44Z</time>
      </trkpt>
      <trkpt lat="43.38166" lon="6.72477">
        <ele>4.6</ele>
        <time>2023-05-16T15:10:45Z</time>
      </trkpt>
      <trkpt lat="43.38166" lon="6.72479">
        <ele>4.6</ele>
        <time>2023-05-16T15:10:46Z</time>
      </trkpt>
      <trkpt lat="43.38168" lon="6.72483">
        <ele>4.7</ele>
        <time>2023-05-16T15:10:48Z</time>
      </trkpt>
      <trkpt lat="43.38168" lon="6.72484">
        <ele>4.7</ele>
        <time>2023-05-16T15:10:50Z</time>
      </trkpt>
      <trkpt lat="43.38169" lon="6.72485">
        <ele>4.7</ele>
        <time>2023-05-16T15:10:51Z</time>
      </trkpt>
      <trkpt lat="43.38169" lon="6.72487">
        <ele>4.7</ele>
        <time>2023-05-16T15:10:52Z</time>
      </trkpt>
      <trkpt lat="43.38169" lon="6.72488">
        <ele>4.7</ele>
        <time>2023-05-16T15:10:53Z</time>
      </trkpt>
      <trkpt lat="43.3817" lon="6.7249">
        <ele>4.8</ele>
        <time>2023-05-16T15:10:54Z</time>
      </trkpt>
      <trkpt lat="43.3817" lon="6.72492">
        <ele>4.8</ele>
        <time>2023-05-16T15:10:55Z</time>
      </trkpt>
      <trkpt lat="43.38171" lon="6.72494">
        <ele>4.9</ele>
        <time>2023-05-16T15:10:56Z</time>
      </trkpt>
      <trkpt lat="43.38171" lon="6.72495">
        <ele>4.9</ele>
        <time>2023-05-16T15:10:57Z</time>
      </trkpt>
      <trkpt lat="43.38171" lon="6.72497">
        <ele>5</ele>
        <time>2023-05-16T15:10:58Z</time>
      </trkpt>
      <trkpt lat="43.38171" lon="6.72499">
        <ele>5</ele>
        <time>2023-05-16T15:11:00Z</time>
      </trkpt>
      <trkpt lat="43.38171" lon="6.725">
        <ele>5</ele>
        <time>2023-05-16T15:11:01Z</time>
      </trkpt>
      <trkpt lat="43.38171" lon="6.72504">
        <ele>5.2</ele>
        <time>2023-05-16T15:11:02Z</time>
      </trkpt>
      <trkpt lat="43.38171" lon="6.72505">
        <ele>5.2</ele>
        <time>2023-05-16T15:11:03Z</time>
      </trkpt>
      <trkpt lat="43.38171" lon="6.72508">
        <ele>5.3</ele>
        <time>2023-05-16T15:11:04Z</time>
      </trkpt>
      <trkpt lat="43.38171" lon="6.72509">
        <ele>5.3</ele>
        <time>2023-05-16T15:11:05Z</time>
      </trkpt>
      <trkpt lat="43.38171" lon="6.72511">
        <ele>5.4</ele>
        <time>2023-05-16T15:11:06Z</time>
      </trkpt>
      <trkpt lat="43.3817" lon="6.72512">
        <ele>5.5</ele>
        <time>2023-05-16T15:11:07Z</time>
      </trkpt>
      <trkpt lat="43.3817" lon="6.72514">
        <ele>5.5</ele>
        <time>2023-05-16T15:11:08Z</time>
      </trkpt>
      <trkpt lat="43.38169" lon="6.72517">
        <ele>5.7</ele>
        <time>2023-05-16T15:11:10Z</time>
      </trkpt>
      <trkpt lat="43.38169" lon="6.72518">
        <ele>5.7</ele>
        <time>2023-05-16T15:11:11Z</time>
      </trkpt>
      <trkpt lat="43.38168" lon="6.7252">
        <ele>5.8</ele>
        <time>2023-05-16T15:11:12Z</time>
      </trkpt>
      <trkpt lat="43.38168" lon="6.72522">
        <ele>5.9</ele>
        <time>2023-05-16T15:11:14Z</time>
      </trkpt>
      <trkpt lat="43.38168" lon="6.72523">
        <ele>5.9</ele>
        <time>2023-05-16T15:11:15Z</time>
      </trkpt>
      <trkpt lat="43.38168" lon="6.72524">
        <ele>6</ele>
        <time>2023-05-16T15:11:16Z</time>
      </trkpt>
      <trkpt lat="43.38168" lon="6.72526">
        <ele>6</ele>
        <time>2023-05-16T15:11:17Z</time>
      </trkpt>
      <trkpt lat="43.38168" lon="6.72528">
        <ele>6.1</ele>
        <time>2023-05-16T15:11:19Z</time>
      </trkpt>
      <trkpt lat="43.38167" lon="6.7253">
        <ele>6.2</ele>
        <time>2023-05-16T15:11:21Z</time>
      </trkpt>
      <trkpt lat="43.38167" lon="6.7253">
        <ele>6.2</ele>
        <time>2023-05-16T15:11:22Z</time>
      </trkpt>
      <trkpt lat="43.38166" lon="6.72531">
        <ele>6.2</ele>
        <time>2023-05-16T15:11:23Z</time>
      </trkpt>
      <trkpt lat="43.38166" lon="6.72532">
        <ele>6.3</ele>
        <time>2023-05-16T15:11:25Z</time>
      </trkpt>
      <trkpt lat="43.38165" lon="6.72533">
        <ele>6.3</ele>
        <time>2023-05-16T15:11:26Z</time>
      </trkpt>
      <trkpt lat="43.38165" lon="6.72534">
        <ele>6.4</ele>
        <time>2023-05-16T15:11:27Z</time>
      </trkpt>
      <trkpt lat="43.38164" lon="6.72536">
        <ele>6.5</ele>
        <time>2023-05-16T15:11:29Z</time>
      </trkpt>
      <trkpt lat="43.38163" lon="6.72537">
        <ele>6.5</ele>
        <time>2023-05-16T15:11:30Z</time>
      </trkpt>
      <trkpt lat="43.38163" lon="6.72538">
        <ele>6.5</ele>
        <time>2023-05-16T15:11:31Z</time>
      </trkpt>
      <trkpt lat="43.38162" lon="6.72539">
        <ele>6.6</ele>
        <time>2023-05-16T15:11:32Z</time>
      </trkpt>
      <trkpt lat="43.38162" lon="6.7254">
        <ele>6.6</ele>
        <time>2023-05-16T15:11:33Z</time>
      </trkpt>
      <trkpt lat="43.38162" lon="6.72542">
        <ele>6.7</ele>
        <time>2023-05-16T15:11:35Z</time>
      </trkpt>
      <trkpt lat="43.38162" lon="6.72542">
        <ele>6.7</ele>
        <time>2023-05-16T15:11:36Z</time>
      </trkpt>
      <trkpt lat="43.38163" lon="6.72542">
        <ele>6.7</ele>
        <time>2023-05-16T15:11:38Z</time>
      </trkpt>
      <trkpt lat="43.38163" lon="6.72542">
        <ele>6.7</ele>
        <time>2023-05-16T15:11:39Z</time>
      </trkpt>
      <trkpt lat="43.38163" lon="6.72542">
        <ele>6.7</ele>
        <time>2023-05-16T15:11:40Z</time>
      </trkpt>
      <trkpt lat="43.38163" lon="6.72541">
        <ele>6.7</ele>
        <time>2023-05-16T15:11:41Z</time>
      </trkpt>
      <trkpt lat="43.38163" lon="6.72541">
        <ele>6.7</ele>
        <time>2023-05-16T15:11:42Z</time>
      </trkpt>
      <trkpt lat="43.38163" lon="6.72541">
        <ele>6.7</ele>
        <time>2023-05-16T15:11:43Z</time>
      </trkpt>
      <trkpt lat="43.38163" lon="6.72542">
        <ele>6.8</ele>
        <time>2023-05-16T15:11:44Z</time>
      </trkpt>
      <trkpt lat="43.38162" lon="6.72543">
        <ele>6.8</ele>
        <time>2023-05-16T15:11:45Z</time>
      </trkpt>
      <trkpt lat="43.38161" lon="6.72545">
        <ele>6.8</ele>
        <time>2023-05-16T15:11:47Z</time>
      </trkpt>
      <trkpt lat="43.38161" lon="6.72547">
        <ele>6.9</ele>
        <time>2023-05-16T15:11:48Z</time>
      </trkpt>
      <trkpt lat="43.3816" lon="6.72548">
        <ele>6.9</ele>
        <time>2023-05-16T15:11:49Z</time>
      </trkpt>
      <trkpt lat="43.38158" lon="6.7255">
        <ele>6.9</ele>
        <time>2023-05-16T15:11:51Z</time>
      </trkpt>
      <trkpt lat="43.38158" lon="6.7255">
        <ele>6.9</ele>
        <time>2023-05-16T15:11:52Z</time>
      </trkpt>
      <trkpt lat="43.38157" lon="6.7255">
        <ele>6.9</ele>
        <time>2023-05-16T15:11:53Z</time>
      </trkpt>
      <trkpt lat="43.38155" lon="6.72551">
        <ele>7</ele>
        <time>2023-05-16T15:11:55Z</time>
      </trkpt>
      <trkpt lat="43.38156" lon="6.72551">
        <ele>7</ele>
        <time>2023-05-16T15:11:56Z</time>
      </trkpt>
      <trkpt lat="43.38155" lon="6.72552">
        <ele>7</ele>
        <time>2023-05-16T15:11:57Z</time>
      </trkpt>
      <trkpt lat="43.38155" lon="6.72551">
        <ele>7</ele>
        <time>2023-05-16T15:11:58Z</time>
      </trkpt>
      <trkpt lat="43.38156" lon="6.72551">
        <ele>7</ele>
        <time>2023-05-16T15:12:00Z</time>
      </trkpt>
      <trkpt lat="43.38156" lon="6.72551">
        <ele>7</ele>
        <time>2023-05-16T15:12:01Z</time>
      </trkpt>
      <trkpt lat="43.38156" lon="6.7255">
        <ele>7</ele>
        <time>2023-05-16T15:12:03Z</time>
      </trkpt>
      <trkpt lat="43.38156" lon="6.7255">
        <ele>7</ele>
        <time>2023-05-16T15:12:04Z</time>
      </trkpt>
      <trkpt lat="43.38156" lon="6.7255">
        <ele>7</ele>
        <time>2023-05-16T15:12:05Z</time>
      </trkpt>
      <trkpt lat="43.38156" lon="6.7255">
        <ele>7</ele>
        <time>2023-05-16T15:12:06Z</time>
      </trkpt>
      <trkpt lat="43.38156" lon="6.7255">
        <ele>7</ele>
        <time>2023-05-16T15:12:08Z</time>
      </trkpt>
      <trkpt lat="43.38156" lon="6.7255">
        <ele>7</ele>
        <time>2023-05-16T15:12:09Z</time>
      </trkpt>
      <trkpt lat="43.38156" lon="6.7255">
        <ele>7</ele>
        <time>2023-05-16T15:12:10Z</time>
      </trkpt>
      <trkpt lat="43.38156" lon="6.72549">
        <ele>7</ele>
        <time>2023-05-16T15:12:12Z</time>
      </trkpt>
      <trkpt lat="43.38156" lon="6.72548">
        <ele>7</ele>
        <time>2023-05-16T15:12:13Z</time>
      </trkpt>
      <trkpt lat="43.38156" lon="6.72548">
        <ele>7</ele>
        <time>2023-05-16T15:12:14Z</time>
      </trkpt>
      <trkpt lat="43.38156" lon="6.72548">
        <ele>7</ele>
        <time>2023-05-16T15:12:15Z</time>
      </trkpt>
      <trkpt lat="43.38156" lon="6.72548">
        <ele>7</ele>
        <time>2023-05-16T15:12:16Z</time>
      </trkpt>
      <trkpt lat="43.38156" lon="6.72549">
        <ele>7</ele>
        <time>2023-05-16T15:12:17Z</time>
      </trkpt>
      <trkpt lat="43.38156" lon="6.72549">
        <ele>7</ele>
        <time>2023-05-16T15:12:18Z</time>
      </trkpt>
      <trkpt lat="43.38156" lon="6.7255">
        <ele>7</ele>
        <time>2023-05-16T15:12:19Z</time>
      </trkpt>
      <trkpt lat="43.38155" lon="6.7255">
        <ele>7</ele>
        <time>2023-05-16T15:12:20Z</time>
      </trkpt>
      <trkpt lat="43.38155" lon="6.7255">
        <ele>7</ele>
        <time>2023-05-16T15:12:21Z</time>
      </trkpt>
      <trkpt lat="43.38154" lon="6.72551">
        <ele>7</ele>
        <time>2023-05-16T15:12:22Z</time>
      </trkpt>
      <trkpt lat="43.38154" lon="6.7255">
        <ele>7</ele>
        <time>2023-05-16T15:12:23Z</time>
      </trkpt>
      <trkpt lat="43.38153" lon="6.7255">
        <ele>7</ele>
        <time>2023-05-16T15:12:25Z</time>
      </trkpt>
      <trkpt lat="43.38152" lon="6.72551">
        <ele>7</ele>
        <time>2023-05-16T15:12:26Z</time>
      </trkpt>
      <trkpt lat="43.38152" lon="6.72551">
        <ele>7</ele>
        <time>2023-05-16T15:12:27Z</time>
      </trkpt>
      <trkpt lat="43.38152" lon="6.72552">
        <ele>7</ele>
        <time>2023-05-16T15:12:28Z</time>
      </trkpt>
      <trkpt lat="43.38152" lon="6.72554">
        <ele>7</ele>
        <time>2023-05-16T15:12:30Z</time>
      </trkpt>
      <trkpt lat="43.38152" lon="6.72554">
        <ele>7</ele>
        <time>2023-05-16T15:12:31Z</time>
      </trkpt>
      <trkpt lat="43.38152" lon="6.72554">
        <ele>7</ele>
        <time>2023-05-16T15:12:33Z</time>
      </trkpt>
      <trkpt lat="43.38151" lon="6.72554">
        <ele>7</ele>
        <time>2023-05-16T15:12:34Z</time>
      </trkpt>
      <trkpt lat="43.38151" lon="6.72554">
        <ele>7</ele>
        <time>2023-05-16T15:12:35Z</time>
      </trkpt>
      <trkpt lat="43.38151" lon="6.72554">
        <ele>7</ele>
        <time>2023-05-16T15:12:36Z</time>
      </trkpt>
      <trkpt lat="43.38152" lon="6.72553">
        <ele>7</ele>
        <time>2023-05-16T15:12:38Z</time>
      </trkpt>
      <trkpt lat="43.38152" lon="6.72552">
        <ele>7</ele>
        <time>2023-05-16T15:12:39Z</time>
      </trkpt>
      <trkpt lat="43.38152" lon="6.72553">
        <ele>7</ele>
        <time>2023-05-16T15:12:40Z</time>
      </trkpt>
      <trkpt lat="43.38153" lon="6.72553">
        <ele>7</ele>
        <time>2023-05-16T15:12:42Z</time>
      </trkpt>
      <trkpt lat="43.38153" lon="6.72553">
        <ele>7</ele>
        <time>2023-05-16T15:12:43Z</time>
      </trkpt>
      <trkpt lat="43.38153" lon="6.72553">
        <ele>7</ele>
        <time>2023-05-16T15:12:44Z</time>
      </trkpt>
      <trkpt lat="43.38153" lon="6.72553">
        <ele>7</ele>
        <time>2023-05-16T15:12:46Z</time>
      </trkpt>
      <trkpt lat="43.38153" lon="6.72552">
        <ele>7</ele>
        <time>2023-05-16T15:12:47Z</time>
      </trkpt>
      <trkpt lat="43.38153" lon="6.72552">
        <ele>7</ele>
        <time>2023-05-16T15:12:48Z</time>
      </trkpt>
      <trkpt lat="43.38153" lon="6.72552">
        <ele>7</ele>
        <time>2023-05-16T15:12:49Z</time>
      </trkpt>
      <trkpt lat="43.38153" lon="6.72552">
        <ele>7</ele>
        <time>2023-05-16T15:12:50Z</time>
      </trkpt>
      <trkpt lat="43.38153" lon="6.72552">
        <ele>7</ele>
        <time>2023-05-16T15:12:51Z</time>
      </trkpt>
      <trkpt lat="43.38153" lon="6.72552">
        <ele>7</ele>
        <time>2023-05-16T15:12:52Z</time>
      </trkpt>
      <trkpt lat="43.38153" lon="6.72552">
        <ele>7</ele>
        <time>2023-05-16T15:12:53Z</time>
      </trkpt>
      <trkpt lat="43.38153" lon="6.72552">
        <ele>7</ele>
        <time>2023-05-16T15:12:54Z</time>
      </trkpt>
      <trkpt lat="43.38153" lon="6.72552">
        <ele>7</ele>
        <time>2023-05-16T15:12:55Z</time>
      </trkpt>
      <trkpt lat="43.38153" lon="6.72552">
        <ele>7</ele>
        <time>2023-05-16T15:12:56Z</time>
      </trkpt>
      <trkpt lat="43.38153" lon="6.72552">
        <ele>7</ele>
        <time>2023-05-16T15:12:57Z</time>
      </trkpt>
      <trkpt lat="43.38153" lon="6.72552">
        <ele>7</ele>
        <time>2023-05-16T15:12:58Z</time>
      </trkpt>
      <trkpt lat="43.38153" lon="6.72552">
        <ele>7</ele>
        <time>2023-05-16T15:12:59Z</time>
      </trkpt>
      <trkpt lat="43.38153" lon="6.72552">
        <ele>7</ele>
        <time>2023-05-16T15:13:00Z</time>
      </trkpt>
      <trkpt lat="43.38153" lon="6.72552">
        <ele>7</ele>
        <time>2023-05-16T15:13:01Z</time>
      </trkpt>
      <trkpt lat="43.38153" lon="6.72552">
        <ele>7</ele>
        <time>2023-05-16T15:13:02Z</time>
      </trkpt>
      <trkpt lat="43.38153" lon="6.72552">
        <ele>7</ele>
        <time>2023-05-16T15:13:03Z</time>
      </trkpt>
      <trkpt lat="43.38153" lon="6.72552">
        <ele>7</ele>
        <time>2023-05-16T15:13:04Z</time>
      </trkpt>
      <trkpt lat="43.38153" lon="6.72552">
        <ele>7</ele>
        <time>2023-05-16T15:13:05Z</time>
      </trkpt>
      <trkpt lat="43.38153" lon="6.72552">
        <ele>7</ele>
        <time>2023-05-16T15:13:06Z</time>
      </trkpt>
      <trkpt lat="43.38153" lon="6.72553">
        <ele>7</ele>
        <time>2023-05-16T15:13:07Z</time>
      </trkpt>
      <trkpt lat="43.38153" lon="6.72553">
        <ele>7</ele>
        <time>2023-05-16T15:13:08Z</time>
      </trkpt>
      <trkpt lat="43.38153" lon="6.72553">
        <ele>7</ele>
        <time>2023-05-16T15:13:09Z</time>
      </trkpt>
      <trkpt lat="43.38153" lon="6.72553">
        <ele>7</ele>
        <time>2023-05-16T15:13:10Z</time>
      </trkpt>
      <trkpt lat="43.38154" lon="6.72554">
        <ele>6.9</ele>
        <time>2023-05-16T15:13:11Z</time>
      </trkpt>
      <trkpt lat="43.38154" lon="6.72555">
        <ele>6.9</ele>
        <time>2023-05-16T15:13:12Z</time>
      </trkpt>
      <trkpt lat="43.38153" lon="6.72556">
        <ele>6.9</ele>
        <time>2023-05-16T15:13:13Z</time>
      </trkpt>
      <trkpt lat="43.38153" lon="6.72557">
        <ele>6.9</ele>
        <time>2023-05-16T15:13:14Z</time>
      </trkpt>
      <trkpt lat="43.38152" lon="6.72558">
        <ele>6.9</ele>
        <time>2023-05-16T15:13:15Z</time>
      </trkpt>
      <trkpt lat="43.38152" lon="6.72559">
        <ele>6.9</ele>
        <time>2023-05-16T15:13:17Z</time>
      </trkpt>
      <trkpt lat="43.38152" lon="6.7256">
        <ele>6.9</ele>
        <time>2023-05-16T15:13:18Z</time>
      </trkpt>
      <trkpt lat="43.3815" lon="6.72562">
        <ele>6.9</ele>
        <time>2023-05-16T15:13:20Z</time>
      </trkpt>
      <trkpt lat="43.38149" lon="6.72563">
        <ele>6.9</ele>
        <time>2023-05-16T15:13:21Z</time>
      </trkpt>
      <trkpt lat="43.38149" lon="6.72564">
        <ele>6.9</ele>
        <time>2023-05-16T15:13:22Z</time>
      </trkpt>
      <trkpt lat="43.38149" lon="6.72566">
        <ele>6.9</ele>
        <time>2023-05-16T15:13:23Z</time>
      </trkpt>
      <trkpt lat="43.38149" lon="6.72568">
        <ele>6.9</ele>
        <time>2023-05-16T15:13:24Z</time>
      </trkpt>
      <trkpt lat="43.38149" lon="6.72568">
        <ele>6.9</ele>
        <time>2023-05-16T15:13:25Z</time>
      </trkpt>
      <trkpt lat="43.38149" lon="6.7257">
        <ele>6.9</ele>
        <time>2023-05-16T15:13:27Z</time>
      </trkpt>
      <trkpt lat="43.38149" lon="6.7257">
        <ele>6.9</ele>
        <time>2023-05-16T15:13:28Z</time>
      </trkpt>
      <trkpt lat="43.38149" lon="6.72572">
        <ele>6.9</ele>
        <time>2023-05-16T15:13:29Z</time>
      </trkpt>
      <trkpt lat="43.3815" lon="6.72573">
        <ele>6.8</ele>
        <time>2023-05-16T15:13:30Z</time>
      </trkpt>
      <trkpt lat="43.38151" lon="6.72575">
        <ele>6.8</ele>
        <time>2023-05-16T15:13:32Z</time>
      </trkpt>
      <trkpt lat="43.38152" lon="6.72577">
        <ele>6.8</ele>
        <time>2023-05-16T15:13:33Z</time>
      </trkpt>
      <trkpt lat="43.38153" lon="6.72578">
        <ele>6.8</ele>
        <time>2023-05-16T15:13:34Z</time>
      </trkpt>
      <trkpt lat="43.38155" lon="6.72579">
        <ele>6.8</ele>
        <time>2023-05-16T15:13:35Z</time>
      </trkpt>
      <trkpt lat="43.38155" lon="6.7258">
        <ele>6.8</ele>
        <time>2023-05-16T15:13:36Z</time>
      </trkpt>
      <trkpt lat="43.38158" lon="6.72579">
        <ele>6.8</ele>
        <time>2023-05-16T15:13:37Z</time>
      </trkpt>
      <trkpt lat="43.38158" lon="6.72578">
        <ele>6.7</ele>
        <time>2023-05-16T15:13:38Z</time>
      </trkpt>
      <trkpt lat="43.38159" lon="6.72577">
        <ele>6.7</ele>
        <time>2023-05-16T15:13:39Z</time>
      </trkpt>
      <trkpt lat="43.3816" lon="6.72575">
        <ele>6.7</ele>
        <time>2023-05-16T15:13:40Z</time>
      </trkpt>
      <trkpt lat="43.38161" lon="6.72573">
        <ele>6.7</ele>
        <time>2023-05-16T15:13:42Z</time>
      </trkpt>
      <trkpt lat="43.38162" lon="6.72572">
        <ele>6.7</ele>
        <time>2023-05-16T15:13:43Z</time>
      </trkpt>
      <trkpt lat="43.38164" lon="6.72571">
        <ele>6.7</ele>
        <time>2023-05-16T15:13:44Z</time>
      </trkpt>
      <trkpt lat="43.38165" lon="6.72571">
        <ele>6.7</ele>
        <time>2023-05-16T15:13:45Z</time>
      </trkpt>
      <trkpt lat="43.38166" lon="6.72571">
        <ele>6.6</ele>
        <time>2023-05-16T15:13:46Z</time>
      </trkpt>
      <trkpt lat="43.38167" lon="6.72572">
        <ele>6.6</ele>
        <time>2023-05-16T15:13:47Z</time>
      </trkpt>
      <trkpt lat="43.38168" lon="6.72573">
        <ele>6.6</ele>
        <time>2023-05-16T15:13:48Z</time>
      </trkpt>
      <trkpt lat="43.38169" lon="6.72574">
        <ele>6.6</ele>
        <time>2023-05-16T15:13:50Z</time>
      </trkpt>
      <trkpt lat="43.3817" lon="6.72574">
        <ele>6.6</ele>
        <time>2023-05-16T15:13:51Z</time>
      </trkpt>
      <trkpt lat="43.38171" lon="6.72572">
        <ele>6.6</ele>
        <time>2023-05-16T15:13:52Z</time>
      </trkpt>
      <trkpt lat="43.38172" lon="6.72571">
        <ele>6.6</ele>
        <time>2023-05-16T15:13:53Z</time>
      </trkpt>
      <trkpt lat="43.38172" lon="6.7257">
        <ele>6.6</ele>
        <time>2023-05-16T15:13:54Z</time>
      </trkpt>
      <trkpt lat="43.38173" lon="6.72569">
        <ele>6.6</ele>
        <time>2023-05-16T15:13:55Z</time>
      </trkpt>
      <trkpt lat="43.38173" lon="6.72569">
        <ele>6.6</ele>
        <time>2023-05-16T15:13:57Z</time>
      </trkpt>
      <trkpt lat="43.38173" lon="6.72569">
        <ele>6.6</ele>
        <time>2023-05-16T15:13:58Z</time>
      </trkpt>
      <trkpt lat="43.38173" lon="6.72569">
        <ele>6.6</ele>
        <time>2023-05-16T15:13:59Z</time>
      </trkpt>
      <trkpt lat="43.38173" lon="6.72569">
        <ele>6.5</ele>
        <time>2023-05-16T15:14:00Z</time>
      </trkpt>
      <trkpt lat="43.38173" lon="6.7257">
        <ele>6.5</ele>
        <time>2023-05-16T15:14:01Z</time>
      </trkpt>
      <trkpt lat="43.38173" lon="6.7257">
        <ele>6.5</ele>
        <time>2023-05-16T15:14:02Z</time>
      </trkpt>
      <trkpt lat="43.38173" lon="6.7257">
        <ele>6.5</ele>
        <time>2023-05-16T15:14:03Z</time>
      </trkpt>
      <trkpt lat="43.38174" lon="6.7257">
        <ele>6.5</ele>
        <time>2023-05-16T15:14:05Z</time>
      </trkpt>
      <trkpt lat="43.38174" lon="6.7257">
        <ele>6.5</ele>
        <time>2023-05-16T15:14:06Z</time>
      </trkpt>
      <trkpt lat="43.38174" lon="6.7257">
        <ele>6.5</ele>
        <time>2023-05-16T15:14:08Z</time>
      </trkpt>
      <trkpt lat="43.38174" lon="6.72571">
        <ele>6.5</ele>
        <time>2023-05-16T15:14:09Z</time>
      </trkpt>
      <trkpt lat="43.38174" lon="6.72571">
        <ele>6.5</ele>
        <time>2023-05-16T15:14:10Z</time>
      </trkpt>
      <trkpt lat="43.38174" lon="6.72571">
        <ele>6.5</ele>
        <time>2023-05-16T15:14:12Z</time>
      </trkpt>
      <trkpt lat="43.38174" lon="6.72571">
        <ele>6.5</ele>
        <time>2023-05-16T15:14:13Z</time>
      </trkpt>
      <trkpt lat="43.38174" lon="6.72571">
        <ele>6.5</ele>
        <time>2023-05-16T15:14:14Z</time>
      </trkpt>
      <trkpt lat="43.38174" lon="6.72571">
        <ele>6.5</ele>
        <time>2023-05-16T15:14:16Z</time>
      </trkpt>
      <trkpt lat="43.38174" lon="6.72571">
        <ele>6.5</ele>
        <time>2023-05-16T15:14:17Z</time>
      </trkpt>
      <trkpt lat="43.38174" lon="6.72572">
        <ele>6.5</ele>
        <time>2023-05-16T15:14:18Z</time>
      </trkpt>
      <trkpt lat="43.38174" lon="6.72572">
        <ele>6.5</ele>
        <time>2023-05-16T15:14:19Z</time>
      </trkpt>
      <trkpt lat="43.38174" lon="6.72572">
        <ele>6.5</ele>
        <time>2023-05-16T15:14:20Z</time>
      </trkpt>
      <trkpt lat="43.38174" lon="6.72572">
        <ele>6.5</ele>
        <time>2023-05-16T15:14:21Z</time>
      </trkpt>
      <trkpt lat="43.38174" lon="6.72572">
        <ele>6.5</ele>
        <time>2023-05-16T15:14:22Z</time>
      </trkpt>
      <trkpt lat="43.38174" lon="6.72573">
        <ele>6.5</ele>
        <time>2023-05-16T15:14:23Z</time>
      </trkpt>
      <trkpt lat="43.38174" lon="6.72573">
        <ele>6.5</ele>
        <time>2023-05-16T15:14:24Z</time>
      </trkpt>
      <trkpt lat="43.38175" lon="6.72573">
        <ele>6.5</ele>
        <time>2023-05-16T15:14:25Z</time>
      </trkpt>
      <trkpt lat="43.38175" lon="6.72573">
        <ele>6.5</ele>
        <time>2023-05-16T15:14:26Z</time>
      </trkpt>
      <trkpt lat="43.38175" lon="6.72573">
        <ele>6.5</ele>
        <time>2023-05-16T15:14:27Z</time>
      </trkpt>
      <trkpt lat="43.38175" lon="6.72573">
        <ele>6.5</ele>
        <time>2023-05-16T15:14:28Z</time>
      </trkpt>
      <trkpt lat="43.38175" lon="6.72573">
        <ele>6.5</ele>
        <time>2023-05-16T15:14:29Z</time>
      </trkpt>
      <trkpt lat="43.38175" lon="6.72574">
        <ele>6.5</ele>
        <time>2023-05-16T15:14:31Z</time>
      </trkpt>
      <trkpt lat="43.38175" lon="6.72574">
        <ele>6.5</ele>
        <time>2023-05-16T15:14:32Z</time>
      </trkpt>
      <trkpt lat="43.38175" lon="6.72574">
        <ele>6.5</ele>
        <time>2023-05-16T15:14:33Z</time>
      </trkpt>
      <trkpt lat="43.38176" lon="6.72576">
        <ele>6.5</ele>
        <time>2023-05-16T15:14:34Z</time>
      </trkpt>
      <trkpt lat="43.38177" lon="6.72576">
        <ele>6.4</ele>
        <time>2023-05-16T15:14:35Z</time>
      </trkpt>
      <trkpt lat="43.38179" lon="6.72577">
        <ele>6.4</ele>
        <time>2023-05-16T15:14:36Z</time>
      </trkpt>
      <trkpt lat="43.3818" lon="6.72577">
        <ele>6.4</ele>
        <time>2023-05-16T15:14:37Z</time>
      </trkpt>
      <trkpt lat="43.38181" lon="6.72577">
        <ele>6.4</ele>
        <time>2023-05-16T15:14:38Z</time>
      </trkpt>
      <trkpt lat="43.38183" lon="6.72577">
        <ele>6.3</ele>
        <time>2023-05-16T15:14:39Z</time>
      </trkpt>
      <trkpt lat="43.38184" lon="6.72576">
        <ele>6.3</ele>
        <time>2023-05-16T15:14:40Z</time>
      </trkpt>
      <trkpt lat="43.38185" lon="6.72576">
        <ele>6.3</ele>
        <time>2023-05-16T15:14:42Z</time>
      </trkpt>
      <trkpt lat="43.38186" lon="6.72576">
        <ele>6.3</ele>
        <time>2023-05-16T15:14:43Z</time>
      </trkpt>
      <trkpt lat="43.38188" lon="6.72575">
        <ele>6.2</ele>
        <time>2023-05-16T15:14:44Z</time>
      </trkpt>
      <trkpt lat="43.38189" lon="6.72576">
        <ele>6.2</ele>
        <time>2023-05-16T15:14:45Z</time>
      </trkpt>
      <trkpt lat="43.38191" lon="6.72576">
        <ele>6.1</ele>
        <time>2023-05-16T15:14:46Z</time>
      </trkpt>
      <trkpt lat="43.38191" lon="6.72575">
        <ele>6.1</ele>
        <time>2023-05-16T15:14:47Z</time>
      </trkpt>
      <trkpt lat="43.38192" lon="6.72574">
        <ele>6.1</ele>
        <time>2023-05-16T15:14:48Z</time>
      </trkpt>
      <trkpt lat="43.38193" lon="6.72573">
        <ele>6.1</ele>
        <time>2023-05-16T15:14:49Z</time>
      </trkpt>
      <trkpt lat="43.38193" lon="6.72572">
        <ele>6</ele>
        <time>2023-05-16T15:14:50Z</time>
      </trkpt>
      <trkpt lat="43.38194" lon="6.72571">
        <ele>6</ele>
        <time>2023-05-16T15:14:51Z</time>
      </trkpt>
      <trkpt lat="43.38194" lon="6.72568">
        <ele>6</ele>
        <time>2023-05-16T15:14:53Z</time>
      </trkpt>
      <trkpt lat="43.38194" lon="6.72567">
        <ele>5.9</ele>
        <time>2023-05-16T15:14:54Z</time>
      </trkpt>
      <trkpt lat="43.38194" lon="6.72565">
        <ele>5.9</ele>
        <time>2023-05-16T15:14:55Z</time>
      </trkpt>
      <trkpt lat="43.38194" lon="6.72564">
        <ele>5.9</ele>
        <time>2023-05-16T15:14:56Z</time>
      </trkpt>
      <trkpt lat="43.38194" lon="6.72563">
        <ele>5.9</ele>
        <time>2023-05-16T15:14:57Z</time>
      </trkpt>
      <trkpt lat="43.38194" lon="6.72561">
        <ele>5.9</ele>
        <time>2023-05-16T15:14:58Z</time>
      </trkpt>
      <trkpt lat="43.38195" lon="6.72559">
        <ele>5.8</ele>
        <time>2023-05-16T15:14:59Z</time>
      </trkpt>
      <trkpt lat="43.38196" lon="6.72559">
        <ele>5.8</ele>
        <time>2023-05-16T15:15:00Z</time>
      </trkpt>
      <trkpt lat="43.38197" lon="6.72559">
        <ele>5.8</ele>
        <time>2023-05-16T15:15:02Z</time>
      </trkpt>
      <trkpt lat="43.38198" lon="6.72559">
        <ele>5.8</ele>
        <time>2023-05-16T15:15:03Z</time>
      </trkpt>
      <trkpt lat="43.38199" lon="6.72559">
        <ele>5.8</ele>
        <time>2023-05-16T15:15:04Z</time>
      </trkpt>
      <trkpt lat="43.38201" lon="6.7256">
        <ele>5.8</ele>
        <time>2023-05-16T15:15:05Z</time>
      </trkpt>
      <trkpt lat="43.38202" lon="6.7256">
        <ele>5.8</ele>
        <time>2023-05-16T15:15:07Z</time>
      </trkpt>
      <trkpt lat="43.38203" lon="6.7256">
        <ele>5.8</ele>
        <time>2023-05-16T15:15:08Z</time>
      </trkpt>
      <trkpt lat="43.38204" lon="6.7256">
        <ele>5.8</ele>
        <time>2023-05-16T15:15:09Z</time>
      </trkpt>
      <trkpt lat="43.38206" lon="6.72561">
        <ele>5.8</ele>
        <time>2023-05-16T15:15:10Z</time>
      </trkpt>
      <trkpt lat="43.38207" lon="6.7256">
        <ele>5.9</ele>
        <time>2023-05-16T15:15:11Z</time>
      </trkpt>
      <trkpt lat="43.38208" lon="6.7256">
        <ele>5.9</ele>
        <time>2023-05-16T15:15:12Z</time>
      </trkpt>
      <trkpt lat="43.38209" lon="6.7256">
        <ele>5.9</ele>
        <time>2023-05-16T15:15:14Z</time>
      </trkpt>
      <trkpt lat="43.3821" lon="6.72559">
        <ele>5.9</ele>
        <time>2023-05-16T15:15:15Z</time>
      </trkpt>
      <trkpt lat="43.38211" lon="6.72559">
        <ele>5.9</ele>
        <time>2023-05-16T15:15:16Z</time>
      </trkpt>
      <trkpt lat="43.38211" lon="6.72559">
        <ele>5.9</ele>
        <time>2023-05-16T15:15:17Z</time>
      </trkpt>
      <trkpt lat="43.38212" lon="6.7256">
        <ele>6</ele>
        <time>2023-05-16T15:15:18Z</time>
      </trkpt>
      <trkpt lat="43.38213" lon="6.72561">
        <ele>6</ele>
        <time>2023-05-16T15:15:20Z</time>
      </trkpt>
      <trkpt lat="43.38215" lon="6.72561">
        <ele>6</ele>
        <time>2023-05-16T15:15:21Z</time>
      </trkpt>
      <trkpt lat="43.38215" lon="6.72562">
        <ele>6</ele>
        <time>2023-05-16T15:15:22Z</time>
      </trkpt>
      <trkpt lat="43.38214" lon="6.72563">
        <ele>6.1</ele>
        <time>2023-05-16T15:15:23Z</time>
      </trkpt>
      <trkpt lat="43.38214" lon="6.72565">
        <ele>6.1</ele>
        <time>2023-05-16T15:15:24Z</time>
      </trkpt>
      <trkpt lat="43.38212" lon="6.72567">
        <ele>6.1</ele>
        <time>2023-05-16T15:15:25Z</time>
      </trkpt>
      <trkpt lat="43.38211" lon="6.72568">
        <ele>6.2</ele>
        <time>2023-05-16T15:15:27Z</time>
      </trkpt>
      <trkpt lat="43.38211" lon="6.72569">
        <ele>6.2</ele>
        <time>2023-05-16T15:15:28Z</time>
      </trkpt>
      <trkpt lat="43.3821" lon="6.7257">
        <ele>6.2</ele>
        <time>2023-05-16T15:15:29Z</time>
      </trkpt>
      <trkpt lat="43.38209" lon="6.72571">
        <ele>6.2</ele>
        <time>2023-05-16T15:15:30Z</time>
      </trkpt>
      <trkpt lat="43.38207" lon="6.72572">
        <ele>6.3</ele>
        <time>2023-05-16T15:15:32Z</time>
      </trkpt>
      <trkpt lat="43.38206" lon="6.72573">
        <ele>6.3</ele>
        <time>2023-05-16T15:15:33Z</time>
      </trkpt>
      <trkpt lat="43.38205" lon="6.72573">
        <ele>6.3</ele>
        <time>2023-05-16T15:15:34Z</time>
      </trkpt>
      <trkpt lat="43.38204" lon="6.72573">
        <ele>6.3</ele>
        <time>2023-05-16T15:15:35Z</time>
      </trkpt>
      <trkpt lat="43.38203" lon="6.72574">
        <ele>6.3</ele>
        <time>2023-05-16T15:15:37Z</time>
      </trkpt>
      <trkpt lat="43.38202" lon="6.72575">
        <ele>6.4</ele>
        <time>2023-05-16T15:15:38Z</time>
      </trkpt>
      <trkpt lat="43.38202" lon="6.72577">
        <ele>6.4</ele>
        <time>2023-05-16T15:15:39Z</time>
      </trkpt>
      <trkpt lat="43.38203" lon="6.72578">
        <ele>6.4</ele>
        <time>2023-05-16T15:15:40Z</time>
      </trkpt>
      <trkpt lat="43.38204" lon="6.7258">
        <ele>6.4</ele>
        <time>2023-05-16T15:15:41Z</time>
      </trkpt>
      <trkpt lat="43.38205" lon="6.7258">
        <ele>6.4</ele>
        <time>2023-05-16T15:15:42Z</time>
      </trkpt>
      <trkpt lat="43.38206" lon="6.72581">
        <ele>6.4</ele>
        <time>2023-05-16T15:15:43Z</time>
      </trkpt>
      <trkpt lat="43.38206" lon="6.72584">
        <ele>6.4</ele>
        <time>2023-05-16T15:15:45Z</time>
      </trkpt>
      <trkpt lat="43.38206" lon="6.72586">
        <ele>6.5</ele>
        <time>2023-05-16T15:15:47Z</time>
      </trkpt>
      <trkpt lat="43.38207" lon="6.72587">
        <ele>6.5</ele>
        <time>2023-05-16T15:15:48Z</time>
      </trkpt>
      <trkpt lat="43.38207" lon="6.72588">
        <ele>6.5</ele>
        <time>2023-05-16T15:15:49Z</time>
      </trkpt>
      <trkpt lat="43.38208" lon="6.72589">
        <ele>6.5</ele>
        <time>2023-05-16T15:15:50Z</time>
      </trkpt>
      <trkpt lat="43.38209" lon="6.72591">
        <ele>6.5</ele>
        <time>2023-05-16T15:15:51Z</time>
      </trkpt>
      <trkpt lat="43.38209" lon="6.72592">
        <ele>6.5</ele>
        <time>2023-05-16T15:15:52Z</time>
      </trkpt>
      <trkpt lat="43.3821" lon="6.72593">
        <ele>6.5</ele>
        <time>2023-05-16T15:15:54Z</time>
      </trkpt>
      <trkpt lat="43.3821" lon="6.72594">
        <ele>6.5</ele>
        <time>2023-05-16T15:15:55Z</time>
      </trkpt>
      <trkpt lat="43.3821" lon="6.72593">
        <ele>6.5</ele>
        <time>2023-05-16T15:15:56Z</time>
      </trkpt>
      <trkpt lat="43.38211" lon="6.72594">
        <ele>6.5</ele>
        <time>2023-05-16T15:15:57Z</time>
      </trkpt>
      <trkpt lat="43.38211" lon="6.72595">
        <ele>6.4</ele>
        <time>2023-05-16T15:15:58Z</time>
      </trkpt>
      <trkpt lat="43.38212" lon="6.72595">
        <ele>6.4</ele>
        <time>2023-05-16T15:15:59Z</time>
      </trkpt>
      <trkpt lat="43.38213" lon="6.72594">
        <ele>6.4</ele>
        <time>2023-05-16T15:16:00Z</time>
      </trkpt>
      <trkpt lat="43.38214" lon="6.72593">
        <ele>6.4</ele>
        <time>2023-05-16T15:16:01Z</time>
      </trkpt>
      <trkpt lat="43.38215" lon="6.72592">
        <ele>6.4</ele>
        <time>2023-05-16T15:16:02Z</time>
      </trkpt>
      <trkpt lat="43.38217" lon="6.72591">
        <ele>6.4</ele>
        <time>2023-05-16T15:16:04Z</time>
      </trkpt>
      <trkpt lat="43.38218" lon="6.7259">
        <ele>6.4</ele>
        <time>2023-05-16T15:16:05Z</time>
      </trkpt>
      <trkpt lat="43.38219" lon="6.7259">
        <ele>6.4</ele>
        <time>2023-05-16T15:16:06Z</time>
      </trkpt>
      <trkpt lat="43.3822" lon="6.72591">
        <ele>6.4</ele>
        <time>2023-05-16T15:16:08Z</time>
      </trkpt>
      <trkpt lat="43.38221" lon="6.72592">
        <ele>6.3</ele>
        <time>2023-05-16T15:16:09Z</time>
      </trkpt>
      <trkpt lat="43.38222" lon="6.72594">
        <ele>6.3</ele>
        <time>2023-05-16T15:16:10Z</time>
      </trkpt>
      <trkpt lat="43.38224" lon="6.72595">
        <ele>6.3</ele>
        <time>2023-05-16T15:16:11Z</time>
      </trkpt>
      <trkpt lat="43.38225" lon="6.72596">
        <ele>6.3</ele>
        <time>2023-05-16T15:16:12Z</time>
      </trkpt>
      <trkpt lat="43.38226" lon="6.72596">
        <ele>6.3</ele>
        <time>2023-05-16T15:16:13Z</time>
      </trkpt>
      <trkpt lat="43.38227" lon="6.72597">
        <ele>6.2</ele>
        <time>2023-05-16T15:16:14Z</time>
      </trkpt>
      <trkpt lat="43.38228" lon="6.72597">
        <ele>6.2</ele>
        <time>2023-05-16T15:16:16Z</time>
      </trkpt>
      <trkpt lat="43.38229" lon="6.72597">
        <ele>6.2</ele>
        <time>2023-05-16T15:16:17Z</time>
      </trkpt>
      <trkpt lat="43.3823" lon="6.72597">
        <ele>6.2</ele>
        <time>2023-05-16T15:16:18Z</time>
      </trkpt>
      <trkpt lat="43.38231" lon="6.72597">
        <ele>6.2</ele>
        <time>2023-05-16T15:16:19Z</time>
      </trkpt>
      <trkpt lat="43.38231" lon="6.72596">
        <ele>6.2</ele>
        <time>2023-05-16T15:16:20Z</time>
      </trkpt>
      <trkpt lat="43.38232" lon="6.72593">
        <ele>6.1</ele>
        <time>2023-05-16T15:16:21Z</time>
      </trkpt>
      <trkpt lat="43.38232" lon="6.7259">
        <ele>6.1</ele>
        <time>2023-05-16T15:16:23Z</time>
      </trkpt>
      <trkpt lat="43.38232" lon="6.72589">
        <ele>6.1</ele>
        <time>2023-05-16T15:16:24Z</time>
      </trkpt>
      <trkpt lat="43.38232" lon="6.72587">
        <ele>6</ele>
        <time>2023-05-16T15:16:25Z</time>
      </trkpt>
      <trkpt lat="43.38233" lon="6.72586">
        <ele>6</ele>
        <time>2023-05-16T15:16:26Z</time>
      </trkpt>
      <trkpt lat="43.38234" lon="6.72584">
        <ele>6</ele>
        <time>2023-05-16T15:16:27Z</time>
      </trkpt>
      <trkpt lat="43.38236" lon="6.72585">
        <ele>5.9</ele>
        <time>2023-05-16T15:16:28Z</time>
      </trkpt>
      <trkpt lat="43.38237" lon="6.72585">
        <ele>5.9</ele>
        <time>2023-05-16T15:16:29Z</time>
      </trkpt>
      <trkpt lat="43.38239" lon="6.72586">
        <ele>5.9</ele>
        <time>2023-05-16T15:16:31Z</time>
      </trkpt>
      <trkpt lat="43.38241" lon="6.72587">
        <ele>5.8</ele>
        <time>2023-05-16T15:16:32Z</time>
      </trkpt>
      <trkpt lat="43.38242" lon="6.72588">
        <ele>5.8</ele>
        <time>2023-05-16T15:16:34Z</time>
      </trkpt>
      <trkpt lat="43.38243" lon="6.72588">
        <ele>5.7</ele>
        <time>2023-05-16T15:16:35Z</time>
      </trkpt>
      <trkpt lat="43.38243" lon="6.72589">
        <ele>5.7</ele>
        <time>2023-05-16T15:16:36Z</time>
      </trkpt>
      <trkpt lat="43.38244" lon="6.7259">
        <ele>5.7</ele>
        <time>2023-05-16T15:16:37Z</time>
      </trkpt>
      <trkpt lat="43.38245" lon="6.7259">
        <ele>5.7</ele>
        <time>2023-05-16T15:16:38Z</time>
      </trkpt>
      <trkpt lat="43.38246" lon="6.7259">
        <ele>5.6</ele>
        <time>2023-05-16T15:16:39Z</time>
      </trkpt>
      <trkpt lat="43.38247" lon="6.7259">
        <ele>5.6</ele>
        <time>2023-05-16T15:16:40Z</time>
      </trkpt>
      <trkpt lat="43.3825" lon="6.7259">
        <ele>5.5</ele>
        <time>2023-05-16T15:16:41Z</time>
      </trkpt>
      <trkpt lat="43.3825" lon="6.7259">
        <ele>5.5</ele>
        <time>2023-05-16T15:16:42Z</time>
      </trkpt>
      <trkpt lat="43.38251" lon="6.7259">
        <ele>5.4</ele>
        <time>2023-05-16T15:16:44Z</time>
      </trkpt>
      <trkpt lat="43.38253" lon="6.7259">
        <ele>5.4</ele>
        <time>2023-05-16T15:16:45Z</time>
      </trkpt>
      <trkpt lat="43.38254" lon="6.7259">
        <ele>5.3</ele>
        <time>2023-05-16T15:16:46Z</time>
      </trkpt>
      <trkpt lat="43.38255" lon="6.7259">
        <ele>5.3</ele>
        <time>2023-05-16T15:16:47Z</time>
      </trkpt>
      <trkpt lat="43.38256" lon="6.7259">
        <ele>5.2</ele>
        <time>2023-05-16T15:16:48Z</time>
      </trkpt>
      <trkpt lat="43.38258" lon="6.7259">
        <ele>5.2</ele>
        <time>2023-05-16T15:16:49Z</time>
      </trkpt>
      <trkpt lat="43.38259" lon="6.7259">
        <ele>5.1</ele>
        <time>2023-05-16T15:16:50Z</time>
      </trkpt>
      <trkpt lat="43.3826" lon="6.7259">
        <ele>5.1</ele>
        <time>2023-05-16T15:16:51Z</time>
      </trkpt>
      <trkpt lat="43.38261" lon="6.72589">
        <ele>5</ele>
        <time>2023-05-16T15:16:52Z</time>
      </trkpt>
      <trkpt lat="43.38262" lon="6.72587">
        <ele>5</ele>
        <time>2023-05-16T15:16:53Z</time>
      </trkpt>
      <trkpt lat="43.38263" lon="6.72586">
        <ele>5</ele>
        <time>2023-05-16T15:16:54Z</time>
      </trkpt>
      <trkpt lat="43.38264" lon="6.72585">
        <ele>4.9</ele>
        <time>2023-05-16T15:16:55Z</time>
      </trkpt>
      <trkpt lat="43.38265" lon="6.72583">
        <ele>4.9</ele>
        <time>2023-05-16T15:16:57Z</time>
      </trkpt>
      <trkpt lat="43.38266" lon="6.72582">
        <ele>4.8</ele>
        <time>2023-05-16T15:16:58Z</time>
      </trkpt>
      <trkpt lat="43.38267" lon="6.7258">
        <ele>4.8</ele>
        <time>2023-05-16T15:16:59Z</time>
      </trkpt>
      <trkpt lat="43.38268" lon="6.72579">
        <ele>4.8</ele>
        <time>2023-05-16T15:17:00Z</time>
      </trkpt>
      <trkpt lat="43.38269" lon="6.72577">
        <ele>4.7</ele>
        <time>2023-05-16T15:17:01Z</time>
      </trkpt>
      <trkpt lat="43.3827" lon="6.72576">
        <ele>4.7</ele>
        <time>2023-05-16T15:17:02Z</time>
      </trkpt>
      <trkpt lat="43.38271" lon="6.72576">
        <ele>4.7</ele>
        <time>2023-05-16T15:17:04Z</time>
      </trkpt>
      <trkpt lat="43.38272" lon="6.72575">
        <ele>4.7</ele>
        <time>2023-05-16T15:17:06Z</time>
      </trkpt>
      <trkpt lat="43.38273" lon="6.72575">
        <ele>4.6</ele>
        <time>2023-05-16T15:17:07Z</time>
      </trkpt>
      <trkpt lat="43.38274" lon="6.72574">
        <ele>4.6</ele>
        <time>2023-05-16T15:17:08Z</time>
      </trkpt>
      <trkpt lat="43.38274" lon="6.72574">
        <ele>4.6</ele>
        <time>2023-05-16T15:17:09Z</time>
      </trkpt>
      <trkpt lat="43.38275" lon="6.72573">
        <ele>4.6</ele>
        <time>2023-05-16T15:17:10Z</time>
      </trkpt>
      <trkpt lat="43.38276" lon="6.72573">
        <ele>4.6</ele>
        <time>2023-05-16T15:17:11Z</time>
      </trkpt>
      <trkpt lat="43.38277" lon="6.72573">
        <ele>4.6</ele>
        <time>2023-05-16T15:17:12Z</time>
      </trkpt>
      <trkpt lat="43.38278" lon="6.72572">
        <ele>4.6</ele>
        <time>2023-05-16T15:17:14Z</time>
      </trkpt>
      <trkpt lat="43.38279" lon="6.72571">
        <ele>4.6</ele>
        <time>2023-05-16T15:17:15Z</time>
      </trkpt>
      <trkpt lat="43.3828" lon="6.7257">
        <ele>4.5</ele>
        <time>2023-05-16T15:17:16Z</time>
      </trkpt>
      <trkpt lat="43.38281" lon="6.7257">
        <ele>4.5</ele>
        <time>2023-05-16T15:17:17Z</time>
      </trkpt>
      <trkpt lat="43.38282" lon="6.72569">
        <ele>4.5</ele>
        <time>2023-05-16T15:17:18Z</time>
      </trkpt>
      <trkpt lat="43.38283" lon="6.72568">
        <ele>4.5</ele>
        <time>2023-05-16T15:17:19Z</time>
      </trkpt>
      <trkpt lat="43.38284" lon="6.72568">
        <ele>4.5</ele>
        <time>2023-05-16T15:17:20Z</time>
      </trkpt>
      <trkpt lat="43.38285" lon="6.72568">
        <ele>4.5</ele>
        <time>2023-05-16T15:17:21Z</time>
      </trkpt>
      <trkpt lat="43.38285" lon="6.72568">
        <ele>4.5</ele>
        <time>2023-05-16T15:17:22Z</time>
      </trkpt>
      <trkpt lat="43.38288" lon="6.7257">
        <ele>4.5</ele>
        <time>2023-05-16T15:17:24Z</time>
      </trkpt>
      <trkpt lat="43.38289" lon="6.7257">
        <ele>4.5</ele>
        <time>2023-05-16T15:17:25Z</time>
      </trkpt>
      <trkpt lat="43.3829" lon="6.72571">
        <ele>4.5</ele>
        <time>2023-05-16T15:17:26Z</time>
      </trkpt>
      <trkpt lat="43.38291" lon="6.72571">
        <ele>4.4</ele>
        <time>2023-05-16T15:17:27Z</time>
      </trkpt>
      <trkpt lat="43.38293" lon="6.72572">
        <ele>4.4</ele>
        <time>2023-05-16T15:17:28Z</time>
      </trkpt>
      <trkpt lat="43.38294" lon="6.72572">
        <ele>4.4</ele>
        <time>2023-05-16T15:17:29Z</time>
      </trkpt>
      <trkpt lat="43.38295" lon="6.72572">
        <ele>4.4</ele>
        <time>2023-05-16T15:17:30Z</time>
      </trkpt>
      <trkpt lat="43.38296" lon="6.72572">
        <ele>4.4</ele>
        <time>2023-05-16T15:17:31Z</time>
      </trkpt>
      <trkpt lat="43.38297" lon="6.72572">
        <ele>4.4</ele>
        <time>2023-05-16T15:17:33Z</time>
      </trkpt>
      <trkpt lat="43.38299" lon="6.72572">
        <ele>4.4</ele>
        <time>2023-05-16T15:17:34Z</time>
      </trkpt>
      <trkpt lat="43.38299" lon="6.72572">
        <ele>4.4</ele>
        <time>2023-05-16T15:17:35Z</time>
      </trkpt>
      <trkpt lat="43.383" lon="6.72573">
        <ele>4.4</ele>
        <time>2023-05-16T15:17:36Z</time>
      </trkpt>
      <trkpt lat="43.38301" lon="6.72573">
        <ele>4.4</ele>
        <time>2023-05-16T15:17:37Z</time>
      </trkpt>
      <trkpt lat="43.38303" lon="6.72573">
        <ele>4.4</ele>
        <time>2023-05-16T15:17:38Z</time>
      </trkpt>
      <trkpt lat="43.38304" lon="6.72573">
        <ele>4.4</ele>
        <time>2023-05-16T15:17:39Z</time>
      </trkpt>
      <trkpt lat="43.38305" lon="6.72573">
        <ele>4.4</ele>
        <time>2023-05-16T15:17:40Z</time>
      </trkpt>
      <trkpt lat="43.38306" lon="6.72573">
        <ele>4.3</ele>
        <time>2023-05-16T15:17:41Z</time>
      </trkpt>
      <trkpt lat="43.38307" lon="6.72573">
        <ele>4.3</ele>
        <time>2023-05-16T15:17:43Z</time>
      </trkpt>
      <trkpt lat="43.38308" lon="6.72573">
        <ele>4.3</ele>
        <time>2023-05-16T15:17:44Z</time>
      </trkpt>
      <trkpt lat="43.38309" lon="6.72574">
        <ele>4.3</ele>
        <time>2023-05-16T15:17:45Z</time>
      </trkpt>
      <trkpt lat="43.3831" lon="6.72574">
        <ele>4.3</ele>
        <time>2023-05-16T15:17:46Z</time>
      </trkpt>
      <trkpt lat="43.38311" lon="6.72574">
        <ele>4.3</ele>
        <time>2023-05-16T15:17:47Z</time>
      </trkpt>
      <trkpt lat="43.38312" lon="6.72574">
        <ele>4.2</ele>
        <time>2023-05-16T15:17:48Z</time>
      </trkpt>
      <trkpt lat="43.38313" lon="6.72574">
        <ele>4.2</ele>
        <time>2023-05-16T15:17:49Z</time>
      </trkpt>
      <trkpt lat="43.38314" lon="6.72574">
        <ele>4.2</ele>
        <time>2023-05-16T15:17:51Z</time>
      </trkpt>
      <trkpt lat="43.38315" lon="6.72574">
        <ele>4.2</ele>
        <time>2023-05-16T15:17:52Z</time>
      </trkpt>
      <trkpt lat="43.38316" lon="6.72574">
        <ele>4.2</ele>
        <time>2023-05-16T15:17:53Z</time>
      </trkpt>
      <trkpt lat="43.38317" lon="6.72574">
        <ele>4.2</ele>
        <time>2023-05-16T15:17:54Z</time>
      </trkpt>
      <trkpt lat="43.38318" lon="6.72574">
        <ele>4.2</ele>
        <time>2023-05-16T15:17:55Z</time>
      </trkpt>
      <trkpt lat="43.38319" lon="6.72574">
        <ele>4.2</ele>
        <time>2023-05-16T15:17:56Z</time>
      </trkpt>
      <trkpt lat="43.3832" lon="6.72574">
        <ele>4.2</ele>
        <time>2023-05-16T15:17:57Z</time>
      </trkpt>
      <trkpt lat="43.38321" lon="6.72574">
        <ele>4.2</ele>
        <time>2023-05-16T15:17:59Z</time>
      </trkpt>
      <trkpt lat="43.38322" lon="6.72574">
        <ele>4.2</ele>
        <time>2023-05-16T15:18:00Z</time>
      </trkpt>
      <trkpt lat="43.38324" lon="6.72575">
        <ele>4.2</ele>
        <time>2023-05-16T15:18:01Z</time>
      </trkpt>
      <trkpt lat="43.38325" lon="6.72576">
        <ele>4.2</ele>
        <time>2023-05-16T15:18:02Z</time>
      </trkpt>
      <trkpt lat="43.38326" lon="6.72576">
        <ele>4.2</ele>
        <time>2023-05-16T15:18:03Z</time>
      </trkpt>
      <trkpt lat="43.38326" lon="6.72576">
        <ele>4.2</ele>
        <time>2023-05-16T15:18:04Z</time>
      </trkpt>
      <trkpt lat="43.38327" lon="6.72577">
        <ele>4.2</ele>
        <time>2023-05-16T15:18:05Z</time>
      </trkpt>
      <trkpt lat="43.38328" lon="6.72578">
        <ele>4.2</ele>
        <time>2023-05-16T15:18:07Z</time>
      </trkpt>
      <trkpt lat="43.38329" lon="6.72578">
        <ele>4.2</ele>
        <time>2023-05-16T15:18:08Z</time>
      </trkpt>
      <trkpt lat="43.38331" lon="6.72579">
        <ele>4.2</ele>
        <time>2023-05-16T15:18:09Z</time>
      </trkpt>
      <trkpt lat="43.38331" lon="6.7258">
        <ele>4.2</ele>
        <time>2023-05-16T15:18:10Z</time>
      </trkpt>
      <trkpt lat="43.38333" lon="6.72581">
        <ele>4.3</ele>
        <time>2023-05-16T15:18:11Z</time>
      </trkpt>
      <trkpt lat="43.38334" lon="6.72582">
        <ele>4.3</ele>
        <time>2023-05-16T15:18:12Z</time>
      </trkpt>
      <trkpt lat="43.38335" lon="6.72582">
        <ele>4.3</ele>
        <time>2023-05-16T15:18:13Z</time>
      </trkpt>
      <trkpt lat="43.38335" lon="6.72583">
        <ele>4.3</ele>
        <time>2023-05-16T15:18:14Z</time>
      </trkpt>
      <trkpt lat="43.38336" lon="6.72584">
        <ele>4.3</ele>
        <time>2023-05-16T15:18:15Z</time>
      </trkpt>
      <trkpt lat="43.38337" lon="6.72585">
        <ele>4.4</ele>
        <time>2023-05-16T15:18:17Z</time>
      </trkpt>
      <trkpt lat="43.38337" lon="6.72586">
        <ele>4.4</ele>
        <time>2023-05-16T15:18:18Z</time>
      </trkpt>
      <trkpt lat="43.38339" lon="6.72588">
        <ele>4.4</ele>
        <time>2023-05-16T15:18:19Z</time>
      </trkpt>
      <trkpt lat="43.38339" lon="6.72589">
        <ele>4.5</ele>
        <time>2023-05-16T15:18:20Z</time>
      </trkpt>
      <trkpt lat="43.3834" lon="6.7259">
        <ele>4.5</ele>
        <time>2023-05-16T15:18:21Z</time>
      </trkpt>
      <trkpt lat="43.3834" lon="6.72592">
        <ele>4.5</ele>
        <time>2023-05-16T15:18:22Z</time>
      </trkpt>
      <trkpt lat="43.38341" lon="6.72594">
        <ele>4.6</ele>
        <time>2023-05-16T15:18:23Z</time>
      </trkpt>
      <trkpt lat="43.38341" lon="6.72595">
        <ele>4.6</ele>
        <time>2023-05-16T15:18:24Z</time>
      </trkpt>
      <trkpt lat="43.38341" lon="6.72596">
        <ele>4.6</ele>
        <time>2023-05-16T15:18:26Z</time>
      </trkpt>
      <trkpt lat="43.38341" lon="6.72598">
        <ele>4.6</ele>
        <time>2023-05-16T15:18:27Z</time>
      </trkpt>
      <trkpt lat="43.38342" lon="6.726">
        <ele>4.7</ele>
        <time>2023-05-16T15:18:28Z</time>
      </trkpt>
      <trkpt lat="43.38342" lon="6.72601">
        <ele>4.7</ele>
        <time>2023-05-16T15:18:29Z</time>
      </trkpt>
      <trkpt lat="43.38343" lon="6.72602">
        <ele>4.7</ele>
        <time>2023-05-16T15:18:30Z</time>
      </trkpt>
      <trkpt lat="43.38343" lon="6.72603">
        <ele>4.7</ele>
        <time>2023-05-16T15:18:32Z</time>
      </trkpt>
      <trkpt lat="43.38344" lon="6.72604">
        <ele>4.7</ele>
        <time>2023-05-16T15:18:33Z</time>
      </trkpt>
      <trkpt lat="43.38346" lon="6.72604">
        <ele>4.7</ele>
        <time>2023-05-16T15:18:34Z</time>
      </trkpt>
      <trkpt lat="43.38346" lon="6.72603">
        <ele>4.7</ele>
        <time>2023-05-16T15:18:35Z</time>
      </trkpt>
      <trkpt lat="43.38346" lon="6.72603">
        <ele>4.7</ele>
        <time>2023-05-16T15:18:36Z</time>
      </trkpt>
      <trkpt lat="43.38346" lon="6.72602">
        <ele>4.7</ele>
        <time>2023-05-16T15:18:37Z</time>
      </trkpt>
      <trkpt lat="43.38346" lon="6.72602">
        <ele>4.7</ele>
        <time>2023-05-16T15:18:39Z</time>
      </trkpt>
      <trkpt lat="43.38346" lon="6.72602">
        <ele>4.7</ele>
        <time>2023-05-16T15:18:40Z</time>
      </trkpt>
      <trkpt lat="43.38346" lon="6.72603">
        <ele>4.7</ele>
        <time>2023-05-16T15:18:41Z</time>
      </trkpt>
      <trkpt lat="43.38346" lon="6.72604">
        <ele>4.7</ele>
        <time>2023-05-16T15:18:42Z</time>
      </trkpt>
      <trkpt lat="43.38346" lon="6.72606">
        <ele>4.7</ele>
        <time>2023-05-16T15:18:43Z</time>
      </trkpt>
      <trkpt lat="43.38346" lon="6.72607">
        <ele>4.7</ele>
        <time>2023-05-16T15:18:44Z</time>
      </trkpt>
      <trkpt lat="43.38348" lon="6.72609">
        <ele>4.7</ele>
        <time>2023-05-16T15:18:45Z</time>
      </trkpt>
      <trkpt lat="43.38348" lon="6.7261">
        <ele>4.7</ele>
        <time>2023-05-16T15:18:46Z</time>
      </trkpt>
      <trkpt lat="43.38349" lon="6.72611">
        <ele>4.7</ele>
        <time>2023-05-16T15:18:47Z</time>
      </trkpt>
      <trkpt lat="43.38352" lon="6.72612">
        <ele>4.7</ele>
        <time>2023-05-16T15:18:49Z</time>
      </trkpt>
      <trkpt lat="43.38352" lon="6.72612">
        <ele>4.7</ele>
        <time>2023-05-16T15:18:50Z</time>
      </trkpt>
      <trkpt lat="43.38353" lon="6.72612">
        <ele>4.7</ele>
        <time>2023-05-16T15:18:51Z</time>
      </trkpt>
      <trkpt lat="43.38355" lon="6.72611">
        <ele>4.7</ele>
        <time>2023-05-16T15:18:52Z</time>
      </trkpt>
      <trkpt lat="43.38356" lon="6.72612">
        <ele>4.7</ele>
        <time>2023-05-16T15:18:54Z</time>
      </trkpt>
      <trkpt lat="43.38357" lon="6.72612">
        <ele>4.7</ele>
        <time>2023-05-16T15:18:55Z</time>
      </trkpt>
      <trkpt lat="43.38358" lon="6.72612">
        <ele>4.7</ele>
        <time>2023-05-16T15:18:56Z</time>
      </trkpt>
      <trkpt lat="43.38359" lon="6.72612">
        <ele>4.8</ele>
        <time>2023-05-16T15:18:57Z</time>
      </trkpt>
      <trkpt lat="43.38361" lon="6.72613">
        <ele>4.8</ele>
        <time>2023-05-16T15:18:58Z</time>
      </trkpt>
      <trkpt lat="43.38362" lon="6.72613">
        <ele>4.8</ele>
        <time>2023-05-16T15:18:59Z</time>
      </trkpt>
      <trkpt lat="43.38363" lon="6.72613">
        <ele>4.8</ele>
        <time>2023-05-16T15:19:01Z</time>
      </trkpt>
      <trkpt lat="43.38364" lon="6.72613">
        <ele>4.9</ele>
        <time>2023-05-16T15:19:02Z</time>
      </trkpt>
      <trkpt lat="43.38365" lon="6.72613">
        <ele>4.9</ele>
        <time>2023-05-16T15:19:03Z</time>
      </trkpt>
      <trkpt lat="43.38366" lon="6.72614">
        <ele>4.9</ele>
        <time>2023-05-16T15:19:04Z</time>
      </trkpt>
      <trkpt lat="43.38368" lon="6.72614">
        <ele>5</ele>
        <time>2023-05-16T15:19:06Z</time>
      </trkpt>
      <trkpt lat="43.38369" lon="6.72615">
        <ele>5</ele>
        <time>2023-05-16T15:19:08Z</time>
      </trkpt>
      <trkpt lat="43.3837" lon="6.72615">
        <ele>5</ele>
        <time>2023-05-16T15:19:09Z</time>
      </trkpt>
      <trkpt lat="43.3837" lon="6.72615">
        <ele>5.1</ele>
        <time>2023-05-16T15:19:10Z</time>
      </trkpt>
      <trkpt lat="43.38371" lon="6.72616">
        <ele>5.1</ele>
        <time>2023-05-16T15:19:11Z</time>
      </trkpt>
      <trkpt lat="43.38372" lon="6.72616">
        <ele>5.1</ele>
        <time>2023-05-16T15:19:12Z</time>
      </trkpt>
      <trkpt lat="43.38373" lon="6.72616">
        <ele>5.2</ele>
        <time>2023-05-16T15:19:13Z</time>
      </trkpt>
      <trkpt lat="43.38374" lon="6.72616">
        <ele>5.2</ele>
        <time>2023-05-16T15:19:14Z</time>
      </trkpt>
      <trkpt lat="43.38375" lon="6.72617">
        <ele>5.2</ele>
        <time>2023-05-16T15:19:15Z</time>
      </trkpt>
      <trkpt lat="43.38376" lon="6.72617">
        <ele>5.3</ele>
        <time>2023-05-16T15:19:17Z</time>
      </trkpt>
      <trkpt lat="43.38376" lon="6.72618">
        <ele>5.3</ele>
        <time>2023-05-16T15:19:18Z</time>
      </trkpt>
      <trkpt lat="43.38377" lon="6.72619">
        <ele>5.4</ele>
        <time>2023-05-16T15:19:19Z</time>
      </trkpt>
      <trkpt lat="43.38378" lon="6.7262">
        <ele>5.4</ele>
        <time>2023-05-16T15:19:20Z</time>
      </trkpt>
      <trkpt lat="43.38378" lon="6.72621">
        <ele>5.4</ele>
        <time>2023-05-16T15:19:21Z</time>
      </trkpt>
      <trkpt lat="43.38379" lon="6.72622">
        <ele>5.5</ele>
        <time>2023-05-16T15:19:22Z</time>
      </trkpt>
      <trkpt lat="43.3838" lon="6.72623">
        <ele>5.5</ele>
        <time>2023-05-16T15:19:23Z</time>
      </trkpt>
      <trkpt lat="43.3838" lon="6.72624">
        <ele>5.6</ele>
        <time>2023-05-16T15:19:25Z</time>
      </trkpt>
      <trkpt lat="43.38381" lon="6.72625">
        <ele>5.6</ele>
        <time>2023-05-16T15:19:26Z</time>
      </trkpt>
      <trkpt lat="43.38381" lon="6.72626">
        <ele>5.6</ele>
        <time>2023-05-16T15:19:27Z</time>
      </trkpt>
      <trkpt lat="43.38382" lon="6.72627">
        <ele>5.7</ele>
        <time>2023-05-16T15:19:28Z</time>
      </trkpt>
      <trkpt lat="43.38383" lon="6.72629">
        <ele>5.8</ele>
        <time>2023-05-16T15:19:29Z</time>
      </trkpt>
      <trkpt lat="43.38383" lon="6.7263">
        <ele>5.8</ele>
        <time>2023-05-16T15:19:30Z</time>
      </trkpt>
      <trkpt lat="43.38385" lon="6.72632">
        <ele>5.9</ele>
        <time>2023-05-16T15:19:32Z</time>
      </trkpt>
      <trkpt lat="43.38385" lon="6.72633">
        <ele>5.9</ele>
        <time>2023-05-16T15:19:33Z</time>
      </trkpt>
      <trkpt lat="43.38385" lon="6.72635">
        <ele>6</ele>
        <time>2023-05-16T15:19:34Z</time>
      </trkpt>
      <trkpt lat="43.38386" lon="6.72636">
        <ele>6</ele>
        <time>2023-05-16T15:19:35Z</time>
      </trkpt>
      <trkpt lat="43.38386" lon="6.72638">
        <ele>6</ele>
        <time>2023-05-16T15:19:36Z</time>
      </trkpt>
      <trkpt lat="43.38387" lon="6.72639">
        <ele>6.1</ele>
        <time>2023-05-16T15:19:37Z</time>
      </trkpt>
      <trkpt lat="43.38388" lon="6.7264">
        <ele>6.1</ele>
        <time>2023-05-16T15:19:38Z</time>
      </trkpt>
      <trkpt lat="43.38388" lon="6.7264">
        <ele>6.1</ele>
        <time>2023-05-16T15:19:39Z</time>
      </trkpt>
      <trkpt lat="43.38389" lon="6.72641">
        <ele>6.1</ele>
        <time>2023-05-16T15:19:40Z</time>
      </trkpt>
      <trkpt lat="43.3839" lon="6.72642">
        <ele>6.2</ele>
        <time>2023-05-16T15:19:42Z</time>
      </trkpt>
      <trkpt lat="43.38391" lon="6.72643">
        <ele>6.2</ele>
        <time>2023-05-16T15:19:43Z</time>
      </trkpt>
      <trkpt lat="43.38392" lon="6.72643">
        <ele>6.2</ele>
        <time>2023-05-16T15:19:44Z</time>
      </trkpt>
      <trkpt lat="43.38393" lon="6.72644">
        <ele>6.2</ele>
        <time>2023-05-16T15:19:45Z</time>
      </trkpt>
      <trkpt lat="43.38394" lon="6.72644">
        <ele>6.2</ele>
        <time>2023-05-16T15:19:46Z</time>
      </trkpt>
      <trkpt lat="43.38396" lon="6.72645">
        <ele>6.2</ele>
        <time>2023-05-16T15:19:48Z</time>
      </trkpt>
      <trkpt lat="43.38396" lon="6.72645">
        <ele>6.2</ele>
        <time>2023-05-16T15:19:49Z</time>
      </trkpt>
      <trkpt lat="43.38397" lon="6.72646">
        <ele>6.2</ele>
        <time>2023-05-16T15:19:50Z</time>
      </trkpt>
      <trkpt lat="43.38398" lon="6.72646">
        <ele>6.2</ele>
        <time>2023-05-16T15:19:51Z</time>
      </trkpt>
      <trkpt lat="43.38399" lon="6.72646">
        <ele>6.2</ele>
        <time>2023-05-16T15:19:53Z</time>
      </trkpt>
      <trkpt lat="43.38401" lon="6.72647">
        <ele>6.1</ele>
        <time>2023-05-16T15:19:54Z</time>
      </trkpt>
      <trkpt lat="43.38401" lon="6.72647">
        <ele>6.1</ele>
        <time>2023-05-16T15:19:55Z</time>
      </trkpt>
      <trkpt lat="43.38401" lon="6.72648">
        <ele>6.1</ele>
        <time>2023-05-16T15:19:56Z</time>
      </trkpt>
      <trkpt lat="43.38401" lon="6.7265">
        <ele>6</ele>
        <time>2023-05-16T15:19:57Z</time>
      </trkpt>
      <trkpt lat="43.38401" lon="6.72652">
        <ele>6</ele>
        <time>2023-05-16T15:19:58Z</time>
      </trkpt>
      <trkpt lat="43.38401" lon="6.72654">
        <ele>5.9</ele>
        <time>2023-05-16T15:19:59Z</time>
      </trkpt>
      <trkpt lat="43.38402" lon="6.72655">
        <ele>5.8</ele>
        <time>2023-05-16T15:20:00Z</time>
      </trkpt>
      <trkpt lat="43.38402" lon="6.72657">
        <ele>5.8</ele>
        <time>2023-05-16T15:20:02Z</time>
      </trkpt>
      <trkpt lat="43.38402" lon="6.72661">
        <ele>5.7</ele>
        <time>2023-05-16T15:20:03Z</time>
      </trkpt>
      <trkpt lat="43.38403" lon="6.72661">
        <ele>5.6</ele>
        <time>2023-05-16T15:20:05Z</time>
      </trkpt>
      <trkpt lat="43.38404" lon="6.72662">
        <ele>5.5</ele>
        <time>2023-05-16T15:20:06Z</time>
      </trkpt>
      <trkpt lat="43.38405" lon="6.72662">
        <ele>5.5</ele>
        <time>2023-05-16T15:20:07Z</time>
      </trkpt>
      <trkpt lat="43.38405" lon="6.72662">
        <ele>5.4</ele>
        <time>2023-05-16T15:20:08Z</time>
      </trkpt>
      <trkpt lat="43.38407" lon="6.72661">
        <ele>5.3</ele>
        <time>2023-05-16T15:20:09Z</time>
      </trkpt>
      <trkpt lat="43.38408" lon="6.7266">
        <ele>5.3</ele>
        <time>2023-05-16T15:20:10Z</time>
      </trkpt>
      <trkpt lat="43.38409" lon="6.72659">
        <ele>5.2</ele>
        <time>2023-05-16T15:20:11Z</time>
      </trkpt>
      <trkpt lat="43.3841" lon="6.72658">
        <ele>5.1</ele>
        <time>2023-05-16T15:20:12Z</time>
      </trkpt>
      <trkpt lat="43.38412" lon="6.72657">
        <ele>5</ele>
        <time>2023-05-16T15:20:13Z</time>
      </trkpt>
      <trkpt lat="43.38412" lon="6.72656">
        <ele>5</ele>
        <time>2023-05-16T15:20:14Z</time>
      </trkpt>
      <trkpt lat="43.38413" lon="6.72655">
        <ele>5</ele>
        <time>2023-05-16T15:20:16Z</time>
      </trkpt>
      <trkpt lat="43.38414" lon="6.72654">
        <ele>4.9</ele>
        <time>2023-05-16T15:20:17Z</time>
      </trkpt>
      <trkpt lat="43.38415" lon="6.72653">
        <ele>4.9</ele>
        <time>2023-05-16T15:20:18Z</time>
      </trkpt>
      <trkpt lat="43.38416" lon="6.72652">
        <ele>4.8</ele>
        <time>2023-05-16T15:20:19Z</time>
      </trkpt>
      <trkpt lat="43.38418" lon="6.72652">
        <ele>4.8</ele>
        <time>2023-05-16T15:20:20Z</time>
      </trkpt>
      <trkpt lat="43.38419" lon="6.72652">
        <ele>4.8</ele>
        <time>2023-05-16T15:20:21Z</time>
      </trkpt>
      <trkpt lat="43.3842" lon="6.72653">
        <ele>4.7</ele>
        <time>2023-05-16T15:20:23Z</time>
      </trkpt>
      <trkpt lat="43.38421" lon="6.72653">
        <ele>4.7</ele>
        <time>2023-05-16T15:20:24Z</time>
      </trkpt>
      <trkpt lat="43.38422" lon="6.72653">
        <ele>4.7</ele>
        <time>2023-05-16T15:20:25Z</time>
      </trkpt>
      <trkpt lat="43.38423" lon="6.72653">
        <ele>4.7</ele>
        <time>2023-05-16T15:20:26Z</time>
      </trkpt>
      <trkpt lat="43.38424" lon="6.72654">
        <ele>4.7</ele>
        <time>2023-05-16T15:20:27Z</time>
      </trkpt>
      <trkpt lat="43.38425" lon="6.72656">
        <ele>4.6</ele>
        <time>2023-05-16T15:20:28Z</time>
      </trkpt>
      <trkpt lat="43.38426" lon="6.72657">
        <ele>4.6</ele>
        <time>2023-05-16T15:20:29Z</time>
      </trkpt>
      <trkpt lat="43.38427" lon="6.72658">
        <ele>4.6</ele>
        <time>2023-05-16T15:20:30Z</time>
      </trkpt>
      <trkpt lat="43.38429" lon="6.72659">
        <ele>4.6</ele>
        <time>2023-05-16T15:20:31Z</time>
      </trkpt>
      <trkpt lat="43.3843" lon="6.7266">
        <ele>4.6</ele>
        <time>2023-05-16T15:20:32Z</time>
      </trkpt>
      <trkpt lat="43.38431" lon="6.72661">
        <ele>4.6</ele>
        <time>2023-05-16T15:20:33Z</time>
      </trkpt>
      <trkpt lat="43.38432" lon="6.72662">
        <ele>4.7</ele>
        <time>2023-05-16T15:20:34Z</time>
      </trkpt>
      <trkpt lat="43.38432" lon="6.72663">
        <ele>4.7</ele>
        <time>2023-05-16T15:20:35Z</time>
      </trkpt>
      <trkpt lat="43.38433" lon="6.72664">
        <ele>4.7</ele>
        <time>2023-05-16T15:20:37Z</time>
      </trkpt>
      <trkpt lat="43.38434" lon="6.72665">
        <ele>4.7</ele>
        <time>2023-05-16T15:20:38Z</time>
      </trkpt>
      <trkpt lat="43.38436" lon="6.72666">
        <ele>4.7</ele>
        <time>2023-05-16T15:20:39Z</time>
      </trkpt>
      <trkpt lat="43.38436" lon="6.72666">
        <ele>4.7</ele>
        <time>2023-05-16T15:20:40Z</time>
      </trkpt>
      <trkpt lat="43.38437" lon="6.72667">
        <ele>4.7</ele>
        <time>2023-05-16T15:20:41Z</time>
      </trkpt>
      <trkpt lat="43.38438" lon="6.72668">
        <ele>4.7</ele>
        <time>2023-05-16T15:20:42Z</time>
      </trkpt>
      <trkpt lat="43.38439" lon="6.72668">
        <ele>4.7</ele>
        <time>2023-05-16T15:20:43Z</time>
      </trkpt>
      <trkpt lat="43.3844" lon="6.72669">
        <ele>4.7</ele>
        <time>2023-05-16T15:20:44Z</time>
      </trkpt>
      <trkpt lat="43.38441" lon="6.7267">
        <ele>4.7</ele>
        <time>2023-05-16T15:20:45Z</time>
      </trkpt>
      <trkpt lat="43.38442" lon="6.72671">
        <ele>4.7</ele>
        <time>2023-05-16T15:20:46Z</time>
      </trkpt>
      <trkpt lat="43.38443" lon="6.72672">
        <ele>4.7</ele>
        <time>2023-05-16T15:20:47Z</time>
      </trkpt>
      <trkpt lat="43.38444" lon="6.72673">
        <ele>4.7</ele>
        <time>2023-05-16T15:20:49Z</time>
      </trkpt>
      <trkpt lat="43.38445" lon="6.72674">
        <ele>4.7</ele>
        <time>2023-05-16T15:20:50Z</time>
      </trkpt>
      <trkpt lat="43.38446" lon="6.72674">
        <ele>4.7</ele>
        <time>2023-05-16T15:20:51Z</time>
      </trkpt>
      <trkpt lat="43.38447" lon="6.72675">
        <ele>4.7</ele>
        <time>2023-05-16T15:20:52Z</time>
      </trkpt>
      <trkpt lat="43.38447" lon="6.72675">
        <ele>4.7</ele>
        <time>2023-05-16T15:20:53Z</time>
      </trkpt>
      <trkpt lat="43.38449" lon="6.72675">
        <ele>4.6</ele>
        <time>2023-05-16T15:20:54Z</time>
      </trkpt>
      <trkpt lat="43.3845" lon="6.72676">
        <ele>4.6</ele>
        <time>2023-05-16T15:20:55Z</time>
      </trkpt>
      <trkpt lat="43.38451" lon="6.72676">
        <ele>4.6</ele>
        <time>2023-05-16T15:20:57Z</time>
      </trkpt>
      <trkpt lat="43.38452" lon="6.72676">
        <ele>4.5</ele>
        <time>2023-05-16T15:20:58Z</time>
      </trkpt>
      <trkpt lat="43.38454" lon="6.72677">
        <ele>4.5</ele>
        <time>2023-05-16T15:20:59Z</time>
      </trkpt>
      <trkpt lat="43.38454" lon="6.72677">
        <ele>4.5</ele>
        <time>2023-05-16T15:21:00Z</time>
      </trkpt>
      <trkpt lat="43.38455" lon="6.72677">
        <ele>4.4</ele>
        <time>2023-05-16T15:21:01Z</time>
      </trkpt>
      <trkpt lat="43.38456" lon="6.72677">
        <ele>4.4</ele>
        <time>2023-05-16T15:21:02Z</time>
      </trkpt>
      <trkpt lat="43.38457" lon="6.72678">
        <ele>4.4</ele>
        <time>2023-05-16T15:21:03Z</time>
      </trkpt>
      <trkpt lat="43.38459" lon="6.72678">
        <ele>4.3</ele>
        <time>2023-05-16T15:21:05Z</time>
      </trkpt>
      <trkpt lat="43.3846" lon="6.72678">
        <ele>4.3</ele>
        <time>2023-05-16T15:21:06Z</time>
      </trkpt>
      <trkpt lat="43.38462" lon="6.72679">
        <ele>4.2</ele>
        <time>2023-05-16T15:21:07Z</time>
      </trkpt>
      <trkpt lat="43.38463" lon="6.7268">
        <ele>4.2</ele>
        <time>2023-05-16T15:21:08Z</time>
      </trkpt>
      <trkpt lat="43.38464" lon="6.7268">
        <ele>4.2</ele>
        <time>2023-05-16T15:21:09Z</time>
      </trkpt>
      <trkpt lat="43.38464" lon="6.72681">
        <ele>4.2</ele>
        <time>2023-05-16T15:21:10Z</time>
      </trkpt>
      <trkpt lat="43.38465" lon="6.72682">
        <ele>4.1</ele>
        <time>2023-05-16T15:21:11Z</time>
      </trkpt>
      <trkpt lat="43.38466" lon="6.72683">
        <ele>4.1</ele>
        <time>2023-05-16T15:21:12Z</time>
      </trkpt>
      <trkpt lat="43.38467" lon="6.72684">
        <ele>4.1</ele>
        <time>2023-05-16T15:21:13Z</time>
      </trkpt>
      <trkpt lat="43.38469" lon="6.72685">
        <ele>4.1</ele>
        <time>2023-05-16T15:21:14Z</time>
      </trkpt>
      <trkpt lat="43.38471" lon="6.72686">
        <ele>4</ele>
        <time>2023-05-16T15:21:16Z</time>
      </trkpt>
      <trkpt lat="43.38472" lon="6.72686">
        <ele>4</ele>
        <time>2023-05-16T15:21:17Z</time>
      </trkpt>
      <trkpt lat="43.38473" lon="6.72686">
        <ele>4</ele>
        <time>2023-05-16T15:21:18Z</time>
      </trkpt>
      <trkpt lat="43.38474" lon="6.72687">
        <ele>4</ele>
        <time>2023-05-16T15:21:19Z</time>
      </trkpt>
      <trkpt lat="43.38475" lon="6.72688">
        <ele>4</ele>
        <time>2023-05-16T15:21:20Z</time>
      </trkpt>
      <trkpt lat="43.38476" lon="6.72688">
        <ele>4</ele>
        <time>2023-05-16T15:21:21Z</time>
      </trkpt>
      <trkpt lat="43.38477" lon="6.72689">
        <ele>4</ele>
        <time>2023-05-16T15:21:22Z</time>
      </trkpt>
      <trkpt lat="43.38477" lon="6.72689">
        <ele>4</ele>
        <time>2023-05-16T15:21:23Z</time>
      </trkpt>
      <trkpt lat="43.38478" lon="6.7269">
        <ele>4</ele>
        <time>2023-05-16T15:21:24Z</time>
      </trkpt>
      <trkpt lat="43.3848" lon="6.72691">
        <ele>4.1</ele>
        <time>2023-05-16T15:21:25Z</time>
      </trkpt>
      <trkpt lat="43.3848" lon="6.72691">
        <ele>4.1</ele>
        <time>2023-05-16T15:21:27Z</time>
      </trkpt>
      <trkpt lat="43.38481" lon="6.72692">
        <ele>4.1</ele>
        <time>2023-05-16T15:21:28Z</time>
      </trkpt>
      <trkpt lat="43.38482" lon="6.72692">
        <ele>4.1</ele>
        <time>2023-05-16T15:21:29Z</time>
      </trkpt>
      <trkpt lat="43.38482" lon="6.72693">
        <ele>4.2</ele>
        <time>2023-05-16T15:21:30Z</time>
      </trkpt>
      <trkpt lat="43.38484" lon="6.72694">
        <ele>4.2</ele>
        <time>2023-05-16T15:21:32Z</time>
      </trkpt>
      <trkpt lat="43.38484" lon="6.72694">
        <ele>4.2</ele>
        <time>2023-05-16T15:21:33Z</time>
      </trkpt>
      <trkpt lat="43.38486" lon="6.72695">
        <ele>4.3</ele>
        <time>2023-05-16T15:21:34Z</time>
      </trkpt>
      <trkpt lat="43.38486" lon="6.72695">
        <ele>4.3</ele>
        <time>2023-05-16T15:21:35Z</time>
      </trkpt>
      <trkpt lat="43.38487" lon="6.72695">
        <ele>4.3</ele>
        <time>2023-05-16T15:21:36Z</time>
      </trkpt>
      <trkpt lat="43.38488" lon="6.72696">
        <ele>4.4</ele>
        <time>2023-05-16T15:21:38Z</time>
      </trkpt>
      <trkpt lat="43.38489" lon="6.72696">
        <ele>4.4</ele>
        <time>2023-05-16T15:21:39Z</time>
      </trkpt>
      <trkpt lat="43.3849" lon="6.72697">
        <ele>4.4</ele>
        <time>2023-05-16T15:21:40Z</time>
      </trkpt>
      <trkpt lat="43.38491" lon="6.72697">
        <ele>4.5</ele>
        <time>2023-05-16T15:21:41Z</time>
      </trkpt>
      <trkpt lat="43.38492" lon="6.72698">
        <ele>4.5</ele>
        <time>2023-05-16T15:21:42Z</time>
      </trkpt>
      <trkpt lat="43.38493" lon="6.72698">
        <ele>4.6</ele>
        <time>2023-05-16T15:21:43Z</time>
      </trkpt>
      <trkpt lat="43.38494" lon="6.72699">
        <ele>4.6</ele>
        <time>2023-05-16T15:21:44Z</time>
      </trkpt>
      <trkpt lat="43.38494" lon="6.72699">
        <ele>4.6</ele>
        <time>2023-05-16T15:21:45Z</time>
      </trkpt>
      <trkpt lat="43.38495" lon="6.72699">
        <ele>4.7</ele>
        <time>2023-05-16T15:21:47Z</time>
      </trkpt>
      <trkpt lat="43.38496" lon="6.727">
        <ele>4.7</ele>
        <time>2023-05-16T15:21:48Z</time>
      </trkpt>
      <trkpt lat="43.38497" lon="6.727">
        <ele>4.8</ele>
        <time>2023-05-16T15:21:49Z</time>
      </trkpt>
      <trkpt lat="43.38499" lon="6.72701">
        <ele>4.9</ele>
        <time>2023-05-16T15:21:50Z</time>
      </trkpt>
      <trkpt lat="43.385" lon="6.72702">
        <ele>5</ele>
        <time>2023-05-16T15:21:51Z</time>
      </trkpt>
      <trkpt lat="43.385" lon="6.72703">
        <ele>5</ele>
        <time>2023-05-16T15:21:52Z</time>
      </trkpt>
      <trkpt lat="43.38501" lon="6.72704">
        <ele>5.1</ele>
        <time>2023-05-16T15:21:53Z</time>
      </trkpt>
      <trkpt lat="43.38502" lon="6.72705">
        <ele>5.1</ele>
        <time>2023-05-16T15:21:54Z</time>
      </trkpt>
      <trkpt lat="43.38503" lon="6.72706">
        <ele>5.2</ele>
        <time>2023-05-16T15:21:55Z</time>
      </trkpt>
      <trkpt lat="43.38503" lon="6.72707">
        <ele>5.3</ele>
        <time>2023-05-16T15:21:56Z</time>
      </trkpt>
      <trkpt lat="43.38503" lon="6.72708">
        <ele>5.3</ele>
        <time>2023-05-16T15:21:58Z</time>
      </trkpt>
      <trkpt lat="43.38504" lon="6.72709">
        <ele>5.4</ele>
        <time>2023-05-16T15:21:59Z</time>
      </trkpt>
      <trkpt lat="43.38505" lon="6.7271">
        <ele>5.4</ele>
        <time>2023-05-16T15:22:00Z</time>
      </trkpt>
      <trkpt lat="43.38505" lon="6.72711">
        <ele>5.5</ele>
        <time>2023-05-16T15:22:01Z</time>
      </trkpt>
      <trkpt lat="43.38506" lon="6.72713">
        <ele>5.6</ele>
        <time>2023-05-16T15:22:03Z</time>
      </trkpt>
      <trkpt lat="43.38506" lon="6.72714">
        <ele>5.6</ele>
        <time>2023-05-16T15:22:04Z</time>
      </trkpt>
      <trkpt lat="43.38507" lon="6.72716">
        <ele>5.7</ele>
        <time>2023-05-16T15:22:05Z</time>
      </trkpt>
      <trkpt lat="43.38507" lon="6.72717">
        <ele>5.8</ele>
        <time>2023-05-16T15:22:06Z</time>
      </trkpt>
      <trkpt lat="43.38507" lon="6.72721">
        <ele>5.9</ele>
        <time>2023-05-16T15:22:07Z</time>
      </trkpt>
      <trkpt lat="43.38507" lon="6.72723">
        <ele>6</ele>
        <time>2023-05-16T15:22:09Z</time>
      </trkpt>
      <trkpt lat="43.38507" lon="6.72725">
        <ele>6</ele>
        <time>2023-05-16T15:22:10Z</time>
      </trkpt>
      <trkpt lat="43.38507" lon="6.72727">
        <ele>6.1</ele>
        <time>2023-05-16T15:22:12Z</time>
      </trkpt>
      <trkpt lat="43.38507" lon="6.72729">
        <ele>6.2</ele>
        <time>2023-05-16T15:22:14Z</time>
      </trkpt>
      <trkpt lat="43.38507" lon="6.72731">
        <ele>6.2</ele>
        <time>2023-05-16T15:22:15Z</time>
      </trkpt>
      <trkpt lat="43.38507" lon="6.72733">
        <ele>6.2</ele>
        <time>2023-05-16T15:22:16Z</time>
      </trkpt>
      <trkpt lat="43.38508" lon="6.72734">
        <ele>6.2</ele>
        <time>2023-05-16T15:22:17Z</time>
      </trkpt>
      <trkpt lat="43.38508" lon="6.72735">
        <ele>6.3</ele>
        <time>2023-05-16T15:22:18Z</time>
      </trkpt>
      <trkpt lat="43.38508" lon="6.72738">
        <ele>6.3</ele>
        <time>2023-05-16T15:22:19Z</time>
      </trkpt>
      <trkpt lat="43.38508" lon="6.72739">
        <ele>6.3</ele>
        <time>2023-05-16T15:22:20Z</time>
      </trkpt>
      <trkpt lat="43.38508" lon="6.7274">
        <ele>6.3</ele>
        <time>2023-05-16T15:22:22Z</time>
      </trkpt>
      <trkpt lat="43.38509" lon="6.72741">
        <ele>6.3</ele>
        <time>2023-05-16T15:22:23Z</time>
      </trkpt>
      <trkpt lat="43.38509" lon="6.72743">
        <ele>6.3</ele>
        <time>2023-05-16T15:22:24Z</time>
      </trkpt>
      <trkpt lat="43.38509" lon="6.72744">
        <ele>6.3</ele>
        <time>2023-05-16T15:22:25Z</time>
      </trkpt>
      <trkpt lat="43.38509" lon="6.72746">
        <ele>6.3</ele>
        <time>2023-05-16T15:22:26Z</time>
      </trkpt>
      <trkpt lat="43.38509" lon="6.72747">
        <ele>6.2</ele>
        <time>2023-05-16T15:22:27Z</time>
      </trkpt>
      <trkpt lat="43.38509" lon="6.72749">
        <ele>6.2</ele>
        <time>2023-05-16T15:22:28Z</time>
      </trkpt>
      <trkpt lat="43.38507" lon="6.72751">
        <ele>6.2</ele>
        <time>2023-05-16T15:22:30Z</time>
      </trkpt>
      <trkpt lat="43.38507" lon="6.72752">
        <ele>6.2</ele>
        <time>2023-05-16T15:22:31Z</time>
      </trkpt>
      <trkpt lat="43.38505" lon="6.72755">
        <ele>6.1</ele>
        <time>2023-05-16T15:22:32Z</time>
      </trkpt>
      <trkpt lat="43.38505" lon="6.72756">
        <ele>6.1</ele>
        <time>2023-05-16T15:22:33Z</time>
      </trkpt>
      <trkpt lat="43.38504" lon="6.72757">
        <ele>6</ele>
        <time>2023-05-16T15:22:34Z</time>
      </trkpt>
      <trkpt lat="43.38504" lon="6.72758">
        <ele>6</ele>
        <time>2023-05-16T15:22:35Z</time>
      </trkpt>
      <trkpt lat="43.38505" lon="6.7276">
        <ele>5.9</ele>
        <time>2023-05-16T15:22:36Z</time>
      </trkpt>
      <trkpt lat="43.38507" lon="6.72761">
        <ele>5.9</ele>
        <time>2023-05-16T15:22:37Z</time>
      </trkpt>
      <trkpt lat="43.38508" lon="6.72761">
        <ele>5.8</ele>
        <time>2023-05-16T15:22:38Z</time>
      </trkpt>
      <trkpt lat="43.3851" lon="6.72761">
        <ele>5.7</ele>
        <time>2023-05-16T15:22:39Z</time>
      </trkpt>
      <trkpt lat="43.38512" lon="6.7276">
        <ele>5.6</ele>
        <time>2023-05-16T15:22:41Z</time>
      </trkpt>
      <trkpt lat="43.38513" lon="6.7276">
        <ele>5.6</ele>
        <time>2023-05-16T15:22:42Z</time>
      </trkpt>
      <trkpt lat="43.38514" lon="6.7276">
        <ele>5.6</ele>
        <time>2023-05-16T15:22:43Z</time>
      </trkpt>
      <trkpt lat="43.38516" lon="6.72761">
        <ele>5.5</ele>
        <time>2023-05-16T15:22:44Z</time>
      </trkpt>
      <trkpt lat="43.38516" lon="6.72762">
        <ele>5.5</ele>
        <time>2023-05-16T15:22:45Z</time>
      </trkpt>
      <trkpt lat="43.38517" lon="6.72762">
        <ele>5.5</ele>
        <time>2023-05-16T15:22:46Z</time>
      </trkpt>
      <trkpt lat="43.38517" lon="6.72764">
        <ele>5.4</ele>
        <time>2023-05-16T15:22:48Z</time>
      </trkpt>
      <trkpt lat="43.38518" lon="6.72766">
        <ele>5.4</ele>
        <time>2023-05-16T15:22:49Z</time>
      </trkpt>
      <trkpt lat="43.38519" lon="6.72768">
        <ele>5.4</ele>
        <time>2023-05-16T15:22:50Z</time>
      </trkpt>
      <trkpt lat="43.3852" lon="6.72769">
        <ele>5.4</ele>
        <time>2023-05-16T15:22:51Z</time>
      </trkpt>
      <trkpt lat="43.3852" lon="6.72769">
        <ele>5.4</ele>
        <time>2023-05-16T15:22:52Z</time>
      </trkpt>
      <trkpt lat="43.38522" lon="6.7277">
        <ele>5.4</ele>
        <time>2023-05-16T15:22:53Z</time>
      </trkpt>
      <trkpt lat="43.38523" lon="6.7277">
        <ele>5.4</ele>
        <time>2023-05-16T15:22:55Z</time>
      </trkpt>
      <trkpt lat="43.38524" lon="6.7277">
        <ele>5.4</ele>
        <time>2023-05-16T15:22:56Z</time>
      </trkpt>
      <trkpt lat="43.38526" lon="6.7277">
        <ele>5.4</ele>
        <time>2023-05-16T15:22:57Z</time>
      </trkpt>
      <trkpt lat="43.38526" lon="6.7277">
        <ele>5.4</ele>
        <time>2023-05-16T15:22:59Z</time>
      </trkpt>
      <trkpt lat="43.38527" lon="6.7277">
        <ele>5.4</ele>
        <time>2023-05-16T15:23:00Z</time>
      </trkpt>
      <trkpt lat="43.38528" lon="6.72771">
        <ele>5.5</ele>
        <time>2023-05-16T15:23:01Z</time>
      </trkpt>
      <trkpt lat="43.38529" lon="6.72773">
        <ele>5.5</ele>
        <time>2023-05-16T15:23:02Z</time>
      </trkpt>
      <trkpt lat="43.3853" lon="6.72775">
        <ele>5.6</ele>
        <time>2023-05-16T15:23:03Z</time>
      </trkpt>
      <trkpt lat="43.3853" lon="6.72777">
        <ele>5.6</ele>
        <time>2023-05-16T15:23:05Z</time>
      </trkpt>
      <trkpt lat="43.3853" lon="6.72779">
        <ele>5.7</ele>
        <time>2023-05-16T15:23:06Z</time>
      </trkpt>
      <trkpt lat="43.3853" lon="6.72781">
        <ele>5.7</ele>
        <time>2023-05-16T15:23:07Z</time>
      </trkpt>
      <trkpt lat="43.38531" lon="6.72782">
        <ele>5.7</ele>
        <time>2023-05-16T15:23:08Z</time>
      </trkpt>
      <trkpt lat="43.38531" lon="6.72783">
        <ele>5.8</ele>
        <time>2023-05-16T15:23:10Z</time>
      </trkpt>
      <trkpt lat="43.38533" lon="6.72784">
        <ele>5.8</ele>
        <time>2023-05-16T15:23:11Z</time>
      </trkpt>
      <trkpt lat="43.38535" lon="6.72784">
        <ele>5.9</ele>
        <time>2023-05-16T15:23:13Z</time>
      </trkpt>
      <trkpt lat="43.38536" lon="6.72784">
        <ele>5.9</ele>
        <time>2023-05-16T15:23:14Z</time>
      </trkpt>
      <trkpt lat="43.38536" lon="6.72785">
        <ele>5.9</ele>
        <time>2023-05-16T15:23:15Z</time>
      </trkpt>
      <trkpt lat="43.38537" lon="6.72785">
        <ele>6</ele>
        <time>2023-05-16T15:23:17Z</time>
      </trkpt>
      <trkpt lat="43.38539" lon="6.72784">
        <ele>6</ele>
        <time>2023-05-16T15:23:18Z</time>
      </trkpt>
      <trkpt lat="43.3854" lon="6.72783">
        <ele>6.1</ele>
        <time>2023-05-16T15:23:19Z</time>
      </trkpt>
      <trkpt lat="43.38541" lon="6.72782">
        <ele>6.1</ele>
        <time>2023-05-16T15:23:20Z</time>
      </trkpt>
      <trkpt lat="43.38543" lon="6.72781">
        <ele>6.1</ele>
        <time>2023-05-16T15:23:21Z</time>
      </trkpt>
      <trkpt lat="43.38544" lon="6.72781">
        <ele>6.1</ele>
        <time>2023-05-16T15:23:23Z</time>
      </trkpt>
      <trkpt lat="43.38545" lon="6.72781">
        <ele>6.2</ele>
        <time>2023-05-16T15:23:24Z</time>
      </trkpt>
      <trkpt lat="43.38546" lon="6.72781">
        <ele>6.2</ele>
        <time>2023-05-16T15:23:25Z</time>
      </trkpt>
      <trkpt lat="43.38547" lon="6.72782">
        <ele>6.2</ele>
        <time>2023-05-16T15:23:26Z</time>
      </trkpt>
      <trkpt lat="43.38548" lon="6.72782">
        <ele>6.2</ele>
        <time>2023-05-16T15:23:27Z</time>
      </trkpt>
      <trkpt lat="43.38549" lon="6.72783">
        <ele>6.2</ele>
        <time>2023-05-16T15:23:28Z</time>
      </trkpt>
      <trkpt lat="43.38549" lon="6.72784">
        <ele>6.2</ele>
        <time>2023-05-16T15:23:30Z</time>
      </trkpt>
      <trkpt lat="43.3855" lon="6.72784">
        <ele>6.3</ele>
        <time>2023-05-16T15:23:31Z</time>
      </trkpt>
      <trkpt lat="43.3855" lon="6.72785">
        <ele>6.3</ele>
        <time>2023-05-16T15:23:32Z</time>
      </trkpt>
      <trkpt lat="43.38552" lon="6.72785">
        <ele>6.3</ele>
        <time>2023-05-16T15:23:33Z</time>
      </trkpt>
      <trkpt lat="43.38553" lon="6.72786">
        <ele>6.3</ele>
        <time>2023-05-16T15:23:34Z</time>
      </trkpt>
      <trkpt lat="43.38554" lon="6.72785">
        <ele>6.3</ele>
        <time>2023-05-16T15:23:35Z</time>
      </trkpt>
      <trkpt lat="43.38555" lon="6.72785">
        <ele>6.3</ele>
        <time>2023-05-16T15:23:36Z</time>
      </trkpt>
      <trkpt lat="43.38557" lon="6.72784">
        <ele>6.3</ele>
        <time>2023-05-16T15:23:37Z</time>
      </trkpt>
      <trkpt lat="43.38558" lon="6.72784">
        <ele>6.3</ele>
        <time>2023-05-16T15:23:38Z</time>
      </trkpt>
      <trkpt lat="43.38559" lon="6.72784">
        <ele>6.3</ele>
        <time>2023-05-16T15:23:39Z</time>
      </trkpt>
      <trkpt lat="43.3856" lon="6.72784">
        <ele>6.3</ele>
        <time>2023-05-16T15:23:41Z</time>
      </trkpt>
      <trkpt lat="43.3856" lon="6.72784">
        <ele>6.3</ele>
        <time>2023-05-16T15:23:42Z</time>
      </trkpt>
      <trkpt lat="43.38562" lon="6.72783">
        <ele>6.3</ele>
        <time>2023-05-16T15:23:43Z</time>
      </trkpt>
      <trkpt lat="43.38563" lon="6.72782">
        <ele>6.3</ele>
        <time>2023-05-16T15:23:44Z</time>
      </trkpt>
      <trkpt lat="43.38564" lon="6.72781">
        <ele>6.3</ele>
        <time>2023-05-16T15:23:45Z</time>
      </trkpt>
      <trkpt lat="43.38565" lon="6.7278">
        <ele>6.3</ele>
        <time>2023-05-16T15:23:47Z</time>
      </trkpt>
      <trkpt lat="43.38566" lon="6.72779">
        <ele>6.3</ele>
        <time>2023-05-16T15:23:48Z</time>
      </trkpt>
      <trkpt lat="43.38566" lon="6.72778">
        <ele>6.3</ele>
        <time>2023-05-16T15:23:49Z</time>
      </trkpt>
      <trkpt lat="43.38568" lon="6.72776">
        <ele>6.1</ele>
        <time>2023-05-16T15:23:50Z</time>
      </trkpt>
      <trkpt lat="43.38569" lon="6.72776">
        <ele>6.1</ele>
        <time>2023-05-16T15:23:51Z</time>
      </trkpt>
      <trkpt lat="43.3857" lon="6.72775">
        <ele>6</ele>
        <time>2023-05-16T15:23:52Z</time>
      </trkpt>
      <trkpt lat="43.3857" lon="6.72775">
        <ele>6</ele>
        <time>2023-05-16T15:23:53Z</time>
      </trkpt>
      <trkpt lat="43.38571" lon="6.72776">
        <ele>5.9</ele>
        <time>2023-05-16T15:23:55Z</time>
      </trkpt>
      <trkpt lat="43.38572" lon="6.72776">
        <ele>5.8</ele>
        <time>2023-05-16T15:23:56Z</time>
      </trkpt>
      <trkpt lat="43.38573" lon="6.72776">
        <ele>5.7</ele>
        <time>2023-05-16T15:23:57Z</time>
      </trkpt>
      <trkpt lat="43.38573" lon="6.72775">
        <ele>5.7</ele>
        <time>2023-05-16T15:23:58Z</time>
      </trkpt>
      <trkpt lat="43.38575" lon="6.72773">
        <ele>5.6</ele>
        <time>2023-05-16T15:23:59Z</time>
      </trkpt>
      <trkpt lat="43.38576" lon="6.72773">
        <ele>5.5</ele>
        <time>2023-05-16T15:24:01Z</time>
      </trkpt>
      <trkpt lat="43.38577" lon="6.72772">
        <ele>5.4</ele>
        <time>2023-05-16T15:24:02Z</time>
      </trkpt>
      <trkpt lat="43.38578" lon="6.72772">
        <ele>5.3</ele>
        <time>2023-05-16T15:24:03Z</time>
      </trkpt>
      <trkpt lat="43.38579" lon="6.72772">
        <ele>5.3</ele>
        <time>2023-05-16T15:24:05Z</time>
      </trkpt>
      <trkpt lat="43.3858" lon="6.72772">
        <ele>5.2</ele>
        <time>2023-05-16T15:24:06Z</time>
      </trkpt>
      <trkpt lat="43.38581" lon="6.72772">
        <ele>5.1</ele>
        <time>2023-05-16T15:24:07Z</time>
      </trkpt>
      <trkpt lat="43.38582" lon="6.72771">
        <ele>5</ele>
        <time>2023-05-16T15:24:08Z</time>
      </trkpt>
      <trkpt lat="43.38583" lon="6.72771">
        <ele>5</ele>
        <time>2023-05-16T15:24:09Z</time>
      </trkpt>
      <trkpt lat="43.38584" lon="6.72771">
        <ele>4.9</ele>
        <time>2023-05-16T15:24:11Z</time>
      </trkpt>
      <trkpt lat="43.38585" lon="6.72771">
        <ele>4.8</ele>
        <time>2023-05-16T15:24:12Z</time>
      </trkpt>
      <trkpt lat="43.38586" lon="6.72771">
        <ele>4.7</ele>
        <time>2023-05-16T15:24:13Z</time>
      </trkpt>
      <trkpt lat="43.38587" lon="6.72771">
        <ele>4.7</ele>
        <time>2023-05-16T15:24:14Z</time>
      </trkpt>
      <trkpt lat="43.38587" lon="6.72771">
        <ele>4.7</ele>
        <time>2023-05-16T15:24:15Z</time>
      </trkpt>
      <trkpt lat="43.38588" lon="6.72771">
        <ele>4.6</ele>
        <time>2023-05-16T15:24:16Z</time>
      </trkpt>
      <trkpt lat="43.38589" lon="6.72773">
        <ele>4.6</ele>
        <time>2023-05-16T15:24:17Z</time>
      </trkpt>
      <trkpt lat="43.3859" lon="6.72773">
        <ele>4.5</ele>
        <time>2023-05-16T15:24:19Z</time>
      </trkpt>
      <trkpt lat="43.3859" lon="6.72774">
        <ele>4.5</ele>
        <time>2023-05-16T15:24:20Z</time>
      </trkpt>
      <trkpt lat="43.38591" lon="6.72775">
        <ele>4.4</ele>
        <time>2023-05-16T15:24:21Z</time>
      </trkpt>
      <trkpt lat="43.38591" lon="6.72777">
        <ele>4.4</ele>
        <time>2023-05-16T15:24:22Z</time>
      </trkpt>
      <trkpt lat="43.38591" lon="6.72778">
        <ele>4.4</ele>
        <time>2023-05-16T15:24:23Z</time>
      </trkpt>
      <trkpt lat="43.38592" lon="6.72779">
        <ele>4.3</ele>
        <time>2023-05-16T15:24:24Z</time>
      </trkpt>
      <trkpt lat="43.38593" lon="6.7278">
        <ele>4.3</ele>
        <time>2023-05-16T15:24:25Z</time>
      </trkpt>
      <trkpt lat="43.38593" lon="6.7278">
        <ele>4.3</ele>
        <time>2023-05-16T15:24:26Z</time>
      </trkpt>
      <trkpt lat="43.38594" lon="6.72781">
        <ele>4.2</ele>
        <time>2023-05-16T15:24:28Z</time>
      </trkpt>
      <trkpt lat="43.38595" lon="6.72782">
        <ele>4.2</ele>
        <time>2023-05-16T15:24:29Z</time>
      </trkpt>
      <trkpt lat="43.38596" lon="6.72782">
        <ele>4.2</ele>
        <time>2023-05-16T15:24:30Z</time>
      </trkpt>
      <trkpt lat="43.38597" lon="6.72783">
        <ele>4.2</ele>
        <time>2023-05-16T15:24:31Z</time>
      </trkpt>
      <trkpt lat="43.38599" lon="6.72784">
        <ele>4.2</ele>
        <time>2023-05-16T15:24:32Z</time>
      </trkpt>
      <trkpt lat="43.38599" lon="6.72784">
        <ele>4.2</ele>
        <time>2023-05-16T15:24:33Z</time>
      </trkpt>
      <trkpt lat="43.386" lon="6.72784">
        <ele>4.2</ele>
        <time>2023-05-16T15:24:34Z</time>
      </trkpt>
      <trkpt lat="43.38601" lon="6.72784">
        <ele>4.2</ele>
        <time>2023-05-16T15:24:35Z</time>
      </trkpt>
      <trkpt lat="43.38602" lon="6.72785">
        <ele>4.2</ele>
        <time>2023-05-16T15:24:37Z</time>
      </trkpt>
      <trkpt lat="43.38603" lon="6.72785">
        <ele>4.2</ele>
        <time>2023-05-16T15:24:38Z</time>
      </trkpt>
      <trkpt lat="43.38605" lon="6.72785">
        <ele>4.2</ele>
        <time>2023-05-16T15:24:39Z</time>
      </trkpt>
      <trkpt lat="43.38605" lon="6.72786">
        <ele>4.2</ele>
        <time>2023-05-16T15:24:40Z</time>
      </trkpt>
      <trkpt lat="43.38606" lon="6.72786">
        <ele>4.2</ele>
        <time>2023-05-16T15:24:41Z</time>
      </trkpt>
      <trkpt lat="43.38607" lon="6.72787">
        <ele>4.2</ele>
        <time>2023-05-16T15:24:42Z</time>
      </trkpt>
      <trkpt lat="43.38607" lon="6.72787">
        <ele>4.2</ele>
        <time>2023-05-16T15:24:43Z</time>
      </trkpt>
      <trkpt lat="43.38608" lon="6.72787">
        <ele>4.2</ele>
        <time>2023-05-16T15:24:44Z</time>
      </trkpt>
      <trkpt lat="43.38609" lon="6.72788">
        <ele>4.2</ele>
        <time>2023-05-16T15:24:46Z</time>
      </trkpt>
      <trkpt lat="43.3861" lon="6.72789">
        <ele>4.2</ele>
        <time>2023-05-16T15:24:47Z</time>
      </trkpt>
      <trkpt lat="43.38611" lon="6.72789">
        <ele>4.2</ele>
        <time>2023-05-16T15:24:48Z</time>
      </trkpt>
      <trkpt lat="43.38612" lon="6.7279">
        <ele>4.3</ele>
        <time>2023-05-16T15:24:49Z</time>
      </trkpt>
      <trkpt lat="43.38613" lon="6.7279">
        <ele>4.3</ele>
        <time>2023-05-16T15:24:50Z</time>
      </trkpt>
      <trkpt lat="43.38614" lon="6.7279">
        <ele>4.3</ele>
        <time>2023-05-16T15:24:51Z</time>
      </trkpt>
      <trkpt lat="43.38615" lon="6.7279">
        <ele>4.3</ele>
        <time>2023-05-16T15:24:53Z</time>
      </trkpt>
      <trkpt lat="43.38616" lon="6.7279">
        <ele>4.4</ele>
        <time>2023-05-16T15:24:54Z</time>
      </trkpt>
      <trkpt lat="43.38616" lon="6.7279">
        <ele>4.4</ele>
        <time>2023-05-16T15:24:55Z</time>
      </trkpt>
      <trkpt lat="43.38618" lon="6.72791">
        <ele>4.4</ele>
        <time>2023-05-16T15:24:56Z</time>
      </trkpt>
      <trkpt lat="43.38619" lon="6.72791">
        <ele>4.5</ele>
        <time>2023-05-16T15:24:57Z</time>
      </trkpt>
      <trkpt lat="43.3862" lon="6.72791">
        <ele>4.5</ele>
        <time>2023-05-16T15:24:58Z</time>
      </trkpt>
      <trkpt lat="43.38621" lon="6.72792">
        <ele>4.5</ele>
        <time>2023-05-16T15:24:59Z</time>
      </trkpt>
      <trkpt lat="43.38621" lon="6.72792">
        <ele>4.5</ele>
        <time>2023-05-16T15:25:00Z</time>
      </trkpt>
      <trkpt lat="43.38623" lon="6.72792">
        <ele>4.6</ele>
        <time>2023-05-16T15:25:01Z</time>
      </trkpt>
      <trkpt lat="43.38624" lon="6.72792">
        <ele>4.6</ele>
        <time>2023-05-16T15:25:03Z</time>
      </trkpt>
      <trkpt lat="43.38625" lon="6.72791">
        <ele>4.7</ele>
        <time>2023-05-16T15:25:04Z</time>
      </trkpt>
      <trkpt lat="43.38626" lon="6.72792">
        <ele>4.7</ele>
        <time>2023-05-16T15:25:05Z</time>
      </trkpt>
      <trkpt lat="43.38627" lon="6.72792">
        <ele>4.7</ele>
        <time>2023-05-16T15:25:06Z</time>
      </trkpt>
      <trkpt lat="43.38628" lon="6.72793">
        <ele>4.8</ele>
        <time>2023-05-16T15:25:07Z</time>
      </trkpt>
      <trkpt lat="43.38629" lon="6.72793">
        <ele>4.8</ele>
        <time>2023-05-16T15:25:08Z</time>
      </trkpt>
      <trkpt lat="43.3863" lon="6.72793">
        <ele>4.9</ele>
        <time>2023-05-16T15:25:09Z</time>
      </trkpt>
      <trkpt lat="43.38631" lon="6.72792">
        <ele>4.9</ele>
        <time>2023-05-16T15:25:11Z</time>
      </trkpt>
      <trkpt lat="43.38632" lon="6.72792">
        <ele>5</ele>
        <time>2023-05-16T15:25:12Z</time>
      </trkpt>
      <trkpt lat="43.38633" lon="6.72793">
        <ele>5</ele>
        <time>2023-05-16T15:25:13Z</time>
      </trkpt>
      <trkpt lat="43.38634" lon="6.72793">
        <ele>5.1</ele>
        <time>2023-05-16T15:25:14Z</time>
      </trkpt>
      <trkpt lat="43.38635" lon="6.72794">
        <ele>5.1</ele>
        <time>2023-05-16T15:25:15Z</time>
      </trkpt>
      <trkpt lat="43.38635" lon="6.72796">
        <ele>5.2</ele>
        <time>2023-05-16T15:25:17Z</time>
      </trkpt>
      <trkpt lat="43.38635" lon="6.72798">
        <ele>5.2</ele>
        <time>2023-05-16T15:25:18Z</time>
      </trkpt>
      <trkpt lat="43.38635" lon="6.728">
        <ele>5.3</ele>
        <time>2023-05-16T15:25:19Z</time>
      </trkpt>
      <trkpt lat="43.38635" lon="6.72801">
        <ele>5.3</ele>
        <time>2023-05-16T15:25:20Z</time>
      </trkpt>
      <trkpt lat="43.38635" lon="6.72802">
        <ele>5.3</ele>
        <time>2023-05-16T15:25:21Z</time>
      </trkpt>
      <trkpt lat="43.38636" lon="6.72804">
        <ele>5.4</ele>
        <time>2023-05-16T15:25:23Z</time>
      </trkpt>
      <trkpt lat="43.38636" lon="6.72805">
        <ele>5.4</ele>
        <time>2023-05-16T15:25:24Z</time>
      </trkpt>
      <trkpt lat="43.38637" lon="6.72806">
        <ele>5.5</ele>
        <time>2023-05-16T15:25:25Z</time>
      </trkpt>
      <trkpt lat="43.38639" lon="6.72808">
        <ele>5.5</ele>
        <time>2023-05-16T15:25:26Z</time>
      </trkpt>
      <trkpt lat="43.3864" lon="6.72808">
        <ele>5.6</ele>
        <time>2023-05-16T15:25:27Z</time>
      </trkpt>
      <trkpt lat="43.38641" lon="6.72808">
        <ele>5.6</ele>
        <time>2023-05-16T15:25:28Z</time>
      </trkpt>
      <trkpt lat="43.38642" lon="6.72807">
        <ele>5.6</ele>
        <time>2023-05-16T15:25:29Z</time>
      </trkpt>
      <trkpt lat="43.38643" lon="6.72807">
        <ele>5.7</ele>
        <time>2023-05-16T15:25:30Z</time>
      </trkpt>
      <trkpt lat="43.38644" lon="6.72807">
        <ele>5.7</ele>
        <time>2023-05-16T15:25:32Z</time>
      </trkpt>
      <trkpt lat="43.38645" lon="6.72809">
        <ele>5.8</ele>
        <time>2023-05-16T15:25:33Z</time>
      </trkpt>
      <trkpt lat="43.38645" lon="6.7281">
        <ele>5.8</ele>
        <time>2023-05-16T15:25:34Z</time>
      </trkpt>
      <trkpt lat="43.38645" lon="6.72812">
        <ele>5.9</ele>
        <time>2023-05-16T15:25:35Z</time>
      </trkpt>
      <trkpt lat="43.38644" lon="6.72814">
        <ele>6</ele>
        <time>2023-05-16T15:25:36Z</time>
      </trkpt>
      <trkpt lat="43.38643" lon="6.72816">
        <ele>6</ele>
        <time>2023-05-16T15:25:37Z</time>
      </trkpt>
      <trkpt lat="43.38643" lon="6.72817">
        <ele>6</ele>
        <time>2023-05-16T15:25:38Z</time>
      </trkpt>
      <trkpt lat="43.38643" lon="6.72819">
        <ele>6.1</ele>
        <time>2023-05-16T15:25:39Z</time>
      </trkpt>
      <trkpt lat="43.38643" lon="6.7282">
        <ele>6.2</ele>
        <time>2023-05-16T15:25:40Z</time>
      </trkpt>
      <trkpt lat="43.38643" lon="6.72822">
        <ele>6.2</ele>
        <time>2023-05-16T15:25:41Z</time>
      </trkpt>
      <trkpt lat="43.38644" lon="6.72825">
        <ele>6.3</ele>
        <time>2023-05-16T15:25:43Z</time>
      </trkpt>
      <trkpt lat="43.38644" lon="6.72826">
        <ele>6.3</ele>
        <time>2023-05-16T15:25:44Z</time>
      </trkpt>
      <trkpt lat="43.38644" lon="6.72827">
        <ele>6.4</ele>
        <time>2023-05-16T15:25:45Z</time>
      </trkpt>
      <trkpt lat="43.38645" lon="6.72828">
        <ele>6.4</ele>
        <time>2023-05-16T15:25:46Z</time>
      </trkpt>
      <trkpt lat="43.38645" lon="6.72829">
        <ele>6.5</ele>
        <time>2023-05-16T15:25:47Z</time>
      </trkpt>
      <trkpt lat="43.38646" lon="6.72831">
        <ele>6.5</ele>
        <time>2023-05-16T15:25:49Z</time>
      </trkpt>
      <trkpt lat="43.38646" lon="6.72831">
        <ele>6.6</ele>
        <time>2023-05-16T15:25:50Z</time>
      </trkpt>
      <trkpt lat="43.38647" lon="6.72832">
        <ele>6.6</ele>
        <time>2023-05-16T15:25:51Z</time>
      </trkpt>
      <trkpt lat="43.38647" lon="6.72834">
        <ele>6.7</ele>
        <time>2023-05-16T15:25:52Z</time>
      </trkpt>
      <trkpt lat="43.38648" lon="6.72834">
        <ele>6.7</ele>
        <time>2023-05-16T15:25:53Z</time>
      </trkpt>
      <trkpt lat="43.38648" lon="6.72835">
        <ele>6.7</ele>
        <time>2023-05-16T15:25:55Z</time>
      </trkpt>
      <trkpt lat="43.38648" lon="6.72835">
        <ele>6.7</ele>
        <time>2023-05-16T15:25:56Z</time>
      </trkpt>
      <trkpt lat="43.38648" lon="6.72835">
        <ele>6.7</ele>
        <time>2023-05-16T15:25:58Z</time>
      </trkpt>
      <trkpt lat="43.38648" lon="6.72836">
        <ele>6.7</ele>
        <time>2023-05-16T15:25:59Z</time>
      </trkpt>
      <trkpt lat="43.38648" lon="6.72836">
        <ele>6.8</ele>
        <time>2023-05-16T15:26:00Z</time>
      </trkpt>
      <trkpt lat="43.38648" lon="6.72836">
        <ele>6.8</ele>
        <time>2023-05-16T15:26:01Z</time>
      </trkpt>
      <trkpt lat="43.38649" lon="6.72837">
        <ele>6.8</ele>
        <time>2023-05-16T15:26:03Z</time>
      </trkpt>
      <trkpt lat="43.38649" lon="6.72837">
        <ele>6.8</ele>
        <time>2023-05-16T15:26:04Z</time>
      </trkpt>
      <trkpt lat="43.38649" lon="6.72838">
        <ele>6.8</ele>
        <time>2023-05-16T15:26:05Z</time>
      </trkpt>
      <trkpt lat="43.38649" lon="6.72838">
        <ele>6.8</ele>
        <time>2023-05-16T15:26:07Z</time>
      </trkpt>
      <trkpt lat="43.38649" lon="6.72838">
        <ele>6.8</ele>
        <time>2023-05-16T15:26:08Z</time>
      </trkpt>
      <trkpt lat="43.3865" lon="6.72839">
        <ele>6.8</ele>
        <time>2023-05-16T15:26:09Z</time>
      </trkpt>
      <trkpt lat="43.3865" lon="6.72839">
        <ele>6.9</ele>
        <time>2023-05-16T15:26:10Z</time>
      </trkpt>
      <trkpt lat="43.3865" lon="6.72839">
        <ele>6.9</ele>
        <time>2023-05-16T15:26:11Z</time>
      </trkpt>
      <trkpt lat="43.3865" lon="6.7284">
        <ele>6.9</ele>
        <time>2023-05-16T15:26:12Z</time>
      </trkpt>
      <trkpt lat="43.3865" lon="6.7284">
        <ele>6.9</ele>
        <time>2023-05-16T15:26:13Z</time>
      </trkpt>
      <trkpt lat="43.38651" lon="6.72841">
        <ele>6.9</ele>
        <time>2023-05-16T15:26:14Z</time>
      </trkpt>
      <trkpt lat="43.38651" lon="6.72843">
        <ele>7</ele>
        <time>2023-05-16T15:26:16Z</time>
      </trkpt>
      <trkpt lat="43.38651" lon="6.72844">
        <ele>7</ele>
        <time>2023-05-16T15:26:17Z</time>
      </trkpt>
      <trkpt lat="43.38652" lon="6.72845">
        <ele>7</ele>
        <time>2023-05-16T15:26:18Z</time>
      </trkpt>
      <trkpt lat="43.38653" lon="6.72846">
        <ele>7</ele>
        <time>2023-05-16T15:26:19Z</time>
      </trkpt>
      <trkpt lat="43.38654" lon="6.72847">
        <ele>7.1</ele>
        <time>2023-05-16T15:26:20Z</time>
      </trkpt>
      <trkpt lat="43.38655" lon="6.72848">
        <ele>7.1</ele>
        <time>2023-05-16T15:26:21Z</time>
      </trkpt>
      <trkpt lat="43.38656" lon="6.72849">
        <ele>7.1</ele>
        <time>2023-05-16T15:26:22Z</time>
      </trkpt>
      <trkpt lat="43.38656" lon="6.7285">
        <ele>7.1</ele>
        <time>2023-05-16T15:26:23Z</time>
      </trkpt>
      <trkpt lat="43.38655" lon="6.72852">
        <ele>7.1</ele>
        <time>2023-05-16T15:26:24Z</time>
      </trkpt>
      <trkpt lat="43.38655" lon="6.72854">
        <ele>7.1</ele>
        <time>2023-05-16T15:26:26Z</time>
      </trkpt>
      <trkpt lat="43.38654" lon="6.72855">
        <ele>7.1</ele>
        <time>2023-05-16T15:26:27Z</time>
      </trkpt>
      <trkpt lat="43.38653" lon="6.72858">
        <ele>7.1</ele>
        <time>2023-05-16T15:26:28Z</time>
      </trkpt>
      <trkpt lat="43.38653" lon="6.72859">
        <ele>7.1</ele>
        <time>2023-05-16T15:26:29Z</time>
      </trkpt>
      <trkpt lat="43.38652" lon="6.7286">
        <ele>7.1</ele>
        <time>2023-05-16T15:26:30Z</time>
      </trkpt>
      <trkpt lat="43.38653" lon="6.72863">
        <ele>7.1</ele>
        <time>2023-05-16T15:26:31Z</time>
      </trkpt>
      <trkpt lat="43.38653" lon="6.72865">
        <ele>7.1</ele>
        <time>2023-05-16T15:26:33Z</time>
      </trkpt>
      <trkpt lat="43.38653" lon="6.72866">
        <ele>7.1</ele>
        <time>2023-05-16T15:26:34Z</time>
      </trkpt>
      <trkpt lat="43.38654" lon="6.72868">
        <ele>7.1</ele>
        <time>2023-05-16T15:26:36Z</time>
      </trkpt>
      <trkpt lat="43.38655" lon="6.72868">
        <ele>7.1</ele>
        <time>2023-05-16T15:26:37Z</time>
      </trkpt>
      <trkpt lat="43.38657" lon="6.72868">
        <ele>7</ele>
        <time>2023-05-16T15:26:38Z</time>
      </trkpt>
      <trkpt lat="43.38658" lon="6.72868">
        <ele>7</ele>
        <time>2023-05-16T15:26:39Z</time>
      </trkpt>
      <trkpt lat="43.38659" lon="6.72868">
        <ele>7</ele>
        <time>2023-05-16T15:26:40Z</time>
      </trkpt>
      <trkpt lat="43.3866" lon="6.72867">
        <ele>7</ele>
        <time>2023-05-16T15:26:41Z</time>
      </trkpt>
      <trkpt lat="43.38661" lon="6.72867">
        <ele>7</ele>
        <time>2023-05-16T15:26:42Z</time>
      </trkpt>
      <trkpt lat="43.38662" lon="6.72867">
        <ele>7</ele>
        <time>2023-05-16T15:26:44Z</time>
      </trkpt>
      <trkpt lat="43.38661" lon="6.72867">
        <ele>6.9</ele>
        <time>2023-05-16T15:26:45Z</time>
      </trkpt>
      <trkpt lat="43.38661" lon="6.72867">
        <ele>6.9</ele>
        <time>2023-05-16T15:26:46Z</time>
      </trkpt>
      <trkpt lat="43.38661" lon="6.72867">
        <ele>6.9</ele>
        <time>2023-05-16T15:26:48Z</time>
      </trkpt>
      <trkpt lat="43.38661" lon="6.72867">
        <ele>6.9</ele>
        <time>2023-05-16T15:26:49Z</time>
      </trkpt>
      <trkpt lat="43.38661" lon="6.72867">
        <ele>6.9</ele>
        <time>2023-05-16T15:26:50Z</time>
      </trkpt>
      <trkpt lat="43.38661" lon="6.72867">
        <ele>6.9</ele>
        <time>2023-05-16T15:26:51Z</time>
      </trkpt>
      <trkpt lat="43.38662" lon="6.72867">
        <ele>6.9</ele>
        <time>2023-05-16T15:26:53Z</time>
      </trkpt>
      <trkpt lat="43.38662" lon="6.72867">
        <ele>6.9</ele>
        <time>2023-05-16T15:26:54Z</time>
      </trkpt>
      <trkpt lat="43.38662" lon="6.72867">
        <ele>6.9</ele>
        <time>2023-05-16T15:26:56Z</time>
      </trkpt>
      <trkpt lat="43.38662" lon="6.72867">
        <ele>6.9</ele>
        <time>2023-05-16T15:26:57Z</time>
      </trkpt>
      <trkpt lat="43.38662" lon="6.72867">
        <ele>6.9</ele>
        <time>2023-05-16T15:26:58Z</time>
      </trkpt>
      <trkpt lat="43.38662" lon="6.72867">
        <ele>6.9</ele>
        <time>2023-05-16T15:26:59Z</time>
      </trkpt>
      <trkpt lat="43.38662" lon="6.72867">
        <ele>6.9</ele>
        <time>2023-05-16T15:27:01Z</time>
      </trkpt>
      <trkpt lat="43.38662" lon="6.72867">
        <ele>6.9</ele>
        <time>2023-05-16T15:27:02Z</time>
      </trkpt>
      <trkpt lat="43.38662" lon="6.72867">
        <ele>6.9</ele>
        <time>2023-05-16T15:27:03Z</time>
      </trkpt>
      <trkpt lat="43.38662" lon="6.72867">
        <ele>6.9</ele>
        <time>2023-05-16T15:27:04Z</time>
      </trkpt>
      <trkpt lat="43.38663" lon="6.72866">
        <ele>6.9</ele>
        <time>2023-05-16T15:27:05Z</time>
      </trkpt>
      <trkpt lat="43.38664" lon="6.72866">
        <ele>6.9</ele>
        <time>2023-05-16T15:27:06Z</time>
      </trkpt>
      <trkpt lat="43.38664" lon="6.72866">
        <ele>6.9</ele>
        <time>2023-05-16T15:27:07Z</time>
      </trkpt>
      <trkpt lat="43.38665" lon="6.72866">
        <ele>6.9</ele>
        <time>2023-05-16T15:27:08Z</time>
      </trkpt>
      <trkpt lat="43.38666" lon="6.72866">
        <ele>6.8</ele>
        <time>2023-05-16T15:27:09Z</time>
      </trkpt>
      <trkpt lat="43.38667" lon="6.72866">
        <ele>6.8</ele>
        <time>2023-05-16T15:27:10Z</time>
      </trkpt>
      <trkpt lat="43.38669" lon="6.72866">
        <ele>6.8</ele>
        <time>2023-05-16T15:27:12Z</time>
      </trkpt>
      <trkpt lat="43.3867" lon="6.72867">
        <ele>6.8</ele>
        <time>2023-05-16T15:27:13Z</time>
      </trkpt>
      <trkpt lat="43.38671" lon="6.72868">
        <ele>6.8</ele>
        <time>2023-05-16T15:27:14Z</time>
      </trkpt>
      <trkpt lat="43.38671" lon="6.72869">
        <ele>6.7</ele>
        <time>2023-05-16T15:27:15Z</time>
      </trkpt>
      <trkpt lat="43.38673" lon="6.72871">
        <ele>6.7</ele>
        <time>2023-05-16T15:27:16Z</time>
      </trkpt>
      <trkpt lat="43.38673" lon="6.72873">
        <ele>6.7</ele>
        <time>2023-05-16T15:27:17Z</time>
      </trkpt>
      <trkpt lat="43.38674" lon="6.72876">
        <ele>6.6</ele>
        <time>2023-05-16T15:27:18Z</time>
      </trkpt>
      <trkpt lat="43.38674" lon="6.72877">
        <ele>6.6</ele>
        <time>2023-05-16T15:27:19Z</time>
      </trkpt>
      <trkpt lat="43.38675" lon="6.72878">
        <ele>6.6</ele>
        <time>2023-05-16T15:27:20Z</time>
      </trkpt>
      <trkpt lat="43.38675" lon="6.72879">
        <ele>6.6</ele>
        <time>2023-05-16T15:27:21Z</time>
      </trkpt>
      <trkpt lat="43.38676" lon="6.7288">
        <ele>6.6</ele>
        <time>2023-05-16T15:27:23Z</time>
      </trkpt>
      <trkpt lat="43.38677" lon="6.72881">
        <ele>6.6</ele>
        <time>2023-05-16T15:27:24Z</time>
      </trkpt>
      <trkpt lat="43.38678" lon="6.72882">
        <ele>6.5</ele>
        <time>2023-05-16T15:27:25Z</time>
      </trkpt>
      <trkpt lat="43.38679" lon="6.72884">
        <ele>6.5</ele>
        <time>2023-05-16T15:27:26Z</time>
      </trkpt>
      <trkpt lat="43.38679" lon="6.72885">
        <ele>6.5</ele>
        <time>2023-05-16T15:27:27Z</time>
      </trkpt>
      <trkpt lat="43.3868" lon="6.72886">
        <ele>6.4</ele>
        <time>2023-05-16T15:27:28Z</time>
      </trkpt>
      <trkpt lat="43.38681" lon="6.72888">
        <ele>6.4</ele>
        <time>2023-05-16T15:27:29Z</time>
      </trkpt>
      <trkpt lat="43.38681" lon="6.72889">
        <ele>6.4</ele>
        <time>2023-05-16T15:27:30Z</time>
      </trkpt>
      <trkpt lat="43.38682" lon="6.7289">
        <ele>6.3</ele>
        <time>2023-05-16T15:27:32Z</time>
      </trkpt>
      <trkpt lat="43.38683" lon="6.72891">
        <ele>6.3</ele>
        <time>2023-05-16T15:27:33Z</time>
      </trkpt>
      <trkpt lat="43.38683" lon="6.72892">
        <ele>6.3</ele>
        <time>2023-05-16T15:27:34Z</time>
      </trkpt>
      <trkpt lat="43.38685" lon="6.72894">
        <ele>6.2</ele>
        <time>2023-05-16T15:27:35Z</time>
      </trkpt>
      <trkpt lat="43.38685" lon="6.72894">
        <ele>6.2</ele>
        <time>2023-05-16T15:27:36Z</time>
      </trkpt>
      <trkpt lat="43.38686" lon="6.72893">
        <ele>6.2</ele>
        <time>2023-05-16T15:27:37Z</time>
      </trkpt>
      <trkpt lat="43.38687" lon="6.72892">
        <ele>6.1</ele>
        <time>2023-05-16T15:27:38Z</time>
      </trkpt>
      <trkpt lat="43.38688" lon="6.72891">
        <ele>6.1</ele>
        <time>2023-05-16T15:27:39Z</time>
      </trkpt>
      <trkpt lat="43.38688" lon="6.72888">
        <ele>6.1</ele>
        <time>2023-05-16T15:27:41Z</time>
      </trkpt>
      <trkpt lat="43.38688" lon="6.72886">
        <ele>6</ele>
        <time>2023-05-16T15:27:42Z</time>
      </trkpt>
      <trkpt lat="43.38688" lon="6.72884">
        <ele>6</ele>
        <time>2023-05-16T15:27:43Z</time>
      </trkpt>
      <trkpt lat="43.38688" lon="6.72882">
        <ele>5.9</ele>
        <time>2023-05-16T15:27:44Z</time>
      </trkpt>
      <trkpt lat="43.38687" lon="6.72879">
        <ele>5.9</ele>
        <time>2023-05-16T15:27:45Z</time>
      </trkpt>
      <trkpt lat="43.38687" lon="6.72878">
        <ele>5.9</ele>
        <time>2023-05-16T15:27:46Z</time>
      </trkpt>
      <trkpt lat="43.38687" lon="6.72875">
        <ele>5.8</ele>
        <time>2023-05-16T15:27:48Z</time>
      </trkpt>
      <trkpt lat="43.38687" lon="6.72874">
        <ele>5.8</ele>
        <time>2023-05-16T15:27:49Z</time>
      </trkpt>
      <trkpt lat="43.38688" lon="6.72873">
        <ele>5.8</ele>
        <time>2023-05-16T15:27:50Z</time>
      </trkpt>
      <trkpt lat="43.38689" lon="6.72871">
        <ele>5.8</ele>
        <time>2023-05-16T15:27:51Z</time>
      </trkpt>
      <trkpt lat="43.3869" lon="6.72871">
        <ele>5.8</ele>
        <time>2023-05-16T15:27:52Z</time>
      </trkpt>
      <trkpt lat="43.38692" lon="6.72871">
        <ele>5.8</ele>
        <time>2023-05-16T15:27:54Z</time>
      </trkpt>
      <trkpt lat="43.38694" lon="6.7287">
        <ele>5.7</ele>
        <time>2023-05-16T15:27:55Z</time>
      </trkpt>
      <trkpt lat="43.38695" lon="6.7287">
        <ele>5.7</ele>
        <time>2023-05-16T15:27:56Z</time>
      </trkpt>
      <trkpt lat="43.38696" lon="6.72869">
        <ele>5.7</ele>
        <time>2023-05-16T15:27:57Z</time>
      </trkpt>
      <trkpt lat="43.38697" lon="6.72868">
        <ele>5.7</ele>
        <time>2023-05-16T15:27:58Z</time>
      </trkpt>
      <trkpt lat="43.38698" lon="6.72867">
        <ele>5.7</ele>
        <time>2023-05-16T15:27:59Z</time>
      </trkpt>
      <trkpt lat="43.38699" lon="6.72865">
        <ele>5.7</ele>
        <time>2023-05-16T15:28:01Z</time>
      </trkpt>
      <trkpt lat="43.38699" lon="6.72865">
        <ele>5.8</ele>
        <time>2023-05-16T15:28:02Z</time>
      </trkpt>
      <trkpt lat="43.387" lon="6.72864">
        <ele>5.8</ele>
        <time>2023-05-16T15:28:03Z</time>
      </trkpt>
      <trkpt lat="43.387" lon="6.72862">
        <ele>5.8</ele>
        <time>2023-05-16T15:28:04Z</time>
      </trkpt>
      <trkpt lat="43.38701" lon="6.72862">
        <ele>5.8</ele>
        <time>2023-05-16T15:28:05Z</time>
      </trkpt>
      <trkpt lat="43.38702" lon="6.7286">
        <ele>5.8</ele>
        <time>2023-05-16T15:28:06Z</time>
      </trkpt>
      <trkpt lat="43.38702" lon="6.72859">
        <ele>5.8</ele>
        <time>2023-05-16T15:28:08Z</time>
      </trkpt>
      <trkpt lat="43.38702" lon="6.72857">
        <ele>5.8</ele>
        <time>2023-05-16T15:28:09Z</time>
      </trkpt>
      <trkpt lat="43.38702" lon="6.72856">
        <ele>5.8</ele>
        <time>2023-05-16T15:28:10Z</time>
      </trkpt>
      <trkpt lat="43.38702" lon="6.72854">
        <ele>5.8</ele>
        <time>2023-05-16T15:28:11Z</time>
      </trkpt>
      <trkpt lat="43.38702" lon="6.72853">
        <ele>5.8</ele>
        <time>2023-05-16T15:28:12Z</time>
      </trkpt>
      <trkpt lat="43.38703" lon="6.72851">
        <ele>5.8</ele>
        <time>2023-05-16T15:28:14Z</time>
      </trkpt>
      <trkpt lat="43.38704" lon="6.72849">
        <ele>5.8</ele>
        <time>2023-05-16T15:28:15Z</time>
      </trkpt>
      <trkpt lat="43.38705" lon="6.72847">
        <ele>5.8</ele>
        <time>2023-05-16T15:28:16Z</time>
      </trkpt>
      <trkpt lat="43.38706" lon="6.72847">
        <ele>5.8</ele>
        <time>2023-05-16T15:28:17Z</time>
      </trkpt>
      <trkpt lat="43.38707" lon="6.72847">
        <ele>5.8</ele>
        <time>2023-05-16T15:28:18Z</time>
      </trkpt>
      <trkpt lat="43.38708" lon="6.72847">
        <ele>5.8</ele>
        <time>2023-05-16T15:28:19Z</time>
      </trkpt>
      <trkpt lat="43.3871" lon="6.72848">
        <ele>5.8</ele>
        <time>2023-05-16T15:28:21Z</time>
      </trkpt>
      <trkpt lat="43.3871" lon="6.7285">
        <ele>5.9</ele>
        <time>2023-05-16T15:28:22Z</time>
      </trkpt>
      <trkpt lat="43.3871" lon="6.72852">
        <ele>5.9</ele>
        <time>2023-05-16T15:28:23Z</time>
      </trkpt>
      <trkpt lat="43.3871" lon="6.72855">
        <ele>5.9</ele>
        <time>2023-05-16T15:28:24Z</time>
      </trkpt>
      <trkpt lat="43.3871" lon="6.72856">
        <ele>5.9</ele>
        <time>2023-05-16T15:28:25Z</time>
      </trkpt>
      <trkpt lat="43.38712" lon="6.72857">
        <ele>5.9</ele>
        <time>2023-05-16T15:28:26Z</time>
      </trkpt>
      <trkpt lat="43.38712" lon="6.72858">
        <ele>5.9</ele>
        <time>2023-05-16T15:28:28Z</time>
      </trkpt>
      <trkpt lat="43.38713" lon="6.72858">
        <ele>5.9</ele>
        <time>2023-05-16T15:28:29Z</time>
      </trkpt>
      <trkpt lat="43.38714" lon="6.72858">
        <ele>5.9</ele>
        <time>2023-05-16T15:28:30Z</time>
      </trkpt>
      <trkpt lat="43.38714" lon="6.72862">
        <ele>5.9</ele>
        <time>2023-05-16T15:28:31Z</time>
      </trkpt>
      <trkpt lat="43.38714" lon="6.72863">
        <ele>5.9</ele>
        <time>2023-05-16T15:28:33Z</time>
      </trkpt>
      <trkpt lat="43.38713" lon="6.72865">
        <ele>5.8</ele>
        <time>2023-05-16T15:28:34Z</time>
      </trkpt>
      <trkpt lat="43.38713" lon="6.72866">
        <ele>5.8</ele>
        <time>2023-05-16T15:28:35Z</time>
      </trkpt>
      <trkpt lat="43.38713" lon="6.72868">
        <ele>5.8</ele>
        <time>2023-05-16T15:28:36Z</time>
      </trkpt>
      <trkpt lat="43.38713" lon="6.72869">
        <ele>5.8</ele>
        <time>2023-05-16T15:28:37Z</time>
      </trkpt>
      <trkpt lat="43.38714" lon="6.7287">
        <ele>5.8</ele>
        <time>2023-05-16T15:28:38Z</time>
      </trkpt>
      <trkpt lat="43.38714" lon="6.72871">
        <ele>5.8</ele>
        <time>2023-05-16T15:28:39Z</time>
      </trkpt>
      <trkpt lat="43.38715" lon="6.72872">
        <ele>5.8</ele>
        <time>2023-05-16T15:28:40Z</time>
      </trkpt>
      <trkpt lat="43.38715" lon="6.72874">
        <ele>5.8</ele>
        <time>2023-05-16T15:28:41Z</time>
      </trkpt>
      <trkpt lat="43.38715" lon="6.72876">
        <ele>5.8</ele>
        <time>2023-05-16T15:28:42Z</time>
      </trkpt>
      <trkpt lat="43.38715" lon="6.72877">
        <ele>5.8</ele>
        <time>2023-05-16T15:28:43Z</time>
      </trkpt>
      <trkpt lat="43.38715" lon="6.72879">
        <ele>5.8</ele>
        <time>2023-05-16T15:28:45Z</time>
      </trkpt>
      <trkpt lat="43.38715" lon="6.72881">
        <ele>5.8</ele>
        <time>2023-05-16T15:28:46Z</time>
      </trkpt>
      <trkpt lat="43.38715" lon="6.72882">
        <ele>5.8</ele>
        <time>2023-05-16T15:28:47Z</time>
      </trkpt>
      <trkpt lat="43.38715" lon="6.72884">
        <ele>5.8</ele>
        <time>2023-05-16T15:28:48Z</time>
      </trkpt>
      <trkpt lat="43.38715" lon="6.72885">
        <ele>5.8</ele>
        <time>2023-05-16T15:28:49Z</time>
      </trkpt>
      <trkpt lat="43.38715" lon="6.72887">
        <ele>5.8</ele>
        <time>2023-05-16T15:28:50Z</time>
      </trkpt>
      <trkpt lat="43.38715" lon="6.72889">
        <ele>5.8</ele>
        <time>2023-05-16T15:28:51Z</time>
      </trkpt>
      <trkpt lat="43.38715" lon="6.7289">
        <ele>5.8</ele>
        <time>2023-05-16T15:28:52Z</time>
      </trkpt>
      <trkpt lat="43.38713" lon="6.72894">
        <ele>5.9</ele>
        <time>2023-05-16T15:28:54Z</time>
      </trkpt>
      <trkpt lat="43.38712" lon="6.72897">
        <ele>6</ele>
        <time>2023-05-16T15:28:55Z</time>
      </trkpt>
      <trkpt lat="43.38712" lon="6.72898">
        <ele>6.1</ele>
        <time>2023-05-16T15:28:57Z</time>
      </trkpt>
      <trkpt lat="43.38711" lon="6.729">
        <ele>6.1</ele>
        <time>2023-05-16T15:28:58Z</time>
      </trkpt>
      <trkpt lat="43.38711" lon="6.72901">
        <ele>6.2</ele>
        <time>2023-05-16T15:28:59Z</time>
      </trkpt>
      <trkpt lat="43.38711" lon="6.72904">
        <ele>6.4</ele>
        <time>2023-05-16T15:29:01Z</time>
      </trkpt>
      <trkpt lat="43.38711" lon="6.72905">
        <ele>6.4</ele>
        <time>2023-05-16T15:29:02Z</time>
      </trkpt>
      <trkpt lat="43.38711" lon="6.72906">
        <ele>6.5</ele>
        <time>2023-05-16T15:29:03Z</time>
      </trkpt>
      <trkpt lat="43.38711" lon="6.72907">
        <ele>6.5</ele>
        <time>2023-05-16T15:29:04Z</time>
      </trkpt>
      <trkpt lat="43.38712" lon="6.72909">
        <ele>6.7</ele>
        <time>2023-05-16T15:29:06Z</time>
      </trkpt>
      <trkpt lat="43.38713" lon="6.7291">
        <ele>6.8</ele>
        <time>2023-05-16T15:29:07Z</time>
      </trkpt>
      <trkpt lat="43.38713" lon="6.72911">
        <ele>6.8</ele>
        <time>2023-05-16T15:29:08Z</time>
      </trkpt>
      <trkpt lat="43.38714" lon="6.72913">
        <ele>6.9</ele>
        <time>2023-05-16T15:29:09Z</time>
      </trkpt>
      <trkpt lat="43.38714" lon="6.72914">
        <ele>7</ele>
        <time>2023-05-16T15:29:10Z</time>
      </trkpt>
      <trkpt lat="43.38714" lon="6.72915">
        <ele>7.1</ele>
        <time>2023-05-16T15:29:12Z</time>
      </trkpt>
      <trkpt lat="43.38714" lon="6.72917">
        <ele>7.2</ele>
        <time>2023-05-16T15:29:13Z</time>
      </trkpt>
      <trkpt lat="43.38715" lon="6.72918">
        <ele>7.3</ele>
        <time>2023-05-16T15:29:14Z</time>
      </trkpt>
      <trkpt lat="43.38715" lon="6.72919">
        <ele>7.3</ele>
        <time>2023-05-16T15:29:15Z</time>
      </trkpt>
      <trkpt lat="43.38715" lon="6.7292">
        <ele>7.4</ele>
        <time>2023-05-16T15:29:16Z</time>
      </trkpt>
      <trkpt lat="43.38716" lon="6.72923">
        <ele>7.6</ele>
        <time>2023-05-16T15:29:17Z</time>
      </trkpt>
      <trkpt lat="43.38717" lon="6.72924">
        <ele>7.6</ele>
        <time>2023-05-16T15:29:19Z</time>
      </trkpt>
      <trkpt lat="43.38718" lon="6.72925">
        <ele>7.7</ele>
        <time>2023-05-16T15:29:20Z</time>
      </trkpt>
      <trkpt lat="43.38719" lon="6.72925">
        <ele>7.8</ele>
        <time>2023-05-16T15:29:22Z</time>
      </trkpt>
      <trkpt lat="43.3872" lon="6.72925">
        <ele>7.8</ele>
        <time>2023-05-16T15:29:23Z</time>
      </trkpt>
      <trkpt lat="43.38721" lon="6.72925">
        <ele>7.9</ele>
        <time>2023-05-16T15:29:24Z</time>
      </trkpt>
      <trkpt lat="43.38721" lon="6.72926">
        <ele>7.9</ele>
        <time>2023-05-16T15:29:25Z</time>
      </trkpt>
      <trkpt lat="43.38722" lon="6.72927">
        <ele>7.9</ele>
        <time>2023-05-16T15:29:27Z</time>
      </trkpt>
      <trkpt lat="43.38721" lon="6.72929">
        <ele>8</ele>
        <time>2023-05-16T15:29:29Z</time>
      </trkpt>
      <trkpt lat="43.3872" lon="6.72929">
        <ele>8</ele>
        <time>2023-05-16T15:29:31Z</time>
      </trkpt>
      <trkpt lat="43.38719" lon="6.7293">
        <ele>8</ele>
        <time>2023-05-16T15:29:32Z</time>
      </trkpt>
      <trkpt lat="43.38718" lon="6.7293">
        <ele>8</ele>
        <time>2023-05-16T15:29:33Z</time>
      </trkpt>
      <trkpt lat="43.38718" lon="6.72929">
        <ele>8.1</ele>
        <time>2023-05-16T15:29:35Z</time>
      </trkpt>
      <trkpt lat="43.38717" lon="6.72929">
        <ele>8.1</ele>
        <time>2023-05-16T15:29:36Z</time>
      </trkpt>
      <trkpt lat="43.38718" lon="6.7293">
        <ele>8.1</ele>
        <time>2023-05-16T15:29:37Z</time>
      </trkpt>
      <trkpt lat="43.38718" lon="6.72932">
        <ele>8.1</ele>
        <time>2023-05-16T15:29:38Z</time>
      </trkpt>
      <trkpt lat="43.38719" lon="6.72934">
        <ele>8.1</ele>
        <time>2023-05-16T15:29:39Z</time>
      </trkpt>
      <trkpt lat="43.38719" lon="6.72935">
        <ele>8.1</ele>
        <time>2023-05-16T15:29:40Z</time>
      </trkpt>
      <trkpt lat="43.3872" lon="6.72937">
        <ele>8.1</ele>
        <time>2023-05-16T15:29:41Z</time>
      </trkpt>
      <trkpt lat="43.38721" lon="6.72939">
        <ele>8</ele>
        <time>2023-05-16T15:29:42Z</time>
      </trkpt>
      <trkpt lat="43.38721" lon="6.7294">
        <ele>8</ele>
        <time>2023-05-16T15:29:44Z</time>
      </trkpt>
      <trkpt lat="43.38723" lon="6.72942">
        <ele>8</ele>
        <time>2023-05-16T15:29:45Z</time>
      </trkpt>
      <trkpt lat="43.38723" lon="6.72943">
        <ele>8</ele>
        <time>2023-05-16T15:29:46Z</time>
      </trkpt>
      <trkpt lat="43.38725" lon="6.72944">
        <ele>7.9</ele>
        <time>2023-05-16T15:29:47Z</time>
      </trkpt>
      <trkpt lat="43.38727" lon="6.72946">
        <ele>7.8</ele>
        <time>2023-05-16T15:29:48Z</time>
      </trkpt>
      <trkpt lat="43.38728" lon="6.72947">
        <ele>7.8</ele>
        <time>2023-05-16T15:29:49Z</time>
      </trkpt>
      <trkpt lat="43.38729" lon="6.72948">
        <ele>7.7</ele>
        <time>2023-05-16T15:29:50Z</time>
      </trkpt>
      <trkpt lat="43.3873" lon="6.7295">
        <ele>7.7</ele>
        <time>2023-05-16T15:29:51Z</time>
      </trkpt>
      <trkpt lat="43.38731" lon="6.72951">
        <ele>7.6</ele>
        <time>2023-05-16T15:29:53Z</time>
      </trkpt>
      <trkpt lat="43.38732" lon="6.72953">
        <ele>7.5</ele>
        <time>2023-05-16T15:29:54Z</time>
      </trkpt>
      <trkpt lat="43.38733" lon="6.72954">
        <ele>7.5</ele>
        <time>2023-05-16T15:29:55Z</time>
      </trkpt>
      <trkpt lat="43.38733" lon="6.72955">
        <ele>7.4</ele>
        <time>2023-05-16T15:29:56Z</time>
      </trkpt>
      <trkpt lat="43.38734" lon="6.72958">
        <ele>7.4</ele>
        <time>2023-05-16T15:29:57Z</time>
      </trkpt>
      <trkpt lat="43.38735" lon="6.72959">
        <ele>7.3</ele>
        <time>2023-05-16T15:29:58Z</time>
      </trkpt>
      <trkpt lat="43.38736" lon="6.72961">
        <ele>7.3</ele>
        <time>2023-05-16T15:29:59Z</time>
      </trkpt>
      <trkpt lat="43.38737" lon="6.72962">
        <ele>7.2</ele>
        <time>2023-05-16T15:30:00Z</time>
      </trkpt>
      <trkpt lat="43.38737" lon="6.72963">
        <ele>7.2</ele>
        <time>2023-05-16T15:30:01Z</time>
      </trkpt>
      <trkpt lat="43.38738" lon="6.72965">
        <ele>7.1</ele>
        <time>2023-05-16T15:30:03Z</time>
      </trkpt>
      <trkpt lat="43.38739" lon="6.72966">
        <ele>7.1</ele>
        <time>2023-05-16T15:30:04Z</time>
      </trkpt>
      <trkpt lat="43.3874" lon="6.72968">
        <ele>7.1</ele>
        <time>2023-05-16T15:30:05Z</time>
      </trkpt>
      <trkpt lat="43.38739" lon="6.72971">
        <ele>7</ele>
        <time>2023-05-16T15:30:06Z</time>
      </trkpt>
      <trkpt lat="43.38739" lon="6.72971">
        <ele>7</ele>
        <time>2023-05-16T15:30:07Z</time>
      </trkpt>
      <trkpt lat="43.3874" lon="6.72972">
        <ele>7</ele>
        <time>2023-05-16T15:30:08Z</time>
      </trkpt>
      <trkpt lat="43.38741" lon="6.72974">
        <ele>7</ele>
        <time>2023-05-16T15:30:10Z</time>
      </trkpt>
      <trkpt lat="43.38742" lon="6.72975">
        <ele>7</ele>
        <time>2023-05-16T15:30:11Z</time>
      </trkpt>
      <trkpt lat="43.38743" lon="6.72976">
        <ele>7</ele>
        <time>2023-05-16T15:30:12Z</time>
      </trkpt>
      <trkpt lat="43.38744" lon="6.72977">
        <ele>7</ele>
        <time>2023-05-16T15:30:13Z</time>
      </trkpt>
      <trkpt lat="43.38746" lon="6.72978">
        <ele>7</ele>
        <time>2023-05-16T15:30:15Z</time>
      </trkpt>
      <trkpt lat="43.38747" lon="6.72979">
        <ele>7</ele>
        <time>2023-05-16T15:30:17Z</time>
      </trkpt>
      <trkpt lat="43.38748" lon="6.72979">
        <ele>7</ele>
        <time>2023-05-16T15:30:18Z</time>
      </trkpt>
      <trkpt lat="43.38749" lon="6.7298">
        <ele>7.1</ele>
        <time>2023-05-16T15:30:19Z</time>
      </trkpt>
      <trkpt lat="43.3875" lon="6.72982">
        <ele>7.1</ele>
        <time>2023-05-16T15:30:20Z</time>
      </trkpt>
      <trkpt lat="43.38751" lon="6.72983">
        <ele>7.1</ele>
        <time>2023-05-16T15:30:21Z</time>
      </trkpt>
      <trkpt lat="43.38751" lon="6.72984">
        <ele>7.2</ele>
        <time>2023-05-16T15:30:22Z</time>
      </trkpt>
      <trkpt lat="43.38751" lon="6.72985">
        <ele>7.2</ele>
        <time>2023-05-16T15:30:24Z</time>
      </trkpt>
      <trkpt lat="43.38752" lon="6.72987">
        <ele>7.2</ele>
        <time>2023-05-16T15:30:25Z</time>
      </trkpt>
      <trkpt lat="43.38752" lon="6.72988">
        <ele>7.2</ele>
        <time>2023-05-16T15:30:26Z</time>
      </trkpt>
      <trkpt lat="43.38752" lon="6.7299">
        <ele>7.3</ele>
        <time>2023-05-16T15:30:27Z</time>
      </trkpt>
      <trkpt lat="43.38752" lon="6.72992">
        <ele>7.3</ele>
        <time>2023-05-16T15:30:28Z</time>
      </trkpt>
      <trkpt lat="43.38751" lon="6.72995">
        <ele>7.3</ele>
        <time>2023-05-16T15:30:29Z</time>
      </trkpt>
      <trkpt lat="43.38751" lon="6.72996">
        <ele>7.4</ele>
        <time>2023-05-16T15:30:30Z</time>
      </trkpt>
      <trkpt lat="43.38751" lon="6.72997">
        <ele>7.4</ele>
        <time>2023-05-16T15:30:31Z</time>
      </trkpt>
      <trkpt lat="43.3875" lon="6.73001">
        <ele>7.4</ele>
        <time>2023-05-16T15:30:33Z</time>
      </trkpt>
      <trkpt lat="43.3875" lon="6.73003">
        <ele>7.5</ele>
        <time>2023-05-16T15:30:35Z</time>
      </trkpt>
      <trkpt lat="43.3875" lon="6.73004">
        <ele>7.5</ele>
        <time>2023-05-16T15:30:36Z</time>
      </trkpt>
      <trkpt lat="43.3875" lon="6.73006">
        <ele>7.5</ele>
        <time>2023-05-16T15:30:37Z</time>
      </trkpt>
      <trkpt lat="43.3875" lon="6.73007">
        <ele>7.5</ele>
        <time>2023-05-16T15:30:38Z</time>
      </trkpt>
      <trkpt lat="43.38751" lon="6.73009">
        <ele>7.5</ele>
        <time>2023-05-16T15:30:39Z</time>
      </trkpt>
      <trkpt lat="43.38751" lon="6.7301">
        <ele>7.5</ele>
        <time>2023-05-16T15:30:40Z</time>
      </trkpt>
      <trkpt lat="43.38752" lon="6.73012">
        <ele>7.5</ele>
        <time>2023-05-16T15:30:42Z</time>
      </trkpt>
      <trkpt lat="43.38754" lon="6.73014">
        <ele>7.6</ele>
        <time>2023-05-16T15:30:43Z</time>
      </trkpt>
      <trkpt lat="43.38755" lon="6.73015">
        <ele>7.7</ele>
        <time>2023-05-16T15:30:44Z</time>
      </trkpt>
      <trkpt lat="43.38755" lon="6.73016">
        <ele>7.7</ele>
        <time>2023-05-16T15:30:45Z</time>
      </trkpt>
      <trkpt lat="43.38756" lon="6.73017">
        <ele>7.8</ele>
        <time>2023-05-16T15:30:46Z</time>
      </trkpt>
      <trkpt lat="43.38757" lon="6.73018">
        <ele>7.9</ele>
        <time>2023-05-16T15:30:47Z</time>
      </trkpt>
      <trkpt lat="43.38759" lon="6.73019">
        <ele>8</ele>
        <time>2023-05-16T15:30:48Z</time>
      </trkpt>
      <trkpt lat="43.3876" lon="6.73019">
        <ele>8</ele>
        <time>2023-05-16T15:30:49Z</time>
      </trkpt>
      <trkpt lat="43.38761" lon="6.7302">
        <ele>8.1</ele>
        <time>2023-05-16T15:30:51Z</time>
      </trkpt>
      <trkpt lat="43.38763" lon="6.7302">
        <ele>8.2</ele>
        <time>2023-05-16T15:30:52Z</time>
      </trkpt>
      <trkpt lat="43.38763" lon="6.7302">
        <ele>8.2</ele>
        <time>2023-05-16T15:30:53Z</time>
      </trkpt>
      <trkpt lat="43.38764" lon="6.73021">
        <ele>8.2</ele>
        <time>2023-05-16T15:30:54Z</time>
      </trkpt>
      <trkpt lat="43.38765" lon="6.73021">
        <ele>8.3</ele>
        <time>2023-05-16T15:30:55Z</time>
      </trkpt>
      <trkpt lat="43.38767" lon="6.73021">
        <ele>8.3</ele>
        <time>2023-05-16T15:30:56Z</time>
      </trkpt>
      <trkpt lat="43.38768" lon="6.73022">
        <ele>8.4</ele>
        <time>2023-05-16T15:30:57Z</time>
      </trkpt>
      <trkpt lat="43.38769" lon="6.73022">
        <ele>8.4</ele>
        <time>2023-05-16T15:30:59Z</time>
      </trkpt>
      <trkpt lat="43.3877" lon="6.73022">
        <ele>8.4</ele>
        <time>2023-05-16T15:31:00Z</time>
      </trkpt>
      <trkpt lat="43.38771" lon="6.73023">
        <ele>8.4</ele>
        <time>2023-05-16T15:31:01Z</time>
      </trkpt>
      <trkpt lat="43.38772" lon="6.73023">
        <ele>8.5</ele>
        <time>2023-05-16T15:31:02Z</time>
      </trkpt>
      <trkpt lat="43.38772" lon="6.73023">
        <ele>8.5</ele>
        <time>2023-05-16T15:31:03Z</time>
      </trkpt>
      <trkpt lat="43.38773" lon="6.73023">
        <ele>8.5</ele>
        <time>2023-05-16T15:31:04Z</time>
      </trkpt>
      <trkpt lat="43.38777" lon="6.73025">
        <ele>8.6</ele>
        <time>2023-05-16T15:31:06Z</time>
      </trkpt>
      <trkpt lat="43.38778" lon="6.73025">
        <ele>8.6</ele>
        <time>2023-05-16T15:31:08Z</time>
      </trkpt>
      <trkpt lat="43.38778" lon="6.73025">
        <ele>8.6</ele>
        <time>2023-05-16T15:31:09Z</time>
      </trkpt>
      <trkpt lat="43.38779" lon="6.73025">
        <ele>8.7</ele>
        <time>2023-05-16T15:31:10Z</time>
      </trkpt>
      <trkpt lat="43.3878" lon="6.73024">
        <ele>8.7</ele>
        <time>2023-05-16T15:31:11Z</time>
      </trkpt>
      <trkpt lat="43.38781" lon="6.73024">
        <ele>8.7</ele>
        <time>2023-05-16T15:31:13Z</time>
      </trkpt>
      <trkpt lat="43.38782" lon="6.73023">
        <ele>8.8</ele>
        <time>2023-05-16T15:31:14Z</time>
      </trkpt>
      <trkpt lat="43.38783" lon="6.73023">
        <ele>8.8</ele>
        <time>2023-05-16T15:31:15Z</time>
      </trkpt>
      <trkpt lat="43.38784" lon="6.73022">
        <ele>8.9</ele>
        <time>2023-05-16T15:31:16Z</time>
      </trkpt>
      <trkpt lat="43.38786" lon="6.73023">
        <ele>8.9</ele>
        <time>2023-05-16T15:31:17Z</time>
      </trkpt>
      <trkpt lat="43.38788" lon="6.73023">
        <ele>9.1</ele>
        <time>2023-05-16T15:31:18Z</time>
      </trkpt>
      <trkpt lat="43.3879" lon="6.73024">
        <ele>9.2</ele>
        <time>2023-05-16T15:31:20Z</time>
      </trkpt>
      <trkpt lat="43.38793" lon="6.73024">
        <ele>9.4</ele>
        <time>2023-05-16T15:31:21Z</time>
      </trkpt>
      <trkpt lat="43.38794" lon="6.73024">
        <ele>9.5</ele>
        <time>2023-05-16T15:31:22Z</time>
      </trkpt>
      <trkpt lat="43.38795" lon="6.73023">
        <ele>9.6</ele>
        <time>2023-05-16T15:31:23Z</time>
      </trkpt>
      <trkpt lat="43.38797" lon="6.73022">
        <ele>9.7</ele>
        <time>2023-05-16T15:31:24Z</time>
      </trkpt>
      <trkpt lat="43.38798" lon="6.73021">
        <ele>9.8</ele>
        <time>2023-05-16T15:31:25Z</time>
      </trkpt>
      <trkpt lat="43.38799" lon="6.73021">
        <ele>9.9</ele>
        <time>2023-05-16T15:31:26Z</time>
      </trkpt>
      <trkpt lat="43.38799" lon="6.7302">
        <ele>9.9</ele>
        <time>2023-05-16T15:31:27Z</time>
      </trkpt>
      <trkpt lat="43.388" lon="6.7302">
        <ele>9.9</ele>
        <time>2023-05-16T15:31:28Z</time>
      </trkpt>
      <trkpt lat="43.38801" lon="6.7302">
        <ele>10</ele>
        <time>2023-05-16T15:31:29Z</time>
      </trkpt>
      <trkpt lat="43.38802" lon="6.7302">
        <ele>10.1</ele>
        <time>2023-05-16T15:31:31Z</time>
      </trkpt>
      <trkpt lat="43.38803" lon="6.7302">
        <ele>9.9</ele>
        <time>2023-05-16T15:31:32Z</time>
      </trkpt>
      <trkpt lat="43.38803" lon="6.73019">
        <ele>9.8</ele>
        <time>2023-05-16T15:31:33Z</time>
      </trkpt>
      <trkpt lat="43.38804" lon="6.73019">
        <ele>9.8</ele>
        <time>2023-05-16T15:31:34Z</time>
      </trkpt>
      <trkpt lat="43.38804" lon="6.73019">
        <ele>9.8</ele>
        <time>2023-05-16T15:31:35Z</time>
      </trkpt>
      <trkpt lat="43.38805" lon="6.73019">
        <ele>9.7</ele>
        <time>2023-05-16T15:31:37Z</time>
      </trkpt>
      <trkpt lat="43.38805" lon="6.7302">
        <ele>9.7</ele>
        <time>2023-05-16T15:31:38Z</time>
      </trkpt>
      <trkpt lat="43.38805" lon="6.73021">
        <ele>9.6</ele>
        <time>2023-05-16T15:31:39Z</time>
      </trkpt>
      <trkpt lat="43.38806" lon="6.73023">
        <ele>9.5</ele>
        <time>2023-05-16T15:31:40Z</time>
      </trkpt>
      <trkpt lat="43.38807" lon="6.73024">
        <ele>9.4</ele>
        <time>2023-05-16T15:31:41Z</time>
      </trkpt>
      <trkpt lat="43.38807" lon="6.73025">
        <ele>9.4</ele>
        <time>2023-05-16T15:31:42Z</time>
      </trkpt>
      <trkpt lat="43.38808" lon="6.73026">
        <ele>9.3</ele>
        <time>2023-05-16T15:31:44Z</time>
      </trkpt>
      <trkpt lat="43.38808" lon="6.73027">
        <ele>9.2</ele>
        <time>2023-05-16T15:31:45Z</time>
      </trkpt>
      <trkpt lat="43.38808" lon="6.73028">
        <ele>9.2</ele>
        <time>2023-05-16T15:31:46Z</time>
      </trkpt>
      <trkpt lat="43.38809" lon="6.73029">
        <ele>9.2</ele>
        <time>2023-05-16T15:31:47Z</time>
      </trkpt>
      <trkpt lat="43.3881" lon="6.7303">
        <ele>9.1</ele>
        <time>2023-05-16T15:31:48Z</time>
      </trkpt>
      <trkpt lat="43.3881" lon="6.73031">
        <ele>9</ele>
        <time>2023-05-16T15:31:49Z</time>
      </trkpt>
      <trkpt lat="43.38811" lon="6.73032">
        <ele>9</ele>
        <time>2023-05-16T15:31:50Z</time>
      </trkpt>
      <trkpt lat="43.38811" lon="6.73033">
        <ele>8.9</ele>
        <time>2023-05-16T15:31:51Z</time>
      </trkpt>
      <trkpt lat="43.38812" lon="6.73034">
        <ele>8.8</ele>
        <time>2023-05-16T15:31:52Z</time>
      </trkpt>
      <trkpt lat="43.38812" lon="6.73037">
        <ele>8.7</ele>
        <time>2023-05-16T15:31:54Z</time>
      </trkpt>
      <trkpt lat="43.38812" lon="6.73038">
        <ele>8.7</ele>
        <time>2023-05-16T15:31:55Z</time>
      </trkpt>
      <trkpt lat="43.38812" lon="6.7304">
        <ele>8.6</ele>
        <time>2023-05-16T15:31:56Z</time>
      </trkpt>
      <trkpt lat="43.38812" lon="6.73042">
        <ele>8.5</ele>
        <time>2023-05-16T15:31:57Z</time>
      </trkpt>
      <trkpt lat="43.38812" lon="6.73043">
        <ele>8.4</ele>
        <time>2023-05-16T15:31:58Z</time>
      </trkpt>
      <trkpt lat="43.38813" lon="6.73045">
        <ele>8.4</ele>
        <time>2023-05-16T15:31:59Z</time>
      </trkpt>
      <trkpt lat="43.38813" lon="6.73046">
        <ele>8.3</ele>
        <time>2023-05-16T15:32:01Z</time>
      </trkpt>
      <trkpt lat="43.38813" lon="6.73048">
        <ele>8.3</ele>
        <time>2023-05-16T15:32:02Z</time>
      </trkpt>
      <trkpt lat="43.38815" lon="6.7305">
        <ele>8.2</ele>
        <time>2023-05-16T15:32:03Z</time>
      </trkpt>
      <trkpt lat="43.38816" lon="6.73051">
        <ele>8.1</ele>
        <time>2023-05-16T15:32:04Z</time>
      </trkpt>
      <trkpt lat="43.38817" lon="6.73052">
        <ele>8.1</ele>
        <time>2023-05-16T15:32:05Z</time>
      </trkpt>
      <trkpt lat="43.38818" lon="6.73053">
        <ele>8</ele>
        <time>2023-05-16T15:32:07Z</time>
      </trkpt>
      <trkpt lat="43.38818" lon="6.73053">
        <ele>8</ele>
        <time>2023-05-16T15:32:08Z</time>
      </trkpt>
      <trkpt lat="43.38819" lon="6.73054">
        <ele>8</ele>
        <time>2023-05-16T15:32:09Z</time>
      </trkpt>
      <trkpt lat="43.3882" lon="6.73055">
        <ele>7.9</ele>
        <time>2023-05-16T15:32:10Z</time>
      </trkpt>
      <trkpt lat="43.38822" lon="6.73056">
        <ele>7.9</ele>
        <time>2023-05-16T15:32:11Z</time>
      </trkpt>
      <trkpt lat="43.38822" lon="6.73057">
        <ele>7.8</ele>
        <time>2023-05-16T15:32:12Z</time>
      </trkpt>
      <trkpt lat="43.38823" lon="6.73057">
        <ele>7.8</ele>
        <time>2023-05-16T15:32:13Z</time>
      </trkpt>
      <trkpt lat="43.38824" lon="6.73058">
        <ele>7.8</ele>
        <time>2023-05-16T15:32:14Z</time>
      </trkpt>
      <trkpt lat="43.38825" lon="6.73058">
        <ele>7.8</ele>
        <time>2023-05-16T15:32:15Z</time>
      </trkpt>
      <trkpt lat="43.38826" lon="6.73059">
        <ele>7.7</ele>
        <time>2023-05-16T15:32:17Z</time>
      </trkpt>
      <trkpt lat="43.38827" lon="6.7306">
        <ele>7.7</ele>
        <time>2023-05-16T15:32:18Z</time>
      </trkpt>
      <trkpt lat="43.38829" lon="6.73059">
        <ele>7.7</ele>
        <time>2023-05-16T15:32:19Z</time>
      </trkpt>
      <trkpt lat="43.38829" lon="6.73058">
        <ele>7.7</ele>
        <time>2023-05-16T15:32:20Z</time>
      </trkpt>
      <trkpt lat="43.3883" lon="6.73057">
        <ele>7.7</ele>
        <time>2023-05-16T15:32:21Z</time>
      </trkpt>
      <trkpt lat="43.38832" lon="6.73055">
        <ele>7.6</ele>
        <time>2023-05-16T15:32:22Z</time>
      </trkpt>
      <trkpt lat="43.38833" lon="6.73054">
        <ele>7.6</ele>
        <time>2023-05-16T15:32:23Z</time>
      </trkpt>
      <trkpt lat="43.38833" lon="6.73053">
        <ele>7.6</ele>
        <time>2023-05-16T15:32:24Z</time>
      </trkpt>
      <trkpt lat="43.38834" lon="6.73053">
        <ele>7.6</ele>
        <time>2023-05-16T15:32:26Z</time>
      </trkpt>
      <trkpt lat="43.38834" lon="6.73051">
        <ele>7.6</ele>
        <time>2023-05-16T15:32:27Z</time>
      </trkpt>
      <trkpt lat="43.38835" lon="6.73049">
        <ele>7.6</ele>
        <time>2023-05-16T15:32:29Z</time>
      </trkpt>
      <trkpt lat="43.38835" lon="6.73047">
        <ele>7.6</ele>
        <time>2023-05-16T15:32:30Z</time>
      </trkpt>
      <trkpt lat="43.38836" lon="6.73046">
        <ele>7.6</ele>
        <time>2023-05-16T15:32:31Z</time>
      </trkpt>
      <trkpt lat="43.38837" lon="6.73043">
        <ele>7.6</ele>
        <time>2023-05-16T15:32:33Z</time>
      </trkpt>
      <trkpt lat="43.38837" lon="6.73042">
        <ele>7.6</ele>
        <time>2023-05-16T15:32:34Z</time>
      </trkpt>
      <trkpt lat="43.38838" lon="6.7304">
        <ele>7.6</ele>
        <time>2023-05-16T15:32:35Z</time>
      </trkpt>
      <trkpt lat="43.38838" lon="6.73039">
        <ele>7.6</ele>
        <time>2023-05-16T15:32:36Z</time>
      </trkpt>
      <trkpt lat="43.38838" lon="6.73037">
        <ele>7.6</ele>
        <time>2023-05-16T15:32:37Z</time>
      </trkpt>
      <trkpt lat="43.38838" lon="6.73036">
        <ele>7.6</ele>
        <time>2023-05-16T15:32:38Z</time>
      </trkpt>
      <trkpt lat="43.38838" lon="6.73034">
        <ele>7.7</ele>
        <time>2023-05-16T15:32:39Z</time>
      </trkpt>
      <trkpt lat="43.38837" lon="6.73033">
        <ele>7.7</ele>
        <time>2023-05-16T15:32:41Z</time>
      </trkpt>
      <trkpt lat="43.38837" lon="6.73032">
        <ele>7.7</ele>
        <time>2023-05-16T15:32:42Z</time>
      </trkpt>
      <trkpt lat="43.38837" lon="6.73031">
        <ele>7.7</ele>
        <time>2023-05-16T15:32:43Z</time>
      </trkpt>
      <trkpt lat="43.38837" lon="6.73029">
        <ele>7.7</ele>
        <time>2023-05-16T15:32:44Z</time>
      </trkpt>
      <trkpt lat="43.38838" lon="6.73028">
        <ele>7.7</ele>
        <time>2023-05-16T15:32:45Z</time>
      </trkpt>
      <trkpt lat="43.38838" lon="6.73027">
        <ele>7.7</ele>
        <time>2023-05-16T15:32:46Z</time>
      </trkpt>
      <trkpt lat="43.38838" lon="6.73025">
        <ele>7.8</ele>
        <time>2023-05-16T15:32:47Z</time>
      </trkpt>
      <trkpt lat="43.38838" lon="6.73023">
        <ele>7.8</ele>
        <time>2023-05-16T15:32:48Z</time>
      </trkpt>
      <trkpt lat="43.38838" lon="6.73022">
        <ele>7.8</ele>
        <time>2023-05-16T15:32:49Z</time>
      </trkpt>
      <trkpt lat="43.38839" lon="6.73021">
        <ele>7.8</ele>
        <time>2023-05-16T15:32:50Z</time>
      </trkpt>
      <trkpt lat="43.38839" lon="6.73019">
        <ele>7.8</ele>
        <time>2023-05-16T15:32:51Z</time>
      </trkpt>
      <trkpt lat="43.3884" lon="6.73018">
        <ele>7.9</ele>
        <time>2023-05-16T15:32:52Z</time>
      </trkpt>
      <trkpt lat="43.38841" lon="6.73017">
        <ele>7.9</ele>
        <time>2023-05-16T15:32:54Z</time>
      </trkpt>
      <trkpt lat="43.38843" lon="6.73017">
        <ele>7.9</ele>
        <time>2023-05-16T15:32:55Z</time>
      </trkpt>
      <trkpt lat="43.38844" lon="6.73019">
        <ele>8</ele>
        <time>2023-05-16T15:32:56Z</time>
      </trkpt>
      <trkpt lat="43.38845" lon="6.7302">
        <ele>8</ele>
        <time>2023-05-16T15:32:57Z</time>
      </trkpt>
      <trkpt lat="43.38846" lon="6.73021">
        <ele>8</ele>
        <time>2023-05-16T15:32:58Z</time>
      </trkpt>
      <trkpt lat="43.38847" lon="6.73023">
        <ele>8.1</ele>
        <time>2023-05-16T15:32:59Z</time>
      </trkpt>
      <trkpt lat="43.38848" lon="6.73024">
        <ele>8.1</ele>
        <time>2023-05-16T15:33:01Z</time>
      </trkpt>
      <trkpt lat="43.38849" lon="6.73024">
        <ele>8.1</ele>
        <time>2023-05-16T15:33:02Z</time>
      </trkpt>
      <trkpt lat="43.38849" lon="6.73026">
        <ele>8.2</ele>
        <time>2023-05-16T15:33:03Z</time>
      </trkpt>
      <trkpt lat="43.38849" lon="6.73027">
        <ele>8.2</ele>
        <time>2023-05-16T15:33:04Z</time>
      </trkpt>
      <trkpt lat="43.3885" lon="6.73028">
        <ele>8.2</ele>
        <time>2023-05-16T15:33:05Z</time>
      </trkpt>
      <trkpt lat="43.38851" lon="6.73029">
        <ele>8.2</ele>
        <time>2023-05-16T15:33:06Z</time>
      </trkpt>
      <trkpt lat="43.38852" lon="6.73031">
        <ele>8.3</ele>
        <time>2023-05-16T15:33:08Z</time>
      </trkpt>
      <trkpt lat="43.38853" lon="6.73032">
        <ele>8.3</ele>
        <time>2023-05-16T15:33:09Z</time>
      </trkpt>
      <trkpt lat="43.38853" lon="6.73032">
        <ele>8.3</ele>
        <time>2023-05-16T15:33:10Z</time>
      </trkpt>
      <trkpt lat="43.38853" lon="6.73033">
        <ele>8.3</ele>
        <time>2023-05-16T15:33:11Z</time>
      </trkpt>
      <trkpt lat="43.38853" lon="6.73034">
        <ele>8.4</ele>
        <time>2023-05-16T15:33:12Z</time>
      </trkpt>
      <trkpt lat="43.38852" lon="6.73036">
        <ele>8.4</ele>
        <time>2023-05-16T15:33:14Z</time>
      </trkpt>
      <trkpt lat="43.38852" lon="6.73036">
        <ele>8.4</ele>
        <time>2023-05-16T15:33:15Z</time>
      </trkpt>
      <trkpt lat="43.38852" lon="6.73037">
        <ele>8.4</ele>
        <time>2023-05-16T15:33:16Z</time>
      </trkpt>
      <trkpt lat="43.38851" lon="6.73036">
        <ele>8.5</ele>
        <time>2023-05-16T15:33:18Z</time>
      </trkpt>
      <trkpt lat="43.38851" lon="6.73036">
        <ele>8.5</ele>
        <time>2023-05-16T15:33:19Z</time>
      </trkpt>
      <trkpt lat="43.38851" lon="6.73037">
        <ele>8.5</ele>
        <time>2023-05-16T15:33:20Z</time>
      </trkpt>
      <trkpt lat="43.38851" lon="6.73037">
        <ele>8.5</ele>
        <time>2023-05-16T15:33:21Z</time>
      </trkpt>
      <trkpt lat="43.3885" lon="6.7304">
        <ele>8.5</ele>
        <time>2023-05-16T15:33:23Z</time>
      </trkpt>
      <trkpt lat="43.3885" lon="6.73041">
        <ele>8.6</ele>
        <time>2023-05-16T15:33:25Z</time>
      </trkpt>
      <trkpt lat="43.3885" lon="6.73043">
        <ele>8.6</ele>
        <time>2023-05-16T15:33:26Z</time>
      </trkpt>
      <trkpt lat="43.3885" lon="6.73044">
        <ele>8.6</ele>
        <time>2023-05-16T15:33:27Z</time>
      </trkpt>
      <trkpt lat="43.3885" lon="6.73045">
        <ele>8.6</ele>
        <time>2023-05-16T15:33:28Z</time>
      </trkpt>
      <trkpt lat="43.3885" lon="6.73047">
        <ele>8.7</ele>
        <time>2023-05-16T15:33:29Z</time>
      </trkpt>
      <trkpt lat="43.38849" lon="6.73049">
        <ele>8.7</ele>
        <time>2023-05-16T15:33:31Z</time>
      </trkpt>
      <trkpt lat="43.38848" lon="6.73049">
        <ele>8.7</ele>
        <time>2023-05-16T15:33:32Z</time>
      </trkpt>
      <trkpt lat="43.38848" lon="6.73049">
        <ele>8.7</ele>
        <time>2023-05-16T15:33:33Z</time>
      </trkpt>
      <trkpt lat="43.38847" lon="6.7305">
        <ele>8.7</ele>
        <time>2023-05-16T15:33:35Z</time>
      </trkpt>
      <trkpt lat="43.38847" lon="6.73049">
        <ele>8.8</ele>
        <time>2023-05-16T15:33:36Z</time>
      </trkpt>
      <trkpt lat="43.38847" lon="6.73049">
        <ele>8.8</ele>
        <time>2023-05-16T15:33:37Z</time>
      </trkpt>
      <trkpt lat="43.38847" lon="6.73049">
        <ele>8.8</ele>
        <time>2023-05-16T15:33:39Z</time>
      </trkpt>
      <trkpt lat="43.38847" lon="6.73049">
        <ele>8.8</ele>
        <time>2023-05-16T15:33:40Z</time>
      </trkpt>
      <trkpt lat="43.38847" lon="6.73049">
        <ele>8.8</ele>
        <time>2023-05-16T15:33:41Z</time>
      </trkpt>
      <trkpt lat="43.38847" lon="6.73049">
        <ele>8.8</ele>
        <time>2023-05-16T15:33:43Z</time>
      </trkpt>
      <trkpt lat="43.38847" lon="6.73049">
        <ele>8.8</ele>
        <time>2023-05-16T15:33:44Z</time>
      </trkpt>
      <trkpt lat="43.38847" lon="6.73049">
        <ele>8.8</ele>
        <time>2023-05-16T15:33:45Z</time>
      </trkpt>
      <trkpt lat="43.38847" lon="6.73049">
        <ele>8.8</ele>
        <time>2023-05-16T15:33:47Z</time>
      </trkpt>
      <trkpt lat="43.38847" lon="6.73049">
        <ele>8.8</ele>
        <time>2023-05-16T15:33:48Z</time>
      </trkpt>
      <trkpt lat="43.38847" lon="6.73049">
        <ele>8.8</ele>
        <time>2023-05-16T15:33:49Z</time>
      </trkpt>
      <trkpt lat="43.38847" lon="6.73049">
        <ele>8.8</ele>
        <time>2023-05-16T15:33:50Z</time>
      </trkpt>
      <trkpt lat="43.38848" lon="6.73049">
        <ele>8.8</ele>
        <time>2023-05-16T15:33:51Z</time>
      </trkpt>
      <trkpt lat="43.38848" lon="6.73049">
        <ele>8.8</ele>
        <time>2023-05-16T15:33:52Z</time>
      </trkpt>
      <trkpt lat="43.38848" lon="6.73049">
        <ele>8.8</ele>
        <time>2023-05-16T15:33:53Z</time>
      </trkpt>
      <trkpt lat="43.38848" lon="6.73049">
        <ele>8.8</ele>
        <time>2023-05-16T15:33:54Z</time>
      </trkpt>
      <trkpt lat="43.38848" lon="6.73049">
        <ele>8.8</ele>
        <time>2023-05-16T15:33:55Z</time>
      </trkpt>
      <trkpt lat="43.38847" lon="6.73049">
        <ele>8.8</ele>
        <time>2023-05-16T15:33:56Z</time>
      </trkpt>
      <trkpt lat="43.38847" lon="6.73048">
        <ele>8.8</ele>
        <time>2023-05-16T15:33:57Z</time>
      </trkpt>
      <trkpt lat="43.38848" lon="6.73048">
        <ele>8.8</ele>
        <time>2023-05-16T15:33:58Z</time>
      </trkpt>
      <trkpt lat="43.38848" lon="6.73047">
        <ele>8.8</ele>
        <time>2023-05-16T15:33:59Z</time>
      </trkpt>
      <trkpt lat="43.38848" lon="6.73046">
        <ele>8.8</ele>
        <time>2023-05-16T15:34:00Z</time>
      </trkpt>
      <trkpt lat="43.38848" lon="6.73045">
        <ele>8.8</ele>
        <time>2023-05-16T15:34:01Z</time>
      </trkpt>
      <trkpt lat="43.38848" lon="6.73043">
        <ele>8.8</ele>
        <time>2023-05-16T15:34:02Z</time>
      </trkpt>
      <trkpt lat="43.38846" lon="6.73043">
        <ele>8.8</ele>
        <time>2023-05-16T15:34:03Z</time>
      </trkpt>
      <trkpt lat="43.38847" lon="6.73041">
        <ele>8.8</ele>
        <time>2023-05-16T15:34:04Z</time>
      </trkpt>
      <trkpt lat="43.38848" lon="6.73039">
        <ele>8.9</ele>
        <time>2023-05-16T15:34:06Z</time>
      </trkpt>
      <trkpt lat="43.38849" lon="6.73038">
        <ele>8.9</ele>
        <time>2023-05-16T15:34:07Z</time>
      </trkpt>
      <trkpt lat="43.3885" lon="6.73037">
        <ele>8.9</ele>
        <time>2023-05-16T15:34:08Z</time>
      </trkpt>
      <trkpt lat="43.38851" lon="6.73034">
        <ele>8.9</ele>
        <time>2023-05-16T15:34:09Z</time>
      </trkpt>
      <trkpt lat="43.38851" lon="6.73032">
        <ele>8.9</ele>
        <time>2023-05-16T15:34:11Z</time>
      </trkpt>
      <trkpt lat="43.38852" lon="6.7303">
        <ele>8.9</ele>
        <time>2023-05-16T15:34:13Z</time>
      </trkpt>
      <trkpt lat="43.38854" lon="6.7303">
        <ele>8.9</ele>
        <time>2023-05-16T15:34:14Z</time>
      </trkpt>
      <trkpt lat="43.38855" lon="6.73031">
        <ele>8.9</ele>
        <time>2023-05-16T15:34:15Z</time>
      </trkpt>
      <trkpt lat="43.38855" lon="6.73031">
        <ele>8.9</ele>
        <time>2023-05-16T15:34:16Z</time>
      </trkpt>
      <trkpt lat="43.38855" lon="6.73032">
        <ele>8.9</ele>
        <time>2023-05-16T15:34:18Z</time>
      </trkpt>
      <trkpt lat="43.38855" lon="6.73033">
        <ele>8.9</ele>
        <time>2023-05-16T15:34:19Z</time>
      </trkpt>
      <trkpt lat="43.38856" lon="6.73033">
        <ele>8.9</ele>
        <time>2023-05-16T15:34:20Z</time>
      </trkpt>
      <trkpt lat="43.38857" lon="6.73033">
        <ele>8.9</ele>
        <time>2023-05-16T15:34:21Z</time>
      </trkpt>
      <trkpt lat="43.38858" lon="6.73034">
        <ele>8.9</ele>
        <time>2023-05-16T15:34:22Z</time>
      </trkpt>
      <trkpt lat="43.38858" lon="6.73036">
        <ele>8.9</ele>
        <time>2023-05-16T15:34:24Z</time>
      </trkpt>
      <trkpt lat="43.38859" lon="6.73037">
        <ele>8.9</ele>
        <time>2023-05-16T15:34:25Z</time>
      </trkpt>
      <trkpt lat="43.3886" lon="6.73037">
        <ele>8.9</ele>
        <time>2023-05-16T15:34:26Z</time>
      </trkpt>
      <trkpt lat="43.38861" lon="6.73038">
        <ele>8.9</ele>
        <time>2023-05-16T15:34:27Z</time>
      </trkpt>
      <trkpt lat="43.38862" lon="6.73039">
        <ele>8.9</ele>
        <time>2023-05-16T15:34:28Z</time>
      </trkpt>
      <trkpt lat="43.38863" lon="6.73041">
        <ele>8.9</ele>
        <time>2023-05-16T15:34:29Z</time>
      </trkpt>
      <trkpt lat="43.38864" lon="6.73042">
        <ele>8.9</ele>
        <time>2023-05-16T15:34:30Z</time>
      </trkpt>
      <trkpt lat="43.38864" lon="6.73043">
        <ele>8.9</ele>
        <time>2023-05-16T15:34:31Z</time>
      </trkpt>
      <trkpt lat="43.38865" lon="6.73047">
        <ele>8.9</ele>
        <time>2023-05-16T15:34:33Z</time>
      </trkpt>
      <trkpt lat="43.38866" lon="6.73048">
        <ele>8.9</ele>
        <time>2023-05-16T15:34:35Z</time>
      </trkpt>
      <trkpt lat="43.38866" lon="6.73049">
        <ele>8.9</ele>
        <time>2023-05-16T15:34:36Z</time>
      </trkpt>
      <trkpt lat="43.38867" lon="6.73049">
        <ele>8.9</ele>
        <time>2023-05-16T15:34:37Z</time>
      </trkpt>
      <trkpt lat="43.38868" lon="6.73049">
        <ele>8.9</ele>
        <time>2023-05-16T15:34:38Z</time>
      </trkpt>
      <trkpt lat="43.38869" lon="6.7305">
        <ele>8.9</ele>
        <time>2023-05-16T15:34:39Z</time>
      </trkpt>
      <trkpt lat="43.3887" lon="6.7305">
        <ele>8.9</ele>
        <time>2023-05-16T15:34:40Z</time>
      </trkpt>
      <trkpt lat="43.38872" lon="6.73049">
        <ele>8.9</ele>
        <time>2023-05-16T15:34:41Z</time>
      </trkpt>
      <trkpt lat="43.38873" lon="6.73049">
        <ele>8.9</ele>
        <time>2023-05-16T15:34:43Z</time>
      </trkpt>
      <trkpt lat="43.38874" lon="6.73048">
        <ele>8.9</ele>
        <time>2023-05-16T15:34:44Z</time>
      </trkpt>
      <trkpt lat="43.38875" lon="6.73048">
        <ele>8.9</ele>
        <time>2023-05-16T15:34:45Z</time>
      </trkpt>
      <trkpt lat="43.38876" lon="6.73049">
        <ele>8.9</ele>
        <time>2023-05-16T15:34:46Z</time>
      </trkpt>
      <trkpt lat="43.38878" lon="6.73049">
        <ele>8.9</ele>
        <time>2023-05-16T15:34:47Z</time>
      </trkpt>
      <trkpt lat="43.38879" lon="6.7305">
        <ele>8.9</ele>
        <time>2023-05-16T15:34:48Z</time>
      </trkpt>
      <trkpt lat="43.3888" lon="6.7305">
        <ele>8.9</ele>
        <time>2023-05-16T15:34:49Z</time>
      </trkpt>
      <trkpt lat="43.38881" lon="6.73051">
        <ele>8.9</ele>
        <time>2023-05-16T15:34:50Z</time>
      </trkpt>
      <trkpt lat="43.38883" lon="6.73051">
        <ele>8.9</ele>
        <time>2023-05-16T15:34:51Z</time>
      </trkpt>
      <trkpt lat="43.38884" lon="6.73052">
        <ele>8.9</ele>
        <time>2023-05-16T15:34:52Z</time>
      </trkpt>
      <trkpt lat="43.38886" lon="6.73053">
        <ele>8.9</ele>
        <time>2023-05-16T15:34:54Z</time>
      </trkpt>
      <trkpt lat="43.38887" lon="6.73054">
        <ele>8.9</ele>
        <time>2023-05-16T15:34:55Z</time>
      </trkpt>
      <trkpt lat="43.38887" lon="6.73054">
        <ele>8.9</ele>
        <time>2023-05-16T15:34:56Z</time>
      </trkpt>
      <trkpt lat="43.38888" lon="6.73055">
        <ele>8.9</ele>
        <time>2023-05-16T15:34:57Z</time>
      </trkpt>
      <trkpt lat="43.3889" lon="6.73056">
        <ele>8.9</ele>
        <time>2023-05-16T15:34:58Z</time>
      </trkpt>
      <trkpt lat="43.38891" lon="6.73057">
        <ele>8.9</ele>
        <time>2023-05-16T15:34:59Z</time>
      </trkpt>
      <trkpt lat="43.38892" lon="6.73058">
        <ele>8.9</ele>
        <time>2023-05-16T15:35:00Z</time>
      </trkpt>
      <trkpt lat="43.38893" lon="6.73059">
        <ele>8.9</ele>
        <time>2023-05-16T15:35:02Z</time>
      </trkpt>
      <trkpt lat="43.38894" lon="6.73059">
        <ele>8.8</ele>
        <time>2023-05-16T15:35:03Z</time>
      </trkpt>
      <trkpt lat="43.38896" lon="6.7306">
        <ele>8.8</ele>
        <time>2023-05-16T15:35:04Z</time>
      </trkpt>
      <trkpt lat="43.38898" lon="6.73062">
        <ele>8.8</ele>
        <time>2023-05-16T15:35:05Z</time>
      </trkpt>
      <trkpt lat="43.38898" lon="6.73062">
        <ele>8.8</ele>
        <time>2023-05-16T15:35:06Z</time>
      </trkpt>
      <trkpt lat="43.38899" lon="6.73063">
        <ele>8.8</ele>
        <time>2023-05-16T15:35:07Z</time>
      </trkpt>
      <trkpt lat="43.389" lon="6.73064">
        <ele>8.9</ele>
        <time>2023-05-16T15:35:08Z</time>
      </trkpt>
      <trkpt lat="43.38902" lon="6.73065">
        <ele>8.9</ele>
        <time>2023-05-16T15:35:09Z</time>
      </trkpt>
      <trkpt lat="43.38903" lon="6.73066">
        <ele>8.9</ele>
        <time>2023-05-16T15:35:11Z</time>
      </trkpt>
      <trkpt lat="43.38902" lon="6.73067">
        <ele>8.9</ele>
        <time>2023-05-16T15:35:12Z</time>
      </trkpt>
      <trkpt lat="43.38902" lon="6.73068">
        <ele>8.9</ele>
        <time>2023-05-16T15:35:13Z</time>
      </trkpt>
      <trkpt lat="43.38901" lon="6.73068">
        <ele>8.9</ele>
        <time>2023-05-16T15:35:14Z</time>
      </trkpt>
      <trkpt lat="43.38901" lon="6.73067">
        <ele>8.9</ele>
        <time>2023-05-16T15:35:16Z</time>
      </trkpt>
      <trkpt lat="43.38901" lon="6.73067">
        <ele>8.9</ele>
        <time>2023-05-16T15:35:17Z</time>
      </trkpt>
      <trkpt lat="43.38901" lon="6.73067">
        <ele>8.9</ele>
        <time>2023-05-16T15:35:18Z</time>
      </trkpt>
      <trkpt lat="43.38901" lon="6.73067">
        <ele>8.9</ele>
        <time>2023-05-16T15:35:20Z</time>
      </trkpt>
      <trkpt lat="43.38902" lon="6.73067">
        <ele>8.9</ele>
        <time>2023-05-16T15:35:21Z</time>
      </trkpt>
      <trkpt lat="43.38902" lon="6.73066">
        <ele>8.9</ele>
        <time>2023-05-16T15:35:22Z</time>
      </trkpt>
      <trkpt lat="43.38903" lon="6.73066">
        <ele>8.9</ele>
        <time>2023-05-16T15:35:24Z</time>
      </trkpt>
      <trkpt lat="43.38903" lon="6.73066">
        <ele>8.9</ele>
        <time>2023-05-16T15:35:25Z</time>
      </trkpt>
      <trkpt lat="43.38904" lon="6.73066">
        <ele>8.9</ele>
        <time>2023-05-16T15:35:26Z</time>
      </trkpt>
      <trkpt lat="43.38905" lon="6.73065">
        <ele>8.9</ele>
        <time>2023-05-16T15:35:27Z</time>
      </trkpt>
      <trkpt lat="43.38906" lon="6.73064">
        <ele>8.9</ele>
        <time>2023-05-16T15:35:28Z</time>
      </trkpt>
      <trkpt lat="43.38908" lon="6.73064">
        <ele>8.9</ele>
        <time>2023-05-16T15:35:29Z</time>
      </trkpt>
      <trkpt lat="43.38909" lon="6.73064">
        <ele>8.9</ele>
        <time>2023-05-16T15:35:31Z</time>
      </trkpt>
      <trkpt lat="43.38909" lon="6.73065">
        <ele>8.9</ele>
        <time>2023-05-16T15:35:32Z</time>
      </trkpt>
      <trkpt lat="43.3891" lon="6.73066">
        <ele>8.9</ele>
        <time>2023-05-16T15:35:33Z</time>
      </trkpt>
      <trkpt lat="43.3891" lon="6.73067">
        <ele>8.9</ele>
        <time>2023-05-16T15:35:34Z</time>
      </trkpt>
      <trkpt lat="43.3891" lon="6.73068">
        <ele>8.9</ele>
        <time>2023-05-16T15:35:35Z</time>
      </trkpt>
      <trkpt lat="43.3891" lon="6.73069">
        <ele>8.9</ele>
        <time>2023-05-16T15:35:36Z</time>
      </trkpt>
      <trkpt lat="43.3891" lon="6.7307">
        <ele>8.9</ele>
        <time>2023-05-16T15:35:38Z</time>
      </trkpt>
      <trkpt lat="43.3891" lon="6.7307">
        <ele>8.9</ele>
        <time>2023-05-16T15:35:39Z</time>
      </trkpt>
      <trkpt lat="43.38911" lon="6.73069">
        <ele>8.9</ele>
        <time>2023-05-16T15:35:41Z</time>
      </trkpt>
      <trkpt lat="43.38912" lon="6.73068">
        <ele>8.9</ele>
        <time>2023-05-16T15:35:42Z</time>
      </trkpt>
      <trkpt lat="43.38913" lon="6.73067">
        <ele>8.9</ele>
        <time>2023-05-16T15:35:43Z</time>
      </trkpt>
      <trkpt lat="43.38914" lon="6.73066">
        <ele>8.9</ele>
        <time>2023-05-16T15:35:44Z</time>
      </trkpt>
      <trkpt lat="43.38915" lon="6.73067">
        <ele>8.9</ele>
        <time>2023-05-16T15:35:45Z</time>
      </trkpt>
      <trkpt lat="43.38916" lon="6.73067">
        <ele>8.9</ele>
        <time>2023-05-16T15:35:47Z</time>
      </trkpt>
      <trkpt lat="43.38916" lon="6.73066">
        <ele>8.9</ele>
        <time>2023-05-16T15:35:48Z</time>
      </trkpt>
      <trkpt lat="43.38916" lon="6.73066">
        <ele>8.9</ele>
        <time>2023-05-16T15:35:49Z</time>
      </trkpt>
      <trkpt lat="43.38916" lon="6.73066">
        <ele>8.9</ele>
        <time>2023-05-16T15:35:51Z</time>
      </trkpt>
      <trkpt lat="43.38917" lon="6.73066">
        <ele>8.9</ele>
        <time>2023-05-16T15:35:52Z</time>
      </trkpt>
      <trkpt lat="43.38917" lon="6.73066">
        <ele>8.9</ele>
        <time>2023-05-16T15:35:53Z</time>
      </trkpt>
      <trkpt lat="43.38917" lon="6.73066">
        <ele>8.9</ele>
        <time>2023-05-16T15:35:55Z</time>
      </trkpt>
      <trkpt lat="43.38917" lon="6.73066">
        <ele>8.9</ele>
        <time>2023-05-16T15:35:56Z</time>
      </trkpt>
      <trkpt lat="43.38918" lon="6.73066">
        <ele>8.9</ele>
        <time>2023-05-16T15:35:57Z</time>
      </trkpt>
      <trkpt lat="43.38918" lon="6.73065">
        <ele>8.9</ele>
        <time>2023-05-16T15:35:58Z</time>
      </trkpt>
      <trkpt lat="43.38918" lon="6.73065">
        <ele>8.9</ele>
        <time>2023-05-16T15:35:59Z</time>
      </trkpt>
      <trkpt lat="43.38919" lon="6.73065">
        <ele>8.9</ele>
        <time>2023-05-16T15:36:00Z</time>
      </trkpt>
      <trkpt lat="43.38919" lon="6.73065">
        <ele>8.9</ele>
        <time>2023-05-16T15:36:01Z</time>
      </trkpt>
      <trkpt lat="43.38919" lon="6.73065">
        <ele>8.9</ele>
        <time>2023-05-16T15:36:02Z</time>
      </trkpt>
      <trkpt lat="43.38921" lon="6.73063">
        <ele>8.9</ele>
        <time>2023-05-16T15:36:04Z</time>
      </trkpt>
      <trkpt lat="43.38921" lon="6.73061">
        <ele>8.9</ele>
        <time>2023-05-16T15:36:05Z</time>
      </trkpt>
      <trkpt lat="43.38922" lon="6.73059">
        <ele>8.9</ele>
        <time>2023-05-16T15:36:06Z</time>
      </trkpt>
      <trkpt lat="43.38923" lon="6.73058">
        <ele>8.9</ele>
        <time>2023-05-16T15:36:07Z</time>
      </trkpt>
      <trkpt lat="43.38923" lon="6.73057">
        <ele>8.9</ele>
        <time>2023-05-16T15:36:08Z</time>
      </trkpt>
      <trkpt lat="43.38925" lon="6.73055">
        <ele>8.9</ele>
        <time>2023-05-16T15:36:09Z</time>
      </trkpt>
      <trkpt lat="43.38926" lon="6.73055">
        <ele>8.9</ele>
        <time>2023-05-16T15:36:10Z</time>
      </trkpt>
      <trkpt lat="43.38927" lon="6.73055">
        <ele>8.9</ele>
        <time>2023-05-16T15:36:11Z</time>
      </trkpt>
      <trkpt lat="43.38928" lon="6.73056">
        <ele>8.9</ele>
        <time>2023-05-16T15:36:12Z</time>
      </trkpt>
      <trkpt lat="43.38931" lon="6.73058">
        <ele>8.9</ele>
        <time>2023-05-16T15:36:14Z</time>
      </trkpt>
      <trkpt lat="43.38932" lon="6.7306">
        <ele>8.9</ele>
        <time>2023-05-16T15:36:15Z</time>
      </trkpt>
      <trkpt lat="43.38933" lon="6.7306">
        <ele>8.9</ele>
        <time>2023-05-16T15:36:16Z</time>
      </trkpt>
      <trkpt lat="43.38934" lon="6.73061">
        <ele>8.9</ele>
        <time>2023-05-16T15:36:17Z</time>
      </trkpt>
      <trkpt lat="43.38934" lon="6.73063">
        <ele>8.9</ele>
        <time>2023-05-16T15:36:18Z</time>
      </trkpt>
      <trkpt lat="43.38934" lon="6.73065">
        <ele>9</ele>
        <time>2023-05-16T15:36:19Z</time>
      </trkpt>
      <trkpt lat="43.38934" lon="6.73069">
        <ele>9</ele>
        <time>2023-05-16T15:36:21Z</time>
      </trkpt>
      <trkpt lat="43.38934" lon="6.7307">
        <ele>9</ele>
        <time>2023-05-16T15:36:22Z</time>
      </trkpt>
      <trkpt lat="43.38934" lon="6.73071">
        <ele>9</ele>
        <time>2023-05-16T15:36:23Z</time>
      </trkpt>
      <trkpt lat="43.38933" lon="6.73074">
        <ele>9.1</ele>
        <time>2023-05-16T15:36:24Z</time>
      </trkpt>
      <trkpt lat="43.38933" lon="6.73075">
        <ele>9.1</ele>
        <time>2023-05-16T15:36:25Z</time>
      </trkpt>
      <trkpt lat="43.38933" lon="6.73077">
        <ele>9.1</ele>
        <time>2023-05-16T15:36:26Z</time>
      </trkpt>
      <trkpt lat="43.38933" lon="6.73079">
        <ele>9.2</ele>
        <time>2023-05-16T15:36:27Z</time>
      </trkpt>
      <trkpt lat="43.38934" lon="6.7308">
        <ele>9.2</ele>
        <time>2023-05-16T15:36:28Z</time>
      </trkpt>
      <trkpt lat="43.38935" lon="6.73083">
        <ele>9.2</ele>
        <time>2023-05-16T15:36:29Z</time>
      </trkpt>
      <trkpt lat="43.38935" lon="6.73084">
        <ele>9.3</ele>
        <time>2023-05-16T15:36:31Z</time>
      </trkpt>
      <trkpt lat="43.38935" lon="6.73085">
        <ele>9.3</ele>
        <time>2023-05-16T15:36:32Z</time>
      </trkpt>
      <trkpt lat="43.38935" lon="6.73087">
        <ele>9.3</ele>
        <time>2023-05-16T15:36:33Z</time>
      </trkpt>
      <trkpt lat="43.38935" lon="6.73089">
        <ele>9.3</ele>
        <time>2023-05-16T15:36:34Z</time>
      </trkpt>
      <trkpt lat="43.38935" lon="6.73091">
        <ele>9.4</ele>
        <time>2023-05-16T15:36:35Z</time>
      </trkpt>
      <trkpt lat="43.38935" lon="6.73092">
        <ele>9.4</ele>
        <time>2023-05-16T15:36:36Z</time>
      </trkpt>
      <trkpt lat="43.38933" lon="6.73094">
        <ele>9.4</ele>
        <time>2023-05-16T15:36:38Z</time>
      </trkpt>
      <trkpt lat="43.38932" lon="6.73095">
        <ele>9.5</ele>
        <time>2023-05-16T15:36:40Z</time>
      </trkpt>
      <trkpt lat="43.38931" lon="6.73095">
        <ele>9.5</ele>
        <time>2023-05-16T15:36:41Z</time>
      </trkpt>
      <trkpt lat="43.3893" lon="6.73098">
        <ele>9.5</ele>
        <time>2023-05-16T15:36:42Z</time>
      </trkpt>
      <trkpt lat="43.3893" lon="6.73099">
        <ele>9.5</ele>
        <time>2023-05-16T15:36:43Z</time>
      </trkpt>
      <trkpt lat="43.3893" lon="6.731">
        <ele>9.5</ele>
        <time>2023-05-16T15:36:44Z</time>
      </trkpt>
      <trkpt lat="43.3893" lon="6.73102">
        <ele>9.5</ele>
        <time>2023-05-16T15:36:45Z</time>
      </trkpt>
      <trkpt lat="43.3893" lon="6.73104">
        <ele>9.5</ele>
        <time>2023-05-16T15:36:47Z</time>
      </trkpt>
      <trkpt lat="43.3893" lon="6.73105">
        <ele>9.6</ele>
        <time>2023-05-16T15:36:48Z</time>
      </trkpt>
      <trkpt lat="43.38931" lon="6.73105">
        <ele>9.6</ele>
        <time>2023-05-16T15:36:49Z</time>
      </trkpt>
      <trkpt lat="43.38931" lon="6.73107">
        <ele>9.6</ele>
        <time>2023-05-16T15:36:50Z</time>
      </trkpt>
      <trkpt lat="43.38932" lon="6.73108">
        <ele>9.6</ele>
        <time>2023-05-16T15:36:52Z</time>
      </trkpt>
      <trkpt lat="43.38933" lon="6.73109">
        <ele>9.6</ele>
        <time>2023-05-16T15:36:53Z</time>
      </trkpt>
      <trkpt lat="43.38934" lon="6.73111">
        <ele>9.6</ele>
        <time>2023-05-16T15:36:54Z</time>
      </trkpt>
      <trkpt lat="43.38934" lon="6.73111">
        <ele>9.6</ele>
        <time>2023-05-16T15:36:55Z</time>
      </trkpt>
      <trkpt lat="43.38935" lon="6.73112">
        <ele>9.6</ele>
        <time>2023-05-16T15:36:56Z</time>
      </trkpt>
      <trkpt lat="43.38936" lon="6.73113">
        <ele>9.6</ele>
        <time>2023-05-16T15:36:57Z</time>
      </trkpt>
      <trkpt lat="43.38936" lon="6.73114">
        <ele>9.6</ele>
        <time>2023-05-16T15:36:58Z</time>
      </trkpt>
      <trkpt lat="43.38937" lon="6.73115">
        <ele>9.6</ele>
        <time>2023-05-16T15:36:59Z</time>
      </trkpt>
      <trkpt lat="43.38937" lon="6.73116">
        <ele>9.6</ele>
        <time>2023-05-16T15:37:01Z</time>
      </trkpt>
      <trkpt lat="43.38937" lon="6.73117">
        <ele>9.6</ele>
        <time>2023-05-16T15:37:02Z</time>
      </trkpt>
      <trkpt lat="43.38938" lon="6.73118">
        <ele>9.5</ele>
        <time>2023-05-16T15:37:03Z</time>
      </trkpt>
      <trkpt lat="43.38939" lon="6.73118">
        <ele>9.5</ele>
        <time>2023-05-16T15:37:04Z</time>
      </trkpt>
      <trkpt lat="43.3894" lon="6.73118">
        <ele>9.5</ele>
        <time>2023-05-16T15:37:05Z</time>
      </trkpt>
      <trkpt lat="43.38941" lon="6.73118">
        <ele>9.5</ele>
        <time>2023-05-16T15:37:06Z</time>
      </trkpt>
      <trkpt lat="43.38942" lon="6.73117">
        <ele>9.5</ele>
        <time>2023-05-16T15:37:07Z</time>
      </trkpt>
      <trkpt lat="43.38943" lon="6.73116">
        <ele>9.4</ele>
        <time>2023-05-16T15:37:09Z</time>
      </trkpt>
      <trkpt lat="43.38944" lon="6.73116">
        <ele>9.4</ele>
        <time>2023-05-16T15:37:10Z</time>
      </trkpt>
      <trkpt lat="43.38945" lon="6.73116">
        <ele>9.4</ele>
        <time>2023-05-16T15:37:11Z</time>
      </trkpt>
      <trkpt lat="43.38947" lon="6.73116">
        <ele>9.4</ele>
        <time>2023-05-16T15:37:12Z</time>
      </trkpt>
      <trkpt lat="43.38948" lon="6.73117">
        <ele>9.3</ele>
        <time>2023-05-16T15:37:13Z</time>
      </trkpt>
      <trkpt lat="43.38949" lon="6.73118">
        <ele>9.3</ele>
        <time>2023-05-16T15:37:14Z</time>
      </trkpt>
      <trkpt lat="43.3895" lon="6.73118">
        <ele>9.3</ele>
        <time>2023-05-16T15:37:15Z</time>
      </trkpt>
      <trkpt lat="43.38951" lon="6.73119">
        <ele>9.2</ele>
        <time>2023-05-16T15:37:17Z</time>
      </trkpt>
      <trkpt lat="43.38952" lon="6.73119">
        <ele>9.2</ele>
        <time>2023-05-16T15:37:18Z</time>
      </trkpt>
      <trkpt lat="43.38952" lon="6.7312">
        <ele>9.2</ele>
        <time>2023-05-16T15:37:19Z</time>
      </trkpt>
      <trkpt lat="43.38953" lon="6.73121">
        <ele>9.1</ele>
        <time>2023-05-16T15:37:20Z</time>
      </trkpt>
      <trkpt lat="43.38954" lon="6.73121">
        <ele>9.1</ele>
        <time>2023-05-16T15:37:21Z</time>
      </trkpt>
      <trkpt lat="43.38955" lon="6.73122">
        <ele>9.1</ele>
        <time>2023-05-16T15:37:22Z</time>
      </trkpt>
      <trkpt lat="43.38956" lon="6.73123">
        <ele>9</ele>
        <time>2023-05-16T15:37:23Z</time>
      </trkpt>
      <trkpt lat="43.38957" lon="6.73125">
        <ele>9</ele>
        <time>2023-05-16T15:37:25Z</time>
      </trkpt>
      <trkpt lat="43.38957" lon="6.73126">
        <ele>9</ele>
        <time>2023-05-16T15:37:26Z</time>
      </trkpt>
      <trkpt lat="43.38958" lon="6.73128">
        <ele>8.9</ele>
        <time>2023-05-16T15:37:27Z</time>
      </trkpt>
      <trkpt lat="43.38958" lon="6.73129">
        <ele>8.9</ele>
        <time>2023-05-16T15:37:28Z</time>
      </trkpt>
      <trkpt lat="43.38959" lon="6.73132">
        <ele>8.9</ele>
        <time>2023-05-16T15:37:29Z</time>
      </trkpt>
      <trkpt lat="43.38959" lon="6.73133">
        <ele>8.9</ele>
        <time>2023-05-16T15:37:30Z</time>
      </trkpt>
      <trkpt lat="43.3896" lon="6.73135">
        <ele>8.9</ele>
        <time>2023-05-16T15:37:31Z</time>
      </trkpt>
      <trkpt lat="43.3896" lon="6.73137">
        <ele>8.9</ele>
        <time>2023-05-16T15:37:33Z</time>
      </trkpt>
      <trkpt lat="43.38961" lon="6.73138">
        <ele>8.9</ele>
        <time>2023-05-16T15:37:34Z</time>
      </trkpt>
      <trkpt lat="43.38962" lon="6.73141">
        <ele>8.8</ele>
        <time>2023-05-16T15:37:35Z</time>
      </trkpt>
      <trkpt lat="43.38963" lon="6.73142">
        <ele>8.8</ele>
        <time>2023-05-16T15:37:36Z</time>
      </trkpt>
      <trkpt lat="43.38963" lon="6.73144">
        <ele>8.8</ele>
        <time>2023-05-16T15:37:37Z</time>
      </trkpt>
      <trkpt lat="43.38965" lon="6.73147">
        <ele>8.8</ele>
        <time>2023-05-16T15:37:38Z</time>
      </trkpt>
      <trkpt lat="43.38966" lon="6.73149">
        <ele>8.8</ele>
        <time>2023-05-16T15:37:39Z</time>
      </trkpt>
      <trkpt lat="43.38966" lon="6.7315">
        <ele>8.8</ele>
        <time>2023-05-16T15:37:41Z</time>
      </trkpt>
      <trkpt lat="43.38967" lon="6.73151">
        <ele>8.8</ele>
        <time>2023-05-16T15:37:42Z</time>
      </trkpt>
      <trkpt lat="43.38968" lon="6.73153">
        <ele>8.8</ele>
        <time>2023-05-16T15:37:43Z</time>
      </trkpt>
      <trkpt lat="43.38969" lon="6.73156">
        <ele>8.8</ele>
        <time>2023-05-16T15:37:44Z</time>
      </trkpt>
      <trkpt lat="43.38969" lon="6.73157">
        <ele>8.8</ele>
        <time>2023-05-16T15:37:45Z</time>
      </trkpt>
      <trkpt lat="43.38969" lon="6.73159">
        <ele>8.8</ele>
        <time>2023-05-16T15:37:46Z</time>
      </trkpt>
      <trkpt lat="43.3897" lon="6.7316">
        <ele>8.9</ele>
        <time>2023-05-16T15:37:47Z</time>
      </trkpt>
      <trkpt lat="43.3897" lon="6.73161">
        <ele>8.9</ele>
        <time>2023-05-16T15:37:48Z</time>
      </trkpt>
      <trkpt lat="43.38972" lon="6.73163">
        <ele>8.9</ele>
        <time>2023-05-16T15:37:49Z</time>
      </trkpt>
      <trkpt lat="43.38973" lon="6.73163">
        <ele>8.9</ele>
        <time>2023-05-16T15:37:51Z</time>
      </trkpt>
      <trkpt lat="43.38974" lon="6.73164">
        <ele>8.9</ele>
        <time>2023-05-16T15:37:52Z</time>
      </trkpt>
      <trkpt lat="43.38974" lon="6.73166">
        <ele>8.9</ele>
        <time>2023-05-16T15:37:53Z</time>
      </trkpt>
      <trkpt lat="43.38974" lon="6.73168">
        <ele>9</ele>
        <time>2023-05-16T15:37:54Z</time>
      </trkpt>
      <trkpt lat="43.38973" lon="6.7317">
        <ele>9</ele>
        <time>2023-05-16T15:37:55Z</time>
      </trkpt>
      <trkpt lat="43.38973" lon="6.73171">
        <ele>9</ele>
        <time>2023-05-16T15:37:56Z</time>
      </trkpt>
      <trkpt lat="43.38971" lon="6.73174">
        <ele>9</ele>
        <time>2023-05-16T15:37:57Z</time>
      </trkpt>
      <trkpt lat="43.38971" lon="6.73175">
        <ele>9.1</ele>
        <time>2023-05-16T15:37:58Z</time>
      </trkpt>
      <trkpt lat="43.38971" lon="6.73177">
        <ele>9.1</ele>
        <time>2023-05-16T15:37:59Z</time>
      </trkpt>
      <trkpt lat="43.38971" lon="6.73178">
        <ele>9.1</ele>
        <time>2023-05-16T15:38:00Z</time>
      </trkpt>
      <trkpt lat="43.38971" lon="6.7318">
        <ele>9.1</ele>
        <time>2023-05-16T15:38:02Z</time>
      </trkpt>
      <trkpt lat="43.38972" lon="6.73181">
        <ele>9.2</ele>
        <time>2023-05-16T15:38:03Z</time>
      </trkpt>
      <trkpt lat="43.38974" lon="6.73182">
        <ele>9.2</ele>
        <time>2023-05-16T15:38:04Z</time>
      </trkpt>
      <trkpt lat="43.38975" lon="6.73182">
        <ele>9.2</ele>
        <time>2023-05-16T15:38:05Z</time>
      </trkpt>
      <trkpt lat="43.38976" lon="6.73182">
        <ele>9.3</ele>
        <time>2023-05-16T15:38:06Z</time>
      </trkpt>
      <trkpt lat="43.38977" lon="6.73182">
        <ele>9.3</ele>
        <time>2023-05-16T15:38:07Z</time>
      </trkpt>
      <trkpt lat="43.38979" lon="6.73181">
        <ele>9.3</ele>
        <time>2023-05-16T15:38:08Z</time>
      </trkpt>
      <trkpt lat="43.3898" lon="6.73179">
        <ele>9.3</ele>
        <time>2023-05-16T15:38:10Z</time>
      </trkpt>
      <trkpt lat="43.3898" lon="6.73177">
        <ele>9.4</ele>
        <time>2023-05-16T15:38:11Z</time>
      </trkpt>
      <trkpt lat="43.38982" lon="6.73174">
        <ele>9.4</ele>
        <time>2023-05-16T15:38:12Z</time>
      </trkpt>
      <trkpt lat="43.38982" lon="6.73173">
        <ele>9.4</ele>
        <time>2023-05-16T15:38:13Z</time>
      </trkpt>
      <trkpt lat="43.38983" lon="6.73172">
        <ele>9.4</ele>
        <time>2023-05-16T15:38:14Z</time>
      </trkpt>
      <trkpt lat="43.38984" lon="6.73171">
        <ele>9.4</ele>
        <time>2023-05-16T15:38:15Z</time>
      </trkpt>
      <trkpt lat="43.38984" lon="6.73169">
        <ele>9.4</ele>
        <time>2023-05-16T15:38:16Z</time>
      </trkpt>
      <trkpt lat="43.38985" lon="6.73168">
        <ele>9.4</ele>
        <time>2023-05-16T15:38:17Z</time>
      </trkpt>
      <trkpt lat="43.38987" lon="6.73167">
        <ele>9.4</ele>
        <time>2023-05-16T15:38:18Z</time>
      </trkpt>
      <trkpt lat="43.38988" lon="6.73168">
        <ele>9.4</ele>
        <time>2023-05-16T15:38:20Z</time>
      </trkpt>
      <trkpt lat="43.38989" lon="6.73169">
        <ele>9.4</ele>
        <time>2023-05-16T15:38:21Z</time>
      </trkpt>
      <trkpt lat="43.38989" lon="6.73169">
        <ele>9.4</ele>
        <time>2023-05-16T15:38:22Z</time>
      </trkpt>
      <trkpt lat="43.3899" lon="6.7317">
        <ele>9.4</ele>
        <time>2023-05-16T15:38:23Z</time>
      </trkpt>
      <trkpt lat="43.38992" lon="6.73174">
        <ele>9.4</ele>
        <time>2023-05-16T15:38:24Z</time>
      </trkpt>
      <trkpt lat="43.38992" lon="6.73175">
        <ele>9.4</ele>
        <time>2023-05-16T15:38:26Z</time>
      </trkpt>
      <trkpt lat="43.38992" lon="6.73176">
        <ele>9.4</ele>
        <time>2023-05-16T15:38:27Z</time>
      </trkpt>
      <trkpt lat="43.38992" lon="6.73178">
        <ele>9.4</ele>
        <time>2023-05-16T15:38:28Z</time>
      </trkpt>
      <trkpt lat="43.38993" lon="6.73179">
        <ele>9.4</ele>
        <time>2023-05-16T15:38:29Z</time>
      </trkpt>
      <trkpt lat="43.38994" lon="6.73181">
        <ele>9.4</ele>
        <time>2023-05-16T15:38:30Z</time>
      </trkpt>
      <trkpt lat="43.38995" lon="6.73182">
        <ele>9.4</ele>
        <time>2023-05-16T15:38:31Z</time>
      </trkpt>
      <trkpt lat="43.38996" lon="6.73182">
        <ele>9.4</ele>
        <time>2023-05-16T15:38:32Z</time>
      </trkpt>
      <trkpt lat="43.38997" lon="6.73183">
        <ele>9.4</ele>
        <time>2023-05-16T15:38:33Z</time>
      </trkpt>
      <trkpt lat="43.38998" lon="6.73185">
        <ele>9.4</ele>
        <time>2023-05-16T15:38:34Z</time>
      </trkpt>
      <trkpt lat="43.38998" lon="6.73186">
        <ele>9.4</ele>
        <time>2023-05-16T15:38:36Z</time>
      </trkpt>
      <trkpt lat="43.38999" lon="6.73187">
        <ele>9.4</ele>
        <time>2023-05-16T15:38:37Z</time>
      </trkpt>
      <trkpt lat="43.38999" lon="6.73187">
        <ele>9.4</ele>
        <time>2023-05-16T15:38:38Z</time>
      </trkpt>
      <trkpt lat="43.39" lon="6.73188">
        <ele>9.4</ele>
        <time>2023-05-16T15:38:39Z</time>
      </trkpt>
      <trkpt lat="43.39001" lon="6.7319">
        <ele>9.4</ele>
        <time>2023-05-16T15:38:41Z</time>
      </trkpt>
      <trkpt lat="43.39001" lon="6.7319">
        <ele>9.4</ele>
        <time>2023-05-16T15:38:42Z</time>
      </trkpt>
      <trkpt lat="43.39002" lon="6.73191">
        <ele>9.5</ele>
        <time>2023-05-16T15:38:44Z</time>
      </trkpt>
      <trkpt lat="43.39002" lon="6.73192">
        <ele>9.5</ele>
        <time>2023-05-16T15:38:45Z</time>
      </trkpt>
      <trkpt lat="43.39002" lon="6.73192">
        <ele>9.5</ele>
        <time>2023-05-16T15:38:46Z</time>
      </trkpt>
      <trkpt lat="43.39003" lon="6.73193">
        <ele>9.5</ele>
        <time>2023-05-16T15:38:47Z</time>
      </trkpt>
      <trkpt lat="43.39004" lon="6.73195">
        <ele>9.5</ele>
        <time>2023-05-16T15:38:48Z</time>
      </trkpt>
      <trkpt lat="43.39005" lon="6.73197">
        <ele>9.5</ele>
        <time>2023-05-16T15:38:49Z</time>
      </trkpt>
      <trkpt lat="43.39006" lon="6.73198">
        <ele>9.5</ele>
        <time>2023-05-16T15:38:50Z</time>
      </trkpt>
      <trkpt lat="43.39007" lon="6.732">
        <ele>9.5</ele>
        <time>2023-05-16T15:38:51Z</time>
      </trkpt>
      <trkpt lat="43.39007" lon="6.73202">
        <ele>9.5</ele>
        <time>2023-05-16T15:38:52Z</time>
      </trkpt>
      <trkpt lat="43.39009" lon="6.73203">
        <ele>9.6</ele>
        <time>2023-05-16T15:38:54Z</time>
      </trkpt>
      <trkpt lat="43.39009" lon="6.73205">
        <ele>9.6</ele>
        <time>2023-05-16T15:38:55Z</time>
      </trkpt>
      <trkpt lat="43.3901" lon="6.73205">
        <ele>9.6</ele>
        <time>2023-05-16T15:38:56Z</time>
      </trkpt>
      <trkpt lat="43.39011" lon="6.73206">
        <ele>9.6</ele>
        <time>2023-05-16T15:38:57Z</time>
      </trkpt>
      <trkpt lat="43.39012" lon="6.73206">
        <ele>9.6</ele>
        <time>2023-05-16T15:38:58Z</time>
      </trkpt>
      <trkpt lat="43.39014" lon="6.73207">
        <ele>9.6</ele>
        <time>2023-05-16T15:38:59Z</time>
      </trkpt>
      <trkpt lat="43.39015" lon="6.73207">
        <ele>9.6</ele>
        <time>2023-05-16T15:39:00Z</time>
      </trkpt>
      <trkpt lat="43.39017" lon="6.73207">
        <ele>9.7</ele>
        <time>2023-05-16T15:39:01Z</time>
      </trkpt>
      <trkpt lat="43.39018" lon="6.73207">
        <ele>9.7</ele>
        <time>2023-05-16T15:39:03Z</time>
      </trkpt>
      <trkpt lat="43.39021" lon="6.73206">
        <ele>9.7</ele>
        <time>2023-05-16T15:39:04Z</time>
      </trkpt>
      <trkpt lat="43.39021" lon="6.73206">
        <ele>9.7</ele>
        <time>2023-05-16T15:39:05Z</time>
      </trkpt>
      <trkpt lat="43.39022" lon="6.73205">
        <ele>9.7</ele>
        <time>2023-05-16T15:39:06Z</time>
      </trkpt>
      <trkpt lat="43.39023" lon="6.73205">
        <ele>9.8</ele>
        <time>2023-05-16T15:39:07Z</time>
      </trkpt>
      <trkpt lat="43.39024" lon="6.73204">
        <ele>9.8</ele>
        <time>2023-05-16T15:39:08Z</time>
      </trkpt>
      <trkpt lat="43.39025" lon="6.73203">
        <ele>9.8</ele>
        <time>2023-05-16T15:39:10Z</time>
      </trkpt>
      <trkpt lat="43.39026" lon="6.73203">
        <ele>9.8</ele>
        <time>2023-05-16T15:39:11Z</time>
      </trkpt>
      <trkpt lat="43.39027" lon="6.73203">
        <ele>9.8</ele>
        <time>2023-05-16T15:39:12Z</time>
      </trkpt>
      <trkpt lat="43.39029" lon="6.73204">
        <ele>9.8</ele>
        <time>2023-05-16T15:39:13Z</time>
      </trkpt>
      <trkpt lat="43.3903" lon="6.73204">
        <ele>9.9</ele>
        <time>2023-05-16T15:39:14Z</time>
      </trkpt>
      <trkpt lat="43.39032" lon="6.73204">
        <ele>9.9</ele>
        <time>2023-05-16T15:39:16Z</time>
      </trkpt>
      <trkpt lat="43.39033" lon="6.73205">
        <ele>9.9</ele>
        <time>2023-05-16T15:39:17Z</time>
      </trkpt>
      <trkpt lat="43.39034" lon="6.73205">
        <ele>9.9</ele>
        <time>2023-05-16T15:39:18Z</time>
      </trkpt>
      <trkpt lat="43.39034" lon="6.73206">
        <ele>9.9</ele>
        <time>2023-05-16T15:39:19Z</time>
      </trkpt>
      <trkpt lat="43.39036" lon="6.73204">
        <ele>10</ele>
        <time>2023-05-16T15:39:21Z</time>
      </trkpt>
      <trkpt lat="43.39036" lon="6.73203">
        <ele>10</ele>
        <time>2023-05-16T15:39:22Z</time>
      </trkpt>
      <trkpt lat="43.39037" lon="6.73202">
        <ele>10</ele>
        <time>2023-05-16T15:39:23Z</time>
      </trkpt>
      <trkpt lat="43.39038" lon="6.73201">
        <ele>10.1</ele>
        <time>2023-05-16T15:39:24Z</time>
      </trkpt>
      <trkpt lat="43.39039" lon="6.732">
        <ele>10.1</ele>
        <time>2023-05-16T15:39:25Z</time>
      </trkpt>
      <trkpt lat="43.3904" lon="6.73199">
        <ele>10.1</ele>
        <time>2023-05-16T15:39:26Z</time>
      </trkpt>
      <trkpt lat="43.39041" lon="6.73198">
        <ele>10.2</ele>
        <time>2023-05-16T15:39:27Z</time>
      </trkpt>
      <trkpt lat="43.39042" lon="6.73197">
        <ele>10.2</ele>
        <time>2023-05-16T15:39:28Z</time>
      </trkpt>
      <trkpt lat="43.39042" lon="6.73195">
        <ele>10.2</ele>
        <time>2023-05-16T15:39:30Z</time>
      </trkpt>
      <trkpt lat="43.39043" lon="6.73193">
        <ele>10.3</ele>
        <time>2023-05-16T15:39:31Z</time>
      </trkpt>
      <trkpt lat="43.39043" lon="6.7319">
        <ele>10.3</ele>
        <time>2023-05-16T15:39:32Z</time>
      </trkpt>
      <trkpt lat="43.39043" lon="6.73189">
        <ele>10.3</ele>
        <time>2023-05-16T15:39:33Z</time>
      </trkpt>
      <trkpt lat="43.39044" lon="6.73187">
        <ele>10.4</ele>
        <time>2023-05-16T15:39:34Z</time>
      </trkpt>
      <trkpt lat="43.39044" lon="6.73186">
        <ele>10.4</ele>
        <time>2023-05-16T15:39:35Z</time>
      </trkpt>
      <trkpt lat="43.39045" lon="6.73185">
        <ele>10.4</ele>
        <time>2023-05-16T15:39:36Z</time>
      </trkpt>
      <trkpt lat="43.39047" lon="6.73185">
        <ele>10.4</ele>
        <time>2023-05-16T15:39:38Z</time>
      </trkpt>
      <trkpt lat="43.39048" lon="6.73186">
        <ele>10.4</ele>
        <time>2023-05-16T15:39:40Z</time>
      </trkpt>
      <trkpt lat="43.39047" lon="6.73187">
        <ele>10.4</ele>
        <time>2023-05-16T15:39:41Z</time>
      </trkpt>
      <trkpt lat="43.39046" lon="6.73187">
        <ele>10.4</ele>
        <time>2023-05-16T15:39:43Z</time>
      </trkpt>
      <trkpt lat="43.39046" lon="6.73188">
        <ele>10.5</ele>
        <time>2023-05-16T15:39:44Z</time>
      </trkpt>
      <trkpt lat="43.39046" lon="6.73187">
        <ele>10.5</ele>
        <time>2023-05-16T15:39:45Z</time>
      </trkpt>
      <trkpt lat="43.39046" lon="6.73187">
        <ele>10.5</ele>
        <time>2023-05-16T15:39:46Z</time>
      </trkpt>
      <trkpt lat="43.39046" lon="6.73186">
        <ele>10.5</ele>
        <time>2023-05-16T15:39:48Z</time>
      </trkpt>
      <trkpt lat="43.39047" lon="6.73185">
        <ele>10.5</ele>
        <time>2023-05-16T15:39:49Z</time>
      </trkpt>
      <trkpt lat="43.39047" lon="6.73185">
        <ele>10.5</ele>
        <time>2023-05-16T15:39:50Z</time>
      </trkpt>
      <trkpt lat="43.39048" lon="6.73184">
        <ele>10.5</ele>
        <time>2023-05-16T15:39:51Z</time>
      </trkpt>
      <trkpt lat="43.39048" lon="6.73183">
        <ele>10.5</ele>
        <time>2023-05-16T15:39:52Z</time>
      </trkpt>
      <trkpt lat="43.39048" lon="6.73182">
        <ele>10.5</ele>
        <time>2023-05-16T15:39:53Z</time>
      </trkpt>
      <trkpt lat="43.39049" lon="6.73182">
        <ele>10.5</ele>
        <time>2023-05-16T15:39:54Z</time>
      </trkpt>
      <trkpt lat="43.3905" lon="6.7318">
        <ele>10.4</ele>
        <time>2023-05-16T15:39:55Z</time>
      </trkpt>
      <trkpt lat="43.39051" lon="6.7318">
        <ele>10.4</ele>
        <time>2023-05-16T15:39:57Z</time>
      </trkpt>
      <trkpt lat="43.39052" lon="6.7318">
        <ele>10.4</ele>
        <time>2023-05-16T15:39:58Z</time>
      </trkpt>
      <trkpt lat="43.39053" lon="6.73181">
        <ele>10.4</ele>
        <time>2023-05-16T15:39:59Z</time>
      </trkpt>
      <trkpt lat="43.39054" lon="6.73182">
        <ele>10.4</ele>
        <time>2023-05-16T15:40:00Z</time>
      </trkpt>
      <trkpt lat="43.39055" lon="6.73182">
        <ele>10.4</ele>
        <time>2023-05-16T15:40:01Z</time>
      </trkpt>
      <trkpt lat="43.39056" lon="6.73182">
        <ele>10.4</ele>
        <time>2023-05-16T15:40:02Z</time>
      </trkpt>
      <trkpt lat="43.39057" lon="6.73183">
        <ele>10.4</ele>
        <time>2023-05-16T15:40:03Z</time>
      </trkpt>
      <trkpt lat="43.39058" lon="6.73183">
        <ele>10.4</ele>
        <time>2023-05-16T15:40:04Z</time>
      </trkpt>
      <trkpt lat="43.39059" lon="6.73183">
        <ele>10.3</ele>
        <time>2023-05-16T15:40:05Z</time>
      </trkpt>
      <trkpt lat="43.39059" lon="6.73184">
        <ele>10.3</ele>
        <time>2023-05-16T15:40:07Z</time>
      </trkpt>
      <trkpt lat="43.3906" lon="6.73184">
        <ele>10.3</ele>
        <time>2023-05-16T15:40:08Z</time>
      </trkpt>
      <trkpt lat="43.3906" lon="6.73185">
        <ele>10.3</ele>
        <time>2023-05-16T15:40:09Z</time>
      </trkpt>
      <trkpt lat="43.39061" lon="6.73186">
        <ele>10.3</ele>
        <time>2023-05-16T15:40:10Z</time>
      </trkpt>
      <trkpt lat="43.39062" lon="6.73187">
        <ele>10.3</ele>
        <time>2023-05-16T15:40:11Z</time>
      </trkpt>
      <trkpt lat="43.39063" lon="6.73187">
        <ele>10.3</ele>
        <time>2023-05-16T15:40:12Z</time>
      </trkpt>
      <trkpt lat="43.39064" lon="6.73188">
        <ele>10.3</ele>
        <time>2023-05-16T15:40:13Z</time>
      </trkpt>
      <trkpt lat="43.39065" lon="6.73188">
        <ele>10.2</ele>
        <time>2023-05-16T15:40:14Z</time>
      </trkpt>
      <trkpt lat="43.39067" lon="6.7319">
        <ele>10.2</ele>
        <time>2023-05-16T15:40:16Z</time>
      </trkpt>
      <trkpt lat="43.39067" lon="6.7319">
        <ele>10.2</ele>
        <time>2023-05-16T15:40:17Z</time>
      </trkpt>
      <trkpt lat="43.39068" lon="6.73191">
        <ele>10.2</ele>
        <time>2023-05-16T15:40:18Z</time>
      </trkpt>
      <trkpt lat="43.39069" lon="6.73191">
        <ele>10.1</ele>
        <time>2023-05-16T15:40:19Z</time>
      </trkpt>
      <trkpt lat="43.39071" lon="6.73192">
        <ele>10.1</ele>
        <time>2023-05-16T15:40:20Z</time>
      </trkpt>
      <trkpt lat="43.39073" lon="6.73192">
        <ele>10.1</ele>
        <time>2023-05-16T15:40:21Z</time>
      </trkpt>
      <trkpt lat="43.39074" lon="6.73192">
        <ele>10</ele>
        <time>2023-05-16T15:40:22Z</time>
      </trkpt>
      <trkpt lat="43.39074" lon="6.73192">
        <ele>10</ele>
        <time>2023-05-16T15:40:23Z</time>
      </trkpt>
      <trkpt lat="43.39075" lon="6.73192">
        <ele>10</ele>
        <time>2023-05-16T15:40:24Z</time>
      </trkpt>
      <trkpt lat="43.39077" lon="6.73192">
        <ele>9.9</ele>
        <time>2023-05-16T15:40:25Z</time>
      </trkpt>
      <trkpt lat="43.39078" lon="6.73192">
        <ele>9.9</ele>
        <time>2023-05-16T15:40:27Z</time>
      </trkpt>
      <trkpt lat="43.3908" lon="6.73192">
        <ele>9.9</ele>
        <time>2023-05-16T15:40:28Z</time>
      </trkpt>
      <trkpt lat="43.39081" lon="6.73192">
        <ele>9.8</ele>
        <time>2023-05-16T15:40:29Z</time>
      </trkpt>
      <trkpt lat="43.39081" lon="6.73192">
        <ele>9.8</ele>
        <time>2023-05-16T15:40:30Z</time>
      </trkpt>
      <trkpt lat="43.39083" lon="6.73191">
        <ele>9.8</ele>
        <time>2023-05-16T15:40:31Z</time>
      </trkpt>
      <trkpt lat="43.39084" lon="6.73191">
        <ele>9.7</ele>
        <time>2023-05-16T15:40:32Z</time>
      </trkpt>
      <trkpt lat="43.39085" lon="6.73192">
        <ele>9.7</ele>
        <time>2023-05-16T15:40:34Z</time>
      </trkpt>
      <trkpt lat="43.39086" lon="6.73192">
        <ele>9.7</ele>
        <time>2023-05-16T15:40:35Z</time>
      </trkpt>
      <trkpt lat="43.39087" lon="6.73193">
        <ele>9.6</ele>
        <time>2023-05-16T15:40:36Z</time>
      </trkpt>
      <trkpt lat="43.39088" lon="6.73193">
        <ele>9.6</ele>
        <time>2023-05-16T15:40:37Z</time>
      </trkpt>
      <trkpt lat="43.39089" lon="6.73194">
        <ele>9.6</ele>
        <time>2023-05-16T15:40:39Z</time>
      </trkpt>
      <trkpt lat="43.3909" lon="6.73195">
        <ele>9.5</ele>
        <time>2023-05-16T15:40:40Z</time>
      </trkpt>
      <trkpt lat="43.39091" lon="6.73195">
        <ele>9.5</ele>
        <time>2023-05-16T15:40:41Z</time>
      </trkpt>
      <trkpt lat="43.39092" lon="6.73194">
        <ele>9.4</ele>
        <time>2023-05-16T15:40:42Z</time>
      </trkpt>
      <trkpt lat="43.39093" lon="6.73194">
        <ele>9.4</ele>
        <time>2023-05-16T15:40:43Z</time>
      </trkpt>
      <trkpt lat="43.39096" lon="6.73192">
        <ele>9.3</ele>
        <time>2023-05-16T15:40:45Z</time>
      </trkpt>
      <trkpt lat="43.39097" lon="6.73191">
        <ele>9.3</ele>
        <time>2023-05-16T15:40:47Z</time>
      </trkpt>
      <trkpt lat="43.39097" lon="6.7319">
        <ele>9.2</ele>
        <time>2023-05-16T15:40:48Z</time>
      </trkpt>
      <trkpt lat="43.39098" lon="6.73188">
        <ele>9.2</ele>
        <time>2023-05-16T15:40:49Z</time>
      </trkpt>
      <trkpt lat="43.39099" lon="6.73185">
        <ele>9.1</ele>
        <time>2023-05-16T15:40:50Z</time>
      </trkpt>
      <trkpt lat="43.391" lon="6.73184">
        <ele>9.1</ele>
        <time>2023-05-16T15:40:51Z</time>
      </trkpt>
      <trkpt lat="43.39101" lon="6.73182">
        <ele>9.1</ele>
        <time>2023-05-16T15:40:53Z</time>
      </trkpt>
      <trkpt lat="43.39102" lon="6.73181">
        <ele>9.1</ele>
        <time>2023-05-16T15:40:54Z</time>
      </trkpt>
      <trkpt lat="43.39103" lon="6.73179">
        <ele>9</ele>
        <time>2023-05-16T15:40:55Z</time>
      </trkpt>
      <trkpt lat="43.39104" lon="6.73179">
        <ele>9</ele>
        <time>2023-05-16T15:40:56Z</time>
      </trkpt>
      <trkpt lat="43.39105" lon="6.73178">
        <ele>9</ele>
        <time>2023-05-16T15:40:57Z</time>
      </trkpt>
      <trkpt lat="43.39106" lon="6.73177">
        <ele>9</ele>
        <time>2023-05-16T15:40:58Z</time>
      </trkpt>
      <trkpt lat="43.39107" lon="6.73175">
        <ele>9</ele>
        <time>2023-05-16T15:40:59Z</time>
      </trkpt>
      <trkpt lat="43.39108" lon="6.73173">
        <ele>9</ele>
        <time>2023-05-16T15:41:00Z</time>
      </trkpt>
      <trkpt lat="43.39109" lon="6.73172">
        <ele>9</ele>
        <time>2023-05-16T15:41:01Z</time>
      </trkpt>
      <trkpt lat="43.39111" lon="6.7317">
        <ele>9</ele>
        <time>2023-05-16T15:41:03Z</time>
      </trkpt>
      <trkpt lat="43.39111" lon="6.7317">
        <ele>9</ele>
        <time>2023-05-16T15:41:04Z</time>
      </trkpt>
      <trkpt lat="43.39112" lon="6.73168">
        <ele>9</ele>
        <time>2023-05-16T15:41:05Z</time>
      </trkpt>
      <trkpt lat="43.39113" lon="6.73167">
        <ele>9</ele>
        <time>2023-05-16T15:41:06Z</time>
      </trkpt>
      <trkpt lat="43.39114" lon="6.73165">
        <ele>9</ele>
        <time>2023-05-16T15:41:07Z</time>
      </trkpt>
      <trkpt lat="43.39115" lon="6.73164">
        <ele>9</ele>
        <time>2023-05-16T15:41:08Z</time>
      </trkpt>
      <trkpt lat="43.39116" lon="6.73163">
        <ele>9</ele>
        <time>2023-05-16T15:41:09Z</time>
      </trkpt>
      <trkpt lat="43.39117" lon="6.73161">
        <ele>9</ele>
        <time>2023-05-16T15:41:10Z</time>
      </trkpt>
      <trkpt lat="43.39118" lon="6.7316">
        <ele>9</ele>
        <time>2023-05-16T15:41:11Z</time>
      </trkpt>
      <trkpt lat="43.39119" lon="6.73157">
        <ele>9</ele>
        <time>2023-05-16T15:41:12Z</time>
      </trkpt>
      <trkpt lat="43.39119" lon="6.73156">
        <ele>9</ele>
        <time>2023-05-16T15:41:14Z</time>
      </trkpt>
      <trkpt lat="43.3912" lon="6.73155">
        <ele>9</ele>
        <time>2023-05-16T15:41:15Z</time>
      </trkpt>
      <trkpt lat="43.3912" lon="6.73153">
        <ele>9</ele>
        <time>2023-05-16T15:41:16Z</time>
      </trkpt>
      <trkpt lat="43.3912" lon="6.73151">
        <ele>9</ele>
        <time>2023-05-16T15:41:17Z</time>
      </trkpt>
      <trkpt lat="43.39119" lon="6.73149">
        <ele>9.1</ele>
        <time>2023-05-16T15:41:18Z</time>
      </trkpt>
      <trkpt lat="43.39119" lon="6.73148">
        <ele>9.1</ele>
        <time>2023-05-16T15:41:19Z</time>
      </trkpt>
      <trkpt lat="43.39118" lon="6.73144">
        <ele>9.1</ele>
        <time>2023-05-16T15:41:21Z</time>
      </trkpt>
      <trkpt lat="43.39117" lon="6.73143">
        <ele>9.1</ele>
        <time>2023-05-16T15:41:22Z</time>
      </trkpt>
      <trkpt lat="43.39117" lon="6.7314">
        <ele>9.1</ele>
        <time>2023-05-16T15:41:23Z</time>
      </trkpt>
      <trkpt lat="43.39117" lon="6.73139">
        <ele>9.1</ele>
        <time>2023-05-16T15:41:25Z</time>
      </trkpt>
      <trkpt lat="43.39116" lon="6.73138">
        <ele>9.1</ele>
        <time>2023-05-16T15:41:26Z</time>
      </trkpt>
      <trkpt lat="43.39116" lon="6.73136">
        <ele>9.1</ele>
        <time>2023-05-16T15:41:27Z</time>
      </trkpt>
      <trkpt lat="43.39116" lon="6.73135">
        <ele>9.1</ele>
        <time>2023-05-16T15:41:28Z</time>
      </trkpt>
      <trkpt lat="43.39116" lon="6.73134">
        <ele>9.1</ele>
        <time>2023-05-16T15:41:29Z</time>
      </trkpt>
      <trkpt lat="43.39117" lon="6.7313">
        <ele>9.2</ele>
        <time>2023-05-16T15:41:30Z</time>
      </trkpt>
      <trkpt lat="43.39117" lon="6.73129">
        <ele>9.2</ele>
        <time>2023-05-16T15:41:31Z</time>
      </trkpt>
      <trkpt lat="43.39117" lon="6.73128">
        <ele>9.2</ele>
        <time>2023-05-16T15:41:32Z</time>
      </trkpt>
      <trkpt lat="43.39118" lon="6.73125">
        <ele>9.2</ele>
        <time>2023-05-16T15:41:33Z</time>
      </trkpt>
      <trkpt lat="43.39118" lon="6.73124">
        <ele>9.2</ele>
        <time>2023-05-16T15:41:35Z</time>
      </trkpt>
      <trkpt lat="43.39118" lon="6.73123">
        <ele>9.2</ele>
        <time>2023-05-16T15:41:36Z</time>
      </trkpt>
      <trkpt lat="43.39118" lon="6.7312">
        <ele>9.2</ele>
        <time>2023-05-16T15:41:37Z</time>
      </trkpt>
      <trkpt lat="43.39119" lon="6.73119">
        <ele>9.2</ele>
        <time>2023-05-16T15:41:38Z</time>
      </trkpt>
      <trkpt lat="43.39119" lon="6.73118">
        <ele>9.2</ele>
        <time>2023-05-16T15:41:39Z</time>
      </trkpt>
      <trkpt lat="43.39119" lon="6.73117">
        <ele>9.2</ele>
        <time>2023-05-16T15:41:40Z</time>
      </trkpt>
      <trkpt lat="43.39119" lon="6.73116">
        <ele>9.2</ele>
        <time>2023-05-16T15:41:41Z</time>
      </trkpt>
      <trkpt lat="43.39119" lon="6.73114">
        <ele>9.2</ele>
        <time>2023-05-16T15:41:43Z</time>
      </trkpt>
      <trkpt lat="43.39119" lon="6.73113">
        <ele>9.2</ele>
        <time>2023-05-16T15:41:45Z</time>
      </trkpt>
      <trkpt lat="43.39118" lon="6.7311">
        <ele>9.2</ele>
        <time>2023-05-16T15:41:46Z</time>
      </trkpt>
      <trkpt lat="43.39118" lon="6.73109">
        <ele>9.2</ele>
        <time>2023-05-16T15:41:47Z</time>
      </trkpt>
      <trkpt lat="43.39118" lon="6.73106">
        <ele>9.2</ele>
        <time>2023-05-16T15:41:48Z</time>
      </trkpt>
      <trkpt lat="43.39117" lon="6.73105">
        <ele>9.2</ele>
        <time>2023-05-16T15:41:49Z</time>
      </trkpt>
      <trkpt lat="43.39117" lon="6.73105">
        <ele>9.2</ele>
        <time>2023-05-16T15:41:50Z</time>
      </trkpt>
      <trkpt lat="43.39117" lon="6.73102">
        <ele>9.2</ele>
        <time>2023-05-16T15:41:51Z</time>
      </trkpt>
      <trkpt lat="43.39117" lon="6.73101">
        <ele>9.2</ele>
        <time>2023-05-16T15:41:53Z</time>
      </trkpt>
      <trkpt lat="43.39117" lon="6.731">
        <ele>9.1</ele>
        <time>2023-05-16T15:41:54Z</time>
      </trkpt>
      <trkpt lat="43.39118" lon="6.73098">
        <ele>9.1</ele>
        <time>2023-05-16T15:41:55Z</time>
      </trkpt>
      <trkpt lat="43.39119" lon="6.73096">
        <ele>9.1</ele>
        <time>2023-05-16T15:41:56Z</time>
      </trkpt>
      <trkpt lat="43.39119" lon="6.73095">
        <ele>9.1</ele>
        <time>2023-05-16T15:41:57Z</time>
      </trkpt>
      <trkpt lat="43.3912" lon="6.73093">
        <ele>9.1</ele>
        <time>2023-05-16T15:41:59Z</time>
      </trkpt>
      <trkpt lat="43.39121" lon="6.73092">
        <ele>9.1</ele>
        <time>2023-05-16T15:42:00Z</time>
      </trkpt>
      <trkpt lat="43.39121" lon="6.73088">
        <ele>9</ele>
        <time>2023-05-16T15:42:01Z</time>
      </trkpt>
      <trkpt lat="43.39121" lon="6.73087">
        <ele>9</ele>
        <time>2023-05-16T15:42:02Z</time>
      </trkpt>
      <trkpt lat="43.39121" lon="6.73086">
        <ele>9</ele>
        <time>2023-05-16T15:42:03Z</time>
      </trkpt>
      <trkpt lat="43.39121" lon="6.73083">
        <ele>9</ele>
        <time>2023-05-16T15:42:04Z</time>
      </trkpt>
      <trkpt lat="43.39121" lon="6.73082">
        <ele>8.9</ele>
        <time>2023-05-16T15:42:05Z</time>
      </trkpt>
      <trkpt lat="43.39121" lon="6.7308">
        <ele>8.9</ele>
        <time>2023-05-16T15:42:06Z</time>
      </trkpt>
      <trkpt lat="43.39122" lon="6.73078">
        <ele>8.9</ele>
        <time>2023-05-16T15:42:08Z</time>
      </trkpt>
      <trkpt lat="43.39122" lon="6.73076">
        <ele>8.9</ele>
        <time>2023-05-16T15:42:09Z</time>
      </trkpt>
      <trkpt lat="43.39122" lon="6.73075">
        <ele>8.9</ele>
        <time>2023-05-16T15:42:10Z</time>
      </trkpt>
      <trkpt lat="43.39122" lon="6.73073">
        <ele>8.8</ele>
        <time>2023-05-16T15:42:11Z</time>
      </trkpt>
      <trkpt lat="43.39122" lon="6.7307">
        <ele>8.8</ele>
        <time>2023-05-16T15:42:12Z</time>
      </trkpt>
      <trkpt lat="43.39122" lon="6.73069">
        <ele>8.8</ele>
        <time>2023-05-16T15:42:13Z</time>
      </trkpt>
      <trkpt lat="43.39122" lon="6.73067">
        <ele>8.7</ele>
        <time>2023-05-16T15:42:14Z</time>
      </trkpt>
      <trkpt lat="43.39123" lon="6.73066">
        <ele>8.7</ele>
        <time>2023-05-16T15:42:15Z</time>
      </trkpt>
      <trkpt lat="43.39124" lon="6.73063">
        <ele>8.6</ele>
        <time>2023-05-16T15:42:17Z</time>
      </trkpt>
      <trkpt lat="43.39124" lon="6.73062">
        <ele>8.6</ele>
        <time>2023-05-16T15:42:18Z</time>
      </trkpt>
      <trkpt lat="43.39124" lon="6.73059">
        <ele>8.5</ele>
        <time>2023-05-16T15:42:19Z</time>
      </trkpt>
      <trkpt lat="43.39125" lon="6.73057">
        <ele>8.6</ele>
        <time>2023-05-16T15:42:20Z</time>
      </trkpt>
      <trkpt lat="43.39125" lon="6.73056">
        <ele>8.7</ele>
        <time>2023-05-16T15:42:21Z</time>
      </trkpt>
      <trkpt lat="43.39125" lon="6.73055">
        <ele>8.7</ele>
        <time>2023-05-16T15:42:23Z</time>
      </trkpt>
      <trkpt lat="43.39124" lon="6.73053">
        <ele>8.8</ele>
        <time>2023-05-16T15:42:24Z</time>
      </trkpt>
      <trkpt lat="43.39123" lon="6.73053">
        <ele>8.8</ele>
        <time>2023-05-16T15:42:25Z</time>
      </trkpt>
      <trkpt lat="43.39121" lon="6.73054">
        <ele>8.9</ele>
        <time>2023-05-16T15:42:26Z</time>
      </trkpt>
      <trkpt lat="43.3912" lon="6.73055">
        <ele>9</ele>
        <time>2023-05-16T15:42:27Z</time>
      </trkpt>
      <trkpt lat="43.39118" lon="6.73055">
        <ele>9.1</ele>
        <time>2023-05-16T15:42:28Z</time>
      </trkpt>
      <trkpt lat="43.39117" lon="6.73054">
        <ele>9.1</ele>
        <time>2023-05-16T15:42:30Z</time>
      </trkpt>
      <trkpt lat="43.39116" lon="6.73054">
        <ele>9.1</ele>
        <time>2023-05-16T15:42:31Z</time>
      </trkpt>
      <trkpt lat="43.39115" lon="6.73053">
        <ele>9.2</ele>
        <time>2023-05-16T15:42:32Z</time>
      </trkpt>
      <trkpt lat="43.39114" lon="6.73052">
        <ele>9.2</ele>
        <time>2023-05-16T15:42:33Z</time>
      </trkpt>
      <trkpt lat="43.39113" lon="6.73051">
        <ele>9.3</ele>
        <time>2023-05-16T15:42:34Z</time>
      </trkpt>
      <trkpt lat="43.39111" lon="6.7305">
        <ele>9.3</ele>
        <time>2023-05-16T15:42:35Z</time>
      </trkpt>
      <trkpt lat="43.3911" lon="6.73049">
        <ele>9.3</ele>
        <time>2023-05-16T15:42:36Z</time>
      </trkpt>
      <trkpt lat="43.39109" lon="6.73049">
        <ele>9.4</ele>
        <time>2023-05-16T15:42:37Z</time>
      </trkpt>
      <trkpt lat="43.39107" lon="6.73047">
        <ele>9.4</ele>
        <time>2023-05-16T15:42:38Z</time>
      </trkpt>
      <trkpt lat="43.39106" lon="6.73047">
        <ele>9.4</ele>
        <time>2023-05-16T15:42:40Z</time>
      </trkpt>
      <trkpt lat="43.39106" lon="6.73046">
        <ele>9.4</ele>
        <time>2023-05-16T15:42:41Z</time>
      </trkpt>
      <trkpt lat="43.39104" lon="6.73045">
        <ele>9.5</ele>
        <time>2023-05-16T15:42:42Z</time>
      </trkpt>
      <trkpt lat="43.39102" lon="6.73045">
        <ele>9.5</ele>
        <time>2023-05-16T15:42:43Z</time>
      </trkpt>
      <trkpt lat="43.391" lon="6.73044">
        <ele>9.6</ele>
        <time>2023-05-16T15:42:44Z</time>
      </trkpt>
      <trkpt lat="43.39099" lon="6.73044">
        <ele>9.6</ele>
        <time>2023-05-16T15:42:45Z</time>
      </trkpt>
      <trkpt lat="43.39098" lon="6.73043">
        <ele>9.6</ele>
        <time>2023-05-16T15:42:46Z</time>
      </trkpt>
      <trkpt lat="43.39097" lon="6.73044">
        <ele>9.6</ele>
        <time>2023-05-16T15:42:48Z</time>
      </trkpt>
      <trkpt lat="43.39096" lon="6.73044">
        <ele>9.7</ele>
        <time>2023-05-16T15:42:49Z</time>
      </trkpt>
      <trkpt lat="43.39095" lon="6.73043">
        <ele>9.7</ele>
        <time>2023-05-16T15:42:50Z</time>
      </trkpt>
      <trkpt lat="43.39094" lon="6.73042">
        <ele>9.7</ele>
        <time>2023-05-16T15:42:51Z</time>
      </trkpt>
      <trkpt lat="43.39093" lon="6.7304">
        <ele>9.7</ele>
        <time>2023-05-16T15:42:52Z</time>
      </trkpt>
      <trkpt lat="43.39092" lon="6.73038">
        <ele>9.8</ele>
        <time>2023-05-16T15:42:53Z</time>
      </trkpt>
      <trkpt lat="43.39091" lon="6.73036">
        <ele>9.8</ele>
        <time>2023-05-16T15:42:54Z</time>
      </trkpt>
      <trkpt lat="43.39091" lon="6.73035">
        <ele>9.8</ele>
        <time>2023-05-16T15:42:55Z</time>
      </trkpt>
      <trkpt lat="43.39089" lon="6.73033">
        <ele>9.8</ele>
        <time>2023-05-16T15:42:56Z</time>
      </trkpt>
      <trkpt lat="43.39088" lon="6.73032">
        <ele>9.9</ele>
        <time>2023-05-16T15:42:57Z</time>
      </trkpt>
      <trkpt lat="43.39087" lon="6.73031">
        <ele>9.9</ele>
        <time>2023-05-16T15:42:59Z</time>
      </trkpt>
      <trkpt lat="43.39086" lon="6.7303">
        <ele>9.9</ele>
        <time>2023-05-16T15:43:00Z</time>
      </trkpt>
      <trkpt lat="43.39086" lon="6.73029">
        <ele>9.9</ele>
        <time>2023-05-16T15:43:01Z</time>
      </trkpt>
      <trkpt lat="43.39084" lon="6.73027">
        <ele>9.9</ele>
        <time>2023-05-16T15:43:02Z</time>
      </trkpt>
      <trkpt lat="43.39082" lon="6.73025">
        <ele>10</ele>
        <time>2023-05-16T15:43:03Z</time>
      </trkpt>
      <trkpt lat="43.39081" lon="6.73025">
        <ele>10</ele>
        <time>2023-05-16T15:43:04Z</time>
      </trkpt>
      <trkpt lat="43.3908" lon="6.73024">
        <ele>10</ele>
        <time>2023-05-16T15:43:05Z</time>
      </trkpt>
      <trkpt lat="43.39078" lon="6.73023">
        <ele>10.1</ele>
        <time>2023-05-16T15:43:06Z</time>
      </trkpt>
      <trkpt lat="43.39077" lon="6.73022">
        <ele>10.1</ele>
        <time>2023-05-16T15:43:07Z</time>
      </trkpt>
      <trkpt lat="43.39076" lon="6.73021">
        <ele>10.1</ele>
        <time>2023-05-16T15:43:08Z</time>
      </trkpt>
      <trkpt lat="43.39075" lon="6.7302">
        <ele>10.1</ele>
        <time>2023-05-16T15:43:09Z</time>
      </trkpt>
      <trkpt lat="43.39074" lon="6.73019">
        <ele>10.2</ele>
        <time>2023-05-16T15:43:11Z</time>
      </trkpt>
      <trkpt lat="43.39072" lon="6.73018">
        <ele>10.2</ele>
        <time>2023-05-16T15:43:12Z</time>
      </trkpt>
      <trkpt lat="43.39071" lon="6.73017">
        <ele>10.3</ele>
        <time>2023-05-16T15:43:13Z</time>
      </trkpt>
      <trkpt lat="43.3907" lon="6.73016">
        <ele>10.3</ele>
        <time>2023-05-16T15:43:14Z</time>
      </trkpt>
      <trkpt lat="43.39068" lon="6.73016">
        <ele>10.3</ele>
        <time>2023-05-16T15:43:15Z</time>
      </trkpt>
      <trkpt lat="43.39067" lon="6.73015">
        <ele>10.3</ele>
        <time>2023-05-16T15:43:16Z</time>
      </trkpt>
      <trkpt lat="43.39066" lon="6.73013">
        <ele>10.4</ele>
        <time>2023-05-16T15:43:17Z</time>
      </trkpt>
      <trkpt lat="43.39065" lon="6.73012">
        <ele>10.4</ele>
        <time>2023-05-16T15:43:18Z</time>
      </trkpt>
      <trkpt lat="43.39063" lon="6.73011">
        <ele>10.5</ele>
        <time>2023-05-16T15:43:20Z</time>
      </trkpt>
      <trkpt lat="43.39061" lon="6.73009">
        <ele>10.5</ele>
        <time>2023-05-16T15:43:22Z</time>
      </trkpt>
      <trkpt lat="43.3906" lon="6.73009">
        <ele>10.5</ele>
        <time>2023-05-16T15:43:23Z</time>
      </trkpt>
      <trkpt lat="43.39058" lon="6.73008">
        <ele>10.6</ele>
        <time>2023-05-16T15:43:24Z</time>
      </trkpt>
      <trkpt lat="43.39057" lon="6.73008">
        <ele>10.6</ele>
        <time>2023-05-16T15:43:25Z</time>
      </trkpt>
      <trkpt lat="43.39056" lon="6.73008">
        <ele>10.6</ele>
        <time>2023-05-16T15:43:26Z</time>
      </trkpt>
      <trkpt lat="43.39054" lon="6.73008">
        <ele>10.6</ele>
        <time>2023-05-16T15:43:27Z</time>
      </trkpt>
      <trkpt lat="43.39053" lon="6.73007">
        <ele>10.7</ele>
        <time>2023-05-16T15:43:29Z</time>
      </trkpt>
      <trkpt lat="43.39053" lon="6.73007">
        <ele>10.7</ele>
        <time>2023-05-16T15:43:30Z</time>
      </trkpt>
      <trkpt lat="43.39053" lon="6.73006">
        <ele>10.7</ele>
        <time>2023-05-16T15:43:31Z</time>
      </trkpt>
      <trkpt lat="43.39053" lon="6.73006">
        <ele>10.7</ele>
        <time>2023-05-16T15:43:33Z</time>
      </trkpt>
      <trkpt lat="43.39053" lon="6.73006">
        <ele>10.7</ele>
        <time>2023-05-16T15:43:34Z</time>
      </trkpt>
      <trkpt lat="43.39054" lon="6.73006">
        <ele>10.7</ele>
        <time>2023-05-16T15:43:35Z</time>
      </trkpt>
      <trkpt lat="43.39055" lon="6.73007">
        <ele>10.7</ele>
        <time>2023-05-16T15:43:36Z</time>
      </trkpt>
      <trkpt lat="43.39056" lon="6.73008">
        <ele>10.7</ele>
        <time>2023-05-16T15:43:38Z</time>
      </trkpt>
      <trkpt lat="43.39056" lon="6.73008">
        <ele>10.7</ele>
        <time>2023-05-16T15:43:39Z</time>
      </trkpt>
      <trkpt lat="43.39057" lon="6.73008">
        <ele>10.7</ele>
        <time>2023-05-16T15:43:41Z</time>
      </trkpt>
      <trkpt lat="43.39057" lon="6.73008">
        <ele>10.8</ele>
        <time>2023-05-16T15:43:42Z</time>
      </trkpt>
      <trkpt lat="43.39057" lon="6.73008">
        <ele>10.8</ele>
        <time>2023-05-16T15:43:43Z</time>
      </trkpt>
      <trkpt lat="43.39057" lon="6.73008">
        <ele>10.8</ele>
        <time>2023-05-16T15:43:45Z</time>
      </trkpt>
      <trkpt lat="43.39057" lon="6.73008">
        <ele>10.8</ele>
        <time>2023-05-16T15:43:46Z</time>
      </trkpt>
      <trkpt lat="43.39057" lon="6.73009">
        <ele>10.8</ele>
        <time>2023-05-16T15:43:47Z</time>
      </trkpt>
      <trkpt lat="43.39057" lon="6.73009">
        <ele>10.8</ele>
        <time>2023-05-16T15:43:48Z</time>
      </trkpt>
      <trkpt lat="43.39058" lon="6.73009">
        <ele>10.8</ele>
        <time>2023-05-16T15:43:49Z</time>
      </trkpt>
      <trkpt lat="43.39058" lon="6.73008">
        <ele>10.8</ele>
        <time>2023-05-16T15:43:50Z</time>
      </trkpt>
      <trkpt lat="43.39058" lon="6.73007">
        <ele>10.8</ele>
        <time>2023-05-16T15:43:51Z</time>
      </trkpt>
      <trkpt lat="43.39057" lon="6.73005">
        <ele>10.8</ele>
        <time>2023-05-16T15:43:52Z</time>
      </trkpt>
      <trkpt lat="43.39057" lon="6.73005">
        <ele>10.8</ele>
        <time>2023-05-16T15:43:53Z</time>
      </trkpt>
      <trkpt lat="43.39057" lon="6.73005">
        <ele>10.8</ele>
        <time>2023-05-16T15:43:54Z</time>
      </trkpt>
      <trkpt lat="43.39057" lon="6.73005">
        <ele>10.8</ele>
        <time>2023-05-16T15:43:55Z</time>
      </trkpt>
      <trkpt lat="43.39057" lon="6.73005">
        <ele>10.8</ele>
        <time>2023-05-16T15:43:56Z</time>
      </trkpt>
      <trkpt lat="43.39057" lon="6.73005">
        <ele>10.8</ele>
        <time>2023-05-16T15:43:57Z</time>
      </trkpt>
      <trkpt lat="43.39057" lon="6.73005">
        <ele>10.8</ele>
        <time>2023-05-16T15:43:58Z</time>
      </trkpt>
      <trkpt lat="43.39056" lon="6.73005">
        <ele>10.8</ele>
        <time>2023-05-16T15:43:59Z</time>
      </trkpt>
      <trkpt lat="43.39056" lon="6.73005">
        <ele>10.8</ele>
        <time>2023-05-16T15:44:00Z</time>
      </trkpt>
      <trkpt lat="43.39057" lon="6.73005">
        <ele>10.8</ele>
        <time>2023-05-16T15:44:01Z</time>
      </trkpt>
      <trkpt lat="43.39057" lon="6.73005">
        <ele>10.8</ele>
        <time>2023-05-16T15:44:02Z</time>
      </trkpt>
      <trkpt lat="43.39057" lon="6.73005">
        <ele>10.8</ele>
        <time>2023-05-16T15:44:03Z</time>
      </trkpt>
      <trkpt lat="43.39057" lon="6.73005">
        <ele>10.8</ele>
        <time>2023-05-16T15:44:04Z</time>
      </trkpt>
      <trkpt lat="43.39057" lon="6.73005">
        <ele>10.8</ele>
        <time>2023-05-16T15:44:05Z</time>
      </trkpt>
      <trkpt lat="43.39057" lon="6.73005">
        <ele>10.8</ele>
        <time>2023-05-16T15:44:06Z</time>
      </trkpt>
      <trkpt lat="43.39057" lon="6.73005">
        <ele>10.8</ele>
        <time>2023-05-16T15:44:07Z</time>
      </trkpt>
      <trkpt lat="43.39057" lon="6.73005">
        <ele>10.8</ele>
        <time>2023-05-16T15:44:08Z</time>
      </trkpt>
      <trkpt lat="43.39057" lon="6.73005">
        <ele>10.8</ele>
        <time>2023-05-16T15:44:09Z</time>
      </trkpt>
      <trkpt lat="43.39057" lon="6.73005">
        <ele>10.8</ele>
        <time>2023-05-16T15:44:10Z</time>
      </trkpt>
      <trkpt lat="43.39057" lon="6.73005">
        <ele>10.8</ele>
        <time>2023-05-16T15:44:11Z</time>
      </trkpt>
      <trkpt lat="43.39057" lon="6.73005">
        <ele>10.8</ele>
        <time>2023-05-16T15:44:12Z</time>
      </trkpt>
      <trkpt lat="43.39057" lon="6.73005">
        <ele>10.8</ele>
        <time>2023-05-16T15:44:13Z</time>
      </trkpt>
      <trkpt lat="43.39057" lon="6.73005">
        <ele>10.8</ele>
        <time>2023-05-16T15:44:14Z</time>
      </trkpt>
      <trkpt lat="43.39057" lon="6.73005">
        <ele>10.8</ele>
        <time>2023-05-16T15:44:15Z</time>
      </trkpt>
      <trkpt lat="43.39057" lon="6.73005">
        <ele>10.8</ele>
        <time>2023-05-16T15:44:16Z</time>
      </trkpt>
      <trkpt lat="43.39057" lon="6.73006">
        <ele>10.9</ele>
        <time>2023-05-16T15:44:17Z</time>
      </trkpt>
    </trkseg>
  </trk>
</gpx>